<?xml version="1.0" encoding="UTF-8"?><gpx creator="Wikiloc - https://www.wikiloc.com" version="1.1" xmlns="http://www.topografix.com/GPX/1/1" xmlns:xsi="http://www.w3.org/2001/XMLSchema-instance" xsi:schemaLocation="http://www.topografix.com/GPX/1/1 http://www.topografix.com/GPX/1/1/gpx.xsd"><metadata><name>Wikiloc - Camino del Salvador (Leon - Oviedo)</name><author><name>Asterawer</name><link href="https://www.wikiloc.com/wikiloc/user.do?id=311529"><text>Asterawer on Wikiloc</text></link></author><link href="https://www.wikiloc.com/hiking-trails/camino-del-salvador-leon-oviedo-11438919"><text>Camino del Salvador (Leon - Oviedo) on Wikiloc</text></link><time>2015-10-28T15:56:28Z</time></metadata><trk><name>Camino del Salvador (Leon - Oviedo)</name><cmt></cmt><desc></desc><trkseg><trkpt lat="42.595311" lon="-5.581652"><ele>792.794</ele><time>2015-10-24T04:29:38Z</time></trkpt><trkpt lat="42.595339" lon="-5.581607"><ele>872.057</ele><time>2015-10-24T04:29:40Z</time></trkpt><trkpt lat="42.595357" lon="-5.581560"><ele>841.322</ele><time>2015-10-24T04:29:43Z</time></trkpt><trkpt lat="42.595544" lon="-5.581452"><ele>841.308</ele><time>2015-10-24T04:29:59Z</time></trkpt><trkpt lat="42.595451" lon="-5.581468"><ele>841.330</ele><time>2015-10-24T04:30:12Z</time></trkpt><trkpt lat="42.595350" lon="-5.581428"><ele>841.330</ele><time>2015-10-24T04:30:28Z</time></trkpt><trkpt lat="42.595414" lon="-5.581472"><ele>841.393</ele><time>2015-10-24T04:30:45Z</time></trkpt><trkpt lat="42.595403" lon="-5.581476"><ele>841.382</ele><time>2015-10-24T04:30:52Z</time></trkpt><trkpt lat="42.595410" lon="-5.581454"><ele>841.397</ele><time>2015-10-24T04:30:55Z</time></trkpt><trkpt lat="42.595499" lon="-5.581318"><ele>841.818</ele><time>2015-10-24T04:31:08Z</time></trkpt><trkpt lat="42.595470" lon="-5.581198"><ele>841.870</ele><time>2015-10-24T04:31:18Z</time></trkpt><trkpt lat="42.595471" lon="-5.581188"><ele>841.858</ele><time>2015-10-24T04:31:19Z</time></trkpt><trkpt lat="42.595483" lon="-5.581135"><ele>841.879</ele><time>2015-10-24T04:31:22Z</time></trkpt><trkpt lat="42.595513" lon="-5.581074"><ele>841.805</ele><time>2015-10-24T04:31:27Z</time></trkpt><trkpt lat="42.595531" lon="-5.581031"><ele>841.825</ele><time>2015-10-24T04:31:30Z</time></trkpt><trkpt lat="42.595546" lon="-5.580969"><ele>842.208</ele><time>2015-10-24T04:31:33Z</time></trkpt><trkpt lat="42.595532" lon="-5.580881"><ele>842.288</ele><time>2015-10-24T04:31:38Z</time></trkpt><trkpt lat="42.595524" lon="-5.580839"><ele>842.288</ele><time>2015-10-24T04:31:39Z</time></trkpt><trkpt lat="42.595523" lon="-5.580668"><ele>842.231</ele><time>2015-10-24T04:31:49Z</time></trkpt><trkpt lat="42.595541" lon="-5.580634"><ele>842.260</ele><time>2015-10-24T04:31:51Z</time></trkpt><trkpt lat="42.595562" lon="-5.580621"><ele>842.245</ele><time>2015-10-24T04:31:52Z</time></trkpt><trkpt lat="42.595578" lon="-5.580608"><ele>842.246</ele><time>2015-10-24T04:31:53Z</time></trkpt><trkpt lat="42.595595" lon="-5.580593"><ele>842.298</ele><time>2015-10-24T04:31:54Z</time></trkpt><trkpt lat="42.595608" lon="-5.580581"><ele>842.296</ele><time>2015-10-24T04:31:55Z</time></trkpt><trkpt lat="42.595620" lon="-5.580571"><ele>842.242</ele><time>2015-10-24T04:31:56Z</time></trkpt><trkpt lat="42.595661" lon="-5.580419"><ele>842.222</ele><time>2015-10-24T04:32:05Z</time></trkpt><trkpt lat="42.595694" lon="-5.580301"><ele>842.714</ele><time>2015-10-24T04:32:11Z</time></trkpt><trkpt lat="42.595674" lon="-5.580283"><ele>842.708</ele><time>2015-10-24T04:32:12Z</time></trkpt><trkpt lat="42.595606" lon="-5.580125"><ele>842.765</ele><time>2015-10-24T04:32:17Z</time></trkpt><trkpt lat="42.595591" lon="-5.580095"><ele>842.785</ele><time>2015-10-24T04:32:18Z</time></trkpt><trkpt lat="42.595579" lon="-5.580067"><ele>842.768</ele><time>2015-10-24T04:32:19Z</time></trkpt><trkpt lat="42.595549" lon="-5.579954"><ele>843.237</ele><time>2015-10-24T04:32:24Z</time></trkpt><trkpt lat="42.595540" lon="-5.579937"><ele>843.282</ele><time>2015-10-24T04:32:25Z</time></trkpt><trkpt lat="42.595534" lon="-5.579920"><ele>843.293</ele><time>2015-10-24T04:32:26Z</time></trkpt><trkpt lat="42.595531" lon="-5.579883"><ele>843.255</ele><time>2015-10-24T04:32:28Z</time></trkpt><trkpt lat="42.595518" lon="-5.579842"><ele>843.243</ele><time>2015-10-24T04:32:32Z</time></trkpt><trkpt lat="42.595499" lon="-5.579844"><ele>843.753</ele><time>2015-10-24T04:32:45Z</time></trkpt><trkpt lat="42.595570" lon="-5.579850"><ele>843.704</ele><time>2015-10-24T04:32:49Z</time></trkpt><trkpt lat="42.595595" lon="-5.579832"><ele>843.714</ele><time>2015-10-24T04:32:50Z</time></trkpt><trkpt lat="42.595626" lon="-5.579802"><ele>843.708</ele><time>2015-10-24T04:32:52Z</time></trkpt><trkpt lat="42.595635" lon="-5.579750"><ele>843.746</ele><time>2015-10-24T04:32:54Z</time></trkpt><trkpt lat="42.595681" lon="-5.579637"><ele>843.746</ele><time>2015-10-24T04:32:59Z</time></trkpt><trkpt lat="42.595895" lon="-5.579307"><ele>843.739</ele><time>2015-10-24T04:33:17Z</time></trkpt><trkpt lat="42.595960" lon="-5.579053"><ele>843.718</ele><time>2015-10-24T04:33:32Z</time></trkpt><trkpt lat="42.595993" lon="-5.578902"><ele>843.213</ele><time>2015-10-24T04:33:41Z</time></trkpt><trkpt lat="42.596003" lon="-5.578833"><ele>843.284</ele><time>2015-10-24T04:33:45Z</time></trkpt><trkpt lat="42.596064" lon="-5.578598"><ele>843.246</ele><time>2015-10-24T04:34:00Z</time></trkpt><trkpt lat="42.596053" lon="-5.578534"><ele>843.774</ele><time>2015-10-24T04:34:04Z</time></trkpt><trkpt lat="42.595954" lon="-5.578328"><ele>843.719</ele><time>2015-10-24T04:34:17Z</time></trkpt><trkpt lat="42.595931" lon="-5.578133"><ele>843.709</ele><time>2015-10-24T04:34:29Z</time></trkpt><trkpt lat="42.595991" lon="-5.577849"><ele>844.219</ele><time>2015-10-24T04:34:45Z</time></trkpt><trkpt lat="42.596015" lon="-5.577780"><ele>844.208</ele><time>2015-10-24T04:34:51Z</time></trkpt><trkpt lat="42.596031" lon="-5.577737"><ele>844.282</ele><time>2015-10-24T04:34:54Z</time></trkpt><trkpt lat="42.596123" lon="-5.577536"><ele>844.762</ele><time>2015-10-24T04:35:07Z</time></trkpt><trkpt lat="42.596223" lon="-5.577390"><ele>844.215</ele><time>2015-10-24T04:35:20Z</time></trkpt><trkpt lat="42.596265" lon="-5.577353"><ele>844.284</ele><time>2015-10-24T04:35:25Z</time></trkpt><trkpt lat="42.596289" lon="-5.577350"><ele>844.299</ele><time>2015-10-24T04:35:27Z</time></trkpt><trkpt lat="42.596361" lon="-5.577393"><ele>844.780</ele><time>2015-10-24T04:35:32Z</time></trkpt><trkpt lat="42.596412" lon="-5.577281"><ele>844.742</ele><time>2015-10-24T04:35:40Z</time></trkpt><trkpt lat="42.596546" lon="-5.577124"><ele>844.710</ele><time>2015-10-24T04:35:52Z</time></trkpt><trkpt lat="42.596564" lon="-5.577045"><ele>844.794</ele><time>2015-10-24T04:35:57Z</time></trkpt><trkpt lat="42.596566" lon="-5.577026"><ele>844.757</ele><time>2015-10-24T04:35:58Z</time></trkpt><trkpt lat="42.596571" lon="-5.577008"><ele>844.722</ele><time>2015-10-24T04:35:59Z</time></trkpt><trkpt lat="42.596578" lon="-5.576991"><ele>844.708</ele><time>2015-10-24T04:36:00Z</time></trkpt><trkpt lat="42.596587" lon="-5.576977"><ele>844.770</ele><time>2015-10-24T04:36:01Z</time></trkpt><trkpt lat="42.596605" lon="-5.576964"><ele>844.720</ele><time>2015-10-24T04:36:02Z</time></trkpt><trkpt lat="42.596620" lon="-5.576949"><ele>844.783</ele><time>2015-10-24T04:36:03Z</time></trkpt><trkpt lat="42.596696" lon="-5.576767"><ele>844.752</ele><time>2015-10-24T04:36:16Z</time></trkpt><trkpt lat="42.596714" lon="-5.576633"><ele>844.737</ele><time>2015-10-24T04:36:24Z</time></trkpt><trkpt lat="42.596709" lon="-5.576614"><ele>844.718</ele><time>2015-10-24T04:36:25Z</time></trkpt><trkpt lat="42.596712" lon="-5.576549"><ele>844.720</ele><time>2015-10-24T04:36:29Z</time></trkpt><trkpt lat="42.596733" lon="-5.576442"><ele>844.758</ele><time>2015-10-24T04:36:36Z</time></trkpt><trkpt lat="42.596758" lon="-5.576176"><ele>844.796</ele><time>2015-10-24T04:36:50Z</time></trkpt><trkpt lat="42.596801" lon="-5.576088"><ele>844.731</ele><time>2015-10-24T04:36:54Z</time></trkpt><trkpt lat="42.596807" lon="-5.576068"><ele>844.724</ele><time>2015-10-24T04:36:55Z</time></trkpt><trkpt lat="42.596814" lon="-5.576049"><ele>844.708</ele><time>2015-10-24T04:36:56Z</time></trkpt><trkpt lat="42.596874" lon="-5.575845"><ele>844.720</ele><time>2015-10-24T04:37:08Z</time></trkpt><trkpt lat="42.596880" lon="-5.575826"><ele>844.720</ele><time>2015-10-24T04:37:09Z</time></trkpt><trkpt lat="42.596888" lon="-5.575762"><ele>844.773</ele><time>2015-10-24T04:37:13Z</time></trkpt><trkpt lat="42.596888" lon="-5.575733"><ele>844.752</ele><time>2015-10-24T04:37:15Z</time></trkpt><trkpt lat="42.596900" lon="-5.575591"><ele>844.737</ele><time>2015-10-24T04:37:23Z</time></trkpt><trkpt lat="42.596955" lon="-5.575353"><ele>844.748</ele><time>2015-10-24T04:37:38Z</time></trkpt><trkpt lat="42.596965" lon="-5.575311"><ele>845.180</ele><time>2015-10-24T04:37:41Z</time></trkpt><trkpt lat="42.596982" lon="-5.575245"><ele>845.198</ele><time>2015-10-24T04:37:46Z</time></trkpt><trkpt lat="42.596979" lon="-5.575208"><ele>845.131</ele><time>2015-10-24T04:37:48Z</time></trkpt><trkpt lat="42.596969" lon="-5.575171"><ele>845.161</ele><time>2015-10-24T04:37:50Z</time></trkpt><trkpt lat="42.596963" lon="-5.575152"><ele>845.107</ele><time>2015-10-24T04:37:51Z</time></trkpt><trkpt lat="42.596953" lon="-5.575119"><ele>845.108</ele><time>2015-10-24T04:37:53Z</time></trkpt><trkpt lat="42.596944" lon="-5.575108"><ele>845.114</ele><time>2015-10-24T04:37:54Z</time></trkpt><trkpt lat="42.596918" lon="-5.574959"><ele>845.114</ele><time>2015-10-24T04:38:06Z</time></trkpt><trkpt lat="42.596927" lon="-5.574706"><ele>845.187</ele><time>2015-10-24T04:38:18Z</time></trkpt><trkpt lat="42.596919" lon="-5.574634"><ele>845.176</ele><time>2015-10-24T04:38:24Z</time></trkpt><trkpt lat="42.596936" lon="-5.574585"><ele>845.191</ele><time>2015-10-24T04:38:27Z</time></trkpt><trkpt lat="42.596947" lon="-5.574571"><ele>845.152</ele><time>2015-10-24T04:38:28Z</time></trkpt><trkpt lat="42.596955" lon="-5.574541"><ele>845.114</ele><time>2015-10-24T04:38:30Z</time></trkpt><trkpt lat="42.596954" lon="-5.574523"><ele>845.142</ele><time>2015-10-24T04:38:31Z</time></trkpt><trkpt lat="42.596956" lon="-5.574349"><ele>845.112</ele><time>2015-10-24T04:38:44Z</time></trkpt><trkpt lat="42.596980" lon="-5.574165"><ele>845.132</ele><time>2015-10-24T04:38:55Z</time></trkpt><trkpt lat="42.596970" lon="-5.574148"><ele>845.105</ele><time>2015-10-24T04:38:56Z</time></trkpt><trkpt lat="42.596961" lon="-5.574129"><ele>845.108</ele><time>2015-10-24T04:38:57Z</time></trkpt><trkpt lat="42.596955" lon="-5.574108"><ele>845.162</ele><time>2015-10-24T04:38:58Z</time></trkpt><trkpt lat="42.596952" lon="-5.574088"><ele>845.182</ele><time>2015-10-24T04:38:59Z</time></trkpt><trkpt lat="42.596969" lon="-5.573955"><ele>845.135</ele><time>2015-10-24T04:39:07Z</time></trkpt><trkpt lat="42.596970" lon="-5.573934"><ele>845.194</ele><time>2015-10-24T04:39:08Z</time></trkpt><trkpt lat="42.596974" lon="-5.573910"><ele>845.189</ele><time>2015-10-24T04:39:09Z</time></trkpt><trkpt lat="42.596983" lon="-5.573870"><ele>845.140</ele><time>2015-10-24T04:39:11Z</time></trkpt><trkpt lat="42.597006" lon="-5.573782"><ele>845.142</ele><time>2015-10-24T04:39:17Z</time></trkpt><trkpt lat="42.597004" lon="-5.573681"><ele>845.110</ele><time>2015-10-24T04:39:23Z</time></trkpt><trkpt lat="42.597028" lon="-5.573483"><ele>845.148</ele><time>2015-10-24T04:39:35Z</time></trkpt><trkpt lat="42.597066" lon="-5.573265"><ele>845.161</ele><time>2015-10-24T04:39:47Z</time></trkpt><trkpt lat="42.597065" lon="-5.573225"><ele>845.117</ele><time>2015-10-24T04:39:50Z</time></trkpt><trkpt lat="42.597069" lon="-5.573174"><ele>845.108</ele><time>2015-10-24T04:39:53Z</time></trkpt><trkpt lat="42.597206" lon="-5.572978"><ele>845.135</ele><time>2015-10-24T04:40:05Z</time></trkpt><trkpt lat="42.597411" lon="-5.572859"><ele>845.145</ele><time>2015-10-24T04:40:12Z</time></trkpt><trkpt lat="42.597459" lon="-5.572812"><ele>845.198</ele><time>2015-10-24T04:40:15Z</time></trkpt><trkpt lat="42.597466" lon="-5.572780"><ele>845.167</ele><time>2015-10-24T04:40:17Z</time></trkpt><trkpt lat="42.597486" lon="-5.572689"><ele>845.182</ele><time>2015-10-24T04:40:25Z</time></trkpt><trkpt lat="42.597499" lon="-5.572658"><ele>845.163</ele><time>2015-10-24T04:40:27Z</time></trkpt><trkpt lat="42.597517" lon="-5.572622"><ele>845.135</ele><time>2015-10-24T04:40:30Z</time></trkpt><trkpt lat="42.597531" lon="-5.572613"><ele>845.123</ele><time>2015-10-24T04:40:31Z</time></trkpt><trkpt lat="42.597558" lon="-5.572583"><ele>845.167</ele><time>2015-10-24T04:40:34Z</time></trkpt><trkpt lat="42.597553" lon="-5.572546"><ele>845.181</ele><time>2015-10-24T04:40:35Z</time></trkpt><trkpt lat="42.597546" lon="-5.572507"><ele>845.119</ele><time>2015-10-24T04:40:37Z</time></trkpt><trkpt lat="42.597559" lon="-5.572416"><ele>845.108</ele><time>2015-10-24T04:40:42Z</time></trkpt><trkpt lat="42.597578" lon="-5.572388"><ele>845.137</ele><time>2015-10-24T04:40:44Z</time></trkpt><trkpt lat="42.597607" lon="-5.572302"><ele>845.167</ele><time>2015-10-24T04:40:48Z</time></trkpt><trkpt lat="42.597715" lon="-5.572148"><ele>845.160</ele><time>2015-10-24T04:40:58Z</time></trkpt><trkpt lat="42.597719" lon="-5.572082"><ele>845.199</ele><time>2015-10-24T04:41:02Z</time></trkpt><trkpt lat="42.597690" lon="-5.572020"><ele>845.194</ele><time>2015-10-24T04:41:05Z</time></trkpt><trkpt lat="42.597602" lon="-5.571841"><ele>845.135</ele><time>2015-10-24T04:41:16Z</time></trkpt><trkpt lat="42.597579" lon="-5.571713"><ele>845.137</ele><time>2015-10-24T04:41:22Z</time></trkpt><trkpt lat="42.597586" lon="-5.571694"><ele>845.175</ele><time>2015-10-24T04:41:23Z</time></trkpt><trkpt lat="42.597598" lon="-5.571678"><ele>845.184</ele><time>2015-10-24T04:41:24Z</time></trkpt><trkpt lat="42.597621" lon="-5.571628"><ele>845.107</ele><time>2015-10-24T04:41:26Z</time></trkpt><trkpt lat="42.597607" lon="-5.571515"><ele>845.117</ele><time>2015-10-24T04:41:33Z</time></trkpt><trkpt lat="42.597686" lon="-5.571414"><ele>845.108</ele><time>2015-10-24T04:41:39Z</time></trkpt><trkpt lat="42.597743" lon="-5.571122"><ele>845.629</ele><time>2015-10-24T04:41:53Z</time></trkpt><trkpt lat="42.597794" lon="-5.571060"><ele>845.649</ele><time>2015-10-24T04:41:57Z</time></trkpt><trkpt lat="42.597852" lon="-5.570891"><ele>845.122</ele><time>2015-10-24T04:42:08Z</time></trkpt><trkpt lat="42.597889" lon="-5.570617"><ele>845.631</ele><time>2015-10-24T04:42:23Z</time></trkpt><trkpt lat="42.597891" lon="-5.570601"><ele>845.696</ele><time>2015-10-24T04:42:24Z</time></trkpt><trkpt lat="42.597901" lon="-5.570551"><ele>845.617</ele><time>2015-10-24T04:42:27Z</time></trkpt><trkpt lat="42.597967" lon="-5.570392"><ele>845.649</ele><time>2015-10-24T04:42:38Z</time></trkpt><trkpt lat="42.597971" lon="-5.570375"><ele>845.627</ele><time>2015-10-24T04:42:39Z</time></trkpt><trkpt lat="42.598032" lon="-5.570165"><ele>846.159</ele><time>2015-10-24T04:42:54Z</time></trkpt><trkpt lat="42.598136" lon="-5.569945"><ele>846.603</ele><time>2015-10-24T04:43:07Z</time></trkpt><trkpt lat="42.598193" lon="-5.569817"><ele>846.623</ele><time>2015-10-24T04:43:13Z</time></trkpt><trkpt lat="42.598290" lon="-5.569550"><ele>847.508</ele><time>2015-10-24T04:43:29Z</time></trkpt><trkpt lat="42.598290" lon="-5.569538"><ele>847.526</ele><time>2015-10-24T04:43:30Z</time></trkpt><trkpt lat="42.598328" lon="-5.569327"><ele>848.016</ele><time>2015-10-24T04:43:45Z</time></trkpt><trkpt lat="42.598336" lon="-5.569112"><ele>848.599</ele><time>2015-10-24T04:43:59Z</time></trkpt><trkpt lat="42.598396" lon="-5.568868"><ele>849.048</ele><time>2015-10-24T04:44:11Z</time></trkpt><trkpt lat="42.598418" lon="-5.568794"><ele>849.573</ele><time>2015-10-24T04:44:18Z</time></trkpt><trkpt lat="42.598410" lon="-5.568667"><ele>849.584</ele><time>2015-10-24T04:44:26Z</time></trkpt><trkpt lat="42.598484" lon="-5.568417"><ele>849.986</ele><time>2015-10-24T04:44:43Z</time></trkpt><trkpt lat="42.598507" lon="-5.568392"><ele>849.944</ele><time>2015-10-24T04:44:44Z</time></trkpt><trkpt lat="42.598552" lon="-5.568129"><ele>849.945</ele><time>2015-10-24T04:45:00Z</time></trkpt><trkpt lat="42.598589" lon="-5.568044"><ele>849.947</ele><time>2015-10-24T04:45:06Z</time></trkpt><trkpt lat="42.598676" lon="-5.567799"><ele>850.411</ele><time>2015-10-24T04:45:20Z</time></trkpt><trkpt lat="42.598715" lon="-5.567581"><ele>850.408</ele><time>2015-10-24T04:45:34Z</time></trkpt><trkpt lat="42.598707" lon="-5.567336"><ele>850.485</ele><time>2015-10-24T04:45:48Z</time></trkpt><trkpt lat="42.598714" lon="-5.567347"><ele>850.955</ele><time>2015-10-24T04:45:53Z</time></trkpt><trkpt lat="42.598718" lon="-5.567400"><ele>850.948</ele><time>2015-10-24T04:46:07Z</time></trkpt><trkpt lat="42.598884" lon="-5.567378"><ele>850.977</ele><time>2015-10-24T04:46:25Z</time></trkpt><trkpt lat="42.599031" lon="-5.567301"><ele>850.992</ele><time>2015-10-24T04:46:42Z</time></trkpt><trkpt lat="42.599055" lon="-5.567309"><ele>850.963</ele><time>2015-10-24T04:47:03Z</time></trkpt><trkpt lat="42.599025" lon="-5.567331"><ele>850.965</ele><time>2015-10-24T04:47:22Z</time></trkpt><trkpt lat="42.599022" lon="-5.567240"><ele>851.433</ele><time>2015-10-24T04:47:39Z</time></trkpt><trkpt lat="42.599064" lon="-5.567249"><ele>851.474</ele><time>2015-10-24T04:47:58Z</time></trkpt><trkpt lat="42.599173" lon="-5.567365"><ele>851.456</ele><time>2015-10-24T04:48:06Z</time></trkpt><trkpt lat="42.599185" lon="-5.567397"><ele>852.321</ele><time>2015-10-24T04:48:08Z</time></trkpt><trkpt lat="42.599202" lon="-5.567606"><ele>852.308</ele><time>2015-10-24T04:48:22Z</time></trkpt><trkpt lat="42.599148" lon="-5.567730"><ele>852.388</ele><time>2015-10-24T04:48:32Z</time></trkpt><trkpt lat="42.599167" lon="-5.567979"><ele>852.398</ele><time>2015-10-24T04:48:37Z</time></trkpt><trkpt lat="42.599261" lon="-5.568233"><ele>851.481</ele><time>2015-10-24T04:48:52Z</time></trkpt><trkpt lat="42.599283" lon="-5.568352"><ele>851.480</ele><time>2015-10-24T04:48:59Z</time></trkpt><trkpt lat="42.599255" lon="-5.568505"><ele>851.475</ele><time>2015-10-24T04:49:11Z</time></trkpt><trkpt lat="42.599251" lon="-5.568543"><ele>851.426</ele><time>2015-10-24T04:49:14Z</time></trkpt><trkpt lat="42.599192" lon="-5.568787"><ele>850.488</ele><time>2015-10-24T04:49:31Z</time></trkpt><trkpt lat="42.599196" lon="-5.568986"><ele>850.496</ele><time>2015-10-24T04:49:46Z</time></trkpt><trkpt lat="42.599176" lon="-5.569102"><ele>849.979</ele><time>2015-10-24T04:49:58Z</time></trkpt><trkpt lat="42.599135" lon="-5.569505"><ele>849.505</ele><time>2015-10-24T04:50:17Z</time></trkpt><trkpt lat="42.599285" lon="-5.569820"><ele>849.025</ele><time>2015-10-24T04:50:34Z</time></trkpt><trkpt lat="42.599345" lon="-5.570013"><ele>849.008</ele><time>2015-10-24T04:50:50Z</time></trkpt><trkpt lat="42.599391" lon="-5.570107"><ele>849.098</ele><time>2015-10-24T04:50:58Z</time></trkpt><trkpt lat="42.599449" lon="-5.570131"><ele>849.068</ele><time>2015-10-24T04:51:06Z</time></trkpt><trkpt lat="42.599581" lon="-5.570194"><ele>849.071</ele><time>2015-10-24T04:51:18Z</time></trkpt><trkpt lat="42.599609" lon="-5.570210"><ele>849.080</ele><time>2015-10-24T04:51:21Z</time></trkpt><trkpt lat="42.599692" lon="-5.570261"><ele>849.545</ele><time>2015-10-24T04:51:29Z</time></trkpt><trkpt lat="42.599837" lon="-5.570235"><ele>849.046</ele><time>2015-10-24T04:51:42Z</time></trkpt><trkpt lat="42.599934" lon="-5.570269"><ele>850.418</ele><time>2015-10-24T04:51:51Z</time></trkpt><trkpt lat="42.600006" lon="-5.570303"><ele>850.446</ele><time>2015-10-24T04:51:57Z</time></trkpt><trkpt lat="42.600156" lon="-5.570528"><ele>850.961</ele><time>2015-10-24T04:52:12Z</time></trkpt><trkpt lat="42.600183" lon="-5.570529"><ele>850.921</ele><time>2015-10-24T04:52:14Z</time></trkpt><trkpt lat="42.600323" lon="-5.570542"><ele>851.413</ele><time>2015-10-24T04:52:27Z</time></trkpt><trkpt lat="42.600509" lon="-5.570444"><ele>851.408</ele><time>2015-10-24T04:52:44Z</time></trkpt><trkpt lat="42.600615" lon="-5.570400"><ele>851.427</ele><time>2015-10-24T04:52:56Z</time></trkpt><trkpt lat="42.600687" lon="-5.570403"><ele>851.427</ele><time>2015-10-24T04:53:02Z</time></trkpt><trkpt lat="42.600959" lon="-5.570493"><ele>851.930</ele><time>2015-10-24T04:53:22Z</time></trkpt><trkpt lat="42.601137" lon="-5.570560"><ele>852.399</ele><time>2015-10-24T04:53:36Z</time></trkpt><trkpt lat="42.601348" lon="-5.570577"><ele>852.324</ele><time>2015-10-24T04:53:52Z</time></trkpt><trkpt lat="42.601442" lon="-5.570689"><ele>852.375</ele><time>2015-10-24T04:54:01Z</time></trkpt><trkpt lat="42.601575" lon="-5.570875"><ele>852.337</ele><time>2015-10-24T04:54:16Z</time></trkpt><trkpt lat="42.601602" lon="-5.570966"><ele>852.355</ele><time>2015-10-24T04:54:22Z</time></trkpt><trkpt lat="42.601697" lon="-5.571072"><ele>851.931</ele><time>2015-10-24T04:54:30Z</time></trkpt><trkpt lat="42.601770" lon="-5.571340"><ele>851.961</ele><time>2015-10-24T04:54:47Z</time></trkpt><trkpt lat="42.601782" lon="-5.571473"><ele>850.407</ele><time>2015-10-24T04:54:57Z</time></trkpt><trkpt lat="42.601808" lon="-5.571657"><ele>849.908</ele><time>2015-10-24T04:55:08Z</time></trkpt><trkpt lat="42.601874" lon="-5.571902"><ele>849.594</ele><time>2015-10-24T04:55:24Z</time></trkpt><trkpt lat="42.601880" lon="-5.571905"><ele>849.524</ele><time>2015-10-24T04:55:25Z</time></trkpt><trkpt lat="42.601918" lon="-5.571918"><ele>849.087</ele><time>2015-10-24T04:55:30Z</time></trkpt><trkpt lat="42.601953" lon="-5.572038"><ele>849.096</ele><time>2015-10-24T04:55:37Z</time></trkpt><trkpt lat="42.601891" lon="-5.572343"><ele>849.051</ele><time>2015-10-24T04:55:56Z</time></trkpt><trkpt lat="42.601905" lon="-5.572489"><ele>848.592</ele><time>2015-10-24T04:56:08Z</time></trkpt><trkpt lat="42.601936" lon="-5.572704"><ele>848.034</ele><time>2015-10-24T04:56:20Z</time></trkpt><trkpt lat="42.601919" lon="-5.573018"><ele>848.062</ele><time>2015-10-24T04:56:36Z</time></trkpt><trkpt lat="42.601886" lon="-5.573342"><ele>847.524</ele><time>2015-10-24T04:56:54Z</time></trkpt><trkpt lat="42.601870" lon="-5.573573"><ele>847.104</ele><time>2015-10-24T04:57:12Z</time></trkpt><trkpt lat="42.601893" lon="-5.573909"><ele>846.114</ele><time>2015-10-24T04:57:30Z</time></trkpt><trkpt lat="42.601875" lon="-5.574261"><ele>846.108</ele><time>2015-10-24T04:57:47Z</time></trkpt><trkpt lat="42.601965" lon="-5.574441"><ele>845.663</ele><time>2015-10-24T04:58:00Z</time></trkpt><trkpt lat="42.602030" lon="-5.574614"><ele>845.683</ele><time>2015-10-24T04:58:11Z</time></trkpt><trkpt lat="42.602046" lon="-5.574696"><ele>845.616</ele><time>2015-10-24T04:58:15Z</time></trkpt><trkpt lat="42.602056" lon="-5.574760"><ele>845.685</ele><time>2015-10-24T04:58:18Z</time></trkpt><trkpt lat="42.602064" lon="-5.574990"><ele>845.610</ele><time>2015-10-24T04:58:32Z</time></trkpt><trkpt lat="42.602008" lon="-5.575167"><ele>845.651</ele><time>2015-10-24T04:58:47Z</time></trkpt><trkpt lat="42.601978" lon="-5.575226"><ele>846.123</ele><time>2015-10-24T04:58:53Z</time></trkpt><trkpt lat="42.601931" lon="-5.575480"><ele>845.641</ele><time>2015-10-24T04:59:12Z</time></trkpt><trkpt lat="42.601924" lon="-5.575620"><ele>845.684</ele><time>2015-10-24T04:59:20Z</time></trkpt><trkpt lat="42.601873" lon="-5.576001"><ele>845.607</ele><time>2015-10-24T04:59:38Z</time></trkpt><trkpt lat="42.601792" lon="-5.576102"><ele>845.617</ele><time>2015-10-24T04:59:54Z</time></trkpt><trkpt lat="42.601844" lon="-5.576515"><ele>845.608</ele><time>2015-10-24T05:00:09Z</time></trkpt><trkpt lat="42.601883" lon="-5.576803"><ele>845.659</ele><time>2015-10-24T05:00:24Z</time></trkpt><trkpt lat="42.601833" lon="-5.577135"><ele>845.619</ele><time>2015-10-24T05:00:44Z</time></trkpt><trkpt lat="42.601781" lon="-5.577422"><ele>845.622</ele><time>2015-10-24T05:01:03Z</time></trkpt><trkpt lat="42.601837" lon="-5.577634"><ele>845.671</ele><time>2015-10-24T05:01:15Z</time></trkpt><trkpt lat="42.601868" lon="-5.577780"><ele>845.656</ele><time>2015-10-24T05:01:30Z</time></trkpt><trkpt lat="42.601888" lon="-5.578012"><ele>845.637</ele><time>2015-10-24T05:01:41Z</time></trkpt><trkpt lat="42.601948" lon="-5.578345"><ele>845.689</ele><time>2015-10-24T05:01:59Z</time></trkpt><trkpt lat="42.601883" lon="-5.578687"><ele>845.617</ele><time>2015-10-24T05:02:18Z</time></trkpt><trkpt lat="42.601873" lon="-5.579006"><ele>845.611</ele><time>2015-10-24T05:02:37Z</time></trkpt><trkpt lat="42.601900" lon="-5.579212"><ele>845.621</ele><time>2015-10-24T05:02:42Z</time></trkpt><trkpt lat="42.601820" lon="-5.579409"><ele>845.603</ele><time>2015-10-24T05:02:55Z</time></trkpt><trkpt lat="42.601838" lon="-5.579553"><ele>845.608</ele><time>2015-10-24T05:03:08Z</time></trkpt><trkpt lat="42.601826" lon="-5.579731"><ele>845.692</ele><time>2015-10-24T05:03:21Z</time></trkpt><trkpt lat="42.601847" lon="-5.579847"><ele>845.672</ele><time>2015-10-24T05:03:29Z</time></trkpt><trkpt lat="42.601844" lon="-5.579895"><ele>845.645</ele><time>2015-10-24T05:03:32Z</time></trkpt><trkpt lat="42.601812" lon="-5.579944"><ele>845.674</ele><time>2015-10-24T05:03:36Z</time></trkpt><trkpt lat="42.601802" lon="-5.579997"><ele>845.129</ele><time>2015-10-24T05:03:39Z</time></trkpt><trkpt lat="42.601791" lon="-5.580095"><ele>845.160</ele><time>2015-10-24T05:03:45Z</time></trkpt><trkpt lat="42.601816" lon="-5.580180"><ele>845.152</ele><time>2015-10-24T05:03:51Z</time></trkpt><trkpt lat="42.601904" lon="-5.580439"><ele>845.160</ele><time>2015-10-24T05:04:09Z</time></trkpt><trkpt lat="42.601940" lon="-5.580605"><ele>845.182</ele><time>2015-10-24T05:04:22Z</time></trkpt><trkpt lat="42.601980" lon="-5.580657"><ele>845.143</ele><time>2015-10-24T05:04:27Z</time></trkpt><trkpt lat="42.602066" lon="-5.580597"><ele>845.117</ele><time>2015-10-24T05:04:44Z</time></trkpt><trkpt lat="42.602062" lon="-5.580581"><ele>845.108</ele><time>2015-10-24T05:04:46Z</time></trkpt><trkpt lat="42.602089" lon="-5.580670"><ele>845.139</ele><time>2015-10-24T05:04:52Z</time></trkpt><trkpt lat="42.602097" lon="-5.580702"><ele>845.119</ele><time>2015-10-24T05:04:55Z</time></trkpt><trkpt lat="42.602198" lon="-5.580799"><ele>845.162</ele><time>2015-10-24T05:05:11Z</time></trkpt><trkpt lat="42.602214" lon="-5.580785"><ele>845.131</ele><time>2015-10-24T05:05:20Z</time></trkpt><trkpt lat="42.602271" lon="-5.580802"><ele>845.146</ele><time>2015-10-24T05:05:26Z</time></trkpt><trkpt lat="42.602452" lon="-5.580900"><ele>844.737</ele><time>2015-10-24T05:05:45Z</time></trkpt><trkpt lat="42.602598" lon="-5.580990"><ele>844.799</ele><time>2015-10-24T05:06:03Z</time></trkpt><trkpt lat="42.602679" lon="-5.581045"><ele>844.717</ele><time>2015-10-24T05:06:18Z</time></trkpt><trkpt lat="42.602753" lon="-5.581086"><ele>844.713</ele><time>2015-10-24T05:06:37Z</time></trkpt><trkpt lat="42.602789" lon="-5.581137"><ele>844.743</ele><time>2015-10-24T05:06:42Z</time></trkpt><trkpt lat="42.602932" lon="-5.581293"><ele>844.707</ele><time>2015-10-24T05:06:58Z</time></trkpt><trkpt lat="42.603036" lon="-5.581455"><ele>844.708</ele><time>2015-10-24T05:07:16Z</time></trkpt><trkpt lat="42.603063" lon="-5.581511"><ele>844.732</ele><time>2015-10-24T05:07:46Z</time></trkpt><trkpt lat="42.603079" lon="-5.581532"><ele>844.732</ele><time>2015-10-24T05:07:48Z</time></trkpt><trkpt lat="42.603112" lon="-5.581587"><ele>844.755</ele><time>2015-10-24T05:07:53Z</time></trkpt><trkpt lat="42.603146" lon="-5.581650"><ele>844.724</ele><time>2015-10-24T05:07:58Z</time></trkpt><trkpt lat="42.603174" lon="-5.581694"><ele>844.789</ele><time>2015-10-24T05:08:02Z</time></trkpt><trkpt lat="42.603322" lon="-5.581903"><ele>845.640</ele><time>2015-10-24T05:08:20Z</time></trkpt><trkpt lat="42.603485" lon="-5.582016"><ele>845.652</ele><time>2015-10-24T05:08:37Z</time></trkpt><trkpt lat="42.603583" lon="-5.582212"><ele>845.660</ele><time>2015-10-24T05:08:52Z</time></trkpt><trkpt lat="42.603657" lon="-5.582392"><ele>845.678</ele><time>2015-10-24T05:09:03Z</time></trkpt><trkpt lat="42.603725" lon="-5.582645"><ele>845.633</ele><time>2015-10-24T05:09:19Z</time></trkpt><trkpt lat="42.603741" lon="-5.582686"><ele>845.626</ele><time>2015-10-24T05:09:22Z</time></trkpt><trkpt lat="42.603776" lon="-5.582700"><ele>845.608</ele><time>2015-10-24T05:09:26Z</time></trkpt><trkpt lat="42.603951" lon="-5.582639"><ele>846.188</ele><time>2015-10-24T05:09:42Z</time></trkpt><trkpt lat="42.603991" lon="-5.582620"><ele>846.178</ele><time>2015-10-24T05:09:46Z</time></trkpt><trkpt lat="42.604062" lon="-5.582588"><ele>845.671</ele><time>2015-10-24T05:09:57Z</time></trkpt><trkpt lat="42.604121" lon="-5.582606"><ele>845.640</ele><time>2015-10-24T05:10:02Z</time></trkpt><trkpt lat="42.604171" lon="-5.582670"><ele>845.615</ele><time>2015-10-24T05:10:08Z</time></trkpt><trkpt lat="42.604188" lon="-5.582917"><ele>845.686</ele><time>2015-10-24T05:10:23Z</time></trkpt><trkpt lat="42.604178" lon="-5.582961"><ele>845.648</ele><time>2015-10-24T05:10:26Z</time></trkpt><trkpt lat="42.604211" lon="-5.583269"><ele>845.696</ele><time>2015-10-24T05:10:45Z</time></trkpt><trkpt lat="42.604244" lon="-5.583417"><ele>845.616</ele><time>2015-10-24T05:10:56Z</time></trkpt><trkpt lat="42.604248" lon="-5.583447"><ele>845.676</ele><time>2015-10-24T05:10:58Z</time></trkpt><trkpt lat="42.604287" lon="-5.583500"><ele>845.613</ele><time>2015-10-24T05:11:03Z</time></trkpt><trkpt lat="42.604298" lon="-5.583562"><ele>845.608</ele><time>2015-10-24T05:11:09Z</time></trkpt><trkpt lat="42.604295" lon="-5.583658"><ele>845.682</ele><time>2015-10-24T05:11:14Z</time></trkpt><trkpt lat="42.604292" lon="-5.583736"><ele>845.162</ele><time>2015-10-24T05:11:18Z</time></trkpt><trkpt lat="42.604379" lon="-5.583958"><ele>845.685</ele><time>2015-10-24T05:11:34Z</time></trkpt><trkpt lat="42.604471" lon="-5.584269"><ele>846.114</ele><time>2015-10-24T05:11:59Z</time></trkpt><trkpt lat="42.604583" lon="-5.584482"><ele>846.619</ele><time>2015-10-24T05:12:16Z</time></trkpt><trkpt lat="42.604713" lon="-5.584699"><ele>846.630</ele><time>2015-10-24T05:12:32Z</time></trkpt><trkpt lat="42.604816" lon="-5.584846"><ele>846.632</ele><time>2015-10-24T05:12:44Z</time></trkpt><trkpt lat="42.604872" lon="-5.584938"><ele>846.610</ele><time>2015-10-24T05:12:52Z</time></trkpt><trkpt lat="42.604962" lon="-5.585064"><ele>846.652</ele><time>2015-10-24T05:13:03Z</time></trkpt><trkpt lat="42.605114" lon="-5.585291"><ele>846.653</ele><time>2015-10-24T05:13:21Z</time></trkpt><trkpt lat="42.605148" lon="-5.585341"><ele>846.608</ele><time>2015-10-24T05:13:25Z</time></trkpt><trkpt lat="42.605285" lon="-5.585542"><ele>846.608</ele><time>2015-10-24T05:13:42Z</time></trkpt><trkpt lat="42.605315" lon="-5.585601"><ele>846.626</ele><time>2015-10-24T05:13:47Z</time></trkpt><trkpt lat="42.605450" lon="-5.585743"><ele>846.666</ele><time>2015-10-24T05:14:03Z</time></trkpt><trkpt lat="42.605593" lon="-5.585884"><ele>846.659</ele><time>2015-10-24T05:14:19Z</time></trkpt><trkpt lat="42.605755" lon="-5.586050"><ele>846.618</ele><time>2015-10-24T05:14:36Z</time></trkpt><trkpt lat="42.605877" lon="-5.586190"><ele>846.643</ele><time>2015-10-24T05:14:49Z</time></trkpt><trkpt lat="42.606035" lon="-5.586381"><ele>847.144</ele><time>2015-10-24T05:15:08Z</time></trkpt><trkpt lat="42.606198" lon="-5.586562"><ele>847.146</ele><time>2015-10-24T05:15:25Z</time></trkpt><trkpt lat="42.606371" lon="-5.586754"><ele>847.164</ele><time>2015-10-24T05:15:43Z</time></trkpt><trkpt lat="42.606493" lon="-5.586915"><ele>847.577</ele><time>2015-10-24T05:15:58Z</time></trkpt><trkpt lat="42.606652" lon="-5.587078"><ele>847.161</ele><time>2015-10-24T05:16:15Z</time></trkpt><trkpt lat="42.606690" lon="-5.587110"><ele>847.527</ele><time>2015-10-24T05:16:19Z</time></trkpt><trkpt lat="42.606727" lon="-5.587148"><ele>847.508</ele><time>2015-10-24T05:16:23Z</time></trkpt><trkpt lat="42.606791" lon="-5.587220"><ele>847.568</ele><time>2015-10-24T05:16:30Z</time></trkpt><trkpt lat="42.606968" lon="-5.587372"><ele>847.548</ele><time>2015-10-24T05:16:47Z</time></trkpt><trkpt lat="42.607126" lon="-5.587513"><ele>847.561</ele><time>2015-10-24T05:17:03Z</time></trkpt><trkpt lat="42.607135" lon="-5.587524"><ele>847.550</ele><time>2015-10-24T05:17:04Z</time></trkpt><trkpt lat="42.607321" lon="-5.587697"><ele>847.565</ele><time>2015-10-24T05:17:23Z</time></trkpt><trkpt lat="42.607405" lon="-5.587764"><ele>847.576</ele><time>2015-10-24T05:17:32Z</time></trkpt><trkpt lat="42.607578" lon="-5.587919"><ele>847.528</ele><time>2015-10-24T05:17:49Z</time></trkpt><trkpt lat="42.607718" lon="-5.588015"><ele>847.556</ele><time>2015-10-24T05:18:03Z</time></trkpt><trkpt lat="42.607871" lon="-5.588152"><ele>847.514</ele><time>2015-10-24T05:18:19Z</time></trkpt><trkpt lat="42.607977" lon="-5.588242"><ele>849.054</ele><time>2015-10-24T05:18:30Z</time></trkpt><trkpt lat="42.607997" lon="-5.588256"><ele>847.509</ele><time>2015-10-24T05:18:32Z</time></trkpt><trkpt lat="42.608170" lon="-5.588404"><ele>847.508</ele><time>2015-10-24T05:18:50Z</time></trkpt><trkpt lat="42.608234" lon="-5.588453"><ele>847.522</ele><time>2015-10-24T05:18:56Z</time></trkpt><trkpt lat="42.608407" lon="-5.588600"><ele>847.592</ele><time>2015-10-24T05:19:13Z</time></trkpt><trkpt lat="42.608547" lon="-5.588716"><ele>847.515</ele><time>2015-10-24T05:19:29Z</time></trkpt><trkpt lat="42.608721" lon="-5.588829"><ele>847.554</ele><time>2015-10-24T05:19:46Z</time></trkpt><trkpt lat="42.608902" lon="-5.588951"><ele>847.529</ele><time>2015-10-24T05:20:04Z</time></trkpt><trkpt lat="42.608928" lon="-5.588973"><ele>847.520</ele><time>2015-10-24T05:20:07Z</time></trkpt><trkpt lat="42.609076" lon="-5.589105"><ele>847.562</ele><time>2015-10-24T05:20:23Z</time></trkpt><trkpt lat="42.609224" lon="-5.589198"><ele>847.590</ele><time>2015-10-24T05:20:38Z</time></trkpt><trkpt lat="42.609410" lon="-5.589286"><ele>847.561</ele><time>2015-10-24T05:20:52Z</time></trkpt><trkpt lat="42.609570" lon="-5.589370"><ele>847.521</ele><time>2015-10-24T05:21:06Z</time></trkpt><trkpt lat="42.609670" lon="-5.589451"><ele>847.513</ele><time>2015-10-24T05:21:16Z</time></trkpt><trkpt lat="42.609857" lon="-5.589609"><ele>847.508</ele><time>2015-10-24T05:21:35Z</time></trkpt><trkpt lat="42.609867" lon="-5.589725"><ele>847.527</ele><time>2015-10-24T05:21:48Z</time></trkpt><trkpt lat="42.609815" lon="-5.589728"><ele>847.587</ele><time>2015-10-24T05:21:57Z</time></trkpt><trkpt lat="42.609805" lon="-5.589717"><ele>847.570</ele><time>2015-10-24T05:22:25Z</time></trkpt><trkpt lat="42.609813" lon="-5.589717"><ele>847.599</ele><time>2015-10-24T05:22:26Z</time></trkpt><trkpt lat="42.609855" lon="-5.589727"><ele>847.564</ele><time>2015-10-24T05:22:30Z</time></trkpt><trkpt lat="42.610018" lon="-5.589825"><ele>847.515</ele><time>2015-10-24T05:22:46Z</time></trkpt><trkpt lat="42.610161" lon="-5.589893"><ele>847.597</ele><time>2015-10-24T05:22:58Z</time></trkpt><trkpt lat="42.610359" lon="-5.590036"><ele>847.585</ele><time>2015-10-24T05:23:16Z</time></trkpt><trkpt lat="42.610532" lon="-5.590174"><ele>847.592</ele><time>2015-10-24T05:23:33Z</time></trkpt><trkpt lat="42.610698" lon="-5.590316"><ele>847.573</ele><time>2015-10-24T05:23:49Z</time></trkpt><trkpt lat="42.610879" lon="-5.590429"><ele>847.520</ele><time>2015-10-24T05:24:07Z</time></trkpt><trkpt lat="42.611042" lon="-5.590595"><ele>847.508</ele><time>2015-10-24T05:24:23Z</time></trkpt><trkpt lat="42.611099" lon="-5.590786"><ele>847.550</ele><time>2015-10-24T05:24:33Z</time></trkpt><trkpt lat="42.611150" lon="-5.590836"><ele>847.540</ele><time>2015-10-24T05:24:38Z</time></trkpt><trkpt lat="42.611259" lon="-5.590882"><ele>847.143</ele><time>2015-10-24T05:24:48Z</time></trkpt><trkpt lat="42.611427" lon="-5.590908"><ele>847.162</ele><time>2015-10-24T05:25:05Z</time></trkpt><trkpt lat="42.611600" lon="-5.591023"><ele>847.147</ele><time>2015-10-24T05:25:21Z</time></trkpt><trkpt lat="42.611612" lon="-5.591027"><ele>847.178</ele><time>2015-10-24T05:25:22Z</time></trkpt><trkpt lat="42.611647" lon="-5.591051"><ele>847.130</ele><time>2015-10-24T05:25:25Z</time></trkpt><trkpt lat="42.611863" lon="-5.591178"><ele>848.088</ele><time>2015-10-24T05:25:44Z</time></trkpt><trkpt lat="42.611873" lon="-5.591184"><ele>848.062</ele><time>2015-10-24T05:25:45Z</time></trkpt><trkpt lat="42.612053" lon="-5.591323"><ele>848.083</ele><time>2015-10-24T05:26:02Z</time></trkpt><trkpt lat="42.612215" lon="-5.591462"><ele>848.011</ele><time>2015-10-24T05:26:16Z</time></trkpt><trkpt lat="42.612367" lon="-5.591563"><ele>848.008</ele><time>2015-10-24T05:26:31Z</time></trkpt><trkpt lat="42.612529" lon="-5.591699"><ele>848.057</ele><time>2015-10-24T05:26:48Z</time></trkpt><trkpt lat="42.612666" lon="-5.591829"><ele>848.017</ele><time>2015-10-24T05:27:02Z</time></trkpt><trkpt lat="42.612837" lon="-5.591974"><ele>848.550</ele><time>2015-10-24T05:27:19Z</time></trkpt><trkpt lat="42.612994" lon="-5.592129"><ele>848.569</ele><time>2015-10-24T05:27:35Z</time></trkpt><trkpt lat="42.613171" lon="-5.592285"><ele>848.554</ele><time>2015-10-24T05:27:53Z</time></trkpt><trkpt lat="42.613320" lon="-5.592417"><ele>848.515</ele><time>2015-10-24T05:28:09Z</time></trkpt><trkpt lat="42.613443" lon="-5.592552"><ele>848.587</ele><time>2015-10-24T05:28:23Z</time></trkpt><trkpt lat="42.613468" lon="-5.592586"><ele>848.535</ele><time>2015-10-24T05:28:26Z</time></trkpt><trkpt lat="42.613650" lon="-5.592756"><ele>849.074</ele><time>2015-10-24T05:28:45Z</time></trkpt><trkpt lat="42.613783" lon="-5.592900"><ele>849.056</ele><time>2015-10-24T05:29:01Z</time></trkpt><trkpt lat="42.613932" lon="-5.593048"><ele>849.021</ele><time>2015-10-24T05:29:17Z</time></trkpt><trkpt lat="42.614079" lon="-5.593186"><ele>849.508</ele><time>2015-10-24T05:29:33Z</time></trkpt><trkpt lat="42.614247" lon="-5.593360"><ele>849.568</ele><time>2015-10-24T05:29:51Z</time></trkpt><trkpt lat="42.614377" lon="-5.593514"><ele>849.988</ele><time>2015-10-24T05:30:06Z</time></trkpt><trkpt lat="42.614535" lon="-5.593648"><ele>849.991</ele><time>2015-10-24T05:30:23Z</time></trkpt><trkpt lat="42.614689" lon="-5.593775"><ele>849.520</ele><time>2015-10-24T05:30:39Z</time></trkpt><trkpt lat="42.614831" lon="-5.593939"><ele>849.535</ele><time>2015-10-24T05:30:54Z</time></trkpt><trkpt lat="42.615002" lon="-5.594094"><ele>849.996</ele><time>2015-10-24T05:31:11Z</time></trkpt><trkpt lat="42.615155" lon="-5.594243"><ele>849.928</ele><time>2015-10-24T05:31:28Z</time></trkpt><trkpt lat="42.615301" lon="-5.594366"><ele>849.956</ele><time>2015-10-24T05:31:43Z</time></trkpt><trkpt lat="42.615465" lon="-5.594485"><ele>849.983</ele><time>2015-10-24T05:32:00Z</time></trkpt><trkpt lat="42.615611" lon="-5.594576"><ele>850.425</ele><time>2015-10-24T05:32:15Z</time></trkpt><trkpt lat="42.615756" lon="-5.594650"><ele>850.417</ele><time>2015-10-24T05:32:29Z</time></trkpt><trkpt lat="42.615908" lon="-5.594773"><ele>850.408</ele><time>2015-10-24T05:32:44Z</time></trkpt><trkpt lat="42.615970" lon="-5.594803"><ele>850.469</ele><time>2015-10-24T05:32:50Z</time></trkpt><trkpt lat="42.616037" lon="-5.594845"><ele>850.499</ele><time>2015-10-24T05:32:56Z</time></trkpt><trkpt lat="42.616083" lon="-5.594867"><ele>850.452</ele><time>2015-10-24T05:33:00Z</time></trkpt><trkpt lat="42.616244" lon="-5.594957"><ele>849.971</ele><time>2015-10-24T05:33:15Z</time></trkpt><trkpt lat="42.616440" lon="-5.595067"><ele>850.456</ele><time>2015-10-24T05:33:34Z</time></trkpt><trkpt lat="42.616596" lon="-5.595154"><ele>850.427</ele><time>2015-10-24T05:33:49Z</time></trkpt><trkpt lat="42.616677" lon="-5.595212"><ele>850.499</ele><time>2015-10-24T05:33:57Z</time></trkpt><trkpt lat="42.616726" lon="-5.595245"><ele>850.947</ele><time>2015-10-24T05:34:02Z</time></trkpt><trkpt lat="42.616897" lon="-5.595364"><ele>850.946</ele><time>2015-10-24T05:34:19Z</time></trkpt><trkpt lat="42.617084" lon="-5.595482"><ele>850.988</ele><time>2015-10-24T05:34:37Z</time></trkpt><trkpt lat="42.617288" lon="-5.595596"><ele>850.916</ele><time>2015-10-24T05:34:56Z</time></trkpt><trkpt lat="42.617463" lon="-5.595690"><ele>851.408</ele><time>2015-10-24T05:35:13Z</time></trkpt><trkpt lat="42.617612" lon="-5.595808"><ele>851.415</ele><time>2015-10-24T05:35:28Z</time></trkpt><trkpt lat="42.617780" lon="-5.595890"><ele>851.495</ele><time>2015-10-24T05:35:44Z</time></trkpt><trkpt lat="42.617977" lon="-5.596013"><ele>851.488</ele><time>2015-10-24T05:36:02Z</time></trkpt><trkpt lat="42.618146" lon="-5.596111"><ele>851.477</ele><time>2015-10-24T05:36:18Z</time></trkpt><trkpt lat="42.618313" lon="-5.596215"><ele>851.992</ele><time>2015-10-24T05:36:35Z</time></trkpt><trkpt lat="42.618368" lon="-5.596245"><ele>851.933</ele><time>2015-10-24T05:36:40Z</time></trkpt><trkpt lat="42.618535" lon="-5.596343"><ele>851.965</ele><time>2015-10-24T05:36:57Z</time></trkpt><trkpt lat="42.618689" lon="-5.596434"><ele>851.933</ele><time>2015-10-24T05:37:12Z</time></trkpt><trkpt lat="42.618887" lon="-5.596577"><ele>851.996</ele><time>2015-10-24T05:37:31Z</time></trkpt><trkpt lat="42.618950" lon="-5.596614"><ele>851.931</ele><time>2015-10-24T05:37:37Z</time></trkpt><trkpt lat="42.619105" lon="-5.596716"><ele>852.324</ele><time>2015-10-24T05:37:53Z</time></trkpt><trkpt lat="42.619297" lon="-5.596826"><ele>852.308</ele><time>2015-10-24T05:38:11Z</time></trkpt><trkpt lat="42.619485" lon="-5.596919"><ele>852.330</ele><time>2015-10-24T05:38:28Z</time></trkpt><trkpt lat="42.619675" lon="-5.597005"><ele>852.340</ele><time>2015-10-24T05:38:47Z</time></trkpt><trkpt lat="42.619847" lon="-5.597095"><ele>852.353</ele><time>2015-10-24T05:39:03Z</time></trkpt><trkpt lat="42.620013" lon="-5.597177"><ele>852.842</ele><time>2015-10-24T05:39:19Z</time></trkpt><trkpt lat="42.620109" lon="-5.597231"><ele>852.837</ele><time>2015-10-24T05:39:28Z</time></trkpt><trkpt lat="42.620285" lon="-5.597321"><ele>852.828</ele><time>2015-10-24T05:39:44Z</time></trkpt><trkpt lat="42.620361" lon="-5.597364"><ele>852.830</ele><time>2015-10-24T05:39:52Z</time></trkpt><trkpt lat="42.620553" lon="-5.597500"><ele>853.318</ele><time>2015-10-24T05:40:11Z</time></trkpt><trkpt lat="42.620583" lon="-5.597518"><ele>853.326</ele><time>2015-10-24T05:40:14Z</time></trkpt><trkpt lat="42.620631" lon="-5.597483"><ele>853.347</ele><time>2015-10-24T05:40:19Z</time></trkpt><trkpt lat="42.620788" lon="-5.597372"><ele>853.311</ele><time>2015-10-24T05:40:36Z</time></trkpt><trkpt lat="42.620901" lon="-5.597217"><ele>853.308</ele><time>2015-10-24T05:40:51Z</time></trkpt><trkpt lat="42.620953" lon="-5.597159"><ele>853.333</ele><time>2015-10-24T05:40:57Z</time></trkpt><trkpt lat="42.621069" lon="-5.596950"><ele>853.353</ele><time>2015-10-24T05:41:15Z</time></trkpt><trkpt lat="42.621116" lon="-5.596734"><ele>853.366</ele><time>2015-10-24T05:41:30Z</time></trkpt><trkpt lat="42.621166" lon="-5.596519"><ele>853.395</ele><time>2015-10-24T05:41:44Z</time></trkpt><trkpt lat="42.621268" lon="-5.596265"><ele>853.370</ele><time>2015-10-24T05:42:01Z</time></trkpt><trkpt lat="42.621377" lon="-5.596070"><ele>853.331</ele><time>2015-10-24T05:42:16Z</time></trkpt><trkpt lat="42.621473" lon="-5.595860"><ele>853.353</ele><time>2015-10-24T05:42:32Z</time></trkpt><trkpt lat="42.621575" lon="-5.595697"><ele>853.371</ele><time>2015-10-24T05:42:46Z</time></trkpt><trkpt lat="42.621655" lon="-5.595562"><ele>853.811</ele><time>2015-10-24T05:42:58Z</time></trkpt><trkpt lat="42.621752" lon="-5.595388"><ele>854.821</ele><time>2015-10-24T05:43:14Z</time></trkpt><trkpt lat="42.621762" lon="-5.595380"><ele>854.803</ele><time>2015-10-24T05:43:16Z</time></trkpt><trkpt lat="42.621803" lon="-5.595344"><ele>854.808</ele><time>2015-10-24T05:43:20Z</time></trkpt><trkpt lat="42.621841" lon="-5.595280"><ele>854.862</ele><time>2015-10-24T05:43:25Z</time></trkpt><trkpt lat="42.621953" lon="-5.595066"><ele>855.742</ele><time>2015-10-24T05:43:43Z</time></trkpt><trkpt lat="42.622020" lon="-5.594936"><ele>856.275</ele><time>2015-10-24T05:43:59Z</time></trkpt><trkpt lat="42.622127" lon="-5.594708"><ele>857.294</ele><time>2015-10-24T05:44:16Z</time></trkpt><trkpt lat="42.622231" lon="-5.594541"><ele>858.189</ele><time>2015-10-24T05:44:31Z</time></trkpt><trkpt lat="42.622336" lon="-5.594326"><ele>859.140</ele><time>2015-10-24T05:44:48Z</time></trkpt><trkpt lat="42.622421" lon="-5.594172"><ele>860.572</ele><time>2015-10-24T05:45:02Z</time></trkpt><trkpt lat="42.622514" lon="-5.594025"><ele>862.430</ele><time>2015-10-24T05:45:16Z</time></trkpt><trkpt lat="42.622676" lon="-5.594203"><ele>862.943</ele><time>2015-10-24T05:45:31Z</time></trkpt><trkpt lat="42.622809" lon="-5.594341"><ele>862.964</ele><time>2015-10-24T05:45:45Z</time></trkpt><trkpt lat="42.622821" lon="-5.594365"><ele>862.910</ele><time>2015-10-24T05:45:47Z</time></trkpt><trkpt lat="42.622995" lon="-5.594526"><ele>862.908</ele><time>2015-10-24T05:46:05Z</time></trkpt><trkpt lat="42.623125" lon="-5.594701"><ele>862.945</ele><time>2015-10-24T05:46:22Z</time></trkpt><trkpt lat="42.623266" lon="-5.594869"><ele>862.965</ele><time>2015-10-24T05:46:39Z</time></trkpt><trkpt lat="42.623389" lon="-5.595012"><ele>863.448</ele><time>2015-10-24T05:46:54Z</time></trkpt><trkpt lat="42.623430" lon="-5.595054"><ele>861.047</ele><time>2015-10-24T05:46:59Z</time></trkpt><trkpt lat="42.623630" lon="-5.595124"><ele>862.032</ele><time>2015-10-24T05:47:17Z</time></trkpt><trkpt lat="42.623791" lon="-5.595215"><ele>862.063</ele><time>2015-10-24T05:47:32Z</time></trkpt><trkpt lat="42.623854" lon="-5.595237"><ele>862.065</ele><time>2015-10-24T05:47:38Z</time></trkpt><trkpt lat="42.623874" lon="-5.595253"><ele>862.023</ele><time>2015-10-24T05:47:40Z</time></trkpt><trkpt lat="42.623962" lon="-5.595292"><ele>861.531</ele><time>2015-10-24T05:47:49Z</time></trkpt><trkpt lat="42.624136" lon="-5.595385"><ele>861.561</ele><time>2015-10-24T05:48:06Z</time></trkpt><trkpt lat="42.624284" lon="-5.595514"><ele>862.907</ele><time>2015-10-24T05:48:22Z</time></trkpt><trkpt lat="42.624475" lon="-5.595593"><ele>861.508</ele><time>2015-10-24T05:48:40Z</time></trkpt><trkpt lat="42.624657" lon="-5.595684"><ele>861.564</ele><time>2015-10-24T05:48:57Z</time></trkpt><trkpt lat="42.624857" lon="-5.595787"><ele>861.554</ele><time>2015-10-24T05:49:16Z</time></trkpt><trkpt lat="42.624964" lon="-5.595847"><ele>861.567</ele><time>2015-10-24T05:49:26Z</time></trkpt><trkpt lat="42.625140" lon="-5.595963"><ele>861.566</ele><time>2015-10-24T05:49:43Z</time></trkpt><trkpt lat="42.625255" lon="-5.596012"><ele>861.561</ele><time>2015-10-24T05:49:54Z</time></trkpt><trkpt lat="42.625438" lon="-5.596120"><ele>861.562</ele><time>2015-10-24T05:50:12Z</time></trkpt><trkpt lat="42.625611" lon="-5.596211"><ele>861.574</ele><time>2015-10-24T05:50:28Z</time></trkpt><trkpt lat="42.625620" lon="-5.596222"><ele>861.592</ele><time>2015-10-24T05:50:29Z</time></trkpt><trkpt lat="42.625792" lon="-5.596325"><ele>861.584</ele><time>2015-10-24T05:50:46Z</time></trkpt><trkpt lat="42.625965" lon="-5.596438"><ele>861.507</ele><time>2015-10-24T05:51:03Z</time></trkpt><trkpt lat="42.626138" lon="-5.596550"><ele>861.517</ele><time>2015-10-24T05:51:20Z</time></trkpt><trkpt lat="42.626209" lon="-5.596597"><ele>861.508</ele><time>2015-10-24T05:51:27Z</time></trkpt><trkpt lat="42.626397" lon="-5.596691"><ele>862.469</ele><time>2015-10-24T05:51:44Z</time></trkpt><trkpt lat="42.626554" lon="-5.596790"><ele>862.479</ele><time>2015-10-24T05:52:00Z</time></trkpt><trkpt lat="42.626712" lon="-5.596869"><ele>862.422</ele><time>2015-10-24T05:52:15Z</time></trkpt><trkpt lat="42.626872" lon="-5.596962"><ele>862.921</ele><time>2015-10-24T05:52:31Z</time></trkpt><trkpt lat="42.626920" lon="-5.596997"><ele>862.956</ele><time>2015-10-24T05:52:36Z</time></trkpt><trkpt lat="42.627104" lon="-5.597102"><ele>862.917</ele><time>2015-10-24T05:52:54Z</time></trkpt><trkpt lat="42.627264" lon="-5.597194"><ele>862.959</ele><time>2015-10-24T05:53:10Z</time></trkpt><trkpt lat="42.627446" lon="-5.597286"><ele>863.427</ele><time>2015-10-24T05:53:28Z</time></trkpt><trkpt lat="42.627499" lon="-5.597313"><ele>863.443</ele><time>2015-10-24T05:53:33Z</time></trkpt><trkpt lat="42.627678" lon="-5.597425"><ele>863.964</ele><time>2015-10-24T05:53:50Z</time></trkpt><trkpt lat="42.627833" lon="-5.597508"><ele>863.910</ele><time>2015-10-24T05:54:05Z</time></trkpt><trkpt lat="42.628006" lon="-5.597584"><ele>863.908</ele><time>2015-10-24T05:54:22Z</time></trkpt><trkpt lat="42.628200" lon="-5.597683"><ele>863.925</ele><time>2015-10-24T05:54:40Z</time></trkpt><trkpt lat="42.628387" lon="-5.597751"><ele>864.415</ele><time>2015-10-24T05:54:58Z</time></trkpt><trkpt lat="42.628564" lon="-5.597803"><ele>864.498</ele><time>2015-10-24T05:55:14Z</time></trkpt><trkpt lat="42.628734" lon="-5.597869"><ele>864.497</ele><time>2015-10-24T05:55:30Z</time></trkpt><trkpt lat="42.628891" lon="-5.597912"><ele>864.822</ele><time>2015-10-24T05:55:44Z</time></trkpt><trkpt lat="42.629062" lon="-5.597961"><ele>864.863</ele><time>2015-10-24T05:56:00Z</time></trkpt><trkpt lat="42.629251" lon="-5.598027"><ele>864.875</ele><time>2015-10-24T05:56:17Z</time></trkpt><trkpt lat="42.629443" lon="-5.598062"><ele>865.323</ele><time>2015-10-24T05:56:34Z</time></trkpt><trkpt lat="42.629496" lon="-5.598077"><ele>865.391</ele><time>2015-10-24T05:56:39Z</time></trkpt><trkpt lat="42.629679" lon="-5.598132"><ele>865.381</ele><time>2015-10-24T05:56:54Z</time></trkpt><trkpt lat="42.629854" lon="-5.598205"><ele>865.319</ele><time>2015-10-24T05:57:10Z</time></trkpt><trkpt lat="42.630014" lon="-5.598220"><ele>866.308</ele><time>2015-10-24T05:57:26Z</time></trkpt><trkpt lat="42.630159" lon="-5.598231"><ele>866.320</ele><time>2015-10-24T05:57:41Z</time></trkpt><trkpt lat="42.630223" lon="-5.598235"><ele>866.340</ele><time>2015-10-24T05:57:47Z</time></trkpt><trkpt lat="42.630393" lon="-5.598286"><ele>865.883</ele><time>2015-10-24T05:58:01Z</time></trkpt><trkpt lat="42.630522" lon="-5.598339"><ele>865.862</ele><time>2015-10-24T05:58:13Z</time></trkpt><trkpt lat="42.630709" lon="-5.598442"><ele>865.857</ele><time>2015-10-24T05:58:30Z</time></trkpt><trkpt lat="42.630888" lon="-5.598519"><ele>865.868</ele><time>2015-10-24T05:58:47Z</time></trkpt><trkpt lat="42.631057" lon="-5.598616"><ele>865.850</ele><time>2015-10-24T05:59:03Z</time></trkpt><trkpt lat="42.631132" lon="-5.598668"><ele>865.888</ele><time>2015-10-24T05:59:11Z</time></trkpt><trkpt lat="42.631181" lon="-5.598693"><ele>865.834</ele><time>2015-10-24T05:59:16Z</time></trkpt><trkpt lat="42.631226" lon="-5.598721"><ele>865.855</ele><time>2015-10-24T05:59:20Z</time></trkpt><trkpt lat="42.631364" lon="-5.598811"><ele>865.310</ele><time>2015-10-24T05:59:35Z</time></trkpt><trkpt lat="42.631518" lon="-5.598915"><ele>865.308</ele><time>2015-10-24T05:59:51Z</time></trkpt><trkpt lat="42.631639" lon="-5.599013"><ele>865.324</ele><time>2015-10-24T06:00:04Z</time></trkpt><trkpt lat="42.631721" lon="-5.599173"><ele>864.844</ele><time>2015-10-24T06:00:15Z</time></trkpt><trkpt lat="42.631906" lon="-5.599308"><ele>865.317</ele><time>2015-10-24T06:00:32Z</time></trkpt><trkpt lat="42.632042" lon="-5.599424"><ele>865.336</ele><time>2015-10-24T06:00:48Z</time></trkpt><trkpt lat="42.632178" lon="-5.599595"><ele>864.821</ele><time>2015-10-24T06:01:04Z</time></trkpt><trkpt lat="42.632217" lon="-5.599638"><ele>864.892</ele><time>2015-10-24T06:01:08Z</time></trkpt><trkpt lat="42.632414" lon="-5.599670"><ele>864.854</ele><time>2015-10-24T06:01:26Z</time></trkpt><trkpt lat="42.632449" lon="-5.599687"><ele>864.892</ele><time>2015-10-24T06:01:29Z</time></trkpt><trkpt lat="42.632576" lon="-5.599709"><ele>864.824</ele><time>2015-10-24T06:01:39Z</time></trkpt><trkpt lat="42.632612" lon="-5.599714"><ele>864.804</ele><time>2015-10-24T06:01:42Z</time></trkpt><trkpt lat="42.632783" lon="-5.599724"><ele>864.814</ele><time>2015-10-24T06:01:58Z</time></trkpt><trkpt lat="42.632935" lon="-5.599669"><ele>864.808</ele><time>2015-10-24T06:02:13Z</time></trkpt><trkpt lat="42.633091" lon="-5.599659"><ele>864.843</ele><time>2015-10-24T06:02:27Z</time></trkpt><trkpt lat="42.633125" lon="-5.599674"><ele>864.863</ele><time>2015-10-24T06:02:30Z</time></trkpt><trkpt lat="42.633350" lon="-5.599754"><ele>864.876</ele><time>2015-10-24T06:02:48Z</time></trkpt><trkpt lat="42.633538" lon="-5.599776"><ele>864.465</ele><time>2015-10-24T06:03:07Z</time></trkpt><trkpt lat="42.633562" lon="-5.599780"><ele>864.870</ele><time>2015-10-24T06:03:09Z</time></trkpt><trkpt lat="42.633761" lon="-5.599778"><ele>864.491</ele><time>2015-10-24T06:03:27Z</time></trkpt><trkpt lat="42.633772" lon="-5.599777"><ele>864.463</ele><time>2015-10-24T06:03:28Z</time></trkpt><trkpt lat="42.633818" lon="-5.599781"><ele>864.451</ele><time>2015-10-24T06:03:32Z</time></trkpt><trkpt lat="42.633853" lon="-5.599799"><ele>864.482</ele><time>2015-10-24T06:03:35Z</time></trkpt><trkpt lat="42.634013" lon="-5.599819"><ele>864.443</ele><time>2015-10-24T06:03:48Z</time></trkpt><trkpt lat="42.634062" lon="-5.599916"><ele>863.417</ele><time>2015-10-24T06:03:54Z</time></trkpt><trkpt lat="42.634216" lon="-5.599976"><ele>862.908</ele><time>2015-10-24T06:04:08Z</time></trkpt><trkpt lat="42.634284" lon="-5.599967"><ele>862.969</ele><time>2015-10-24T06:04:16Z</time></trkpt><trkpt lat="42.634328" lon="-5.599970"><ele>862.439</ele><time>2015-10-24T06:04:20Z</time></trkpt><trkpt lat="42.634527" lon="-5.600035"><ele>862.092</ele><time>2015-10-24T06:04:37Z</time></trkpt><trkpt lat="42.634605" lon="-5.600062"><ele>862.071</ele><time>2015-10-24T06:04:44Z</time></trkpt><trkpt lat="42.634778" lon="-5.600136"><ele>862.026</ele><time>2015-10-24T06:04:59Z</time></trkpt><trkpt lat="42.634965" lon="-5.600210"><ele>861.537</ele><time>2015-10-24T06:05:16Z</time></trkpt><trkpt lat="42.635138" lon="-5.600259"><ele>861.049</ele><time>2015-10-24T06:05:32Z</time></trkpt><trkpt lat="42.635313" lon="-5.600314"><ele>861.027</ele><time>2015-10-24T06:05:48Z</time></trkpt><trkpt lat="42.635471" lon="-5.600379"><ele>861.086</ele><time>2015-10-24T06:06:02Z</time></trkpt><trkpt lat="42.635628" lon="-5.600467"><ele>861.060</ele><time>2015-10-24T06:06:17Z</time></trkpt><trkpt lat="42.635778" lon="-5.600518"><ele>861.026</ele><time>2015-10-24T06:06:31Z</time></trkpt><trkpt lat="42.635939" lon="-5.600602"><ele>861.008</ele><time>2015-10-24T06:06:46Z</time></trkpt><trkpt lat="42.636130" lon="-5.600661"><ele>862.099</ele><time>2015-10-24T06:07:03Z</time></trkpt><trkpt lat="42.636313" lon="-5.600735"><ele>862.049</ele><time>2015-10-24T06:07:19Z</time></trkpt><trkpt lat="42.636493" lon="-5.600807"><ele>862.092</ele><time>2015-10-24T06:07:35Z</time></trkpt><trkpt lat="42.636659" lon="-5.600874"><ele>862.041</ele><time>2015-10-24T06:07:50Z</time></trkpt><trkpt lat="42.636726" lon="-5.600895"><ele>862.086</ele><time>2015-10-24T06:07:56Z</time></trkpt><trkpt lat="42.636749" lon="-5.600905"><ele>862.097</ele><time>2015-10-24T06:07:58Z</time></trkpt><trkpt lat="42.636833" lon="-5.600943"><ele>862.019</ele><time>2015-10-24T06:08:05Z</time></trkpt><trkpt lat="42.636911" lon="-5.600973"><ele>862.077</ele><time>2015-10-24T06:08:12Z</time></trkpt><trkpt lat="42.637106" lon="-5.601074"><ele>862.453</ele><time>2015-10-24T06:08:30Z</time></trkpt><trkpt lat="42.637301" lon="-5.601151"><ele>862.404</ele><time>2015-10-24T06:08:47Z</time></trkpt><trkpt lat="42.637496" lon="-5.601250"><ele>862.414</ele><time>2015-10-24T06:09:05Z</time></trkpt><trkpt lat="42.637565" lon="-5.601276"><ele>862.408</ele><time>2015-10-24T06:09:11Z</time></trkpt><trkpt lat="42.637655" lon="-5.601310"><ele>862.446</ele><time>2015-10-24T06:09:19Z</time></trkpt><trkpt lat="42.637842" lon="-5.601414"><ele>862.486</ele><time>2015-10-24T06:09:36Z</time></trkpt><trkpt lat="42.637860" lon="-5.601427"><ele>862.419</ele><time>2015-10-24T06:09:38Z</time></trkpt><trkpt lat="42.637990" lon="-5.601485"><ele>862.438</ele><time>2015-10-24T06:09:49Z</time></trkpt><trkpt lat="42.638142" lon="-5.601557"><ele>862.493</ele><time>2015-10-24T06:10:02Z</time></trkpt><trkpt lat="42.638186" lon="-5.601588"><ele>862.414</ele><time>2015-10-24T06:10:06Z</time></trkpt><trkpt lat="42.638354" lon="-5.601657"><ele>862.486</ele><time>2015-10-24T06:10:20Z</time></trkpt><trkpt lat="42.638417" lon="-5.601685"><ele>862.414</ele><time>2015-10-24T06:10:26Z</time></trkpt><trkpt lat="42.638586" lon="-5.601776"><ele>861.087</ele><time>2015-10-24T06:10:41Z</time></trkpt><trkpt lat="42.638613" lon="-5.601793"><ele>861.042</ele><time>2015-10-24T06:10:44Z</time></trkpt><trkpt lat="42.638705" lon="-5.601858"><ele>861.026</ele><time>2015-10-24T06:10:53Z</time></trkpt><trkpt lat="42.638863" lon="-5.601896"><ele>861.008</ele><time>2015-10-24T06:11:09Z</time></trkpt><trkpt lat="42.638871" lon="-5.601933"><ele>861.039</ele><time>2015-10-24T06:11:30Z</time></trkpt><trkpt lat="42.638945" lon="-5.601955"><ele>861.059</ele><time>2015-10-24T06:11:41Z</time></trkpt><trkpt lat="42.639099" lon="-5.601995"><ele>861.082</ele><time>2015-10-24T06:11:56Z</time></trkpt><trkpt lat="42.639251" lon="-5.602052"><ele>861.041</ele><time>2015-10-24T06:12:11Z</time></trkpt><trkpt lat="42.639419" lon="-5.602117"><ele>861.066</ele><time>2015-10-24T06:12:27Z</time></trkpt><trkpt lat="42.639564" lon="-5.602174"><ele>861.027</ele><time>2015-10-24T06:12:42Z</time></trkpt><trkpt lat="42.639746" lon="-5.602259"><ele>861.029</ele><time>2015-10-24T06:13:00Z</time></trkpt><trkpt lat="42.639914" lon="-5.602345"><ele>861.047</ele><time>2015-10-24T06:13:16Z</time></trkpt><trkpt lat="42.640052" lon="-5.602428"><ele>861.034</ele><time>2015-10-24T06:13:30Z</time></trkpt><trkpt lat="42.640211" lon="-5.602506"><ele>861.055</ele><time>2015-10-24T06:13:45Z</time></trkpt><trkpt lat="42.640382" lon="-5.602621"><ele>861.010</ele><time>2015-10-24T06:14:01Z</time></trkpt><trkpt lat="42.640451" lon="-5.602670"><ele>861.008</ele><time>2015-10-24T06:14:08Z</time></trkpt><trkpt lat="42.640603" lon="-5.602770"><ele>861.094</ele><time>2015-10-24T06:14:23Z</time></trkpt><trkpt lat="42.640769" lon="-5.602855"><ele>861.074</ele><time>2015-10-24T06:14:39Z</time></trkpt><trkpt lat="42.640948" lon="-5.602938"><ele>861.087</ele><time>2015-10-24T06:14:56Z</time></trkpt><trkpt lat="42.641141" lon="-5.603011"><ele>862.066</ele><time>2015-10-24T06:15:14Z</time></trkpt><trkpt lat="42.641324" lon="-5.603054"><ele>862.041</ele><time>2015-10-24T06:15:30Z</time></trkpt><trkpt lat="42.641380" lon="-5.603066"><ele>862.092</ele><time>2015-10-24T06:15:35Z</time></trkpt><trkpt lat="42.641566" lon="-5.603145"><ele>862.034</ele><time>2015-10-24T06:15:52Z</time></trkpt><trkpt lat="42.641690" lon="-5.603156"><ele>862.072</ele><time>2015-10-24T06:16:03Z</time></trkpt><trkpt lat="42.641873" lon="-5.603224"><ele>862.482</ele><time>2015-10-24T06:16:20Z</time></trkpt><trkpt lat="42.641960" lon="-5.603265"><ele>862.443</ele><time>2015-10-24T06:16:28Z</time></trkpt><trkpt lat="42.642141" lon="-5.603311"><ele>862.417</ele><time>2015-10-24T06:16:45Z</time></trkpt><trkpt lat="42.642324" lon="-5.603373"><ele>862.408</ele><time>2015-10-24T06:17:03Z</time></trkpt><trkpt lat="42.642494" lon="-5.603418"><ele>862.049</ele><time>2015-10-24T06:17:18Z</time></trkpt><trkpt lat="42.642650" lon="-5.603487"><ele>862.029</ele><time>2015-10-24T06:17:33Z</time></trkpt><trkpt lat="42.642840" lon="-5.603536"><ele>862.032</ele><time>2015-10-24T06:17:51Z</time></trkpt><trkpt lat="42.642986" lon="-5.603594"><ele>862.021</ele><time>2015-10-24T06:18:05Z</time></trkpt><trkpt lat="42.643174" lon="-5.603659"><ele>862.026</ele><time>2015-10-24T06:18:22Z</time></trkpt><trkpt lat="42.643350" lon="-5.603700"><ele>862.067</ele><time>2015-10-24T06:18:38Z</time></trkpt><trkpt lat="42.643527" lon="-5.603777"><ele>862.089</ele><time>2015-10-24T06:18:55Z</time></trkpt><trkpt lat="42.643759" lon="-5.603749"><ele>862.027</ele><time>2015-10-24T06:19:13Z</time></trkpt><trkpt lat="42.643798" lon="-5.603799"><ele>862.442</ele><time>2015-10-24T06:19:29Z</time></trkpt><trkpt lat="42.643795" lon="-5.603827"><ele>862.422</ele><time>2015-10-24T06:19:59Z</time></trkpt><trkpt lat="42.643883" lon="-5.603826"><ele>862.414</ele><time>2015-10-24T06:20:23Z</time></trkpt><trkpt lat="42.643961" lon="-5.603852"><ele>862.408</ele><time>2015-10-24T06:20:31Z</time></trkpt><trkpt lat="42.644136" lon="-5.603897"><ele>862.965</ele><time>2015-10-24T06:20:47Z</time></trkpt><trkpt lat="42.644354" lon="-5.603963"><ele>862.965</ele><time>2015-10-24T06:21:06Z</time></trkpt><trkpt lat="42.644531" lon="-5.604033"><ele>862.938</ele><time>2015-10-24T06:21:21Z</time></trkpt><trkpt lat="42.644728" lon="-5.604085"><ele>862.927</ele><time>2015-10-24T06:21:38Z</time></trkpt><trkpt lat="42.644923" lon="-5.604088"><ele>862.972</ele><time>2015-10-24T06:21:55Z</time></trkpt><trkpt lat="42.645083" lon="-5.604110"><ele>862.973</ele><time>2015-10-24T06:22:09Z</time></trkpt><trkpt lat="42.645242" lon="-5.604158"><ele>862.945</ele><time>2015-10-24T06:22:23Z</time></trkpt><trkpt lat="42.645384" lon="-5.604161"><ele>862.993</ele><time>2015-10-24T06:22:37Z</time></trkpt><trkpt lat="42.645452" lon="-5.604133"><ele>862.087</ele><time>2015-10-24T06:22:50Z</time></trkpt><trkpt lat="42.645559" lon="-5.604119"><ele>862.042</ele><time>2015-10-24T06:23:00Z</time></trkpt><trkpt lat="42.645746" lon="-5.604124"><ele>862.026</ele><time>2015-10-24T06:23:16Z</time></trkpt><trkpt lat="42.645862" lon="-5.604143"><ele>862.008</ele><time>2015-10-24T06:23:29Z</time></trkpt><trkpt lat="42.645963" lon="-5.604128"><ele>862.029</ele><time>2015-10-24T06:23:37Z</time></trkpt><trkpt lat="42.646011" lon="-5.604119"><ele>862.479</ele><time>2015-10-24T06:23:41Z</time></trkpt><trkpt lat="42.646100" lon="-5.604099"><ele>862.462</ele><time>2015-10-24T06:23:48Z</time></trkpt><trkpt lat="42.646220" lon="-5.604070"><ele>862.411</ele><time>2015-10-24T06:23:58Z</time></trkpt><trkpt lat="42.646386" lon="-5.604034"><ele>862.426</ele><time>2015-10-24T06:24:12Z</time></trkpt><trkpt lat="42.646503" lon="-5.604032"><ele>862.477</ele><time>2015-10-24T06:24:22Z</time></trkpt><trkpt lat="42.646667" lon="-5.604049"><ele>862.489</ele><time>2015-10-24T06:24:36Z</time></trkpt><trkpt lat="42.646735" lon="-5.604035"><ele>862.447</ele><time>2015-10-24T06:24:43Z</time></trkpt><trkpt lat="42.646946" lon="-5.603999"><ele>862.416</ele><time>2015-10-24T06:25:01Z</time></trkpt><trkpt lat="42.647112" lon="-5.603948"><ele>862.976</ele><time>2015-10-24T06:25:16Z</time></trkpt><trkpt lat="42.647305" lon="-5.603907"><ele>862.913</ele><time>2015-10-24T06:25:34Z</time></trkpt><trkpt lat="42.647512" lon="-5.603865"><ele>862.908</ele><time>2015-10-24T06:25:53Z</time></trkpt><trkpt lat="42.647684" lon="-5.603854"><ele>863.472</ele><time>2015-10-24T06:26:08Z</time></trkpt><trkpt lat="42.647874" lon="-5.603874"><ele>863.442</ele><time>2015-10-24T06:26:24Z</time></trkpt><trkpt lat="42.648069" lon="-5.603918"><ele>863.475</ele><time>2015-10-24T06:26:42Z</time></trkpt><trkpt lat="42.648166" lon="-5.603968"><ele>863.974</ele><time>2015-10-24T06:26:52Z</time></trkpt><trkpt lat="42.648327" lon="-5.604049"><ele>863.999</ele><time>2015-10-24T06:27:07Z</time></trkpt><trkpt lat="42.648505" lon="-5.604136"><ele>863.920</ele><time>2015-10-24T06:27:23Z</time></trkpt><trkpt lat="42.648689" lon="-5.604251"><ele>863.982</ele><time>2015-10-24T06:27:40Z</time></trkpt><trkpt lat="42.648842" lon="-5.604332"><ele>863.980</ele><time>2015-10-24T06:27:56Z</time></trkpt><trkpt lat="42.648896" lon="-5.604338"><ele>864.414</ele><time>2015-10-24T06:28:01Z</time></trkpt><trkpt lat="42.649030" lon="-5.604369"><ele>864.454</ele><time>2015-10-24T06:28:15Z</time></trkpt><trkpt lat="42.649106" lon="-5.604401"><ele>864.409</ele><time>2015-10-24T06:28:22Z</time></trkpt><trkpt lat="42.649156" lon="-5.604441"><ele>864.408</ele><time>2015-10-24T06:28:27Z</time></trkpt><trkpt lat="42.649323" lon="-5.604487"><ele>864.452</ele><time>2015-10-24T06:28:42Z</time></trkpt><trkpt lat="42.649486" lon="-5.604550"><ele>864.852</ele><time>2015-10-24T06:28:57Z</time></trkpt><trkpt lat="42.649599" lon="-5.604622"><ele>864.895</ele><time>2015-10-24T06:29:08Z</time></trkpt><trkpt lat="42.649782" lon="-5.604706"><ele>864.894</ele><time>2015-10-24T06:29:25Z</time></trkpt><trkpt lat="42.649952" lon="-5.604770"><ele>864.899</ele><time>2015-10-24T06:29:39Z</time></trkpt><trkpt lat="42.650106" lon="-5.604836"><ele>864.820</ele><time>2015-10-24T06:29:53Z</time></trkpt><trkpt lat="42.650303" lon="-5.604891"><ele>865.372</ele><time>2015-10-24T06:30:10Z</time></trkpt><trkpt lat="42.650477" lon="-5.604964"><ele>865.390</ele><time>2015-10-24T06:30:26Z</time></trkpt><trkpt lat="42.650654" lon="-5.605052"><ele>865.336</ele><time>2015-10-24T06:30:42Z</time></trkpt><trkpt lat="42.650812" lon="-5.605119"><ele>865.317</ele><time>2015-10-24T06:30:57Z</time></trkpt><trkpt lat="42.650991" lon="-5.605172"><ele>865.318</ele><time>2015-10-24T06:31:12Z</time></trkpt><trkpt lat="42.651166" lon="-5.605269"><ele>865.808</ele><time>2015-10-24T06:31:29Z</time></trkpt><trkpt lat="42.651313" lon="-5.605334"><ele>865.854</ele><time>2015-10-24T06:31:44Z</time></trkpt><trkpt lat="42.651433" lon="-5.605355"><ele>865.874</ele><time>2015-10-24T06:31:54Z</time></trkpt><trkpt lat="42.651604" lon="-5.605393"><ele>865.897</ele><time>2015-10-24T06:32:08Z</time></trkpt><trkpt lat="42.651793" lon="-5.605494"><ele>865.886</ele><time>2015-10-24T06:32:25Z</time></trkpt><trkpt lat="42.651974" lon="-5.605544"><ele>866.371</ele><time>2015-10-24T06:32:41Z</time></trkpt><trkpt lat="42.651998" lon="-5.605552"><ele>866.352</ele><time>2015-10-24T06:32:43Z</time></trkpt><trkpt lat="42.652143" lon="-5.605583"><ele>867.214</ele><time>2015-10-24T06:32:55Z</time></trkpt><trkpt lat="42.652331" lon="-5.605622"><ele>867.282</ele><time>2015-10-24T06:33:10Z</time></trkpt><trkpt lat="42.652506" lon="-5.605665"><ele>867.294</ele><time>2015-10-24T06:33:26Z</time></trkpt><trkpt lat="42.652675" lon="-5.605737"><ele>867.757</ele><time>2015-10-24T06:33:41Z</time></trkpt><trkpt lat="42.652751" lon="-5.605757"><ele>868.222</ele><time>2015-10-24T06:33:48Z</time></trkpt><trkpt lat="42.652943" lon="-5.605778"><ele>868.208</ele><time>2015-10-24T06:34:05Z</time></trkpt><trkpt lat="42.653117" lon="-5.605794"><ele>868.230</ele><time>2015-10-24T06:34:20Z</time></trkpt><trkpt lat="42.653329" lon="-5.605823"><ele>868.210</ele><time>2015-10-24T06:34:37Z</time></trkpt><trkpt lat="42.653497" lon="-5.605857"><ele>868.243</ele><time>2015-10-24T06:34:52Z</time></trkpt><trkpt lat="42.653589" lon="-5.605882"><ele>868.282</ele><time>2015-10-24T06:35:00Z</time></trkpt><trkpt lat="42.653770" lon="-5.605927"><ele>868.257</ele><time>2015-10-24T06:35:17Z</time></trkpt><trkpt lat="42.653929" lon="-5.606006"><ele>868.278</ele><time>2015-10-24T06:35:32Z</time></trkpt><trkpt lat="42.653967" lon="-5.606016"><ele>868.760</ele><time>2015-10-24T06:35:46Z</time></trkpt><trkpt lat="42.654008" lon="-5.606004"><ele>868.778</ele><time>2015-10-24T06:35:52Z</time></trkpt><trkpt lat="42.654050" lon="-5.605983"><ele>868.745</ele><time>2015-10-24T06:35:56Z</time></trkpt><trkpt lat="42.654219" lon="-5.606084"><ele>869.247</ele><time>2015-10-24T06:36:11Z</time></trkpt><trkpt lat="42.654294" lon="-5.606143"><ele>869.211</ele><time>2015-10-24T06:36:20Z</time></trkpt><trkpt lat="42.654427" lon="-5.606155"><ele>869.208</ele><time>2015-10-24T06:36:31Z</time></trkpt><trkpt lat="42.654630" lon="-5.606230"><ele>869.215</ele><time>2015-10-24T06:36:48Z</time></trkpt><trkpt lat="42.654802" lon="-5.606287"><ele>869.215</ele><time>2015-10-24T06:37:04Z</time></trkpt><trkpt lat="42.654962" lon="-5.606339"><ele>869.218</ele><time>2015-10-24T06:37:20Z</time></trkpt><trkpt lat="42.655107" lon="-5.606414"><ele>869.297</ele><time>2015-10-24T06:37:34Z</time></trkpt><trkpt lat="42.655159" lon="-5.606421"><ele>869.212</ele><time>2015-10-24T06:37:39Z</time></trkpt><trkpt lat="42.655239" lon="-5.606512"><ele>869.243</ele><time>2015-10-24T06:37:48Z</time></trkpt><trkpt lat="42.655332" lon="-5.606543"><ele>869.235</ele><time>2015-10-24T06:37:56Z</time></trkpt><trkpt lat="42.655388" lon="-5.606551"><ele>869.283</ele><time>2015-10-24T06:38:01Z</time></trkpt><trkpt lat="42.655537" lon="-5.606640"><ele>869.261</ele><time>2015-10-24T06:38:16Z</time></trkpt><trkpt lat="42.655558" lon="-5.606645"><ele>869.221</ele><time>2015-10-24T06:38:18Z</time></trkpt><trkpt lat="42.655683" lon="-5.606705"><ele>869.713</ele><time>2015-10-24T06:38:31Z</time></trkpt><trkpt lat="42.655858" lon="-5.606752"><ele>869.708</ele><time>2015-10-24T06:38:47Z</time></trkpt><trkpt lat="42.655951" lon="-5.606796"><ele>869.747</ele><time>2015-10-24T06:38:56Z</time></trkpt><trkpt lat="42.656117" lon="-5.606884"><ele>869.757</ele><time>2015-10-24T06:39:12Z</time></trkpt><trkpt lat="42.656265" lon="-5.606962"><ele>869.780</ele><time>2015-10-24T06:39:27Z</time></trkpt><trkpt lat="42.656459" lon="-5.607042"><ele>869.799</ele><time>2015-10-24T06:39:44Z</time></trkpt><trkpt lat="42.656612" lon="-5.607097"><ele>870.134</ele><time>2015-10-24T06:39:58Z</time></trkpt><trkpt lat="42.656789" lon="-5.607187"><ele>870.125</ele><time>2015-10-24T06:40:13Z</time></trkpt><trkpt lat="42.656881" lon="-5.607233"><ele>870.137</ele><time>2015-10-24T06:40:22Z</time></trkpt><trkpt lat="42.657002" lon="-5.607274"><ele>870.175</ele><time>2015-10-24T06:40:33Z</time></trkpt><trkpt lat="42.657191" lon="-5.607288"><ele>870.187</ele><time>2015-10-24T06:40:50Z</time></trkpt><trkpt lat="42.657388" lon="-5.607318"><ele>870.142</ele><time>2015-10-24T06:41:08Z</time></trkpt><trkpt lat="42.657543" lon="-5.607375"><ele>870.626</ele><time>2015-10-24T06:41:22Z</time></trkpt><trkpt lat="42.657724" lon="-5.607471"><ele>871.108</ele><time>2015-10-24T06:41:38Z</time></trkpt><trkpt lat="42.657887" lon="-5.607550"><ele>871.639</ele><time>2015-10-24T06:41:52Z</time></trkpt><trkpt lat="42.658056" lon="-5.607596"><ele>872.039</ele><time>2015-10-24T06:42:07Z</time></trkpt><trkpt lat="42.658245" lon="-5.607626"><ele>872.082</ele><time>2015-10-24T06:42:24Z</time></trkpt><trkpt lat="42.658350" lon="-5.607658"><ele>872.591</ele><time>2015-10-24T06:42:34Z</time></trkpt><trkpt lat="42.658514" lon="-5.607724"><ele>873.016</ele><time>2015-10-24T06:42:48Z</time></trkpt><trkpt lat="42.658684" lon="-5.607788"><ele>873.037</ele><time>2015-10-24T06:43:04Z</time></trkpt><trkpt lat="42.658851" lon="-5.607817"><ele>873.559</ele><time>2015-10-24T06:43:19Z</time></trkpt><trkpt lat="42.659030" lon="-5.607821"><ele>873.517</ele><time>2015-10-24T06:43:33Z</time></trkpt><trkpt lat="42.659172" lon="-5.607896"><ele>873.532</ele><time>2015-10-24T06:43:47Z</time></trkpt><trkpt lat="42.659326" lon="-5.607908"><ele>873.592</ele><time>2015-10-24T06:44:00Z</time></trkpt><trkpt lat="42.659519" lon="-5.607920"><ele>873.511</ele><time>2015-10-24T06:44:14Z</time></trkpt><trkpt lat="42.659737" lon="-5.607965"><ele>873.508</ele><time>2015-10-24T06:44:30Z</time></trkpt><trkpt lat="42.659792" lon="-5.607975"><ele>873.584</ele><time>2015-10-24T06:44:35Z</time></trkpt><trkpt lat="42.659897" lon="-5.608007"><ele>874.094</ele><time>2015-10-24T06:44:47Z</time></trkpt><trkpt lat="42.659915" lon="-5.608004"><ele>874.057</ele><time>2015-10-24T06:44:57Z</time></trkpt><trkpt lat="42.659959" lon="-5.608008"><ele>874.086</ele><time>2015-10-24T06:45:01Z</time></trkpt><trkpt lat="42.660148" lon="-5.608037"><ele>874.021</ele><time>2015-10-24T06:45:17Z</time></trkpt><trkpt lat="42.660325" lon="-5.608049"><ele>874.022</ele><time>2015-10-24T06:45:32Z</time></trkpt><trkpt lat="42.660346" lon="-5.608052"><ele>874.054</ele><time>2015-10-24T06:45:34Z</time></trkpt><trkpt lat="42.660393" lon="-5.608048"><ele>874.072</ele><time>2015-10-24T06:45:38Z</time></trkpt><trkpt lat="42.660599" lon="-5.608067"><ele>874.016</ele><time>2015-10-24T06:45:55Z</time></trkpt><trkpt lat="42.660787" lon="-5.608058"><ele>874.576</ele><time>2015-10-24T06:46:10Z</time></trkpt><trkpt lat="42.660990" lon="-5.608103"><ele>874.913</ele><time>2015-10-24T06:46:27Z</time></trkpt><trkpt lat="42.661163" lon="-5.608141"><ele>875.908</ele><time>2015-10-24T06:46:43Z</time></trkpt><trkpt lat="42.661337" lon="-5.608186"><ele>877.372</ele><time>2015-10-24T06:46:59Z</time></trkpt><trkpt lat="42.661492" lon="-5.608219"><ele>878.842</ele><time>2015-10-24T06:47:14Z</time></trkpt><trkpt lat="42.661579" lon="-5.608189"><ele>879.335</ele><time>2015-10-24T06:47:24Z</time></trkpt><trkpt lat="42.661620" lon="-5.608083"><ele>880.274</ele><time>2015-10-24T06:47:41Z</time></trkpt><trkpt lat="42.661637" lon="-5.608092"><ele>880.259</ele><time>2015-10-24T06:47:43Z</time></trkpt><trkpt lat="42.661763" lon="-5.608113"><ele>881.250</ele><time>2015-10-24T06:47:59Z</time></trkpt><trkpt lat="42.661866" lon="-5.608169"><ele>882.212</ele><time>2015-10-24T06:48:15Z</time></trkpt><trkpt lat="42.662017" lon="-5.608194"><ele>883.120</ele><time>2015-10-24T06:48:30Z</time></trkpt><trkpt lat="42.662206" lon="-5.608215"><ele>884.188</ele><time>2015-10-24T06:48:46Z</time></trkpt><trkpt lat="42.662327" lon="-5.608234"><ele>885.024</ele><time>2015-10-24T06:48:57Z</time></trkpt><trkpt lat="42.662483" lon="-5.608265"><ele>885.526</ele><time>2015-10-24T06:49:12Z</time></trkpt><trkpt lat="42.662653" lon="-5.608271"><ele>886.508</ele><time>2015-10-24T06:49:28Z</time></trkpt><trkpt lat="42.662837" lon="-5.608272"><ele>887.459</ele><time>2015-10-24T06:49:45Z</time></trkpt><trkpt lat="42.663020" lon="-5.608308"><ele>888.479</ele><time>2015-10-24T06:50:01Z</time></trkpt><trkpt lat="42.663202" lon="-5.608311"><ele>889.462</ele><time>2015-10-24T06:50:18Z</time></trkpt><trkpt lat="42.663379" lon="-5.608351"><ele>889.831</ele><time>2015-10-24T06:50:33Z</time></trkpt><trkpt lat="42.663537" lon="-5.608330"><ele>891.336</ele><time>2015-10-24T06:50:48Z</time></trkpt><trkpt lat="42.663558" lon="-5.608330"><ele>891.327</ele><time>2015-10-24T06:50:50Z</time></trkpt><trkpt lat="42.663730" lon="-5.608315"><ele>891.829</ele><time>2015-10-24T06:51:06Z</time></trkpt><trkpt lat="42.663914" lon="-5.608329"><ele>892.767</ele><time>2015-10-24T06:51:21Z</time></trkpt><trkpt lat="42.663961" lon="-5.608327"><ele>892.765</ele><time>2015-10-24T06:51:25Z</time></trkpt><trkpt lat="42.664176" lon="-5.608356"><ele>893.768</ele><time>2015-10-24T06:51:43Z</time></trkpt><trkpt lat="42.664348" lon="-5.608382"><ele>893.714</ele><time>2015-10-24T06:51:59Z</time></trkpt><trkpt lat="42.664474" lon="-5.608392"><ele>894.608</ele><time>2015-10-24T06:52:10Z</time></trkpt><trkpt lat="42.664557" lon="-5.608402"><ele>894.697</ele><time>2015-10-24T06:52:17Z</time></trkpt><trkpt lat="42.664782" lon="-5.608402"><ele>895.697</ele><time>2015-10-24T06:52:35Z</time></trkpt><trkpt lat="42.664964" lon="-5.608334"><ele>895.690</ele><time>2015-10-24T06:52:51Z</time></trkpt><trkpt lat="42.665133" lon="-5.608220"><ele>896.139</ele><time>2015-10-24T06:53:07Z</time></trkpt><trkpt lat="42.665278" lon="-5.608082"><ele>896.664</ele><time>2015-10-24T06:53:22Z</time></trkpt><trkpt lat="42.665343" lon="-5.608003"><ele>896.675</ele><time>2015-10-24T06:53:29Z</time></trkpt><trkpt lat="42.665388" lon="-5.607918"><ele>895.157</ele><time>2015-10-24T06:53:35Z</time></trkpt><trkpt lat="42.665473" lon="-5.607646"><ele>894.285</ele><time>2015-10-24T06:53:53Z</time></trkpt><trkpt lat="42.665547" lon="-5.607410"><ele>894.273</ele><time>2015-10-24T06:54:09Z</time></trkpt><trkpt lat="42.665701" lon="-5.607220"><ele>893.785</ele><time>2015-10-24T06:54:26Z</time></trkpt><trkpt lat="42.665875" lon="-5.607061"><ele>893.713</ele><time>2015-10-24T06:54:43Z</time></trkpt><trkpt lat="42.666049" lon="-5.606917"><ele>893.208</ele><time>2015-10-24T06:55:00Z</time></trkpt><trkpt lat="42.666218" lon="-5.606764"><ele>893.228</ele><time>2015-10-24T06:55:17Z</time></trkpt><trkpt lat="42.666334" lon="-5.606615"><ele>894.618</ele><time>2015-10-24T06:55:31Z</time></trkpt><trkpt lat="42.666474" lon="-5.606496"><ele>895.131</ele><time>2015-10-24T06:55:45Z</time></trkpt><trkpt lat="42.666642" lon="-5.606439"><ele>896.670</ele><time>2015-10-24T06:56:01Z</time></trkpt><trkpt lat="42.666783" lon="-5.606397"><ele>898.035</ele><time>2015-10-24T06:56:16Z</time></trkpt><trkpt lat="42.666974" lon="-5.606351"><ele>899.566</ele><time>2015-10-24T06:56:34Z</time></trkpt><trkpt lat="42.667049" lon="-5.606338"><ele>899.998</ele><time>2015-10-24T06:56:41Z</time></trkpt><trkpt lat="42.667231" lon="-5.606341"><ele>901.466</ele><time>2015-10-24T06:56:57Z</time></trkpt><trkpt lat="42.667394" lon="-5.606360"><ele>901.869</ele><time>2015-10-24T06:57:11Z</time></trkpt><trkpt lat="42.667538" lon="-5.606375"><ele>902.804</ele><time>2015-10-24T06:57:24Z</time></trkpt><trkpt lat="42.667720" lon="-5.606400"><ele>904.324</ele><time>2015-10-24T06:57:41Z</time></trkpt><trkpt lat="42.667877" lon="-5.606424"><ele>905.708</ele><time>2015-10-24T06:57:57Z</time></trkpt><trkpt lat="42.668048" lon="-5.606422"><ele>906.217</ele><time>2015-10-24T06:58:12Z</time></trkpt><trkpt lat="42.668193" lon="-5.606424"><ele>906.227</ele><time>2015-10-24T06:58:25Z</time></trkpt><trkpt lat="42.668379" lon="-5.606495"><ele>906.280</ele><time>2015-10-24T06:58:41Z</time></trkpt><trkpt lat="42.668493" lon="-5.606661"><ele>906.279</ele><time>2015-10-24T06:58:54Z</time></trkpt><trkpt lat="42.668543" lon="-5.606729"><ele>906.254</ele><time>2015-10-24T06:59:00Z</time></trkpt><trkpt lat="42.668662" lon="-5.606926"><ele>906.285</ele><time>2015-10-24T06:59:16Z</time></trkpt><trkpt lat="42.668696" lon="-5.607027"><ele>905.747</ele><time>2015-10-24T06:59:23Z</time></trkpt><trkpt lat="42.668820" lon="-5.607150"><ele>907.635</ele><time>2015-10-24T06:59:39Z</time></trkpt><trkpt lat="42.668964" lon="-5.607262"><ele>909.559</ele><time>2015-10-24T06:59:56Z</time></trkpt><trkpt lat="42.669023" lon="-5.607351"><ele>910.003</ele><time>2015-10-24T07:00:04Z</time></trkpt><trkpt lat="42.669137" lon="-5.607619"><ele>911.023</ele><time>2015-10-24T07:00:25Z</time></trkpt><trkpt lat="42.669231" lon="-5.607765"><ele>912.008</ele><time>2015-10-24T07:00:39Z</time></trkpt><trkpt lat="42.669348" lon="-5.607873"><ele>913.426</ele><time>2015-10-24T07:00:53Z</time></trkpt><trkpt lat="42.669357" lon="-5.607879"><ele>913.416</ele><time>2015-10-24T07:00:54Z</time></trkpt><trkpt lat="42.669491" lon="-5.607882"><ele>915.879</ele><time>2015-10-24T07:01:10Z</time></trkpt><trkpt lat="42.669605" lon="-5.607815"><ele>917.258</ele><time>2015-10-24T07:01:24Z</time></trkpt><trkpt lat="42.669688" lon="-5.607734"><ele>918.753</ele><time>2015-10-24T07:01:35Z</time></trkpt><trkpt lat="42.669717" lon="-5.607723"><ele>918.724</ele><time>2015-10-24T07:01:38Z</time></trkpt><trkpt lat="42.669830" lon="-5.607650"><ele>920.166</ele><time>2015-10-24T07:01:52Z</time></trkpt><trkpt lat="42.669867" lon="-5.607631"><ele>920.674</ele><time>2015-10-24T07:01:56Z</time></trkpt><trkpt lat="42.670032" lon="-5.607563"><ele>922.594</ele><time>2015-10-24T07:02:13Z</time></trkpt><trkpt lat="42.670169" lon="-5.607474"><ele>923.557</ele><time>2015-10-24T07:02:28Z</time></trkpt><trkpt lat="42.670301" lon="-5.607373"><ele>925.422</ele><time>2015-10-24T07:02:44Z</time></trkpt><trkpt lat="42.670439" lon="-5.607281"><ele>927.308</ele><time>2015-10-24T07:02:59Z</time></trkpt><trkpt lat="42.670611" lon="-5.607228"><ele>929.250</ele><time>2015-10-24T07:03:17Z</time></trkpt><trkpt lat="42.670765" lon="-5.607223"><ele>931.220</ele><time>2015-10-24T07:03:33Z</time></trkpt><trkpt lat="42.670918" lon="-5.607240"><ele>933.143</ele><time>2015-10-24T07:03:48Z</time></trkpt><trkpt lat="42.671088" lon="-5.607282"><ele>935.042</ele><time>2015-10-24T07:04:05Z</time></trkpt><trkpt lat="42.671250" lon="-5.607338"><ele>936.987</ele><time>2015-10-24T07:04:22Z</time></trkpt><trkpt lat="42.671409" lon="-5.607386"><ele>938.988</ele><time>2015-10-24T07:04:40Z</time></trkpt><trkpt lat="42.671480" lon="-5.607393"><ele>940.350</ele><time>2015-10-24T07:04:48Z</time></trkpt><trkpt lat="42.671619" lon="-5.607379"><ele>942.778</ele><time>2015-10-24T07:05:04Z</time></trkpt><trkpt lat="42.671769" lon="-5.607363"><ele>944.647</ele><time>2015-10-24T07:05:21Z</time></trkpt><trkpt lat="42.671911" lon="-5.607358"><ele>946.129</ele><time>2015-10-24T07:05:35Z</time></trkpt><trkpt lat="42.672048" lon="-5.607357"><ele>947.521</ele><time>2015-10-24T07:05:49Z</time></trkpt><trkpt lat="42.672208" lon="-5.607352"><ele>949.008</ele><time>2015-10-24T07:06:05Z</time></trkpt><trkpt lat="42.672373" lon="-5.607346"><ele>949.475</ele><time>2015-10-24T07:06:21Z</time></trkpt><trkpt lat="42.672572" lon="-5.607352"><ele>950.995</ele><time>2015-10-24T07:06:40Z</time></trkpt><trkpt lat="42.672745" lon="-5.607372"><ele>952.878</ele><time>2015-10-24T07:06:57Z</time></trkpt><trkpt lat="42.672877" lon="-5.607433"><ele>954.217</ele><time>2015-10-24T07:07:11Z</time></trkpt><trkpt lat="42.673015" lon="-5.607552"><ele>955.262</ele><time>2015-10-24T07:07:28Z</time></trkpt><trkpt lat="42.673149" lon="-5.607669"><ele>956.213</ele><time>2015-10-24T07:07:44Z</time></trkpt><trkpt lat="42.673319" lon="-5.607838"><ele>957.665</ele><time>2015-10-24T07:08:02Z</time></trkpt><trkpt lat="42.673472" lon="-5.607961"><ele>957.643</ele><time>2015-10-24T07:08:18Z</time></trkpt><trkpt lat="42.673645" lon="-5.608042"><ele>958.649</ele><time>2015-10-24T07:08:35Z</time></trkpt><trkpt lat="42.673758" lon="-5.608088"><ele>959.002</ele><time>2015-10-24T07:08:46Z</time></trkpt><trkpt lat="42.673924" lon="-5.608178"><ele>960.022</ele><time>2015-10-24T07:09:02Z</time></trkpt><trkpt lat="42.674056" lon="-5.608235"><ele>960.508</ele><time>2015-10-24T07:09:15Z</time></trkpt><trkpt lat="42.674208" lon="-5.608379"><ele>961.565</ele><time>2015-10-24T07:09:31Z</time></trkpt><trkpt lat="42.674368" lon="-5.608569"><ele>963.465</ele><time>2015-10-24T07:09:51Z</time></trkpt><trkpt lat="42.674514" lon="-5.608726"><ele>964.388</ele><time>2015-10-24T07:10:08Z</time></trkpt><trkpt lat="42.674695" lon="-5.608840"><ele>965.347</ele><time>2015-10-24T07:10:26Z</time></trkpt><trkpt lat="42.674746" lon="-5.608849"><ele>965.832</ele><time>2015-10-24T07:10:31Z</time></trkpt><trkpt lat="42.674797" lon="-5.608838"><ele>966.343</ele><time>2015-10-24T07:10:36Z</time></trkpt><trkpt lat="42.674982" lon="-5.608799"><ele>966.725</ele><time>2015-10-24T07:10:54Z</time></trkpt><trkpt lat="42.675122" lon="-5.608790"><ele>968.253</ele><time>2015-10-24T07:11:06Z</time></trkpt><trkpt lat="42.675264" lon="-5.608819"><ele>968.722</ele><time>2015-10-24T07:11:19Z</time></trkpt><trkpt lat="42.675443" lon="-5.608884"><ele>970.162</ele><time>2015-10-24T07:11:35Z</time></trkpt><trkpt lat="42.675614" lon="-5.608941"><ele>971.108</ele><time>2015-10-24T07:11:51Z</time></trkpt><trkpt lat="42.675753" lon="-5.608840"><ele>971.108</ele><time>2015-10-24T07:12:07Z</time></trkpt><trkpt lat="42.675891" lon="-5.608760"><ele>971.583</ele><time>2015-10-24T07:12:21Z</time></trkpt><trkpt lat="42.676068" lon="-5.608682"><ele>972.533</ele><time>2015-10-24T07:12:38Z</time></trkpt><trkpt lat="42.676245" lon="-5.608633"><ele>973.026</ele><time>2015-10-24T07:12:54Z</time></trkpt><trkpt lat="42.676405" lon="-5.608592"><ele>974.425</ele><time>2015-10-24T07:13:10Z</time></trkpt><trkpt lat="42.676567" lon="-5.608585"><ele>974.490</ele><time>2015-10-24T07:13:25Z</time></trkpt><trkpt lat="42.676768" lon="-5.608611"><ele>975.911</ele><time>2015-10-24T07:13:43Z</time></trkpt><trkpt lat="42.676923" lon="-5.608660"><ele>976.833</ele><time>2015-10-24T07:13:58Z</time></trkpt><trkpt lat="42.677076" lon="-5.608713"><ele>977.371</ele><time>2015-10-24T07:14:12Z</time></trkpt><trkpt lat="42.677252" lon="-5.608855"><ele>976.822</ele><time>2015-10-24T07:14:29Z</time></trkpt><trkpt lat="42.677437" lon="-5.608986"><ele>977.362</ele><time>2015-10-24T07:14:47Z</time></trkpt><trkpt lat="42.677577" lon="-5.609082"><ele>977.808</ele><time>2015-10-24T07:15:01Z</time></trkpt><trkpt lat="42.677645" lon="-5.609148"><ele>977.808</ele><time>2015-10-24T07:15:13Z</time></trkpt><trkpt lat="42.677791" lon="-5.609231"><ele>978.363</ele><time>2015-10-24T07:15:27Z</time></trkpt><trkpt lat="42.677936" lon="-5.609335"><ele>978.833</ele><time>2015-10-24T07:15:41Z</time></trkpt><trkpt lat="42.677960" lon="-5.609361"><ele>979.226</ele><time>2015-10-24T07:15:44Z</time></trkpt><trkpt lat="42.678127" lon="-5.609497"><ele>980.275</ele><time>2015-10-24T07:16:02Z</time></trkpt><trkpt lat="42.678151" lon="-5.609527"><ele>980.280</ele><time>2015-10-24T07:16:05Z</time></trkpt><trkpt lat="42.678256" lon="-5.609695"><ele>981.231</ele><time>2015-10-24T07:16:21Z</time></trkpt><trkpt lat="42.678269" lon="-5.609719"><ele>981.233</ele><time>2015-10-24T07:16:23Z</time></trkpt><trkpt lat="42.678366" lon="-5.609832"><ele>981.691</ele><time>2015-10-24T07:16:36Z</time></trkpt><trkpt lat="42.678531" lon="-5.609991"><ele>980.241</ele><time>2015-10-24T07:16:56Z</time></trkpt><trkpt lat="42.678671" lon="-5.610155"><ele>977.881</ele><time>2015-10-24T07:17:14Z</time></trkpt><trkpt lat="42.678722" lon="-5.610225"><ele>976.809</ele><time>2015-10-24T07:17:21Z</time></trkpt><trkpt lat="42.678886" lon="-5.610321"><ele>974.408</ele><time>2015-10-24T07:17:38Z</time></trkpt><trkpt lat="42.679035" lon="-5.610397"><ele>973.075</ele><time>2015-10-24T07:17:53Z</time></trkpt><trkpt lat="42.679193" lon="-5.610477"><ele>973.075</ele><time>2015-10-24T07:18:09Z</time></trkpt><trkpt lat="42.679346" lon="-5.610622"><ele>974.448</ele><time>2015-10-24T07:18:25Z</time></trkpt><trkpt lat="42.679458" lon="-5.610735"><ele>973.597</ele><time>2015-10-24T07:18:38Z</time></trkpt><trkpt lat="42.679597" lon="-5.610902"><ele>972.052</ele><time>2015-10-24T07:18:54Z</time></trkpt><trkpt lat="42.679735" lon="-5.611098"><ele>971.533</ele><time>2015-10-24T07:19:11Z</time></trkpt><trkpt lat="42.679823" lon="-5.611273"><ele>970.635</ele><time>2015-10-24T07:19:25Z</time></trkpt><trkpt lat="42.679951" lon="-5.611453"><ele>968.243</ele><time>2015-10-24T07:19:42Z</time></trkpt><trkpt lat="42.680047" lon="-5.611547"><ele>966.749</ele><time>2015-10-24T07:19:54Z</time></trkpt><trkpt lat="42.680178" lon="-5.611659"><ele>965.302</ele><time>2015-10-24T07:20:09Z</time></trkpt><trkpt lat="42.680188" lon="-5.611666"><ele>965.322</ele><time>2015-10-24T07:20:10Z</time></trkpt><trkpt lat="42.680302" lon="-5.611769"><ele>962.408</ele><time>2015-10-24T07:20:23Z</time></trkpt><trkpt lat="42.680330" lon="-5.611787"><ele>961.925</ele><time>2015-10-24T07:20:26Z</time></trkpt><trkpt lat="42.680450" lon="-5.611916"><ele>959.065</ele><time>2015-10-24T07:20:43Z</time></trkpt><trkpt lat="42.680551" lon="-5.611996"><ele>956.758</ele><time>2015-10-24T07:20:57Z</time></trkpt><trkpt lat="42.680701" lon="-5.612128"><ele>954.757</ele><time>2015-10-24T07:21:14Z</time></trkpt><trkpt lat="42.680854" lon="-5.612189"><ele>953.312</ele><time>2015-10-24T07:21:30Z</time></trkpt><trkpt lat="42.680938" lon="-5.612209"><ele>952.393</ele><time>2015-10-24T07:21:39Z</time></trkpt><trkpt lat="42.681001" lon="-5.612250"><ele>951.485</ele><time>2015-10-24T07:21:46Z</time></trkpt><trkpt lat="42.681068" lon="-5.612290"><ele>950.453</ele><time>2015-10-24T07:21:53Z</time></trkpt><trkpt lat="42.681205" lon="-5.612381"><ele>949.023</ele><time>2015-10-24T07:22:08Z</time></trkpt><trkpt lat="42.681240" lon="-5.612411"><ele>948.583</ele><time>2015-10-24T07:22:12Z</time></trkpt><trkpt lat="42.681240" lon="-5.612481"><ele>948.011</ele><time>2015-10-24T07:22:31Z</time></trkpt><trkpt lat="42.681286" lon="-5.612480"><ele>948.008</ele><time>2015-10-24T07:23:00Z</time></trkpt><trkpt lat="42.681339" lon="-5.612511"><ele>947.543</ele><time>2015-10-24T07:23:12Z</time></trkpt><trkpt lat="42.681382" lon="-5.612545"><ele>947.083</ele><time>2015-10-24T07:23:18Z</time></trkpt><trkpt lat="42.681482" lon="-5.612641"><ele>945.636</ele><time>2015-10-24T07:23:34Z</time></trkpt><trkpt lat="42.681585" lon="-5.612701"><ele>943.765</ele><time>2015-10-24T07:23:50Z</time></trkpt><trkpt lat="42.681681" lon="-5.612753"><ele>942.240</ele><time>2015-10-24T07:24:03Z</time></trkpt><trkpt lat="42.681845" lon="-5.612896"><ele>938.931</ele><time>2015-10-24T07:24:21Z</time></trkpt><trkpt lat="42.681921" lon="-5.612992"><ele>937.993</ele><time>2015-10-24T07:24:30Z</time></trkpt><trkpt lat="42.681950" lon="-5.613097"><ele>936.971</ele><time>2015-10-24T07:24:45Z</time></trkpt><trkpt lat="42.682028" lon="-5.613140"><ele>936.079</ele><time>2015-10-24T07:25:05Z</time></trkpt><trkpt lat="42.682108" lon="-5.613223"><ele>935.005</ele><time>2015-10-24T07:25:18Z</time></trkpt><trkpt lat="42.682131" lon="-5.613293"><ele>935.025</ele><time>2015-10-24T07:25:32Z</time></trkpt><trkpt lat="42.682145" lon="-5.613305"><ele>934.508</ele><time>2015-10-24T07:25:35Z</time></trkpt><trkpt lat="42.682175" lon="-5.613314"><ele>934.538</ele><time>2015-10-24T07:25:38Z</time></trkpt><trkpt lat="42.682313" lon="-5.613439"><ele>934.178</ele><time>2015-10-24T07:25:54Z</time></trkpt><trkpt lat="42.682453" lon="-5.613571"><ele>933.131</ele><time>2015-10-24T07:26:09Z</time></trkpt><trkpt lat="42.682558" lon="-5.613657"><ele>933.120</ele><time>2015-10-24T07:26:20Z</time></trkpt><trkpt lat="42.682728" lon="-5.613757"><ele>932.635</ele><time>2015-10-24T07:26:36Z</time></trkpt><trkpt lat="42.682883" lon="-5.613886"><ele>932.166</ele><time>2015-10-24T07:26:51Z</time></trkpt><trkpt lat="42.683051" lon="-5.614030"><ele>932.198</ele><time>2015-10-24T07:27:07Z</time></trkpt><trkpt lat="42.683062" lon="-5.614034"><ele>932.146</ele><time>2015-10-24T07:27:08Z</time></trkpt><trkpt lat="42.683249" lon="-5.614160"><ele>932.196</ele><time>2015-10-24T07:27:27Z</time></trkpt><trkpt lat="42.683377" lon="-5.614234"><ele>933.131</ele><time>2015-10-24T07:27:41Z</time></trkpt><trkpt lat="42.683557" lon="-5.614440"><ele>933.124</ele><time>2015-10-24T07:28:00Z</time></trkpt><trkpt lat="42.683699" lon="-5.614668"><ele>931.708</ele><time>2015-10-24T07:28:17Z</time></trkpt><trkpt lat="42.683834" lon="-5.614900"><ele>931.250</ele><time>2015-10-24T07:28:34Z</time></trkpt><trkpt lat="42.684003" lon="-5.615091"><ele>931.230</ele><time>2015-10-24T07:28:52Z</time></trkpt><trkpt lat="42.684207" lon="-5.615142"><ele>932.643</ele><time>2015-10-24T07:29:11Z</time></trkpt><trkpt lat="42.684394" lon="-5.615217"><ele>933.122</ele><time>2015-10-24T07:29:28Z</time></trkpt><trkpt lat="42.684410" lon="-5.615227"><ele>933.147</ele><time>2015-10-24T07:29:43Z</time></trkpt><trkpt lat="42.684465" lon="-5.615266"><ele>933.198</ele><time>2015-10-24T07:29:58Z</time></trkpt><trkpt lat="42.684572" lon="-5.615274"><ele>933.160</ele><time>2015-10-24T07:30:13Z</time></trkpt><trkpt lat="42.684651" lon="-5.615293"><ele>933.168</ele><time>2015-10-24T07:30:28Z</time></trkpt><trkpt lat="42.684635" lon="-5.615313"><ele>933.135</ele><time>2015-10-24T07:30:42Z</time></trkpt><trkpt lat="42.684740" lon="-5.615299"><ele>933.186</ele><time>2015-10-24T07:30:56Z</time></trkpt><trkpt lat="42.684893" lon="-5.615300"><ele>933.114</ele><time>2015-10-24T07:31:12Z</time></trkpt><trkpt lat="42.684916" lon="-5.615307"><ele>932.108</ele><time>2015-10-24T07:31:14Z</time></trkpt><trkpt lat="42.685092" lon="-5.615360"><ele>930.214</ele><time>2015-10-24T07:31:31Z</time></trkpt><trkpt lat="42.685192" lon="-5.615405"><ele>929.784</ele><time>2015-10-24T07:31:41Z</time></trkpt><trkpt lat="42.685345" lon="-5.615395"><ele>928.377</ele><time>2015-10-24T07:31:59Z</time></trkpt><trkpt lat="42.685417" lon="-5.615398"><ele>927.396</ele><time>2015-10-24T07:32:07Z</time></trkpt><trkpt lat="42.685613" lon="-5.615386"><ele>925.921</ele><time>2015-10-24T07:32:24Z</time></trkpt><trkpt lat="42.685798" lon="-5.615353"><ele>925.962</ele><time>2015-10-24T07:32:41Z</time></trkpt><trkpt lat="42.686022" lon="-5.615369"><ele>924.584</ele><time>2015-10-24T07:33:00Z</time></trkpt><trkpt lat="42.686164" lon="-5.615316"><ele>925.422</ele><time>2015-10-24T07:33:15Z</time></trkpt><trkpt lat="42.686261" lon="-5.615232"><ele>926.833</ele><time>2015-10-24T07:33:28Z</time></trkpt><trkpt lat="42.686383" lon="-5.615151"><ele>928.323</ele><time>2015-10-24T07:33:43Z</time></trkpt><trkpt lat="42.686529" lon="-5.615106"><ele>929.715</ele><time>2015-10-24T07:33:57Z</time></trkpt><trkpt lat="42.686687" lon="-5.615128"><ele>928.808</ele><time>2015-10-24T07:34:11Z</time></trkpt><trkpt lat="42.686706" lon="-5.615131"><ele>928.874</ele><time>2015-10-24T07:34:13Z</time></trkpt><trkpt lat="42.686861" lon="-5.615112"><ele>927.364</ele><time>2015-10-24T07:34:27Z</time></trkpt><trkpt lat="42.687041" lon="-5.615053"><ele>928.887</ele><time>2015-10-24T07:34:43Z</time></trkpt><trkpt lat="42.687204" lon="-5.615022"><ele>928.866</ele><time>2015-10-24T07:34:58Z</time></trkpt><trkpt lat="42.687344" lon="-5.614977"><ele>928.811</ele><time>2015-10-24T07:35:11Z</time></trkpt><trkpt lat="42.687493" lon="-5.614887"><ele>929.742</ele><time>2015-10-24T07:35:26Z</time></trkpt><trkpt lat="42.687680" lon="-5.614781"><ele>931.234</ele><time>2015-10-24T07:35:46Z</time></trkpt><trkpt lat="42.687698" lon="-5.614776"><ele>931.232</ele><time>2015-10-24T07:35:48Z</time></trkpt><trkpt lat="42.687730" lon="-5.614780"><ele>931.764</ele><time>2015-10-24T07:35:51Z</time></trkpt><trkpt lat="42.687878" lon="-5.614755"><ele>930.706</ele><time>2015-10-24T07:36:05Z</time></trkpt><trkpt lat="42.688065" lon="-5.614733"><ele>930.216</ele><time>2015-10-24T07:36:20Z</time></trkpt><trkpt lat="42.688079" lon="-5.614729"><ele>930.208</ele><time>2015-10-24T07:36:21Z</time></trkpt><trkpt lat="42.688230" lon="-5.614657"><ele>928.897</ele><time>2015-10-24T07:36:36Z</time></trkpt><trkpt lat="42.688273" lon="-5.614627"><ele>928.337</ele><time>2015-10-24T07:36:40Z</time></trkpt><trkpt lat="42.688411" lon="-5.614610"><ele>926.820</ele><time>2015-10-24T07:36:57Z</time></trkpt><trkpt lat="42.688507" lon="-5.614645"><ele>926.849</ele><time>2015-10-24T07:37:17Z</time></trkpt><trkpt lat="42.688541" lon="-5.614873"><ele>926.874</ele><time>2015-10-24T07:37:33Z</time></trkpt><trkpt lat="42.688544" lon="-5.614884"><ele>926.895</ele><time>2015-10-24T07:37:34Z</time></trkpt><trkpt lat="42.688503" lon="-5.615084"><ele>926.817</ele><time>2015-10-24T07:37:49Z</time></trkpt><trkpt lat="42.688489" lon="-5.615195"><ele>926.425</ele><time>2015-10-24T07:37:59Z</time></trkpt><trkpt lat="42.688444" lon="-5.615405"><ele>926.413</ele><time>2015-10-24T07:38:13Z</time></trkpt><trkpt lat="42.688411" lon="-5.615663"><ele>926.443</ele><time>2015-10-24T07:38:30Z</time></trkpt><trkpt lat="42.688364" lon="-5.615829"><ele>927.807</ele><time>2015-10-24T07:38:42Z</time></trkpt><trkpt lat="42.688337" lon="-5.615862"><ele>927.808</ele><time>2015-10-24T07:38:45Z</time></trkpt><trkpt lat="42.688327" lon="-5.615884"><ele>927.862</ele><time>2015-10-24T07:38:47Z</time></trkpt><trkpt lat="42.688234" lon="-5.616026"><ele>929.772</ele><time>2015-10-24T07:39:02Z</time></trkpt><trkpt lat="42.688157" lon="-5.616168"><ele>930.215</ele><time>2015-10-24T07:39:16Z</time></trkpt><trkpt lat="42.688091" lon="-5.616347"><ele>932.194</ele><time>2015-10-24T07:39:32Z</time></trkpt><trkpt lat="42.688061" lon="-5.616391"><ele>932.649</ele><time>2015-10-24T07:39:45Z</time></trkpt><trkpt lat="42.688032" lon="-5.616513"><ele>934.520</ele><time>2015-10-24T07:39:59Z</time></trkpt><trkpt lat="42.687972" lon="-5.616664"><ele>936.512</ele><time>2015-10-24T07:40:14Z</time></trkpt><trkpt lat="42.687924" lon="-5.616801"><ele>936.990</ele><time>2015-10-24T07:40:26Z</time></trkpt><trkpt lat="42.687958" lon="-5.616864"><ele>936.921</ele><time>2015-10-24T07:40:32Z</time></trkpt><trkpt lat="42.688072" lon="-5.616908"><ele>935.041</ele><time>2015-10-24T07:40:45Z</time></trkpt><trkpt lat="42.688162" lon="-5.617020"><ele>933.605</ele><time>2015-10-24T07:40:58Z</time></trkpt><trkpt lat="42.688281" lon="-5.617121"><ele>933.608</ele><time>2015-10-24T07:41:12Z</time></trkpt><trkpt lat="42.688331" lon="-5.617173"><ele>933.613</ele><time>2015-10-24T07:41:23Z</time></trkpt><trkpt lat="42.688375" lon="-5.617196"><ele>933.663</ele><time>2015-10-24T07:41:42Z</time></trkpt><trkpt lat="42.688471" lon="-5.617257"><ele>933.636</ele><time>2015-10-24T07:41:57Z</time></trkpt><trkpt lat="42.688534" lon="-5.617287"><ele>934.555</ele><time>2015-10-24T07:42:14Z</time></trkpt><trkpt lat="42.688581" lon="-5.617308"><ele>934.520</ele><time>2015-10-24T07:42:27Z</time></trkpt><trkpt lat="42.688663" lon="-5.617364"><ele>935.071</ele><time>2015-10-24T07:42:39Z</time></trkpt><trkpt lat="42.688795" lon="-5.617437"><ele>935.013</ele><time>2015-10-24T07:42:53Z</time></trkpt><trkpt lat="42.688900" lon="-5.617529"><ele>935.511</ele><time>2015-10-24T07:43:07Z</time></trkpt><trkpt lat="42.688982" lon="-5.617557"><ele>935.581</ele><time>2015-10-24T07:43:17Z</time></trkpt><trkpt lat="42.689032" lon="-5.617586"><ele>935.561</ele><time>2015-10-24T07:43:22Z</time></trkpt><trkpt lat="42.689162" lon="-5.617672"><ele>936.017</ele><time>2015-10-24T07:43:37Z</time></trkpt><trkpt lat="42.689284" lon="-5.617746"><ele>936.508</ele><time>2015-10-24T07:43:52Z</time></trkpt><trkpt lat="42.689369" lon="-5.617784"><ele>936.589</ele><time>2015-10-24T07:44:05Z</time></trkpt><trkpt lat="42.689440" lon="-5.617823"><ele>936.549</ele><time>2015-10-24T07:44:13Z</time></trkpt><trkpt lat="42.689608" lon="-5.617927"><ele>936.522</ele><time>2015-10-24T07:44:28Z</time></trkpt><trkpt lat="42.689748" lon="-5.617985"><ele>936.571</ele><time>2015-10-24T07:44:42Z</time></trkpt><trkpt lat="42.689893" lon="-5.618040"><ele>936.526</ele><time>2015-10-24T07:44:57Z</time></trkpt><trkpt lat="42.689974" lon="-5.618094"><ele>935.037</ele><time>2015-10-24T07:45:05Z</time></trkpt><trkpt lat="42.690125" lon="-5.618183"><ele>934.549</ele><time>2015-10-24T07:45:17Z</time></trkpt><trkpt lat="42.690289" lon="-5.618249"><ele>933.127</ele><time>2015-10-24T07:45:33Z</time></trkpt><trkpt lat="42.690396" lon="-5.618313"><ele>933.172</ele><time>2015-10-24T07:45:46Z</time></trkpt><trkpt lat="42.690548" lon="-5.618381"><ele>934.513</ele><time>2015-10-24T07:46:01Z</time></trkpt><trkpt lat="42.690681" lon="-5.618430"><ele>935.514</ele><time>2015-10-24T07:46:14Z</time></trkpt><trkpt lat="42.690708" lon="-5.618438"><ele>935.508</ele><time>2015-10-24T07:46:17Z</time></trkpt><trkpt lat="42.690866" lon="-5.618571"><ele>935.518</ele><time>2015-10-24T07:46:33Z</time></trkpt><trkpt lat="42.690955" lon="-5.618617"><ele>934.118</ele><time>2015-10-24T07:46:41Z</time></trkpt><trkpt lat="42.691100" lon="-5.618718"><ele>932.651</ele><time>2015-10-24T07:46:56Z</time></trkpt><trkpt lat="42.691252" lon="-5.618738"><ele>932.190</ele><time>2015-10-24T07:47:11Z</time></trkpt><trkpt lat="42.691361" lon="-5.618788"><ele>932.185</ele><time>2015-10-24T07:47:24Z</time></trkpt><trkpt lat="42.691384" lon="-5.618793"><ele>932.176</ele><time>2015-10-24T07:47:26Z</time></trkpt><trkpt lat="42.691439" lon="-5.618820"><ele>932.178</ele><time>2015-10-24T07:47:30Z</time></trkpt><trkpt lat="42.691463" lon="-5.618822"><ele>932.176</ele><time>2015-10-24T07:47:32Z</time></trkpt><trkpt lat="42.691509" lon="-5.618835"><ele>932.164</ele><time>2015-10-24T07:47:35Z</time></trkpt><trkpt lat="42.691632" lon="-5.618856"><ele>933.106</ele><time>2015-10-24T07:47:46Z</time></trkpt><trkpt lat="42.691784" lon="-5.618878"><ele>933.616</ele><time>2015-10-24T07:48:00Z</time></trkpt><trkpt lat="42.691846" lon="-5.618882"><ele>934.508</ele><time>2015-10-24T07:48:07Z</time></trkpt><trkpt lat="42.692017" lon="-5.618903"><ele>934.547</ele><time>2015-10-24T07:48:22Z</time></trkpt><trkpt lat="42.692045" lon="-5.618900"><ele>934.567</ele><time>2015-10-24T07:48:25Z</time></trkpt><trkpt lat="42.692216" lon="-5.618901"><ele>935.580</ele><time>2015-10-24T07:48:41Z</time></trkpt><trkpt lat="42.692240" lon="-5.618896"><ele>935.519</ele><time>2015-10-24T07:48:44Z</time></trkpt><trkpt lat="42.692307" lon="-5.618877"><ele>935.544</ele><time>2015-10-24T07:48:50Z</time></trkpt><trkpt lat="42.692456" lon="-5.618890"><ele>936.535</ele><time>2015-10-24T07:49:04Z</time></trkpt><trkpt lat="42.692529" lon="-5.618883"><ele>936.977</ele><time>2015-10-24T07:49:12Z</time></trkpt><trkpt lat="42.692576" lon="-5.618902"><ele>936.995</ele><time>2015-10-24T07:49:17Z</time></trkpt><trkpt lat="42.692736" lon="-5.618968"><ele>936.924</ele><time>2015-10-24T07:49:31Z</time></trkpt><trkpt lat="42.692872" lon="-5.619011"><ele>937.904</ele><time>2015-10-24T07:49:45Z</time></trkpt><trkpt lat="42.693000" lon="-5.619036"><ele>938.414</ele><time>2015-10-24T07:49:58Z</time></trkpt><trkpt lat="42.693112" lon="-5.619073"><ele>936.908</ele><time>2015-10-24T07:50:11Z</time></trkpt><trkpt lat="42.693251" lon="-5.619066"><ele>936.553</ele><time>2015-10-24T07:50:27Z</time></trkpt><trkpt lat="42.693298" lon="-5.619087"><ele>936.593</ele><time>2015-10-24T07:50:32Z</time></trkpt><trkpt lat="42.693333" lon="-5.619139"><ele>936.546</ele><time>2015-10-24T07:50:37Z</time></trkpt><trkpt lat="42.693474" lon="-5.619177"><ele>935.575</ele><time>2015-10-24T07:50:52Z</time></trkpt><trkpt lat="42.693610" lon="-5.619219"><ele>935.550</ele><time>2015-10-24T07:51:06Z</time></trkpt><trkpt lat="42.693663" lon="-5.619215"><ele>936.511</ele><time>2015-10-24T07:51:11Z</time></trkpt><trkpt lat="42.693716" lon="-5.619201"><ele>936.573</ele><time>2015-10-24T07:51:16Z</time></trkpt><trkpt lat="42.693850" lon="-5.619279"><ele>936.991</ele><time>2015-10-24T07:51:30Z</time></trkpt><trkpt lat="42.693936" lon="-5.619276"><ele>937.482</ele><time>2015-10-24T07:51:39Z</time></trkpt><trkpt lat="42.694074" lon="-5.619211"><ele>939.343</ele><time>2015-10-24T07:51:55Z</time></trkpt><trkpt lat="42.694192" lon="-5.619161"><ele>941.817</ele><time>2015-10-24T07:52:10Z</time></trkpt><trkpt lat="42.694329" lon="-5.619150"><ele>942.208</ele><time>2015-10-24T07:52:24Z</time></trkpt><trkpt lat="42.694459" lon="-5.619095"><ele>940.819</ele><time>2015-10-24T07:52:37Z</time></trkpt><trkpt lat="42.694541" lon="-5.619079"><ele>940.359</ele><time>2015-10-24T07:52:46Z</time></trkpt><trkpt lat="42.694698" lon="-5.619061"><ele>939.372</ele><time>2015-10-24T07:53:00Z</time></trkpt><trkpt lat="42.694860" lon="-5.619072"><ele>938.961</ele><time>2015-10-24T07:53:14Z</time></trkpt><trkpt lat="42.694930" lon="-5.619080"><ele>938.956</ele><time>2015-10-24T07:53:21Z</time></trkpt><trkpt lat="42.694982" lon="-5.619085"><ele>938.937</ele><time>2015-10-24T07:53:26Z</time></trkpt><trkpt lat="42.695172" lon="-5.619176"><ele>938.959</ele><time>2015-10-24T07:53:42Z</time></trkpt><trkpt lat="42.695311" lon="-5.619329"><ele>938.987</ele><time>2015-10-24T07:53:58Z</time></trkpt><trkpt lat="42.695408" lon="-5.619457"><ele>939.871</ele><time>2015-10-24T07:54:10Z</time></trkpt><trkpt lat="42.695533" lon="-5.619563"><ele>940.341</ele><time>2015-10-24T07:54:24Z</time></trkpt><trkpt lat="42.695629" lon="-5.619664"><ele>941.315</ele><time>2015-10-24T07:54:38Z</time></trkpt><trkpt lat="42.695782" lon="-5.619700"><ele>942.208</ele><time>2015-10-24T07:54:55Z</time></trkpt><trkpt lat="42.695910" lon="-5.619653"><ele>942.278</ele><time>2015-10-24T07:55:10Z</time></trkpt><trkpt lat="42.696007" lon="-5.619609"><ele>942.258</ele><time>2015-10-24T07:55:24Z</time></trkpt><trkpt lat="42.696060" lon="-5.619587"><ele>942.281</ele><time>2015-10-24T07:55:38Z</time></trkpt><trkpt lat="42.696127" lon="-5.619574"><ele>941.380</ele><time>2015-10-24T07:55:53Z</time></trkpt><trkpt lat="42.696149" lon="-5.619600"><ele>941.385</ele><time>2015-10-24T07:56:17Z</time></trkpt><trkpt lat="42.696233" lon="-5.619542"><ele>941.386</ele><time>2015-10-24T07:56:32Z</time></trkpt><trkpt lat="42.696382" lon="-5.619502"><ele>942.728</ele><time>2015-10-24T07:56:48Z</time></trkpt><trkpt lat="42.696513" lon="-5.619460"><ele>943.716</ele><time>2015-10-24T07:57:03Z</time></trkpt><trkpt lat="42.696618" lon="-5.619322"><ele>943.771</ele><time>2015-10-24T07:57:16Z</time></trkpt><trkpt lat="42.696670" lon="-5.619267"><ele>943.741</ele><time>2015-10-24T07:57:22Z</time></trkpt><trkpt lat="42.696696" lon="-5.619250"><ele>942.215</ele><time>2015-10-24T07:57:25Z</time></trkpt><trkpt lat="42.696815" lon="-5.619246"><ele>938.908</ele><time>2015-10-24T07:57:39Z</time></trkpt><trkpt lat="42.696823" lon="-5.619250"><ele>938.928</ele><time>2015-10-24T07:57:40Z</time></trkpt><trkpt lat="42.696863" lon="-5.619278"><ele>937.948</ele><time>2015-10-24T07:57:44Z</time></trkpt><trkpt lat="42.697045" lon="-5.619349"><ele>936.911</ele><time>2015-10-24T07:57:59Z</time></trkpt><trkpt lat="42.697227" lon="-5.619462"><ele>936.920</ele><time>2015-10-24T07:58:14Z</time></trkpt><trkpt lat="42.697346" lon="-5.619610"><ele>938.455</ele><time>2015-10-24T07:58:29Z</time></trkpt><trkpt lat="42.697433" lon="-5.619727"><ele>940.366</ele><time>2015-10-24T07:58:43Z</time></trkpt><trkpt lat="42.697541" lon="-5.619847"><ele>943.268</ele><time>2015-10-24T07:58:59Z</time></trkpt><trkpt lat="42.697636" lon="-5.619970"><ele>946.166</ele><time>2015-10-24T07:59:15Z</time></trkpt><trkpt lat="42.697718" lon="-5.620095"><ele>948.591</ele><time>2015-10-24T07:59:32Z</time></trkpt><trkpt lat="42.697724" lon="-5.620115"><ele>948.581</ele><time>2015-10-24T07:59:44Z</time></trkpt><trkpt lat="42.697716" lon="-5.620145"><ele>948.519</ele><time>2015-10-24T07:59:50Z</time></trkpt><trkpt lat="42.697677" lon="-5.620224"><ele>949.908</ele><time>2015-10-24T08:00:03Z</time></trkpt><trkpt lat="42.697695" lon="-5.620219"><ele>949.940</ele><time>2015-10-24T08:00:19Z</time></trkpt><trkpt lat="42.697705" lon="-5.620207"><ele>949.950</ele><time>2015-10-24T08:00:21Z</time></trkpt><trkpt lat="42.697738" lon="-5.620194"><ele>949.093</ele><time>2015-10-24T08:00:24Z</time></trkpt><trkpt lat="42.697750" lon="-5.620200"><ele>948.592</ele><time>2015-10-24T08:00:25Z</time></trkpt><trkpt lat="42.697761" lon="-5.620214"><ele>948.517</ele><time>2015-10-24T08:00:26Z</time></trkpt><trkpt lat="42.697783" lon="-5.620289"><ele>948.018</ele><time>2015-10-24T08:00:32Z</time></trkpt><trkpt lat="42.697805" lon="-5.620311"><ele>947.530</ele><time>2015-10-24T08:00:47Z</time></trkpt><trkpt lat="42.697875" lon="-5.620372"><ele>946.198</ele><time>2015-10-24T08:01:07Z</time></trkpt><trkpt lat="42.697906" lon="-5.620389"><ele>944.631</ele><time>2015-10-24T08:01:12Z</time></trkpt><trkpt lat="42.698017" lon="-5.620481"><ele>942.261</ele><time>2015-10-24T08:01:25Z</time></trkpt><trkpt lat="42.698144" lon="-5.620588"><ele>939.307</ele><time>2015-10-24T08:01:41Z</time></trkpt><trkpt lat="42.698195" lon="-5.620610"><ele>938.908</ele><time>2015-10-24T08:01:46Z</time></trkpt><trkpt lat="42.698221" lon="-5.620626"><ele>938.444</ele><time>2015-10-24T08:01:49Z</time></trkpt><trkpt lat="42.698232" lon="-5.620629"><ele>938.494</ele><time>2015-10-24T08:01:50Z</time></trkpt><trkpt lat="42.698242" lon="-5.620634"><ele>937.967</ele><time>2015-10-24T08:01:51Z</time></trkpt><trkpt lat="42.698252" lon="-5.620639"><ele>937.916</ele><time>2015-10-24T08:01:52Z</time></trkpt><trkpt lat="42.698397" lon="-5.620676"><ele>935.561</ele><time>2015-10-24T08:02:07Z</time></trkpt><trkpt lat="42.698507" lon="-5.620687"><ele>934.162</ele><time>2015-10-24T08:02:18Z</time></trkpt><trkpt lat="42.698519" lon="-5.620686"><ele>934.124</ele><time>2015-10-24T08:02:19Z</time></trkpt><trkpt lat="42.698530" lon="-5.620687"><ele>934.112</ele><time>2015-10-24T08:02:20Z</time></trkpt><trkpt lat="42.698541" lon="-5.620688"><ele>934.156</ele><time>2015-10-24T08:02:21Z</time></trkpt><trkpt lat="42.698663" lon="-5.620712"><ele>932.159</ele><time>2015-10-24T08:02:34Z</time></trkpt><trkpt lat="42.698822" lon="-5.620756"><ele>929.714</ele><time>2015-10-24T08:02:50Z</time></trkpt><trkpt lat="42.698985" lon="-5.620782"><ele>927.808</ele><time>2015-10-24T08:03:05Z</time></trkpt><trkpt lat="42.699042" lon="-5.620813"><ele>927.816</ele><time>2015-10-24T08:03:11Z</time></trkpt><trkpt lat="42.699189" lon="-5.620948"><ele>925.476</ele><time>2015-10-24T08:03:27Z</time></trkpt><trkpt lat="42.699341" lon="-5.621081"><ele>924.059</ele><time>2015-10-24T08:03:43Z</time></trkpt><trkpt lat="42.699495" lon="-5.621188"><ele>923.098</ele><time>2015-10-24T08:03:59Z</time></trkpt><trkpt lat="42.699628" lon="-5.621275"><ele>921.653</ele><time>2015-10-24T08:04:14Z</time></trkpt><trkpt lat="42.699756" lon="-5.621338"><ele>919.244</ele><time>2015-10-24T08:04:30Z</time></trkpt><trkpt lat="42.699879" lon="-5.621337"><ele>917.216</ele><time>2015-10-24T08:04:42Z</time></trkpt><trkpt lat="42.700031" lon="-5.621366"><ele>915.344</ele><time>2015-10-24T08:04:58Z</time></trkpt><trkpt lat="42.700087" lon="-5.621402"><ele>914.342</ele><time>2015-10-24T08:05:12Z</time></trkpt><trkpt lat="42.700131" lon="-5.621389"><ele>913.922</ele><time>2015-10-24T08:05:31Z</time></trkpt><trkpt lat="42.700254" lon="-5.621476"><ele>912.914</ele><time>2015-10-24T08:05:47Z</time></trkpt><trkpt lat="42.700343" lon="-5.621521"><ele>912.008</ele><time>2015-10-24T08:05:57Z</time></trkpt><trkpt lat="42.700374" lon="-5.621528"><ele>911.585</ele><time>2015-10-24T08:06:00Z</time></trkpt><trkpt lat="42.700492" lon="-5.621522"><ele>909.555</ele><time>2015-10-24T08:06:13Z</time></trkpt><trkpt lat="42.700624" lon="-5.621541"><ele>908.618</ele><time>2015-10-24T08:06:27Z</time></trkpt><trkpt lat="42.700755" lon="-5.621543"><ele>908.157</ele><time>2015-10-24T08:06:41Z</time></trkpt><trkpt lat="42.700881" lon="-5.621619"><ele>906.772</ele><time>2015-10-24T08:06:55Z</time></trkpt><trkpt lat="42.700922" lon="-5.621641"><ele>906.223</ele><time>2015-10-24T08:07:00Z</time></trkpt><trkpt lat="42.700976" lon="-5.621612"><ele>907.165</ele><time>2015-10-24T08:07:14Z</time></trkpt><trkpt lat="42.700977" lon="-5.621644"><ele>907.123</ele><time>2015-10-24T08:08:01Z</time></trkpt><trkpt lat="42.700986" lon="-5.621632"><ele>907.127</ele><time>2015-10-24T08:08:29Z</time></trkpt><trkpt lat="42.700981" lon="-5.621623"><ele>907.668</ele><time>2015-10-24T08:08:58Z</time></trkpt><trkpt lat="42.700993" lon="-5.621617"><ele>907.614</ele><time>2015-10-24T08:09:26Z</time></trkpt><trkpt lat="42.700978" lon="-5.621645"><ele>907.608</ele><time>2015-10-24T08:09:58Z</time></trkpt><trkpt lat="42.701003" lon="-5.621639"><ele>908.123</ele><time>2015-10-24T08:10:26Z</time></trkpt><trkpt lat="42.700987" lon="-5.621651"><ele>908.193</ele><time>2015-10-24T08:11:08Z</time></trkpt><trkpt lat="42.700987" lon="-5.621641"><ele>908.186</ele><time>2015-10-24T08:11:29Z</time></trkpt><trkpt lat="42.700979" lon="-5.621611"><ele>908.185</ele><time>2015-10-24T08:11:51Z</time></trkpt><trkpt lat="42.700949" lon="-5.621628"><ele>908.650</ele><time>2015-10-24T08:12:21Z</time></trkpt><trkpt lat="42.700953" lon="-5.621668"><ele>906.771</ele><time>2015-10-24T08:12:33Z</time></trkpt><trkpt lat="42.700954" lon="-5.621680"><ele>906.733</ele><time>2015-10-24T08:12:34Z</time></trkpt><trkpt lat="42.701026" lon="-5.621693"><ele>906.241</ele><time>2015-10-24T08:12:46Z</time></trkpt><trkpt lat="42.701074" lon="-5.621706"><ele>905.749</ele><time>2015-10-24T08:12:52Z</time></trkpt><trkpt lat="42.701177" lon="-5.621775"><ele>905.202</ele><time>2015-10-24T08:13:05Z</time></trkpt><trkpt lat="42.701276" lon="-5.621853"><ele>904.322</ele><time>2015-10-24T08:13:19Z</time></trkpt><trkpt lat="42.701376" lon="-5.621927"><ele>903.808</ele><time>2015-10-24T08:13:34Z</time></trkpt><trkpt lat="42.701459" lon="-5.621973"><ele>903.885</ele><time>2015-10-24T08:13:49Z</time></trkpt><trkpt lat="42.701567" lon="-5.621988"><ele>903.835</ele><time>2015-10-24T08:14:03Z</time></trkpt><trkpt lat="42.701696" lon="-5.621935"><ele>903.868</ele><time>2015-10-24T08:14:18Z</time></trkpt><trkpt lat="42.701844" lon="-5.621866"><ele>903.327</ele><time>2015-10-24T08:14:33Z</time></trkpt><trkpt lat="42.701862" lon="-5.621853"><ele>902.822</ele><time>2015-10-24T08:14:35Z</time></trkpt><trkpt lat="42.701995" lon="-5.621813"><ele>902.813</ele><time>2015-10-24T08:14:48Z</time></trkpt><trkpt lat="42.702051" lon="-5.621775"><ele>902.875</ele><time>2015-10-24T08:15:03Z</time></trkpt><trkpt lat="42.702081" lon="-5.621758"><ele>902.893</ele><time>2015-10-24T08:15:21Z</time></trkpt><trkpt lat="42.702144" lon="-5.621747"><ele>902.313</ele><time>2015-10-24T08:15:33Z</time></trkpt><trkpt lat="42.702268" lon="-5.621725"><ele>900.943</ele><time>2015-10-24T08:15:48Z</time></trkpt><trkpt lat="42.702320" lon="-5.621805"><ele>900.407</ele><time>2015-10-24T08:16:00Z</time></trkpt><trkpt lat="42.702335" lon="-5.621850"><ele>901.808</ele><time>2015-10-24T08:16:06Z</time></trkpt><trkpt lat="42.702334" lon="-5.621981"><ele>904.342</ele><time>2015-10-24T08:16:20Z</time></trkpt><trkpt lat="42.702348" lon="-5.622117"><ele>907.182</ele><time>2015-10-24T08:16:36Z</time></trkpt><trkpt lat="42.702371" lon="-5.622276"><ele>908.675</ele><time>2015-10-24T08:16:50Z</time></trkpt><trkpt lat="42.702389" lon="-5.622441"><ele>910.074</ele><time>2015-10-24T08:17:06Z</time></trkpt><trkpt lat="42.702429" lon="-5.622583"><ele>911.569</ele><time>2015-10-24T08:17:22Z</time></trkpt><trkpt lat="42.702464" lon="-5.622551"><ele>912.920</ele><time>2015-10-24T08:17:32Z</time></trkpt><trkpt lat="42.702490" lon="-5.622439"><ele>914.312</ele><time>2015-10-24T08:17:42Z</time></trkpt><trkpt lat="42.702608" lon="-5.622313"><ele>916.840</ele><time>2015-10-24T08:17:59Z</time></trkpt><trkpt lat="42.702734" lon="-5.622258"><ele>919.672</ele><time>2015-10-24T08:18:16Z</time></trkpt><trkpt lat="42.702838" lon="-5.622238"><ele>922.013</ele><time>2015-10-24T08:18:31Z</time></trkpt><trkpt lat="42.702922" lon="-5.622225"><ele>924.914</ele><time>2015-10-24T08:18:47Z</time></trkpt><trkpt lat="42.703013" lon="-5.622234"><ele>928.308</ele><time>2015-10-24T08:19:04Z</time></trkpt><trkpt lat="42.703113" lon="-5.622336"><ele>929.728</ele><time>2015-10-24T08:19:20Z</time></trkpt><trkpt lat="42.703231" lon="-5.622328"><ele>933.148</ele><time>2015-10-24T08:19:38Z</time></trkpt><trkpt lat="42.703340" lon="-5.622359"><ele>935.551</ele><time>2015-10-24T08:19:55Z</time></trkpt><trkpt lat="42.703428" lon="-5.622359"><ele>938.490</ele><time>2015-10-24T08:20:10Z</time></trkpt><trkpt lat="42.703518" lon="-5.622325"><ele>941.315</ele><time>2015-10-24T08:20:26Z</time></trkpt><trkpt lat="42.703648" lon="-5.622274"><ele>942.296</ele><time>2015-10-24T08:20:43Z</time></trkpt><trkpt lat="42.703744" lon="-5.622206"><ele>943.778</ele><time>2015-10-24T08:20:57Z</time></trkpt><trkpt lat="42.703802" lon="-5.622073"><ele>945.656</ele><time>2015-10-24T08:21:12Z</time></trkpt><trkpt lat="42.703949" lon="-5.622074"><ele>948.098</ele><time>2015-10-24T08:21:31Z</time></trkpt><trkpt lat="42.704131" lon="-5.622120"><ele>950.915</ele><time>2015-10-24T08:21:51Z</time></trkpt><trkpt lat="42.704255" lon="-5.622113"><ele>952.326</ele><time>2015-10-24T08:22:05Z</time></trkpt><trkpt lat="42.704322" lon="-5.622095"><ele>953.308</ele><time>2015-10-24T08:22:13Z</time></trkpt><trkpt lat="42.704434" lon="-5.622021"><ele>956.250</ele><time>2015-10-24T08:22:30Z</time></trkpt><trkpt lat="42.704553" lon="-5.621971"><ele>959.050</ele><time>2015-10-24T08:22:48Z</time></trkpt><trkpt lat="42.704643" lon="-5.621907"><ele>960.583</ele><time>2015-10-24T08:23:02Z</time></trkpt><trkpt lat="42.704644" lon="-5.621925"><ele>961.082</ele><time>2015-10-24T08:23:17Z</time></trkpt><trkpt lat="42.704647" lon="-5.621919"><ele>961.087</ele><time>2015-10-24T08:23:40Z</time></trkpt><trkpt lat="42.704638" lon="-5.621911"><ele>961.048</ele><time>2015-10-24T08:24:03Z</time></trkpt><trkpt lat="42.704657" lon="-5.621920"><ele>961.070</ele><time>2015-10-24T08:24:17Z</time></trkpt><trkpt lat="42.704721" lon="-5.621844"><ele>961.518</ele><time>2015-10-24T08:24:30Z</time></trkpt><trkpt lat="42.704792" lon="-5.621783"><ele>961.975</ele><time>2015-10-24T08:24:45Z</time></trkpt><trkpt lat="42.704849" lon="-5.621719"><ele>962.428</ele><time>2015-10-24T08:25:01Z</time></trkpt><trkpt lat="42.704938" lon="-5.621652"><ele>962.920</ele><time>2015-10-24T08:25:14Z</time></trkpt><trkpt lat="42.704941" lon="-5.621663"><ele>963.408</ele><time>2015-10-24T08:25:31Z</time></trkpt><trkpt lat="42.704970" lon="-5.621622"><ele>963.478</ele><time>2015-10-24T08:25:52Z</time></trkpt><trkpt lat="42.705048" lon="-5.621578"><ele>964.348</ele><time>2015-10-24T08:26:05Z</time></trkpt><trkpt lat="42.705105" lon="-5.621543"><ele>964.891</ele><time>2015-10-24T08:26:12Z</time></trkpt><trkpt lat="42.705207" lon="-5.621483"><ele>965.840</ele><time>2015-10-24T08:26:24Z</time></trkpt><trkpt lat="42.705364" lon="-5.621428"><ele>967.235</ele><time>2015-10-24T08:26:41Z</time></trkpt><trkpt lat="42.705479" lon="-5.621332"><ele>970.676</ele><time>2015-10-24T08:26:55Z</time></trkpt><trkpt lat="42.705600" lon="-5.621288"><ele>973.518</ele><time>2015-10-24T08:27:10Z</time></trkpt><trkpt lat="42.705684" lon="-5.621211"><ele>975.956</ele><time>2015-10-24T08:27:24Z</time></trkpt><trkpt lat="42.705777" lon="-5.621163"><ele>978.387</ele><time>2015-10-24T08:27:40Z</time></trkpt><trkpt lat="42.705884" lon="-5.621163"><ele>980.742</ele><time>2015-10-24T08:27:56Z</time></trkpt><trkpt lat="42.706000" lon="-5.621137"><ele>983.126</ele><time>2015-10-24T08:28:13Z</time></trkpt><trkpt lat="42.706007" lon="-5.621136"><ele>983.108</ele><time>2015-10-24T08:28:14Z</time></trkpt><trkpt lat="42.706048" lon="-5.621140"><ele>983.129</ele><time>2015-10-24T08:28:21Z</time></trkpt><trkpt lat="42.706064" lon="-5.621135"><ele>983.129</ele><time>2015-10-24T08:28:23Z</time></trkpt><trkpt lat="42.706094" lon="-5.621130"><ele>983.122</ele><time>2015-10-24T08:28:26Z</time></trkpt><trkpt lat="42.706248" lon="-5.621076"><ele>981.681</ele><time>2015-10-24T08:28:41Z</time></trkpt><trkpt lat="42.706358" lon="-5.620999"><ele>981.696</ele><time>2015-10-24T08:28:52Z</time></trkpt><trkpt lat="42.706404" lon="-5.620956"><ele>981.627</ele><time>2015-10-24T08:28:57Z</time></trkpt><trkpt lat="42.706471" lon="-5.620895"><ele>981.639</ele><time>2015-10-24T08:29:05Z</time></trkpt><trkpt lat="42.706507" lon="-5.620873"><ele>981.647</ele><time>2015-10-24T08:29:09Z</time></trkpt><trkpt lat="42.706530" lon="-5.620845"><ele>981.668</ele><time>2015-10-24T08:29:12Z</time></trkpt><trkpt lat="42.706556" lon="-5.620824"><ele>982.642</ele><time>2015-10-24T08:29:15Z</time></trkpt><trkpt lat="42.706605" lon="-5.620786"><ele>983.626</ele><time>2015-10-24T08:29:21Z</time></trkpt><trkpt lat="42.706749" lon="-5.620739"><ele>985.508</ele><time>2015-10-24T08:29:37Z</time></trkpt><trkpt lat="42.706877" lon="-5.620693"><ele>987.947</ele><time>2015-10-24T08:29:53Z</time></trkpt><trkpt lat="42.706999" lon="-5.620654"><ele>989.817</ele><time>2015-10-24T08:30:08Z</time></trkpt><trkpt lat="42.707095" lon="-5.620637"><ele>991.330</ele><time>2015-10-24T08:30:21Z</time></trkpt><trkpt lat="42.707108" lon="-5.620633"><ele>991.769</ele><time>2015-10-24T08:30:23Z</time></trkpt><trkpt lat="42.707235" lon="-5.620602"><ele>993.294</ele><time>2015-10-24T08:30:39Z</time></trkpt><trkpt lat="42.707251" lon="-5.620599"><ele>993.245</ele><time>2015-10-24T08:30:41Z</time></trkpt><trkpt lat="42.707391" lon="-5.620651"><ele>993.737</ele><time>2015-10-24T08:30:56Z</time></trkpt><trkpt lat="42.707429" lon="-5.620637"><ele>993.765</ele><time>2015-10-24T08:31:00Z</time></trkpt><trkpt lat="42.707549" lon="-5.620512"><ele>994.159</ele><time>2015-10-24T08:31:16Z</time></trkpt><trkpt lat="42.707664" lon="-5.620409"><ele>994.103</ele><time>2015-10-24T08:31:30Z</time></trkpt><trkpt lat="42.707775" lon="-5.620405"><ele>994.123</ele><time>2015-10-24T08:31:40Z</time></trkpt><trkpt lat="42.707854" lon="-5.620359"><ele>995.108</ele><time>2015-10-24T08:31:48Z</time></trkpt><trkpt lat="42.707931" lon="-5.620254"><ele>996.516</ele><time>2015-10-24T08:31:59Z</time></trkpt><trkpt lat="42.708038" lon="-5.620124"><ele>999.056</ele><time>2015-10-24T08:32:16Z</time></trkpt><trkpt lat="42.708069" lon="-5.620094"><ele>999.939</ele><time>2015-10-24T08:32:20Z</time></trkpt><trkpt lat="42.708221" lon="-5.619987"><ele>999.998</ele><time>2015-10-24T08:32:36Z</time></trkpt><trkpt lat="42.708339" lon="-5.619866"><ele>1001.353</ele><time>2015-10-24T08:32:52Z</time></trkpt><trkpt lat="42.708473" lon="-5.619865"><ele>999.944</ele><time>2015-10-24T08:33:07Z</time></trkpt><trkpt lat="42.708597" lon="-5.619918"><ele>997.586</ele><time>2015-10-24T08:33:22Z</time></trkpt><trkpt lat="42.708712" lon="-5.619940"><ele>996.124</ele><time>2015-10-24T08:33:35Z</time></trkpt><trkpt lat="42.708829" lon="-5.619985"><ele>994.153</ele><time>2015-10-24T08:33:49Z</time></trkpt><trkpt lat="42.708948" lon="-5.620028"><ele>992.204</ele><time>2015-10-24T08:34:02Z</time></trkpt><trkpt lat="42.709062" lon="-5.620100"><ele>990.314</ele><time>2015-10-24T08:34:17Z</time></trkpt><trkpt lat="42.709175" lon="-5.620200"><ele>987.908</ele><time>2015-10-24T08:34:33Z</time></trkpt><trkpt lat="42.709261" lon="-5.620299"><ele>986.056</ele><time>2015-10-24T08:34:47Z</time></trkpt><trkpt lat="42.709322" lon="-5.620433"><ele>983.636</ele><time>2015-10-24T08:35:02Z</time></trkpt><trkpt lat="42.709343" lon="-5.620580"><ele>981.669</ele><time>2015-10-24T08:35:15Z</time></trkpt><trkpt lat="42.709366" lon="-5.620691"><ele>980.298</ele><time>2015-10-24T08:35:24Z</time></trkpt><trkpt lat="42.709380" lon="-5.620786"><ele>978.853</ele><time>2015-10-24T08:35:32Z</time></trkpt><trkpt lat="42.709399" lon="-5.620863"><ele>978.354</ele><time>2015-10-24T08:35:38Z</time></trkpt><trkpt lat="42.709429" lon="-5.621059"><ele>976.816</ele><time>2015-10-24T08:35:53Z</time></trkpt><trkpt lat="42.709431" lon="-5.621071"><ele>976.874</ele><time>2015-10-24T08:35:54Z</time></trkpt><trkpt lat="42.709516" lon="-5.621297"><ele>975.482</ele><time>2015-10-24T08:36:11Z</time></trkpt><trkpt lat="42.709574" lon="-5.621473"><ele>975.943</ele><time>2015-10-24T08:36:25Z</time></trkpt><trkpt lat="42.709650" lon="-5.621635"><ele>977.317</ele><time>2015-10-24T08:36:41Z</time></trkpt><trkpt lat="42.709766" lon="-5.621698"><ele>977.808</ele><time>2015-10-24T08:36:57Z</time></trkpt><trkpt lat="42.709811" lon="-5.621697"><ele>976.489</ele><time>2015-10-24T08:37:03Z</time></trkpt><trkpt lat="42.709878" lon="-5.621702"><ele>975.919</ele><time>2015-10-24T08:37:19Z</time></trkpt><trkpt lat="42.709990" lon="-5.621653"><ele>973.592</ele><time>2015-10-24T08:37:33Z</time></trkpt><trkpt lat="42.710093" lon="-5.621595"><ele>971.581</ele><time>2015-10-24T08:37:45Z</time></trkpt><trkpt lat="42.710235" lon="-5.621624"><ele>969.236</ele><time>2015-10-24T08:37:59Z</time></trkpt><trkpt lat="42.710306" lon="-5.621684"><ele>967.277</ele><time>2015-10-24T08:38:09Z</time></trkpt><trkpt lat="42.710429" lon="-5.621819"><ele>964.379</ele><time>2015-10-24T08:38:26Z</time></trkpt><trkpt lat="42.710465" lon="-5.621866"><ele>963.467</ele><time>2015-10-24T08:38:31Z</time></trkpt><trkpt lat="42.710426" lon="-5.621990"><ele>961.535</ele><time>2015-10-24T08:38:42Z</time></trkpt><trkpt lat="42.710366" lon="-5.622003"><ele>960.086</ele><time>2015-10-24T08:38:49Z</time></trkpt><trkpt lat="42.710312" lon="-5.622064"><ele>959.014</ele><time>2015-10-24T08:38:58Z</time></trkpt><trkpt lat="42.710390" lon="-5.622198"><ele>956.208</ele><time>2015-10-24T08:39:12Z</time></trkpt><trkpt lat="42.710467" lon="-5.622265"><ele>953.824</ele><time>2015-10-24T08:39:24Z</time></trkpt><trkpt lat="42.710546" lon="-5.622371"><ele>951.844</ele><time>2015-10-24T08:39:38Z</time></trkpt><trkpt lat="42.710624" lon="-5.622496"><ele>949.467</ele><time>2015-10-24T08:39:51Z</time></trkpt><trkpt lat="42.710641" lon="-5.622528"><ele>949.056</ele><time>2015-10-24T08:39:54Z</time></trkpt><trkpt lat="42.710768" lon="-5.622718"><ele>946.171</ele><time>2015-10-24T08:40:12Z</time></trkpt><trkpt lat="42.710792" lon="-5.622735"><ele>946.142</ele><time>2015-10-24T08:40:14Z</time></trkpt><trkpt lat="42.710837" lon="-5.622815"><ele>945.144</ele><time>2015-10-24T08:40:21Z</time></trkpt><trkpt lat="42.710964" lon="-5.622928"><ele>943.732</ele><time>2015-10-24T08:40:36Z</time></trkpt><trkpt lat="42.711098" lon="-5.623003"><ele>941.323</ele><time>2015-10-24T08:40:50Z</time></trkpt><trkpt lat="42.711231" lon="-5.623104"><ele>939.383</ele><time>2015-10-24T08:41:06Z</time></trkpt><trkpt lat="42.711326" lon="-5.623164"><ele>938.411</ele><time>2015-10-24T08:41:20Z</time></trkpt><trkpt lat="42.711324" lon="-5.623151"><ele>937.908</ele><time>2015-10-24T08:41:36Z</time></trkpt><trkpt lat="42.711308" lon="-5.623135"><ele>938.413</ele><time>2015-10-24T08:42:00Z</time></trkpt><trkpt lat="42.711402" lon="-5.623182"><ele>937.963</ele><time>2015-10-24T08:42:14Z</time></trkpt><trkpt lat="42.711511" lon="-5.623173"><ele>936.936</ele><time>2015-10-24T08:42:26Z</time></trkpt><trkpt lat="42.711671" lon="-5.623087"><ele>935.555</ele><time>2015-10-24T08:42:44Z</time></trkpt><trkpt lat="42.711781" lon="-5.623026"><ele>935.040</ele><time>2015-10-24T08:42:57Z</time></trkpt><trkpt lat="42.711797" lon="-5.623016"><ele>934.521</ele><time>2015-10-24T08:42:59Z</time></trkpt><trkpt lat="42.711893" lon="-5.622899"><ele>933.613</ele><time>2015-10-24T08:43:12Z</time></trkpt><trkpt lat="42.711992" lon="-5.622764"><ele>933.191</ele><time>2015-10-24T08:43:25Z</time></trkpt><trkpt lat="42.712001" lon="-5.622758"><ele>933.142</ele><time>2015-10-24T08:43:26Z</time></trkpt><trkpt lat="42.712024" lon="-5.622803"><ele>932.622</ele><time>2015-10-24T08:43:31Z</time></trkpt><trkpt lat="42.711989" lon="-5.622945"><ele>930.214</ele><time>2015-10-24T08:43:41Z</time></trkpt><trkpt lat="42.711999" lon="-5.623139"><ele>926.808</ele><time>2015-10-24T08:43:56Z</time></trkpt><trkpt lat="42.712001" lon="-5.623150"><ele>926.855</ele><time>2015-10-24T08:43:57Z</time></trkpt><trkpt lat="42.712009" lon="-5.623174"><ele>926.875</ele><time>2015-10-24T08:43:59Z</time></trkpt><trkpt lat="42.712000" lon="-5.623208"><ele>926.458</ele><time>2015-10-24T08:44:02Z</time></trkpt><trkpt lat="42.712044" lon="-5.623427"><ele>924.017</ele><time>2015-10-24T08:44:17Z</time></trkpt><trkpt lat="42.712045" lon="-5.623522"><ele>925.492</ele><time>2015-10-24T08:44:25Z</time></trkpt><trkpt lat="42.712040" lon="-5.623548"><ele>925.483</ele><time>2015-10-24T08:44:27Z</time></trkpt><trkpt lat="42.712080" lon="-5.623707"><ele>925.955</ele><time>2015-10-24T08:44:41Z</time></trkpt><trkpt lat="42.712098" lon="-5.623855"><ele>926.863</ele><time>2015-10-24T08:44:53Z</time></trkpt><trkpt lat="42.712052" lon="-5.624068"><ele>927.394</ele><time>2015-10-24T08:45:08Z</time></trkpt><trkpt lat="42.712063" lon="-5.624247"><ele>927.857</ele><time>2015-10-24T08:45:21Z</time></trkpt><trkpt lat="42.712053" lon="-5.624482"><ele>928.322</ele><time>2015-10-24T08:45:38Z</time></trkpt><trkpt lat="42.712036" lon="-5.624685"><ele>928.808</ele><time>2015-10-24T08:45:51Z</time></trkpt><trkpt lat="42.712031" lon="-5.624758"><ele>928.830</ele><time>2015-10-24T08:45:56Z</time></trkpt><trkpt lat="42.712034" lon="-5.624831"><ele>928.820</ele><time>2015-10-24T08:46:01Z</time></trkpt><trkpt lat="42.712024" lon="-5.624897"><ele>928.843</ele><time>2015-10-24T08:46:06Z</time></trkpt><trkpt lat="42.712013" lon="-5.625098"><ele>927.842</ele><time>2015-10-24T08:46:20Z</time></trkpt><trkpt lat="42.711993" lon="-5.625331"><ele>925.477</ele><time>2015-10-24T08:46:35Z</time></trkpt><trkpt lat="42.712021" lon="-5.625526"><ele>925.918</ele><time>2015-10-24T08:46:49Z</time></trkpt><trkpt lat="42.712142" lon="-5.625682"><ele>925.480</ele><time>2015-10-24T08:47:05Z</time></trkpt><trkpt lat="42.712198" lon="-5.625694"><ele>925.448</ele><time>2015-10-24T08:47:09Z</time></trkpt><trkpt lat="42.712396" lon="-5.625692"><ele>924.947</ele><time>2015-10-24T08:47:26Z</time></trkpt><trkpt lat="42.712419" lon="-5.625696"><ele>924.929</ele><time>2015-10-24T08:47:28Z</time></trkpt><trkpt lat="42.712439" lon="-5.625707"><ele>925.921</ele><time>2015-10-24T08:47:30Z</time></trkpt><trkpt lat="42.712608" lon="-5.625753"><ele>927.308</ele><time>2015-10-24T08:47:47Z</time></trkpt><trkpt lat="42.712800" lon="-5.625756"><ele>927.355</ele><time>2015-10-24T08:48:04Z</time></trkpt><trkpt lat="42.712845" lon="-5.625752"><ele>927.375</ele><time>2015-10-24T08:48:08Z</time></trkpt><trkpt lat="42.713047" lon="-5.625728"><ele>927.848</ele><time>2015-10-24T08:48:26Z</time></trkpt><trkpt lat="42.713219" lon="-5.625720"><ele>928.887</ele><time>2015-10-24T08:48:41Z</time></trkpt><trkpt lat="42.713389" lon="-5.625701"><ele>930.792</ele><time>2015-10-24T08:48:58Z</time></trkpt><trkpt lat="42.713555" lon="-5.625706"><ele>932.173</ele><time>2015-10-24T08:49:15Z</time></trkpt><trkpt lat="42.713745" lon="-5.625730"><ele>932.635</ele><time>2015-10-24T08:49:32Z</time></trkpt><trkpt lat="42.713878" lon="-5.625762"><ele>933.643</ele><time>2015-10-24T08:49:45Z</time></trkpt><trkpt lat="42.713933" lon="-5.625775"><ele>934.523</ele><time>2015-10-24T08:49:51Z</time></trkpt><trkpt lat="42.714111" lon="-5.625779"><ele>935.583</ele><time>2015-10-24T08:50:07Z</time></trkpt><trkpt lat="42.714309" lon="-5.625788"><ele>935.511</ele><time>2015-10-24T08:50:24Z</time></trkpt><trkpt lat="42.714479" lon="-5.625743"><ele>936.008</ele><time>2015-10-24T08:50:39Z</time></trkpt><trkpt lat="42.714623" lon="-5.625676"><ele>936.963</ele><time>2015-10-24T08:50:54Z</time></trkpt><trkpt lat="42.714793" lon="-5.625617"><ele>938.943</ele><time>2015-10-24T08:51:11Z</time></trkpt><trkpt lat="42.714966" lon="-5.625643"><ele>939.386</ele><time>2015-10-24T08:51:26Z</time></trkpt><trkpt lat="42.715022" lon="-5.625656"><ele>939.315</ele><time>2015-10-24T08:51:31Z</time></trkpt><trkpt lat="42.715121" lon="-5.625683"><ele>939.370</ele><time>2015-10-24T08:51:40Z</time></trkpt><trkpt lat="42.715143" lon="-5.625682"><ele>939.351</ele><time>2015-10-24T08:51:42Z</time></trkpt><trkpt lat="42.715315" lon="-5.625678"><ele>939.373</ele><time>2015-10-24T08:51:57Z</time></trkpt><trkpt lat="42.715473" lon="-5.625689"><ele>939.391</ele><time>2015-10-24T08:52:12Z</time></trkpt><trkpt lat="42.715639" lon="-5.625716"><ele>940.829</ele><time>2015-10-24T08:52:27Z</time></trkpt><trkpt lat="42.715794" lon="-5.625709"><ele>941.800</ele><time>2015-10-24T08:52:42Z</time></trkpt><trkpt lat="42.715974" lon="-5.625708"><ele>942.720</ele><time>2015-10-24T08:52:59Z</time></trkpt><trkpt lat="42.716155" lon="-5.625688"><ele>943.708</ele><time>2015-10-24T08:53:15Z</time></trkpt><trkpt lat="42.716318" lon="-5.625644"><ele>944.663</ele><time>2015-10-24T08:53:31Z</time></trkpt><trkpt lat="42.716511" lon="-5.625590"><ele>946.183</ele><time>2015-10-24T08:53:49Z</time></trkpt><trkpt lat="42.716527" lon="-5.625576"><ele>946.156</ele><time>2015-10-24T08:53:51Z</time></trkpt><trkpt lat="42.716648" lon="-5.625443"><ele>947.015</ele><time>2015-10-24T08:54:07Z</time></trkpt><trkpt lat="42.716752" lon="-5.625322"><ele>948.010</ele><time>2015-10-24T08:54:21Z</time></trkpt><trkpt lat="42.716840" lon="-5.625192"><ele>950.431</ele><time>2015-10-24T08:54:36Z</time></trkpt><trkpt lat="42.716923" lon="-5.625037"><ele>952.343</ele><time>2015-10-24T08:54:51Z</time></trkpt><trkpt lat="42.717020" lon="-5.624872"><ele>953.831</ele><time>2015-10-24T08:55:06Z</time></trkpt><trkpt lat="42.717121" lon="-5.624746"><ele>954.271</ele><time>2015-10-24T08:55:17Z</time></trkpt><trkpt lat="42.717256" lon="-5.624742"><ele>954.241</ele><time>2015-10-24T08:55:30Z</time></trkpt><trkpt lat="42.717307" lon="-5.624784"><ele>954.215</ele><time>2015-10-24T08:55:35Z</time></trkpt><trkpt lat="42.717327" lon="-5.624845"><ele>952.308</ele><time>2015-10-24T08:55:40Z</time></trkpt><trkpt lat="42.717345" lon="-5.624998"><ele>950.938</ele><time>2015-10-24T08:55:49Z</time></trkpt><trkpt lat="42.717369" lon="-5.625175"><ele>949.488</ele><time>2015-10-24T08:56:03Z</time></trkpt><trkpt lat="42.717353" lon="-5.625203"><ele>949.081</ele><time>2015-10-24T08:56:21Z</time></trkpt><trkpt lat="42.717358" lon="-5.625208"><ele>949.020</ele><time>2015-10-24T08:56:44Z</time></trkpt><trkpt lat="42.717347" lon="-5.625196"><ele>948.515</ele><time>2015-10-24T08:57:19Z</time></trkpt><trkpt lat="42.717392" lon="-5.625173"><ele>948.586</ele><time>2015-10-24T08:57:30Z</time></trkpt><trkpt lat="42.717434" lon="-5.625305"><ele>948.548</ele><time>2015-10-24T08:57:46Z</time></trkpt><trkpt lat="42.717528" lon="-5.625499"><ele>947.516</ele><time>2015-10-24T08:58:03Z</time></trkpt><trkpt lat="42.717724" lon="-5.625614"><ele>948.061</ele><time>2015-10-24T08:58:20Z</time></trkpt><trkpt lat="42.717904" lon="-5.625678"><ele>948.021</ele><time>2015-10-24T08:58:37Z</time></trkpt><trkpt lat="42.718067" lon="-5.625748"><ele>948.013</ele><time>2015-10-24T08:58:52Z</time></trkpt><trkpt lat="42.718225" lon="-5.625786"><ele>948.008</ele><time>2015-10-24T08:59:06Z</time></trkpt><trkpt lat="42.718402" lon="-5.625831"><ele>948.017</ele><time>2015-10-24T08:59:24Z</time></trkpt><trkpt lat="42.718458" lon="-5.625840"><ele>948.047</ele><time>2015-10-24T08:59:41Z</time></trkpt><trkpt lat="42.718596" lon="-5.625808"><ele>949.080</ele><time>2015-10-24T08:59:58Z</time></trkpt><trkpt lat="42.718642" lon="-5.625777"><ele>949.099</ele><time>2015-10-24T09:00:04Z</time></trkpt><trkpt lat="42.718779" lon="-5.625759"><ele>949.494</ele><time>2015-10-24T09:00:19Z</time></trkpt><trkpt lat="42.718865" lon="-5.625779"><ele>948.525</ele><time>2015-10-24T09:00:36Z</time></trkpt><trkpt lat="42.718878" lon="-5.625803"><ele>948.547</ele><time>2015-10-24T09:00:50Z</time></trkpt><trkpt lat="42.718861" lon="-5.625792"><ele>948.525</ele><time>2015-10-24T09:01:11Z</time></trkpt><trkpt lat="42.718875" lon="-5.625809"><ele>948.054</ele><time>2015-10-24T09:01:30Z</time></trkpt><trkpt lat="42.718906" lon="-5.625801"><ele>948.056</ele><time>2015-10-24T09:01:46Z</time></trkpt><trkpt lat="42.718918" lon="-5.625815"><ele>948.011</ele><time>2015-10-24T09:02:14Z</time></trkpt><trkpt lat="42.719016" lon="-5.625782"><ele>947.008</ele><time>2015-10-24T09:02:31Z</time></trkpt><trkpt lat="42.719042" lon="-5.625791"><ele>947.016</ele><time>2015-10-24T09:02:34Z</time></trkpt><trkpt lat="42.719195" lon="-5.625864"><ele>946.176</ele><time>2015-10-24T09:02:50Z</time></trkpt><trkpt lat="42.719332" lon="-5.625889"><ele>945.699</ele><time>2015-10-24T09:03:05Z</time></trkpt><trkpt lat="42.719350" lon="-5.625886"><ele>945.178</ele><time>2015-10-24T09:03:07Z</time></trkpt><trkpt lat="42.719500" lon="-5.625872"><ele>943.273</ele><time>2015-10-24T09:03:23Z</time></trkpt><trkpt lat="42.719644" lon="-5.625889"><ele>942.794</ele><time>2015-10-24T09:03:37Z</time></trkpt><trkpt lat="42.719696" lon="-5.625911"><ele>942.736</ele><time>2015-10-24T09:03:50Z</time></trkpt><trkpt lat="42.719789" lon="-5.625909"><ele>944.264</ele><time>2015-10-24T09:04:02Z</time></trkpt><trkpt lat="42.719926" lon="-5.625911"><ele>946.121</ele><time>2015-10-24T09:04:19Z</time></trkpt><trkpt lat="42.720066" lon="-5.625916"><ele>948.041</ele><time>2015-10-24T09:04:35Z</time></trkpt><trkpt lat="42.720194" lon="-5.625942"><ele>949.005</ele><time>2015-10-24T09:04:50Z</time></trkpt><trkpt lat="42.720350" lon="-5.625969"><ele>949.908</ele><time>2015-10-24T09:05:05Z</time></trkpt><trkpt lat="42.720456" lon="-5.626001"><ele>950.923</ele><time>2015-10-24T09:05:20Z</time></trkpt><trkpt lat="42.720560" lon="-5.626013"><ele>952.343</ele><time>2015-10-24T09:05:33Z</time></trkpt><trkpt lat="42.720663" lon="-5.626018"><ele>952.396</ele><time>2015-10-24T09:05:42Z</time></trkpt><trkpt lat="42.720869" lon="-5.626001"><ele>953.385</ele><time>2015-10-24T09:06:00Z</time></trkpt><trkpt lat="42.720929" lon="-5.625974"><ele>953.870</ele><time>2015-10-24T09:06:06Z</time></trkpt><trkpt lat="42.721025" lon="-5.625922"><ele>954.281</ele><time>2015-10-24T09:06:15Z</time></trkpt><trkpt lat="42.721089" lon="-5.625890"><ele>954.263</ele><time>2015-10-24T09:06:21Z</time></trkpt><trkpt lat="42.721251" lon="-5.625776"><ele>955.221</ele><time>2015-10-24T09:06:38Z</time></trkpt><trkpt lat="42.721408" lon="-5.625699"><ele>957.118</ele><time>2015-10-24T09:06:54Z</time></trkpt><trkpt lat="42.721536" lon="-5.625607"><ele>959.098</ele><time>2015-10-24T09:07:09Z</time></trkpt><trkpt lat="42.721585" lon="-5.625538"><ele>959.517</ele><time>2015-10-24T09:07:17Z</time></trkpt><trkpt lat="42.721610" lon="-5.625345"><ele>960.508</ele><time>2015-10-24T09:07:33Z</time></trkpt><trkpt lat="42.721612" lon="-5.625137"><ele>960.552</ele><time>2015-10-24T09:07:48Z</time></trkpt><trkpt lat="42.721611" lon="-5.625122"><ele>960.582</ele><time>2015-10-24T09:07:49Z</time></trkpt><trkpt lat="42.721568" lon="-5.624870"><ele>961.545</ele><time>2015-10-24T09:08:07Z</time></trkpt><trkpt lat="42.721560" lon="-5.624699"><ele>961.514</ele><time>2015-10-24T09:08:19Z</time></trkpt><trkpt lat="42.721544" lon="-5.624447"><ele>961.599</ele><time>2015-10-24T09:08:35Z</time></trkpt><trkpt lat="42.721538" lon="-5.624221"><ele>958.680</ele><time>2015-10-24T09:08:50Z</time></trkpt><trkpt lat="42.721562" lon="-5.623993"><ele>956.252</ele><time>2015-10-24T09:09:06Z</time></trkpt><trkpt lat="42.721632" lon="-5.624024"><ele>955.780</ele><time>2015-10-24T09:09:15Z</time></trkpt><trkpt lat="42.721618" lon="-5.624071"><ele>955.265</ele><time>2015-10-24T09:09:18Z</time></trkpt><trkpt lat="42.721618" lon="-5.624158"><ele>955.268</ele><time>2015-10-24T09:09:24Z</time></trkpt><trkpt lat="42.721721" lon="-5.624353"><ele>954.214</ele><time>2015-10-24T09:09:39Z</time></trkpt><trkpt lat="42.721732" lon="-5.624389"><ele>954.208</ele><time>2015-10-24T09:09:42Z</time></trkpt><trkpt lat="42.721801" lon="-5.624629"><ele>952.857</ele><time>2015-10-24T09:09:58Z</time></trkpt><trkpt lat="42.721862" lon="-5.624811"><ele>950.917</ele><time>2015-10-24T09:10:11Z</time></trkpt><trkpt lat="42.721935" lon="-5.625000"><ele>948.560</ele><time>2015-10-24T09:10:26Z</time></trkpt><trkpt lat="42.721995" lon="-5.625159"><ele>945.129</ele><time>2015-10-24T09:10:39Z</time></trkpt><trkpt lat="42.722058" lon="-5.625349"><ele>942.744</ele><time>2015-10-24T09:10:53Z</time></trkpt><trkpt lat="42.722076" lon="-5.625405"><ele>941.895</ele><time>2015-10-24T09:10:58Z</time></trkpt><trkpt lat="42.722088" lon="-5.625429"><ele>941.337</ele><time>2015-10-24T09:11:00Z</time></trkpt><trkpt lat="42.722154" lon="-5.625611"><ele>938.925</ele><time>2015-10-24T09:11:14Z</time></trkpt><trkpt lat="42.722202" lon="-5.625767"><ele>936.967</ele><time>2015-10-24T09:11:24Z</time></trkpt><trkpt lat="42.722236" lon="-5.626020"><ele>934.581</ele><time>2015-10-24T09:11:41Z</time></trkpt><trkpt lat="42.722245" lon="-5.626042"><ele>934.519</ele><time>2015-10-24T09:11:43Z</time></trkpt><trkpt lat="42.722284" lon="-5.626101"><ele>933.608</ele><time>2015-10-24T09:11:48Z</time></trkpt><trkpt lat="42.722295" lon="-5.626141"><ele>933.667</ele><time>2015-10-24T09:11:51Z</time></trkpt><trkpt lat="42.722363" lon="-5.626359"><ele>930.727</ele><time>2015-10-24T09:12:07Z</time></trkpt><trkpt lat="42.722375" lon="-5.626499"><ele>928.820</ele><time>2015-10-24T09:12:18Z</time></trkpt><trkpt lat="42.722398" lon="-5.626688"><ele>926.839</ele><time>2015-10-24T09:12:31Z</time></trkpt><trkpt lat="42.722434" lon="-5.626927"><ele>924.984</ele><time>2015-10-24T09:12:46Z</time></trkpt><trkpt lat="42.722439" lon="-5.626970"><ele>924.995</ele><time>2015-10-24T09:12:49Z</time></trkpt><trkpt lat="42.722495" lon="-5.627218"><ele>924.997</ele><time>2015-10-24T09:13:05Z</time></trkpt><trkpt lat="42.722558" lon="-5.627447"><ele>924.515</ele><time>2015-10-24T09:13:21Z</time></trkpt><trkpt lat="42.722564" lon="-5.627474"><ele>924.567</ele><time>2015-10-24T09:13:23Z</time></trkpt><trkpt lat="42.722616" lon="-5.627770"><ele>924.581</ele><time>2015-10-24T09:13:42Z</time></trkpt><trkpt lat="42.722666" lon="-5.628017"><ele>923.019</ele><time>2015-10-24T09:14:00Z</time></trkpt><trkpt lat="42.722682" lon="-5.628241"><ele>920.608</ele><time>2015-10-24T09:14:15Z</time></trkpt><trkpt lat="42.722685" lon="-5.628436"><ele>919.227</ele><time>2015-10-24T09:14:28Z</time></trkpt><trkpt lat="42.722686" lon="-5.628643"><ele>917.227</ele><time>2015-10-24T09:14:42Z</time></trkpt><trkpt lat="42.722663" lon="-5.628884"><ele>915.370</ele><time>2015-10-24T09:14:58Z</time></trkpt><trkpt lat="42.722687" lon="-5.629034"><ele>913.949</ele><time>2015-10-24T09:15:10Z</time></trkpt><trkpt lat="42.722711" lon="-5.629070"><ele>913.994</ele><time>2015-10-24T09:15:14Z</time></trkpt><trkpt lat="42.722768" lon="-5.629129"><ele>912.445</ele><time>2015-10-24T09:15:22Z</time></trkpt><trkpt lat="42.722945" lon="-5.629170"><ele>910.587</ele><time>2015-10-24T09:15:39Z</time></trkpt><trkpt lat="42.723137" lon="-5.629226"><ele>908.675</ele><time>2015-10-24T09:15:56Z</time></trkpt><trkpt lat="42.723187" lon="-5.629315"><ele>907.668</ele><time>2015-10-24T09:16:04Z</time></trkpt><trkpt lat="42.723204" lon="-5.629405"><ele>907.142</ele><time>2015-10-24T09:16:10Z</time></trkpt><trkpt lat="42.723258" lon="-5.629628"><ele>905.226</ele><time>2015-10-24T09:16:25Z</time></trkpt><trkpt lat="42.723302" lon="-5.629742"><ele>905.208</ele><time>2015-10-24T09:16:33Z</time></trkpt><trkpt lat="42.723458" lon="-5.629872"><ele>903.847</ele><time>2015-10-24T09:16:50Z</time></trkpt><trkpt lat="42.723644" lon="-5.629848"><ele>903.847</ele><time>2015-10-24T09:17:08Z</time></trkpt><trkpt lat="42.723790" lon="-5.629755"><ele>903.890</ele><time>2015-10-24T09:17:23Z</time></trkpt><trkpt lat="42.723922" lon="-5.629680"><ele>903.849</ele><time>2015-10-24T09:17:36Z</time></trkpt><trkpt lat="42.723943" lon="-5.629670"><ele>903.884</ele><time>2015-10-24T09:17:38Z</time></trkpt><trkpt lat="42.724050" lon="-5.629606"><ele>903.885</ele><time>2015-10-24T09:17:54Z</time></trkpt><trkpt lat="42.724159" lon="-5.629558"><ele>903.367</ele><time>2015-10-24T09:18:08Z</time></trkpt><trkpt lat="42.724156" lon="-5.629547"><ele>903.365</ele><time>2015-10-24T09:18:31Z</time></trkpt><trkpt lat="42.724189" lon="-5.629534"><ele>902.872</ele><time>2015-10-24T09:18:55Z</time></trkpt><trkpt lat="42.724240" lon="-5.629527"><ele>902.813</ele><time>2015-10-24T09:19:01Z</time></trkpt><trkpt lat="42.724367" lon="-5.629588"><ele>902.814</ele><time>2015-10-24T09:19:16Z</time></trkpt><trkpt lat="42.724513" lon="-5.629619"><ele>902.808</ele><time>2015-10-24T09:19:32Z</time></trkpt><trkpt lat="42.724549" lon="-5.629635"><ele>902.878</ele><time>2015-10-24T09:19:36Z</time></trkpt><trkpt lat="42.724682" lon="-5.629718"><ele>902.828</ele><time>2015-10-24T09:19:50Z</time></trkpt><trkpt lat="42.724834" lon="-5.629796"><ele>902.821</ele><time>2015-10-24T09:20:06Z</time></trkpt><trkpt lat="42.724961" lon="-5.629895"><ele>902.860</ele><time>2015-10-24T09:20:20Z</time></trkpt><trkpt lat="42.725099" lon="-5.630016"><ele>902.885</ele><time>2015-10-24T09:20:35Z</time></trkpt><trkpt lat="42.725251" lon="-5.630162"><ele>902.826</ele><time>2015-10-24T09:20:51Z</time></trkpt><trkpt lat="42.725399" lon="-5.630321"><ele>902.818</ele><time>2015-10-24T09:21:08Z</time></trkpt><trkpt lat="42.725477" lon="-5.630466"><ele>904.366</ele><time>2015-10-24T09:21:21Z</time></trkpt><trkpt lat="42.725533" lon="-5.630564"><ele>904.317</ele><time>2015-10-24T09:21:30Z</time></trkpt><trkpt lat="42.725575" lon="-5.630608"><ele>902.887</ele><time>2015-10-24T09:21:35Z</time></trkpt><trkpt lat="42.725602" lon="-5.630635"><ele>902.315</ele><time>2015-10-24T09:21:38Z</time></trkpt><trkpt lat="42.725743" lon="-5.630803"><ele>902.808</ele><time>2015-10-24T09:21:55Z</time></trkpt><trkpt lat="42.725875" lon="-5.630944"><ele>902.892</ele><time>2015-10-24T09:22:10Z</time></trkpt><trkpt lat="42.726031" lon="-5.631089"><ele>902.842</ele><time>2015-10-24T09:22:27Z</time></trkpt><trkpt lat="42.726232" lon="-5.631164"><ele>902.815</ele><time>2015-10-24T09:22:44Z</time></trkpt><trkpt lat="42.726414" lon="-5.631230"><ele>902.814</ele><time>2015-10-24T09:23:00Z</time></trkpt><trkpt lat="42.726601" lon="-5.631298"><ele>902.849</ele><time>2015-10-24T09:23:16Z</time></trkpt><trkpt lat="42.726767" lon="-5.631387"><ele>902.890</ele><time>2015-10-24T09:23:32Z</time></trkpt><trkpt lat="42.726938" lon="-5.631482"><ele>902.862</ele><time>2015-10-24T09:23:48Z</time></trkpt><trkpt lat="42.727100" lon="-5.631547"><ele>902.810</ele><time>2015-10-24T09:24:02Z</time></trkpt><trkpt lat="42.727271" lon="-5.631654"><ele>901.894</ele><time>2015-10-24T09:24:18Z</time></trkpt><trkpt lat="42.727427" lon="-5.631730"><ele>901.857</ele><time>2015-10-24T09:24:32Z</time></trkpt><trkpt lat="42.727621" lon="-5.631802"><ele>901.822</ele><time>2015-10-24T09:24:49Z</time></trkpt><trkpt lat="42.727800" lon="-5.631884"><ele>901.808</ele><time>2015-10-24T09:25:06Z</time></trkpt><trkpt lat="42.727997" lon="-5.632010"><ele>902.840</ele><time>2015-10-24T09:25:23Z</time></trkpt><trkpt lat="42.728171" lon="-5.632068"><ele>903.390</ele><time>2015-10-24T09:25:40Z</time></trkpt><trkpt lat="42.728232" lon="-5.632077"><ele>903.353</ele><time>2015-10-24T09:25:46Z</time></trkpt><trkpt lat="42.728380" lon="-5.632053"><ele>904.322</ele><time>2015-10-24T09:26:00Z</time></trkpt><trkpt lat="42.728476" lon="-5.632014"><ele>904.737</ele><time>2015-10-24T09:26:14Z</time></trkpt><trkpt lat="42.728544" lon="-5.632034"><ele>904.758</ele><time>2015-10-24T09:26:28Z</time></trkpt><trkpt lat="42.728542" lon="-5.632005"><ele>904.780</ele><time>2015-10-24T09:26:48Z</time></trkpt><trkpt lat="42.728575" lon="-5.632103"><ele>904.718</ele><time>2015-10-24T09:27:04Z</time></trkpt><trkpt lat="42.728619" lon="-5.632148"><ele>905.275</ele><time>2015-10-24T09:27:10Z</time></trkpt><trkpt lat="42.728631" lon="-5.632202"><ele>905.228</ele><time>2015-10-24T09:27:14Z</time></trkpt><trkpt lat="42.728643" lon="-5.632443"><ele>906.220</ele><time>2015-10-24T09:27:31Z</time></trkpt><trkpt lat="42.728668" lon="-5.632591"><ele>906.708</ele><time>2015-10-24T09:27:47Z</time></trkpt><trkpt lat="42.728693" lon="-5.632587"><ele>906.778</ele><time>2015-10-24T09:28:04Z</time></trkpt><trkpt lat="42.728696" lon="-5.632576"><ele>906.718</ele><time>2015-10-24T09:28:05Z</time></trkpt><trkpt lat="42.728745" lon="-5.632494"><ele>906.741</ele><time>2015-10-24T09:28:12Z</time></trkpt><trkpt lat="42.728763" lon="-5.632481"><ele>906.720</ele><time>2015-10-24T09:28:14Z</time></trkpt><trkpt lat="42.728822" lon="-5.632372"><ele>906.755</ele><time>2015-10-24T09:28:23Z</time></trkpt><trkpt lat="42.728862" lon="-5.632342"><ele>906.746</ele><time>2015-10-24T09:28:28Z</time></trkpt><trkpt lat="42.729009" lon="-5.632257"><ele>907.148</ele><time>2015-10-24T09:28:42Z</time></trkpt><trkpt lat="42.729157" lon="-5.632260"><ele>908.196</ele><time>2015-10-24T09:28:57Z</time></trkpt><trkpt lat="42.729334" lon="-5.632251"><ele>908.113</ele><time>2015-10-24T09:29:13Z</time></trkpt><trkpt lat="42.729480" lon="-5.632249"><ele>908.143</ele><time>2015-10-24T09:29:27Z</time></trkpt><trkpt lat="42.729677" lon="-5.632264"><ele>908.107</ele><time>2015-10-24T09:29:44Z</time></trkpt><trkpt lat="42.729852" lon="-5.632255"><ele>906.708</ele><time>2015-10-24T09:30:01Z</time></trkpt><trkpt lat="42.729987" lon="-5.632247"><ele>906.752</ele><time>2015-10-24T09:30:13Z</time></trkpt><trkpt lat="42.730137" lon="-5.632210"><ele>906.742</ele><time>2015-10-24T09:30:27Z</time></trkpt><trkpt lat="42.730273" lon="-5.632173"><ele>906.755</ele><time>2015-10-24T09:30:41Z</time></trkpt><trkpt lat="42.730423" lon="-5.632111"><ele>906.234</ele><time>2015-10-24T09:30:56Z</time></trkpt><trkpt lat="42.730533" lon="-5.632081"><ele>906.749</ele><time>2015-10-24T09:31:06Z</time></trkpt><trkpt lat="42.730692" lon="-5.632053"><ele>906.260</ele><time>2015-10-24T09:31:21Z</time></trkpt><trkpt lat="42.730861" lon="-5.632010"><ele>906.732</ele><time>2015-10-24T09:31:36Z</time></trkpt><trkpt lat="42.731052" lon="-5.631938"><ele>906.720</ele><time>2015-10-24T09:31:54Z</time></trkpt><trkpt lat="42.731074" lon="-5.631927"><ele>906.787</ele><time>2015-10-24T09:31:56Z</time></trkpt><trkpt lat="42.731173" lon="-5.631894"><ele>906.742</ele><time>2015-10-24T09:32:05Z</time></trkpt><trkpt lat="42.731362" lon="-5.631810"><ele>906.726</ele><time>2015-10-24T09:32:22Z</time></trkpt><trkpt lat="42.731521" lon="-5.631795"><ele>906.708</ele><time>2015-10-24T09:32:37Z</time></trkpt><trkpt lat="42.731682" lon="-5.631793"><ele>906.729</ele><time>2015-10-24T09:32:52Z</time></trkpt><trkpt lat="42.731831" lon="-5.631808"><ele>906.759</ele><time>2015-10-24T09:33:06Z</time></trkpt><trkpt lat="42.732006" lon="-5.631820"><ele>906.762</ele><time>2015-10-24T09:33:23Z</time></trkpt><trkpt lat="42.732154" lon="-5.631827"><ele>906.761</ele><time>2015-10-24T09:33:38Z</time></trkpt><trkpt lat="42.732299" lon="-5.631840"><ele>906.796</ele><time>2015-10-24T09:33:52Z</time></trkpt><trkpt lat="42.732435" lon="-5.631853"><ele>906.757</ele><time>2015-10-24T09:34:04Z</time></trkpt><trkpt lat="42.732485" lon="-5.631842"><ele>906.729</ele><time>2015-10-24T09:34:09Z</time></trkpt><trkpt lat="42.732674" lon="-5.631827"><ele>906.757</ele><time>2015-10-24T09:34:29Z</time></trkpt><trkpt lat="42.732849" lon="-5.631859"><ele>906.749</ele><time>2015-10-24T09:34:45Z</time></trkpt><trkpt lat="42.733015" lon="-5.631891"><ele>908.102</ele><time>2015-10-24T09:35:01Z</time></trkpt><trkpt lat="42.733025" lon="-5.631892"><ele>908.122</ele><time>2015-10-24T09:35:02Z</time></trkpt><trkpt lat="42.733210" lon="-5.631892"><ele>908.608</ele><time>2015-10-24T09:35:19Z</time></trkpt><trkpt lat="42.733380" lon="-5.631912"><ele>909.575</ele><time>2015-10-24T09:35:35Z</time></trkpt><trkpt lat="42.733565" lon="-5.631969"><ele>910.065</ele><time>2015-10-24T09:35:52Z</time></trkpt><trkpt lat="42.733721" lon="-5.632008"><ele>911.038</ele><time>2015-10-24T09:36:08Z</time></trkpt><trkpt lat="42.733845" lon="-5.632020"><ele>912.037</ele><time>2015-10-24T09:36:23Z</time></trkpt><trkpt lat="42.733923" lon="-5.631910"><ele>912.992</ele><time>2015-10-24T09:36:38Z</time></trkpt><trkpt lat="42.733929" lon="-5.631899"><ele>913.453</ele><time>2015-10-24T09:36:39Z</time></trkpt><trkpt lat="42.734016" lon="-5.631824"><ele>914.875</ele><time>2015-10-24T09:36:53Z</time></trkpt><trkpt lat="42.734060" lon="-5.631764"><ele>915.873</ele><time>2015-10-24T09:37:00Z</time></trkpt><trkpt lat="42.734129" lon="-5.631574"><ele>916.356</ele><time>2015-10-24T09:37:16Z</time></trkpt><trkpt lat="42.734252" lon="-5.631447"><ele>916.859</ele><time>2015-10-24T09:37:31Z</time></trkpt><trkpt lat="42.734405" lon="-5.631416"><ele>916.814</ele><time>2015-10-24T09:37:45Z</time></trkpt><trkpt lat="42.734598" lon="-5.631425"><ele>915.308</ele><time>2015-10-24T09:38:01Z</time></trkpt><trkpt lat="42.734759" lon="-5.631432"><ele>915.316</ele><time>2015-10-24T09:38:16Z</time></trkpt><trkpt lat="42.734910" lon="-5.631435"><ele>915.336</ele><time>2015-10-24T09:38:30Z</time></trkpt><trkpt lat="42.734931" lon="-5.631433"><ele>916.889</ele><time>2015-10-24T09:38:32Z</time></trkpt><trkpt lat="42.735078" lon="-5.631437"><ele>916.858</ele><time>2015-10-24T09:38:45Z</time></trkpt><trkpt lat="42.735101" lon="-5.631448"><ele>917.263</ele><time>2015-10-24T09:38:47Z</time></trkpt><trkpt lat="42.735273" lon="-5.631456"><ele>917.214</ele><time>2015-10-24T09:39:04Z</time></trkpt><trkpt lat="42.735447" lon="-5.631468"><ele>917.226</ele><time>2015-10-24T09:39:20Z</time></trkpt><trkpt lat="42.735617" lon="-5.631466"><ele>917.294</ele><time>2015-10-24T09:39:36Z</time></trkpt><trkpt lat="42.735783" lon="-5.631485"><ele>917.728</ele><time>2015-10-24T09:39:51Z</time></trkpt><trkpt lat="42.735974" lon="-5.631505"><ele>917.789</ele><time>2015-10-24T09:40:08Z</time></trkpt><trkpt lat="42.736110" lon="-5.631464"><ele>918.217</ele><time>2015-10-24T09:40:22Z</time></trkpt><trkpt lat="42.736282" lon="-5.631453"><ele>918.208</ele><time>2015-10-24T09:40:39Z</time></trkpt><trkpt lat="42.736483" lon="-5.631504"><ele>918.253</ele><time>2015-10-24T09:40:56Z</time></trkpt><trkpt lat="42.736663" lon="-5.631522"><ele>918.293</ele><time>2015-10-24T09:41:13Z</time></trkpt><trkpt lat="42.736695" lon="-5.631531"><ele>916.866</ele><time>2015-10-24T09:41:16Z</time></trkpt><trkpt lat="42.736824" lon="-5.631553"><ele>916.895</ele><time>2015-10-24T09:41:29Z</time></trkpt><trkpt lat="42.736961" lon="-5.631592"><ele>916.840</ele><time>2015-10-24T09:41:43Z</time></trkpt><trkpt lat="42.737133" lon="-5.631645"><ele>915.311</ele><time>2015-10-24T09:42:00Z</time></trkpt><trkpt lat="42.737287" lon="-5.631715"><ele>914.893</ele><time>2015-10-24T09:42:15Z</time></trkpt><trkpt lat="42.737398" lon="-5.631794"><ele>914.831</ele><time>2015-10-24T09:42:27Z</time></trkpt><trkpt lat="42.737501" lon="-5.631853"><ele>914.874</ele><time>2015-10-24T09:42:37Z</time></trkpt><trkpt lat="42.737671" lon="-5.631878"><ele>914.856</ele><time>2015-10-24T09:42:54Z</time></trkpt><trkpt lat="42.737819" lon="-5.631924"><ele>916.321</ele><time>2015-10-24T09:43:09Z</time></trkpt><trkpt lat="42.737965" lon="-5.631949"><ele>916.808</ele><time>2015-10-24T09:43:24Z</time></trkpt><trkpt lat="42.738153" lon="-5.632022"><ele>918.228</ele><time>2015-10-24T09:43:43Z</time></trkpt><trkpt lat="42.738224" lon="-5.632040"><ele>918.228</ele><time>2015-10-24T09:43:51Z</time></trkpt><trkpt lat="42.738399" lon="-5.632113"><ele>918.711</ele><time>2015-10-24T09:44:07Z</time></trkpt><trkpt lat="42.738451" lon="-5.632119"><ele>918.770</ele><time>2015-10-24T09:44:12Z</time></trkpt><trkpt lat="42.738530" lon="-5.632115"><ele>918.745</ele><time>2015-10-24T09:44:20Z</time></trkpt><trkpt lat="42.738700" lon="-5.632115"><ele>918.716</ele><time>2015-10-24T09:44:34Z</time></trkpt><trkpt lat="42.738723" lon="-5.632116"><ele>917.278</ele><time>2015-10-24T09:44:37Z</time></trkpt><trkpt lat="42.738845" lon="-5.632124"><ele>917.246</ele><time>2015-10-24T09:44:50Z</time></trkpt><trkpt lat="42.738869" lon="-5.632123"><ele>917.228</ele><time>2015-10-24T09:45:01Z</time></trkpt><trkpt lat="42.738889" lon="-5.632186"><ele>917.289</ele><time>2015-10-24T09:45:06Z</time></trkpt><trkpt lat="42.738915" lon="-5.632404"><ele>916.317</ele><time>2015-10-24T09:45:21Z</time></trkpt><trkpt lat="42.738954" lon="-5.632436"><ele>915.808</ele><time>2015-10-24T09:45:27Z</time></trkpt><trkpt lat="42.739086" lon="-5.632427"><ele>914.333</ele><time>2015-10-24T09:45:40Z</time></trkpt><trkpt lat="42.739253" lon="-5.632377"><ele>913.453</ele><time>2015-10-24T09:45:57Z</time></trkpt><trkpt lat="42.739352" lon="-5.632352"><ele>912.986</ele><time>2015-10-24T09:46:10Z</time></trkpt><trkpt lat="42.739373" lon="-5.632409"><ele>912.915</ele><time>2015-10-24T09:46:38Z</time></trkpt><trkpt lat="42.739361" lon="-5.632395"><ele>912.910</ele><time>2015-10-24T09:46:58Z</time></trkpt><trkpt lat="42.739475" lon="-5.632376"><ele>912.981</ele><time>2015-10-24T09:47:14Z</time></trkpt><trkpt lat="42.739472" lon="-5.632425"><ele>912.913</ele><time>2015-10-24T09:47:32Z</time></trkpt><trkpt lat="42.739494" lon="-5.632440"><ele>912.941</ele><time>2015-10-24T09:47:50Z</time></trkpt><trkpt lat="42.739644" lon="-5.632427"><ele>912.938</ele><time>2015-10-24T09:48:02Z</time></trkpt><trkpt lat="42.739773" lon="-5.632417"><ele>912.970</ele><time>2015-10-24T09:48:17Z</time></trkpt><trkpt lat="42.739884" lon="-5.632407"><ele>912.917</ele><time>2015-10-24T09:48:30Z</time></trkpt><trkpt lat="42.739982" lon="-5.632406"><ele>912.908</ele><time>2015-10-24T09:48:44Z</time></trkpt><trkpt lat="42.739960" lon="-5.632368"><ele>912.974</ele><time>2015-10-24T09:49:11Z</time></trkpt><trkpt lat="42.740027" lon="-5.632396"><ele>912.914</ele><time>2015-10-24T09:49:40Z</time></trkpt><trkpt lat="42.740097" lon="-5.632378"><ele>913.467</ele><time>2015-10-24T09:50:20Z</time></trkpt><trkpt lat="42.740063" lon="-5.632418"><ele>913.436</ele><time>2015-10-24T09:50:40Z</time></trkpt><trkpt lat="42.739993" lon="-5.632436"><ele>913.461</ele><time>2015-10-24T09:51:01Z</time></trkpt><trkpt lat="42.740045" lon="-5.632445"><ele>913.952</ele><time>2015-10-24T09:51:17Z</time></trkpt><trkpt lat="42.740158" lon="-5.632409"><ele>913.954</ele><time>2015-10-24T09:51:30Z</time></trkpt><trkpt lat="42.740287" lon="-5.632399"><ele>913.912</ele><time>2015-10-24T09:51:44Z</time></trkpt><trkpt lat="42.740350" lon="-5.632470"><ele>913.935</ele><time>2015-10-24T09:52:03Z</time></trkpt><trkpt lat="42.740395" lon="-5.632442"><ele>913.986</ele><time>2015-10-24T09:52:21Z</time></trkpt><trkpt lat="42.740418" lon="-5.632455"><ele>913.914</ele><time>2015-10-24T09:52:39Z</time></trkpt><trkpt lat="42.740463" lon="-5.632451"><ele>913.908</ele><time>2015-10-24T09:53:05Z</time></trkpt><trkpt lat="42.740465" lon="-5.632516"><ele>913.984</ele><time>2015-10-24T09:53:33Z</time></trkpt><trkpt lat="42.740461" lon="-5.632562"><ele>913.954</ele><time>2015-10-24T09:54:08Z</time></trkpt><trkpt lat="42.740457" lon="-5.632529"><ele>914.357</ele><time>2015-10-24T09:54:18Z</time></trkpt><trkpt lat="42.740603" lon="-5.632477"><ele>914.366</ele><time>2015-10-24T09:54:32Z</time></trkpt><trkpt lat="42.740789" lon="-5.632498"><ele>914.311</ele><time>2015-10-24T09:54:49Z</time></trkpt><trkpt lat="42.740856" lon="-5.632525"><ele>915.312</ele><time>2015-10-24T09:54:55Z</time></trkpt><trkpt lat="42.740940" lon="-5.632604"><ele>915.314</ele><time>2015-10-24T09:55:09Z</time></trkpt><trkpt lat="42.741010" lon="-5.632591"><ele>915.392</ele><time>2015-10-24T09:55:29Z</time></trkpt><trkpt lat="42.741114" lon="-5.632601"><ele>915.341</ele><time>2015-10-24T09:55:42Z</time></trkpt><trkpt lat="42.741203" lon="-5.632622"><ele>915.381</ele><time>2015-10-24T09:55:56Z</time></trkpt><trkpt lat="42.741239" lon="-5.632616"><ele>915.309</ele><time>2015-10-24T09:56:00Z</time></trkpt><trkpt lat="42.741331" lon="-5.632638"><ele>915.308</ele><time>2015-10-24T09:56:15Z</time></trkpt><trkpt lat="42.741350" lon="-5.632678"><ele>915.315</ele><time>2015-10-24T09:56:42Z</time></trkpt><trkpt lat="42.741540" lon="-5.632630"><ele>916.385</ele><time>2015-10-24T09:56:59Z</time></trkpt><trkpt lat="42.741694" lon="-5.632637"><ele>916.858</ele><time>2015-10-24T09:57:12Z</time></trkpt><trkpt lat="42.741877" lon="-5.632643"><ele>916.877</ele><time>2015-10-24T09:57:27Z</time></trkpt><trkpt lat="42.741931" lon="-5.632675"><ele>916.812</ele><time>2015-10-24T09:57:33Z</time></trkpt><trkpt lat="42.742126" lon="-5.632757"><ele>914.833</ele><time>2015-10-24T09:57:50Z</time></trkpt><trkpt lat="42.742272" lon="-5.632793"><ele>914.885</ele><time>2015-10-24T09:58:02Z</time></trkpt><trkpt lat="42.742459" lon="-5.632819"><ele>915.313</ele><time>2015-10-24T09:58:18Z</time></trkpt><trkpt lat="42.742495" lon="-5.632822"><ele>915.384</ele><time>2015-10-24T09:58:22Z</time></trkpt><trkpt lat="42.742516" lon="-5.632826"><ele>916.307</ele><time>2015-10-24T09:58:24Z</time></trkpt><trkpt lat="42.742733" lon="-5.632854"><ele>916.317</ele><time>2015-10-24T09:58:41Z</time></trkpt><trkpt lat="42.742884" lon="-5.632867"><ele>916.308</ele><time>2015-10-24T09:58:54Z</time></trkpt><trkpt lat="42.742963" lon="-5.632869"><ele>916.329</ele><time>2015-10-24T09:59:01Z</time></trkpt><trkpt lat="42.743113" lon="-5.632858"><ele>916.899</ele><time>2015-10-24T09:59:16Z</time></trkpt><trkpt lat="42.743144" lon="-5.632864"><ele>917.232</ele><time>2015-10-24T09:59:19Z</time></trkpt><trkpt lat="42.743187" lon="-5.632868"><ele>917.211</ele><time>2015-10-24T09:59:23Z</time></trkpt><trkpt lat="42.743333" lon="-5.632856"><ele>918.226</ele><time>2015-10-24T09:59:37Z</time></trkpt><trkpt lat="42.743460" lon="-5.632853"><ele>919.657</ele><time>2015-10-24T09:59:51Z</time></trkpt><trkpt lat="42.743534" lon="-5.632836"><ele>921.199</ele><time>2015-10-24T09:59:58Z</time></trkpt><trkpt lat="42.743678" lon="-5.632844"><ele>922.547</ele><time>2015-10-24T10:00:13Z</time></trkpt><trkpt lat="42.743840" lon="-5.632808"><ele>924.536</ele><time>2015-10-24T10:00:30Z</time></trkpt><trkpt lat="42.743978" lon="-5.632788"><ele>926.417</ele><time>2015-10-24T10:00:45Z</time></trkpt><trkpt lat="42.744032" lon="-5.632771"><ele>926.818</ele><time>2015-10-24T10:00:51Z</time></trkpt><trkpt lat="42.744170" lon="-5.632710"><ele>928.308</ele><time>2015-10-24T10:01:06Z</time></trkpt><trkpt lat="42.744317" lon="-5.632677"><ele>929.214</ele><time>2015-10-24T10:01:21Z</time></trkpt><trkpt lat="42.744458" lon="-5.632634"><ele>930.294</ele><time>2015-10-24T10:01:35Z</time></trkpt><trkpt lat="42.744603" lon="-5.632589"><ele>931.277</ele><time>2015-10-24T10:01:50Z</time></trkpt><trkpt lat="42.744760" lon="-5.632637"><ele>931.296</ele><time>2015-10-24T10:02:03Z</time></trkpt><trkpt lat="42.744792" lon="-5.632644"><ele>931.251</ele><time>2015-10-24T10:02:06Z</time></trkpt><trkpt lat="42.744853" lon="-5.632712"><ele>930.272</ele><time>2015-10-24T10:02:13Z</time></trkpt><trkpt lat="42.744982" lon="-5.632830"><ele>927.374</ele><time>2015-10-24T10:02:29Z</time></trkpt><trkpt lat="42.745022" lon="-5.632841"><ele>926.842</ele><time>2015-10-24T10:02:33Z</time></trkpt><trkpt lat="42.745155" lon="-5.632866"><ele>924.931</ele><time>2015-10-24T10:02:47Z</time></trkpt><trkpt lat="42.745285" lon="-5.632773"><ele>923.561</ele><time>2015-10-24T10:03:02Z</time></trkpt><trkpt lat="42.745449" lon="-5.632696"><ele>923.007</ele><time>2015-10-24T10:03:20Z</time></trkpt><trkpt lat="42.745575" lon="-5.632742"><ele>923.008</ele><time>2015-10-24T10:03:36Z</time></trkpt><trkpt lat="42.745739" lon="-5.632741"><ele>919.664</ele><time>2015-10-24T10:03:50Z</time></trkpt><trkpt lat="42.745873" lon="-5.632819"><ele>916.894</ele><time>2015-10-24T10:04:03Z</time></trkpt><trkpt lat="42.746028" lon="-5.632869"><ele>915.817</ele><time>2015-10-24T10:04:17Z</time></trkpt><trkpt lat="42.746194" lon="-5.632933"><ele>915.376</ele><time>2015-10-24T10:04:32Z</time></trkpt><trkpt lat="42.746372" lon="-5.632989"><ele>913.431</ele><time>2015-10-24T10:04:49Z</time></trkpt><trkpt lat="42.746408" lon="-5.632976"><ele>913.472</ele><time>2015-10-24T10:05:06Z</time></trkpt><trkpt lat="42.746448" lon="-5.633035"><ele>912.944</ele><time>2015-10-24T10:05:19Z</time></trkpt><trkpt lat="42.746535" lon="-5.633034"><ele>912.942</ele><time>2015-10-24T10:05:31Z</time></trkpt><trkpt lat="42.746573" lon="-5.633077"><ele>912.945</ele><time>2015-10-24T10:05:43Z</time></trkpt><trkpt lat="42.746688" lon="-5.633147"><ele>912.947</ele><time>2015-10-24T10:06:03Z</time></trkpt><trkpt lat="42.746806" lon="-5.633220"><ele>914.811</ele><time>2015-10-24T10:06:16Z</time></trkpt><trkpt lat="42.746948" lon="-5.633232"><ele>916.308</ele><time>2015-10-24T10:06:32Z</time></trkpt><trkpt lat="42.747125" lon="-5.633258"><ele>916.325</ele><time>2015-10-24T10:06:48Z</time></trkpt><trkpt lat="42.747185" lon="-5.633319"><ele>916.335</ele><time>2015-10-24T10:06:55Z</time></trkpt><trkpt lat="42.747335" lon="-5.633375"><ele>916.888</ele><time>2015-10-24T10:07:10Z</time></trkpt><trkpt lat="42.747513" lon="-5.633408"><ele>916.847</ele><time>2015-10-24T10:07:27Z</time></trkpt><trkpt lat="42.747621" lon="-5.633437"><ele>916.842</ele><time>2015-10-24T10:07:37Z</time></trkpt><trkpt lat="42.747741" lon="-5.633451"><ele>916.873</ele><time>2015-10-24T10:07:48Z</time></trkpt><trkpt lat="42.747824" lon="-5.633488"><ele>917.215</ele><time>2015-10-24T10:07:57Z</time></trkpt><trkpt lat="42.747941" lon="-5.633472"><ele>918.233</ele><time>2015-10-24T10:08:09Z</time></trkpt><trkpt lat="42.747968" lon="-5.633502"><ele>919.644</ele><time>2015-10-24T10:08:12Z</time></trkpt><trkpt lat="42.748109" lon="-5.633580"><ele>920.105</ele><time>2015-10-24T10:08:27Z</time></trkpt><trkpt lat="42.748239" lon="-5.633566"><ele>920.115</ele><time>2015-10-24T10:08:40Z</time></trkpt><trkpt lat="42.748269" lon="-5.633575"><ele>920.108</ele><time>2015-10-24T10:08:43Z</time></trkpt><trkpt lat="42.748431" lon="-5.633636"><ele>920.165</ele><time>2015-10-24T10:08:57Z</time></trkpt><trkpt lat="42.748604" lon="-5.633732"><ele>919.275</ele><time>2015-10-24T10:09:13Z</time></trkpt><trkpt lat="42.748769" lon="-5.633796"><ele>919.258</ele><time>2015-10-24T10:09:29Z</time></trkpt><trkpt lat="42.748925" lon="-5.633847"><ele>919.257</ele><time>2015-10-24T10:09:41Z</time></trkpt><trkpt lat="42.748992" lon="-5.633886"><ele>920.662</ele><time>2015-10-24T10:09:47Z</time></trkpt><trkpt lat="42.749013" lon="-5.633891"><ele>920.643</ele><time>2015-10-24T10:09:49Z</time></trkpt><trkpt lat="42.749175" lon="-5.633922"><ele>921.645</ele><time>2015-10-24T10:10:04Z</time></trkpt><trkpt lat="42.749305" lon="-5.633961"><ele>922.523</ele><time>2015-10-24T10:10:17Z</time></trkpt><trkpt lat="42.749334" lon="-5.633975"><ele>923.044</ele><time>2015-10-24T10:10:20Z</time></trkpt><trkpt lat="42.749374" lon="-5.633996"><ele>923.505</ele><time>2015-10-24T10:10:24Z</time></trkpt><trkpt lat="42.749449" lon="-5.634005"><ele>924.515</ele><time>2015-10-24T10:10:31Z</time></trkpt><trkpt lat="42.749486" lon="-5.634023"><ele>924.908</ele><time>2015-10-24T10:10:35Z</time></trkpt><trkpt lat="42.749611" lon="-5.634054"><ele>926.445</ele><time>2015-10-24T10:10:48Z</time></trkpt><trkpt lat="42.749709" lon="-5.634054"><ele>928.335</ele><time>2015-10-24T10:11:00Z</time></trkpt><trkpt lat="42.749727" lon="-5.634055"><ele>928.358</ele><time>2015-10-24T10:11:02Z</time></trkpt><trkpt lat="42.749795" lon="-5.634066"><ele>929.217</ele><time>2015-10-24T10:11:10Z</time></trkpt><trkpt lat="42.749875" lon="-5.634086"><ele>930.262</ele><time>2015-10-24T10:11:18Z</time></trkpt><trkpt lat="42.750000" lon="-5.634099"><ele>932.133</ele><time>2015-10-24T10:11:31Z</time></trkpt><trkpt lat="42.750017" lon="-5.634105"><ele>932.115</ele><time>2015-10-24T10:11:33Z</time></trkpt><trkpt lat="42.750131" lon="-5.634110"><ele>934.593</ele><time>2015-10-24T10:11:47Z</time></trkpt><trkpt lat="42.750260" lon="-5.634167"><ele>935.524</ele><time>2015-10-24T10:12:00Z</time></trkpt><trkpt lat="42.750398" lon="-5.634217"><ele>936.004</ele><time>2015-10-24T10:12:14Z</time></trkpt><trkpt lat="42.750408" lon="-5.634225"><ele>936.014</ele><time>2015-10-24T10:12:15Z</time></trkpt><trkpt lat="42.750631" lon="-5.634254"><ele>934.508</ele><time>2015-10-24T10:12:35Z</time></trkpt><trkpt lat="42.750752" lon="-5.634184"><ele>934.173</ele><time>2015-10-24T10:12:49Z</time></trkpt><trkpt lat="42.750801" lon="-5.634138"><ele>933.693</ele><time>2015-10-24T10:12:54Z</time></trkpt><trkpt lat="42.750915" lon="-5.633970"><ele>931.766</ele><time>2015-10-24T10:13:09Z</time></trkpt><trkpt lat="42.750919" lon="-5.633960"><ele>931.755</ele><time>2015-10-24T10:13:10Z</time></trkpt><trkpt lat="42.750998" lon="-5.633719"><ele>930.720</ele><time>2015-10-24T10:13:26Z</time></trkpt><trkpt lat="42.751052" lon="-5.633692"><ele>930.711</ele><time>2015-10-24T10:13:31Z</time></trkpt><trkpt lat="42.751195" lon="-5.633806"><ele>931.763</ele><time>2015-10-24T10:13:46Z</time></trkpt><trkpt lat="42.751315" lon="-5.633886"><ele>934.111</ele><time>2015-10-24T10:14:00Z</time></trkpt><trkpt lat="42.751433" lon="-5.633987"><ele>936.537</ele><time>2015-10-24T10:14:14Z</time></trkpt><trkpt lat="42.751532" lon="-5.634141"><ele>938.449</ele><time>2015-10-24T10:14:30Z</time></trkpt><trkpt lat="42.751632" lon="-5.634192"><ele>939.813</ele><time>2015-10-24T10:14:44Z</time></trkpt><trkpt lat="42.751641" lon="-5.634196"><ele>939.808</ele><time>2015-10-24T10:14:45Z</time></trkpt><trkpt lat="42.751796" lon="-5.634212"><ele>940.344</ele><time>2015-10-24T10:15:00Z</time></trkpt><trkpt lat="42.751949" lon="-5.634215"><ele>940.374</ele><time>2015-10-24T10:15:16Z</time></trkpt><trkpt lat="42.752007" lon="-5.634236"><ele>938.957</ele><time>2015-10-24T10:15:22Z</time></trkpt><trkpt lat="42.752054" lon="-5.634252"><ele>938.466</ele><time>2015-10-24T10:15:27Z</time></trkpt><trkpt lat="42.752084" lon="-5.634265"><ele>937.961</ele><time>2015-10-24T10:15:30Z</time></trkpt><trkpt lat="42.752199" lon="-5.634310"><ele>936.012</ele><time>2015-10-24T10:15:42Z</time></trkpt><trkpt lat="42.752381" lon="-5.634385"><ele>934.564</ele><time>2015-10-24T10:15:58Z</time></trkpt><trkpt lat="42.752556" lon="-5.634371"><ele>934.172</ele><time>2015-10-24T10:16:14Z</time></trkpt><trkpt lat="42.752577" lon="-5.634381"><ele>933.655</ele><time>2015-10-24T10:16:16Z</time></trkpt><trkpt lat="42.752670" lon="-5.634471"><ele>931.707</ele><time>2015-10-24T10:16:25Z</time></trkpt><trkpt lat="42.752851" lon="-5.634518"><ele>930.717</ele><time>2015-10-24T10:16:41Z</time></trkpt><trkpt lat="42.752933" lon="-5.634516"><ele>929.208</ele><time>2015-10-24T10:16:49Z</time></trkpt><trkpt lat="42.752955" lon="-5.634532"><ele>930.246</ele><time>2015-10-24T10:16:51Z</time></trkpt><trkpt lat="42.753134" lon="-5.634589"><ele>930.216</ele><time>2015-10-24T10:17:07Z</time></trkpt><trkpt lat="42.753320" lon="-5.634677"><ele>927.889</ele><time>2015-10-24T10:17:25Z</time></trkpt><trkpt lat="42.753456" lon="-5.634740"><ele>925.948</ele><time>2015-10-24T10:17:38Z</time></trkpt><trkpt lat="42.753491" lon="-5.634804"><ele>924.533</ele><time>2015-10-24T10:17:43Z</time></trkpt><trkpt lat="42.753612" lon="-5.634982"><ele>922.564</ele><time>2015-10-24T10:17:58Z</time></trkpt><trkpt lat="42.753711" lon="-5.634977"><ele>921.136</ele><time>2015-10-24T10:18:09Z</time></trkpt><trkpt lat="42.753897" lon="-5.634966"><ele>920.164</ele><time>2015-10-24T10:18:25Z</time></trkpt><trkpt lat="42.753908" lon="-5.634967"><ele>919.614</ele><time>2015-10-24T10:18:26Z</time></trkpt><trkpt lat="42.754100" lon="-5.635021"><ele>919.654</ele><time>2015-10-24T10:18:41Z</time></trkpt><trkpt lat="42.754252" lon="-5.635128"><ele>919.609</ele><time>2015-10-24T10:18:57Z</time></trkpt><trkpt lat="42.754403" lon="-5.635219"><ele>919.608</ele><time>2015-10-24T10:19:12Z</time></trkpt><trkpt lat="42.754483" lon="-5.635285"><ele>919.632</ele><time>2015-10-24T10:19:24Z</time></trkpt><trkpt lat="42.754519" lon="-5.635291"><ele>919.662</ele><time>2015-10-24T10:19:42Z</time></trkpt><trkpt lat="42.754617" lon="-5.635359"><ele>919.625</ele><time>2015-10-24T10:19:57Z</time></trkpt><trkpt lat="42.754695" lon="-5.635379"><ele>919.674</ele><time>2015-10-24T10:20:10Z</time></trkpt><trkpt lat="42.754794" lon="-5.635397"><ele>919.699</ele><time>2015-10-24T10:20:25Z</time></trkpt><trkpt lat="42.754888" lon="-5.635446"><ele>919.670</ele><time>2015-10-24T10:20:40Z</time></trkpt><trkpt lat="42.754972" lon="-5.635502"><ele>919.622</ele><time>2015-10-24T10:20:58Z</time></trkpt><trkpt lat="42.755134" lon="-5.635561"><ele>919.670</ele><time>2015-10-24T10:21:14Z</time></trkpt><trkpt lat="42.755310" lon="-5.635642"><ele>919.627</ele><time>2015-10-24T10:21:32Z</time></trkpt><trkpt lat="42.755494" lon="-5.635677"><ele>920.668</ele><time>2015-10-24T10:21:49Z</time></trkpt><trkpt lat="42.755666" lon="-5.635724"><ele>921.614</ele><time>2015-10-24T10:22:05Z</time></trkpt><trkpt lat="42.755815" lon="-5.635757"><ele>922.008</ele><time>2015-10-24T10:22:19Z</time></trkpt><trkpt lat="42.755861" lon="-5.635760"><ele>922.043</ele><time>2015-10-24T10:22:23Z</time></trkpt><trkpt lat="42.756020" lon="-5.635758"><ele>922.573</ele><time>2015-10-24T10:22:38Z</time></trkpt><trkpt lat="42.756182" lon="-5.635777"><ele>923.566</ele><time>2015-10-24T10:22:52Z</time></trkpt><trkpt lat="42.756382" lon="-5.635813"><ele>923.565</ele><time>2015-10-24T10:23:09Z</time></trkpt><trkpt lat="42.756569" lon="-5.635841"><ele>923.520</ele><time>2015-10-24T10:23:25Z</time></trkpt><trkpt lat="42.756639" lon="-5.635848"><ele>923.571</ele><time>2015-10-24T10:23:32Z</time></trkpt><trkpt lat="42.756714" lon="-5.635841"><ele>923.563</ele><time>2015-10-24T10:23:47Z</time></trkpt><trkpt lat="42.756701" lon="-5.635855"><ele>923.581</ele><time>2015-10-24T10:24:07Z</time></trkpt><trkpt lat="42.756776" lon="-5.635853"><ele>923.513</ele><time>2015-10-24T10:24:22Z</time></trkpt><trkpt lat="42.756823" lon="-5.635847"><ele>923.543</ele><time>2015-10-24T10:24:27Z</time></trkpt><trkpt lat="42.756903" lon="-5.635845"><ele>923.507</ele><time>2015-10-24T10:24:34Z</time></trkpt><trkpt lat="42.757032" lon="-5.635932"><ele>924.008</ele><time>2015-10-24T10:24:46Z</time></trkpt><trkpt lat="42.757201" lon="-5.635952"><ele>924.992</ele><time>2015-10-24T10:25:02Z</time></trkpt><trkpt lat="42.757372" lon="-5.635934"><ele>924.962</ele><time>2015-10-24T10:25:17Z</time></trkpt><trkpt lat="42.757470" lon="-5.635941"><ele>924.045</ele><time>2015-10-24T10:25:30Z</time></trkpt><trkpt lat="42.757535" lon="-5.635947"><ele>924.044</ele><time>2015-10-24T10:25:53Z</time></trkpt><trkpt lat="42.757601" lon="-5.635942"><ele>924.089</ele><time>2015-10-24T10:26:07Z</time></trkpt><trkpt lat="42.757728" lon="-5.635941"><ele>923.070</ele><time>2015-10-24T10:26:22Z</time></trkpt><trkpt lat="42.757890" lon="-5.635940"><ele>923.072</ele><time>2015-10-24T10:26:36Z</time></trkpt><trkpt lat="42.758049" lon="-5.635963"><ele>923.030</ele><time>2015-10-24T10:26:49Z</time></trkpt><trkpt lat="42.758214" lon="-5.635952"><ele>923.083</ele><time>2015-10-24T10:27:04Z</time></trkpt><trkpt lat="42.758256" lon="-5.635976"><ele>924.525</ele><time>2015-10-24T10:27:08Z</time></trkpt><trkpt lat="42.758344" lon="-5.636037"><ele>923.017</ele><time>2015-10-24T10:27:24Z</time></trkpt><trkpt lat="42.758374" lon="-5.636056"><ele>923.508</ele><time>2015-10-24T10:27:43Z</time></trkpt><trkpt lat="42.758475" lon="-5.636073"><ele>923.529</ele><time>2015-10-24T10:28:00Z</time></trkpt><trkpt lat="42.758599" lon="-5.636055"><ele>923.599</ele><time>2015-10-24T10:28:14Z</time></trkpt><trkpt lat="42.758714" lon="-5.636035"><ele>923.562</ele><time>2015-10-24T10:28:28Z</time></trkpt><trkpt lat="42.758885" lon="-5.636020"><ele>923.591</ele><time>2015-10-24T10:28:44Z</time></trkpt><trkpt lat="42.759057" lon="-5.635984"><ele>923.596</ele><time>2015-10-24T10:29:00Z</time></trkpt><trkpt lat="42.759252" lon="-5.636003"><ele>923.567</ele><time>2015-10-24T10:29:18Z</time></trkpt><trkpt lat="42.759423" lon="-5.636031"><ele>924.029</ele><time>2015-10-24T10:29:32Z</time></trkpt><trkpt lat="42.759599" lon="-5.636122"><ele>924.067</ele><time>2015-10-24T10:29:47Z</time></trkpt><trkpt lat="42.759750" lon="-5.636168"><ele>924.025</ele><time>2015-10-24T10:30:00Z</time></trkpt><trkpt lat="42.759936" lon="-5.636241"><ele>924.026</ele><time>2015-10-24T10:30:16Z</time></trkpt><trkpt lat="42.760094" lon="-5.636291"><ele>924.008</ele><time>2015-10-24T10:30:30Z</time></trkpt><trkpt lat="42.760273" lon="-5.636342"><ele>924.908</ele><time>2015-10-24T10:30:46Z</time></trkpt><trkpt lat="42.760377" lon="-5.636429"><ele>925.923</ele><time>2015-10-24T10:30:59Z</time></trkpt><trkpt lat="42.760390" lon="-5.636421"><ele>925.973</ele><time>2015-10-24T10:31:11Z</time></trkpt><trkpt lat="42.760406" lon="-5.636394"><ele>925.936</ele><time>2015-10-24T10:31:14Z</time></trkpt><trkpt lat="42.760562" lon="-5.636237"><ele>925.915</ele><time>2015-10-24T10:31:30Z</time></trkpt><trkpt lat="42.760765" lon="-5.636283"><ele>925.950</ele><time>2015-10-24T10:31:46Z</time></trkpt><trkpt lat="42.760947" lon="-5.636323"><ele>925.911</ele><time>2015-10-24T10:32:02Z</time></trkpt><trkpt lat="42.761148" lon="-5.636375"><ele>925.953</ele><time>2015-10-24T10:32:19Z</time></trkpt><trkpt lat="42.761349" lon="-5.636429"><ele>926.481</ele><time>2015-10-24T10:32:36Z</time></trkpt><trkpt lat="42.761514" lon="-5.636450"><ele>926.411</ele><time>2015-10-24T10:32:51Z</time></trkpt><trkpt lat="42.761705" lon="-5.636461"><ele>926.421</ele><time>2015-10-24T10:33:08Z</time></trkpt><trkpt lat="42.761895" lon="-5.636487"><ele>926.403</ele><time>2015-10-24T10:33:24Z</time></trkpt><trkpt lat="42.762096" lon="-5.636497"><ele>926.808</ele><time>2015-10-24T10:33:42Z</time></trkpt><trkpt lat="42.762161" lon="-5.636513"><ele>926.862</ele><time>2015-10-24T10:33:48Z</time></trkpt><trkpt lat="42.762352" lon="-5.636489"><ele>926.842</ele><time>2015-10-24T10:34:05Z</time></trkpt><trkpt lat="42.762572" lon="-5.636498"><ele>927.365</ele><time>2015-10-24T10:34:24Z</time></trkpt><trkpt lat="42.762782" lon="-5.636525"><ele>927.824</ele><time>2015-10-24T10:34:42Z</time></trkpt><trkpt lat="42.762980" lon="-5.636558"><ele>927.849</ele><time>2015-10-24T10:34:59Z</time></trkpt><trkpt lat="42.763085" lon="-5.636618"><ele>927.860</ele><time>2015-10-24T10:35:08Z</time></trkpt><trkpt lat="42.763280" lon="-5.636698"><ele>927.882</ele><time>2015-10-24T10:35:25Z</time></trkpt><trkpt lat="42.763513" lon="-5.636771"><ele>928.320</ele><time>2015-10-24T10:35:45Z</time></trkpt><trkpt lat="42.763741" lon="-5.636888"><ele>928.338</ele><time>2015-10-24T10:36:06Z</time></trkpt><trkpt lat="42.763920" lon="-5.636998"><ele>928.370</ele><time>2015-10-24T10:36:23Z</time></trkpt><trkpt lat="42.764104" lon="-5.637037"><ele>928.317</ele><time>2015-10-24T10:36:40Z</time></trkpt><trkpt lat="42.764206" lon="-5.637042"><ele>928.308</ele><time>2015-10-24T10:36:49Z</time></trkpt><trkpt lat="42.764225" lon="-5.637045"><ele>928.394</ele><time>2015-10-24T10:36:51Z</time></trkpt><trkpt lat="42.764434" lon="-5.637093"><ele>928.384</ele><time>2015-10-24T10:37:10Z</time></trkpt><trkpt lat="42.764590" lon="-5.637148"><ele>928.857</ele><time>2015-10-24T10:37:24Z</time></trkpt><trkpt lat="42.764609" lon="-5.637157"><ele>930.256</ele><time>2015-10-24T10:37:26Z</time></trkpt><trkpt lat="42.764744" lon="-5.637199"><ele>928.861</ele><time>2015-10-24T10:37:40Z</time></trkpt><trkpt lat="42.764921" lon="-5.637249"><ele>928.862</ele><time>2015-10-24T10:37:56Z</time></trkpt><trkpt lat="42.765115" lon="-5.637307"><ele>928.864</ele><time>2015-10-24T10:38:14Z</time></trkpt><trkpt lat="42.765265" lon="-5.637318"><ele>928.852</ele><time>2015-10-24T10:38:30Z</time></trkpt><trkpt lat="42.765346" lon="-5.637312"><ele>929.299</ele><time>2015-10-24T10:38:41Z</time></trkpt><trkpt lat="42.765522" lon="-5.637372"><ele>929.207</ele><time>2015-10-24T10:38:57Z</time></trkpt><trkpt lat="42.765613" lon="-5.637475"><ele>929.227</ele><time>2015-10-24T10:39:10Z</time></trkpt><trkpt lat="42.765642" lon="-5.637535"><ele>929.208</ele><time>2015-10-24T10:39:31Z</time></trkpt><trkpt lat="42.765658" lon="-5.637561"><ele>930.710</ele><time>2015-10-24T10:39:49Z</time></trkpt><trkpt lat="42.765648" lon="-5.637549"><ele>930.720</ele><time>2015-10-24T10:39:53Z</time></trkpt><trkpt lat="42.765701" lon="-5.637546"><ele>930.773</ele><time>2015-10-24T10:39:58Z</time></trkpt><trkpt lat="42.765841" lon="-5.637576"><ele>930.712</ele><time>2015-10-24T10:40:14Z</time></trkpt><trkpt lat="42.765984" lon="-5.637605"><ele>931.787</ele><time>2015-10-24T10:40:28Z</time></trkpt><trkpt lat="42.766125" lon="-5.637659"><ele>931.718</ele><time>2015-10-24T10:40:44Z</time></trkpt><trkpt lat="42.766139" lon="-5.637650"><ele>932.140</ele><time>2015-10-24T10:40:57Z</time></trkpt><trkpt lat="42.767307" lon="-5.637569"><ele>911.068</ele><time>2015-10-24T11:41:04Z</time></trkpt><trkpt lat="42.767330" lon="-5.637554"><ele>911.093</ele><time>2015-10-24T11:41:05Z</time></trkpt><trkpt lat="42.767343" lon="-5.637558"><ele>911.065</ele><time>2015-10-24T11:41:06Z</time></trkpt><trkpt lat="42.767362" lon="-5.637568"><ele>908.121</ele><time>2015-10-24T11:41:08Z</time></trkpt><trkpt lat="42.767375" lon="-5.637570"><ele>915.308</ele><time>2015-10-24T11:41:09Z</time></trkpt><trkpt lat="42.767386" lon="-5.637577"><ele>912.070</ele><time>2015-10-24T11:41:10Z</time></trkpt><trkpt lat="42.767426" lon="-5.637642"><ele>915.370</ele><time>2015-10-24T11:41:13Z</time></trkpt><trkpt lat="42.767468" lon="-5.637642"><ele>918.723</ele><time>2015-10-24T11:41:17Z</time></trkpt><trkpt lat="42.767534" lon="-5.637599"><ele>923.042</ele><time>2015-10-24T11:41:23Z</time></trkpt><trkpt lat="42.767611" lon="-5.637594"><ele>926.477</ele><time>2015-10-24T11:41:30Z</time></trkpt><trkpt lat="42.767805" lon="-5.637535"><ele>929.748</ele><time>2015-10-24T11:41:45Z</time></trkpt><trkpt lat="42.767985" lon="-5.637500"><ele>931.220</ele><time>2015-10-24T11:42:00Z</time></trkpt><trkpt lat="42.768072" lon="-5.637479"><ele>931.768</ele><time>2015-10-24T11:42:07Z</time></trkpt><trkpt lat="42.768076" lon="-5.637503"><ele>931.711</ele><time>2015-10-24T11:42:10Z</time></trkpt><trkpt lat="42.768137" lon="-5.637501"><ele>932.621</ele><time>2015-10-24T11:42:17Z</time></trkpt><trkpt lat="42.768292" lon="-5.637510"><ele>932.603</ele><time>2015-10-24T11:42:32Z</time></trkpt><trkpt lat="42.768465" lon="-5.637485"><ele>932.608</ele><time>2015-10-24T11:42:48Z</time></trkpt><trkpt lat="42.768649" lon="-5.637457"><ele>932.682</ele><time>2015-10-24T11:43:04Z</time></trkpt><trkpt lat="42.768835" lon="-5.637423"><ele>933.132</ele><time>2015-10-24T11:43:21Z</time></trkpt><trkpt lat="42.769055" lon="-5.637418"><ele>933.135</ele><time>2015-10-24T11:43:40Z</time></trkpt><trkpt lat="42.769221" lon="-5.637415"><ele>933.154</ele><time>2015-10-24T11:43:55Z</time></trkpt><trkpt lat="42.769428" lon="-5.637436"><ele>933.689</ele><time>2015-10-24T11:44:10Z</time></trkpt><trkpt lat="42.769628" lon="-5.637450"><ele>933.660</ele><time>2015-10-24T11:44:28Z</time></trkpt><trkpt lat="42.769820" lon="-5.637444"><ele>933.632</ele><time>2015-10-24T11:44:45Z</time></trkpt><trkpt lat="42.769977" lon="-5.637440"><ele>933.620</ele><time>2015-10-24T11:45:00Z</time></trkpt><trkpt lat="42.770136" lon="-5.637426"><ele>933.641</ele><time>2015-10-24T11:45:13Z</time></trkpt><trkpt lat="42.770328" lon="-5.637405"><ele>934.181</ele><time>2015-10-24T11:45:30Z</time></trkpt><trkpt lat="42.770509" lon="-5.637447"><ele>934.109</ele><time>2015-10-24T11:45:46Z</time></trkpt><trkpt lat="42.770705" lon="-5.637482"><ele>934.508</ele><time>2015-10-24T11:46:03Z</time></trkpt><trkpt lat="42.770865" lon="-5.637512"><ele>934.545</ele><time>2015-10-24T11:46:17Z</time></trkpt><trkpt lat="42.771056" lon="-5.637539"><ele>934.555</ele><time>2015-10-24T11:46:33Z</time></trkpt><trkpt lat="42.771239" lon="-5.637566"><ele>934.558</ele><time>2015-10-24T11:46:49Z</time></trkpt><trkpt lat="42.771403" lon="-5.637638"><ele>934.567</ele><time>2015-10-24T11:47:04Z</time></trkpt><trkpt lat="42.771628" lon="-5.637671"><ele>935.062</ele><time>2015-10-24T11:47:24Z</time></trkpt><trkpt lat="42.771813" lon="-5.637688"><ele>935.583</ele><time>2015-10-24T11:47:39Z</time></trkpt><trkpt lat="42.771995" lon="-5.637701"><ele>935.565</ele><time>2015-10-24T11:47:54Z</time></trkpt><trkpt lat="42.772140" lon="-5.637639"><ele>935.523</ele><time>2015-10-24T11:48:07Z</time></trkpt><trkpt lat="42.772330" lon="-5.637549"><ele>935.552</ele><time>2015-10-24T11:48:26Z</time></trkpt><trkpt lat="42.772513" lon="-5.637497"><ele>936.053</ele><time>2015-10-24T11:48:41Z</time></trkpt><trkpt lat="42.772596" lon="-5.637463"><ele>936.508</ele><time>2015-10-24T11:48:49Z</time></trkpt><trkpt lat="42.772776" lon="-5.637398"><ele>936.908</ele><time>2015-10-24T11:49:05Z</time></trkpt><trkpt lat="42.772938" lon="-5.637351"><ele>936.996</ele><time>2015-10-24T11:49:19Z</time></trkpt><trkpt lat="42.773082" lon="-5.637308"><ele>936.946</ele><time>2015-10-24T11:49:32Z</time></trkpt><trkpt lat="42.773228" lon="-5.637268"><ele>937.499</ele><time>2015-10-24T11:49:45Z</time></trkpt><trkpt lat="42.773421" lon="-5.637220"><ele>937.458</ele><time>2015-10-24T11:50:02Z</time></trkpt><trkpt lat="42.773599" lon="-5.637168"><ele>937.443</ele><time>2015-10-24T11:50:18Z</time></trkpt><trkpt lat="42.773779" lon="-5.637126"><ele>937.974</ele><time>2015-10-24T11:50:34Z</time></trkpt><trkpt lat="42.773982" lon="-5.637066"><ele>938.476</ele><time>2015-10-24T11:50:51Z</time></trkpt><trkpt lat="42.774130" lon="-5.636995"><ele>938.414</ele><time>2015-10-24T11:51:05Z</time></trkpt><trkpt lat="42.774277" lon="-5.636893"><ele>938.981</ele><time>2015-10-24T11:51:19Z</time></trkpt><trkpt lat="42.774388" lon="-5.636794"><ele>938.961</ele><time>2015-10-24T11:51:31Z</time></trkpt><trkpt lat="42.774547" lon="-5.636658"><ele>938.917</ele><time>2015-10-24T11:51:46Z</time></trkpt><trkpt lat="42.774721" lon="-5.636474"><ele>938.908</ele><time>2015-10-24T11:52:04Z</time></trkpt><trkpt lat="42.774842" lon="-5.636327"><ele>938.999</ele><time>2015-10-24T11:52:19Z</time></trkpt><trkpt lat="42.774984" lon="-5.636209"><ele>939.359</ele><time>2015-10-24T11:52:34Z</time></trkpt><trkpt lat="42.775138" lon="-5.636132"><ele>939.812</ele><time>2015-10-24T11:52:49Z</time></trkpt><trkpt lat="42.775303" lon="-5.636050"><ele>940.341</ele><time>2015-10-24T11:53:05Z</time></trkpt><trkpt lat="42.775490" lon="-5.635983"><ele>941.386</ele><time>2015-10-24T11:53:22Z</time></trkpt><trkpt lat="42.775683" lon="-5.635935"><ele>944.227</ele><time>2015-10-24T11:53:39Z</time></trkpt><trkpt lat="42.775693" lon="-5.635932"><ele>941.349</ele><time>2015-10-24T11:53:40Z</time></trkpt><trkpt lat="42.775851" lon="-5.635838"><ele>942.717</ele><time>2015-10-24T11:53:57Z</time></trkpt><trkpt lat="42.776001" lon="-5.635775"><ele>943.778</ele><time>2015-10-24T11:54:11Z</time></trkpt><trkpt lat="42.776078" lon="-5.635740"><ele>944.233</ele><time>2015-10-24T11:54:18Z</time></trkpt><trkpt lat="42.776138" lon="-5.635720"><ele>944.226</ele><time>2015-10-24T11:54:23Z</time></trkpt><trkpt lat="42.776234" lon="-5.635681"><ele>944.608</ele><time>2015-10-24T11:54:32Z</time></trkpt><trkpt lat="42.776381" lon="-5.635602"><ele>945.188</ele><time>2015-10-24T11:54:45Z</time></trkpt><trkpt lat="42.776560" lon="-5.635499"><ele>945.118</ele><time>2015-10-24T11:55:02Z</time></trkpt><trkpt lat="42.776725" lon="-5.635456"><ele>945.171</ele><time>2015-10-24T11:55:17Z</time></trkpt><trkpt lat="42.776838" lon="-5.635384"><ele>945.190</ele><time>2015-10-24T11:55:28Z</time></trkpt><trkpt lat="42.776975" lon="-5.635256"><ele>945.165</ele><time>2015-10-24T11:55:43Z</time></trkpt><trkpt lat="42.777209" lon="-5.635202"><ele>944.646</ele><time>2015-10-24T11:56:04Z</time></trkpt><trkpt lat="42.777260" lon="-5.635182"><ele>944.638</ele><time>2015-10-24T11:56:09Z</time></trkpt><trkpt lat="42.777440" lon="-5.635108"><ele>943.796</ele><time>2015-10-24T11:56:26Z</time></trkpt><trkpt lat="42.777489" lon="-5.635083"><ele>943.789</ele><time>2015-10-24T11:56:31Z</time></trkpt><trkpt lat="42.777657" lon="-5.635022"><ele>943.206</ele><time>2015-10-24T11:56:46Z</time></trkpt><trkpt lat="42.777849" lon="-5.634973"><ele>942.726</ele><time>2015-10-24T11:57:03Z</time></trkpt><trkpt lat="42.777885" lon="-5.634966"><ele>942.708</ele><time>2015-10-24T11:57:06Z</time></trkpt><trkpt lat="42.777936" lon="-5.634949"><ele>942.729</ele><time>2015-10-24T11:57:10Z</time></trkpt><trkpt lat="42.778163" lon="-5.634898"><ele>942.789</ele><time>2015-10-24T11:57:29Z</time></trkpt><trkpt lat="42.778333" lon="-5.634858"><ele>942.252</ele><time>2015-10-24T11:57:44Z</time></trkpt><trkpt lat="42.778564" lon="-5.634832"><ele>942.281</ele><time>2015-10-24T11:58:03Z</time></trkpt><trkpt lat="42.778783" lon="-5.634779"><ele>942.276</ele><time>2015-10-24T11:58:22Z</time></trkpt><trkpt lat="42.778984" lon="-5.634728"><ele>942.237</ele><time>2015-10-24T11:58:39Z</time></trkpt><trkpt lat="42.779226" lon="-5.634683"><ele>941.829</ele><time>2015-10-24T11:58:59Z</time></trkpt><trkpt lat="42.779433" lon="-5.634642"><ele>941.827</ele><time>2015-10-24T11:59:17Z</time></trkpt><trkpt lat="42.779657" lon="-5.634595"><ele>941.887</ele><time>2015-10-24T11:59:36Z</time></trkpt><trkpt lat="42.779895" lon="-5.634548"><ele>941.842</ele><time>2015-10-24T11:59:56Z</time></trkpt><trkpt lat="42.780127" lon="-5.634500"><ele>941.826</ele><time>2015-10-24T12:00:16Z</time></trkpt><trkpt lat="42.780343" lon="-5.634470"><ele>941.808</ele><time>2015-10-24T12:00:34Z</time></trkpt><trkpt lat="42.780561" lon="-5.634437"><ele>941.899</ele><time>2015-10-24T12:00:52Z</time></trkpt><trkpt lat="42.780763" lon="-5.634376"><ele>941.849</ele><time>2015-10-24T12:01:09Z</time></trkpt><trkpt lat="42.780904" lon="-5.634346"><ele>943.232</ele><time>2015-10-24T12:01:21Z</time></trkpt><trkpt lat="42.781074" lon="-5.634301"><ele>944.261</ele><time>2015-10-24T12:01:36Z</time></trkpt><trkpt lat="42.781271" lon="-5.634246"><ele>945.166</ele><time>2015-10-24T12:01:53Z</time></trkpt><trkpt lat="42.781283" lon="-5.634250"><ele>945.157</ele><time>2015-10-24T12:01:54Z</time></trkpt><trkpt lat="42.781478" lon="-5.634162"><ele>945.139</ele><time>2015-10-24T12:02:13Z</time></trkpt><trkpt lat="42.781641" lon="-5.634004"><ele>945.157</ele><time>2015-10-24T12:02:30Z</time></trkpt><trkpt lat="42.781652" lon="-5.633992"><ele>945.133</ele><time>2015-10-24T12:02:31Z</time></trkpt><trkpt lat="42.781672" lon="-5.633978"><ele>945.123</ele><time>2015-10-24T12:02:33Z</time></trkpt><trkpt lat="42.781848" lon="-5.633846"><ele>946.615</ele><time>2015-10-24T12:02:50Z</time></trkpt><trkpt lat="42.781992" lon="-5.633747"><ele>946.608</ele><time>2015-10-24T12:03:04Z</time></trkpt><trkpt lat="42.782082" lon="-5.633682"><ele>947.054</ele><time>2015-10-24T12:03:13Z</time></trkpt><trkpt lat="42.782135" lon="-5.633647"><ele>947.584</ele><time>2015-10-24T12:03:18Z</time></trkpt><trkpt lat="42.782236" lon="-5.633600"><ele>948.037</ele><time>2015-10-24T12:03:27Z</time></trkpt><trkpt lat="42.782393" lon="-5.633494"><ele>948.536</ele><time>2015-10-24T12:03:42Z</time></trkpt><trkpt lat="42.782546" lon="-5.633377"><ele>949.091</ele><time>2015-10-24T12:03:58Z</time></trkpt><trkpt lat="42.782752" lon="-5.633243"><ele>949.912</ele><time>2015-10-24T12:04:17Z</time></trkpt><trkpt lat="42.782949" lon="-5.633115"><ele>949.924</ele><time>2015-10-24T12:04:34Z</time></trkpt><trkpt lat="42.783128" lon="-5.633040"><ele>949.942</ele><time>2015-10-24T12:04:49Z</time></trkpt><trkpt lat="42.783302" lon="-5.633032"><ele>949.952</ele><time>2015-10-24T12:05:04Z</time></trkpt><trkpt lat="42.783412" lon="-5.633040"><ele>949.953</ele><time>2015-10-24T12:05:14Z</time></trkpt><trkpt lat="42.783433" lon="-5.633037"><ele>949.908</ele><time>2015-10-24T12:05:16Z</time></trkpt><trkpt lat="42.783622" lon="-5.633040"><ele>949.908</ele><time>2015-10-24T12:05:31Z</time></trkpt><trkpt lat="42.783695" lon="-5.632998"><ele>949.976</ele><time>2015-10-24T12:05:38Z</time></trkpt><trkpt lat="42.783734" lon="-5.632966"><ele>949.956</ele><time>2015-10-24T12:05:42Z</time></trkpt><trkpt lat="42.783772" lon="-5.632932"><ele>949.989</ele><time>2015-10-24T12:05:46Z</time></trkpt><trkpt lat="42.783946" lon="-5.632773"><ele>949.978</ele><time>2015-10-24T12:06:04Z</time></trkpt><trkpt lat="42.784115" lon="-5.632596"><ele>949.943</ele><time>2015-10-24T12:06:22Z</time></trkpt><trkpt lat="42.784224" lon="-5.632493"><ele>949.994</ele><time>2015-10-24T12:06:33Z</time></trkpt><trkpt lat="42.784407" lon="-5.632327"><ele>949.916</ele><time>2015-10-24T12:06:52Z</time></trkpt><trkpt lat="42.784584" lon="-5.632218"><ele>949.954</ele><time>2015-10-24T12:07:08Z</time></trkpt><trkpt lat="42.784771" lon="-5.632147"><ele>949.982</ele><time>2015-10-24T12:07:24Z</time></trkpt><trkpt lat="42.785018" lon="-5.632096"><ele>949.943</ele><time>2015-10-24T12:07:43Z</time></trkpt><trkpt lat="42.785198" lon="-5.632036"><ele>949.917</ele><time>2015-10-24T12:07:58Z</time></trkpt><trkpt lat="42.785398" lon="-5.631965"><ele>950.908</ele><time>2015-10-24T12:08:15Z</time></trkpt><trkpt lat="42.785591" lon="-5.631909"><ele>951.479</ele><time>2015-10-24T12:08:32Z</time></trkpt><trkpt lat="42.785765" lon="-5.631883"><ele>951.889</ele><time>2015-10-24T12:08:47Z</time></trkpt><trkpt lat="42.785973" lon="-5.631869"><ele>952.842</ele><time>2015-10-24T12:09:05Z</time></trkpt><trkpt lat="42.786182" lon="-5.631873"><ele>953.311</ele><time>2015-10-24T12:09:23Z</time></trkpt><trkpt lat="42.786296" lon="-5.631872"><ele>954.216</ele><time>2015-10-24T12:09:33Z</time></trkpt><trkpt lat="42.786344" lon="-5.631885"><ele>954.237</ele><time>2015-10-24T12:09:37Z</time></trkpt><trkpt lat="42.786566" lon="-5.631920"><ele>955.269</ele><time>2015-10-24T12:09:55Z</time></trkpt><trkpt lat="42.786765" lon="-5.631987"><ele>955.257</ele><time>2015-10-24T12:10:12Z</time></trkpt><trkpt lat="42.786945" lon="-5.632009"><ele>955.764</ele><time>2015-10-24T12:10:27Z</time></trkpt><trkpt lat="42.787110" lon="-5.632000"><ele>955.706</ele><time>2015-10-24T12:10:42Z</time></trkpt><trkpt lat="42.787204" lon="-5.632021"><ele>954.216</ele><time>2015-10-24T12:10:51Z</time></trkpt><trkpt lat="42.787410" lon="-5.632040"><ele>953.308</ele><time>2015-10-24T12:11:08Z</time></trkpt><trkpt lat="42.787601" lon="-5.632086"><ele>952.317</ele><time>2015-10-24T12:11:25Z</time></trkpt><trkpt lat="42.787664" lon="-5.632143"><ele>951.827</ele><time>2015-10-24T12:11:32Z</time></trkpt><trkpt lat="42.787847" lon="-5.632255"><ele>950.960</ele><time>2015-10-24T12:11:50Z</time></trkpt><trkpt lat="42.788059" lon="-5.632321"><ele>950.949</ele><time>2015-10-24T12:12:08Z</time></trkpt><trkpt lat="42.788068" lon="-5.632326"><ele>949.994</ele><time>2015-10-24T12:12:09Z</time></trkpt><trkpt lat="42.788272" lon="-5.632288"><ele>951.865</ele><time>2015-10-24T12:12:25Z</time></trkpt><trkpt lat="42.788463" lon="-5.632234"><ele>951.857</ele><time>2015-10-24T12:12:42Z</time></trkpt><trkpt lat="42.788680" lon="-5.632273"><ele>952.375</ele><time>2015-10-24T12:13:01Z</time></trkpt><trkpt lat="42.788864" lon="-5.632313"><ele>952.851</ele><time>2015-10-24T12:13:17Z</time></trkpt><trkpt lat="42.789019" lon="-5.632324"><ele>953.301</ele><time>2015-10-24T12:13:32Z</time></trkpt><trkpt lat="42.789214" lon="-5.632361"><ele>953.811</ele><time>2015-10-24T12:13:49Z</time></trkpt><trkpt lat="42.789428" lon="-5.632363"><ele>953.808</ele><time>2015-10-24T12:14:04Z</time></trkpt><trkpt lat="42.789639" lon="-5.632365"><ele>953.836</ele><time>2015-10-24T12:14:22Z</time></trkpt><trkpt lat="42.789830" lon="-5.632317"><ele>954.796</ele><time>2015-10-24T12:14:39Z</time></trkpt><trkpt lat="42.790040" lon="-5.632296"><ele>954.789</ele><time>2015-10-24T12:14:56Z</time></trkpt><trkpt lat="42.790236" lon="-5.632290"><ele>954.768</ele><time>2015-10-24T12:15:12Z</time></trkpt><trkpt lat="42.790421" lon="-5.632243"><ele>954.753</ele><time>2015-10-24T12:15:28Z</time></trkpt><trkpt lat="42.790454" lon="-5.632233"><ele>954.724</ele><time>2015-10-24T12:15:31Z</time></trkpt><trkpt lat="42.790653" lon="-5.632188"><ele>954.786</ele><time>2015-10-24T12:15:48Z</time></trkpt><trkpt lat="42.790866" lon="-5.632156"><ele>955.214</ele><time>2015-10-24T12:16:06Z</time></trkpt><trkpt lat="42.791070" lon="-5.632099"><ele>955.283</ele><time>2015-10-24T12:16:24Z</time></trkpt><trkpt lat="42.791240" lon="-5.632077"><ele>955.225</ele><time>2015-10-24T12:16:39Z</time></trkpt><trkpt lat="42.791252" lon="-5.632076"><ele>955.217</ele><time>2015-10-24T12:16:41Z</time></trkpt><trkpt lat="42.791274" lon="-5.632075"><ele>955.208</ele><time>2015-10-24T12:16:43Z</time></trkpt><trkpt lat="42.791323" lon="-5.632080"><ele>955.279</ele><time>2015-10-24T12:16:47Z</time></trkpt><trkpt lat="42.791510" lon="-5.632070"><ele>955.269</ele><time>2015-10-24T12:17:02Z</time></trkpt><trkpt lat="42.791717" lon="-5.632061"><ele>955.292</ele><time>2015-10-24T12:17:18Z</time></trkpt><trkpt lat="42.791886" lon="-5.632063"><ele>955.251</ele><time>2015-10-24T12:17:32Z</time></trkpt><trkpt lat="42.792058" lon="-5.632056"><ele>954.716</ele><time>2015-10-24T12:17:47Z</time></trkpt><trkpt lat="42.792242" lon="-5.632024"><ele>954.727</ele><time>2015-10-24T12:18:03Z</time></trkpt><trkpt lat="42.792300" lon="-5.632018"><ele>953.869</ele><time>2015-10-24T12:18:07Z</time></trkpt><trkpt lat="42.792494" lon="-5.632056"><ele>953.347</ele><time>2015-10-24T12:18:21Z</time></trkpt><trkpt lat="42.792656" lon="-5.632090"><ele>952.886</ele><time>2015-10-24T12:18:36Z</time></trkpt><trkpt lat="42.792760" lon="-5.632015"><ele>952.860</ele><time>2015-10-24T12:18:49Z</time></trkpt><trkpt lat="42.792808" lon="-5.631886"><ele>953.826</ele><time>2015-10-24T12:18:59Z</time></trkpt><trkpt lat="42.792867" lon="-5.631700"><ele>955.208</ele><time>2015-10-24T12:19:14Z</time></trkpt><trkpt lat="42.792868" lon="-5.631686"><ele>954.759</ele><time>2015-10-24T12:19:24Z</time></trkpt><trkpt lat="42.793023" lon="-5.631541"><ele>956.249</ele><time>2015-10-24T12:19:41Z</time></trkpt><trkpt lat="42.793081" lon="-5.631458"><ele>956.752</ele><time>2015-10-24T12:19:49Z</time></trkpt><trkpt lat="42.793105" lon="-5.631412"><ele>957.111</ele><time>2015-10-24T12:19:53Z</time></trkpt><trkpt lat="42.793223" lon="-5.631265"><ele>958.196</ele><time>2015-10-24T12:20:09Z</time></trkpt><trkpt lat="42.793275" lon="-5.631189"><ele>959.087</ele><time>2015-10-24T12:20:17Z</time></trkpt><trkpt lat="42.793355" lon="-5.631022"><ele>960.049</ele><time>2015-10-24T12:20:31Z</time></trkpt><trkpt lat="42.793385" lon="-5.631007"><ele>960.557</ele><time>2015-10-24T12:20:42Z</time></trkpt><trkpt lat="42.793412" lon="-5.630918"><ele>960.518</ele><time>2015-10-24T12:20:54Z</time></trkpt><trkpt lat="42.793536" lon="-5.630745"><ele>960.598</ele><time>2015-10-24T12:21:09Z</time></trkpt><trkpt lat="42.793663" lon="-5.630565"><ele>960.517</ele><time>2015-10-24T12:21:25Z</time></trkpt><trkpt lat="42.793787" lon="-5.630373"><ele>960.508</ele><time>2015-10-24T12:21:42Z</time></trkpt><trkpt lat="42.793863" lon="-5.630244"><ele>960.552</ele><time>2015-10-24T12:21:52Z</time></trkpt><trkpt lat="42.793889" lon="-5.630191"><ele>960.532</ele><time>2015-10-24T12:21:56Z</time></trkpt><trkpt lat="42.794028" lon="-5.629960"><ele>960.525</ele><time>2015-10-24T12:22:14Z</time></trkpt><trkpt lat="42.794116" lon="-5.629748"><ele>960.554</ele><time>2015-10-24T12:22:31Z</time></trkpt><trkpt lat="42.794243" lon="-5.629565"><ele>960.089</ele><time>2015-10-24T12:22:45Z</time></trkpt><trkpt lat="42.794252" lon="-5.629557"><ele>960.020</ele><time>2015-10-24T12:22:46Z</time></trkpt><trkpt lat="42.794391" lon="-5.629296"><ele>960.512</ele><time>2015-10-24T12:23:05Z</time></trkpt><trkpt lat="42.794507" lon="-5.629119"><ele>960.580</ele><time>2015-10-24T12:23:22Z</time></trkpt><trkpt lat="42.794614" lon="-5.628946"><ele>961.058</ele><time>2015-10-24T12:23:37Z</time></trkpt><trkpt lat="42.794760" lon="-5.628768"><ele>961.052</ele><time>2015-10-24T12:23:54Z</time></trkpt><trkpt lat="42.794882" lon="-5.628616"><ele>961.517</ele><time>2015-10-24T12:24:09Z</time></trkpt><trkpt lat="42.794990" lon="-5.628440"><ele>961.508</ele><time>2015-10-24T12:24:25Z</time></trkpt><trkpt lat="42.795113" lon="-5.628288"><ele>961.996</ele><time>2015-10-24T12:24:41Z</time></trkpt><trkpt lat="42.795226" lon="-5.628256"><ele>961.946</ele><time>2015-10-24T12:24:51Z</time></trkpt><trkpt lat="42.795267" lon="-5.628254"><ele>961.939</ele><time>2015-10-24T12:24:55Z</time></trkpt><trkpt lat="42.795464" lon="-5.628215"><ele>960.598</ele><time>2015-10-24T12:25:11Z</time></trkpt><trkpt lat="42.795640" lon="-5.628195"><ele>960.563</ele><time>2015-10-24T12:25:26Z</time></trkpt><trkpt lat="42.795857" lon="-5.628180"><ele>960.584</ele><time>2015-10-24T12:25:45Z</time></trkpt><trkpt lat="42.796040" lon="-5.628166"><ele>960.076</ele><time>2015-10-24T12:26:00Z</time></trkpt><trkpt lat="42.796218" lon="-5.628167"><ele>959.564</ele><time>2015-10-24T12:26:16Z</time></trkpt><trkpt lat="42.796409" lon="-5.628156"><ele>959.566</ele><time>2015-10-24T12:26:32Z</time></trkpt><trkpt lat="42.796616" lon="-5.628170"><ele>959.529</ele><time>2015-10-24T12:26:49Z</time></trkpt><trkpt lat="42.796635" lon="-5.628174"><ele>959.521</ele><time>2015-10-24T12:26:51Z</time></trkpt><trkpt lat="42.796848" lon="-5.628190"><ele>959.508</ele><time>2015-10-24T12:27:10Z</time></trkpt><trkpt lat="42.796867" lon="-5.628195"><ele>959.597</ele><time>2015-10-24T12:27:12Z</time></trkpt><trkpt lat="42.797088" lon="-5.628258"><ele>958.617</ele><time>2015-10-24T12:27:31Z</time></trkpt><trkpt lat="42.797121" lon="-5.628256"><ele>958.670</ele><time>2015-10-24T12:27:34Z</time></trkpt><trkpt lat="42.797325" lon="-5.628300"><ele>958.679</ele><time>2015-10-24T12:27:52Z</time></trkpt><trkpt lat="42.797491" lon="-5.628338"><ele>958.664</ele><time>2015-10-24T12:28:07Z</time></trkpt><trkpt lat="42.797528" lon="-5.628338"><ele>958.695</ele><time>2015-10-24T12:28:14Z</time></trkpt><trkpt lat="42.797564" lon="-5.628273"><ele>958.647</ele><time>2015-10-24T12:28:21Z</time></trkpt><trkpt lat="42.797650" lon="-5.628292"><ele>958.645</ele><time>2015-10-24T12:28:30Z</time></trkpt><trkpt lat="42.797790" lon="-5.628269"><ele>958.654</ele><time>2015-10-24T12:28:46Z</time></trkpt><trkpt lat="42.797873" lon="-5.628189"><ele>960.056</ele><time>2015-10-24T12:28:56Z</time></trkpt><trkpt lat="42.797892" lon="-5.628175"><ele>960.011</ele><time>2015-10-24T12:28:58Z</time></trkpt><trkpt lat="42.798070" lon="-5.628019"><ele>961.508</ele><time>2015-10-24T12:29:16Z</time></trkpt><trkpt lat="42.798217" lon="-5.627923"><ele>963.496</ele><time>2015-10-24T12:29:32Z</time></trkpt><trkpt lat="42.798238" lon="-5.627906"><ele>963.936</ele><time>2015-10-24T12:29:35Z</time></trkpt><trkpt lat="42.798376" lon="-5.627810"><ele>965.339</ele><time>2015-10-24T12:29:51Z</time></trkpt><trkpt lat="42.798503" lon="-5.627717"><ele>966.768</ele><time>2015-10-24T12:30:06Z</time></trkpt><trkpt lat="42.798556" lon="-5.627669"><ele>967.293</ele><time>2015-10-24T12:30:13Z</time></trkpt><trkpt lat="42.798573" lon="-5.627661"><ele>967.764</ele><time>2015-10-24T12:30:15Z</time></trkpt><trkpt lat="42.798592" lon="-5.627667"><ele>967.746</ele><time>2015-10-24T12:30:17Z</time></trkpt><trkpt lat="42.798696" lon="-5.627947"><ele>967.744</ele><time>2015-10-24T12:30:36Z</time></trkpt><trkpt lat="42.798721" lon="-5.628144"><ele>968.265</ele><time>2015-10-24T12:30:53Z</time></trkpt><trkpt lat="42.798712" lon="-5.628152"><ele>968.268</ele><time>2015-10-24T12:30:54Z</time></trkpt><trkpt lat="42.798663" lon="-5.628190"><ele>966.714</ele><time>2015-10-24T12:30:59Z</time></trkpt><trkpt lat="42.798554" lon="-5.628318"><ele>965.308</ele><time>2015-10-24T12:31:14Z</time></trkpt><trkpt lat="42.798579" lon="-5.628396"><ele>964.347</ele><time>2015-10-24T12:31:24Z</time></trkpt><trkpt lat="42.798709" lon="-5.628385"><ele>962.997</ele><time>2015-10-24T12:31:40Z</time></trkpt><trkpt lat="42.798631" lon="-5.628290"><ele>961.050</ele><time>2015-10-24T12:31:54Z</time></trkpt><trkpt lat="42.798563" lon="-5.628368"><ele>959.539</ele><time>2015-10-24T12:32:05Z</time></trkpt><trkpt lat="42.798563" lon="-5.628414"><ele>959.564</ele><time>2015-10-24T12:32:09Z</time></trkpt><trkpt lat="42.798687" lon="-5.628514"><ele>959.075</ele><time>2015-10-24T12:32:23Z</time></trkpt><trkpt lat="42.798763" lon="-5.628542"><ele>959.027</ele><time>2015-10-24T12:32:31Z</time></trkpt><trkpt lat="42.798903" lon="-5.628600"><ele>959.065</ele><time>2015-10-24T12:32:44Z</time></trkpt><trkpt lat="42.798969" lon="-5.628591"><ele>959.079</ele><time>2015-10-24T12:32:49Z</time></trkpt><trkpt lat="42.799128" lon="-5.628576"><ele>959.005</ele><time>2015-10-24T12:33:03Z</time></trkpt><trkpt lat="42.799150" lon="-5.628588"><ele>959.025</ele><time>2015-10-24T12:33:05Z</time></trkpt><trkpt lat="42.799195" lon="-5.628583"><ele>959.008</ele><time>2015-10-24T12:33:09Z</time></trkpt><trkpt lat="42.799332" lon="-5.628632"><ele>958.638</ele><time>2015-10-24T12:33:22Z</time></trkpt><trkpt lat="42.799489" lon="-5.628669"><ele>958.688</ele><time>2015-10-24T12:33:36Z</time></trkpt><trkpt lat="42.799512" lon="-5.628665"><ele>958.691</ele><time>2015-10-24T12:33:39Z</time></trkpt><trkpt lat="42.799534" lon="-5.628650"><ele>958.610</ele><time>2015-10-24T12:33:41Z</time></trkpt><trkpt lat="42.799594" lon="-5.628653"><ele>958.655</ele><time>2015-10-24T12:33:46Z</time></trkpt><trkpt lat="42.799693" lon="-5.628702"><ele>958.656</ele><time>2015-10-24T12:33:54Z</time></trkpt><trkpt lat="42.799781" lon="-5.628770"><ele>958.618</ele><time>2015-10-24T12:34:03Z</time></trkpt><trkpt lat="42.799895" lon="-5.628969"><ele>958.646</ele><time>2015-10-24T12:34:17Z</time></trkpt><trkpt lat="42.799931" lon="-5.628995"><ele>958.612</ele><time>2015-10-24T12:34:20Z</time></trkpt><trkpt lat="42.800052" lon="-5.629012"><ele>958.632</ele><time>2015-10-24T12:34:33Z</time></trkpt><trkpt lat="42.800106" lon="-5.629002"><ele>958.605</ele><time>2015-10-24T12:34:38Z</time></trkpt><trkpt lat="42.800145" lon="-5.628990"><ele>958.608</ele><time>2015-10-24T12:34:42Z</time></trkpt><trkpt lat="42.800350" lon="-5.628933"><ele>958.662</ele><time>2015-10-24T12:34:58Z</time></trkpt><trkpt lat="42.800465" lon="-5.628948"><ele>958.672</ele><time>2015-10-24T12:35:10Z</time></trkpt><trkpt lat="42.800642" lon="-5.628925"><ele>958.695</ele><time>2015-10-24T12:35:23Z</time></trkpt><trkpt lat="42.800821" lon="-5.629029"><ele>958.674</ele><time>2015-10-24T12:35:38Z</time></trkpt><trkpt lat="42.800972" lon="-5.629078"><ele>958.649</ele><time>2015-10-24T12:35:52Z</time></trkpt><trkpt lat="42.801048" lon="-5.629097"><ele>958.690</ele><time>2015-10-24T12:35:59Z</time></trkpt><trkpt lat="42.801123" lon="-5.629061"><ele>958.652</ele><time>2015-10-24T12:36:15Z</time></trkpt><trkpt lat="42.801188" lon="-5.629051"><ele>958.630</ele><time>2015-10-24T12:36:28Z</time></trkpt><trkpt lat="42.801226" lon="-5.629054"><ele>958.661</ele><time>2015-10-24T12:36:31Z</time></trkpt><trkpt lat="42.801275" lon="-5.629054"><ele>958.621</ele><time>2015-10-24T12:36:35Z</time></trkpt><trkpt lat="42.801407" lon="-5.628959"><ele>958.613</ele><time>2015-10-24T12:36:48Z</time></trkpt><trkpt lat="42.801530" lon="-5.628923"><ele>958.608</ele><time>2015-10-24T12:36:59Z</time></trkpt><trkpt lat="42.801735" lon="-5.628836"><ele>958.687</ele><time>2015-10-24T12:37:13Z</time></trkpt><trkpt lat="42.801820" lon="-5.628800"><ele>958.677</ele><time>2015-10-24T12:37:20Z</time></trkpt><trkpt lat="42.801869" lon="-5.628774"><ele>958.680</ele><time>2015-10-24T12:37:24Z</time></trkpt><trkpt lat="42.802058" lon="-5.628679"><ele>958.679</ele><time>2015-10-24T12:37:41Z</time></trkpt><trkpt lat="42.802236" lon="-5.628660"><ele>958.614</ele><time>2015-10-24T12:37:56Z</time></trkpt><trkpt lat="42.802397" lon="-5.628663"><ele>958.645</ele><time>2015-10-24T12:38:11Z</time></trkpt><trkpt lat="42.802565" lon="-5.628684"><ele>958.667</ele><time>2015-10-24T12:38:26Z</time></trkpt><trkpt lat="42.802740" lon="-5.628610"><ele>958.685</ele><time>2015-10-24T12:38:41Z</time></trkpt><trkpt lat="42.802858" lon="-5.628570"><ele>958.615</ele><time>2015-10-24T12:38:54Z</time></trkpt><trkpt lat="42.803045" lon="-5.628526"><ele>958.665</ele><time>2015-10-24T12:39:08Z</time></trkpt><trkpt lat="42.803226" lon="-5.628612"><ele>959.011</ele><time>2015-10-24T12:39:23Z</time></trkpt><trkpt lat="42.803396" lon="-5.628563"><ele>959.008</ele><time>2015-10-24T12:39:40Z</time></trkpt><trkpt lat="42.803403" lon="-5.628562"><ele>959.052</ele><time>2015-10-24T12:39:41Z</time></trkpt><trkpt lat="42.803622" lon="-5.628486"><ele>959.012</ele><time>2015-10-24T12:39:59Z</time></trkpt><trkpt lat="42.803733" lon="-5.628459"><ele>959.015</ele><time>2015-10-24T12:40:09Z</time></trkpt><trkpt lat="42.803766" lon="-5.628477"><ele>959.094</ele><time>2015-10-24T12:40:12Z</time></trkpt><trkpt lat="42.803920" lon="-5.628445"><ele>959.089</ele><time>2015-10-24T12:40:27Z</time></trkpt><trkpt lat="42.803952" lon="-5.628435"><ele>960.540</ele><time>2015-10-24T12:40:30Z</time></trkpt><trkpt lat="42.804092" lon="-5.628379"><ele>960.522</ele><time>2015-10-24T12:40:43Z</time></trkpt><trkpt lat="42.804270" lon="-5.628363"><ele>960.580</ele><time>2015-10-24T12:40:58Z</time></trkpt><trkpt lat="42.804419" lon="-5.628312"><ele>961.013</ele><time>2015-10-24T12:41:13Z</time></trkpt><trkpt lat="42.804500" lon="-5.628297"><ele>961.043</ele><time>2015-10-24T12:41:21Z</time></trkpt><trkpt lat="42.804711" lon="-5.628260"><ele>961.507</ele><time>2015-10-24T12:41:38Z</time></trkpt><trkpt lat="42.804760" lon="-5.628253"><ele>961.508</ele><time>2015-10-24T12:41:42Z</time></trkpt><trkpt lat="42.804855" lon="-5.628241"><ele>961.522</ele><time>2015-10-24T12:41:49Z</time></trkpt><trkpt lat="42.804963" lon="-5.628248"><ele>961.982</ele><time>2015-10-24T12:41:57Z</time></trkpt><trkpt lat="42.805118" lon="-5.628205"><ele>961.985</ele><time>2015-10-24T12:42:12Z</time></trkpt><trkpt lat="42.805303" lon="-5.628140"><ele>962.494</ele><time>2015-10-24T12:42:29Z</time></trkpt><trkpt lat="42.805422" lon="-5.628161"><ele>962.429</ele><time>2015-10-24T12:42:41Z</time></trkpt><trkpt lat="42.805610" lon="-5.628151"><ele>962.940</ele><time>2015-10-24T12:42:57Z</time></trkpt><trkpt lat="42.805761" lon="-5.628145"><ele>962.942</ele><time>2015-10-24T12:43:12Z</time></trkpt><trkpt lat="42.805885" lon="-5.628098"><ele>963.440</ele><time>2015-10-24T12:43:25Z</time></trkpt><trkpt lat="42.806064" lon="-5.628056"><ele>963.429</ele><time>2015-10-24T12:43:40Z</time></trkpt><trkpt lat="42.806179" lon="-5.628007"><ele>963.900</ele><time>2015-10-24T12:43:53Z</time></trkpt><trkpt lat="42.806307" lon="-5.627953"><ele>963.920</ele><time>2015-10-24T12:44:04Z</time></trkpt><trkpt lat="42.806419" lon="-5.627916"><ele>964.308</ele><time>2015-10-24T12:44:13Z</time></trkpt><trkpt lat="42.806595" lon="-5.627854"><ele>964.333</ele><time>2015-10-24T12:44:26Z</time></trkpt><trkpt lat="42.806765" lon="-5.627830"><ele>964.313</ele><time>2015-10-24T12:44:39Z</time></trkpt><trkpt lat="42.806788" lon="-5.627819"><ele>964.386</ele><time>2015-10-24T12:44:41Z</time></trkpt><trkpt lat="42.806892" lon="-5.627810"><ele>965.845</ele><time>2015-10-24T12:44:50Z</time></trkpt><trkpt lat="42.806936" lon="-5.627811"><ele>965.810</ele><time>2015-10-24T12:44:54Z</time></trkpt><trkpt lat="42.806969" lon="-5.627787"><ele>964.311</ele><time>2015-10-24T12:44:57Z</time></trkpt><trkpt lat="42.807062" lon="-5.627794"><ele>964.323</ele><time>2015-10-24T12:45:04Z</time></trkpt><trkpt lat="42.807156" lon="-5.627882"><ele>964.331</ele><time>2015-10-24T12:45:12Z</time></trkpt><trkpt lat="42.807180" lon="-5.627890"><ele>964.394</ele><time>2015-10-24T12:45:14Z</time></trkpt><trkpt lat="42.807317" lon="-5.627888"><ele>964.357</ele><time>2015-10-24T12:45:26Z</time></trkpt><trkpt lat="42.807355" lon="-5.627890"><ele>964.322</ele><time>2015-10-24T12:45:29Z</time></trkpt><trkpt lat="42.807376" lon="-5.627898"><ele>964.308</ele><time>2015-10-24T12:45:31Z</time></trkpt><trkpt lat="42.807437" lon="-5.627882"><ele>964.350</ele><time>2015-10-24T12:45:36Z</time></trkpt><trkpt lat="42.807502" lon="-5.627876"><ele>964.390</ele><time>2015-10-24T12:45:42Z</time></trkpt><trkpt lat="42.807546" lon="-5.627882"><ele>964.363</ele><time>2015-10-24T12:45:46Z</time></trkpt><trkpt lat="42.807638" lon="-5.627830"><ele>964.372</ele><time>2015-10-24T12:45:55Z</time></trkpt><trkpt lat="42.807668" lon="-5.627810"><ele>964.337</ele><time>2015-10-24T12:45:58Z</time></trkpt><trkpt lat="42.807796" lon="-5.627803"><ele>964.368</ele><time>2015-10-24T12:46:10Z</time></trkpt><trkpt lat="42.807839" lon="-5.627833"><ele>965.320</ele><time>2015-10-24T12:46:15Z</time></trkpt><trkpt lat="42.807854" lon="-5.627872"><ele>965.368</ele><time>2015-10-24T12:46:18Z</time></trkpt><trkpt lat="42.807873" lon="-5.628032"><ele>965.334</ele><time>2015-10-24T12:46:28Z</time></trkpt><trkpt lat="42.807879" lon="-5.628072"><ele>965.355</ele><time>2015-10-24T12:46:31Z</time></trkpt><trkpt lat="42.807899" lon="-5.628232"><ele>965.310</ele><time>2015-10-24T12:46:42Z</time></trkpt><trkpt lat="42.807910" lon="-5.628364"><ele>965.308</ele><time>2015-10-24T12:46:56Z</time></trkpt><trkpt lat="42.807927" lon="-5.628383"><ele>964.894</ele><time>2015-10-24T12:47:10Z</time></trkpt><trkpt lat="42.807978" lon="-5.628435"><ele>961.024</ele><time>2015-10-25T06:46:01Z</time></trkpt><trkpt lat="42.807984" lon="-5.628418"><ele>961.017</ele><time>2015-10-25T06:46:02Z</time></trkpt><trkpt lat="42.807978" lon="-5.628408"><ele>856.796</ele><time>2015-10-25T06:46:09Z</time></trkpt><trkpt lat="42.807976" lon="-5.628408"><ele>855.771</ele><time>2015-10-25T06:46:12Z</time></trkpt><trkpt lat="42.807930" lon="-5.628394"><ele>856.772</ele><time>2015-10-25T06:46:32Z</time></trkpt><trkpt lat="42.807926" lon="-5.628293"><ele>858.194</ele><time>2015-10-25T06:46:58Z</time></trkpt><trkpt lat="42.807920" lon="-5.628172"><ele>858.192</ele><time>2015-10-25T06:47:15Z</time></trkpt><trkpt lat="42.807929" lon="-5.628086"><ele>859.161</ele><time>2015-10-25T06:47:35Z</time></trkpt><trkpt lat="42.807895" lon="-5.627886"><ele>860.021</ele><time>2015-10-25T06:47:53Z</time></trkpt><trkpt lat="42.807946" lon="-5.627853"><ele>862.013</ele><time>2015-10-25T06:48:00Z</time></trkpt><trkpt lat="42.808135" lon="-5.627816"><ele>862.908</ele><time>2015-10-25T06:48:19Z</time></trkpt><trkpt lat="42.808325" lon="-5.627792"><ele>864.447</ele><time>2015-10-25T06:48:37Z</time></trkpt><trkpt lat="42.808398" lon="-5.627760"><ele>867.767</ele><time>2015-10-25T06:48:43Z</time></trkpt><trkpt lat="42.808587" lon="-5.627697"><ele>865.880</ele><time>2015-10-25T06:49:01Z</time></trkpt><trkpt lat="42.808723" lon="-5.627653"><ele>867.799</ele><time>2015-10-25T06:49:14Z</time></trkpt><trkpt lat="42.808931" lon="-5.627603"><ele>868.234</ele><time>2015-10-25T06:49:32Z</time></trkpt><trkpt lat="42.809162" lon="-5.627549"><ele>870.125</ele><time>2015-10-25T06:49:51Z</time></trkpt><trkpt lat="42.809359" lon="-5.627493"><ele>871.687</ele><time>2015-10-25T06:50:08Z</time></trkpt><trkpt lat="42.809581" lon="-5.627428"><ele>872.535</ele><time>2015-10-25T06:50:26Z</time></trkpt><trkpt lat="42.809825" lon="-5.627369"><ele>873.579</ele><time>2015-10-25T06:50:45Z</time></trkpt><trkpt lat="42.810021" lon="-5.627301"><ele>874.005</ele><time>2015-10-25T06:51:01Z</time></trkpt><trkpt lat="42.810271" lon="-5.627244"><ele>874.925</ele><time>2015-10-25T06:51:21Z</time></trkpt><trkpt lat="42.810514" lon="-5.627181"><ele>874.908</ele><time>2015-10-25T06:51:40Z</time></trkpt><trkpt lat="42.810711" lon="-5.627115"><ele>875.448</ele><time>2015-10-25T06:51:57Z</time></trkpt><trkpt lat="42.810947" lon="-5.627038"><ele>875.998</ele><time>2015-10-25T06:52:16Z</time></trkpt><trkpt lat="42.811170" lon="-5.626933"><ele>876.491</ele><time>2015-10-25T06:52:34Z</time></trkpt><trkpt lat="42.811355" lon="-5.626853"><ele>876.930</ele><time>2015-10-25T06:52:50Z</time></trkpt><trkpt lat="42.811530" lon="-5.626767"><ele>877.325</ele><time>2015-10-25T06:53:05Z</time></trkpt><trkpt lat="42.811719" lon="-5.626715"><ele>878.356</ele><time>2015-10-25T06:53:21Z</time></trkpt><trkpt lat="42.811915" lon="-5.626683"><ele>878.818</ele><time>2015-10-25T06:53:36Z</time></trkpt><trkpt lat="42.812127" lon="-5.626653"><ele>879.356</ele><time>2015-10-25T06:53:51Z</time></trkpt><trkpt lat="42.812359" lon="-5.626614"><ele>880.236</ele><time>2015-10-25T06:54:08Z</time></trkpt><trkpt lat="42.812569" lon="-5.626573"><ele>880.717</ele><time>2015-10-25T06:54:24Z</time></trkpt><trkpt lat="42.812793" lon="-5.626487"><ele>881.718</ele><time>2015-10-25T06:54:42Z</time></trkpt><trkpt lat="42.812959" lon="-5.626375"><ele>882.608</ele><time>2015-10-25T06:54:57Z</time></trkpt><trkpt lat="42.813147" lon="-5.626232"><ele>883.114</ele><time>2015-10-25T06:55:14Z</time></trkpt><trkpt lat="42.813340" lon="-5.626060"><ele>884.174</ele><time>2015-10-25T06:55:31Z</time></trkpt><trkpt lat="42.813536" lon="-5.625903"><ele>885.067</ele><time>2015-10-25T06:55:49Z</time></trkpt><trkpt lat="42.813743" lon="-5.625731"><ele>885.536</ele><time>2015-10-25T06:56:07Z</time></trkpt><trkpt lat="42.813960" lon="-5.625581"><ele>886.051</ele><time>2015-10-25T06:56:25Z</time></trkpt><trkpt lat="42.814157" lon="-5.625429"><ele>886.512</ele><time>2015-10-25T06:56:42Z</time></trkpt><trkpt lat="42.814359" lon="-5.625295"><ele>887.064</ele><time>2015-10-25T06:56:59Z</time></trkpt><trkpt lat="42.814453" lon="-5.625238"><ele>887.012</ele><time>2015-10-25T06:57:07Z</time></trkpt><trkpt lat="42.814509" lon="-5.625194"><ele>887.019</ele><time>2015-10-25T06:57:12Z</time></trkpt><trkpt lat="42.814720" lon="-5.625082"><ele>887.409</ele><time>2015-10-25T06:57:29Z</time></trkpt><trkpt lat="42.814912" lon="-5.624983"><ele>887.919</ele><time>2015-10-25T06:57:46Z</time></trkpt><trkpt lat="42.815131" lon="-5.624876"><ele>888.408</ele><time>2015-10-25T06:58:03Z</time></trkpt><trkpt lat="42.815342" lon="-5.624736"><ele>889.412</ele><time>2015-10-25T06:58:21Z</time></trkpt><trkpt lat="42.815540" lon="-5.624622"><ele>889.842</ele><time>2015-10-25T06:58:38Z</time></trkpt><trkpt lat="42.815638" lon="-5.624645"><ele>890.315</ele><time>2015-10-25T06:58:57Z</time></trkpt><trkpt lat="42.815838" lon="-5.624525"><ele>891.354</ele><time>2015-10-25T06:59:16Z</time></trkpt><trkpt lat="42.816041" lon="-5.624410"><ele>891.879</ele><time>2015-10-25T06:59:34Z</time></trkpt><trkpt lat="42.816208" lon="-5.624295"><ele>892.750</ele><time>2015-10-25T06:59:50Z</time></trkpt><trkpt lat="42.816404" lon="-5.624214"><ele>893.232</ele><time>2015-10-25T07:00:07Z</time></trkpt><trkpt lat="42.816584" lon="-5.624159"><ele>895.130</ele><time>2015-10-25T07:00:23Z</time></trkpt><trkpt lat="42.816638" lon="-5.624149"><ele>895.677</ele><time>2015-10-25T07:00:27Z</time></trkpt><trkpt lat="42.816827" lon="-5.624064"><ele>896.161</ele><time>2015-10-25T07:00:43Z</time></trkpt><trkpt lat="42.817055" lon="-5.624042"><ele>897.527</ele><time>2015-10-25T07:01:01Z</time></trkpt><trkpt lat="42.817270" lon="-5.624050"><ele>899.008</ele><time>2015-10-25T07:01:17Z</time></trkpt><trkpt lat="42.817449" lon="-5.624079"><ele>899.928</ele><time>2015-10-25T07:01:32Z</time></trkpt><trkpt lat="42.817531" lon="-5.624077"><ele>900.478</ele><time>2015-10-25T07:01:39Z</time></trkpt><trkpt lat="42.817730" lon="-5.624102"><ele>901.831</ele><time>2015-10-25T07:01:57Z</time></trkpt><trkpt lat="42.817929" lon="-5.624225"><ele>902.870</ele><time>2015-10-25T07:02:14Z</time></trkpt><trkpt lat="42.818027" lon="-5.624300"><ele>903.845</ele><time>2015-10-25T07:02:29Z</time></trkpt><trkpt lat="42.818074" lon="-5.624330"><ele>904.316</ele><time>2015-10-25T07:02:41Z</time></trkpt><trkpt lat="42.818172" lon="-5.624520"><ele>904.738</ele><time>2015-10-25T07:02:57Z</time></trkpt><trkpt lat="42.818181" lon="-5.624592"><ele>905.736</ele><time>2015-10-25T07:03:15Z</time></trkpt><trkpt lat="42.818338" lon="-5.624773"><ele>906.234</ele><time>2015-10-25T07:03:32Z</time></trkpt><trkpt lat="42.818448" lon="-5.624983"><ele>905.755</ele><time>2015-10-25T07:03:48Z</time></trkpt><trkpt lat="42.818539" lon="-5.625276"><ele>906.210</ele><time>2015-10-25T07:04:06Z</time></trkpt><trkpt lat="42.818631" lon="-5.625584"><ele>906.208</ele><time>2015-10-25T07:04:24Z</time></trkpt><trkpt lat="42.818735" lon="-5.625892"><ele>906.284</ele><time>2015-10-25T07:04:44Z</time></trkpt><trkpt lat="42.818822" lon="-5.626209"><ele>906.794</ele><time>2015-10-25T07:05:03Z</time></trkpt><trkpt lat="42.818915" lon="-5.626509"><ele>907.177</ele><time>2015-10-25T07:05:22Z</time></trkpt><trkpt lat="42.819012" lon="-5.626775"><ele>907.646</ele><time>2015-10-25T07:05:40Z</time></trkpt><trkpt lat="42.819097" lon="-5.626997"><ele>908.141</ele><time>2015-10-25T07:05:55Z</time></trkpt><trkpt lat="42.819167" lon="-5.627232"><ele>908.682</ele><time>2015-10-25T07:06:11Z</time></trkpt><trkpt lat="42.819198" lon="-5.627401"><ele>909.164</ele><time>2015-10-25T07:06:21Z</time></trkpt><trkpt lat="42.819219" lon="-5.627437"><ele>909.172</ele><time>2015-10-25T07:06:24Z</time></trkpt><trkpt lat="42.819282" lon="-5.627696"><ele>909.592</ele><time>2015-10-25T07:06:40Z</time></trkpt><trkpt lat="42.819361" lon="-5.627964"><ele>910.073</ele><time>2015-10-25T07:06:57Z</time></trkpt><trkpt lat="42.819437" lon="-5.628236"><ele>910.520</ele><time>2015-10-25T07:07:13Z</time></trkpt><trkpt lat="42.819476" lon="-5.628389"><ele>912.408</ele><time>2015-10-25T07:07:25Z</time></trkpt><trkpt lat="42.819510" lon="-5.628597"><ele>912.910</ele><time>2015-10-25T07:07:40Z</time></trkpt><trkpt lat="42.819587" lon="-5.628800"><ele>913.460</ele><time>2015-10-25T07:07:55Z</time></trkpt><trkpt lat="42.819615" lon="-5.629033"><ele>914.323</ele><time>2015-10-25T07:08:10Z</time></trkpt><trkpt lat="42.819683" lon="-5.629284"><ele>914.832</ele><time>2015-10-25T07:08:24Z</time></trkpt><trkpt lat="42.819784" lon="-5.629554"><ele>915.857</ele><time>2015-10-25T07:08:40Z</time></trkpt><trkpt lat="42.819881" lon="-5.629847"><ele>916.848</ele><time>2015-10-25T07:08:56Z</time></trkpt><trkpt lat="42.819877" lon="-5.630126"><ele>917.250</ele><time>2015-10-25T07:09:12Z</time></trkpt><trkpt lat="42.819874" lon="-5.630366"><ele>918.258</ele><time>2015-10-25T07:09:27Z</time></trkpt><trkpt lat="42.819915" lon="-5.630604"><ele>918.733</ele><time>2015-10-25T07:09:42Z</time></trkpt><trkpt lat="42.819958" lon="-5.630929"><ele>919.623</ele><time>2015-10-25T07:10:01Z</time></trkpt><trkpt lat="42.819970" lon="-5.631248"><ele>920.115</ele><time>2015-10-25T07:10:20Z</time></trkpt><trkpt lat="42.819965" lon="-5.631329"><ele>920.608</ele><time>2015-10-25T07:10:25Z</time></trkpt><trkpt lat="42.819960" lon="-5.631606"><ele>921.684</ele><time>2015-10-25T07:10:42Z</time></trkpt><trkpt lat="42.819945" lon="-5.631896"><ele>921.674</ele><time>2015-10-25T07:10:59Z</time></trkpt><trkpt lat="42.819939" lon="-5.632262"><ele>922.577</ele><time>2015-10-25T07:11:20Z</time></trkpt><trkpt lat="42.819930" lon="-5.632579"><ele>922.516</ele><time>2015-10-25T07:11:39Z</time></trkpt><trkpt lat="42.819953" lon="-5.632891"><ele>924.081</ele><time>2015-10-25T07:11:58Z</time></trkpt><trkpt lat="42.820007" lon="-5.633190"><ele>925.932</ele><time>2015-10-25T07:12:17Z</time></trkpt><trkpt lat="42.820045" lon="-5.633477"><ele>927.364</ele><time>2015-10-25T07:12:34Z</time></trkpt><trkpt lat="42.820080" lon="-5.633688"><ele>928.862</ele><time>2015-10-25T07:12:48Z</time></trkpt><trkpt lat="42.820120" lon="-5.633988"><ele>930.253</ele><time>2015-10-25T07:13:08Z</time></trkpt><trkpt lat="42.820157" lon="-5.634205"><ele>931.704</ele><time>2015-10-25T07:13:22Z</time></trkpt><trkpt lat="42.820182" lon="-5.634483"><ele>932.614</ele><time>2015-10-25T07:13:39Z</time></trkpt><trkpt lat="42.820210" lon="-5.634772"><ele>934.108</ele><time>2015-10-25T07:13:56Z</time></trkpt><trkpt lat="42.820255" lon="-5.634994"><ele>935.046</ele><time>2015-10-25T07:14:13Z</time></trkpt><trkpt lat="42.820261" lon="-5.635003"><ele>935.556</ele><time>2015-10-25T07:14:14Z</time></trkpt><trkpt lat="42.820385" lon="-5.635164"><ele>936.919</ele><time>2015-10-25T07:14:32Z</time></trkpt><trkpt lat="42.820516" lon="-5.635244"><ele>937.948</ele><time>2015-10-25T07:14:48Z</time></trkpt><trkpt lat="42.820705" lon="-5.635327"><ele>938.463</ele><time>2015-10-25T07:15:05Z</time></trkpt><trkpt lat="42.820968" lon="-5.635502"><ele>938.974</ele><time>2015-10-25T07:15:26Z</time></trkpt><trkpt lat="42.821134" lon="-5.635727"><ele>939.366</ele><time>2015-10-25T07:15:45Z</time></trkpt><trkpt lat="42.821243" lon="-5.636009"><ele>937.954</ele><time>2015-10-25T07:16:04Z</time></trkpt><trkpt lat="42.821313" lon="-5.636252"><ele>937.413</ele><time>2015-10-25T07:16:20Z</time></trkpt><trkpt lat="42.821357" lon="-5.636523"><ele>937.943</ele><time>2015-10-25T07:16:36Z</time></trkpt><trkpt lat="42.821406" lon="-5.636623"><ele>937.907</ele><time>2015-10-25T07:16:44Z</time></trkpt><trkpt lat="42.821539" lon="-5.636902"><ele>937.408</ele><time>2015-10-25T07:17:04Z</time></trkpt><trkpt lat="42.821649" lon="-5.637171"><ele>937.492</ele><time>2015-10-25T07:17:22Z</time></trkpt><trkpt lat="42.821763" lon="-5.637466"><ele>936.922</ele><time>2015-10-25T07:17:41Z</time></trkpt><trkpt lat="42.821903" lon="-5.637663"><ele>936.925</ele><time>2015-10-25T07:17:58Z</time></trkpt><trkpt lat="42.822073" lon="-5.637860"><ele>936.964</ele><time>2015-10-25T07:18:16Z</time></trkpt><trkpt lat="42.822278" lon="-5.638072"><ele>937.499</ele><time>2015-10-25T07:18:37Z</time></trkpt><trkpt lat="42.822477" lon="-5.638305"><ele>937.910</ele><time>2015-10-25T07:18:57Z</time></trkpt><trkpt lat="42.822638" lon="-5.638494"><ele>937.952</ele><time>2015-10-25T07:19:14Z</time></trkpt><trkpt lat="42.822839" lon="-5.638687"><ele>938.470</ele><time>2015-10-25T07:19:34Z</time></trkpt><trkpt lat="42.823007" lon="-5.638871"><ele>938.958</ele><time>2015-10-25T07:19:52Z</time></trkpt><trkpt lat="42.823213" lon="-5.639104"><ele>939.352</ele><time>2015-10-25T07:20:13Z</time></trkpt><trkpt lat="42.823386" lon="-5.639293"><ele>939.817</ele><time>2015-10-25T07:20:31Z</time></trkpt><trkpt lat="42.823586" lon="-5.639504"><ele>939.808</ele><time>2015-10-25T07:20:52Z</time></trkpt><trkpt lat="42.823759" lon="-5.639692"><ele>940.336</ele><time>2015-10-25T07:21:10Z</time></trkpt><trkpt lat="42.823915" lon="-5.639884"><ele>940.876</ele><time>2015-10-25T07:21:26Z</time></trkpt><trkpt lat="42.823930" lon="-5.639910"><ele>940.879</ele><time>2015-10-25T07:21:28Z</time></trkpt><trkpt lat="42.824100" lon="-5.640145"><ele>941.348</ele><time>2015-10-25T07:21:49Z</time></trkpt><trkpt lat="42.824226" lon="-5.640322"><ele>941.833</ele><time>2015-10-25T07:22:05Z</time></trkpt><trkpt lat="42.824404" lon="-5.640487"><ele>942.234</ele><time>2015-10-25T07:22:24Z</time></trkpt><trkpt lat="42.824441" lon="-5.640532"><ele>942.216</ele><time>2015-10-25T07:22:28Z</time></trkpt><trkpt lat="42.824482" lon="-5.640581"><ele>942.234</ele><time>2015-10-25T07:22:32Z</time></trkpt><trkpt lat="42.824642" lon="-5.640799"><ele>943.734</ele><time>2015-10-25T07:22:50Z</time></trkpt><trkpt lat="42.824814" lon="-5.640978"><ele>944.655</ele><time>2015-10-25T07:23:08Z</time></trkpt><trkpt lat="42.824979" lon="-5.641182"><ele>945.610</ele><time>2015-10-25T07:23:26Z</time></trkpt><trkpt lat="42.825127" lon="-5.641389"><ele>946.608</ele><time>2015-10-25T07:23:43Z</time></trkpt><trkpt lat="42.825318" lon="-5.641640"><ele>948.094</ele><time>2015-10-25T07:24:05Z</time></trkpt><trkpt lat="42.825484" lon="-5.641858"><ele>948.094</ele><time>2015-10-25T07:24:23Z</time></trkpt><trkpt lat="42.825678" lon="-5.642105"><ele>948.557</ele><time>2015-10-25T07:24:44Z</time></trkpt><trkpt lat="42.825846" lon="-5.642339"><ele>949.056</ele><time>2015-10-25T07:25:04Z</time></trkpt><trkpt lat="42.826019" lon="-5.642546"><ele>949.471</ele><time>2015-10-25T07:25:23Z</time></trkpt><trkpt lat="42.826150" lon="-5.642712"><ele>949.982</ele><time>2015-10-25T07:25:37Z</time></trkpt><trkpt lat="42.826184" lon="-5.642757"><ele>949.944</ele><time>2015-10-25T07:25:41Z</time></trkpt><trkpt lat="42.826347" lon="-5.642987"><ele>950.952</ele><time>2015-10-25T07:26:00Z</time></trkpt><trkpt lat="42.826508" lon="-5.643215"><ele>951.843</ele><time>2015-10-25T07:26:19Z</time></trkpt><trkpt lat="42.826672" lon="-5.643426"><ele>953.364</ele><time>2015-10-25T07:26:37Z</time></trkpt><trkpt lat="42.826856" lon="-5.643657"><ele>953.810</ele><time>2015-10-25T07:26:58Z</time></trkpt><trkpt lat="42.827027" lon="-5.643866"><ele>954.708</ele><time>2015-10-25T07:27:17Z</time></trkpt><trkpt lat="42.827173" lon="-5.644091"><ele>955.725</ele><time>2015-10-25T07:27:36Z</time></trkpt><trkpt lat="42.827346" lon="-5.644315"><ele>956.755</ele><time>2015-10-25T07:27:56Z</time></trkpt><trkpt lat="42.827391" lon="-5.644418"><ele>957.198</ele><time>2015-10-25T07:28:03Z</time></trkpt><trkpt lat="42.827463" lon="-5.644469"><ele>957.187</ele><time>2015-10-25T07:28:11Z</time></trkpt><trkpt lat="42.827583" lon="-5.644620"><ele>958.192</ele><time>2015-10-25T07:28:26Z</time></trkpt><trkpt lat="42.827533" lon="-5.644926"><ele>958.633</ele><time>2015-10-25T07:28:42Z</time></trkpt><trkpt lat="42.827440" lon="-5.645179"><ele>957.635</ele><time>2015-10-25T07:28:57Z</time></trkpt><trkpt lat="42.827316" lon="-5.645425"><ele>957.633</ele><time>2015-10-25T07:29:13Z</time></trkpt><trkpt lat="42.827295" lon="-5.645482"><ele>957.677</ele><time>2015-10-25T07:29:17Z</time></trkpt><trkpt lat="42.827256" lon="-5.645527"><ele>957.661</ele><time>2015-10-25T07:29:21Z</time></trkpt><trkpt lat="42.827170" lon="-5.645692"><ele>957.627</ele><time>2015-10-25T07:29:34Z</time></trkpt><trkpt lat="42.827125" lon="-5.645733"><ele>957.608</ele><time>2015-10-25T07:29:38Z</time></trkpt><trkpt lat="42.827103" lon="-5.646062"><ele>957.658</ele><time>2015-10-25T07:29:57Z</time></trkpt><trkpt lat="42.827191" lon="-5.646295"><ele>957.668</ele><time>2015-10-25T07:30:15Z</time></trkpt><trkpt lat="42.827285" lon="-5.646544"><ele>958.121</ele><time>2015-10-25T07:30:32Z</time></trkpt><trkpt lat="42.827388" lon="-5.646802"><ele>958.170</ele><time>2015-10-25T07:30:51Z</time></trkpt><trkpt lat="42.827489" lon="-5.647044"><ele>958.195</ele><time>2015-10-25T07:31:09Z</time></trkpt><trkpt lat="42.827587" lon="-5.647301"><ele>958.616</ele><time>2015-10-25T07:31:26Z</time></trkpt><trkpt lat="42.827685" lon="-5.647526"><ele>958.658</ele><time>2015-10-25T07:31:42Z</time></trkpt><trkpt lat="42.827778" lon="-5.647770"><ele>958.696</ele><time>2015-10-25T07:31:59Z</time></trkpt><trkpt lat="42.827903" lon="-5.648047"><ele>959.056</ele><time>2015-10-25T07:32:18Z</time></trkpt><trkpt lat="42.828016" lon="-5.648328"><ele>959.059</ele><time>2015-10-25T07:32:38Z</time></trkpt><trkpt lat="42.828129" lon="-5.648609"><ele>959.514</ele><time>2015-10-25T07:32:57Z</time></trkpt><trkpt lat="42.828210" lon="-5.648818"><ele>959.508</ele><time>2015-10-25T07:33:11Z</time></trkpt><trkpt lat="42.828220" lon="-5.648859"><ele>959.586</ele><time>2015-10-25T07:33:21Z</time></trkpt><trkpt lat="42.828265" lon="-5.648946"><ele>960.026</ele><time>2015-10-25T07:33:28Z</time></trkpt><trkpt lat="42.828400" lon="-5.649234"><ele>960.049</ele><time>2015-10-25T07:33:49Z</time></trkpt><trkpt lat="42.828494" lon="-5.649479"><ele>960.588</ele><time>2015-10-25T07:34:06Z</time></trkpt><trkpt lat="42.828603" lon="-5.649737"><ele>960.543</ele><time>2015-10-25T07:34:24Z</time></trkpt><trkpt lat="42.828730" lon="-5.650050"><ele>960.564</ele><time>2015-10-25T07:34:45Z</time></trkpt><trkpt lat="42.828859" lon="-5.650309"><ele>961.956</ele><time>2015-10-25T07:35:04Z</time></trkpt><trkpt lat="42.828973" lon="-5.650596"><ele>962.464</ele><time>2015-10-25T07:35:24Z</time></trkpt><trkpt lat="42.829083" lon="-5.650886"><ele>962.463</ele><time>2015-10-25T07:35:44Z</time></trkpt><trkpt lat="42.829203" lon="-5.651157"><ele>962.944</ele><time>2015-10-25T07:36:03Z</time></trkpt><trkpt lat="42.829309" lon="-5.651451"><ele>963.418</ele><time>2015-10-25T07:36:23Z</time></trkpt><trkpt lat="42.829432" lon="-5.651736"><ele>963.908</ele><time>2015-10-25T07:36:43Z</time></trkpt><trkpt lat="42.829546" lon="-5.652010"><ele>964.357</ele><time>2015-10-25T07:37:02Z</time></trkpt><trkpt lat="42.829668" lon="-5.652277"><ele>964.857</ele><time>2015-10-25T07:37:21Z</time></trkpt><trkpt lat="42.829770" lon="-5.652545"><ele>964.880</ele><time>2015-10-25T07:37:40Z</time></trkpt><trkpt lat="42.829872" lon="-5.652766"><ele>965.319</ele><time>2015-10-25T07:37:56Z</time></trkpt><trkpt lat="42.830002" lon="-5.653007"><ele>965.834</ele><time>2015-10-25T07:38:14Z</time></trkpt><trkpt lat="42.830103" lon="-5.653243"><ele>966.355</ele><time>2015-10-25T07:38:31Z</time></trkpt><trkpt lat="42.830228" lon="-5.653479"><ele>966.317</ele><time>2015-10-25T07:38:49Z</time></trkpt><trkpt lat="42.830386" lon="-5.653735"><ele>966.755</ele><time>2015-10-25T07:39:09Z</time></trkpt><trkpt lat="42.830524" lon="-5.653954"><ele>966.724</ele><time>2015-10-25T07:39:27Z</time></trkpt><trkpt lat="42.830595" lon="-5.654058"><ele>966.704</ele><time>2015-10-25T07:39:36Z</time></trkpt><trkpt lat="42.830761" lon="-5.654251"><ele>967.214</ele><time>2015-10-25T07:39:55Z</time></trkpt><trkpt lat="42.830919" lon="-5.654336"><ele>967.208</ele><time>2015-10-25T07:40:12Z</time></trkpt><trkpt lat="42.830954" lon="-5.654340"><ele>967.723</ele><time>2015-10-25T07:40:16Z</time></trkpt><trkpt lat="42.830972" lon="-5.654333"><ele>967.793</ele><time>2015-10-25T07:40:18Z</time></trkpt><trkpt lat="42.830999" lon="-5.654326"><ele>967.796</ele><time>2015-10-25T07:40:32Z</time></trkpt><trkpt lat="42.831042" lon="-5.654289"><ele>968.215</ele><time>2015-10-25T07:40:52Z</time></trkpt><trkpt lat="42.831071" lon="-5.654244"><ele>968.250</ele><time>2015-10-25T07:40:58Z</time></trkpt><trkpt lat="42.831125" lon="-5.654231"><ele>968.221</ele><time>2015-10-25T07:41:03Z</time></trkpt><trkpt lat="42.831153" lon="-5.654217"><ele>968.223</ele><time>2015-10-25T07:41:06Z</time></trkpt><trkpt lat="42.831194" lon="-5.654229"><ele>968.711</ele><time>2015-10-25T07:41:10Z</time></trkpt><trkpt lat="42.831319" lon="-5.654261"><ele>968.757</ele><time>2015-10-25T07:41:24Z</time></trkpt><trkpt lat="42.831443" lon="-5.654282"><ele>970.100</ele><time>2015-10-25T07:41:38Z</time></trkpt><trkpt lat="42.831494" lon="-5.654185"><ele>970.620</ele><time>2015-10-25T07:41:48Z</time></trkpt><trkpt lat="42.831525" lon="-5.654134"><ele>970.608</ele><time>2015-10-25T07:41:53Z</time></trkpt><trkpt lat="42.831620" lon="-5.653946"><ele>971.576</ele><time>2015-10-25T07:42:12Z</time></trkpt><trkpt lat="42.831660" lon="-5.653930"><ele>972.036</ele><time>2015-10-25T07:42:25Z</time></trkpt><trkpt lat="42.831698" lon="-5.653908"><ele>972.569</ele><time>2015-10-25T07:42:44Z</time></trkpt><trkpt lat="42.831717" lon="-5.653876"><ele>972.558</ele><time>2015-10-25T07:43:12Z</time></trkpt><trkpt lat="42.831706" lon="-5.653869"><ele>973.093</ele><time>2015-10-25T07:43:46Z</time></trkpt><trkpt lat="42.831714" lon="-5.653855"><ele>973.594</ele><time>2015-10-25T07:44:16Z</time></trkpt><trkpt lat="42.831733" lon="-5.653856"><ele>974.096</ele><time>2015-10-25T07:44:38Z</time></trkpt><trkpt lat="42.831706" lon="-5.653874"><ele>974.494</ele><time>2015-10-25T07:45:19Z</time></trkpt><trkpt lat="42.831719" lon="-5.653868"><ele>974.924</ele><time>2015-10-25T07:46:00Z</time></trkpt><trkpt lat="42.831735" lon="-5.653888"><ele>974.904</ele><time>2015-10-25T07:46:41Z</time></trkpt><trkpt lat="42.831724" lon="-5.653897"><ele>975.414</ele><time>2015-10-25T07:47:20Z</time></trkpt><trkpt lat="42.831706" lon="-5.653904"><ele>975.908</ele><time>2015-10-25T07:47:55Z</time></trkpt><trkpt lat="42.831715" lon="-5.653887"><ele>975.923</ele><time>2015-10-25T07:48:30Z</time></trkpt><trkpt lat="42.831666" lon="-5.653931"><ele>975.423</ele><time>2015-10-25T07:49:16Z</time></trkpt><trkpt lat="42.831695" lon="-5.653927"><ele>975.476</ele><time>2015-10-25T07:49:54Z</time></trkpt><trkpt lat="42.831726" lon="-5.653942"><ele>975.915</ele><time>2015-10-25T07:50:23Z</time></trkpt><trkpt lat="42.831732" lon="-5.653882"><ele>975.910</ele><time>2015-10-25T07:51:00Z</time></trkpt><trkpt lat="42.831693" lon="-5.653854"><ele>976.441</ele><time>2015-10-25T07:51:35Z</time></trkpt><trkpt lat="42.831670" lon="-5.653859"><ele>976.833</ele><time>2015-10-25T07:52:10Z</time></trkpt><trkpt lat="42.831728" lon="-5.653760"><ele>976.871</ele><time>2015-10-25T07:52:43Z</time></trkpt><trkpt lat="42.831682" lon="-5.653813"><ele>976.864</ele><time>2015-10-25T07:53:18Z</time></trkpt><trkpt lat="42.831684" lon="-5.653836"><ele>977.306</ele><time>2015-10-25T07:53:51Z</time></trkpt><trkpt lat="42.831690" lon="-5.653867"><ele>977.316</ele><time>2015-10-25T07:54:20Z</time></trkpt><trkpt lat="42.831682" lon="-5.653874"><ele>977.808</ele><time>2015-10-25T07:54:54Z</time></trkpt><trkpt lat="42.831659" lon="-5.653860"><ele>978.317</ele><time>2015-10-25T07:55:43Z</time></trkpt><trkpt lat="42.831699" lon="-5.653847"><ele>978.877</ele><time>2015-10-25T07:56:28Z</time></trkpt><trkpt lat="42.831720" lon="-5.653835"><ele>978.880</ele><time>2015-10-25T07:57:11Z</time></trkpt><trkpt lat="42.831723" lon="-5.653861"><ele>978.819</ele><time>2015-10-25T07:57:50Z</time></trkpt><trkpt lat="42.831740" lon="-5.653874"><ele>979.284</ele><time>2015-10-25T07:58:24Z</time></trkpt><trkpt lat="42.831733" lon="-5.653907"><ele>979.215</ele><time>2015-10-25T07:58:55Z</time></trkpt><trkpt lat="42.831700" lon="-5.653896"><ele>979.297</ele><time>2015-10-25T07:59:36Z</time></trkpt><trkpt lat="42.831689" lon="-5.653909"><ele>979.765</ele><time>2015-10-25T08:00:09Z</time></trkpt><trkpt lat="42.831709" lon="-5.653844"><ele>979.797</ele><time>2015-10-25T08:00:48Z</time></trkpt><trkpt lat="42.831707" lon="-5.653845"><ele>980.223</ele><time>2015-10-25T08:01:22Z</time></trkpt><trkpt lat="42.831680" lon="-5.653862"><ele>980.725</ele><time>2015-10-25T08:01:59Z</time></trkpt><trkpt lat="42.831684" lon="-5.653843"><ele>981.208</ele><time>2015-10-25T08:02:42Z</time></trkpt><trkpt lat="42.831704" lon="-5.653858"><ele>981.630</ele><time>2015-10-25T08:03:21Z</time></trkpt><trkpt lat="42.831701" lon="-5.653897"><ele>982.160</ele><time>2015-10-25T08:04:04Z</time></trkpt><trkpt lat="42.831706" lon="-5.653916"><ele>982.133</ele><time>2015-10-25T08:04:48Z</time></trkpt><trkpt lat="42.831721" lon="-5.653906"><ele>982.632</ele><time>2015-10-25T08:05:34Z</time></trkpt><trkpt lat="42.831702" lon="-5.653879"><ele>982.647</ele><time>2015-10-25T08:06:19Z</time></trkpt><trkpt lat="42.831746" lon="-5.653879"><ele>983.198</ele><time>2015-10-25T08:07:00Z</time></trkpt><trkpt lat="42.831730" lon="-5.653872"><ele>983.140</ele><time>2015-10-25T08:07:37Z</time></trkpt><trkpt lat="42.831733" lon="-5.653867"><ele>983.148</ele><time>2015-10-25T08:08:18Z</time></trkpt><trkpt lat="42.831717" lon="-5.653887"><ele>983.119</ele><time>2015-10-25T08:09:01Z</time></trkpt><trkpt lat="42.831708" lon="-5.653918"><ele>983.109</ele><time>2015-10-25T08:09:51Z</time></trkpt><trkpt lat="42.831696" lon="-5.653908"><ele>983.619</ele><time>2015-10-25T08:10:28Z</time></trkpt><trkpt lat="42.831733" lon="-5.653846"><ele>983.608</ele><time>2015-10-25T08:11:10Z</time></trkpt><trkpt lat="42.831717" lon="-5.653819"><ele>983.692</ele><time>2015-10-25T08:11:55Z</time></trkpt><trkpt lat="42.831719" lon="-5.653851"><ele>984.062</ele><time>2015-10-25T08:12:34Z</time></trkpt><trkpt lat="42.831719" lon="-5.653837"><ele>984.095</ele><time>2015-10-25T08:13:16Z</time></trkpt><trkpt lat="42.831728" lon="-5.653842"><ele>984.074</ele><time>2015-10-25T08:14:05Z</time></trkpt><trkpt lat="42.831697" lon="-5.653816"><ele>984.539</ele><time>2015-10-25T08:14:53Z</time></trkpt><trkpt lat="42.831644" lon="-5.653811"><ele>985.040</ele><time>2015-10-25T08:15:33Z</time></trkpt><trkpt lat="42.831617" lon="-5.653858"><ele>985.052</ele><time>2015-10-25T08:16:10Z</time></trkpt><trkpt lat="42.831670" lon="-5.653831"><ele>986.020</ele><time>2015-10-25T08:16:47Z</time></trkpt><trkpt lat="42.831710" lon="-5.653879"><ele>986.066</ele><time>2015-10-25T08:17:09Z</time></trkpt><trkpt lat="42.831747" lon="-5.653864"><ele>986.529</ele><time>2015-10-25T08:17:49Z</time></trkpt><trkpt lat="42.831701" lon="-5.653882"><ele>986.521</ele><time>2015-10-25T08:18:09Z</time></trkpt><trkpt lat="42.831702" lon="-5.653869"><ele>986.508</ele><time>2015-10-25T08:18:38Z</time></trkpt><trkpt lat="42.831728" lon="-5.653817"><ele>986.567</ele><time>2015-10-25T08:19:02Z</time></trkpt><trkpt lat="42.831731" lon="-5.653866"><ele>986.537</ele><time>2015-10-25T08:19:29Z</time></trkpt><trkpt lat="42.831656" lon="-5.653965"><ele>985.560</ele><time>2015-10-25T08:19:46Z</time></trkpt><trkpt lat="42.831603" lon="-5.654062"><ele>985.059</ele><time>2015-10-25T08:19:55Z</time></trkpt><trkpt lat="42.831600" lon="-5.654087"><ele>984.584</ele><time>2015-10-25T08:19:58Z</time></trkpt><trkpt lat="42.831605" lon="-5.654123"><ele>984.585</ele><time>2015-10-25T08:20:00Z</time></trkpt><trkpt lat="42.831601" lon="-5.654173"><ele>984.597</ele><time>2015-10-25T08:20:04Z</time></trkpt><trkpt lat="42.831618" lon="-5.654294"><ele>984.565</ele><time>2015-10-25T08:20:20Z</time></trkpt><trkpt lat="42.831617" lon="-5.654298"><ele>984.545</ele><time>2015-10-25T08:20:21Z</time></trkpt><trkpt lat="42.831616" lon="-5.654386"><ele>984.547</ele><time>2015-10-25T08:20:28Z</time></trkpt><trkpt lat="42.831773" lon="-5.654433"><ele>984.511</ele><time>2015-10-25T08:20:46Z</time></trkpt><trkpt lat="42.831946" lon="-5.654457"><ele>984.508</ele><time>2015-10-25T08:21:03Z</time></trkpt><trkpt lat="42.832170" lon="-5.654539"><ele>984.555</ele><time>2015-10-25T08:21:22Z</time></trkpt><trkpt lat="42.832330" lon="-5.654643"><ele>984.525</ele><time>2015-10-25T08:21:37Z</time></trkpt><trkpt lat="42.832471" lon="-5.654712"><ele>984.098</ele><time>2015-10-25T08:21:50Z</time></trkpt><trkpt lat="42.832518" lon="-5.654726"><ele>984.077</ele><time>2015-10-25T08:21:54Z</time></trkpt><trkpt lat="42.832564" lon="-5.654738"><ele>984.062</ele><time>2015-10-25T08:21:58Z</time></trkpt><trkpt lat="42.832786" lon="-5.654784"><ele>984.093</ele><time>2015-10-25T08:22:18Z</time></trkpt><trkpt lat="42.832807" lon="-5.654796"><ele>984.035</ele><time>2015-10-25T08:22:20Z</time></trkpt><trkpt lat="42.833035" lon="-5.654835"><ele>984.013</ele><time>2015-10-25T08:22:39Z</time></trkpt><trkpt lat="42.833068" lon="-5.654839"><ele>985.564</ele><time>2015-10-25T08:22:42Z</time></trkpt><trkpt lat="42.833109" lon="-5.654915"><ele>985.506</ele><time>2015-10-25T08:22:48Z</time></trkpt><trkpt lat="42.833112" lon="-5.655045"><ele>985.516</ele><time>2015-10-25T08:22:54Z</time></trkpt><trkpt lat="42.833055" lon="-5.655414"><ele>985.508</ele><time>2015-10-25T08:23:15Z</time></trkpt><trkpt lat="42.833022" lon="-5.655679"><ele>985.587</ele><time>2015-10-25T08:23:31Z</time></trkpt><trkpt lat="42.832992" lon="-5.655941"><ele>986.077</ele><time>2015-10-25T08:23:48Z</time></trkpt><trkpt lat="42.833001" lon="-5.656224"><ele>985.020</ele><time>2015-10-25T08:24:06Z</time></trkpt><trkpt lat="42.833039" lon="-5.656498"><ele>985.029</ele><time>2015-10-25T08:24:25Z</time></trkpt><trkpt lat="42.833057" lon="-5.656643"><ele>985.084</ele><time>2015-10-25T08:24:37Z</time></trkpt><trkpt lat="42.833081" lon="-5.656801"><ele>985.095</ele><time>2015-10-25T08:24:48Z</time></trkpt><trkpt lat="42.833113" lon="-5.657058"><ele>985.067</ele><time>2015-10-25T08:25:04Z</time></trkpt><trkpt lat="42.833178" lon="-5.657352"><ele>984.535</ele><time>2015-10-25T08:25:23Z</time></trkpt><trkpt lat="42.833221" lon="-5.657612"><ele>984.595</ele><time>2015-10-25T08:25:40Z</time></trkpt><trkpt lat="42.833250" lon="-5.657897"><ele>986.049</ele><time>2015-10-25T08:25:56Z</time></trkpt><trkpt lat="42.833300" lon="-5.658152"><ele>986.523</ele><time>2015-10-25T08:26:12Z</time></trkpt><trkpt lat="42.833373" lon="-5.658431"><ele>987.408</ele><time>2015-10-25T08:26:30Z</time></trkpt><trkpt lat="42.833461" lon="-5.658672"><ele>988.470</ele><time>2015-10-25T08:26:48Z</time></trkpt><trkpt lat="42.833477" lon="-5.658735"><ele>988.460</ele><time>2015-10-25T08:26:52Z</time></trkpt><trkpt lat="42.833546" lon="-5.658999"><ele>989.863</ele><time>2015-10-25T08:27:10Z</time></trkpt><trkpt lat="42.833556" lon="-5.659076"><ele>989.892</ele><time>2015-10-25T08:27:33Z</time></trkpt><trkpt lat="42.833678" lon="-5.659232"><ele>990.857</ele><time>2015-10-25T08:27:52Z</time></trkpt><trkpt lat="42.833766" lon="-5.659500"><ele>991.778</ele><time>2015-10-25T08:28:10Z</time></trkpt><trkpt lat="42.833799" lon="-5.659616"><ele>992.220</ele><time>2015-10-25T08:28:18Z</time></trkpt><trkpt lat="42.833861" lon="-5.659648"><ele>992.228</ele><time>2015-10-25T08:28:24Z</time></trkpt><trkpt lat="42.834035" lon="-5.659561"><ele>992.267</ele><time>2015-10-25T08:28:41Z</time></trkpt><trkpt lat="42.834095" lon="-5.659512"><ele>991.381</ele><time>2015-10-25T08:28:47Z</time></trkpt><trkpt lat="42.834271" lon="-5.659351"><ele>990.819</ele><time>2015-10-25T08:29:05Z</time></trkpt><trkpt lat="42.834506" lon="-5.659224"><ele>989.808</ele><time>2015-10-25T08:29:26Z</time></trkpt><trkpt lat="42.834732" lon="-5.659145"><ele>989.817</ele><time>2015-10-25T08:29:44Z</time></trkpt><trkpt lat="42.834981" lon="-5.659034"><ele>988.857</ele><time>2015-10-25T08:30:05Z</time></trkpt><trkpt lat="42.835202" lon="-5.658923"><ele>988.890</ele><time>2015-10-25T08:30:23Z</time></trkpt><trkpt lat="42.835415" lon="-5.658827"><ele>988.849</ele><time>2015-10-25T08:30:41Z</time></trkpt><trkpt lat="42.835626" lon="-5.658754"><ele>988.824</ele><time>2015-10-25T08:30:59Z</time></trkpt><trkpt lat="42.835881" lon="-5.658662"><ele>988.865</ele><time>2015-10-25T08:31:20Z</time></trkpt><trkpt lat="42.836103" lon="-5.658572"><ele>988.877</ele><time>2015-10-25T08:31:39Z</time></trkpt><trkpt lat="42.836362" lon="-5.658466"><ele>988.835</ele><time>2015-10-25T08:32:00Z</time></trkpt><trkpt lat="42.836591" lon="-5.658351"><ele>989.364</ele><time>2015-10-25T08:32:21Z</time></trkpt><trkpt lat="42.836804" lon="-5.658174"><ele>989.306</ele><time>2015-10-25T08:32:41Z</time></trkpt><trkpt lat="42.836996" lon="-5.657983"><ele>989.316</ele><time>2015-10-25T08:33:00Z</time></trkpt><trkpt lat="42.837195" lon="-5.657775"><ele>989.308</ele><time>2015-10-25T08:33:20Z</time></trkpt><trkpt lat="42.837360" lon="-5.657598"><ele>989.367</ele><time>2015-10-25T08:33:38Z</time></trkpt><trkpt lat="42.837534" lon="-5.657436"><ele>989.397</ele><time>2015-10-25T08:33:56Z</time></trkpt><trkpt lat="42.837694" lon="-5.657264"><ele>989.310</ele><time>2015-10-25T08:34:12Z</time></trkpt><trkpt lat="42.837833" lon="-5.657076"><ele>989.369</ele><time>2015-10-25T08:34:28Z</time></trkpt><trkpt lat="42.838009" lon="-5.656917"><ele>989.314</ele><time>2015-10-25T08:34:46Z</time></trkpt><trkpt lat="42.838215" lon="-5.656823"><ele>990.845</ele><time>2015-10-25T08:35:02Z</time></trkpt><trkpt lat="42.838413" lon="-5.656849"><ele>991.377</ele><time>2015-10-25T08:35:19Z</time></trkpt><trkpt lat="42.838584" lon="-5.656812"><ele>991.385</ele><time>2015-10-25T08:35:34Z</time></trkpt><trkpt lat="42.838737" lon="-5.656730"><ele>992.274</ele><time>2015-10-25T08:35:47Z</time></trkpt><trkpt lat="42.838840" lon="-5.656683"><ele>992.756</ele><time>2015-10-25T08:35:56Z</time></trkpt><trkpt lat="42.838889" lon="-5.656677"><ele>992.721</ele><time>2015-10-25T08:36:00Z</time></trkpt><trkpt lat="42.839113" lon="-5.656637"><ele>992.708</ele><time>2015-10-25T08:36:18Z</time></trkpt><trkpt lat="42.839268" lon="-5.656673"><ele>993.228</ele><time>2015-10-25T08:36:30Z</time></trkpt><trkpt lat="42.839462" lon="-5.656683"><ele>993.218</ele><time>2015-10-25T08:36:46Z</time></trkpt><trkpt lat="42.839661" lon="-5.656747"><ele>993.251</ele><time>2015-10-25T08:37:03Z</time></trkpt><trkpt lat="42.839851" lon="-5.656841"><ele>993.240</ele><time>2015-10-25T08:37:19Z</time></trkpt><trkpt lat="42.840021" lon="-5.656911"><ele>993.275</ele><time>2015-10-25T08:37:33Z</time></trkpt><trkpt lat="42.840110" lon="-5.656971"><ele>993.286</ele><time>2015-10-25T08:37:41Z</time></trkpt><trkpt lat="42.840316" lon="-5.657116"><ele>993.218</ele><time>2015-10-25T08:37:59Z</time></trkpt><trkpt lat="42.840471" lon="-5.657245"><ele>993.236</ele><time>2015-10-25T08:38:13Z</time></trkpt><trkpt lat="42.840513" lon="-5.657279"><ele>993.279</ele><time>2015-10-25T08:38:17Z</time></trkpt><trkpt lat="42.840667" lon="-5.657453"><ele>993.705</ele><time>2015-10-25T08:38:33Z</time></trkpt><trkpt lat="42.840813" lon="-5.657686"><ele>993.725</ele><time>2015-10-25T08:38:50Z</time></trkpt><trkpt lat="42.840910" lon="-5.657940"><ele>993.708</ele><time>2015-10-25T08:39:06Z</time></trkpt><trkpt lat="42.840993" lon="-5.658198"><ele>993.718</ele><time>2015-10-25T08:39:22Z</time></trkpt><trkpt lat="42.841056" lon="-5.658445"><ele>994.638</ele><time>2015-10-25T08:39:38Z</time></trkpt><trkpt lat="42.841123" lon="-5.658714"><ele>994.631</ele><time>2015-10-25T08:39:55Z</time></trkpt><trkpt lat="42.841188" lon="-5.658949"><ele>995.190</ele><time>2015-10-25T08:40:11Z</time></trkpt><trkpt lat="42.841224" lon="-5.659088"><ele>995.145</ele><time>2015-10-25T08:40:20Z</time></trkpt><trkpt lat="42.841245" lon="-5.659154"><ele>995.666</ele><time>2015-10-25T08:40:25Z</time></trkpt><trkpt lat="42.841320" lon="-5.659413"><ele>995.658</ele><time>2015-10-25T08:40:41Z</time></trkpt><trkpt lat="42.841343" lon="-5.659465"><ele>995.696</ele><time>2015-10-25T08:40:45Z</time></trkpt><trkpt lat="42.841363" lon="-5.659518"><ele>995.632</ele><time>2015-10-25T08:40:49Z</time></trkpt><trkpt lat="42.841436" lon="-5.659681"><ele>995.692</ele><time>2015-10-25T08:41:01Z</time></trkpt><trkpt lat="42.841531" lon="-5.659869"><ele>995.611</ele><time>2015-10-25T08:41:15Z</time></trkpt><trkpt lat="42.841622" lon="-5.660105"><ele>995.608</ele><time>2015-10-25T08:41:30Z</time></trkpt><trkpt lat="42.841716" lon="-5.660330"><ele>995.624</ele><time>2015-10-25T08:41:45Z</time></trkpt><trkpt lat="42.841780" lon="-5.660564"><ele>995.644</ele><time>2015-10-25T08:42:00Z</time></trkpt><trkpt lat="42.841830" lon="-5.660874"><ele>995.647</ele><time>2015-10-25T08:42:18Z</time></trkpt><trkpt lat="42.841868" lon="-5.661118"><ele>995.696</ele><time>2015-10-25T08:42:33Z</time></trkpt><trkpt lat="42.841907" lon="-5.661377"><ele>995.681</ele><time>2015-10-25T08:42:49Z</time></trkpt><trkpt lat="42.841943" lon="-5.661633"><ele>995.622</ele><time>2015-10-25T08:43:04Z</time></trkpt><trkpt lat="42.841960" lon="-5.661871"><ele>995.644</ele><time>2015-10-25T08:43:18Z</time></trkpt><trkpt lat="42.842016" lon="-5.662151"><ele>995.622</ele><time>2015-10-25T08:43:35Z</time></trkpt><trkpt lat="42.842037" lon="-5.662235"><ele>995.649</ele><time>2015-10-25T08:43:40Z</time></trkpt><trkpt lat="42.842086" lon="-5.662470"><ele>995.602</ele><time>2015-10-25T08:43:55Z</time></trkpt><trkpt lat="42.842158" lon="-5.662692"><ele>995.622</ele><time>2015-10-25T08:44:10Z</time></trkpt><trkpt lat="42.842251" lon="-5.662904"><ele>995.608</ele><time>2015-10-25T08:44:25Z</time></trkpt><trkpt lat="42.842363" lon="-5.663148"><ele>995.675</ele><time>2015-10-25T08:44:42Z</time></trkpt><trkpt lat="42.842385" lon="-5.663194"><ele>996.125</ele><time>2015-10-25T08:44:46Z</time></trkpt><trkpt lat="42.842490" lon="-5.663460"><ele>996.578</ele><time>2015-10-25T08:45:04Z</time></trkpt><trkpt lat="42.842593" lon="-5.663683"><ele>996.587</ele><time>2015-10-25T08:45:19Z</time></trkpt><trkpt lat="42.842620" lon="-5.663733"><ele>996.542</ele><time>2015-10-25T08:45:23Z</time></trkpt><trkpt lat="42.842662" lon="-5.663979"><ele>998.013</ele><time>2015-10-25T08:45:39Z</time></trkpt><trkpt lat="42.842722" lon="-5.664236"><ele>999.995</ele><time>2015-10-25T08:45:57Z</time></trkpt><trkpt lat="42.842779" lon="-5.664425"><ele>1000.993</ele><time>2015-10-25T08:46:11Z</time></trkpt><trkpt lat="42.842827" lon="-5.664639"><ele>1003.355</ele><time>2015-10-25T08:46:26Z</time></trkpt><trkpt lat="42.842855" lon="-5.664906"><ele>1002.807</ele><time>2015-10-25T08:46:42Z</time></trkpt><trkpt lat="42.842857" lon="-5.664972"><ele>1002.817</ele><time>2015-10-25T08:46:46Z</time></trkpt><trkpt lat="42.842870" lon="-5.665220"><ele>1003.808</ele><time>2015-10-25T08:47:02Z</time></trkpt><trkpt lat="42.842853" lon="-5.665416"><ele>1005.226</ele><time>2015-10-25T08:47:16Z</time></trkpt><trkpt lat="42.842849" lon="-5.665653"><ele>1005.246</ele><time>2015-10-25T08:47:32Z</time></trkpt><trkpt lat="42.842836" lon="-5.665739"><ele>1005.229</ele><time>2015-10-25T08:47:47Z</time></trkpt><trkpt lat="42.842856" lon="-5.665746"><ele>1005.288</ele><time>2015-10-25T08:48:06Z</time></trkpt><trkpt lat="42.842863" lon="-5.665792"><ele>1004.253</ele><time>2015-10-25T08:48:24Z</time></trkpt><trkpt lat="42.842898" lon="-5.665853"><ele>1003.324</ele><time>2015-10-25T08:48:31Z</time></trkpt><trkpt lat="42.842910" lon="-5.665887"><ele>1002.386</ele><time>2015-10-25T08:48:34Z</time></trkpt><trkpt lat="42.842943" lon="-5.665948"><ele>1001.344</ele><time>2015-10-25T08:48:39Z</time></trkpt><trkpt lat="42.843030" lon="-5.666107"><ele>1000.438</ele><time>2015-10-25T08:48:54Z</time></trkpt><trkpt lat="42.843039" lon="-5.666113"><ele>1000.470</ele><time>2015-10-25T08:48:55Z</time></trkpt><trkpt lat="42.843088" lon="-5.666154"><ele>1000.417</ele><time>2015-10-25T08:49:01Z</time></trkpt><trkpt lat="42.843138" lon="-5.666180"><ele>1000.408</ele><time>2015-10-25T08:49:06Z</time></trkpt><trkpt lat="42.843255" lon="-5.666290"><ele>1000.464</ele><time>2015-10-25T08:49:20Z</time></trkpt><trkpt lat="42.843344" lon="-5.666349"><ele>1000.444</ele><time>2015-10-25T08:49:29Z</time></trkpt><trkpt lat="42.843523" lon="-5.666428"><ele>999.997</ele><time>2015-10-25T08:49:45Z</time></trkpt><trkpt lat="42.843698" lon="-5.666497"><ele>998.576</ele><time>2015-10-25T08:50:00Z</time></trkpt><trkpt lat="42.843709" lon="-5.666500"><ele>998.511</ele><time>2015-10-25T08:50:01Z</time></trkpt><trkpt lat="42.843825" lon="-5.666591"><ele>997.522</ele><time>2015-10-25T08:50:11Z</time></trkpt><trkpt lat="42.843914" lon="-5.666698"><ele>999.044</ele><time>2015-10-25T08:50:22Z</time></trkpt><trkpt lat="42.844029" lon="-5.666830"><ele>999.442</ele><time>2015-10-25T08:50:35Z</time></trkpt><trkpt lat="42.844070" lon="-5.666867"><ele>999.431</ele><time>2015-10-25T08:50:39Z</time></trkpt><trkpt lat="42.844165" lon="-5.666945"><ele>999.961</ele><time>2015-10-25T08:50:48Z</time></trkpt><trkpt lat="42.844328" lon="-5.667104"><ele>999.907</ele><time>2015-10-25T08:51:05Z</time></trkpt><trkpt lat="42.844403" lon="-5.667115"><ele>999.908</ele><time>2015-10-25T08:51:13Z</time></trkpt><trkpt lat="42.844461" lon="-5.667080"><ele>999.924</ele><time>2015-10-25T08:51:19Z</time></trkpt><trkpt lat="42.844484" lon="-5.667081"><ele>999.914</ele><time>2015-10-25T08:51:21Z</time></trkpt><trkpt lat="42.844629" lon="-5.667174"><ele>1001.897</ele><time>2015-10-25T08:51:37Z</time></trkpt><trkpt lat="42.844762" lon="-5.667328"><ele>1004.286</ele><time>2015-10-25T08:51:52Z</time></trkpt><trkpt lat="42.844881" lon="-5.667492"><ele>1005.761</ele><time>2015-10-25T08:52:08Z</time></trkpt><trkpt lat="42.844969" lon="-5.667626"><ele>1008.142</ele><time>2015-10-25T08:52:21Z</time></trkpt><trkpt lat="42.845083" lon="-5.667745"><ele>1010.524</ele><time>2015-10-25T08:52:37Z</time></trkpt><trkpt lat="42.845167" lon="-5.667837"><ele>1012.462</ele><time>2015-10-25T08:52:48Z</time></trkpt><trkpt lat="42.845235" lon="-5.667816"><ele>1012.432</ele><time>2015-10-25T08:52:56Z</time></trkpt><trkpt lat="42.845339" lon="-5.667674"><ele>1010.592</ele><time>2015-10-25T08:53:14Z</time></trkpt><trkpt lat="42.845386" lon="-5.667668"><ele>1010.011</ele><time>2015-10-25T08:53:19Z</time></trkpt><trkpt lat="42.845410" lon="-5.667663"><ele>1010.008</ele><time>2015-10-25T08:53:21Z</time></trkpt><trkpt lat="42.845447" lon="-5.667670"><ele>1009.034</ele><time>2015-10-25T08:53:24Z</time></trkpt><trkpt lat="42.845571" lon="-5.667813"><ele>1009.534</ele><time>2015-10-25T08:53:38Z</time></trkpt><trkpt lat="42.845801" lon="-5.667814"><ele>1009.057</ele><time>2015-10-25T08:53:56Z</time></trkpt><trkpt lat="42.845822" lon="-5.667817"><ele>1009.016</ele><time>2015-10-25T08:53:58Z</time></trkpt><trkpt lat="42.846002" lon="-5.667879"><ele>1009.011</ele><time>2015-10-25T08:54:14Z</time></trkpt><trkpt lat="42.846233" lon="-5.668006"><ele>1008.192</ele><time>2015-10-25T08:54:34Z</time></trkpt><trkpt lat="42.846436" lon="-5.668107"><ele>1007.664</ele><time>2015-10-25T08:54:52Z</time></trkpt><trkpt lat="42.846593" lon="-5.668167"><ele>1007.192</ele><time>2015-10-25T08:55:05Z</time></trkpt><trkpt lat="42.846674" lon="-5.668193"><ele>1007.181</ele><time>2015-10-25T08:55:12Z</time></trkpt><trkpt lat="42.846865" lon="-5.668228"><ele>1007.161</ele><time>2015-10-25T08:55:28Z</time></trkpt><trkpt lat="42.847040" lon="-5.668274"><ele>1007.117</ele><time>2015-10-25T08:55:42Z</time></trkpt><trkpt lat="42.847239" lon="-5.668305"><ele>1007.108</ele><time>2015-10-25T08:55:58Z</time></trkpt><trkpt lat="42.847420" lon="-5.668332"><ele>1008.699</ele><time>2015-10-25T08:56:13Z</time></trkpt><trkpt lat="42.847485" lon="-5.668362"><ele>1008.669</ele><time>2015-10-25T08:56:18Z</time></trkpt><trkpt lat="42.847693" lon="-5.668407"><ele>1008.682</ele><time>2015-10-25T08:56:35Z</time></trkpt><trkpt lat="42.847901" lon="-5.668423"><ele>1009.071</ele><time>2015-10-25T08:56:52Z</time></trkpt><trkpt lat="42.848129" lon="-5.668452"><ele>1010.026</ele><time>2015-10-25T08:57:11Z</time></trkpt><trkpt lat="42.848247" lon="-5.668482"><ele>1011.067</ele><time>2015-10-25T08:57:22Z</time></trkpt><trkpt lat="42.848356" lon="-5.668534"><ele>1012.459</ele><time>2015-10-25T08:57:33Z</time></trkpt><trkpt lat="42.848508" lon="-5.668565"><ele>1014.327</ele><time>2015-10-25T08:57:49Z</time></trkpt><trkpt lat="42.848628" lon="-5.668547"><ele>1016.741</ele><time>2015-10-25T08:58:03Z</time></trkpt><trkpt lat="42.848761" lon="-5.668512"><ele>1018.281</ele><time>2015-10-25T08:58:16Z</time></trkpt><trkpt lat="42.848838" lon="-5.668491"><ele>1018.709</ele><time>2015-10-25T08:58:23Z</time></trkpt><trkpt lat="42.848993" lon="-5.668550"><ele>1020.108</ele><time>2015-10-25T08:58:38Z</time></trkpt><trkpt lat="42.849158" lon="-5.668630"><ele>1022.055</ele><time>2015-10-25T08:58:54Z</time></trkpt><trkpt lat="42.849230" lon="-5.668673"><ele>1022.075</ele><time>2015-10-25T08:59:01Z</time></trkpt><trkpt lat="42.849343" lon="-5.668810"><ele>1020.668</ele><time>2015-10-25T08:59:12Z</time></trkpt><trkpt lat="42.849487" lon="-5.668963"><ele>1018.277</ele><time>2015-10-25T08:59:28Z</time></trkpt><trkpt lat="42.849532" lon="-5.668987"><ele>1018.232</ele><time>2015-10-25T08:59:32Z</time></trkpt><trkpt lat="42.849767" lon="-5.669051"><ele>1018.263</ele><time>2015-10-25T08:59:52Z</time></trkpt><trkpt lat="42.849969" lon="-5.669145"><ele>1018.235</ele><time>2015-10-25T09:00:11Z</time></trkpt><trkpt lat="42.850087" lon="-5.669278"><ele>1019.643</ele><time>2015-10-25T09:00:23Z</time></trkpt><trkpt lat="42.850190" lon="-5.669500"><ele>1020.199</ele><time>2015-10-25T09:00:39Z</time></trkpt><trkpt lat="42.850268" lon="-5.669666"><ele>1018.707</ele><time>2015-10-25T09:00:51Z</time></trkpt><trkpt lat="42.850386" lon="-5.669800"><ele>1016.727</ele><time>2015-10-25T09:01:05Z</time></trkpt><trkpt lat="42.850556" lon="-5.669858"><ele>1015.308</ele><time>2015-10-25T09:01:21Z</time></trkpt><trkpt lat="42.850602" lon="-5.669869"><ele>1014.880</ele><time>2015-10-25T09:01:25Z</time></trkpt><trkpt lat="42.850801" lon="-5.669940"><ele>1013.490</ele><time>2015-10-25T09:01:41Z</time></trkpt><trkpt lat="42.850994" lon="-5.669959"><ele>1012.493</ele><time>2015-10-25T09:01:57Z</time></trkpt><trkpt lat="42.851171" lon="-5.669945"><ele>1011.022</ele><time>2015-10-25T09:02:12Z</time></trkpt><trkpt lat="42.851390" lon="-5.670013"><ele>1009.547</ele><time>2015-10-25T09:02:29Z</time></trkpt><trkpt lat="42.851594" lon="-5.670084"><ele>1008.178</ele><time>2015-10-25T09:02:46Z</time></trkpt><trkpt lat="42.851797" lon="-5.670241"><ele>1008.110</ele><time>2015-10-25T09:03:05Z</time></trkpt><trkpt lat="42.851936" lon="-5.670448"><ele>1007.698</ele><time>2015-10-25T09:03:21Z</time></trkpt><trkpt lat="42.852067" lon="-5.670647"><ele>1007.639</ele><time>2015-10-25T09:03:37Z</time></trkpt><trkpt lat="42.852226" lon="-5.670910"><ele>1007.601</ele><time>2015-10-25T09:03:58Z</time></trkpt><trkpt lat="42.852357" lon="-5.671085"><ele>1009.021</ele><time>2015-10-25T09:04:13Z</time></trkpt><trkpt lat="42.852396" lon="-5.671131"><ele>1009.008</ele><time>2015-10-25T09:04:17Z</time></trkpt><trkpt lat="42.852425" lon="-5.671152"><ele>1009.564</ele><time>2015-10-25T09:04:20Z</time></trkpt><trkpt lat="42.852462" lon="-5.671193"><ele>1009.534</ele><time>2015-10-25T09:04:24Z</time></trkpt><trkpt lat="42.852584" lon="-5.671382"><ele>1010.027</ele><time>2015-10-25T09:04:40Z</time></trkpt><trkpt lat="42.852700" lon="-5.671637"><ele>1010.016</ele><time>2015-10-25T09:04:58Z</time></trkpt><trkpt lat="42.852792" lon="-5.671896"><ele>1010.041</ele><time>2015-10-25T09:05:16Z</time></trkpt><trkpt lat="42.852852" lon="-5.672175"><ele>1010.052</ele><time>2015-10-25T09:05:33Z</time></trkpt><trkpt lat="42.852816" lon="-5.672445"><ele>1010.544</ele><time>2015-10-25T09:05:50Z</time></trkpt><trkpt lat="42.852707" lon="-5.672726"><ele>1010.572</ele><time>2015-10-25T09:06:09Z</time></trkpt><trkpt lat="42.852635" lon="-5.673021"><ele>1010.551</ele><time>2015-10-25T09:06:29Z</time></trkpt><trkpt lat="42.852631" lon="-5.673050"><ele>1010.501</ele><time>2015-10-25T09:06:33Z</time></trkpt><trkpt lat="42.852765" lon="-5.673099"><ele>1010.511</ele><time>2015-10-25T09:06:51Z</time></trkpt><trkpt lat="42.852961" lon="-5.673077"><ele>1009.508</ele><time>2015-10-25T09:07:08Z</time></trkpt><trkpt lat="42.853084" lon="-5.673072"><ele>1008.146</ele><time>2015-10-25T09:07:24Z</time></trkpt><trkpt lat="42.853162" lon="-5.673068"><ele>1006.266</ele><time>2015-10-25T09:07:42Z</time></trkpt><trkpt lat="42.853422" lon="-5.672902"><ele>1007.659</ele><time>2015-10-25T09:08:00Z</time></trkpt><trkpt lat="42.853439" lon="-5.672903"><ele>1008.118</ele><time>2015-10-25T09:08:02Z</time></trkpt><trkpt lat="42.853539" lon="-5.672951"><ele>1008.693</ele><time>2015-10-25T09:08:11Z</time></trkpt><trkpt lat="42.853603" lon="-5.672965"><ele>1008.674</ele><time>2015-10-25T09:08:18Z</time></trkpt><trkpt lat="42.853636" lon="-5.672962"><ele>1008.616</ele><time>2015-10-25T09:08:21Z</time></trkpt><trkpt lat="42.853668" lon="-5.672971"><ele>1008.624</ele><time>2015-10-25T09:08:24Z</time></trkpt><trkpt lat="42.853764" lon="-5.672930"><ele>1008.637</ele><time>2015-10-25T09:08:33Z</time></trkpt><trkpt lat="42.853897" lon="-5.672762"><ele>1009.049</ele><time>2015-10-25T09:08:50Z</time></trkpt><trkpt lat="42.854063" lon="-5.672613"><ele>1009.013</ele><time>2015-10-25T09:09:06Z</time></trkpt><trkpt lat="42.854256" lon="-5.672453"><ele>1009.008</ele><time>2015-10-25T09:09:26Z</time></trkpt><trkpt lat="42.854343" lon="-5.672445"><ele>1009.594</ele><time>2015-10-25T09:09:43Z</time></trkpt><trkpt lat="42.854304" lon="-5.672495"><ele>1009.544</ele><time>2015-10-25T09:10:12Z</time></trkpt><trkpt lat="42.854294" lon="-5.672483"><ele>1009.557</ele><time>2015-10-25T09:10:46Z</time></trkpt><trkpt lat="42.854294" lon="-5.672472"><ele>1009.546</ele><time>2015-10-25T09:10:47Z</time></trkpt><trkpt lat="42.854434" lon="-5.672287"><ele>1009.591</ele><time>2015-10-25T09:11:03Z</time></trkpt><trkpt lat="42.854606" lon="-5.672110"><ele>1009.572</ele><time>2015-10-25T09:11:21Z</time></trkpt><trkpt lat="42.854636" lon="-5.672083"><ele>1009.544</ele><time>2015-10-25T09:11:24Z</time></trkpt><trkpt lat="42.854692" lon="-5.672099"><ele>1009.592</ele><time>2015-10-25T09:11:29Z</time></trkpt><trkpt lat="42.854823" lon="-5.672310"><ele>1008.128</ele><time>2015-10-25T09:11:46Z</time></trkpt><trkpt lat="42.854895" lon="-5.672537"><ele>1008.189</ele><time>2015-10-25T09:12:02Z</time></trkpt><trkpt lat="42.854978" lon="-5.672805"><ele>1008.617</ele><time>2015-10-25T09:12:19Z</time></trkpt><trkpt lat="42.855025" lon="-5.672986"><ele>1008.608</ele><time>2015-10-25T09:12:31Z</time></trkpt><trkpt lat="42.855001" lon="-5.673022"><ele>1008.623</ele><time>2015-10-25T09:12:54Z</time></trkpt><trkpt lat="42.854989" lon="-5.672998"><ele>1008.633</ele><time>2015-10-25T09:13:13Z</time></trkpt><trkpt lat="42.855014" lon="-5.673068"><ele>1008.616</ele><time>2015-10-25T09:13:26Z</time></trkpt><trkpt lat="42.855070" lon="-5.673102"><ele>1008.615</ele><time>2015-10-25T09:13:48Z</time></trkpt><trkpt lat="42.855089" lon="-5.673141"><ele>1008.690</ele><time>2015-10-25T09:13:52Z</time></trkpt><trkpt lat="42.855108" lon="-5.673166"><ele>1008.611</ele><time>2015-10-25T09:13:55Z</time></trkpt><trkpt lat="42.855182" lon="-5.673368"><ele>1008.683</ele><time>2015-10-25T09:14:12Z</time></trkpt><trkpt lat="42.855248" lon="-5.673490"><ele>1010.091</ele><time>2015-10-25T09:14:23Z</time></trkpt><trkpt lat="42.855374" lon="-5.673522"><ele>1010.085</ele><time>2015-10-25T09:14:36Z</time></trkpt><trkpt lat="42.855529" lon="-5.673417"><ele>1010.589</ele><time>2015-10-25T09:14:53Z</time></trkpt><trkpt lat="42.855625" lon="-5.673356"><ele>1010.517</ele><time>2015-10-25T09:15:03Z</time></trkpt><trkpt lat="42.855655" lon="-5.673359"><ele>1010.508</ele><time>2015-10-25T09:15:06Z</time></trkpt><trkpt lat="42.855777" lon="-5.673509"><ele>1011.499</ele><time>2015-10-25T09:15:23Z</time></trkpt><trkpt lat="42.855812" lon="-5.673550"><ele>1011.089</ele><time>2015-10-25T09:15:36Z</time></trkpt><trkpt lat="42.855833" lon="-5.673605"><ele>1011.012</ele><time>2015-10-25T09:15:40Z</time></trkpt><trkpt lat="42.855974" lon="-5.673768"><ele>1011.491</ele><time>2015-10-25T09:15:57Z</time></trkpt><trkpt lat="42.855990" lon="-5.673795"><ele>1011.496</ele><time>2015-10-25T09:15:59Z</time></trkpt><trkpt lat="42.856022" lon="-5.673862"><ele>1011.467</ele><time>2015-10-25T09:16:04Z</time></trkpt><trkpt lat="42.856142" lon="-5.674048"><ele>1011.949</ele><time>2015-10-25T09:16:20Z</time></trkpt><trkpt lat="42.856247" lon="-5.674192"><ele>1012.497</ele><time>2015-10-25T09:16:36Z</time></trkpt><trkpt lat="42.856379" lon="-5.674400"><ele>1012.989</ele><time>2015-10-25T09:16:53Z</time></trkpt><trkpt lat="42.856509" lon="-5.674571"><ele>1013.806</ele><time>2015-10-25T09:17:10Z</time></trkpt><trkpt lat="42.856633" lon="-5.674773"><ele>1013.826</ele><time>2015-10-25T09:17:27Z</time></trkpt><trkpt lat="42.856757" lon="-5.674973"><ele>1014.808</ele><time>2015-10-25T09:17:42Z</time></trkpt><trkpt lat="42.856774" lon="-5.675014"><ele>1014.819</ele><time>2015-10-25T09:17:45Z</time></trkpt><trkpt lat="42.856881" lon="-5.675201"><ele>1015.389</ele><time>2015-10-25T09:18:01Z</time></trkpt><trkpt lat="42.857013" lon="-5.675405"><ele>1016.782</ele><time>2015-10-25T09:18:19Z</time></trkpt><trkpt lat="42.857117" lon="-5.675584"><ele>1017.771</ele><time>2015-10-25T09:18:35Z</time></trkpt><trkpt lat="42.857250" lon="-5.675725"><ele>1019.186</ele><time>2015-10-25T09:18:53Z</time></trkpt><trkpt lat="42.857419" lon="-5.675804"><ele>1020.157</ele><time>2015-10-25T09:19:10Z</time></trkpt><trkpt lat="42.857625" lon="-5.675892"><ele>1020.679</ele><time>2015-10-25T09:19:29Z</time></trkpt><trkpt lat="42.857840" lon="-5.675908"><ele>1022.517</ele><time>2015-10-25T09:19:50Z</time></trkpt><trkpt lat="42.858021" lon="-5.675867"><ele>1023.584</ele><time>2015-10-25T09:20:07Z</time></trkpt><trkpt lat="42.858162" lon="-5.675832"><ele>1023.907</ele><time>2015-10-25T09:20:20Z</time></trkpt><trkpt lat="42.858344" lon="-5.675752"><ele>1024.917</ele><time>2015-10-25T09:20:38Z</time></trkpt><trkpt lat="42.858493" lon="-5.675692"><ele>1025.908</ele><time>2015-10-25T09:20:52Z</time></trkpt><trkpt lat="42.858657" lon="-5.675617"><ele>1026.829</ele><time>2015-10-25T09:21:08Z</time></trkpt><trkpt lat="42.858834" lon="-5.675523"><ele>1027.389</ele><time>2015-10-25T09:21:25Z</time></trkpt><trkpt lat="42.858991" lon="-5.675364"><ele>1026.372</ele><time>2015-10-25T09:21:41Z</time></trkpt><trkpt lat="42.858997" lon="-5.675352"><ele>1026.341</ele><time>2015-10-25T09:21:42Z</time></trkpt><trkpt lat="42.859069" lon="-5.675083"><ele>1023.946</ele><time>2015-10-25T09:22:00Z</time></trkpt><trkpt lat="42.859125" lon="-5.674908"><ele>1022.587</ele><time>2015-10-25T09:22:12Z</time></trkpt><trkpt lat="42.859231" lon="-5.674781"><ele>1021.589</ele><time>2015-10-25T09:22:26Z</time></trkpt><trkpt lat="42.859382" lon="-5.674714"><ele>1020.127</ele><time>2015-10-25T09:22:41Z</time></trkpt><trkpt lat="42.859590" lon="-5.674654"><ele>1019.648</ele><time>2015-10-25T09:22:56Z</time></trkpt><trkpt lat="42.859826" lon="-5.674570"><ele>1018.761</ele><time>2015-10-25T09:23:14Z</time></trkpt><trkpt lat="42.860039" lon="-5.674564"><ele>1018.717</ele><time>2015-10-25T09:23:30Z</time></trkpt><trkpt lat="42.860087" lon="-5.674569"><ele>1018.208</ele><time>2015-10-25T09:23:34Z</time></trkpt><trkpt lat="42.860139" lon="-5.674727"><ele>1017.255</ele><time>2015-10-25T09:23:45Z</time></trkpt><trkpt lat="42.860010" lon="-5.674924"><ele>1015.385</ele><time>2015-10-25T09:24:03Z</time></trkpt><trkpt lat="42.860011" lon="-5.674961"><ele>1015.328</ele><time>2015-10-25T09:24:06Z</time></trkpt><trkpt lat="42.860029" lon="-5.675031"><ele>1014.367</ele><time>2015-10-25T09:24:13Z</time></trkpt><trkpt lat="42.860079" lon="-5.675070"><ele>1013.812</ele><time>2015-10-25T09:24:19Z</time></trkpt><trkpt lat="42.860123" lon="-5.675077"><ele>1013.813</ele><time>2015-10-25T09:24:27Z</time></trkpt><trkpt lat="42.860168" lon="-5.675024"><ele>1015.345</ele><time>2015-10-25T09:24:35Z</time></trkpt><trkpt lat="42.860293" lon="-5.674908"><ele>1015.313</ele><time>2015-10-25T09:24:52Z</time></trkpt><trkpt lat="42.860314" lon="-5.674904"><ele>1015.836</ele><time>2015-10-25T09:24:54Z</time></trkpt><trkpt lat="42.860472" lon="-5.675063"><ele>1016.217</ele><time>2015-10-25T09:25:09Z</time></trkpt><trkpt lat="42.860609" lon="-5.675218"><ele>1016.218</ele><time>2015-10-25T09:25:24Z</time></trkpt><trkpt lat="42.860651" lon="-5.675234"><ele>1016.708</ele><time>2015-10-25T09:25:30Z</time></trkpt><trkpt lat="42.860684" lon="-5.675198"><ele>1016.774</ele><time>2015-10-25T09:25:34Z</time></trkpt><trkpt lat="42.860794" lon="-5.675056"><ele>1017.224</ele><time>2015-10-25T09:25:50Z</time></trkpt><trkpt lat="42.860933" lon="-5.674878"><ele>1017.757</ele><time>2015-10-25T09:26:06Z</time></trkpt><trkpt lat="42.861150" lon="-5.674725"><ele>1019.126</ele><time>2015-10-25T09:26:26Z</time></trkpt><trkpt lat="42.861212" lon="-5.674701"><ele>1019.121</ele><time>2015-10-25T09:26:31Z</time></trkpt><trkpt lat="42.861344" lon="-5.674740"><ele>1020.152</ele><time>2015-10-25T09:26:42Z</time></trkpt><trkpt lat="42.861492" lon="-5.674950"><ele>1020.174</ele><time>2015-10-25T09:26:59Z</time></trkpt><trkpt lat="42.861646" lon="-5.675168"><ele>1020.182</ele><time>2015-10-25T09:27:17Z</time></trkpt><trkpt lat="42.861767" lon="-5.675367"><ele>1020.155</ele><time>2015-10-25T09:27:33Z</time></trkpt><trkpt lat="42.861885" lon="-5.675591"><ele>1020.107</ele><time>2015-10-25T09:27:50Z</time></trkpt><trkpt lat="42.862009" lon="-5.675788"><ele>1020.117</ele><time>2015-10-25T09:28:07Z</time></trkpt><trkpt lat="42.862147" lon="-5.676006"><ele>1021.108</ele><time>2015-10-25T09:28:25Z</time></trkpt><trkpt lat="42.862269" lon="-5.676214"><ele>1021.576</ele><time>2015-10-25T09:28:42Z</time></trkpt><trkpt lat="42.862420" lon="-5.676473"><ele>1021.576</ele><time>2015-10-25T09:29:02Z</time></trkpt><trkpt lat="42.862577" lon="-5.676803"><ele>1021.529</ele><time>2015-10-25T09:29:25Z</time></trkpt><trkpt lat="42.862689" lon="-5.677120"><ele>1021.558</ele><time>2015-10-25T09:29:45Z</time></trkpt><trkpt lat="42.862756" lon="-5.677435"><ele>1022.053</ele><time>2015-10-25T09:30:04Z</time></trkpt><trkpt lat="42.862821" lon="-5.677729"><ele>1022.514</ele><time>2015-10-25T09:30:22Z</time></trkpt><trkpt lat="42.862828" lon="-5.678004"><ele>1022.556</ele><time>2015-10-25T09:30:39Z</time></trkpt><trkpt lat="42.862829" lon="-5.678339"><ele>1023.574</ele><time>2015-10-25T09:30:58Z</time></trkpt><trkpt lat="42.862864" lon="-5.678645"><ele>1023.555</ele><time>2015-10-25T09:31:16Z</time></trkpt><trkpt lat="42.862943" lon="-5.678950"><ele>1023.907</ele><time>2015-10-25T09:31:37Z</time></trkpt><trkpt lat="42.863064" lon="-5.679150"><ele>1024.417</ele><time>2015-10-25T09:31:53Z</time></trkpt><trkpt lat="42.863218" lon="-5.679374"><ele>1024.908</ele><time>2015-10-25T09:32:11Z</time></trkpt><trkpt lat="42.863371" lon="-5.679608"><ele>1024.966</ele><time>2015-10-25T09:32:30Z</time></trkpt><trkpt lat="42.863573" lon="-5.679869"><ele>1024.986</ele><time>2015-10-25T09:32:53Z</time></trkpt><trkpt lat="42.863706" lon="-5.680061"><ele>1024.939</ele><time>2015-10-25T09:33:09Z</time></trkpt><trkpt lat="42.863856" lon="-5.680182"><ele>1025.478</ele><time>2015-10-25T09:33:26Z</time></trkpt><trkpt lat="42.863920" lon="-5.680244"><ele>1025.483</ele><time>2015-10-25T09:33:38Z</time></trkpt><trkpt lat="42.863949" lon="-5.680281"><ele>1025.444</ele><time>2015-10-25T09:33:54Z</time></trkpt><trkpt lat="42.864038" lon="-5.680345"><ele>1025.456</ele><time>2015-10-25T09:34:08Z</time></trkpt><trkpt lat="42.864191" lon="-5.680454"><ele>1025.494</ele><time>2015-10-25T09:34:25Z</time></trkpt><trkpt lat="42.864345" lon="-5.680532"><ele>1025.416</ele><time>2015-10-25T09:34:41Z</time></trkpt><trkpt lat="42.864525" lon="-5.680636"><ele>1025.976</ele><time>2015-10-25T09:34:57Z</time></trkpt><trkpt lat="42.864685" lon="-5.680711"><ele>1025.913</ele><time>2015-10-25T09:35:12Z</time></trkpt><trkpt lat="42.864874" lon="-5.680822"><ele>1024.908</ele><time>2015-10-25T09:35:29Z</time></trkpt><trkpt lat="42.865058" lon="-5.680989"><ele>1024.922</ele><time>2015-10-25T09:35:46Z</time></trkpt><trkpt lat="42.865252" lon="-5.681124"><ele>1026.372</ele><time>2015-10-25T09:36:03Z</time></trkpt><trkpt lat="42.865455" lon="-5.681199"><ele>1027.885</ele><time>2015-10-25T09:36:22Z</time></trkpt><trkpt lat="42.865628" lon="-5.681347"><ele>1028.394</ele><time>2015-10-25T09:36:38Z</time></trkpt><trkpt lat="42.865853" lon="-5.681395"><ele>1028.849</ele><time>2015-10-25T09:36:57Z</time></trkpt><trkpt lat="42.865949" lon="-5.681428"><ele>1028.810</ele><time>2015-10-25T09:37:10Z</time></trkpt><trkpt lat="42.865989" lon="-5.681402"><ele>1028.862</ele><time>2015-10-25T09:37:15Z</time></trkpt><trkpt lat="42.866203" lon="-5.681502"><ele>1028.810</ele><time>2015-10-25T09:37:33Z</time></trkpt><trkpt lat="42.866292" lon="-5.681545"><ele>1028.854</ele><time>2015-10-25T09:37:41Z</time></trkpt><trkpt lat="42.866450" lon="-5.681650"><ele>1028.856</ele><time>2015-10-25T09:37:57Z</time></trkpt><trkpt lat="42.866593" lon="-5.681590"><ele>1028.811</ele><time>2015-10-25T09:38:09Z</time></trkpt><trkpt lat="42.866626" lon="-5.681609"><ele>1028.808</ele><time>2015-10-25T09:38:12Z</time></trkpt><trkpt lat="42.866693" lon="-5.681640"><ele>1028.826</ele><time>2015-10-25T09:38:17Z</time></trkpt><trkpt lat="42.866799" lon="-5.681603"><ele>1028.896</ele><time>2015-10-25T09:38:25Z</time></trkpt><trkpt lat="42.867007" lon="-5.681554"><ele>1028.829</ele><time>2015-10-25T09:38:42Z</time></trkpt><trkpt lat="42.867107" lon="-5.681539"><ele>1028.888</ele><time>2015-10-25T09:38:51Z</time></trkpt><trkpt lat="42.867240" lon="-5.681543"><ele>1028.853</ele><time>2015-10-25T09:39:03Z</time></trkpt><trkpt lat="42.867295" lon="-5.681533"><ele>1028.824</ele><time>2015-10-25T09:39:08Z</time></trkpt><trkpt lat="42.867356" lon="-5.681518"><ele>1028.896</ele><time>2015-10-25T09:39:14Z</time></trkpt><trkpt lat="42.867564" lon="-5.681519"><ele>1028.864</ele><time>2015-10-25T09:39:32Z</time></trkpt><trkpt lat="42.867743" lon="-5.681495"><ele>1029.787</ele><time>2015-10-25T09:39:47Z</time></trkpt><trkpt lat="42.867924" lon="-5.681519"><ele>1029.742</ele><time>2015-10-25T09:40:02Z</time></trkpt><trkpt lat="42.868179" lon="-5.681492"><ele>1029.726</ele><time>2015-10-25T09:40:18Z</time></trkpt><trkpt lat="42.868348" lon="-5.681593"><ele>1030.708</ele><time>2015-10-25T09:40:33Z</time></trkpt><trkpt lat="42.868532" lon="-5.681907"><ele>1031.299</ele><time>2015-10-25T09:40:50Z</time></trkpt><trkpt lat="42.868657" lon="-5.682022"><ele>1031.219</ele><time>2015-10-25T09:41:05Z</time></trkpt><trkpt lat="42.868805" lon="-5.682157"><ele>1031.292</ele><time>2015-10-25T09:41:21Z</time></trkpt><trkpt lat="42.868984" lon="-5.682393"><ele>1031.631</ele><time>2015-10-25T09:41:39Z</time></trkpt><trkpt lat="42.869179" lon="-5.682671"><ele>1033.176</ele><time>2015-10-25T09:42:00Z</time></trkpt><trkpt lat="42.869317" lon="-5.682953"><ele>1033.637</ele><time>2015-10-25T09:42:18Z</time></trkpt><trkpt lat="42.869425" lon="-5.683279"><ele>1035.069</ele><time>2015-10-25T09:42:37Z</time></trkpt><trkpt lat="42.869473" lon="-5.683565"><ele>1036.067</ele><time>2015-10-25T09:42:54Z</time></trkpt><trkpt lat="42.869492" lon="-5.683849"><ele>1037.422</ele><time>2015-10-25T09:43:11Z</time></trkpt><trkpt lat="42.869482" lon="-5.684166"><ele>1038.862</ele><time>2015-10-25T09:43:30Z</time></trkpt><trkpt lat="42.869434" lon="-5.684478"><ele>1039.808</ele><time>2015-10-25T09:43:48Z</time></trkpt><trkpt lat="42.869398" lon="-5.684747"><ele>1040.808</ele><time>2015-10-25T09:44:05Z</time></trkpt><trkpt lat="42.869368" lon="-5.684794"><ele>1040.833</ele><time>2015-10-25T09:44:20Z</time></trkpt><trkpt lat="42.869370" lon="-5.684812"><ele>1040.833</ele><time>2015-10-25T09:44:25Z</time></trkpt><trkpt lat="42.869383" lon="-5.685051"><ele>1041.266</ele><time>2015-10-25T09:44:42Z</time></trkpt><trkpt lat="42.869453" lon="-5.685325"><ele>1041.275</ele><time>2015-10-25T09:45:01Z</time></trkpt><trkpt lat="42.869572" lon="-5.685554"><ele>1041.290</ele><time>2015-10-25T09:45:19Z</time></trkpt><trkpt lat="42.869694" lon="-5.685717"><ele>1041.781</ele><time>2015-10-25T09:45:33Z</time></trkpt><trkpt lat="42.869737" lon="-5.685701"><ele>1041.753</ele><time>2015-10-25T09:45:38Z</time></trkpt><trkpt lat="42.869953" lon="-5.685771"><ele>1041.721</ele><time>2015-10-25T09:45:56Z</time></trkpt><trkpt lat="42.870101" lon="-5.685915"><ele>1041.785</ele><time>2015-10-25T09:46:12Z</time></trkpt><trkpt lat="42.870297" lon="-5.686027"><ele>1041.789</ele><time>2015-10-25T09:46:30Z</time></trkpt><trkpt lat="42.870465" lon="-5.686108"><ele>1041.717</ele><time>2015-10-25T09:46:46Z</time></trkpt><trkpt lat="42.870675" lon="-5.686225"><ele>1041.708</ele><time>2015-10-25T09:47:05Z</time></trkpt><trkpt lat="42.870859" lon="-5.686399"><ele>1041.779</ele><time>2015-10-25T09:47:23Z</time></trkpt><trkpt lat="42.870948" lon="-5.686524"><ele>1041.719</ele><time>2015-10-25T09:47:34Z</time></trkpt><trkpt lat="42.871088" lon="-5.686659"><ele>1041.752</ele><time>2015-10-25T09:47:49Z</time></trkpt><trkpt lat="42.871239" lon="-5.686747"><ele>1041.761</ele><time>2015-10-25T09:48:06Z</time></trkpt><trkpt lat="42.871322" lon="-5.686737"><ele>1041.746</ele><time>2015-10-25T09:48:12Z</time></trkpt><trkpt lat="42.871535" lon="-5.686778"><ele>1041.727</ele><time>2015-10-25T09:48:29Z</time></trkpt><trkpt lat="42.871557" lon="-5.686784"><ele>1041.739</ele><time>2015-10-25T09:48:31Z</time></trkpt><trkpt lat="42.871746" lon="-5.686780"><ele>1042.237</ele><time>2015-10-25T09:48:50Z</time></trkpt><trkpt lat="42.871802" lon="-5.686784"><ele>1042.713</ele><time>2015-10-25T09:48:56Z</time></trkpt><trkpt lat="42.871854" lon="-5.686783"><ele>1042.743</ele><time>2015-10-25T09:49:01Z</time></trkpt><trkpt lat="42.872047" lon="-5.686754"><ele>1044.107</ele><time>2015-10-25T09:49:19Z</time></trkpt><trkpt lat="42.872163" lon="-5.686715"><ele>1044.108</ele><time>2015-10-25T09:49:29Z</time></trkpt><trkpt lat="42.872391" lon="-5.686628"><ele>1044.672</ele><time>2015-10-25T09:49:47Z</time></trkpt><trkpt lat="42.872519" lon="-5.686632"><ele>1044.672</ele><time>2015-10-25T09:49:57Z</time></trkpt><trkpt lat="42.872722" lon="-5.686706"><ele>1044.665</ele><time>2015-10-25T09:50:13Z</time></trkpt><trkpt lat="42.872734" lon="-5.686711"><ele>1044.674</ele><time>2015-10-25T09:50:14Z</time></trkpt><trkpt lat="42.872916" lon="-5.686788"><ele>1045.189</ele><time>2015-10-25T09:50:30Z</time></trkpt><trkpt lat="42.872925" lon="-5.686794"><ele>1045.120</ele><time>2015-10-25T09:50:31Z</time></trkpt><trkpt lat="42.873147" lon="-5.686858"><ele>1047.092</ele><time>2015-10-25T09:50:48Z</time></trkpt><trkpt lat="42.873330" lon="-5.686932"><ele>1048.050</ele><time>2015-10-25T09:51:02Z</time></trkpt><trkpt lat="42.873540" lon="-5.687065"><ele>1048.968</ele><time>2015-10-25T09:51:19Z</time></trkpt><trkpt lat="42.873678" lon="-5.687137"><ele>1049.942</ele><time>2015-10-25T09:51:31Z</time></trkpt><trkpt lat="42.873746" lon="-5.687159"><ele>1050.426</ele><time>2015-10-25T09:51:37Z</time></trkpt><trkpt lat="42.873846" lon="-5.687186"><ele>1050.908</ele><time>2015-10-25T09:51:46Z</time></trkpt><trkpt lat="42.873931" lon="-5.687161"><ele>1051.897</ele><time>2015-10-25T09:51:54Z</time></trkpt><trkpt lat="42.874108" lon="-5.687109"><ele>1052.827</ele><time>2015-10-25T09:52:11Z</time></trkpt><trkpt lat="42.874273" lon="-5.687127"><ele>1053.740</ele><time>2015-10-25T09:52:24Z</time></trkpt><trkpt lat="42.874462" lon="-5.687163"><ele>1054.779</ele><time>2015-10-25T09:52:40Z</time></trkpt><trkpt lat="42.874621" lon="-5.687230"><ele>1055.294</ele><time>2015-10-25T09:52:55Z</time></trkpt><trkpt lat="42.874631" lon="-5.687235"><ele>1055.235</ele><time>2015-10-25T09:52:56Z</time></trkpt><trkpt lat="42.874706" lon="-5.687274"><ele>1055.777</ele><time>2015-10-25T09:53:03Z</time></trkpt><trkpt lat="42.874784" lon="-5.687291"><ele>1056.215</ele><time>2015-10-25T09:53:09Z</time></trkpt><trkpt lat="42.874856" lon="-5.687295"><ele>1056.682</ele><time>2015-10-25T09:53:15Z</time></trkpt><trkpt lat="42.875029" lon="-5.687251"><ele>1058.143</ele><time>2015-10-25T09:53:31Z</time></trkpt><trkpt lat="42.875188" lon="-5.687232"><ele>1059.017</ele><time>2015-10-25T09:53:46Z</time></trkpt><trkpt lat="42.875366" lon="-5.687218"><ele>1060.908</ele><time>2015-10-25T09:54:02Z</time></trkpt><trkpt lat="42.875539" lon="-5.687100"><ele>1062.429</ele><time>2015-10-25T09:54:20Z</time></trkpt><trkpt lat="42.875706" lon="-5.686995"><ele>1063.889</ele><time>2015-10-25T09:54:37Z</time></trkpt><trkpt lat="42.875880" lon="-5.686947"><ele>1064.892</ele><time>2015-10-25T09:54:53Z</time></trkpt><trkpt lat="42.876072" lon="-5.687009"><ele>1064.851</ele><time>2015-10-25T09:55:10Z</time></trkpt><trkpt lat="42.876254" lon="-5.687101"><ele>1064.896</ele><time>2015-10-25T09:55:26Z</time></trkpt><trkpt lat="42.876274" lon="-5.687114"><ele>1065.357</ele><time>2015-10-25T09:55:28Z</time></trkpt><trkpt lat="42.876420" lon="-5.687184"><ele>1065.379</ele><time>2015-10-25T09:55:41Z</time></trkpt><trkpt lat="42.876628" lon="-5.687284"><ele>1065.347</ele><time>2015-10-25T09:55:58Z</time></trkpt><trkpt lat="42.876759" lon="-5.687294"><ele>1065.377</ele><time>2015-10-25T09:56:08Z</time></trkpt><trkpt lat="42.876853" lon="-5.687281"><ele>1065.361</ele><time>2015-10-25T09:56:16Z</time></trkpt><trkpt lat="42.876901" lon="-5.687271"><ele>1065.327</ele><time>2015-10-25T09:56:20Z</time></trkpt><trkpt lat="42.877119" lon="-5.687231"><ele>1067.208</ele><time>2015-10-25T09:56:38Z</time></trkpt><trkpt lat="42.877294" lon="-5.687191"><ele>1067.788</ele><time>2015-10-25T09:56:53Z</time></trkpt><trkpt lat="42.877497" lon="-5.687167"><ele>1068.628</ele><time>2015-10-25T09:57:10Z</time></trkpt><trkpt lat="42.877558" lon="-5.687158"><ele>1069.641</ele><time>2015-10-25T09:57:15Z</time></trkpt><trkpt lat="42.877668" lon="-5.687156"><ele>1069.650</ele><time>2015-10-25T09:57:24Z</time></trkpt><trkpt lat="42.877740" lon="-5.687167"><ele>1070.175</ele><time>2015-10-25T09:57:30Z</time></trkpt><trkpt lat="42.877790" lon="-5.687180"><ele>1070.166</ele><time>2015-10-25T09:57:34Z</time></trkpt><trkpt lat="42.877881" lon="-5.687198"><ele>1070.628</ele><time>2015-10-25T09:57:42Z</time></trkpt><trkpt lat="42.877942" lon="-5.687201"><ele>1071.596</ele><time>2015-10-25T09:57:48Z</time></trkpt><trkpt lat="42.878015" lon="-5.687205"><ele>1071.595</ele><time>2015-10-25T09:57:54Z</time></trkpt><trkpt lat="42.878095" lon="-5.687205"><ele>1072.049</ele><time>2015-10-25T09:58:01Z</time></trkpt><trkpt lat="42.878129" lon="-5.687196"><ele>1072.523</ele><time>2015-10-25T09:58:04Z</time></trkpt><trkpt lat="42.878332" lon="-5.687092"><ele>1073.408</ele><time>2015-10-25T09:58:22Z</time></trkpt><trkpt lat="42.878508" lon="-5.686989"><ele>1073.950</ele><time>2015-10-25T09:58:37Z</time></trkpt><trkpt lat="42.878700" lon="-5.686849"><ele>1073.960</ele><time>2015-10-25T09:58:55Z</time></trkpt><trkpt lat="42.878799" lon="-5.686687"><ele>1074.973</ele><time>2015-10-25T09:59:11Z</time></trkpt><trkpt lat="42.878962" lon="-5.686546"><ele>1074.912</ele><time>2015-10-25T09:59:27Z</time></trkpt><trkpt lat="42.879156" lon="-5.686480"><ele>1074.947</ele><time>2015-10-25T09:59:41Z</time></trkpt><trkpt lat="42.879365" lon="-5.686545"><ele>1074.948</ele><time>2015-10-25T09:59:59Z</time></trkpt><trkpt lat="42.879536" lon="-5.686713"><ele>1075.450</ele><time>2015-10-25T10:00:16Z</time></trkpt><trkpt lat="42.879593" lon="-5.686775"><ele>1075.498</ele><time>2015-10-25T10:00:22Z</time></trkpt><trkpt lat="42.879711" lon="-5.687020"><ele>1074.427</ele><time>2015-10-25T10:00:37Z</time></trkpt><trkpt lat="42.879888" lon="-5.687232"><ele>1074.468</ele><time>2015-10-25T10:00:55Z</time></trkpt><trkpt lat="42.880046" lon="-5.687445"><ele>1074.414</ele><time>2015-10-25T10:01:13Z</time></trkpt><trkpt lat="42.880184" lon="-5.687640"><ele>1074.408</ele><time>2015-10-25T10:01:29Z</time></trkpt><trkpt lat="42.880298" lon="-5.687709"><ele>1075.853</ele><time>2015-10-25T10:01:41Z</time></trkpt><trkpt lat="42.880348" lon="-5.687714"><ele>1075.873</ele><time>2015-10-25T10:01:46Z</time></trkpt><trkpt lat="42.880549" lon="-5.687719"><ele>1076.816</ele><time>2015-10-25T10:02:06Z</time></trkpt><trkpt lat="42.880724" lon="-5.687690"><ele>1077.895</ele><time>2015-10-25T10:02:21Z</time></trkpt><trkpt lat="42.880744" lon="-5.687686"><ele>1077.880</ele><time>2015-10-25T10:02:23Z</time></trkpt><trkpt lat="42.880775" lon="-5.687669"><ele>1077.811</ele><time>2015-10-25T10:02:28Z</time></trkpt><trkpt lat="42.880932" lon="-5.687571"><ele>1079.253</ele><time>2015-10-25T10:02:45Z</time></trkpt><trkpt lat="42.880946" lon="-5.687563"><ele>1079.711</ele><time>2015-10-25T10:02:47Z</time></trkpt><trkpt lat="42.881024" lon="-5.687523"><ele>1080.233</ele><time>2015-10-25T10:02:59Z</time></trkpt><trkpt lat="42.881110" lon="-5.687509"><ele>1080.223</ele><time>2015-10-25T10:03:04Z</time></trkpt><trkpt lat="42.881310" lon="-5.687414"><ele>1081.115</ele><time>2015-10-25T10:03:22Z</time></trkpt><trkpt lat="42.881538" lon="-5.687364"><ele>1081.108</ele><time>2015-10-25T10:03:41Z</time></trkpt><trkpt lat="42.881721" lon="-5.687345"><ele>1081.614</ele><time>2015-10-25T10:03:58Z</time></trkpt><trkpt lat="42.881943" lon="-5.687302"><ele>1083.134</ele><time>2015-10-25T10:04:15Z</time></trkpt><trkpt lat="42.882184" lon="-5.687297"><ele>1083.557</ele><time>2015-10-25T10:04:35Z</time></trkpt><trkpt lat="42.882395" lon="-5.687322"><ele>1084.066</ele><time>2015-10-25T10:04:51Z</time></trkpt><trkpt lat="42.882628" lon="-5.687357"><ele>1085.541</ele><time>2015-10-25T10:05:08Z</time></trkpt><trkpt lat="42.882810" lon="-5.687385"><ele>1085.972</ele><time>2015-10-25T10:05:24Z</time></trkpt><trkpt lat="42.882982" lon="-5.687413"><ele>1086.944</ele><time>2015-10-25T10:05:36Z</time></trkpt><trkpt lat="42.883155" lon="-5.687383"><ele>1088.352</ele><time>2015-10-25T10:05:51Z</time></trkpt><trkpt lat="42.883314" lon="-5.687326"><ele>1089.343</ele><time>2015-10-25T10:06:06Z</time></trkpt><trkpt lat="42.883513" lon="-5.687286"><ele>1089.364</ele><time>2015-10-25T10:06:21Z</time></trkpt><trkpt lat="42.883635" lon="-5.687266"><ele>1089.810</ele><time>2015-10-25T10:06:31Z</time></trkpt><trkpt lat="42.883701" lon="-5.687262"><ele>1090.308</ele><time>2015-10-25T10:06:36Z</time></trkpt><trkpt lat="42.883736" lon="-5.687264"><ele>1090.375</ele><time>2015-10-25T10:06:39Z</time></trkpt><trkpt lat="42.883843" lon="-5.687284"><ele>1091.235</ele><time>2015-10-25T10:06:48Z</time></trkpt><trkpt lat="42.884027" lon="-5.687294"><ele>1092.778</ele><time>2015-10-25T10:07:05Z</time></trkpt><trkpt lat="42.884090" lon="-5.687289"><ele>1093.227</ele><time>2015-10-25T10:07:11Z</time></trkpt><trkpt lat="42.884154" lon="-5.687268"><ele>1093.262</ele><time>2015-10-25T10:07:18Z</time></trkpt><trkpt lat="42.884323" lon="-5.687227"><ele>1093.683</ele><time>2015-10-25T10:07:33Z</time></trkpt><trkpt lat="42.884614" lon="-5.687296"><ele>1094.615</ele><time>2015-10-25T10:07:51Z</time></trkpt><trkpt lat="42.884840" lon="-5.687178"><ele>1093.613</ele><time>2015-10-25T10:08:10Z</time></trkpt><trkpt lat="42.885061" lon="-5.687011"><ele>1093.627</ele><time>2015-10-25T10:08:32Z</time></trkpt><trkpt lat="42.885204" lon="-5.686779"><ele>1093.668</ele><time>2015-10-25T10:08:50Z</time></trkpt><trkpt lat="42.885236" lon="-5.686721"><ele>1094.614</ele><time>2015-10-25T10:08:54Z</time></trkpt><trkpt lat="42.885349" lon="-5.686490"><ele>1095.608</ele><time>2015-10-25T10:09:11Z</time></trkpt><trkpt lat="42.885445" lon="-5.686253"><ele>1096.543</ele><time>2015-10-25T10:09:29Z</time></trkpt><trkpt lat="42.885564" lon="-5.686019"><ele>1097.013</ele><time>2015-10-25T10:09:47Z</time></trkpt><trkpt lat="42.885639" lon="-5.685773"><ele>1098.096</ele><time>2015-10-25T10:10:05Z</time></trkpt><trkpt lat="42.885677" lon="-5.685525"><ele>1098.425</ele><time>2015-10-25T10:10:20Z</time></trkpt><trkpt lat="42.885871" lon="-5.685266"><ele>1099.940</ele><time>2015-10-25T10:10:39Z</time></trkpt><trkpt lat="42.886028" lon="-5.685078"><ele>1101.891</ele><time>2015-10-25T10:10:56Z</time></trkpt><trkpt lat="42.886205" lon="-5.684905"><ele>1102.823</ele><time>2015-10-25T10:11:13Z</time></trkpt><trkpt lat="42.886435" lon="-5.684856"><ele>1103.251</ele><time>2015-10-25T10:11:30Z</time></trkpt><trkpt lat="42.886659" lon="-5.684762"><ele>1103.268</ele><time>2015-10-25T10:11:48Z</time></trkpt><trkpt lat="42.886815" lon="-5.684624"><ele>1103.742</ele><time>2015-10-25T10:12:04Z</time></trkpt><trkpt lat="42.886861" lon="-5.684574"><ele>1104.226</ele><time>2015-10-25T10:12:09Z</time></trkpt><trkpt lat="42.887075" lon="-5.684406"><ele>1104.208</ele><time>2015-10-25T10:12:28Z</time></trkpt><trkpt lat="42.887274" lon="-5.684267"><ele>1104.767</ele><time>2015-10-25T10:12:45Z</time></trkpt><trkpt lat="42.887473" lon="-5.684159"><ele>1105.237</ele><time>2015-10-25T10:13:02Z</time></trkpt><trkpt lat="42.887678" lon="-5.684017"><ele>1105.720</ele><time>2015-10-25T10:13:20Z</time></trkpt><trkpt lat="42.887916" lon="-5.683988"><ele>1105.789</ele><time>2015-10-25T10:13:38Z</time></trkpt><trkpt lat="42.888136" lon="-5.683998"><ele>1106.154</ele><time>2015-10-25T10:13:56Z</time></trkpt><trkpt lat="42.888336" lon="-5.684012"><ele>1106.615</ele><time>2015-10-25T10:14:13Z</time></trkpt><trkpt lat="42.888525" lon="-5.683977"><ele>1108.587</ele><time>2015-10-25T10:14:30Z</time></trkpt><trkpt lat="42.888735" lon="-5.683964"><ele>1109.045</ele><time>2015-10-25T10:14:47Z</time></trkpt><trkpt lat="42.888958" lon="-5.684061"><ele>1110.083</ele><time>2015-10-25T10:15:05Z</time></trkpt><trkpt lat="42.889126" lon="-5.684275"><ele>1110.525</ele><time>2015-10-25T10:15:22Z</time></trkpt><trkpt lat="42.889271" lon="-5.684564"><ele>1110.917</ele><time>2015-10-25T10:15:40Z</time></trkpt><trkpt lat="42.889395" lon="-5.684716"><ele>1111.408</ele><time>2015-10-25T10:15:54Z</time></trkpt><trkpt lat="42.889566" lon="-5.684751"><ele>1111.969</ele><time>2015-10-25T10:16:10Z</time></trkpt><trkpt lat="42.889735" lon="-5.684753"><ele>1112.999</ele><time>2015-10-25T10:16:26Z</time></trkpt><trkpt lat="42.889795" lon="-5.684757"><ele>1113.322</ele><time>2015-10-25T10:16:31Z</time></trkpt><trkpt lat="42.889845" lon="-5.684764"><ele>1113.861</ele><time>2015-10-25T10:16:35Z</time></trkpt><trkpt lat="42.889887" lon="-5.684776"><ele>1113.856</ele><time>2015-10-25T10:16:40Z</time></trkpt><trkpt lat="42.889933" lon="-5.684784"><ele>1113.827</ele><time>2015-10-25T10:16:44Z</time></trkpt><trkpt lat="42.890166" lon="-5.684818"><ele>1115.359</ele><time>2015-10-25T10:17:04Z</time></trkpt><trkpt lat="42.890329" lon="-5.684856"><ele>1115.857</ele><time>2015-10-25T10:17:18Z</time></trkpt><trkpt lat="42.890501" lon="-5.684859"><ele>1117.243</ele><time>2015-10-25T10:17:34Z</time></trkpt><trkpt lat="42.890707" lon="-5.684936"><ele>1118.664</ele><time>2015-10-25T10:17:53Z</time></trkpt><trkpt lat="42.890762" lon="-5.684971"><ele>1119.110</ele><time>2015-10-25T10:17:58Z</time></trkpt><trkpt lat="42.890956" lon="-5.685105"><ele>1119.608</ele><time>2015-10-25T10:18:17Z</time></trkpt><trkpt lat="42.891137" lon="-5.685298"><ele>1120.615</ele><time>2015-10-25T10:18:35Z</time></trkpt><trkpt lat="42.891287" lon="-5.685459"><ele>1121.085</ele><time>2015-10-25T10:18:51Z</time></trkpt><trkpt lat="42.891439" lon="-5.685594"><ele>1121.538</ele><time>2015-10-25T10:19:08Z</time></trkpt><trkpt lat="42.891537" lon="-5.685668"><ele>1121.527</ele><time>2015-10-25T10:19:17Z</time></trkpt><trkpt lat="42.891716" lon="-5.685822"><ele>1122.592</ele><time>2015-10-25T10:19:35Z</time></trkpt><trkpt lat="42.891906" lon="-5.685983"><ele>1123.983</ele><time>2015-10-25T10:19:55Z</time></trkpt><trkpt lat="42.892095" lon="-5.686183"><ele>1124.965</ele><time>2015-10-25T10:20:15Z</time></trkpt><trkpt lat="42.892287" lon="-5.686291"><ele>1126.383</ele><time>2015-10-25T10:20:33Z</time></trkpt><trkpt lat="42.892457" lon="-5.686241"><ele>1126.332</ele><time>2015-10-25T10:20:50Z</time></trkpt><trkpt lat="42.892470" lon="-5.686296"><ele>1126.392</ele><time>2015-10-25T10:21:05Z</time></trkpt><trkpt lat="42.892462" lon="-5.686322"><ele>1126.311</ele><time>2015-10-25T10:21:23Z</time></trkpt><trkpt lat="42.892448" lon="-5.686309"><ele>1126.308</ele><time>2015-10-25T10:21:39Z</time></trkpt><trkpt lat="42.892469" lon="-5.686292"><ele>1126.824</ele><time>2015-10-25T10:22:00Z</time></trkpt><trkpt lat="42.892470" lon="-5.686266"><ele>1126.844</ele><time>2015-10-25T10:22:29Z</time></trkpt><trkpt lat="42.892480" lon="-5.686243"><ele>1126.867</ele><time>2015-10-25T10:22:47Z</time></trkpt><trkpt lat="42.892487" lon="-5.686276"><ele>1126.896</ele><time>2015-10-25T10:23:05Z</time></trkpt><trkpt lat="42.892518" lon="-5.686277"><ele>1126.881</ele><time>2015-10-25T10:23:19Z</time></trkpt><trkpt lat="42.892602" lon="-5.686303"><ele>1126.812</ele><time>2015-10-25T10:23:29Z</time></trkpt><trkpt lat="42.892809" lon="-5.686421"><ele>1127.854</ele><time>2015-10-25T10:23:49Z</time></trkpt><trkpt lat="42.892987" lon="-5.686519"><ele>1128.222</ele><time>2015-10-25T10:24:06Z</time></trkpt><trkpt lat="42.893151" lon="-5.686586"><ele>1129.223</ele><time>2015-10-25T10:24:22Z</time></trkpt><trkpt lat="42.893318" lon="-5.686613"><ele>1130.283</ele><time>2015-10-25T10:24:36Z</time></trkpt><trkpt lat="42.893489" lon="-5.686601"><ele>1132.111</ele><time>2015-10-25T10:24:52Z</time></trkpt><trkpt lat="42.893532" lon="-5.686618"><ele>1132.108</ele><time>2015-10-25T10:24:56Z</time></trkpt><trkpt lat="42.893615" lon="-5.686555"><ele>1133.123</ele><time>2015-10-25T10:25:03Z</time></trkpt><trkpt lat="42.893823" lon="-5.686569"><ele>1134.573</ele><time>2015-10-25T10:25:20Z</time></trkpt><trkpt lat="42.893873" lon="-5.686569"><ele>1135.486</ele><time>2015-10-25T10:25:24Z</time></trkpt><trkpt lat="42.893999" lon="-5.686631"><ele>1136.415</ele><time>2015-10-25T10:25:37Z</time></trkpt><trkpt lat="42.894205" lon="-5.686657"><ele>1137.490</ele><time>2015-10-25T10:25:55Z</time></trkpt><trkpt lat="42.894265" lon="-5.686664"><ele>1137.911</ele><time>2015-10-25T10:26:09Z</time></trkpt><trkpt lat="42.894277" lon="-5.686658"><ele>1137.953</ele><time>2015-10-25T10:26:31Z</time></trkpt><trkpt lat="42.894281" lon="-5.686723"><ele>1138.331</ele><time>2015-10-25T10:26:57Z</time></trkpt><trkpt lat="42.894276" lon="-5.686730"><ele>1138.375</ele><time>2015-10-25T10:27:14Z</time></trkpt><trkpt lat="42.894280" lon="-5.686693"><ele>1138.328</ele><time>2015-10-25T10:27:26Z</time></trkpt><trkpt lat="42.894267" lon="-5.686727"><ele>1138.320</ele><time>2015-10-25T10:27:46Z</time></trkpt><trkpt lat="42.894283" lon="-5.686902"><ele>1139.308</ele><time>2015-10-25T10:28:02Z</time></trkpt><trkpt lat="42.894389" lon="-5.686885"><ele>1142.298</ele><time>2015-10-25T10:28:17Z</time></trkpt><trkpt lat="42.894545" lon="-5.686878"><ele>1144.188</ele><time>2015-10-25T10:28:35Z</time></trkpt><trkpt lat="42.894567" lon="-5.686883"><ele>1144.651</ele><time>2015-10-25T10:28:37Z</time></trkpt><trkpt lat="42.894622" lon="-5.686865"><ele>1145.110</ele><time>2015-10-25T10:28:42Z</time></trkpt><trkpt lat="42.894745" lon="-5.686873"><ele>1145.665</ele><time>2015-10-25T10:28:58Z</time></trkpt><trkpt lat="42.894762" lon="-5.686946"><ele>1146.096</ele><time>2015-10-25T10:29:03Z</time></trkpt><trkpt lat="42.894798" lon="-5.687039"><ele>1146.528</ele><time>2015-10-25T10:29:10Z</time></trkpt><trkpt lat="42.894880" lon="-5.687235"><ele>1149.446</ele><time>2015-10-25T10:29:27Z</time></trkpt><trkpt lat="42.894950" lon="-5.687345"><ele>1151.892</ele><time>2015-10-25T10:29:41Z</time></trkpt><trkpt lat="42.895068" lon="-5.687462"><ele>1154.273</ele><time>2015-10-25T10:29:57Z</time></trkpt><trkpt lat="42.895207" lon="-5.687457"><ele>1156.120</ele><time>2015-10-25T10:30:13Z</time></trkpt><trkpt lat="42.895374" lon="-5.687435"><ele>1158.508</ele><time>2015-10-25T10:30:31Z</time></trkpt><trkpt lat="42.895406" lon="-5.687436"><ele>1158.570</ele><time>2015-10-25T10:30:34Z</time></trkpt><trkpt lat="42.895542" lon="-5.687481"><ele>1160.940</ele><time>2015-10-25T10:30:50Z</time></trkpt><trkpt lat="42.895664" lon="-5.687544"><ele>1163.353</ele><time>2015-10-25T10:31:05Z</time></trkpt><trkpt lat="42.895822" lon="-5.687617"><ele>1162.892</ele><time>2015-10-25T10:31:21Z</time></trkpt><trkpt lat="42.895962" lon="-5.687685"><ele>1163.867</ele><time>2015-10-25T10:31:35Z</time></trkpt><trkpt lat="42.896092" lon="-5.687693"><ele>1163.888</ele><time>2015-10-25T10:31:49Z</time></trkpt><trkpt lat="42.896259" lon="-5.687751"><ele>1167.240</ele><time>2015-10-25T10:32:08Z</time></trkpt><trkpt lat="42.896367" lon="-5.687849"><ele>1170.128</ele><time>2015-10-25T10:32:24Z</time></trkpt><trkpt lat="42.896457" lon="-5.687955"><ele>1172.097</ele><time>2015-10-25T10:32:39Z</time></trkpt><trkpt lat="42.896482" lon="-5.687986"><ele>1172.923</ele><time>2015-10-25T10:32:43Z</time></trkpt><trkpt lat="42.896629" lon="-5.688107"><ele>1174.425</ele><time>2015-10-25T10:33:01Z</time></trkpt><trkpt lat="42.896772" lon="-5.688150"><ele>1175.308</ele><time>2015-10-25T10:33:17Z</time></trkpt><trkpt lat="42.896789" lon="-5.688155"><ele>1175.310</ele><time>2015-10-25T10:33:19Z</time></trkpt><trkpt lat="42.896937" lon="-5.688220"><ele>1176.830</ele><time>2015-10-25T10:33:36Z</time></trkpt><trkpt lat="42.896990" lon="-5.688221"><ele>1177.843</ele><time>2015-10-25T10:33:42Z</time></trkpt><trkpt lat="42.897128" lon="-5.688220"><ele>1179.712</ele><time>2015-10-25T10:33:57Z</time></trkpt><trkpt lat="42.897271" lon="-5.688256"><ele>1181.687</ele><time>2015-10-25T10:34:14Z</time></trkpt><trkpt lat="42.897321" lon="-5.688231"><ele>1182.688</ele><time>2015-10-25T10:34:21Z</time></trkpt><trkpt lat="42.897365" lon="-5.688203"><ele>1183.520</ele><time>2015-10-25T10:34:28Z</time></trkpt><trkpt lat="42.897498" lon="-5.688126"><ele>1185.438</ele><time>2015-10-25T10:34:44Z</time></trkpt><trkpt lat="42.897621" lon="-5.688073"><ele>1187.419</ele><time>2015-10-25T10:35:00Z</time></trkpt><trkpt lat="42.897636" lon="-5.688083"><ele>1187.809</ele><time>2015-10-25T10:35:02Z</time></trkpt><trkpt lat="42.897728" lon="-5.688193"><ele>1189.319</ele><time>2015-10-25T10:35:16Z</time></trkpt><trkpt lat="42.897765" lon="-5.688212"><ele>1189.308</ele><time>2015-10-25T10:35:20Z</time></trkpt><trkpt lat="42.897842" lon="-5.688350"><ele>1189.382</ele><time>2015-10-25T10:35:31Z</time></trkpt><trkpt lat="42.897855" lon="-5.688603"><ele>1190.262</ele><time>2015-10-25T10:35:48Z</time></trkpt><trkpt lat="42.897878" lon="-5.688798"><ele>1191.735</ele><time>2015-10-25T10:36:02Z</time></trkpt><trkpt lat="42.897922" lon="-5.689004"><ele>1191.764</ele><time>2015-10-25T10:36:17Z</time></trkpt><trkpt lat="42.897994" lon="-5.689132"><ele>1193.199</ele><time>2015-10-25T10:36:32Z</time></trkpt><trkpt lat="42.898098" lon="-5.689142"><ele>1195.150</ele><time>2015-10-25T10:36:45Z</time></trkpt><trkpt lat="42.898241" lon="-5.689151"><ele>1197.542</ele><time>2015-10-25T10:37:00Z</time></trkpt><trkpt lat="42.898272" lon="-5.689143"><ele>1197.580</ele><time>2015-10-25T10:37:03Z</time></trkpt><trkpt lat="42.898447" lon="-5.689161"><ele>1199.937</ele><time>2015-10-25T10:37:21Z</time></trkpt><trkpt lat="42.898535" lon="-5.689224"><ele>1201.349</ele><time>2015-10-25T10:37:32Z</time></trkpt><trkpt lat="42.898675" lon="-5.689311"><ele>1203.213</ele><time>2015-10-25T10:37:48Z</time></trkpt><trkpt lat="42.898699" lon="-5.689328"><ele>1203.708</ele><time>2015-10-25T10:37:51Z</time></trkpt><trkpt lat="42.898732" lon="-5.689347"><ele>1204.794</ele><time>2015-10-25T10:37:55Z</time></trkpt><trkpt lat="42.898797" lon="-5.689422"><ele>1206.194</ele><time>2015-10-25T10:38:05Z</time></trkpt><trkpt lat="42.898886" lon="-5.689509"><ele>1207.137</ele><time>2015-10-25T10:38:17Z</time></trkpt><trkpt lat="42.899007" lon="-5.689630"><ele>1209.546</ele><time>2015-10-25T10:38:34Z</time></trkpt><trkpt lat="42.899101" lon="-5.689747"><ele>1211.961</ele><time>2015-10-25T10:38:50Z</time></trkpt><trkpt lat="42.899208" lon="-5.689865"><ele>1214.332</ele><time>2015-10-25T10:39:06Z</time></trkpt><trkpt lat="42.899328" lon="-5.689996"><ele>1216.764</ele><time>2015-10-25T10:39:24Z</time></trkpt><trkpt lat="42.899471" lon="-5.690030"><ele>1219.622</ele><time>2015-10-25T10:39:42Z</time></trkpt><trkpt lat="42.899472" lon="-5.690033"><ele>1219.625</ele><time>2015-10-25T10:39:56Z</time></trkpt><trkpt lat="42.899469" lon="-5.690024"><ele>1219.626</ele><time>2015-10-25T10:40:15Z</time></trkpt><trkpt lat="42.899488" lon="-5.690015"><ele>1219.608</ele><time>2015-10-25T10:40:36Z</time></trkpt><trkpt lat="42.899518" lon="-5.690022"><ele>1219.608</ele><time>2015-10-25T10:40:42Z</time></trkpt><trkpt lat="42.899631" lon="-5.689946"><ele>1221.563</ele><time>2015-10-25T10:40:58Z</time></trkpt><trkpt lat="42.899657" lon="-5.689926"><ele>1222.073</ele><time>2015-10-25T10:41:01Z</time></trkpt><trkpt lat="42.899710" lon="-5.689868"><ele>1222.486</ele><time>2015-10-25T10:41:16Z</time></trkpt><trkpt lat="42.899812" lon="-5.689700"><ele>1224.965</ele><time>2015-10-25T10:41:32Z</time></trkpt><trkpt lat="42.899851" lon="-5.689603"><ele>1224.990</ele><time>2015-10-25T10:41:40Z</time></trkpt><trkpt lat="42.899850" lon="-5.689554"><ele>1224.981</ele><time>2015-10-25T10:42:01Z</time></trkpt><trkpt lat="42.899867" lon="-5.689554"><ele>1224.973</ele><time>2015-10-25T10:42:30Z</time></trkpt><trkpt lat="42.899916" lon="-5.689433"><ele>1225.391</ele><time>2015-10-25T10:42:47Z</time></trkpt><trkpt lat="42.900022" lon="-5.689190"><ele>1226.824</ele><time>2015-10-25T10:43:06Z</time></trkpt><trkpt lat="42.900138" lon="-5.689123"><ele>1228.704</ele><time>2015-10-25T10:43:22Z</time></trkpt><trkpt lat="42.900143" lon="-5.689129"><ele>1230.114</ele><time>2015-10-25T10:43:23Z</time></trkpt><trkpt lat="42.900149" lon="-5.689153"><ele>1229.208</ele><time>2015-10-25T10:43:25Z</time></trkpt><trkpt lat="42.900204" lon="-5.689247"><ele>1230.143</ele><time>2015-10-25T10:43:40Z</time></trkpt><trkpt lat="42.900312" lon="-5.689312"><ele>1233.043</ele><time>2015-10-25T10:43:57Z</time></trkpt><trkpt lat="42.900418" lon="-5.689393"><ele>1235.996</ele><time>2015-10-25T10:44:13Z</time></trkpt><trkpt lat="42.900494" lon="-5.689433"><ele>1237.325</ele><time>2015-10-25T10:44:23Z</time></trkpt><trkpt lat="42.900614" lon="-5.689479"><ele>1240.220</ele><time>2015-10-25T10:44:39Z</time></trkpt><trkpt lat="42.900761" lon="-5.689474"><ele>1243.691</ele><time>2015-10-25T10:44:57Z</time></trkpt><trkpt lat="42.900789" lon="-5.689464"><ele>1244.183</ele><time>2015-10-25T10:45:01Z</time></trkpt><trkpt lat="42.900924" lon="-5.689389"><ele>1247.491</ele><time>2015-10-25T10:45:20Z</time></trkpt><trkpt lat="42.900962" lon="-5.689367"><ele>1247.958</ele><time>2015-10-25T10:45:36Z</time></trkpt><trkpt lat="42.901007" lon="-5.689334"><ele>1248.952</ele><time>2015-10-25T10:46:11Z</time></trkpt><trkpt lat="42.901162" lon="-5.689251"><ele>1251.317</ele><time>2015-10-25T10:46:27Z</time></trkpt><trkpt lat="42.901308" lon="-5.689215"><ele>1253.708</ele><time>2015-10-25T10:46:43Z</time></trkpt><trkpt lat="42.901444" lon="-5.689164"><ele>1257.146</ele><time>2015-10-25T10:46:59Z</time></trkpt><trkpt lat="42.901546" lon="-5.689125"><ele>1259.956</ele><time>2015-10-25T10:47:15Z</time></trkpt><trkpt lat="42.901649" lon="-5.689097"><ele>1263.369</ele><time>2015-10-25T10:47:31Z</time></trkpt><trkpt lat="42.901736" lon="-5.689056"><ele>1265.778</ele><time>2015-10-25T10:47:45Z</time></trkpt><trkpt lat="42.901842" lon="-5.689014"><ele>1268.653</ele><time>2015-10-25T10:48:02Z</time></trkpt><trkpt lat="42.901934" lon="-5.688967"><ele>1271.074</ele><time>2015-10-25T10:48:18Z</time></trkpt><trkpt lat="42.902035" lon="-5.688892"><ele>1272.986</ele><time>2015-10-25T10:48:36Z</time></trkpt><trkpt lat="42.902149" lon="-5.688797"><ele>1275.374</ele><time>2015-10-25T10:48:54Z</time></trkpt><trkpt lat="42.902288" lon="-5.688717"><ele>1276.848</ele><time>2015-10-25T10:49:11Z</time></trkpt><trkpt lat="42.902412" lon="-5.688674"><ele>1279.761</ele><time>2015-10-25T10:49:28Z</time></trkpt><trkpt lat="42.902504" lon="-5.688622"><ele>1280.617</ele><time>2015-10-25T10:49:40Z</time></trkpt><trkpt lat="42.902591" lon="-5.688554"><ele>1280.608</ele><time>2015-10-25T10:49:50Z</time></trkpt><trkpt lat="42.902689" lon="-5.688512"><ele>1281.645</ele><time>2015-10-25T10:50:07Z</time></trkpt><trkpt lat="42.902705" lon="-5.688494"><ele>1281.695</ele><time>2015-10-25T10:50:23Z</time></trkpt><trkpt lat="42.902716" lon="-5.688481"><ele>1282.138</ele><time>2015-10-25T10:50:40Z</time></trkpt><trkpt lat="42.902731" lon="-5.688478"><ele>1281.177</ele><time>2015-10-25T10:51:02Z</time></trkpt><trkpt lat="42.902778" lon="-5.688464"><ele>1282.542</ele><time>2015-10-25T10:51:16Z</time></trkpt><trkpt lat="42.902896" lon="-5.688482"><ele>1285.493</ele><time>2015-10-25T10:51:33Z</time></trkpt><trkpt lat="42.902972" lon="-5.688466"><ele>1287.815</ele><time>2015-10-25T10:51:46Z</time></trkpt><trkpt lat="42.903047" lon="-5.688450"><ele>1290.243</ele><time>2015-10-25T10:52:00Z</time></trkpt><trkpt lat="42.903147" lon="-5.688443"><ele>1293.119</ele><time>2015-10-25T10:52:17Z</time></trkpt><trkpt lat="42.903295" lon="-5.688384"><ele>1294.109</ele><time>2015-10-25T10:52:34Z</time></trkpt><trkpt lat="42.903351" lon="-5.688364"><ele>1294.119</ele><time>2015-10-25T10:52:39Z</time></trkpt><trkpt lat="42.903512" lon="-5.688213"><ele>1293.108</ele><time>2015-10-25T10:52:57Z</time></trkpt><trkpt lat="42.903517" lon="-5.688196"><ele>1293.142</ele><time>2015-10-25T10:52:59Z</time></trkpt><trkpt lat="42.903523" lon="-5.688174"><ele>1294.162</ele><time>2015-10-25T10:53:01Z</time></trkpt><trkpt lat="42.903538" lon="-5.688090"><ele>1295.055</ele><time>2015-10-25T10:53:09Z</time></trkpt><trkpt lat="42.903498" lon="-5.687914"><ele>1295.534</ele><time>2015-10-25T10:53:24Z</time></trkpt><trkpt lat="42.903525" lon="-5.687736"><ele>1296.079</ele><time>2015-10-25T10:53:37Z</time></trkpt><trkpt lat="42.903653" lon="-5.687550"><ele>1297.410</ele><time>2015-10-25T10:53:53Z</time></trkpt><trkpt lat="42.903678" lon="-5.687521"><ele>1297.042</ele><time>2015-10-25T10:53:56Z</time></trkpt><trkpt lat="42.903821" lon="-5.687420"><ele>1299.490</ele><time>2015-10-25T10:54:13Z</time></trkpt><trkpt lat="42.903957" lon="-5.687321"><ele>1300.888</ele><time>2015-10-25T10:54:29Z</time></trkpt><trkpt lat="42.904084" lon="-5.687246"><ele>1301.824</ele><time>2015-10-25T10:54:42Z</time></trkpt><trkpt lat="42.904098" lon="-5.687228"><ele>1301.826</ele><time>2015-10-25T10:54:44Z</time></trkpt><trkpt lat="42.904238" lon="-5.687162"><ele>1302.708</ele><time>2015-10-25T10:55:00Z</time></trkpt><trkpt lat="42.904342" lon="-5.687110"><ele>1303.729</ele><time>2015-10-25T10:55:11Z</time></trkpt><trkpt lat="42.904486" lon="-5.687100"><ele>1306.189</ele><time>2015-10-25T10:55:27Z</time></trkpt><trkpt lat="42.904642" lon="-5.687137"><ele>1307.512</ele><time>2015-10-25T10:55:44Z</time></trkpt><trkpt lat="42.904766" lon="-5.687178"><ele>1309.031</ele><time>2015-10-25T10:55:59Z</time></trkpt><trkpt lat="42.904886" lon="-5.687249"><ele>1311.416</ele><time>2015-10-25T10:56:16Z</time></trkpt><trkpt lat="42.905021" lon="-5.687241"><ele>1313.877</ele><time>2015-10-25T10:56:32Z</time></trkpt><trkpt lat="42.905070" lon="-5.687224"><ele>1314.799</ele><time>2015-10-25T10:56:38Z</time></trkpt><trkpt lat="42.905202" lon="-5.687200"><ele>1317.167</ele><time>2015-10-25T10:56:54Z</time></trkpt><trkpt lat="42.905323" lon="-5.687153"><ele>1319.179</ele><time>2015-10-25T10:57:10Z</time></trkpt><trkpt lat="42.905439" lon="-5.687123"><ele>1321.905</ele><time>2015-10-25T10:57:25Z</time></trkpt><trkpt lat="42.905533" lon="-5.687111"><ele>1324.825</ele><time>2015-10-25T10:57:40Z</time></trkpt><trkpt lat="42.905638" lon="-5.687015"><ele>1327.208</ele><time>2015-10-25T10:57:57Z</time></trkpt><trkpt lat="42.905747" lon="-5.686994"><ele>1329.268</ele><time>2015-10-25T10:58:11Z</time></trkpt><trkpt lat="42.905836" lon="-5.687068"><ele>1332.098</ele><time>2015-10-25T10:58:26Z</time></trkpt><trkpt lat="42.905831" lon="-5.687108"><ele>1332.581</ele><time>2015-10-25T10:58:38Z</time></trkpt><trkpt lat="42.905890" lon="-5.687104"><ele>1333.560</ele><time>2015-10-25T10:58:56Z</time></trkpt><trkpt lat="42.905964" lon="-5.687112"><ele>1335.465</ele><time>2015-10-25T10:59:13Z</time></trkpt><trkpt lat="42.906018" lon="-5.687118"><ele>1337.386</ele><time>2015-10-25T10:59:33Z</time></trkpt><trkpt lat="42.906092" lon="-5.687141"><ele>1340.268</ele><time>2015-10-25T10:59:51Z</time></trkpt><trkpt lat="42.906207" lon="-5.687159"><ele>1343.116</ele><time>2015-10-25T11:00:10Z</time></trkpt><trkpt lat="42.906307" lon="-5.687238"><ele>1344.554</ele><time>2015-10-25T11:00:27Z</time></trkpt><trkpt lat="42.906397" lon="-5.687318"><ele>1347.456</ele><time>2015-10-25T11:00:44Z</time></trkpt><trkpt lat="42.906503" lon="-5.687410"><ele>1348.911</ele><time>2015-10-25T11:00:58Z</time></trkpt><trkpt lat="42.906605" lon="-5.687442"><ele>1350.808</ele><time>2015-10-25T11:01:13Z</time></trkpt><trkpt lat="42.906726" lon="-5.687474"><ele>1352.216</ele><time>2015-10-25T11:01:29Z</time></trkpt><trkpt lat="42.906861" lon="-5.687553"><ele>1353.736</ele><time>2015-10-25T11:01:44Z</time></trkpt><trkpt lat="42.906894" lon="-5.687567"><ele>1354.239</ele><time>2015-10-25T11:01:49Z</time></trkpt><trkpt lat="42.907029" lon="-5.687629"><ele>1355.158</ele><time>2015-10-25T11:02:04Z</time></trkpt><trkpt lat="42.907161" lon="-5.687732"><ele>1357.063</ele><time>2015-10-25T11:02:21Z</time></trkpt><trkpt lat="42.907291" lon="-5.687850"><ele>1358.574</ele><time>2015-10-25T11:02:37Z</time></trkpt><trkpt lat="42.907391" lon="-5.687993"><ele>1359.946</ele><time>2015-10-25T11:02:52Z</time></trkpt><trkpt lat="42.907435" lon="-5.688257"><ele>1361.844</ele><time>2015-10-25T11:03:09Z</time></trkpt><trkpt lat="42.907494" lon="-5.688427"><ele>1362.844</ele><time>2015-10-25T11:03:25Z</time></trkpt><trkpt lat="42.907561" lon="-5.688542"><ele>1361.405</ele><time>2015-10-25T11:03:39Z</time></trkpt><trkpt lat="42.907683" lon="-5.688731"><ele>1360.915</ele><time>2015-10-25T11:03:56Z</time></trkpt><trkpt lat="42.907804" lon="-5.688761"><ele>1363.308</ele><time>2015-10-25T11:04:12Z</time></trkpt><trkpt lat="42.907927" lon="-5.688731"><ele>1364.755</ele><time>2015-10-25T11:04:28Z</time></trkpt><trkpt lat="42.908062" lon="-5.688701"><ele>1366.265</ele><time>2015-10-25T11:04:44Z</time></trkpt><trkpt lat="42.908184" lon="-5.688665"><ele>1368.158</ele><time>2015-10-25T11:05:00Z</time></trkpt><trkpt lat="42.908317" lon="-5.688632"><ele>1370.587</ele><time>2015-10-25T11:05:18Z</time></trkpt><trkpt lat="42.908414" lon="-5.688507"><ele>1372.442</ele><time>2015-10-25T11:05:35Z</time></trkpt><trkpt lat="42.908581" lon="-5.688346"><ele>1374.353</ele><time>2015-10-25T11:05:56Z</time></trkpt><trkpt lat="42.908713" lon="-5.688304"><ele>1376.855</ele><time>2015-10-25T11:06:13Z</time></trkpt><trkpt lat="42.908772" lon="-5.688278"><ele>1377.283</ele><time>2015-10-25T11:06:21Z</time></trkpt><trkpt lat="42.908917" lon="-5.688148"><ele>1378.768</ele><time>2015-10-25T11:06:38Z</time></trkpt><trkpt lat="42.909042" lon="-5.688038"><ele>1379.242</ele><time>2015-10-25T11:06:53Z</time></trkpt><trkpt lat="42.909176" lon="-5.687907"><ele>1380.626</ele><time>2015-10-25T11:07:11Z</time></trkpt><trkpt lat="42.909234" lon="-5.687844"><ele>1381.608</ele><time>2015-10-25T11:07:18Z</time></trkpt><trkpt lat="42.909360" lon="-5.687705"><ele>1382.527</ele><time>2015-10-25T11:07:34Z</time></trkpt><trkpt lat="42.909367" lon="-5.687695"><ele>1382.577</ele><time>2015-10-25T11:07:35Z</time></trkpt><trkpt lat="42.909446" lon="-5.687617"><ele>1383.030</ele><time>2015-10-25T11:07:49Z</time></trkpt><trkpt lat="42.909532" lon="-5.687535"><ele>1384.049</ele><time>2015-10-25T11:08:14Z</time></trkpt><trkpt lat="42.909632" lon="-5.687441"><ele>1386.414</ele><time>2015-10-25T11:08:29Z</time></trkpt><trkpt lat="42.909719" lon="-5.687434"><ele>1387.365</ele><time>2015-10-25T11:08:45Z</time></trkpt><trkpt lat="42.909778" lon="-5.687443"><ele>1389.217</ele><time>2015-10-25T11:09:00Z</time></trkpt><trkpt lat="42.909778" lon="-5.687441"><ele>1389.245</ele><time>2015-10-25T11:09:23Z</time></trkpt><trkpt lat="42.909789" lon="-5.687474"><ele>1389.294</ele><time>2015-10-25T11:09:49Z</time></trkpt><trkpt lat="42.909867" lon="-5.687490"><ele>1390.757</ele><time>2015-10-25T11:10:05Z</time></trkpt><trkpt lat="42.909958" lon="-5.687498"><ele>1393.622</ele><time>2015-10-25T11:10:20Z</time></trkpt><trkpt lat="42.910038" lon="-5.687504"><ele>1395.008</ele><time>2015-10-25T11:10:37Z</time></trkpt><trkpt lat="42.910079" lon="-5.687563"><ele>1396.090</ele><time>2015-10-25T11:11:03Z</time></trkpt><trkpt lat="42.910154" lon="-5.687587"><ele>1398.980</ele><time>2015-10-25T11:11:18Z</time></trkpt><trkpt lat="42.910251" lon="-5.687571"><ele>1400.353</ele><time>2015-10-25T11:11:33Z</time></trkpt><trkpt lat="42.910331" lon="-5.687522"><ele>1402.262</ele><time>2015-10-25T11:11:48Z</time></trkpt><trkpt lat="42.910464" lon="-5.687479"><ele>1404.187</ele><time>2015-10-25T11:12:04Z</time></trkpt><trkpt lat="42.910564" lon="-5.687543"><ele>1405.168</ele><time>2015-10-25T11:12:18Z</time></trkpt><trkpt lat="42.910599" lon="-5.687725"><ele>1406.130</ele><time>2015-10-25T11:12:34Z</time></trkpt><trkpt lat="42.910657" lon="-5.687862"><ele>1407.538</ele><time>2015-10-25T11:12:48Z</time></trkpt><trkpt lat="42.910696" lon="-5.687950"><ele>1408.592</ele><time>2015-10-25T11:12:57Z</time></trkpt><trkpt lat="42.910722" lon="-5.688152"><ele>1409.473</ele><time>2015-10-25T11:13:12Z</time></trkpt><trkpt lat="42.910747" lon="-5.688253"><ele>1410.420</ele><time>2015-10-25T11:13:22Z</time></trkpt><trkpt lat="42.910749" lon="-5.688391"><ele>1410.908</ele><time>2015-10-25T11:13:37Z</time></trkpt><trkpt lat="42.910760" lon="-5.688438"><ele>1410.990</ele><time>2015-10-25T11:14:00Z</time></trkpt><trkpt lat="42.910832" lon="-5.688575"><ele>1411.860</ele><time>2015-10-25T11:14:15Z</time></trkpt><trkpt lat="42.910918" lon="-5.688709"><ele>1414.263</ele><time>2015-10-25T11:14:31Z</time></trkpt><trkpt lat="42.910949" lon="-5.688828"><ele>1416.212</ele><time>2015-10-25T11:14:44Z</time></trkpt><trkpt lat="42.910966" lon="-5.688837"><ele>1416.637</ele><time>2015-10-25T11:14:56Z</time></trkpt><trkpt lat="42.910989" lon="-5.688834"><ele>1416.658</ele><time>2015-10-25T11:15:00Z</time></trkpt><trkpt lat="42.911078" lon="-5.688901"><ele>1416.290</ele><time>2015-10-25T11:15:08Z</time></trkpt><trkpt lat="42.911144" lon="-5.688930"><ele>1417.618</ele><time>2015-10-25T11:15:16Z</time></trkpt><trkpt lat="42.911168" lon="-5.689050"><ele>1419.556</ele><time>2015-10-25T11:15:29Z</time></trkpt><trkpt lat="42.911165" lon="-5.689079"><ele>1420.559</ele><time>2015-10-25T11:15:32Z</time></trkpt><trkpt lat="42.911191" lon="-5.689205"><ele>1421.014</ele><time>2015-10-25T11:15:43Z</time></trkpt><trkpt lat="42.911235" lon="-5.689317"><ele>1421.908</ele><time>2015-10-25T11:15:53Z</time></trkpt><trkpt lat="42.911241" lon="-5.689342"><ele>1421.916</ele><time>2015-10-25T11:15:55Z</time></trkpt><trkpt lat="42.911297" lon="-5.689504"><ele>1423.856</ele><time>2015-10-25T11:16:09Z</time></trkpt><trkpt lat="42.911367" lon="-5.689672"><ele>1426.719</ele><time>2015-10-25T11:16:26Z</time></trkpt><trkpt lat="42.911439" lon="-5.689808"><ele>1428.728</ele><time>2015-10-25T11:16:40Z</time></trkpt><trkpt lat="42.911529" lon="-5.689952"><ele>1430.193</ele><time>2015-10-25T11:16:55Z</time></trkpt><trkpt lat="42.911618" lon="-5.690106"><ele>1432.034</ele><time>2015-10-25T11:17:11Z</time></trkpt><trkpt lat="42.911693" lon="-5.690278"><ele>1433.926</ele><time>2015-10-25T11:17:27Z</time></trkpt><trkpt lat="42.911776" lon="-5.690397"><ele>1435.434</ele><time>2015-10-25T11:17:42Z</time></trkpt><trkpt lat="42.911892" lon="-5.690464"><ele>1437.389</ele><time>2015-10-25T11:17:57Z</time></trkpt><trkpt lat="42.912014" lon="-5.690546"><ele>1438.306</ele><time>2015-10-25T11:18:11Z</time></trkpt><trkpt lat="42.912055" lon="-5.690591"><ele>1438.826</ele><time>2015-10-25T11:18:16Z</time></trkpt><trkpt lat="42.912088" lon="-5.690623"><ele>1439.208</ele><time>2015-10-25T11:18:20Z</time></trkpt><trkpt lat="42.912189" lon="-5.690771"><ele>1440.289</ele><time>2015-10-25T11:18:33Z</time></trkpt><trkpt lat="42.912238" lon="-5.690871"><ele>1440.719</ele><time>2015-10-25T11:18:41Z</time></trkpt><trkpt lat="42.912283" lon="-5.690946"><ele>1441.662</ele><time>2015-10-25T11:18:49Z</time></trkpt><trkpt lat="42.912309" lon="-5.691007"><ele>1442.121</ele><time>2015-10-25T11:18:54Z</time></trkpt><trkpt lat="42.912357" lon="-5.691187"><ele>1445.066</ele><time>2015-10-25T11:19:08Z</time></trkpt><trkpt lat="42.912397" lon="-5.691362"><ele>1446.477</ele><time>2015-10-25T11:19:24Z</time></trkpt><trkpt lat="42.912458" lon="-5.691499"><ele>1447.929</ele><time>2015-10-25T11:19:38Z</time></trkpt><trkpt lat="42.912559" lon="-5.691663"><ele>1449.877</ele><time>2015-10-25T11:19:55Z</time></trkpt><trkpt lat="42.912645" lon="-5.691816"><ele>1451.218</ele><time>2015-10-25T11:20:10Z</time></trkpt><trkpt lat="42.912678" lon="-5.691862"><ele>1451.298</ele><time>2015-10-25T11:20:16Z</time></trkpt><trkpt lat="42.912724" lon="-5.691987"><ele>1451.717</ele><time>2015-10-25T11:20:24Z</time></trkpt><trkpt lat="42.912740" lon="-5.692011"><ele>1451.708</ele><time>2015-10-25T11:20:26Z</time></trkpt><trkpt lat="42.912749" lon="-5.692089"><ele>1452.282</ele><time>2015-10-25T11:20:31Z</time></trkpt><trkpt lat="42.912798" lon="-5.692284"><ele>1454.142</ele><time>2015-10-25T11:20:47Z</time></trkpt><trkpt lat="42.912828" lon="-5.692386"><ele>1455.165</ele><time>2015-10-25T11:20:56Z</time></trkpt><trkpt lat="42.912870" lon="-5.692601"><ele>1457.064</ele><time>2015-10-25T11:21:13Z</time></trkpt><trkpt lat="42.912871" lon="-5.692625"><ele>1457.069</ele><time>2015-10-25T11:21:15Z</time></trkpt><trkpt lat="42.912925" lon="-5.692782"><ele>1459.450</ele><time>2015-10-25T11:21:29Z</time></trkpt><trkpt lat="42.912990" lon="-5.692917"><ele>1460.482</ele><time>2015-10-25T11:21:43Z</time></trkpt><trkpt lat="42.913075" lon="-5.693076"><ele>1462.390</ele><time>2015-10-25T11:21:57Z</time></trkpt><trkpt lat="42.913162" lon="-5.693207"><ele>1463.718</ele><time>2015-10-25T11:22:11Z</time></trkpt><trkpt lat="42.913167" lon="-5.693217"><ele>1463.798</ele><time>2015-10-25T11:22:12Z</time></trkpt><trkpt lat="42.913266" lon="-5.693355"><ele>1465.217</ele><time>2015-10-25T11:22:26Z</time></trkpt><trkpt lat="42.913365" lon="-5.693496"><ele>1466.608</ele><time>2015-10-25T11:22:40Z</time></trkpt><trkpt lat="42.913480" lon="-5.693582"><ele>1467.152</ele><time>2015-10-25T11:22:54Z</time></trkpt><trkpt lat="42.913553" lon="-5.693617"><ele>1465.762</ele><time>2015-10-25T11:23:02Z</time></trkpt><trkpt lat="42.913598" lon="-5.693716"><ele>1465.235</ele><time>2015-10-25T11:23:14Z</time></trkpt><trkpt lat="42.913622" lon="-5.693736"><ele>1465.284</ele><time>2015-10-25T11:23:26Z</time></trkpt><trkpt lat="42.913713" lon="-5.693825"><ele>1463.789</ele><time>2015-10-25T11:23:41Z</time></trkpt><trkpt lat="42.913732" lon="-5.693835"><ele>1463.780</ele><time>2015-10-25T11:24:11Z</time></trkpt><trkpt lat="42.913772" lon="-5.693879"><ele>1462.852</ele><time>2015-10-25T11:24:26Z</time></trkpt><trkpt lat="42.913779" lon="-5.693906"><ele>1462.330</ele><time>2015-10-25T11:24:49Z</time></trkpt><trkpt lat="42.913808" lon="-5.693992"><ele>1461.846</ele><time>2015-10-25T11:25:05Z</time></trkpt><trkpt lat="42.913821" lon="-5.694051"><ele>1460.988</ele><time>2015-10-25T11:25:10Z</time></trkpt><trkpt lat="42.913829" lon="-5.694211"><ele>1458.916</ele><time>2015-10-25T11:25:24Z</time></trkpt><trkpt lat="42.913807" lon="-5.694360"><ele>1457.008</ele><time>2015-10-25T11:25:38Z</time></trkpt><trkpt lat="42.913839" lon="-5.694477"><ele>1456.195</ele><time>2015-10-25T11:25:50Z</time></trkpt><trkpt lat="42.913858" lon="-5.694599"><ele>1454.655</ele><time>2015-10-25T11:26:04Z</time></trkpt><trkpt lat="42.913885" lon="-5.694734"><ele>1452.788</ele><time>2015-10-25T11:26:18Z</time></trkpt><trkpt lat="42.913920" lon="-5.694865"><ele>1450.817</ele><time>2015-10-25T11:26:32Z</time></trkpt><trkpt lat="42.913951" lon="-5.694953"><ele>1448.892</ele><time>2015-10-25T11:26:45Z</time></trkpt><trkpt lat="42.913969" lon="-5.695085"><ele>1447.433</ele><time>2015-10-25T11:26:57Z</time></trkpt><trkpt lat="42.913995" lon="-5.695243"><ele>1446.415</ele><time>2015-10-25T11:27:10Z</time></trkpt><trkpt lat="42.913993" lon="-5.695430"><ele>1445.043</ele><time>2015-10-25T11:27:24Z</time></trkpt><trkpt lat="42.913966" lon="-5.695602"><ele>1444.047</ele><time>2015-10-25T11:27:36Z</time></trkpt><trkpt lat="42.913888" lon="-5.695859"><ele>1441.629</ele><time>2015-10-25T11:27:54Z</time></trkpt><trkpt lat="42.913839" lon="-5.695975"><ele>1441.221</ele><time>2015-10-25T11:28:08Z</time></trkpt><trkpt lat="42.913853" lon="-5.696021"><ele>1441.208</ele><time>2015-10-25T11:28:19Z</time></trkpt><trkpt lat="42.913851" lon="-5.696031"><ele>1440.745</ele><time>2015-10-25T11:28:21Z</time></trkpt><trkpt lat="42.913819" lon="-5.696146"><ele>1439.275</ele><time>2015-10-25T11:28:32Z</time></trkpt><trkpt lat="42.913825" lon="-5.696287"><ele>1438.328</ele><time>2015-10-25T11:28:43Z</time></trkpt><trkpt lat="42.913918" lon="-5.696369"><ele>1438.357</ele><time>2015-10-25T11:28:58Z</time></trkpt><trkpt lat="42.913981" lon="-5.696476"><ele>1436.312</ele><time>2015-10-25T11:29:15Z</time></trkpt><trkpt lat="42.914051" lon="-5.696604"><ele>1434.923</ele><time>2015-10-25T11:29:29Z</time></trkpt><trkpt lat="42.914087" lon="-5.696667"><ele>1434.415</ele><time>2015-10-25T11:29:34Z</time></trkpt><trkpt lat="42.914127" lon="-5.696782"><ele>1433.513</ele><time>2015-10-25T11:29:48Z</time></trkpt><trkpt lat="42.914201" lon="-5.696891"><ele>1431.594</ele><time>2015-10-25T11:30:02Z</time></trkpt><trkpt lat="42.914248" lon="-5.696945"><ele>1430.157</ele><time>2015-10-25T11:30:09Z</time></trkpt><trkpt lat="42.914316" lon="-5.696977"><ele>1429.622</ele><time>2015-10-25T11:30:18Z</time></trkpt><trkpt lat="42.914339" lon="-5.696948"><ele>1428.208</ele><time>2015-10-25T11:30:23Z</time></trkpt><trkpt lat="42.914352" lon="-5.696921"><ele>1427.740</ele><time>2015-10-25T11:30:26Z</time></trkpt><trkpt lat="42.914449" lon="-5.696828"><ele>1424.830</ele><time>2015-10-25T11:30:41Z</time></trkpt><trkpt lat="42.914518" lon="-5.696752"><ele>1423.873</ele><time>2015-10-25T11:30:50Z</time></trkpt><trkpt lat="42.914606" lon="-5.696604"><ele>1421.082</ele><time>2015-10-25T11:31:06Z</time></trkpt><trkpt lat="42.914643" lon="-5.696564"><ele>1420.087</ele><time>2015-10-25T11:31:18Z</time></trkpt><trkpt lat="42.914712" lon="-5.696508"><ele>1419.598</ele><time>2015-10-25T11:31:33Z</time></trkpt><trkpt lat="42.914778" lon="-5.696418"><ele>1418.620</ele><time>2015-10-25T11:31:48Z</time></trkpt><trkpt lat="42.914822" lon="-5.696393"><ele>1418.128</ele><time>2015-10-25T11:31:57Z</time></trkpt><trkpt lat="42.915023" lon="-5.696250"><ele>1416.279</ele><time>2015-10-25T11:32:14Z</time></trkpt><trkpt lat="42.915159" lon="-5.696170"><ele>1414.205</ele><time>2015-10-25T11:32:27Z</time></trkpt><trkpt lat="42.915293" lon="-5.696163"><ele>1413.325</ele><time>2015-10-25T11:32:37Z</time></trkpt><trkpt lat="42.915425" lon="-5.696248"><ele>1412.808</ele><time>2015-10-25T11:32:48Z</time></trkpt><trkpt lat="42.915529" lon="-5.696319"><ele>1411.338</ele><time>2015-10-25T11:32:57Z</time></trkpt><trkpt lat="42.915686" lon="-5.696376"><ele>1408.048</ele><time>2015-10-25T11:33:11Z</time></trkpt><trkpt lat="42.915701" lon="-5.696381"><ele>1408.011</ele><time>2015-10-25T11:33:13Z</time></trkpt><trkpt lat="42.915726" lon="-5.696385"><ele>1408.020</ele><time>2015-10-25T11:33:15Z</time></trkpt><trkpt lat="42.915886" lon="-5.696319"><ele>1406.195</ele><time>2015-10-25T11:33:31Z</time></trkpt><trkpt lat="42.916026" lon="-5.696306"><ele>1404.636</ele><time>2015-10-25T11:33:44Z</time></trkpt><trkpt lat="42.916094" lon="-5.696310"><ele>1404.648</ele><time>2015-10-25T11:33:50Z</time></trkpt><trkpt lat="42.916219" lon="-5.696315"><ele>1403.756</ele><time>2015-10-25T11:34:01Z</time></trkpt><trkpt lat="42.916395" lon="-5.696404"><ele>1402.291</ele><time>2015-10-25T11:34:18Z</time></trkpt><trkpt lat="42.916527" lon="-5.696541"><ele>1400.381</ele><time>2015-10-25T11:34:30Z</time></trkpt><trkpt lat="42.916563" lon="-5.696618"><ele>1399.319</ele><time>2015-10-25T11:34:35Z</time></trkpt><trkpt lat="42.916643" lon="-5.696873"><ele>1396.908</ele><time>2015-10-25T11:34:52Z</time></trkpt><trkpt lat="42.916653" lon="-5.696913"><ele>1396.930</ele><time>2015-10-25T11:34:54Z</time></trkpt><trkpt lat="42.916773" lon="-5.697189"><ele>1396.420</ele><time>2015-10-25T11:35:11Z</time></trkpt><trkpt lat="42.916906" lon="-5.697397"><ele>1393.643</ele><time>2015-10-25T11:35:27Z</time></trkpt><trkpt lat="42.916933" lon="-5.697437"><ele>1393.112</ele><time>2015-10-25T11:35:31Z</time></trkpt><trkpt lat="42.917047" lon="-5.697548"><ele>1390.737</ele><time>2015-10-25T11:35:44Z</time></trkpt><trkpt lat="42.917175" lon="-5.697719"><ele>1386.878</ele><time>2015-10-25T11:36:01Z</time></trkpt><trkpt lat="42.917298" lon="-5.697816"><ele>1384.420</ele><time>2015-10-25T11:36:15Z</time></trkpt><trkpt lat="42.917468" lon="-5.697807"><ele>1381.668</ele><time>2015-10-25T11:36:33Z</time></trkpt><trkpt lat="42.917605" lon="-5.697806"><ele>1379.229</ele><time>2015-10-25T11:36:46Z</time></trkpt><trkpt lat="42.917628" lon="-5.697831"><ele>1379.200</ele><time>2015-10-25T11:37:07Z</time></trkpt><trkpt lat="42.917690" lon="-5.697924"><ele>1377.720</ele><time>2015-10-25T11:37:26Z</time></trkpt><trkpt lat="42.917776" lon="-5.698032"><ele>1374.808</ele><time>2015-10-25T11:37:39Z</time></trkpt><trkpt lat="42.917870" lon="-5.698175"><ele>1371.993</ele><time>2015-10-25T11:37:56Z</time></trkpt><trkpt lat="42.917979" lon="-5.698307"><ele>1369.513</ele><time>2015-10-25T11:38:10Z</time></trkpt><trkpt lat="42.918090" lon="-5.698476"><ele>1368.626</ele><time>2015-10-25T11:38:23Z</time></trkpt><trkpt lat="42.918185" lon="-5.698551"><ele>1368.165</ele><time>2015-10-25T11:38:33Z</time></trkpt><trkpt lat="42.918293" lon="-5.698691"><ele>1368.120</ele><time>2015-10-25T11:38:48Z</time></trkpt><trkpt lat="42.918315" lon="-5.698758"><ele>1368.141</ele><time>2015-10-25T11:38:53Z</time></trkpt><trkpt lat="42.918348" lon="-5.699023"><ele>1368.163</ele><time>2015-10-25T11:39:04Z</time></trkpt><trkpt lat="42.918391" lon="-5.699288"><ele>1368.121</ele><time>2015-10-25T11:39:18Z</time></trkpt><trkpt lat="42.918448" lon="-5.699471"><ele>1368.189</ele><time>2015-10-25T11:39:34Z</time></trkpt><trkpt lat="42.918529" lon="-5.699553"><ele>1368.106</ele><time>2015-10-25T11:39:46Z</time></trkpt><trkpt lat="42.918662" lon="-5.699577"><ele>1367.126</ele><time>2015-10-25T11:39:58Z</time></trkpt><trkpt lat="42.918712" lon="-5.699604"><ele>1366.708</ele><time>2015-10-25T11:40:03Z</time></trkpt><trkpt lat="42.918792" lon="-5.699636"><ele>1366.239</ele><time>2015-10-25T11:40:11Z</time></trkpt><trkpt lat="42.918904" lon="-5.699688"><ele>1364.739</ele><time>2015-10-25T11:40:22Z</time></trkpt><trkpt lat="42.919036" lon="-5.699867"><ele>1362.822</ele><time>2015-10-25T11:40:36Z</time></trkpt><trkpt lat="42.919073" lon="-5.699926"><ele>1362.381</ele><time>2015-10-25T11:40:40Z</time></trkpt><trkpt lat="42.919219" lon="-5.700105"><ele>1360.976</ele><time>2015-10-25T11:40:56Z</time></trkpt><trkpt lat="42.919349" lon="-5.700297"><ele>1360.467</ele><time>2015-10-25T11:41:13Z</time></trkpt><trkpt lat="42.919448" lon="-5.700544"><ele>1358.549</ele><time>2015-10-25T11:41:28Z</time></trkpt><trkpt lat="42.919546" lon="-5.700764"><ele>1356.177</ele><time>2015-10-25T11:41:42Z</time></trkpt><trkpt lat="42.919635" lon="-5.700937"><ele>1354.643</ele><time>2015-10-25T11:41:55Z</time></trkpt><trkpt lat="42.919673" lon="-5.701024"><ele>1353.764</ele><time>2015-10-25T11:42:01Z</time></trkpt><trkpt lat="42.919697" lon="-5.701086"><ele>1353.710</ele><time>2015-10-25T11:42:05Z</time></trkpt><trkpt lat="42.919815" lon="-5.701310"><ele>1352.208</ele><time>2015-10-25T11:42:22Z</time></trkpt><trkpt lat="42.919845" lon="-5.701390"><ele>1351.835</ele><time>2015-10-25T11:42:28Z</time></trkpt><trkpt lat="42.919876" lon="-5.701450"><ele>1351.895</ele><time>2015-10-25T11:42:32Z</time></trkpt><trkpt lat="42.919928" lon="-5.701567"><ele>1350.398</ele><time>2015-10-25T11:42:40Z</time></trkpt><trkpt lat="42.919974" lon="-5.701705"><ele>1350.377</ele><time>2015-10-25T11:42:49Z</time></trkpt><trkpt lat="42.920019" lon="-5.701886"><ele>1350.322</ele><time>2015-10-25T11:43:03Z</time></trkpt><trkpt lat="42.920020" lon="-5.701900"><ele>1350.323</ele><time>2015-10-25T11:43:04Z</time></trkpt><trkpt lat="42.920031" lon="-5.701944"><ele>1349.365</ele><time>2015-10-25T11:43:07Z</time></trkpt><trkpt lat="42.920116" lon="-5.702167"><ele>1346.543</ele><time>2015-10-25T11:43:22Z</time></trkpt><trkpt lat="42.920127" lon="-5.702219"><ele>1346.576</ele><time>2015-10-25T11:43:25Z</time></trkpt><trkpt lat="42.920139" lon="-5.702249"><ele>1346.090</ele><time>2015-10-25T11:43:27Z</time></trkpt><trkpt lat="42.920146" lon="-5.702280"><ele>1346.519</ele><time>2015-10-25T11:43:29Z</time></trkpt><trkpt lat="42.920218" lon="-5.702320"><ele>1347.408</ele><time>2015-10-25T11:43:42Z</time></trkpt><trkpt lat="42.920245" lon="-5.702276"><ele>1347.418</ele><time>2015-10-25T11:43:49Z</time></trkpt><trkpt lat="42.920261" lon="-5.702247"><ele>1347.418</ele><time>2015-10-25T11:43:52Z</time></trkpt><trkpt lat="42.920274" lon="-5.702170"><ele>1346.081</ele><time>2015-10-25T11:44:00Z</time></trkpt><trkpt lat="42.920283" lon="-5.702106"><ele>1345.520</ele><time>2015-10-25T11:44:06Z</time></trkpt><trkpt lat="42.920291" lon="-5.701965"><ele>1344.125</ele><time>2015-10-25T11:44:19Z</time></trkpt><trkpt lat="42.920332" lon="-5.701867"><ele>1343.126</ele><time>2015-10-25T11:44:31Z</time></trkpt><trkpt lat="42.920355" lon="-5.701741"><ele>1343.148</ele><time>2015-10-25T11:44:42Z</time></trkpt><trkpt lat="42.920350" lon="-5.701501"><ele>1342.136</ele><time>2015-10-25T11:44:58Z</time></trkpt><trkpt lat="42.920362" lon="-5.701266"><ele>1341.712</ele><time>2015-10-25T11:45:14Z</time></trkpt><trkpt lat="42.920364" lon="-5.701251"><ele>1341.732</ele><time>2015-10-25T11:45:15Z</time></trkpt><trkpt lat="42.920369" lon="-5.701150"><ele>1341.205</ele><time>2015-10-25T11:45:22Z</time></trkpt><trkpt lat="42.920371" lon="-5.701013"><ele>1340.208</ele><time>2015-10-25T11:45:31Z</time></trkpt><trkpt lat="42.920398" lon="-5.700787"><ele>1339.712</ele><time>2015-10-25T11:45:46Z</time></trkpt><trkpt lat="42.920422" lon="-5.700658"><ele>1339.752</ele><time>2015-10-25T11:45:55Z</time></trkpt><trkpt lat="42.920448" lon="-5.700534"><ele>1339.725</ele><time>2015-10-25T11:46:04Z</time></trkpt><trkpt lat="42.920448" lon="-5.700312"><ele>1339.784</ele><time>2015-10-25T11:46:18Z</time></trkpt><trkpt lat="42.920471" lon="-5.700109"><ele>1339.729</ele><time>2015-10-25T11:46:33Z</time></trkpt><trkpt lat="42.920482" lon="-5.699842"><ele>1338.850</ele><time>2015-10-25T11:46:49Z</time></trkpt><trkpt lat="42.920481" lon="-5.699815"><ele>1338.882</ele><time>2015-10-25T11:46:51Z</time></trkpt><trkpt lat="42.920480" lon="-5.699606"><ele>1337.870</ele><time>2015-10-25T11:47:05Z</time></trkpt><trkpt lat="42.920508" lon="-5.699370"><ele>1337.848</ele><time>2015-10-25T11:47:19Z</time></trkpt><trkpt lat="42.920551" lon="-5.699118"><ele>1337.861</ele><time>2015-10-25T11:47:35Z</time></trkpt><trkpt lat="42.920558" lon="-5.699068"><ele>1337.817</ele><time>2015-10-25T11:47:38Z</time></trkpt><trkpt lat="42.920655" lon="-5.698803"><ele>1337.308</ele><time>2015-10-25T11:47:55Z</time></trkpt><trkpt lat="42.920794" lon="-5.698622"><ele>1336.855</ele><time>2015-10-25T11:48:10Z</time></trkpt><trkpt lat="42.920900" lon="-5.698429"><ele>1335.475</ele><time>2015-10-25T11:48:25Z</time></trkpt><trkpt lat="42.921040" lon="-5.698298"><ele>1336.418</ele><time>2015-10-25T11:48:40Z</time></trkpt><trkpt lat="42.921189" lon="-5.698165"><ele>1336.487</ele><time>2015-10-25T11:48:55Z</time></trkpt><trkpt lat="42.921263" lon="-5.698079"><ele>1336.422</ele><time>2015-10-25T11:49:03Z</time></trkpt><trkpt lat="42.921394" lon="-5.698020"><ele>1336.483</ele><time>2015-10-25T11:49:15Z</time></trkpt><trkpt lat="42.921424" lon="-5.698003"><ele>1336.495</ele><time>2015-10-25T11:49:18Z</time></trkpt><trkpt lat="42.921454" lon="-5.697959"><ele>1336.483</ele><time>2015-10-25T11:49:22Z</time></trkpt><trkpt lat="42.921470" lon="-5.697933"><ele>1334.935</ele><time>2015-10-25T11:49:24Z</time></trkpt><trkpt lat="42.921587" lon="-5.697741"><ele>1333.586</ele><time>2015-10-25T11:49:39Z</time></trkpt><trkpt lat="42.921700" lon="-5.697622"><ele>1333.514</ele><time>2015-10-25T11:49:51Z</time></trkpt><trkpt lat="42.921766" lon="-5.697555"><ele>1334.908</ele><time>2015-10-25T11:50:00Z</time></trkpt><trkpt lat="42.921777" lon="-5.697542"><ele>1334.994</ele><time>2015-10-25T11:50:01Z</time></trkpt><trkpt lat="42.921908" lon="-5.697446"><ele>1333.584</ele><time>2015-10-25T11:50:14Z</time></trkpt><trkpt lat="42.921943" lon="-5.697440"><ele>1333.527</ele><time>2015-10-25T11:50:17Z</time></trkpt><trkpt lat="42.922076" lon="-5.697275"><ele>1332.096</ele><time>2015-10-25T11:50:33Z</time></trkpt><trkpt lat="42.922122" lon="-5.697214"><ele>1332.071</ele><time>2015-10-25T11:50:39Z</time></trkpt><trkpt lat="42.922148" lon="-5.697165"><ele>1332.022</ele><time>2015-10-25T11:50:43Z</time></trkpt><trkpt lat="42.922248" lon="-5.697017"><ele>1332.084</ele><time>2015-10-25T11:50:57Z</time></trkpt><trkpt lat="42.922316" lon="-5.696902"><ele>1331.642</ele><time>2015-10-25T11:51:08Z</time></trkpt><trkpt lat="42.922322" lon="-5.696886"><ele>1331.627</ele><time>2015-10-25T11:51:09Z</time></trkpt><trkpt lat="42.922375" lon="-5.696800"><ele>1331.668</ele><time>2015-10-25T11:51:16Z</time></trkpt><trkpt lat="42.922430" lon="-5.696731"><ele>1333.014</ele><time>2015-10-25T11:51:23Z</time></trkpt><trkpt lat="42.922559" lon="-5.696617"><ele>1334.908</ele><time>2015-10-25T11:51:39Z</time></trkpt><trkpt lat="42.922606" lon="-5.696557"><ele>1338.343</ele><time>2015-10-25T11:51:46Z</time></trkpt><trkpt lat="42.922613" lon="-5.696551"><ele>1338.333</ele><time>2015-10-25T11:51:47Z</time></trkpt><trkpt lat="42.922626" lon="-5.696547"><ele>1338.846</ele><time>2015-10-25T11:51:49Z</time></trkpt><trkpt lat="42.922672" lon="-5.696571"><ele>1337.385</ele><time>2015-10-25T11:51:56Z</time></trkpt><trkpt lat="42.922705" lon="-5.696570"><ele>1337.340</ele><time>2015-10-25T11:52:16Z</time></trkpt><trkpt lat="42.922735" lon="-5.696573"><ele>1338.361</ele><time>2015-10-25T11:52:22Z</time></trkpt><trkpt lat="42.922751" lon="-5.696573"><ele>1336.883</ele><time>2015-10-25T11:52:50Z</time></trkpt><trkpt lat="42.922845" lon="-5.696601"><ele>1335.441</ele><time>2015-10-25T11:53:05Z</time></trkpt><trkpt lat="42.922853" lon="-5.696583"><ele>1334.493</ele><time>2015-10-25T11:53:08Z</time></trkpt><trkpt lat="42.922887" lon="-5.696592"><ele>1333.565</ele><time>2015-10-25T11:53:12Z</time></trkpt><trkpt lat="42.923000" lon="-5.696745"><ele>1332.521</ele><time>2015-10-25T11:53:27Z</time></trkpt><trkpt lat="42.923100" lon="-5.696930"><ele>1332.008</ele><time>2015-10-25T11:53:43Z</time></trkpt><trkpt lat="42.923132" lon="-5.697036"><ele>1334.920</ele><time>2015-10-25T11:53:56Z</time></trkpt><trkpt lat="42.923139" lon="-5.697060"><ele>1334.930</ele><time>2015-10-25T11:53:59Z</time></trkpt><trkpt lat="42.923221" lon="-5.697158"><ele>1334.933</ele><time>2015-10-25T11:54:09Z</time></trkpt><trkpt lat="42.923234" lon="-5.697174"><ele>1333.512</ele><time>2015-10-25T11:54:11Z</time></trkpt><trkpt lat="42.923281" lon="-5.697254"><ele>1333.067</ele><time>2015-10-25T11:54:18Z</time></trkpt><trkpt lat="42.923322" lon="-5.697365"><ele>1332.078</ele><time>2015-10-25T11:54:28Z</time></trkpt><trkpt lat="42.923379" lon="-5.697497"><ele>1330.190</ele><time>2015-10-25T11:54:43Z</time></trkpt><trkpt lat="42.923372" lon="-5.697537"><ele>1330.128</ele><time>2015-10-25T11:55:09Z</time></trkpt><trkpt lat="42.923434" lon="-5.697654"><ele>1328.789</ele><time>2015-10-25T11:55:24Z</time></trkpt><trkpt lat="42.923486" lon="-5.697748"><ele>1328.706</ele><time>2015-10-25T11:55:34Z</time></trkpt><trkpt lat="42.923555" lon="-5.697871"><ele>1327.226</ele><time>2015-10-25T11:55:44Z</time></trkpt><trkpt lat="42.923657" lon="-5.697974"><ele>1325.308</ele><time>2015-10-25T11:55:56Z</time></trkpt><trkpt lat="42.923748" lon="-5.698144"><ele>1325.349</ele><time>2015-10-25T11:56:11Z</time></trkpt><trkpt lat="42.923768" lon="-5.698173"><ele>1325.379</ele><time>2015-10-25T11:56:14Z</time></trkpt><trkpt lat="42.923813" lon="-5.698201"><ele>1325.392</ele><time>2015-10-25T11:56:18Z</time></trkpt><trkpt lat="42.923972" lon="-5.698313"><ele>1324.871</ele><time>2015-10-25T11:56:34Z</time></trkpt><trkpt lat="42.924106" lon="-5.698364"><ele>1324.826</ele><time>2015-10-25T11:56:46Z</time></trkpt><trkpt lat="42.924114" lon="-5.698367"><ele>1324.817</ele><time>2015-10-25T11:56:47Z</time></trkpt><trkpt lat="42.924202" lon="-5.698395"><ele>1326.839</ele><time>2015-10-25T11:56:56Z</time></trkpt><trkpt lat="42.924230" lon="-5.698389"><ele>1326.897</ele><time>2015-10-25T11:56:59Z</time></trkpt><trkpt lat="42.924388" lon="-5.698408"><ele>1328.741</ele><time>2015-10-25T11:57:15Z</time></trkpt><trkpt lat="42.924504" lon="-5.698428"><ele>1329.681</ele><time>2015-10-25T11:57:26Z</time></trkpt><trkpt lat="42.924537" lon="-5.698407"><ele>1329.609</ele><time>2015-10-25T11:57:30Z</time></trkpt><trkpt lat="42.924644" lon="-5.698208"><ele>1332.008</ele><time>2015-10-25T11:57:46Z</time></trkpt><trkpt lat="42.924683" lon="-5.698138"><ele>1333.015</ele><time>2015-10-25T11:57:52Z</time></trkpt><trkpt lat="42.924760" lon="-5.697966"><ele>1334.065</ele><time>2015-10-25T11:58:06Z</time></trkpt><trkpt lat="42.924848" lon="-5.697807"><ele>1336.468</ele><time>2015-10-25T11:58:23Z</time></trkpt><trkpt lat="42.924887" lon="-5.697734"><ele>1337.887</ele><time>2015-10-25T11:58:39Z</time></trkpt><trkpt lat="42.924886" lon="-5.697736"><ele>1337.812</ele><time>2015-10-25T11:58:40Z</time></trkpt><trkpt lat="42.924885" lon="-5.697714"><ele>1337.813</ele><time>2015-10-25T11:58:55Z</time></trkpt><trkpt lat="42.924885" lon="-5.697712"><ele>1337.835</ele><time>2015-10-25T11:59:09Z</time></trkpt><trkpt lat="42.924913" lon="-5.697593"><ele>1337.323</ele><time>2015-10-25T11:59:23Z</time></trkpt><trkpt lat="42.924932" lon="-5.697525"><ele>1336.423</ele><time>2015-10-25T11:59:28Z</time></trkpt><trkpt lat="42.924955" lon="-5.697478"><ele>1335.483</ele><time>2015-10-25T11:59:32Z</time></trkpt><trkpt lat="42.924996" lon="-5.697435"><ele>1334.911</ele><time>2015-10-25T11:59:37Z</time></trkpt><trkpt lat="42.925026" lon="-5.697429"><ele>1334.408</ele><time>2015-10-25T11:59:40Z</time></trkpt><trkpt lat="42.925064" lon="-5.697388"><ele>1334.023</ele><time>2015-10-25T11:59:45Z</time></trkpt><trkpt lat="42.925119" lon="-5.697354"><ele>1333.033</ele><time>2015-10-25T11:59:52Z</time></trkpt><trkpt lat="42.925153" lon="-5.697348"><ele>1333.096</ele><time>2015-10-25T11:59:55Z</time></trkpt><trkpt lat="42.925185" lon="-5.697331"><ele>1332.585</ele><time>2015-10-25T11:59:58Z</time></trkpt><trkpt lat="42.925293" lon="-5.697407"><ele>1331.690</ele><time>2015-10-25T12:00:14Z</time></trkpt><trkpt lat="42.925369" lon="-5.697487"><ele>1330.661</ele><time>2015-10-25T12:00:30Z</time></trkpt><trkpt lat="42.925416" lon="-5.697559"><ele>1330.163</ele><time>2015-10-25T12:00:37Z</time></trkpt><trkpt lat="42.925424" lon="-5.697606"><ele>1329.221</ele><time>2015-10-25T12:00:41Z</time></trkpt><trkpt lat="42.925455" lon="-5.697677"><ele>1328.799</ele><time>2015-10-25T12:00:47Z</time></trkpt><trkpt lat="42.925479" lon="-5.697743"><ele>1328.207</ele><time>2015-10-25T12:00:52Z</time></trkpt><trkpt lat="42.925492" lon="-5.698024"><ele>1324.827</ele><time>2015-10-25T12:01:10Z</time></trkpt><trkpt lat="42.925491" lon="-5.698120"><ele>1323.908</ele><time>2015-10-25T12:01:16Z</time></trkpt><trkpt lat="42.925529" lon="-5.698263"><ele>1321.960</ele><time>2015-10-25T12:01:27Z</time></trkpt><trkpt lat="42.925531" lon="-5.698288"><ele>1321.040</ele><time>2015-10-25T12:01:29Z</time></trkpt><trkpt lat="42.925555" lon="-5.698359"><ele>1320.563</ele><time>2015-10-25T12:01:35Z</time></trkpt><trkpt lat="42.925583" lon="-5.698425"><ele>1319.652</ele><time>2015-10-25T12:01:40Z</time></trkpt><trkpt lat="42.925593" lon="-5.698476"><ele>1319.137</ele><time>2015-10-25T12:01:44Z</time></trkpt><trkpt lat="42.925655" lon="-5.698655"><ele>1316.228</ele><time>2015-10-25T12:01:58Z</time></trkpt><trkpt lat="42.925683" lon="-5.698818"><ele>1316.250</ele><time>2015-10-25T12:02:11Z</time></trkpt><trkpt lat="42.925686" lon="-5.698828"><ele>1316.298</ele><time>2015-10-25T12:02:12Z</time></trkpt><trkpt lat="42.925724" lon="-5.698926"><ele>1315.297</ele><time>2015-10-25T12:02:20Z</time></trkpt><trkpt lat="42.925748" lon="-5.699047"><ele>1314.323</ele><time>2015-10-25T12:02:28Z</time></trkpt><trkpt lat="42.925760" lon="-5.699116"><ele>1313.825</ele><time>2015-10-25T12:02:33Z</time></trkpt><trkpt lat="42.925763" lon="-5.699175"><ele>1313.308</ele><time>2015-10-25T12:02:38Z</time></trkpt><trkpt lat="42.925777" lon="-5.699252"><ele>1312.830</ele><time>2015-10-25T12:02:43Z</time></trkpt><trkpt lat="42.925821" lon="-5.699420"><ele>1309.440</ele><time>2015-10-25T12:02:55Z</time></trkpt><trkpt lat="42.925818" lon="-5.699640"><ele>1308.053</ele><time>2015-10-25T12:03:10Z</time></trkpt><trkpt lat="42.925820" lon="-5.699719"><ele>1307.152</ele><time>2015-10-25T12:03:15Z</time></trkpt><trkpt lat="42.925811" lon="-5.699958"><ele>1304.757</ele><time>2015-10-25T12:03:31Z</time></trkpt><trkpt lat="42.925853" lon="-5.700002"><ele>1301.888</ele><time>2015-10-25T12:03:42Z</time></trkpt><trkpt lat="42.925909" lon="-5.700023"><ele>1299.870</ele><time>2015-10-25T12:03:52Z</time></trkpt><trkpt lat="42.925933" lon="-5.700042"><ele>1298.448</ele><time>2015-10-25T12:03:55Z</time></trkpt><trkpt lat="42.925965" lon="-5.700027"><ele>1297.952</ele><time>2015-10-25T12:03:59Z</time></trkpt><trkpt lat="42.926013" lon="-5.699984"><ele>1295.553</ele><time>2015-10-25T12:04:05Z</time></trkpt><trkpt lat="42.926060" lon="-5.700037"><ele>1294.108</ele><time>2015-10-25T12:04:10Z</time></trkpt><trkpt lat="42.926123" lon="-5.700220"><ele>1293.108</ele><time>2015-10-25T12:04:23Z</time></trkpt><trkpt lat="42.926121" lon="-5.700266"><ele>1293.126</ele><time>2015-10-25T12:04:26Z</time></trkpt><trkpt lat="42.926136" lon="-5.700417"><ele>1291.276</ele><time>2015-10-25T12:04:40Z</time></trkpt><trkpt lat="42.926138" lon="-5.700427"><ele>1291.299</ele><time>2015-10-25T12:04:41Z</time></trkpt><trkpt lat="42.926142" lon="-5.700531"><ele>1290.228</ele><time>2015-10-25T12:04:48Z</time></trkpt><trkpt lat="42.926167" lon="-5.700810"><ele>1287.843</ele><time>2015-10-25T12:05:05Z</time></trkpt><trkpt lat="42.926235" lon="-5.701000"><ele>1287.844</ele><time>2015-10-25T12:05:20Z</time></trkpt><trkpt lat="42.926337" lon="-5.701218"><ele>1287.886</ele><time>2015-10-25T12:05:36Z</time></trkpt><trkpt lat="42.926345" lon="-5.701248"><ele>1287.874</ele><time>2015-10-25T12:05:38Z</time></trkpt><trkpt lat="42.926488" lon="-5.701398"><ele>1287.342</ele><time>2015-10-25T12:05:54Z</time></trkpt><trkpt lat="42.926599" lon="-5.701477"><ele>1286.922</ele><time>2015-10-25T12:06:04Z</time></trkpt><trkpt lat="42.926673" lon="-5.701527"><ele>1286.914</ele><time>2015-10-25T12:06:11Z</time></trkpt><trkpt lat="42.926806" lon="-5.701618"><ele>1286.908</ele><time>2015-10-25T12:06:25Z</time></trkpt><trkpt lat="42.926960" lon="-5.701720"><ele>1286.995</ele><time>2015-10-25T12:06:40Z</time></trkpt><trkpt lat="42.927117" lon="-5.701843"><ele>1286.945</ele><time>2015-10-25T12:06:55Z</time></trkpt><trkpt lat="42.927315" lon="-5.701985"><ele>1288.318</ele><time>2015-10-25T12:07:13Z</time></trkpt><trkpt lat="42.927508" lon="-5.702101"><ele>1289.377</ele><time>2015-10-25T12:07:31Z</time></trkpt><trkpt lat="42.927639" lon="-5.702176"><ele>1289.862</ele><time>2015-10-25T12:07:43Z</time></trkpt><trkpt lat="42.927876" lon="-5.702319"><ele>1290.763</ele><time>2015-10-25T12:08:03Z</time></trkpt><trkpt lat="42.928077" lon="-5.702446"><ele>1291.245</ele><time>2015-10-25T12:08:21Z</time></trkpt><trkpt lat="42.928292" lon="-5.702577"><ele>1292.293</ele><time>2015-10-25T12:08:40Z</time></trkpt><trkpt lat="42.928497" lon="-5.702682"><ele>1292.625</ele><time>2015-10-25T12:08:57Z</time></trkpt><trkpt lat="42.928689" lon="-5.702746"><ele>1293.126</ele><time>2015-10-25T12:09:13Z</time></trkpt><trkpt lat="42.928886" lon="-5.702816"><ele>1293.608</ele><time>2015-10-25T12:09:30Z</time></trkpt><trkpt lat="42.929112" lon="-5.702902"><ele>1293.608</ele><time>2015-10-25T12:09:49Z</time></trkpt><trkpt lat="42.929301" lon="-5.702992"><ele>1293.623</ele><time>2015-10-25T12:10:05Z</time></trkpt><trkpt lat="42.929530" lon="-5.703094"><ele>1293.683</ele><time>2015-10-25T12:10:24Z</time></trkpt><trkpt lat="42.929703" lon="-5.703171"><ele>1293.676</ele><time>2015-10-25T12:10:38Z</time></trkpt><trkpt lat="42.929777" lon="-5.703208"><ele>1292.265</ele><time>2015-10-25T12:10:44Z</time></trkpt><trkpt lat="42.929971" lon="-5.703280"><ele>1291.270</ele><time>2015-10-25T12:11:01Z</time></trkpt><trkpt lat="42.930184" lon="-5.703362"><ele>1290.251</ele><time>2015-10-25T12:11:19Z</time></trkpt><trkpt lat="42.930386" lon="-5.703463"><ele>1289.853</ele><time>2015-10-25T12:11:35Z</time></trkpt><trkpt lat="42.930597" lon="-5.703538"><ele>1288.831</ele><time>2015-10-25T12:11:53Z</time></trkpt><trkpt lat="42.930846" lon="-5.703619"><ele>1287.889</ele><time>2015-10-25T12:12:13Z</time></trkpt><trkpt lat="42.931069" lon="-5.703728"><ele>1287.306</ele><time>2015-10-25T12:12:31Z</time></trkpt><trkpt lat="42.931268" lon="-5.703805"><ele>1287.326</ele><time>2015-10-25T12:12:48Z</time></trkpt><trkpt lat="42.931510" lon="-5.703847"><ele>1286.408</ele><time>2015-10-25T12:13:06Z</time></trkpt><trkpt lat="42.931715" lon="-5.703867"><ele>1286.489</ele><time>2015-10-25T12:13:22Z</time></trkpt><trkpt lat="42.931919" lon="-5.703916"><ele>1286.459</ele><time>2015-10-25T12:13:39Z</time></trkpt><trkpt lat="42.932115" lon="-5.703945"><ele>1286.452</ele><time>2015-10-25T12:13:54Z</time></trkpt><trkpt lat="42.932213" lon="-5.703946"><ele>1286.451</ele><time>2015-10-25T12:14:03Z</time></trkpt><trkpt lat="42.932467" lon="-5.703946"><ele>1289.376</ele><time>2015-10-25T12:14:25Z</time></trkpt><trkpt lat="42.932650" lon="-5.703994"><ele>1290.247</ele><time>2015-10-25T12:14:40Z</time></trkpt><trkpt lat="42.932861" lon="-5.704043"><ele>1290.239</ele><time>2015-10-25T12:14:58Z</time></trkpt><trkpt lat="42.933058" lon="-5.704161"><ele>1291.757</ele><time>2015-10-25T12:15:16Z</time></trkpt><trkpt lat="42.933232" lon="-5.704309"><ele>1291.777</ele><time>2015-10-25T12:15:34Z</time></trkpt><trkpt lat="42.933394" lon="-5.704475"><ele>1290.261</ele><time>2015-10-25T12:15:49Z</time></trkpt><trkpt lat="42.933544" lon="-5.704705"><ele>1288.327</ele><time>2015-10-25T12:16:07Z</time></trkpt><trkpt lat="42.933638" lon="-5.704975"><ele>1286.408</ele><time>2015-10-25T12:16:25Z</time></trkpt><trkpt lat="42.933657" lon="-5.705137"><ele>1285.468</ele><time>2015-10-25T12:16:35Z</time></trkpt><trkpt lat="42.933649" lon="-5.705205"><ele>1284.978</ele><time>2015-10-25T12:16:39Z</time></trkpt><trkpt lat="42.933628" lon="-5.705525"><ele>1283.061</ele><time>2015-10-25T12:16:58Z</time></trkpt><trkpt lat="42.933606" lon="-5.705848"><ele>1282.150</ele><time>2015-10-25T12:17:16Z</time></trkpt><trkpt lat="42.933598" lon="-5.706150"><ele>1279.755</ele><time>2015-10-25T12:17:34Z</time></trkpt><trkpt lat="42.933669" lon="-5.706413"><ele>1278.246</ele><time>2015-10-25T12:17:49Z</time></trkpt><trkpt lat="42.933830" lon="-5.706623"><ele>1275.838</ele><time>2015-10-25T12:18:07Z</time></trkpt><trkpt lat="42.933996" lon="-5.706606"><ele>1274.826</ele><time>2015-10-25T12:18:24Z</time></trkpt><trkpt lat="42.934075" lon="-5.706550"><ele>1274.811</ele><time>2015-10-25T12:18:37Z</time></trkpt><trkpt lat="42.934156" lon="-5.706507"><ele>1274.821</ele><time>2015-10-25T12:18:48Z</time></trkpt><trkpt lat="42.934222" lon="-5.706474"><ele>1274.803</ele><time>2015-10-25T12:18:54Z</time></trkpt><trkpt lat="42.934417" lon="-5.706461"><ele>1277.708</ele><time>2015-10-25T12:19:11Z</time></trkpt><trkpt lat="42.934604" lon="-5.706477"><ele>1278.742</ele><time>2015-10-25T12:19:28Z</time></trkpt><trkpt lat="42.934778" lon="-5.706543"><ele>1278.732</ele><time>2015-10-25T12:19:43Z</time></trkpt><trkpt lat="42.934966" lon="-5.706674"><ele>1279.275</ele><time>2015-10-25T12:20:01Z</time></trkpt><trkpt lat="42.935011" lon="-5.706748"><ele>1279.234</ele><time>2015-10-25T12:20:14Z</time></trkpt><trkpt lat="42.935186" lon="-5.706959"><ele>1279.729</ele><time>2015-10-25T12:20:33Z</time></trkpt><trkpt lat="42.935268" lon="-5.707222"><ele>1278.260</ele><time>2015-10-25T12:20:50Z</time></trkpt><trkpt lat="42.935245" lon="-5.707450"><ele>1274.842</ele><time>2015-10-25T12:21:06Z</time></trkpt><trkpt lat="42.935129" lon="-5.707678"><ele>1273.460</ele><time>2015-10-25T12:21:22Z</time></trkpt><trkpt lat="42.935065" lon="-5.707805"><ele>1273.442</ele><time>2015-10-25T12:21:30Z</time></trkpt><trkpt lat="42.934972" lon="-5.708015"><ele>1273.422</ele><time>2015-10-25T12:21:47Z</time></trkpt><trkpt lat="42.934994" lon="-5.708071"><ele>1273.414</ele><time>2015-10-25T12:21:51Z</time></trkpt><trkpt lat="42.935163" lon="-5.708160"><ele>1273.408</ele><time>2015-10-25T12:22:07Z</time></trkpt><trkpt lat="42.935369" lon="-5.708235"><ele>1274.455</ele><time>2015-10-25T12:22:24Z</time></trkpt><trkpt lat="42.935548" lon="-5.708346"><ele>1274.845</ele><time>2015-10-25T12:22:41Z</time></trkpt><trkpt lat="42.935736" lon="-5.708403"><ele>1274.888</ele><time>2015-10-25T12:22:57Z</time></trkpt><trkpt lat="42.935823" lon="-5.708465"><ele>1274.897</ele><time>2015-10-25T12:23:04Z</time></trkpt><trkpt lat="42.935916" lon="-5.708639"><ele>1274.492</ele><time>2015-10-25T12:23:18Z</time></trkpt><trkpt lat="42.935928" lon="-5.708649"><ele>1274.423</ele><time>2015-10-25T12:23:19Z</time></trkpt><trkpt lat="42.935935" lon="-5.708660"><ele>1274.475</ele><time>2015-10-25T12:23:20Z</time></trkpt><trkpt lat="42.935943" lon="-5.708671"><ele>1276.333</ele><time>2015-10-25T12:23:21Z</time></trkpt><trkpt lat="42.935948" lon="-5.708685"><ele>1276.369</ele><time>2015-10-25T12:23:22Z</time></trkpt><trkpt lat="42.935959" lon="-5.708698"><ele>1276.304</ele><time>2015-10-25T12:23:23Z</time></trkpt><trkpt lat="42.935968" lon="-5.708710"><ele>1276.324</ele><time>2015-10-25T12:23:24Z</time></trkpt><trkpt lat="42.935977" lon="-5.708725"><ele>1274.808</ele><time>2015-10-25T12:23:25Z</time></trkpt><trkpt lat="42.936090" lon="-5.708935"><ele>1276.327</ele><time>2015-10-25T12:23:41Z</time></trkpt><trkpt lat="42.936240" lon="-5.709126"><ele>1276.387</ele><time>2015-10-25T12:23:58Z</time></trkpt><trkpt lat="42.936421" lon="-5.709354"><ele>1276.380</ele><time>2015-10-25T12:24:15Z</time></trkpt><trkpt lat="42.936584" lon="-5.709586"><ele>1276.889</ele><time>2015-10-25T12:24:33Z</time></trkpt><trkpt lat="42.936632" lon="-5.709636"><ele>1277.284</ele><time>2015-10-25T12:24:38Z</time></trkpt><trkpt lat="42.936640" lon="-5.709646"><ele>1277.215</ele><time>2015-10-25T12:24:39Z</time></trkpt><trkpt lat="42.936650" lon="-5.709659"><ele>1277.257</ele><time>2015-10-25T12:24:40Z</time></trkpt><trkpt lat="42.936797" lon="-5.709843"><ele>1278.255</ele><time>2015-10-25T12:24:57Z</time></trkpt><trkpt lat="42.936948" lon="-5.710030"><ele>1279.212</ele><time>2015-10-25T12:25:13Z</time></trkpt><trkpt lat="42.937147" lon="-5.710225"><ele>1279.232</ele><time>2015-10-25T12:25:32Z</time></trkpt><trkpt lat="42.937348" lon="-5.710379"><ele>1280.605</ele><time>2015-10-25T12:25:51Z</time></trkpt><trkpt lat="42.937503" lon="-5.710481"><ele>1282.508</ele><time>2015-10-25T12:26:05Z</time></trkpt><trkpt lat="42.937513" lon="-5.710487"><ele>1283.072</ele><time>2015-10-25T12:26:06Z</time></trkpt><trkpt lat="42.937523" lon="-5.710493"><ele>1283.072</ele><time>2015-10-25T12:26:07Z</time></trkpt><trkpt lat="42.937534" lon="-5.710499"><ele>1283.085</ele><time>2015-10-25T12:26:08Z</time></trkpt><trkpt lat="42.937548" lon="-5.710502"><ele>1283.084</ele><time>2015-10-25T12:26:09Z</time></trkpt><trkpt lat="42.937720" lon="-5.710594"><ele>1284.099</ele><time>2015-10-25T12:26:26Z</time></trkpt><trkpt lat="42.937744" lon="-5.710632"><ele>1284.040</ele><time>2015-10-25T12:26:29Z</time></trkpt><trkpt lat="42.937761" lon="-5.710681"><ele>1284.082</ele><time>2015-10-25T12:26:33Z</time></trkpt><trkpt lat="42.937808" lon="-5.710766"><ele>1282.580</ele><time>2015-10-25T12:26:40Z</time></trkpt><trkpt lat="42.937915" lon="-5.710930"><ele>1282.137</ele><time>2015-10-25T12:26:54Z</time></trkpt><trkpt lat="42.937968" lon="-5.711036"><ele>1281.649</ele><time>2015-10-25T12:27:02Z</time></trkpt><trkpt lat="42.938056" lon="-5.711232"><ele>1281.613</ele><time>2015-10-25T12:27:18Z</time></trkpt><trkpt lat="42.938057" lon="-5.711327"><ele>1281.608</ele><time>2015-10-25T12:27:24Z</time></trkpt><trkpt lat="42.938075" lon="-5.711398"><ele>1282.564</ele><time>2015-10-25T12:27:29Z</time></trkpt><trkpt lat="42.938089" lon="-5.711495"><ele>1282.534</ele><time>2015-10-25T12:27:41Z</time></trkpt><trkpt lat="42.938070" lon="-5.711542"><ele>1282.587</ele><time>2015-10-25T12:27:49Z</time></trkpt><trkpt lat="42.938142" lon="-5.711583"><ele>1282.586</ele><time>2015-10-25T12:27:56Z</time></trkpt><trkpt lat="42.938325" lon="-5.711701"><ele>1283.541</ele><time>2015-10-25T12:28:14Z</time></trkpt><trkpt lat="42.938477" lon="-5.711822"><ele>1284.532</ele><time>2015-10-25T12:28:30Z</time></trkpt><trkpt lat="42.938573" lon="-5.712019"><ele>1284.994</ele><time>2015-10-25T12:28:44Z</time></trkpt><trkpt lat="42.938698" lon="-5.712315"><ele>1284.942</ele><time>2015-10-25T12:29:02Z</time></trkpt><trkpt lat="42.938806" lon="-5.712555"><ele>1284.965</ele><time>2015-10-25T12:29:18Z</time></trkpt><trkpt lat="42.938872" lon="-5.712758"><ele>1283.568</ele><time>2015-10-25T12:29:30Z</time></trkpt><trkpt lat="42.938997" lon="-5.713028"><ele>1282.114</ele><time>2015-10-25T12:29:48Z</time></trkpt><trkpt lat="42.939081" lon="-5.713286"><ele>1280.608</ele><time>2015-10-25T12:30:04Z</time></trkpt><trkpt lat="42.939196" lon="-5.713501"><ele>1279.257</ele><time>2015-10-25T12:30:20Z</time></trkpt><trkpt lat="42.939243" lon="-5.713607"><ele>1278.797</ele><time>2015-10-25T12:30:28Z</time></trkpt><trkpt lat="42.939290" lon="-5.713839"><ele>1278.220</ele><time>2015-10-25T12:30:43Z</time></trkpt><trkpt lat="42.939380" lon="-5.714140"><ele>1277.279</ele><time>2015-10-25T12:31:01Z</time></trkpt><trkpt lat="42.939426" lon="-5.714223"><ele>1277.234</ele><time>2015-10-25T12:31:15Z</time></trkpt><trkpt lat="42.939431" lon="-5.714226"><ele>1277.255</ele><time>2015-10-25T12:31:17Z</time></trkpt><trkpt lat="42.939492" lon="-5.714269"><ele>1277.237</ele><time>2015-10-25T12:31:23Z</time></trkpt><trkpt lat="42.939696" lon="-5.714476"><ele>1276.855</ele><time>2015-10-25T12:31:42Z</time></trkpt><trkpt lat="42.939753" lon="-5.714540"><ele>1276.892</ele><time>2015-10-25T12:31:48Z</time></trkpt><trkpt lat="42.939928" lon="-5.714725"><ele>1276.373</ele><time>2015-10-25T12:32:06Z</time></trkpt><trkpt lat="42.940101" lon="-5.714843"><ele>1276.320</ele><time>2015-10-25T12:32:22Z</time></trkpt><trkpt lat="42.940236" lon="-5.714948"><ele>1277.708</ele><time>2015-10-25T12:32:34Z</time></trkpt><trkpt lat="42.940422" lon="-5.715083"><ele>1278.260</ele><time>2015-10-25T12:32:51Z</time></trkpt><trkpt lat="42.940600" lon="-5.715228"><ele>1278.290</ele><time>2015-10-25T12:33:09Z</time></trkpt><trkpt lat="42.940742" lon="-5.715352"><ele>1279.713</ele><time>2015-10-25T12:33:25Z</time></trkpt><trkpt lat="42.940832" lon="-5.715484"><ele>1276.832</ele><time>2015-10-25T12:33:36Z</time></trkpt><trkpt lat="42.940857" lon="-5.715531"><ele>1275.897</ele><time>2015-10-25T12:33:40Z</time></trkpt><trkpt lat="42.940859" lon="-5.715610"><ele>1275.828</ele><time>2015-10-25T12:33:53Z</time></trkpt><trkpt lat="42.940864" lon="-5.715604"><ele>1275.390</ele><time>2015-10-25T12:34:17Z</time></trkpt><trkpt lat="42.940927" lon="-5.715686"><ele>1273.918</ele><time>2015-10-25T12:34:31Z</time></trkpt><trkpt lat="42.940981" lon="-5.715813"><ele>1272.948</ele><time>2015-10-25T12:34:45Z</time></trkpt><trkpt lat="42.941013" lon="-5.715896"><ele>1271.561</ele><time>2015-10-25T12:34:52Z</time></trkpt><trkpt lat="42.941032" lon="-5.715926"><ele>1271.017</ele><time>2015-10-25T12:34:55Z</time></trkpt><trkpt lat="42.941107" lon="-5.716164"><ele>1268.608</ele><time>2015-10-25T12:35:11Z</time></trkpt><trkpt lat="42.941121" lon="-5.716237"><ele>1268.165</ele><time>2015-10-25T12:35:16Z</time></trkpt><trkpt lat="42.941226" lon="-5.716403"><ele>1264.385</ele><time>2015-10-25T12:35:31Z</time></trkpt><trkpt lat="42.941328" lon="-5.716531"><ele>1261.938</ele><time>2015-10-25T12:35:43Z</time></trkpt><trkpt lat="42.941428" lon="-5.716678"><ele>1260.417</ele><time>2015-10-25T12:35:56Z</time></trkpt><trkpt lat="42.941429" lon="-5.716731"><ele>1259.512</ele><time>2015-10-25T12:35:59Z</time></trkpt><trkpt lat="42.941471" lon="-5.716886"><ele>1257.523</ele><time>2015-10-25T12:36:10Z</time></trkpt><trkpt lat="42.941472" lon="-5.716928"><ele>1257.195</ele><time>2015-10-25T12:36:13Z</time></trkpt><trkpt lat="42.941479" lon="-5.717074"><ele>1258.533</ele><time>2015-10-25T12:36:23Z</time></trkpt><trkpt lat="42.941531" lon="-5.717314"><ele>1258.532</ele><time>2015-10-25T12:36:40Z</time></trkpt><trkpt lat="42.941538" lon="-5.717325"><ele>1258.592</ele><time>2015-10-25T12:36:41Z</time></trkpt><trkpt lat="42.941599" lon="-5.717530"><ele>1258.511</ele><time>2015-10-25T12:36:55Z</time></trkpt><trkpt lat="42.941574" lon="-5.717620"><ele>1258.508</ele><time>2015-10-25T12:37:02Z</time></trkpt><trkpt lat="42.941581" lon="-5.717832"><ele>1258.594</ele><time>2015-10-25T12:37:17Z</time></trkpt><trkpt lat="42.941594" lon="-5.717886"><ele>1258.564</ele><time>2015-10-25T12:37:21Z</time></trkpt><trkpt lat="42.941635" lon="-5.717952"><ele>1257.137</ele><time>2015-10-25T12:37:27Z</time></trkpt><trkpt lat="42.941673" lon="-5.718005"><ele>1256.696</ele><time>2015-10-25T12:37:31Z</time></trkpt><trkpt lat="42.941724" lon="-5.718181"><ele>1256.191</ele><time>2015-10-25T12:37:44Z</time></trkpt><trkpt lat="42.941790" lon="-5.718254"><ele>1253.212</ele><time>2015-10-25T12:38:00Z</time></trkpt><trkpt lat="42.941896" lon="-5.718353"><ele>1250.864</ele><time>2015-10-25T12:38:14Z</time></trkpt><trkpt lat="42.941923" lon="-5.718388"><ele>1249.852</ele><time>2015-10-25T12:38:20Z</time></trkpt><trkpt lat="42.941976" lon="-5.718339"><ele>1247.467</ele><time>2015-10-25T12:38:31Z</time></trkpt><trkpt lat="42.942061" lon="-5.718415"><ele>1244.681</ele><time>2015-10-25T12:38:47Z</time></trkpt><trkpt lat="42.942113" lon="-5.718481"><ele>1242.619</ele><time>2015-10-25T12:39:01Z</time></trkpt><trkpt lat="42.942184" lon="-5.718497"><ele>1244.108</ele><time>2015-10-25T12:39:13Z</time></trkpt><trkpt lat="42.942278" lon="-5.718530"><ele>1246.057</ele><time>2015-10-25T12:39:23Z</time></trkpt><trkpt lat="42.942450" lon="-5.718629"><ele>1247.477</ele><time>2015-10-25T12:39:42Z</time></trkpt><trkpt lat="42.942593" lon="-5.718786"><ele>1247.470</ele><time>2015-10-25T12:39:58Z</time></trkpt><trkpt lat="42.942744" lon="-5.718958"><ele>1247.419</ele><time>2015-10-25T12:40:14Z</time></trkpt><trkpt lat="42.942839" lon="-5.719080"><ele>1247.454</ele><time>2015-10-25T12:40:26Z</time></trkpt><trkpt lat="42.942859" lon="-5.719107"><ele>1247.415</ele><time>2015-10-25T12:40:29Z</time></trkpt><trkpt lat="42.943038" lon="-5.719241"><ele>1247.477</ele><time>2015-10-25T12:40:47Z</time></trkpt><trkpt lat="42.943048" lon="-5.719246"><ele>1247.415</ele><time>2015-10-25T12:40:48Z</time></trkpt><trkpt lat="42.943197" lon="-5.719285"><ele>1247.962</ele><time>2015-10-25T12:41:04Z</time></trkpt><trkpt lat="42.943277" lon="-5.719325"><ele>1247.983</ele><time>2015-10-25T12:41:13Z</time></trkpt><trkpt lat="42.943428" lon="-5.719396"><ele>1247.911</ele><time>2015-10-25T12:41:28Z</time></trkpt><trkpt lat="42.943630" lon="-5.719479"><ele>1246.008</ele><time>2015-10-25T12:41:45Z</time></trkpt><trkpt lat="42.943650" lon="-5.719498"><ele>1246.057</ele><time>2015-10-25T12:41:47Z</time></trkpt><trkpt lat="42.943707" lon="-5.719576"><ele>1246.067</ele><time>2015-10-25T12:41:53Z</time></trkpt><trkpt lat="42.943845" lon="-5.719695"><ele>1244.660</ele><time>2015-10-25T12:42:08Z</time></trkpt><trkpt lat="42.943940" lon="-5.719789"><ele>1243.699</ele><time>2015-10-25T12:42:19Z</time></trkpt><trkpt lat="42.944109" lon="-5.719811"><ele>1242.674</ele><time>2015-10-25T12:42:36Z</time></trkpt><trkpt lat="42.944172" lon="-5.719826"><ele>1242.655</ele><time>2015-10-25T12:42:41Z</time></trkpt><trkpt lat="42.944376" lon="-5.720062"><ele>1241.287</ele><time>2015-10-25T12:43:01Z</time></trkpt><trkpt lat="42.944516" lon="-5.720252"><ele>1241.295</ele><time>2015-10-25T12:43:18Z</time></trkpt><trkpt lat="42.944543" lon="-5.720282"><ele>1241.274</ele><time>2015-10-25T12:43:22Z</time></trkpt><trkpt lat="42.944740" lon="-5.720401"><ele>1240.256</ele><time>2015-10-25T12:43:41Z</time></trkpt><trkpt lat="42.944873" lon="-5.720604"><ele>1239.821</ele><time>2015-10-25T12:43:57Z</time></trkpt><trkpt lat="42.944889" lon="-5.720629"><ele>1239.808</ele><time>2015-10-25T12:43:59Z</time></trkpt><trkpt lat="42.944985" lon="-5.720758"><ele>1238.898</ele><time>2015-10-25T12:44:12Z</time></trkpt><trkpt lat="42.945107" lon="-5.720958"><ele>1237.878</ele><time>2015-10-25T12:44:29Z</time></trkpt><trkpt lat="42.945256" lon="-5.721146"><ele>1235.931</ele><time>2015-10-25T12:44:45Z</time></trkpt><trkpt lat="42.945424" lon="-5.721357"><ele>1234.980</ele><time>2015-10-25T12:45:04Z</time></trkpt><trkpt lat="42.945510" lon="-5.721514"><ele>1234.985</ele><time>2015-10-25T12:45:20Z</time></trkpt><trkpt lat="42.945568" lon="-5.721533"><ele>1236.456</ele><time>2015-10-25T12:45:36Z</time></trkpt><trkpt lat="42.945556" lon="-5.721567"><ele>1236.498</ele><time>2015-10-25T12:45:54Z</time></trkpt><trkpt lat="42.945578" lon="-5.721626"><ele>1239.316</ele><time>2015-10-25T12:46:13Z</time></trkpt><trkpt lat="42.945547" lon="-5.721562"><ele>1239.361</ele><time>2015-10-25T12:46:29Z</time></trkpt><trkpt lat="42.945514" lon="-5.721535"><ele>1239.321</ele><time>2015-10-25T12:46:43Z</time></trkpt><trkpt lat="42.945622" lon="-5.721459"><ele>1238.813</ele><time>2015-10-25T12:47:03Z</time></trkpt><trkpt lat="42.945605" lon="-5.721444"><ele>1239.308</ele><time>2015-10-25T12:47:24Z</time></trkpt><trkpt lat="42.945652" lon="-5.721420"><ele>1239.337</ele><time>2015-10-25T12:47:43Z</time></trkpt><trkpt lat="42.945641" lon="-5.721449"><ele>1238.857</ele><time>2015-10-25T12:48:02Z</time></trkpt><trkpt lat="42.945668" lon="-5.721443"><ele>1238.810</ele><time>2015-10-25T12:48:23Z</time></trkpt><trkpt lat="42.945649" lon="-5.721450"><ele>1239.319</ele><time>2015-10-25T12:48:50Z</time></trkpt><trkpt lat="42.945583" lon="-5.721486"><ele>1238.884</ele><time>2015-10-25T12:49:08Z</time></trkpt><trkpt lat="42.945552" lon="-5.721479"><ele>1238.855</ele><time>2015-10-25T12:49:26Z</time></trkpt><trkpt lat="42.945613" lon="-5.721474"><ele>1238.887</ele><time>2015-10-25T12:49:49Z</time></trkpt><trkpt lat="42.945598" lon="-5.721485"><ele>1238.845</ele><time>2015-10-25T12:50:07Z</time></trkpt><trkpt lat="42.945643" lon="-5.721457"><ele>1238.335</ele><time>2015-10-25T12:50:35Z</time></trkpt><trkpt lat="42.945632" lon="-5.721467"><ele>1238.386</ele><time>2015-10-25T12:50:59Z</time></trkpt><trkpt lat="42.945638" lon="-5.721487"><ele>1238.814</ele><time>2015-10-25T12:51:20Z</time></trkpt><trkpt lat="42.945596" lon="-5.721487"><ele>1238.808</ele><time>2015-10-25T12:51:41Z</time></trkpt><trkpt lat="42.945572" lon="-5.721566"><ele>1238.324</ele><time>2015-10-25T12:52:04Z</time></trkpt><trkpt lat="42.945509" lon="-5.721571"><ele>1238.374</ele><time>2015-10-25T12:52:19Z</time></trkpt><trkpt lat="42.945575" lon="-5.721522"><ele>1238.887</ele><time>2015-10-25T12:52:41Z</time></trkpt><trkpt lat="42.945665" lon="-5.721467"><ele>1238.346</ele><time>2015-10-25T12:53:04Z</time></trkpt><trkpt lat="42.945629" lon="-5.721453"><ele>1238.371</ele><time>2015-10-25T12:53:23Z</time></trkpt><trkpt lat="42.945608" lon="-5.721463"><ele>1238.322</ele><time>2015-10-25T12:53:51Z</time></trkpt><trkpt lat="42.945602" lon="-5.721478"><ele>1237.824</ele><time>2015-10-25T12:54:25Z</time></trkpt><trkpt lat="42.945566" lon="-5.721508"><ele>1237.882</ele><time>2015-10-25T12:54:54Z</time></trkpt><trkpt lat="42.945516" lon="-5.721508"><ele>1237.813</ele><time>2015-10-25T12:55:18Z</time></trkpt><trkpt lat="42.945530" lon="-5.721517"><ele>1237.843</ele><time>2015-10-25T12:55:37Z</time></trkpt><trkpt lat="42.945597" lon="-5.721490"><ele>1237.307</ele><time>2015-10-25T12:56:02Z</time></trkpt><trkpt lat="42.945616" lon="-5.721483"><ele>1237.308</ele><time>2015-10-25T12:56:22Z</time></trkpt><trkpt lat="42.945617" lon="-5.721449"><ele>1237.852</ele><time>2015-10-25T12:56:44Z</time></trkpt><trkpt lat="42.945612" lon="-5.721447"><ele>1237.882</ele><time>2015-10-25T12:57:16Z</time></trkpt><trkpt lat="42.945656" lon="-5.721439"><ele>1237.385</ele><time>2015-10-25T12:57:41Z</time></trkpt><trkpt lat="42.945650" lon="-5.721453"><ele>1237.394</ele><time>2015-10-25T12:58:10Z</time></trkpt><trkpt lat="42.945576" lon="-5.721518"><ele>1237.359</ele><time>2015-10-25T12:58:39Z</time></trkpt><trkpt lat="42.945582" lon="-5.721493"><ele>1237.340</ele><time>2015-10-25T12:59:06Z</time></trkpt><trkpt lat="42.945508" lon="-5.721536"><ele>1237.372</ele><time>2015-10-25T12:59:25Z</time></trkpt><trkpt lat="42.945640" lon="-5.721466"><ele>1237.360</ele><time>2015-10-25T12:59:44Z</time></trkpt><trkpt lat="42.945628" lon="-5.721521"><ele>1237.874</ele><time>2015-10-25T13:00:12Z</time></trkpt><trkpt lat="42.945905" lon="-5.721733"><ele>1249.856</ele><time>2015-10-26T07:18:54Z</time></trkpt><trkpt lat="42.946108" lon="-5.721729"><ele>1247.021</ele><time>2015-10-26T07:19:14Z</time></trkpt><trkpt lat="42.946355" lon="-5.721772"><ele>1245.508</ele><time>2015-10-26T07:19:29Z</time></trkpt><trkpt lat="42.946623" lon="-5.721713"><ele>1245.068</ele><time>2015-10-26T07:19:46Z</time></trkpt><trkpt lat="42.946768" lon="-5.721713"><ele>1244.658</ele><time>2015-10-26T07:20:00Z</time></trkpt><trkpt lat="42.946842" lon="-5.721756"><ele>1244.121</ele><time>2015-10-26T07:20:05Z</time></trkpt><trkpt lat="42.946984" lon="-5.722000"><ele>1244.160</ele><time>2015-10-26T07:20:23Z</time></trkpt><trkpt lat="42.947074" lon="-5.722261"><ele>1243.155</ele><time>2015-10-26T07:20:42Z</time></trkpt><trkpt lat="42.947105" lon="-5.722334"><ele>1243.166</ele><time>2015-10-26T07:20:59Z</time></trkpt><trkpt lat="42.947158" lon="-5.722395"><ele>1243.138</ele><time>2015-10-26T07:21:13Z</time></trkpt><trkpt lat="42.947279" lon="-5.722510"><ele>1243.146</ele><time>2015-10-26T07:21:26Z</time></trkpt><trkpt lat="42.947346" lon="-5.722598"><ele>1244.155</ele><time>2015-10-26T07:21:34Z</time></trkpt><trkpt lat="42.947523" lon="-5.722770"><ele>1244.107</ele><time>2015-10-26T07:21:53Z</time></trkpt><trkpt lat="42.947696" lon="-5.722924"><ele>1244.617</ele><time>2015-10-26T07:22:10Z</time></trkpt><trkpt lat="42.947781" lon="-5.723018"><ele>1245.508</ele><time>2015-10-26T07:22:27Z</time></trkpt><trkpt lat="42.947952" lon="-5.723194"><ele>1246.536</ele><time>2015-10-26T07:22:46Z</time></trkpt><trkpt lat="42.948123" lon="-5.723421"><ele>1247.986</ele><time>2015-10-26T07:23:06Z</time></trkpt><trkpt lat="42.948153" lon="-5.723708"><ele>1249.819</ele><time>2015-10-26T07:23:23Z</time></trkpt><trkpt lat="42.948104" lon="-5.723891"><ele>1250.858</ele><time>2015-10-26T07:23:34Z</time></trkpt><trkpt lat="42.948239" lon="-5.724085"><ele>1253.753</ele><time>2015-10-26T07:23:55Z</time></trkpt><trkpt lat="42.948388" lon="-5.724232"><ele>1255.194</ele><time>2015-10-26T07:24:11Z</time></trkpt><trkpt lat="42.948515" lon="-5.724388"><ele>1258.596</ele><time>2015-10-26T07:24:27Z</time></trkpt><trkpt lat="42.948604" lon="-5.724547"><ele>1260.954</ele><time>2015-10-26T07:24:43Z</time></trkpt><trkpt lat="42.948731" lon="-5.724674"><ele>1263.818</ele><time>2015-10-26T07:24:58Z</time></trkpt><trkpt lat="42.948844" lon="-5.724793"><ele>1267.298</ele><time>2015-10-26T07:25:14Z</time></trkpt><trkpt lat="42.948962" lon="-5.724922"><ele>1269.617</ele><time>2015-10-26T07:25:32Z</time></trkpt><trkpt lat="42.949069" lon="-5.725037"><ele>1272.008</ele><time>2015-10-26T07:25:47Z</time></trkpt><trkpt lat="42.949190" lon="-5.725161"><ele>1275.392</ele><time>2015-10-26T07:26:03Z</time></trkpt><trkpt lat="42.949307" lon="-5.725282"><ele>1277.712</ele><time>2015-10-26T07:26:19Z</time></trkpt><trkpt lat="42.949416" lon="-5.725382"><ele>1281.665</ele><time>2015-10-26T07:26:34Z</time></trkpt><trkpt lat="42.949467" lon="-5.725445"><ele>1283.034</ele><time>2015-10-26T07:26:41Z</time></trkpt><trkpt lat="42.949479" lon="-5.725462"><ele>1283.019</ele><time>2015-10-26T07:26:43Z</time></trkpt><trkpt lat="42.949625" lon="-5.725631"><ele>1285.430</ele><time>2015-10-26T07:27:00Z</time></trkpt><trkpt lat="42.949784" lon="-5.725817"><ele>1286.942</ele><time>2015-10-26T07:27:18Z</time></trkpt><trkpt lat="42.949878" lon="-5.725939"><ele>1290.250</ele><time>2015-10-26T07:27:30Z</time></trkpt><trkpt lat="42.949989" lon="-5.726085"><ele>1293.148</ele><time>2015-10-26T07:27:45Z</time></trkpt><trkpt lat="42.950117" lon="-5.726304"><ele>1290.261</ele><time>2015-10-26T07:28:03Z</time></trkpt><trkpt lat="42.950247" lon="-5.726601"><ele>1287.817</ele><time>2015-10-26T07:28:21Z</time></trkpt><trkpt lat="42.950419" lon="-5.726899"><ele>1286.908</ele><time>2015-10-26T07:28:42Z</time></trkpt><trkpt lat="42.950515" lon="-5.727077"><ele>1287.895</ele><time>2015-10-26T07:28:56Z</time></trkpt><trkpt lat="42.950644" lon="-5.727277"><ele>1289.335</ele><time>2015-10-26T07:29:13Z</time></trkpt><trkpt lat="42.950705" lon="-5.727394"><ele>1289.898</ele><time>2015-10-26T07:29:22Z</time></trkpt><trkpt lat="42.950808" lon="-5.727652"><ele>1291.717</ele><time>2015-10-26T07:29:40Z</time></trkpt><trkpt lat="42.950891" lon="-5.727954"><ele>1292.232</ele><time>2015-10-26T07:30:00Z</time></trkpt><trkpt lat="42.950977" lon="-5.728287"><ele>1292.653</ele><time>2015-10-26T07:30:20Z</time></trkpt><trkpt lat="42.951069" lon="-5.728616"><ele>1292.295</ele><time>2015-10-26T07:30:40Z</time></trkpt><trkpt lat="42.951130" lon="-5.728878"><ele>1292.233</ele><time>2015-10-26T07:30:56Z</time></trkpt><trkpt lat="42.951198" lon="-5.729171"><ele>1293.625</ele><time>2015-10-26T07:31:14Z</time></trkpt><trkpt lat="42.951297" lon="-5.729478"><ele>1295.026</ele><time>2015-10-26T07:31:34Z</time></trkpt><trkpt lat="42.951368" lon="-5.729729"><ele>1296.008</ele><time>2015-10-26T07:31:51Z</time></trkpt><trkpt lat="42.951461" lon="-5.729986"><ele>1296.508</ele><time>2015-10-26T07:32:08Z</time></trkpt><trkpt lat="42.951570" lon="-5.730282"><ele>1297.073</ele><time>2015-10-26T07:32:27Z</time></trkpt><trkpt lat="42.951680" lon="-5.730559"><ele>1297.033</ele><time>2015-10-26T07:32:46Z</time></trkpt><trkpt lat="42.951796" lon="-5.730822"><ele>1298.496</ele><time>2015-10-26T07:33:04Z</time></trkpt><trkpt lat="42.951890" lon="-5.731042"><ele>1300.335</ele><time>2015-10-26T07:33:20Z</time></trkpt><trkpt lat="42.951967" lon="-5.731264"><ele>1302.240</ele><time>2015-10-26T07:33:36Z</time></trkpt><trkpt lat="42.952059" lon="-5.731542"><ele>1303.281</ele><time>2015-10-26T07:33:54Z</time></trkpt><trkpt lat="42.952140" lon="-5.731783"><ele>1304.793</ele><time>2015-10-26T07:34:10Z</time></trkpt><trkpt lat="42.952207" lon="-5.732013"><ele>1307.581</ele><time>2015-10-26T07:34:26Z</time></trkpt><trkpt lat="42.952262" lon="-5.732204"><ele>1310.457</ele><time>2015-10-26T07:34:40Z</time></trkpt><trkpt lat="42.952398" lon="-5.732356"><ele>1309.000</ele><time>2015-10-26T07:34:56Z</time></trkpt><trkpt lat="42.952496" lon="-5.732442"><ele>1309.020</ele><time>2015-10-26T07:35:06Z</time></trkpt><trkpt lat="42.952612" lon="-5.732632"><ele>1310.908</ele><time>2015-10-26T07:35:23Z</time></trkpt><trkpt lat="42.952696" lon="-5.732677"><ele>1312.856</ele><time>2015-10-26T07:35:36Z</time></trkpt><trkpt lat="42.952751" lon="-5.732714"><ele>1312.866</ele><time>2015-10-26T07:35:42Z</time></trkpt><trkpt lat="42.952879" lon="-5.732755"><ele>1314.769</ele><time>2015-10-26T07:35:58Z</time></trkpt><trkpt lat="42.952956" lon="-5.732766"><ele>1318.188</ele><time>2015-10-26T07:36:08Z</time></trkpt><trkpt lat="42.953058" lon="-5.732734"><ele>1321.523</ele><time>2015-10-26T07:36:22Z</time></trkpt><trkpt lat="42.953200" lon="-5.732715"><ele>1324.354</ele><time>2015-10-26T07:36:37Z</time></trkpt><trkpt lat="42.953362" lon="-5.732706"><ele>1327.216</ele><time>2015-10-26T07:36:56Z</time></trkpt><trkpt lat="42.953439" lon="-5.732701"><ele>1327.754</ele><time>2015-10-26T07:37:05Z</time></trkpt><trkpt lat="42.953459" lon="-5.732694"><ele>1327.758</ele><time>2015-10-26T07:37:07Z</time></trkpt><trkpt lat="42.953487" lon="-5.732689"><ele>1328.252</ele><time>2015-10-26T07:37:10Z</time></trkpt><trkpt lat="42.953678" lon="-5.732653"><ele>1328.217</ele><time>2015-10-26T07:37:28Z</time></trkpt><trkpt lat="42.953784" lon="-5.732627"><ele>1326.808</ele><time>2015-10-26T07:37:37Z</time></trkpt><trkpt lat="42.953964" lon="-5.732553"><ele>1326.836</ele><time>2015-10-26T07:37:53Z</time></trkpt><trkpt lat="42.954131" lon="-5.732497"><ele>1326.896</ele><time>2015-10-26T07:38:08Z</time></trkpt><trkpt lat="42.954176" lon="-5.732488"><ele>1328.299</ele><time>2015-10-26T07:38:12Z</time></trkpt><trkpt lat="42.954355" lon="-5.732547"><ele>1328.718</ele><time>2015-10-26T07:38:29Z</time></trkpt><trkpt lat="42.954394" lon="-5.732575"><ele>1328.773</ele><time>2015-10-26T07:38:33Z</time></trkpt><trkpt lat="42.954595" lon="-5.732739"><ele>1329.684</ele><time>2015-10-26T07:38:52Z</time></trkpt><trkpt lat="42.954742" lon="-5.732893"><ele>1331.126</ele><time>2015-10-26T07:39:10Z</time></trkpt><trkpt lat="42.954747" lon="-5.732905"><ele>1331.134</ele><time>2015-10-26T07:39:11Z</time></trkpt><trkpt lat="42.954933" lon="-5.733013"><ele>1332.574</ele><time>2015-10-26T07:39:30Z</time></trkpt><trkpt lat="42.955099" lon="-5.733098"><ele>1335.456</ele><time>2015-10-26T07:39:48Z</time></trkpt><trkpt lat="42.955272" lon="-5.733210"><ele>1337.321</ele><time>2015-10-26T07:40:08Z</time></trkpt><trkpt lat="42.955406" lon="-5.733300"><ele>1338.808</ele><time>2015-10-26T07:40:23Z</time></trkpt><trkpt lat="42.955567" lon="-5.733416"><ele>1340.268</ele><time>2015-10-26T07:40:40Z</time></trkpt><trkpt lat="42.955714" lon="-5.733530"><ele>1342.198</ele><time>2015-10-26T07:40:57Z</time></trkpt><trkpt lat="42.955798" lon="-5.733629"><ele>1343.121</ele><time>2015-10-26T07:41:08Z</time></trkpt><trkpt lat="42.955942" lon="-5.733779"><ele>1344.550</ele><time>2015-10-26T07:41:26Z</time></trkpt><trkpt lat="42.956086" lon="-5.733886"><ele>1346.555</ele><time>2015-10-26T07:41:41Z</time></trkpt><trkpt lat="42.956107" lon="-5.733890"><ele>1346.526</ele><time>2015-10-26T07:41:43Z</time></trkpt><trkpt lat="42.956239" lon="-5.734001"><ele>1349.348</ele><time>2015-10-26T07:42:01Z</time></trkpt><trkpt lat="42.956301" lon="-5.734047"><ele>1350.826</ele><time>2015-10-26T07:42:09Z</time></trkpt><trkpt lat="42.956454" lon="-5.734147"><ele>1352.742</ele><time>2015-10-26T07:42:27Z</time></trkpt><trkpt lat="42.956592" lon="-5.734224"><ele>1354.222</ele><time>2015-10-26T07:42:45Z</time></trkpt><trkpt lat="42.956680" lon="-5.734263"><ele>1357.014</ele><time>2015-10-26T07:42:57Z</time></trkpt><trkpt lat="42.956776" lon="-5.734304"><ele>1359.908</ele><time>2015-10-26T07:43:12Z</time></trkpt><trkpt lat="42.956880" lon="-5.734370"><ele>1362.385</ele><time>2015-10-26T07:43:28Z</time></trkpt><trkpt lat="42.956939" lon="-5.734397"><ele>1364.265</ele><time>2015-10-26T07:43:37Z</time></trkpt><trkpt lat="42.956966" lon="-5.734368"><ele>1364.758</ele><time>2015-10-26T07:43:43Z</time></trkpt><trkpt lat="42.956974" lon="-5.734342"><ele>1365.287</ele><time>2015-10-26T07:43:45Z</time></trkpt><trkpt lat="42.957066" lon="-5.734311"><ele>1368.612</ele><time>2015-10-26T07:43:59Z</time></trkpt><trkpt lat="42.957162" lon="-5.734378"><ele>1371.523</ele><time>2015-10-26T07:44:17Z</time></trkpt><trkpt lat="42.957242" lon="-5.734426"><ele>1374.365</ele><time>2015-10-26T07:44:30Z</time></trkpt><trkpt lat="42.957319" lon="-5.734522"><ele>1376.393</ele><time>2015-10-26T07:44:46Z</time></trkpt><trkpt lat="42.957396" lon="-5.734578"><ele>1379.251</ele><time>2015-10-26T07:45:03Z</time></trkpt><trkpt lat="42.957502" lon="-5.734646"><ele>1382.501</ele><time>2015-10-26T07:45:20Z</time></trkpt><trkpt lat="42.957596" lon="-5.734690"><ele>1385.911</ele><time>2015-10-26T07:45:37Z</time></trkpt><trkpt lat="42.957678" lon="-5.734736"><ele>1388.308</ele><time>2015-10-26T07:45:51Z</time></trkpt><trkpt lat="42.957787" lon="-5.734863"><ele>1388.846</ele><time>2015-10-26T07:46:08Z</time></trkpt><trkpt lat="42.957850" lon="-5.734972"><ele>1391.716</ele><time>2015-10-26T07:46:23Z</time></trkpt><trkpt lat="42.957916" lon="-5.735063"><ele>1395.019</ele><time>2015-10-26T07:46:38Z</time></trkpt><trkpt lat="42.958006" lon="-5.735139"><ele>1398.448</ele><time>2015-10-26T07:46:54Z</time></trkpt><trkpt lat="42.958100" lon="-5.735238"><ele>1400.823</ele><time>2015-10-26T07:47:11Z</time></trkpt><trkpt lat="42.958132" lon="-5.735278"><ele>1404.144</ele><time>2015-10-26T07:47:17Z</time></trkpt><trkpt lat="42.958137" lon="-5.735286"><ele>1406.166</ele><time>2015-10-26T07:47:19Z</time></trkpt><trkpt lat="42.958143" lon="-5.735292"><ele>1403.724</ele><time>2015-10-26T07:47:21Z</time></trkpt><trkpt lat="42.958175" lon="-5.735349"><ele>1406.125</ele><time>2015-10-26T07:47:28Z</time></trkpt><trkpt lat="42.958230" lon="-5.735402"><ele>1406.626</ele><time>2015-10-26T07:47:37Z</time></trkpt><trkpt lat="42.958338" lon="-5.735536"><ele>1405.608</ele><time>2015-10-26T07:47:53Z</time></trkpt><trkpt lat="42.958360" lon="-5.735564"><ele>1406.608</ele><time>2015-10-26T07:47:57Z</time></trkpt><trkpt lat="42.958490" lon="-5.735565"><ele>1409.443</ele><time>2015-10-26T07:48:14Z</time></trkpt><trkpt lat="42.958573" lon="-5.735548"><ele>1409.913</ele><time>2015-10-26T07:48:24Z</time></trkpt><trkpt lat="42.958593" lon="-5.735545"><ele>1409.926</ele><time>2015-10-26T07:48:26Z</time></trkpt><trkpt lat="42.958759" lon="-5.735503"><ele>1410.945</ele><time>2015-10-26T07:48:43Z</time></trkpt><trkpt lat="42.958905" lon="-5.735516"><ele>1409.410</ele><time>2015-10-26T07:48:57Z</time></trkpt><trkpt lat="42.958913" lon="-5.735510"><ele>1409.491</ele><time>2015-10-26T07:48:58Z</time></trkpt><trkpt lat="42.959034" lon="-5.735419"><ele>1409.433</ele><time>2015-10-26T07:49:12Z</time></trkpt><trkpt lat="42.959187" lon="-5.735315"><ele>1409.431</ele><time>2015-10-26T07:49:28Z</time></trkpt><trkpt lat="42.959205" lon="-5.735310"><ele>1409.478</ele><time>2015-10-26T07:49:30Z</time></trkpt><trkpt lat="42.959246" lon="-5.735284"><ele>1409.433</ele><time>2015-10-26T07:49:34Z</time></trkpt><trkpt lat="42.959326" lon="-5.735234"><ele>1409.426</ele><time>2015-10-26T07:49:42Z</time></trkpt><trkpt lat="42.959456" lon="-5.735135"><ele>1409.408</ele><time>2015-10-26T07:49:55Z</time></trkpt><trkpt lat="42.959610" lon="-5.735004"><ele>1408.988</ele><time>2015-10-26T07:50:12Z</time></trkpt><trkpt lat="42.959735" lon="-5.734894"><ele>1408.918</ele><time>2015-10-26T07:50:27Z</time></trkpt><trkpt lat="42.959869" lon="-5.734748"><ele>1407.581</ele><time>2015-10-26T07:50:43Z</time></trkpt><trkpt lat="42.959894" lon="-5.734713"><ele>1407.580</ele><time>2015-10-26T07:50:46Z</time></trkpt><trkpt lat="42.960003" lon="-5.734582"><ele>1407.095</ele><time>2015-10-26T07:51:01Z</time></trkpt><trkpt lat="42.960151" lon="-5.734466"><ele>1407.076</ele><time>2015-10-26T07:51:15Z</time></trkpt><trkpt lat="42.960261" lon="-5.734377"><ele>1406.678</ele><time>2015-10-26T07:51:29Z</time></trkpt><trkpt lat="42.960302" lon="-5.734335"><ele>1406.166</ele><time>2015-10-26T07:51:37Z</time></trkpt><trkpt lat="42.960417" lon="-5.734224"><ele>1406.111</ele><time>2015-10-26T07:51:51Z</time></trkpt><trkpt lat="42.960550" lon="-5.734060"><ele>1405.621</ele><time>2015-10-26T07:52:09Z</time></trkpt><trkpt lat="42.960711" lon="-5.733897"><ele>1405.603</ele><time>2015-10-26T07:52:26Z</time></trkpt><trkpt lat="42.960836" lon="-5.733781"><ele>1406.608</ele><time>2015-10-26T07:52:39Z</time></trkpt><trkpt lat="42.961032" lon="-5.733794"><ele>1408.562</ele><time>2015-10-26T07:52:59Z</time></trkpt><trkpt lat="42.961181" lon="-5.733878"><ele>1409.942</ele><time>2015-10-26T07:53:15Z</time></trkpt><trkpt lat="42.961273" lon="-5.734032"><ele>1410.425</ele><time>2015-10-26T07:53:29Z</time></trkpt><trkpt lat="42.961275" lon="-5.734102"><ele>1410.414</ele><time>2015-10-26T07:53:43Z</time></trkpt><trkpt lat="42.961272" lon="-5.734113"><ele>1408.099</ele><time>2015-10-26T07:53:57Z</time></trkpt><trkpt lat="42.961297" lon="-5.734138"><ele>1408.090</ele><time>2015-10-26T07:54:04Z</time></trkpt><trkpt lat="42.961356" lon="-5.734288"><ele>1408.092</ele><time>2015-10-26T07:54:18Z</time></trkpt><trkpt lat="42.961396" lon="-5.734416"><ele>1409.440</ele><time>2015-10-26T07:54:31Z</time></trkpt><trkpt lat="42.961415" lon="-5.734458"><ele>1410.979</ele><time>2015-10-26T07:54:39Z</time></trkpt><trkpt lat="42.961448" lon="-5.734550"><ele>1411.805</ele><time>2015-10-26T07:54:53Z</time></trkpt><trkpt lat="42.961489" lon="-5.734694"><ele>1414.725</ele><time>2015-10-26T07:55:10Z</time></trkpt><trkpt lat="42.961539" lon="-5.734825"><ele>1416.608</ele><time>2015-10-26T07:55:25Z</time></trkpt><trkpt lat="42.961590" lon="-5.734992"><ele>1419.098</ele><time>2015-10-26T07:55:42Z</time></trkpt><trkpt lat="42.961633" lon="-5.735127"><ele>1420.518</ele><time>2015-10-26T07:55:57Z</time></trkpt><trkpt lat="42.961649" lon="-5.735330"><ele>1422.951</ele><time>2015-10-26T07:56:12Z</time></trkpt><trkpt lat="42.961647" lon="-5.735478"><ele>1423.820</ele><time>2015-10-26T07:56:26Z</time></trkpt><trkpt lat="42.961666" lon="-5.735650"><ele>1425.835</ele><time>2015-10-26T07:56:42Z</time></trkpt><trkpt lat="42.961708" lon="-5.735780"><ele>1427.226</ele><time>2015-10-26T07:56:57Z</time></trkpt><trkpt lat="42.961748" lon="-5.735926"><ele>1430.198</ele><time>2015-10-26T07:57:15Z</time></trkpt><trkpt lat="42.961798" lon="-5.736063"><ele>1432.066</ele><time>2015-10-26T07:57:30Z</time></trkpt><trkpt lat="42.961852" lon="-5.736195"><ele>1434.458</ele><time>2015-10-26T07:57:48Z</time></trkpt><trkpt lat="42.961864" lon="-5.736228"><ele>1437.852</ele><time>2015-10-26T07:57:53Z</time></trkpt><trkpt lat="42.961864" lon="-5.736236"><ele>1437.817</ele><time>2015-10-26T07:57:54Z</time></trkpt><trkpt lat="42.961867" lon="-5.736244"><ele>1435.408</ele><time>2015-10-26T07:57:58Z</time></trkpt><trkpt lat="42.961876" lon="-5.736276"><ele>1436.896</ele><time>2015-10-26T07:58:04Z</time></trkpt><trkpt lat="42.961940" lon="-5.736347"><ele>1438.336</ele><time>2015-10-26T07:58:17Z</time></trkpt><trkpt lat="42.962000" lon="-5.736427"><ele>1441.659</ele><time>2015-10-26T07:58:28Z</time></trkpt><trkpt lat="42.962060" lon="-5.736518"><ele>1444.018</ele><time>2015-10-26T07:58:44Z</time></trkpt><trkpt lat="42.962116" lon="-5.736605"><ele>1447.473</ele><time>2015-10-26T07:59:01Z</time></trkpt><trkpt lat="42.962127" lon="-5.736617"><ele>1448.444</ele><time>2015-10-26T07:59:03Z</time></trkpt><trkpt lat="42.962164" lon="-5.736661"><ele>1451.216</ele><time>2015-10-26T07:59:15Z</time></trkpt><trkpt lat="42.962205" lon="-5.736730"><ele>1455.124</ele><time>2015-10-26T07:59:29Z</time></trkpt><trkpt lat="42.962219" lon="-5.736825"><ele>1456.566</ele><time>2015-10-26T07:59:45Z</time></trkpt><trkpt lat="42.962247" lon="-5.736960"><ele>1460.429</ele><time>2015-10-26T07:59:58Z</time></trkpt><trkpt lat="42.962246" lon="-5.736991"><ele>1462.321</ele><time>2015-10-26T08:00:04Z</time></trkpt><trkpt lat="42.962249" lon="-5.737015"><ele>1465.708</ele><time>2015-10-26T08:00:10Z</time></trkpt><trkpt lat="42.962252" lon="-5.737020"><ele>1467.617</ele><time>2015-10-26T08:00:12Z</time></trkpt><trkpt lat="42.962281" lon="-5.737055"><ele>1470.947</ele><time>2015-10-26T08:00:21Z</time></trkpt><trkpt lat="42.962289" lon="-5.737062"><ele>1471.940</ele><time>2015-10-26T08:00:23Z</time></trkpt><trkpt lat="42.962345" lon="-5.737155"><ele>1470.539</ele><time>2015-10-26T08:00:37Z</time></trkpt><trkpt lat="42.962427" lon="-5.737240"><ele>1469.534</ele><time>2015-10-26T08:00:51Z</time></trkpt><trkpt lat="42.962432" lon="-5.737244"><ele>1470.935</ele><time>2015-10-26T08:00:53Z</time></trkpt><trkpt lat="42.962426" lon="-5.737253"><ele>1467.617</ele><time>2015-10-26T08:01:03Z</time></trkpt><trkpt lat="42.962430" lon="-5.737256"><ele>1466.645</ele><time>2015-10-26T08:01:05Z</time></trkpt><trkpt lat="42.962470" lon="-5.737268"><ele>1467.662</ele><time>2015-10-26T08:01:10Z</time></trkpt><trkpt lat="42.962487" lon="-5.737269"><ele>1468.683</ele><time>2015-10-26T08:01:12Z</time></trkpt><trkpt lat="42.962506" lon="-5.737265"><ele>1470.011</ele><time>2015-10-26T08:01:14Z</time></trkpt><trkpt lat="42.962523" lon="-5.737262"><ele>1468.108</ele><time>2015-10-26T08:01:16Z</time></trkpt><trkpt lat="42.962664" lon="-5.737242"><ele>1469.527</ele><time>2015-10-26T08:01:33Z</time></trkpt><trkpt lat="42.962727" lon="-5.737270"><ele>1472.437</ele><time>2015-10-26T08:01:42Z</time></trkpt><trkpt lat="42.962817" lon="-5.737303"><ele>1473.830</ele><time>2015-10-26T08:01:55Z</time></trkpt><trkpt lat="42.962930" lon="-5.737306"><ele>1474.889</ele><time>2015-10-26T08:02:09Z</time></trkpt><trkpt lat="42.963063" lon="-5.737329"><ele>1476.784</ele><time>2015-10-26T08:02:25Z</time></trkpt><trkpt lat="42.963152" lon="-5.737277"><ele>1480.195</ele><time>2015-10-26T08:02:39Z</time></trkpt><trkpt lat="42.963234" lon="-5.737231"><ele>1483.497</ele><time>2015-10-26T08:02:54Z</time></trkpt><trkpt lat="42.963247" lon="-5.737213"><ele>1482.545</ele><time>2015-10-26T08:02:58Z</time></trkpt><trkpt lat="42.963303" lon="-5.737097"><ele>1485.825</ele><time>2015-10-26T08:03:16Z</time></trkpt><trkpt lat="42.963308" lon="-5.737090"><ele>1485.826</ele><time>2015-10-26T08:03:17Z</time></trkpt><trkpt lat="42.963328" lon="-5.737052"><ele>1485.808</ele><time>2015-10-26T08:03:23Z</time></trkpt><trkpt lat="42.963399" lon="-5.736918"><ele>1487.808</ele><time>2015-10-26T08:03:38Z</time></trkpt><trkpt lat="42.963488" lon="-5.736764"><ele>1488.343</ele><time>2015-10-26T08:03:55Z</time></trkpt><trkpt lat="42.963547" lon="-5.736661"><ele>1490.713</ele><time>2015-10-26T08:04:10Z</time></trkpt><trkpt lat="42.963561" lon="-5.736649"><ele>1491.636</ele><time>2015-10-26T08:04:12Z</time></trkpt><trkpt lat="42.963652" lon="-5.736566"><ele>1494.025</ele><time>2015-10-26T08:04:25Z</time></trkpt><trkpt lat="42.963657" lon="-5.736559"><ele>1494.010</ele><time>2015-10-26T08:04:26Z</time></trkpt><trkpt lat="42.963760" lon="-5.736447"><ele>1496.471</ele><time>2015-10-26T08:04:43Z</time></trkpt><trkpt lat="42.963863" lon="-5.736307"><ele>1497.933</ele><time>2015-10-26T08:05:00Z</time></trkpt><trkpt lat="42.963871" lon="-5.736285"><ele>1497.981</ele><time>2015-10-26T08:05:02Z</time></trkpt><trkpt lat="42.963959" lon="-5.736170"><ele>1499.861</ele><time>2015-10-26T08:05:16Z</time></trkpt><trkpt lat="42.964050" lon="-5.736075"><ele>1501.721</ele><time>2015-10-26T08:05:32Z</time></trkpt><trkpt lat="42.964130" lon="-5.735986"><ele>1503.613</ele><time>2015-10-26T08:05:47Z</time></trkpt><trkpt lat="42.964187" lon="-5.735929"><ele>1502.708</ele><time>2015-10-26T08:05:56Z</time></trkpt><trkpt lat="42.964243" lon="-5.735893"><ele>1506.077</ele><time>2015-10-26T08:06:04Z</time></trkpt><trkpt lat="42.964279" lon="-5.735862"><ele>1504.657</ele><time>2015-10-26T08:06:09Z</time></trkpt><trkpt lat="42.964386" lon="-5.735794"><ele>1506.550</ele><time>2015-10-26T08:06:25Z</time></trkpt><trkpt lat="42.964501" lon="-5.735740"><ele>1508.019</ele><time>2015-10-26T08:06:40Z</time></trkpt><trkpt lat="42.964641" lon="-5.735769"><ele>1509.474</ele><time>2015-10-26T08:06:57Z</time></trkpt><trkpt lat="42.964724" lon="-5.735801"><ele>1511.315</ele><time>2015-10-26T08:07:09Z</time></trkpt><trkpt lat="42.964815" lon="-5.735835"><ele>1514.227</ele><time>2015-10-26T08:07:22Z</time></trkpt><trkpt lat="42.964822" lon="-5.735839"><ele>1514.235</ele><time>2015-10-26T08:07:23Z</time></trkpt><trkpt lat="42.964934" lon="-5.735877"><ele>1516.139</ele><time>2015-10-26T08:07:39Z</time></trkpt><trkpt lat="42.965017" lon="-5.735897"><ele>1518.101</ele><time>2015-10-26T08:07:53Z</time></trkpt><trkpt lat="42.965090" lon="-5.735923"><ele>1521.421</ele><time>2015-10-26T08:08:06Z</time></trkpt><trkpt lat="42.965179" lon="-5.735999"><ele>1524.308</ele><time>2015-10-26T08:08:25Z</time></trkpt><trkpt lat="42.965256" lon="-5.736057"><ele>1525.844</ele><time>2015-10-26T08:08:42Z</time></trkpt><trkpt lat="42.965284" lon="-5.736078"><ele>1526.224</ele><time>2015-10-26T08:08:47Z</time></trkpt><trkpt lat="42.965339" lon="-5.736136"><ele>1528.267</ele><time>2015-10-26T08:09:00Z</time></trkpt><trkpt lat="42.965356" lon="-5.736146"><ele>1530.656</ele><time>2015-10-26T08:09:04Z</time></trkpt><trkpt lat="42.965417" lon="-5.736185"><ele>1533.921</ele><time>2015-10-26T08:09:18Z</time></trkpt><trkpt lat="42.965424" lon="-5.736190"><ele>1533.992</ele><time>2015-10-26T08:09:19Z</time></trkpt><trkpt lat="42.965497" lon="-5.736260"><ele>1535.464</ele><time>2015-10-26T08:09:32Z</time></trkpt><trkpt lat="42.965536" lon="-5.736273"><ele>1533.972</ele><time>2015-10-26T08:09:37Z</time></trkpt><trkpt lat="42.965597" lon="-5.736291"><ele>1535.436</ele><time>2015-10-26T08:09:45Z</time></trkpt><trkpt lat="42.965642" lon="-5.736285"><ele>1533.417</ele><time>2015-10-26T08:09:51Z</time></trkpt><trkpt lat="42.965741" lon="-5.736285"><ele>1532.018</ele><time>2015-10-26T08:10:04Z</time></trkpt><trkpt lat="42.965762" lon="-5.736279"><ele>1533.908</ele><time>2015-10-26T08:10:06Z</time></trkpt><trkpt lat="42.965832" lon="-5.736254"><ele>1532.574</ele><time>2015-10-26T08:10:13Z</time></trkpt><trkpt lat="42.965894" lon="-5.736235"><ele>1533.974</ele><time>2015-10-26T08:10:19Z</time></trkpt><trkpt lat="42.965941" lon="-5.736224"><ele>1532.597</ele><time>2015-10-26T08:10:24Z</time></trkpt><trkpt lat="42.965956" lon="-5.736212"><ele>1534.416</ele><time>2015-10-26T08:10:26Z</time></trkpt><trkpt lat="42.966047" lon="-5.736116"><ele>1537.331</ele><time>2015-10-26T08:10:40Z</time></trkpt><trkpt lat="42.966057" lon="-5.736097"><ele>1538.272</ele><time>2015-10-26T08:10:42Z</time></trkpt><trkpt lat="42.966078" lon="-5.736072"><ele>1539.754</ele><time>2015-10-26T08:10:45Z</time></trkpt><trkpt lat="42.966107" lon="-5.736043"><ele>1538.752</ele><time>2015-10-26T08:10:49Z</time></trkpt><trkpt lat="42.966267" lon="-5.735949"><ele>1536.319</ele><time>2015-10-26T08:11:07Z</time></trkpt><trkpt lat="42.966375" lon="-5.735854"><ele>1539.209</ele><time>2015-10-26T08:11:22Z</time></trkpt><trkpt lat="42.966386" lon="-5.735846"><ele>1540.219</ele><time>2015-10-26T08:11:24Z</time></trkpt><trkpt lat="42.966492" lon="-5.735777"><ele>1542.108</ele><time>2015-10-26T08:11:39Z</time></trkpt><trkpt lat="42.966524" lon="-5.735764"><ele>1544.012</ele><time>2015-10-26T08:11:44Z</time></trkpt><trkpt lat="42.966549" lon="-5.735736"><ele>1544.012</ele><time>2015-10-26T08:11:48Z</time></trkpt><trkpt lat="42.966566" lon="-5.735721"><ele>1542.625</ele><time>2015-10-26T08:11:50Z</time></trkpt><trkpt lat="42.966635" lon="-5.735639"><ele>1544.554</ele><time>2015-10-26T08:12:02Z</time></trkpt><trkpt lat="42.966732" lon="-5.735509"><ele>1546.459</ele><time>2015-10-26T08:12:18Z</time></trkpt><trkpt lat="42.966822" lon="-5.735407"><ele>1547.940</ele><time>2015-10-26T08:12:33Z</time></trkpt><trkpt lat="42.966880" lon="-5.735328"><ele>1550.372</ele><time>2015-10-26T08:12:47Z</time></trkpt><trkpt lat="42.966987" lon="-5.735233"><ele>1551.210</ele><time>2015-10-26T08:13:04Z</time></trkpt><trkpt lat="42.967088" lon="-5.735114"><ele>1553.267</ele><time>2015-10-26T08:13:20Z</time></trkpt><trkpt lat="42.967100" lon="-5.735089"><ele>1554.681</ele><time>2015-10-26T08:13:23Z</time></trkpt><trkpt lat="42.967192" lon="-5.734991"><ele>1556.019</ele><time>2015-10-26T08:13:37Z</time></trkpt><trkpt lat="42.967283" lon="-5.734839"><ele>1558.408</ele><time>2015-10-26T08:13:57Z</time></trkpt><trkpt lat="42.967356" lon="-5.734703"><ele>1561.347</ele><time>2015-10-26T08:14:13Z</time></trkpt><trkpt lat="42.967386" lon="-5.734643"><ele>1562.317</ele><time>2015-10-26T08:14:19Z</time></trkpt><trkpt lat="42.967460" lon="-5.734538"><ele>1563.720</ele><time>2015-10-26T08:14:30Z</time></trkpt><trkpt lat="42.967583" lon="-5.734407"><ele>1565.669</ele><time>2015-10-26T08:14:44Z</time></trkpt><trkpt lat="42.967593" lon="-5.734383"><ele>1564.764</ele><time>2015-10-26T08:14:46Z</time></trkpt><trkpt lat="42.967698" lon="-5.734288"><ele>1568.175</ele><time>2015-10-26T08:14:57Z</time></trkpt><trkpt lat="42.967790" lon="-5.734181"><ele>1568.527</ele><time>2015-10-26T08:15:08Z</time></trkpt><trkpt lat="42.967839" lon="-5.734108"><ele>1568.185</ele><time>2015-10-26T08:15:15Z</time></trkpt><trkpt lat="42.967876" lon="-5.734063"><ele>1567.117</ele><time>2015-10-26T08:15:20Z</time></trkpt><trkpt lat="42.967910" lon="-5.734029"><ele>1570.987</ele><time>2015-10-26T08:15:25Z</time></trkpt><trkpt lat="42.967918" lon="-5.734023"><ele>1570.915</ele><time>2015-10-26T08:15:26Z</time></trkpt><trkpt lat="42.967965" lon="-5.733969"><ele>1572.408</ele><time>2015-10-26T08:15:32Z</time></trkpt><trkpt lat="42.967988" lon="-5.733944"><ele>1570.472</ele><time>2015-10-26T08:15:35Z</time></trkpt><trkpt lat="42.968050" lon="-5.733894"><ele>1572.442</ele><time>2015-10-26T08:15:42Z</time></trkpt><trkpt lat="42.968106" lon="-5.733839"><ele>1575.355</ele><time>2015-10-26T08:15:49Z</time></trkpt><trkpt lat="42.968116" lon="-5.733832"><ele>1575.314</ele><time>2015-10-26T08:15:50Z</time></trkpt><trkpt lat="42.968133" lon="-5.733815"><ele>1575.389</ele><time>2015-10-26T08:15:52Z</time></trkpt><trkpt lat="42.968164" lon="-5.733758"><ele>1575.730</ele><time>2015-10-26T08:15:58Z</time></trkpt><trkpt lat="42.968219" lon="-5.733668"><ele>1577.212</ele><time>2015-10-26T08:16:09Z</time></trkpt><trkpt lat="42.968273" lon="-5.733612"><ele>1579.640</ele><time>2015-10-26T08:16:17Z</time></trkpt><trkpt lat="42.968330" lon="-5.733565"><ele>1582.959</ele><time>2015-10-26T08:16:24Z</time></trkpt><trkpt lat="42.968385" lon="-5.733506"><ele>1579.103</ele><time>2015-10-26T08:16:32Z</time></trkpt><trkpt lat="42.968393" lon="-5.733494"><ele>1578.123</ele><time>2015-10-26T08:16:34Z</time></trkpt><trkpt lat="42.968405" lon="-5.733479"><ele>1578.108</ele><time>2015-10-26T08:16:36Z</time></trkpt><trkpt lat="42.968442" lon="-5.733475"><ele>1580.586</ele><time>2015-10-26T08:16:40Z</time></trkpt><trkpt lat="42.968472" lon="-5.733464"><ele>1579.146</ele><time>2015-10-26T08:16:46Z</time></trkpt><trkpt lat="42.968487" lon="-5.733463"><ele>1581.569</ele><time>2015-10-26T08:16:52Z</time></trkpt><trkpt lat="42.968483" lon="-5.733445"><ele>1580.158</ele><time>2015-10-26T08:16:54Z</time></trkpt><trkpt lat="42.968495" lon="-5.733385"><ele>1576.293</ele><time>2015-10-26T08:17:00Z</time></trkpt><trkpt lat="42.968501" lon="-5.733376"><ele>1576.284</ele><time>2015-10-26T08:17:01Z</time></trkpt><trkpt lat="42.968548" lon="-5.733330"><ele>1573.316</ele><time>2015-10-26T08:17:08Z</time></trkpt><trkpt lat="42.968555" lon="-5.733323"><ele>1573.324</ele><time>2015-10-26T08:17:09Z</time></trkpt><trkpt lat="42.968576" lon="-5.733287"><ele>1574.819</ele><time>2015-10-26T08:17:13Z</time></trkpt><trkpt lat="42.968634" lon="-5.733234"><ele>1572.809</ele><time>2015-10-26T08:17:21Z</time></trkpt><trkpt lat="42.968670" lon="-5.733186"><ele>1570.919</ele><time>2015-10-26T08:17:28Z</time></trkpt><trkpt lat="42.968750" lon="-5.733089"><ele>1570.008</ele><time>2015-10-26T08:17:42Z</time></trkpt><trkpt lat="42.968768" lon="-5.733067"><ele>1568.512</ele><time>2015-10-26T08:17:46Z</time></trkpt><trkpt lat="42.968837" lon="-5.732969"><ele>1565.632</ele><time>2015-10-26T08:17:58Z</time></trkpt><trkpt lat="42.968843" lon="-5.732963"><ele>1565.635</ele><time>2015-10-26T08:17:59Z</time></trkpt><trkpt lat="42.968965" lon="-5.732886"><ele>1565.624</ele><time>2015-10-26T08:18:13Z</time></trkpt><trkpt lat="42.968975" lon="-5.732884"><ele>1565.659</ele><time>2015-10-26T08:18:14Z</time></trkpt><trkpt lat="42.969011" lon="-5.732901"><ele>1562.320</ele><time>2015-10-26T08:18:18Z</time></trkpt><trkpt lat="42.969019" lon="-5.732904"><ele>1562.312</ele><time>2015-10-26T08:18:19Z</time></trkpt><trkpt lat="42.969064" lon="-5.732924"><ele>1562.370</ele><time>2015-10-26T08:18:24Z</time></trkpt><trkpt lat="42.969106" lon="-5.732959"><ele>1559.988</ele><time>2015-10-26T08:18:29Z</time></trkpt><trkpt lat="42.969134" lon="-5.732971"><ele>1557.524</ele><time>2015-10-26T08:18:33Z</time></trkpt><trkpt lat="42.969220" lon="-5.732981"><ele>1561.826</ele><time>2015-10-26T08:18:44Z</time></trkpt><trkpt lat="42.969228" lon="-5.732986"><ele>1560.408</ele><time>2015-10-26T08:18:45Z</time></trkpt><trkpt lat="42.969283" lon="-5.733044"><ele>1557.069</ele><time>2015-10-26T08:18:52Z</time></trkpt><trkpt lat="42.969306" lon="-5.733050"><ele>1556.019</ele><time>2015-10-26T08:18:54Z</time></trkpt><trkpt lat="42.969330" lon="-5.733074"><ele>1557.582</ele><time>2015-10-26T08:18:57Z</time></trkpt><trkpt lat="42.969388" lon="-5.733154"><ele>1561.371</ele><time>2015-10-26T08:19:04Z</time></trkpt><trkpt lat="42.969393" lon="-5.733158"><ele>1556.566</ele><time>2015-10-26T08:19:06Z</time></trkpt><trkpt lat="42.969408" lon="-5.733179"><ele>1560.487</ele><time>2015-10-26T08:19:09Z</time></trkpt><trkpt lat="42.969410" lon="-5.733190"><ele>1557.079</ele><time>2015-10-26T08:19:10Z</time></trkpt><trkpt lat="42.969415" lon="-5.733199"><ele>1556.057</ele><time>2015-10-26T08:19:12Z</time></trkpt><trkpt lat="42.969466" lon="-5.733264"><ele>1556.082</ele><time>2015-10-26T08:19:25Z</time></trkpt><trkpt lat="42.969493" lon="-5.733287"><ele>1552.743</ele><time>2015-10-26T08:19:29Z</time></trkpt><trkpt lat="42.969526" lon="-5.733300"><ele>1551.217</ele><time>2015-10-26T08:19:33Z</time></trkpt><trkpt lat="42.969597" lon="-5.733354"><ele>1553.608</ele><time>2015-10-26T08:19:42Z</time></trkpt><trkpt lat="42.969624" lon="-5.733357"><ele>1553.639</ele><time>2015-10-26T08:19:45Z</time></trkpt><trkpt lat="42.969646" lon="-5.733369"><ele>1556.099</ele><time>2015-10-26T08:19:48Z</time></trkpt><trkpt lat="42.969661" lon="-5.733382"><ele>1552.772</ele><time>2015-10-26T08:19:51Z</time></trkpt><trkpt lat="42.969676" lon="-5.733375"><ele>1552.251</ele><time>2015-10-26T08:19:53Z</time></trkpt><trkpt lat="42.969720" lon="-5.733389"><ele>1548.876</ele><time>2015-10-26T08:19:59Z</time></trkpt><trkpt lat="42.969734" lon="-5.733389"><ele>1548.857</ele><time>2015-10-26T08:20:00Z</time></trkpt><trkpt lat="42.969779" lon="-5.733396"><ele>1548.889</ele><time>2015-10-26T08:20:07Z</time></trkpt><trkpt lat="42.969772" lon="-5.733402"><ele>1548.827</ele><time>2015-10-26T08:20:08Z</time></trkpt><trkpt lat="42.969793" lon="-5.733431"><ele>1550.357</ele><time>2015-10-26T08:20:11Z</time></trkpt><trkpt lat="42.969830" lon="-5.733463"><ele>1548.300</ele><time>2015-10-26T08:20:15Z</time></trkpt><trkpt lat="42.969869" lon="-5.733552"><ele>1549.320</ele><time>2015-10-26T08:20:23Z</time></trkpt><trkpt lat="42.969890" lon="-5.733588"><ele>1548.308</ele><time>2015-10-26T08:20:27Z</time></trkpt><trkpt lat="42.969891" lon="-5.733597"><ele>1550.776</ele><time>2015-10-26T08:20:28Z</time></trkpt><trkpt lat="42.969902" lon="-5.733654"><ele>1548.846</ele><time>2015-10-26T08:20:32Z</time></trkpt><trkpt lat="42.969889" lon="-5.733686"><ele>1548.319</ele><time>2015-10-26T08:20:39Z</time></trkpt><trkpt lat="42.969916" lon="-5.733676"><ele>1549.388</ele><time>2015-10-26T08:20:54Z</time></trkpt><trkpt lat="42.969930" lon="-5.733746"><ele>1547.433</ele><time>2015-10-26T08:21:01Z</time></trkpt><trkpt lat="42.969933" lon="-5.733863"><ele>1546.944</ele><time>2015-10-26T08:21:09Z</time></trkpt><trkpt lat="42.969932" lon="-5.733887"><ele>1549.346</ele><time>2015-10-26T08:21:11Z</time></trkpt><trkpt lat="42.969937" lon="-5.733919"><ele>1547.454</ele><time>2015-10-26T08:21:14Z</time></trkpt><trkpt lat="42.969942" lon="-5.733959"><ele>1546.496</ele><time>2015-10-26T08:21:18Z</time></trkpt><trkpt lat="42.969948" lon="-5.734020"><ele>1548.331</ele><time>2015-10-26T08:21:25Z</time></trkpt><trkpt lat="42.969949" lon="-5.734064"><ele>1545.524</ele><time>2015-10-26T08:21:31Z</time></trkpt><trkpt lat="42.969944" lon="-5.734082"><ele>1544.508</ele><time>2015-10-26T08:21:33Z</time></trkpt><trkpt lat="42.969952" lon="-5.734091"><ele>1540.220</ele><time>2015-10-26T08:21:35Z</time></trkpt><trkpt lat="42.969954" lon="-5.734097"><ele>1541.170</ele><time>2015-10-26T08:21:36Z</time></trkpt><trkpt lat="42.969955" lon="-5.734115"><ele>1545.523</ele><time>2015-10-26T08:21:39Z</time></trkpt><trkpt lat="42.969956" lon="-5.734113"><ele>1550.342</ele><time>2015-10-26T08:21:41Z</time></trkpt><trkpt lat="42.969953" lon="-5.734121"><ele>1547.447</ele><time>2015-10-26T08:21:42Z</time></trkpt><trkpt lat="42.969952" lon="-5.734130"><ele>1544.098</ele><time>2015-10-26T08:21:44Z</time></trkpt><trkpt lat="42.969954" lon="-5.734136"><ele>1544.010</ele><time>2015-10-26T08:21:45Z</time></trkpt><trkpt lat="42.969951" lon="-5.734234"><ele>1541.638</ele><time>2015-10-26T08:21:59Z</time></trkpt><trkpt lat="42.969971" lon="-5.734310"><ele>1539.753</ele><time>2015-10-26T08:22:09Z</time></trkpt><trkpt lat="42.969962" lon="-5.734402"><ele>1538.704</ele><time>2015-10-26T08:22:21Z</time></trkpt><trkpt lat="42.969974" lon="-5.734549"><ele>1536.314</ele><time>2015-10-26T08:22:37Z</time></trkpt><trkpt lat="42.969990" lon="-5.734690"><ele>1534.908</ele><time>2015-10-26T08:22:53Z</time></trkpt><trkpt lat="42.969987" lon="-5.734803"><ele>1533.026</ele><time>2015-10-26T08:23:07Z</time></trkpt><trkpt lat="42.970015" lon="-5.734962"><ele>1532.516</ele><time>2015-10-26T08:23:24Z</time></trkpt><trkpt lat="42.970022" lon="-5.735049"><ele>1532.569</ele><time>2015-10-26T08:23:35Z</time></trkpt><trkpt lat="42.970038" lon="-5.735142"><ele>1531.528</ele><time>2015-10-26T08:23:48Z</time></trkpt><trkpt lat="42.970019" lon="-5.735290"><ele>1529.633</ele><time>2015-10-26T08:24:01Z</time></trkpt><trkpt lat="42.970048" lon="-5.735415"><ele>1529.624</ele><time>2015-10-26T08:24:11Z</time></trkpt><trkpt lat="42.970054" lon="-5.735543"><ele>1526.276</ele><time>2015-10-26T08:24:25Z</time></trkpt><trkpt lat="42.970067" lon="-5.735662"><ele>1525.814</ele><time>2015-10-26T08:24:37Z</time></trkpt><trkpt lat="42.970067" lon="-5.735701"><ele>1524.331</ele><time>2015-10-26T08:24:41Z</time></trkpt><trkpt lat="42.970071" lon="-5.735729"><ele>1524.361</ele><time>2015-10-26T08:24:43Z</time></trkpt><trkpt lat="42.970069" lon="-5.735783"><ele>1525.307</ele><time>2015-10-26T08:24:47Z</time></trkpt><trkpt lat="42.970074" lon="-5.735813"><ele>1523.308</ele><time>2015-10-26T08:24:49Z</time></trkpt><trkpt lat="42.970098" lon="-5.735875"><ele>1520.014</ele><time>2015-10-26T08:24:54Z</time></trkpt><trkpt lat="42.970111" lon="-5.736073"><ele>1520.094</ele><time>2015-10-26T08:25:12Z</time></trkpt><trkpt lat="42.970118" lon="-5.736117"><ele>1521.437</ele><time>2015-10-26T08:25:19Z</time></trkpt><trkpt lat="42.970115" lon="-5.736130"><ele>1519.536</ele><time>2015-10-26T08:25:21Z</time></trkpt><trkpt lat="42.970116" lon="-5.736143"><ele>1518.531</ele><time>2015-10-26T08:25:23Z</time></trkpt><trkpt lat="42.970125" lon="-5.736175"><ele>1520.062</ele><time>2015-10-26T08:25:26Z</time></trkpt><trkpt lat="42.970131" lon="-5.736241"><ele>1520.944</ele><time>2015-10-26T08:25:31Z</time></trkpt><trkpt lat="42.970140" lon="-5.736302"><ele>1520.062</ele><time>2015-10-26T08:25:35Z</time></trkpt><trkpt lat="42.970143" lon="-5.736356"><ele>1521.964</ele><time>2015-10-26T08:25:39Z</time></trkpt><trkpt lat="42.970166" lon="-5.736484"><ele>1519.506</ele><time>2015-10-26T08:25:48Z</time></trkpt><trkpt lat="42.970167" lon="-5.736496"><ele>1519.516</ele><time>2015-10-26T08:25:49Z</time></trkpt><trkpt lat="42.970215" lon="-5.736580"><ele>1519.508</ele><time>2015-10-26T08:25:59Z</time></trkpt><trkpt lat="42.970257" lon="-5.736652"><ele>1518.127</ele><time>2015-10-26T08:26:05Z</time></trkpt><trkpt lat="42.970283" lon="-5.736708"><ele>1520.097</ele><time>2015-10-26T08:26:12Z</time></trkpt><trkpt lat="42.970300" lon="-5.736722"><ele>1519.050</ele><time>2015-10-26T08:26:14Z</time></trkpt><trkpt lat="42.970333" lon="-5.736748"><ele>1515.739</ele><time>2015-10-26T08:26:18Z</time></trkpt><trkpt lat="42.970405" lon="-5.736752"><ele>1516.194</ele><time>2015-10-26T08:26:27Z</time></trkpt><trkpt lat="42.970442" lon="-5.736736"><ele>1513.715</ele><time>2015-10-26T08:26:32Z</time></trkpt><trkpt lat="42.970461" lon="-5.736708"><ele>1509.487</ele><time>2015-10-26T08:26:35Z</time></trkpt><trkpt lat="42.970467" lon="-5.736702"><ele>1508.465</ele><time>2015-10-26T08:26:37Z</time></trkpt><trkpt lat="42.970506" lon="-5.736663"><ele>1506.553</ele><time>2015-10-26T08:26:44Z</time></trkpt><trkpt lat="42.970562" lon="-5.736579"><ele>1505.104</ele><time>2015-10-26T08:26:54Z</time></trkpt><trkpt lat="42.970585" lon="-5.736549"><ele>1506.014</ele><time>2015-10-26T08:26:59Z</time></trkpt><trkpt lat="42.970617" lon="-5.736477"><ele>1504.608</ele><time>2015-10-26T08:27:06Z</time></trkpt><trkpt lat="42.970620" lon="-5.736466"><ele>1504.146</ele><time>2015-10-26T08:27:07Z</time></trkpt><trkpt lat="42.970633" lon="-5.736377"><ele>1500.896</ele><time>2015-10-26T08:27:14Z</time></trkpt><trkpt lat="42.970637" lon="-5.736345"><ele>1499.819</ele><time>2015-10-26T08:27:16Z</time></trkpt><trkpt lat="42.970683" lon="-5.736203"><ele>1496.958</ele><time>2015-10-26T08:27:27Z</time></trkpt><trkpt lat="42.970782" lon="-5.736091"><ele>1495.543</ele><time>2015-10-26T08:27:43Z</time></trkpt><trkpt lat="42.970788" lon="-5.736083"><ele>1496.934</ele><time>2015-10-26T08:27:48Z</time></trkpt><trkpt lat="42.970785" lon="-5.736077"><ele>1498.366</ele><time>2015-10-26T08:28:06Z</time></trkpt><trkpt lat="42.970780" lon="-5.736078"><ele>1496.464</ele><time>2015-10-26T08:28:09Z</time></trkpt><trkpt lat="42.970768" lon="-5.736072"><ele>1496.464</ele><time>2015-10-26T08:28:27Z</time></trkpt><trkpt lat="42.970778" lon="-5.736072"><ele>1495.006</ele><time>2015-10-26T08:28:34Z</time></trkpt><trkpt lat="42.970824" lon="-5.736085"><ele>1493.616</ele><time>2015-10-26T08:28:52Z</time></trkpt><trkpt lat="42.970876" lon="-5.735991"><ele>1491.608</ele><time>2015-10-26T08:29:05Z</time></trkpt><trkpt lat="42.970932" lon="-5.735853"><ele>1488.727</ele><time>2015-10-26T08:29:20Z</time></trkpt><trkpt lat="42.970973" lon="-5.735738"><ele>1485.817</ele><time>2015-10-26T08:29:33Z</time></trkpt><trkpt lat="42.971007" lon="-5.735634"><ele>1482.570</ele><time>2015-10-26T08:29:45Z</time></trkpt><trkpt lat="42.971058" lon="-5.735525"><ele>1480.699</ele><time>2015-10-26T08:29:58Z</time></trkpt><trkpt lat="42.971070" lon="-5.735517"><ele>1480.164</ele><time>2015-10-26T08:30:00Z</time></trkpt><trkpt lat="42.971088" lon="-5.735507"><ele>1479.135</ele><time>2015-10-26T08:30:02Z</time></trkpt><trkpt lat="42.971174" lon="-5.735444"><ele>1480.687</ele><time>2015-10-26T08:30:13Z</time></trkpt><trkpt lat="42.971248" lon="-5.735438"><ele>1480.195</ele><time>2015-10-26T08:30:22Z</time></trkpt><trkpt lat="42.971372" lon="-5.735459"><ele>1481.153</ele><time>2015-10-26T08:30:36Z</time></trkpt><trkpt lat="42.971508" lon="-5.735505"><ele>1483.004</ele><time>2015-10-26T08:30:51Z</time></trkpt><trkpt lat="42.971617" lon="-5.735499"><ele>1482.514</ele><time>2015-10-26T08:31:02Z</time></trkpt><trkpt lat="42.971712" lon="-5.735503"><ele>1479.608</ele><time>2015-10-26T08:31:11Z</time></trkpt><trkpt lat="42.971740" lon="-5.735502"><ele>1483.456</ele><time>2015-10-26T08:31:14Z</time></trkpt><trkpt lat="42.971792" lon="-5.735493"><ele>1486.336</ele><time>2015-10-26T08:31:20Z</time></trkpt><trkpt lat="42.971915" lon="-5.735432"><ele>1486.399</ele><time>2015-10-26T08:31:34Z</time></trkpt><trkpt lat="42.971953" lon="-5.735413"><ele>1487.868</ele><time>2015-10-26T08:31:39Z</time></trkpt><trkpt lat="42.972104" lon="-5.735381"><ele>1489.773</ele><time>2015-10-26T08:31:56Z</time></trkpt><trkpt lat="42.972239" lon="-5.735357"><ele>1490.714</ele><time>2015-10-26T08:32:11Z</time></trkpt><trkpt lat="42.972348" lon="-5.735337"><ele>1491.686</ele><time>2015-10-26T08:32:23Z</time></trkpt><trkpt lat="42.972474" lon="-5.735322"><ele>1491.614</ele><time>2015-10-26T08:32:37Z</time></trkpt><trkpt lat="42.972541" lon="-5.735296"><ele>1494.515</ele><time>2015-10-26T08:32:45Z</time></trkpt><trkpt lat="42.972582" lon="-5.735282"><ele>1495.565</ele><time>2015-10-26T08:32:50Z</time></trkpt><trkpt lat="42.972621" lon="-5.735269"><ele>1498.811</ele><time>2015-10-26T08:32:55Z</time></trkpt><trkpt lat="42.972631" lon="-5.735266"><ele>1498.808</ele><time>2015-10-26T08:32:56Z</time></trkpt><trkpt lat="42.972721" lon="-5.735241"><ele>1498.372</ele><time>2015-10-26T08:33:06Z</time></trkpt><trkpt lat="42.972856" lon="-5.735224"><ele>1501.292</ele><time>2015-10-26T08:33:21Z</time></trkpt><trkpt lat="42.972931" lon="-5.735204"><ele>1501.745</ele><time>2015-10-26T08:33:29Z</time></trkpt><trkpt lat="42.973091" lon="-5.735201"><ele>1503.264</ele><time>2015-10-26T08:33:46Z</time></trkpt><trkpt lat="42.973172" lon="-5.735174"><ele>1504.159</ele><time>2015-10-26T08:33:56Z</time></trkpt><trkpt lat="42.973319" lon="-5.735178"><ele>1506.030</ele><time>2015-10-26T08:34:13Z</time></trkpt><trkpt lat="42.973380" lon="-5.735171"><ele>1508.032</ele><time>2015-10-26T08:34:20Z</time></trkpt><trkpt lat="42.973531" lon="-5.735159"><ele>1508.060</ele><time>2015-10-26T08:34:38Z</time></trkpt><trkpt lat="42.973558" lon="-5.735155"><ele>1509.915</ele><time>2015-10-26T08:34:41Z</time></trkpt><trkpt lat="42.973702" lon="-5.735128"><ele>1511.365</ele><time>2015-10-26T08:34:57Z</time></trkpt><trkpt lat="42.973778" lon="-5.735121"><ele>1514.711</ele><time>2015-10-26T08:35:06Z</time></trkpt><trkpt lat="42.973814" lon="-5.735118"><ele>1512.808</ele><time>2015-10-26T08:35:11Z</time></trkpt><trkpt lat="42.973852" lon="-5.735116"><ele>1514.242</ele><time>2015-10-26T08:35:16Z</time></trkpt><trkpt lat="42.973914" lon="-5.735115"><ele>1517.182</ele><time>2015-10-26T08:35:24Z</time></trkpt><trkpt lat="42.974022" lon="-5.735123"><ele>1517.115</ele><time>2015-10-26T08:35:35Z</time></trkpt><trkpt lat="42.974103" lon="-5.735120"><ele>1516.144</ele><time>2015-10-26T08:35:45Z</time></trkpt><trkpt lat="42.974182" lon="-5.735116"><ele>1518.139</ele><time>2015-10-26T08:35:54Z</time></trkpt><trkpt lat="42.974353" lon="-5.735133"><ele>1520.010</ele><time>2015-10-26T08:36:12Z</time></trkpt><trkpt lat="42.974452" lon="-5.735135"><ele>1523.352</ele><time>2015-10-26T08:36:24Z</time></trkpt><trkpt lat="42.974600" lon="-5.735158"><ele>1521.930</ele><time>2015-10-26T08:36:41Z</time></trkpt><trkpt lat="42.974609" lon="-5.735160"><ele>1521.991</ele><time>2015-10-26T08:36:42Z</time></trkpt><trkpt lat="42.974747" lon="-5.735163"><ele>1523.381</ele><time>2015-10-26T08:36:58Z</time></trkpt><trkpt lat="42.974906" lon="-5.735174"><ele>1526.219</ele><time>2015-10-26T08:37:17Z</time></trkpt><trkpt lat="42.974968" lon="-5.735183"><ele>1529.108</ele><time>2015-10-26T08:37:25Z</time></trkpt><trkpt lat="42.975026" lon="-5.735180"><ele>1527.790</ele><time>2015-10-26T08:37:32Z</time></trkpt><trkpt lat="42.975070" lon="-5.735177"><ele>1529.190</ele><time>2015-10-26T08:37:37Z</time></trkpt><trkpt lat="42.975154" lon="-5.735164"><ele>1530.673</ele><time>2015-10-26T08:37:47Z</time></trkpt><trkpt lat="42.975182" lon="-5.735161"><ele>1532.082</ele><time>2015-10-26T08:37:50Z</time></trkpt><trkpt lat="42.975317" lon="-5.735129"><ele>1534.927</ele><time>2015-10-26T08:38:07Z</time></trkpt><trkpt lat="42.975363" lon="-5.735129"><ele>1533.048</ele><time>2015-10-26T08:38:12Z</time></trkpt><trkpt lat="42.975443" lon="-5.735122"><ele>1533.990</ele><time>2015-10-26T08:38:21Z</time></trkpt><trkpt lat="42.975456" lon="-5.735109"><ele>1536.318</ele><time>2015-10-26T08:38:23Z</time></trkpt><trkpt lat="42.975487" lon="-5.735097"><ele>1536.363</ele><time>2015-10-26T08:38:27Z</time></trkpt><trkpt lat="42.975516" lon="-5.735096"><ele>1537.844</ele><time>2015-10-26T08:38:30Z</time></trkpt><trkpt lat="42.975634" lon="-5.735091"><ele>1541.618</ele><time>2015-10-26T08:38:46Z</time></trkpt><trkpt lat="42.975728" lon="-5.735093"><ele>1543.508</ele><time>2015-10-26T08:39:00Z</time></trkpt><trkpt lat="42.975853" lon="-5.735106"><ele>1546.967</ele><time>2015-10-26T08:39:17Z</time></trkpt><trkpt lat="42.975913" lon="-5.735118"><ele>1550.317</ele><time>2015-10-26T08:39:25Z</time></trkpt><trkpt lat="42.976023" lon="-5.735173"><ele>1551.770</ele><time>2015-10-26T08:39:40Z</time></trkpt><trkpt lat="42.976192" lon="-5.735192"><ele>1553.239</ele><time>2015-10-26T08:40:00Z</time></trkpt><trkpt lat="42.976277" lon="-5.735214"><ele>1550.374</ele><time>2015-10-26T08:40:10Z</time></trkpt><trkpt lat="42.976302" lon="-5.735224"><ele>1553.245</ele><time>2015-10-26T08:40:13Z</time></trkpt><trkpt lat="42.976318" lon="-5.735221"><ele>1554.157</ele><time>2015-10-26T08:40:15Z</time></trkpt><trkpt lat="42.976336" lon="-5.735221"><ele>1552.765</ele><time>2015-10-26T08:40:17Z</time></trkpt><trkpt lat="42.976370" lon="-5.735218"><ele>1555.691</ele><time>2015-10-26T08:40:21Z</time></trkpt><trkpt lat="42.976399" lon="-5.735222"><ele>1554.181</ele><time>2015-10-26T08:40:24Z</time></trkpt><trkpt lat="42.976419" lon="-5.735219"><ele>1555.619</ele><time>2015-10-26T08:40:26Z</time></trkpt><trkpt lat="42.976556" lon="-5.735221"><ele>1556.008</ele><time>2015-10-26T08:40:41Z</time></trkpt><trkpt lat="42.976565" lon="-5.735223"><ele>1555.650</ele><time>2015-10-26T08:40:42Z</time></trkpt><trkpt lat="42.976710" lon="-5.735204"><ele>1557.540</ele><time>2015-10-26T08:40:58Z</time></trkpt><trkpt lat="42.976718" lon="-5.735204"><ele>1557.513</ele><time>2015-10-26T08:40:59Z</time></trkpt><trkpt lat="42.976843" lon="-5.735190"><ele>1558.412</ele><time>2015-10-26T08:41:12Z</time></trkpt><trkpt lat="42.976930" lon="-5.735201"><ele>1561.387</ele><time>2015-10-26T08:41:21Z</time></trkpt><trkpt lat="42.976952" lon="-5.735208"><ele>1559.948</ele><time>2015-10-26T08:41:23Z</time></trkpt><trkpt lat="42.977015" lon="-5.735217"><ele>1561.310</ele><time>2015-10-26T08:41:29Z</time></trkpt><trkpt lat="42.977074" lon="-5.735216"><ele>1563.748</ele><time>2015-10-26T08:41:35Z</time></trkpt><trkpt lat="42.977185" lon="-5.735209"><ele>1564.258</ele><time>2015-10-26T08:41:47Z</time></trkpt><trkpt lat="42.977310" lon="-5.735211"><ele>1567.152</ele><time>2015-10-26T08:42:00Z</time></trkpt><trkpt lat="42.977329" lon="-5.735210"><ele>1568.117</ele><time>2015-10-26T08:42:02Z</time></trkpt><trkpt lat="42.977372" lon="-5.735207"><ele>1567.608</ele><time>2015-10-26T08:42:07Z</time></trkpt><trkpt lat="42.977494" lon="-5.735269"><ele>1571.416</ele><time>2015-10-26T08:42:22Z</time></trkpt><trkpt lat="42.977499" lon="-5.735274"><ele>1570.996</ele><time>2015-10-26T08:42:23Z</time></trkpt><trkpt lat="42.977517" lon="-5.735299"><ele>1571.449</ele><time>2015-10-26T08:42:26Z</time></trkpt><trkpt lat="42.977554" lon="-5.735357"><ele>1572.438</ele><time>2015-10-26T08:42:33Z</time></trkpt><trkpt lat="42.977557" lon="-5.735368"><ele>1571.423</ele><time>2015-10-26T08:42:36Z</time></trkpt><trkpt lat="42.977581" lon="-5.735466"><ele>1568.554</ele><time>2015-10-26T08:42:47Z</time></trkpt><trkpt lat="42.977631" lon="-5.735563"><ele>1566.696</ele><time>2015-10-26T08:43:01Z</time></trkpt><trkpt lat="42.977730" lon="-5.735621"><ele>1565.254</ele><time>2015-10-26T08:43:18Z</time></trkpt><trkpt lat="42.977751" lon="-5.735635"><ele>1562.817</ele><time>2015-10-26T08:43:21Z</time></trkpt><trkpt lat="42.977796" lon="-5.735671"><ele>1563.287</ele><time>2015-10-26T08:43:28Z</time></trkpt><trkpt lat="42.977829" lon="-5.735701"><ele>1562.815</ele><time>2015-10-26T08:43:32Z</time></trkpt><trkpt lat="42.977902" lon="-5.735754"><ele>1560.408</ele><time>2015-10-26T08:43:40Z</time></trkpt><trkpt lat="42.977930" lon="-5.735772"><ele>1558.462</ele><time>2015-10-26T08:43:43Z</time></trkpt><trkpt lat="42.977986" lon="-5.735801"><ele>1555.662</ele><time>2015-10-26T08:43:50Z</time></trkpt><trkpt lat="42.978061" lon="-5.735862"><ele>1552.755</ele><time>2015-10-26T08:43:58Z</time></trkpt><trkpt lat="42.978116" lon="-5.735888"><ele>1550.314</ele><time>2015-10-26T08:44:03Z</time></trkpt><trkpt lat="42.978173" lon="-5.735923"><ele>1549.849</ele><time>2015-10-26T08:44:09Z</time></trkpt><trkpt lat="42.978262" lon="-5.735944"><ele>1548.370</ele><time>2015-10-26T08:44:17Z</time></trkpt><trkpt lat="42.978322" lon="-5.735968"><ele>1546.412</ele><time>2015-10-26T08:44:23Z</time></trkpt><trkpt lat="42.978376" lon="-5.735981"><ele>1545.990</ele><time>2015-10-26T08:44:27Z</time></trkpt><trkpt lat="42.978492" lon="-5.736046"><ele>1545.031</ele><time>2015-10-26T08:44:37Z</time></trkpt><trkpt lat="42.978524" lon="-5.736056"><ele>1545.061</ele><time>2015-10-26T08:44:40Z</time></trkpt><trkpt lat="42.978613" lon="-5.736087"><ele>1540.207</ele><time>2015-10-26T08:44:48Z</time></trkpt><trkpt lat="42.978659" lon="-5.736080"><ele>1538.708</ele><time>2015-10-26T08:44:52Z</time></trkpt><trkpt lat="42.978696" lon="-5.736087"><ele>1538.234</ele><time>2015-10-26T08:44:55Z</time></trkpt><trkpt lat="42.978855" lon="-5.736194"><ele>1536.334</ele><time>2015-10-26T08:45:10Z</time></trkpt><trkpt lat="42.978942" lon="-5.736260"><ele>1533.967</ele><time>2015-10-26T08:45:18Z</time></trkpt><trkpt lat="42.978986" lon="-5.736279"><ele>1533.436</ele><time>2015-10-26T08:45:22Z</time></trkpt><trkpt lat="42.979147" lon="-5.736356"><ele>1530.661</ele><time>2015-10-26T08:45:37Z</time></trkpt><trkpt lat="42.979288" lon="-5.736422"><ele>1528.682</ele><time>2015-10-26T08:45:50Z</time></trkpt><trkpt lat="42.979372" lon="-5.736464"><ele>1527.264</ele><time>2015-10-26T08:45:58Z</time></trkpt><trkpt lat="42.979496" lon="-5.736529"><ele>1524.822</ele><time>2015-10-26T08:46:09Z</time></trkpt><trkpt lat="42.979533" lon="-5.736536"><ele>1524.885</ele><time>2015-10-26T08:46:12Z</time></trkpt><trkpt lat="42.979574" lon="-5.736556"><ele>1523.389</ele><time>2015-10-26T08:46:16Z</time></trkpt><trkpt lat="42.979732" lon="-5.736602"><ele>1520.917</ele><time>2015-10-26T08:46:29Z</time></trkpt><trkpt lat="42.979900" lon="-5.736633"><ele>1518.508</ele><time>2015-10-26T08:46:44Z</time></trkpt><trkpt lat="42.980089" lon="-5.736659"><ele>1516.619</ele><time>2015-10-26T08:47:00Z</time></trkpt><trkpt lat="42.980260" lon="-5.736723"><ele>1514.719</ele><time>2015-10-26T08:47:15Z</time></trkpt><trkpt lat="42.980358" lon="-5.736753"><ele>1513.212</ele><time>2015-10-26T08:47:26Z</time></trkpt><trkpt lat="42.980531" lon="-5.736816"><ele>1511.351</ele><time>2015-10-26T08:47:42Z</time></trkpt><trkpt lat="42.980669" lon="-5.736875"><ele>1509.446</ele><time>2015-10-26T08:47:55Z</time></trkpt><trkpt lat="42.980766" lon="-5.736920"><ele>1506.547</ele><time>2015-10-26T08:48:04Z</time></trkpt><trkpt lat="42.980887" lon="-5.736960"><ele>1503.239</ele><time>2015-10-26T08:48:15Z</time></trkpt><trkpt lat="42.981061" lon="-5.737021"><ele>1500.897</ele><time>2015-10-26T08:48:30Z</time></trkpt><trkpt lat="42.981196" lon="-5.737057"><ele>1497.978</ele><time>2015-10-26T08:48:42Z</time></trkpt><trkpt lat="42.981261" lon="-5.737083"><ele>1496.433</ele><time>2015-10-26T08:48:48Z</time></trkpt><trkpt lat="42.981357" lon="-5.737136"><ele>1495.926</ele><time>2015-10-26T08:48:56Z</time></trkpt><trkpt lat="42.981429" lon="-5.737144"><ele>1495.508</ele><time>2015-10-26T08:49:02Z</time></trkpt><trkpt lat="42.981607" lon="-5.737171"><ele>1491.668</ele><time>2015-10-26T08:49:17Z</time></trkpt><trkpt lat="42.981640" lon="-5.737177"><ele>1490.778</ele><time>2015-10-26T08:49:20Z</time></trkpt><trkpt lat="42.981675" lon="-5.737178"><ele>1489.261</ele><time>2015-10-26T08:49:23Z</time></trkpt><trkpt lat="42.981697" lon="-5.737183"><ele>1491.130</ele><time>2015-10-26T08:49:25Z</time></trkpt><trkpt lat="42.981763" lon="-5.737192"><ele>1487.855</ele><time>2015-10-26T08:49:31Z</time></trkpt><trkpt lat="42.981774" lon="-5.737192"><ele>1487.816</ele><time>2015-10-26T08:49:32Z</time></trkpt><trkpt lat="42.981848" lon="-5.737207"><ele>1486.338</ele><time>2015-10-26T08:49:39Z</time></trkpt><trkpt lat="42.982005" lon="-5.737234"><ele>1484.926</ele><time>2015-10-26T08:49:52Z</time></trkpt><trkpt lat="42.982017" lon="-5.737236"><ele>1484.924</ele><time>2015-10-26T08:49:53Z</time></trkpt><trkpt lat="42.982050" lon="-5.737228"><ele>1483.004</ele><time>2015-10-26T08:49:56Z</time></trkpt><trkpt lat="42.982150" lon="-5.737221"><ele>1479.614</ele><time>2015-10-26T08:50:05Z</time></trkpt><trkpt lat="42.982302" lon="-5.737153"><ele>1477.708</ele><time>2015-10-26T08:50:20Z</time></trkpt><trkpt lat="42.982372" lon="-5.737131"><ele>1475.823</ele><time>2015-10-26T08:50:28Z</time></trkpt><trkpt lat="42.982485" lon="-5.737132"><ele>1472.433</ele><time>2015-10-26T08:50:41Z</time></trkpt><trkpt lat="42.982594" lon="-5.737122"><ele>1469.536</ele><time>2015-10-26T08:50:53Z</time></trkpt><trkpt lat="42.982704" lon="-5.737101"><ele>1466.275</ele><time>2015-10-26T08:51:05Z</time></trkpt><trkpt lat="42.982729" lon="-5.737101"><ele>1465.710</ele><time>2015-10-26T08:51:08Z</time></trkpt><trkpt lat="42.982758" lon="-5.737145"><ele>1465.261</ele><time>2015-10-26T08:51:12Z</time></trkpt><trkpt lat="42.982691" lon="-5.737317"><ele>1461.333</ele><time>2015-10-26T08:51:25Z</time></trkpt><trkpt lat="42.982631" lon="-5.737428"><ele>1458.071</ele><time>2015-10-26T08:51:36Z</time></trkpt><trkpt lat="42.982618" lon="-5.737444"><ele>1457.561</ele><time>2015-10-26T08:51:38Z</time></trkpt><trkpt lat="42.982613" lon="-5.737451"><ele>1457.521</ele><time>2015-10-26T08:51:39Z</time></trkpt><trkpt lat="42.982512" lon="-5.737595"><ele>1455.113</ele><time>2015-10-26T08:51:55Z</time></trkpt><trkpt lat="42.982452" lon="-5.737677"><ele>1451.708</ele><time>2015-10-26T08:52:06Z</time></trkpt><trkpt lat="42.982377" lon="-5.737829"><ele>1449.867</ele><time>2015-10-26T08:52:22Z</time></trkpt><trkpt lat="42.982242" lon="-5.738064"><ele>1447.487</ele><time>2015-10-26T08:52:40Z</time></trkpt><trkpt lat="42.982192" lon="-5.738201"><ele>1444.030</ele><time>2015-10-26T08:52:52Z</time></trkpt><trkpt lat="42.982190" lon="-5.738212"><ele>1444.069</ele><time>2015-10-26T08:52:53Z</time></trkpt><trkpt lat="42.982154" lon="-5.738332"><ele>1442.664</ele><time>2015-10-26T08:53:02Z</time></trkpt><trkpt lat="42.982083" lon="-5.738476"><ele>1439.275</ele><time>2015-10-26T08:53:12Z</time></trkpt><trkpt lat="42.982056" lon="-5.738572"><ele>1436.827</ele><time>2015-10-26T08:53:19Z</time></trkpt><trkpt lat="42.982029" lon="-5.738626"><ele>1434.455</ele><time>2015-10-26T08:53:24Z</time></trkpt><trkpt lat="42.981921" lon="-5.738773"><ele>1432.573</ele><time>2015-10-26T08:53:41Z</time></trkpt><trkpt lat="42.981764" lon="-5.738945"><ele>1429.185</ele><time>2015-10-26T08:54:00Z</time></trkpt><trkpt lat="42.981624" lon="-5.739054"><ele>1425.313</ele><time>2015-10-26T08:54:16Z</time></trkpt><trkpt lat="42.981604" lon="-5.739129"><ele>1423.808</ele><time>2015-10-26T08:54:23Z</time></trkpt><trkpt lat="42.981729" lon="-5.739147"><ele>1421.938</ele><time>2015-10-26T08:54:36Z</time></trkpt><trkpt lat="42.981776" lon="-5.739152"><ele>1421.038</ele><time>2015-10-26T08:54:40Z</time></trkpt><trkpt lat="42.981881" lon="-5.739173"><ele>1418.621</ele><time>2015-10-26T08:54:51Z</time></trkpt><trkpt lat="42.982043" lon="-5.739179"><ele>1415.780</ele><time>2015-10-26T08:55:07Z</time></trkpt><trkpt lat="42.982152" lon="-5.739190"><ele>1412.825</ele><time>2015-10-26T08:55:18Z</time></trkpt><trkpt lat="42.982183" lon="-5.739215"><ele>1411.876</ele><time>2015-10-26T08:55:22Z</time></trkpt><trkpt lat="42.982247" lon="-5.739442"><ele>1410.488</ele><time>2015-10-26T08:55:38Z</time></trkpt><trkpt lat="42.982248" lon="-5.739509"><ele>1409.966</ele><time>2015-10-26T08:55:42Z</time></trkpt><trkpt lat="42.982134" lon="-5.739725"><ele>1407.527</ele><time>2015-10-26T08:55:59Z</time></trkpt><trkpt lat="42.982030" lon="-5.739912"><ele>1405.668</ele><time>2015-10-26T08:56:17Z</time></trkpt><trkpt lat="42.982014" lon="-5.739942"><ele>1405.114</ele><time>2015-10-26T08:56:32Z</time></trkpt><trkpt lat="42.982009" lon="-5.739967"><ele>1404.608</ele><time>2015-10-26T08:56:43Z</time></trkpt><trkpt lat="42.982047" lon="-5.739970"><ele>1404.663</ele><time>2015-10-26T08:56:49Z</time></trkpt><trkpt lat="42.982067" lon="-5.739963"><ele>1404.623</ele><time>2015-10-26T08:56:51Z</time></trkpt><trkpt lat="42.982121" lon="-5.739988"><ele>1404.666</ele><time>2015-10-26T08:56:57Z</time></trkpt><trkpt lat="42.982201" lon="-5.740013"><ele>1406.125</ele><time>2015-10-26T08:57:04Z</time></trkpt><trkpt lat="42.982264" lon="-5.740037"><ele>1406.690</ele><time>2015-10-26T08:57:10Z</time></trkpt><trkpt lat="42.982334" lon="-5.740024"><ele>1406.621</ele><time>2015-10-26T08:57:17Z</time></trkpt><trkpt lat="42.982456" lon="-5.740036"><ele>1406.173</ele><time>2015-10-26T08:57:27Z</time></trkpt><trkpt lat="42.982518" lon="-5.740076"><ele>1406.131</ele><time>2015-10-26T08:57:33Z</time></trkpt><trkpt lat="42.982598" lon="-5.740106"><ele>1406.691</ele><time>2015-10-26T08:57:46Z</time></trkpt><trkpt lat="42.982732" lon="-5.740105"><ele>1408.581</ele><time>2015-10-26T08:58:01Z</time></trkpt><trkpt lat="42.982845" lon="-5.740202"><ele>1411.319</ele><time>2015-10-26T08:58:17Z</time></trkpt><trkpt lat="42.982937" lon="-5.740285"><ele>1414.208</ele><time>2015-10-26T08:58:33Z</time></trkpt><trkpt lat="42.983046" lon="-5.740359"><ele>1417.190</ele><time>2015-10-26T08:58:50Z</time></trkpt><trkpt lat="42.983148" lon="-5.740422"><ele>1418.610</ele><time>2015-10-26T08:59:06Z</time></trkpt><trkpt lat="42.983236" lon="-5.740433"><ele>1421.053</ele><time>2015-10-26T08:59:20Z</time></trkpt><trkpt lat="42.983340" lon="-5.740436"><ele>1422.422</ele><time>2015-10-26T08:59:33Z</time></trkpt><trkpt lat="42.983364" lon="-5.740447"><ele>1424.887</ele><time>2015-10-26T08:59:37Z</time></trkpt><trkpt lat="42.983364" lon="-5.740469"><ele>1423.478</ele><time>2015-10-26T08:59:43Z</time></trkpt><trkpt lat="42.983430" lon="-5.740454"><ele>1423.430</ele><time>2015-10-26T08:59:55Z</time></trkpt><trkpt lat="42.983529" lon="-5.740400"><ele>1422.998</ele><time>2015-10-26T09:00:07Z</time></trkpt><trkpt lat="42.983560" lon="-5.740376"><ele>1422.968</ele><time>2015-10-26T09:00:10Z</time></trkpt><trkpt lat="42.983603" lon="-5.740346"><ele>1422.442</ele><time>2015-10-26T09:00:14Z</time></trkpt><trkpt lat="42.983741" lon="-5.740271"><ele>1422.426</ele><time>2015-10-26T09:00:28Z</time></trkpt><trkpt lat="42.983759" lon="-5.740254"><ele>1422.408</ele><time>2015-10-26T09:00:30Z</time></trkpt><trkpt lat="42.983933" lon="-5.740158"><ele>1421.497</ele><time>2015-10-26T09:00:47Z</time></trkpt><trkpt lat="42.983943" lon="-5.740152"><ele>1421.477</ele><time>2015-10-26T09:00:48Z</time></trkpt><trkpt lat="42.983979" lon="-5.740127"><ele>1421.490</ele><time>2015-10-26T09:00:52Z</time></trkpt><trkpt lat="42.984068" lon="-5.740106"><ele>1422.929</ele><time>2015-10-26T09:01:01Z</time></trkpt><trkpt lat="42.984197" lon="-5.740080"><ele>1424.894</ele><time>2015-10-26T09:01:16Z</time></trkpt><trkpt lat="42.984310" lon="-5.740044"><ele>1426.265</ele><time>2015-10-26T09:01:30Z</time></trkpt><trkpt lat="42.984448" lon="-5.740047"><ele>1426.737</ele><time>2015-10-26T09:01:44Z</time></trkpt><trkpt lat="42.984560" lon="-5.740065"><ele>1429.115</ele><time>2015-10-26T09:01:57Z</time></trkpt><trkpt lat="42.984711" lon="-5.740050"><ele>1430.163</ele><time>2015-10-26T09:02:13Z</time></trkpt><trkpt lat="42.984823" lon="-5.740023"><ele>1431.144</ele><time>2015-10-26T09:02:26Z</time></trkpt><trkpt lat="42.984963" lon="-5.740025"><ele>1433.018</ele><time>2015-10-26T09:02:40Z</time></trkpt><trkpt lat="42.985066" lon="-5.740068"><ele>1435.408</ele><time>2015-10-26T09:02:52Z</time></trkpt><trkpt lat="42.985100" lon="-5.740094"><ele>1436.367</ele><time>2015-10-26T09:02:56Z</time></trkpt><trkpt lat="42.985140" lon="-5.740242"><ele>1438.817</ele><time>2015-10-26T09:03:10Z</time></trkpt><trkpt lat="42.985128" lon="-5.740248"><ele>1438.860</ele><time>2015-10-26T09:03:27Z</time></trkpt><trkpt lat="42.985132" lon="-5.740279"><ele>1438.849</ele><time>2015-10-26T09:03:43Z</time></trkpt><trkpt lat="42.985140" lon="-5.740312"><ele>1438.874</ele><time>2015-10-26T09:03:46Z</time></trkpt><trkpt lat="42.985154" lon="-5.740409"><ele>1438.845</ele><time>2015-10-26T09:03:59Z</time></trkpt><trkpt lat="42.985157" lon="-5.740437"><ele>1437.377</ele><time>2015-10-26T09:04:08Z</time></trkpt><trkpt lat="42.985174" lon="-5.740592"><ele>1435.935</ele><time>2015-10-26T09:04:23Z</time></trkpt><trkpt lat="42.985175" lon="-5.740601"><ele>1435.921</ele><time>2015-10-26T09:04:24Z</time></trkpt><trkpt lat="42.985191" lon="-5.740709"><ele>1433.941</ele><time>2015-10-26T09:04:34Z</time></trkpt><trkpt lat="42.985213" lon="-5.740922"><ele>1430.105</ele><time>2015-10-26T09:04:51Z</time></trkpt><trkpt lat="42.985211" lon="-5.741084"><ele>1429.108</ele><time>2015-10-26T09:05:04Z</time></trkpt><trkpt lat="42.985185" lon="-5.741312"><ele>1427.773</ele><time>2015-10-26T09:05:22Z</time></trkpt><trkpt lat="42.985189" lon="-5.741453"><ele>1424.863</ele><time>2015-10-26T09:05:34Z</time></trkpt><trkpt lat="42.985218" lon="-5.741570"><ele>1421.966</ele><time>2015-10-26T09:05:46Z</time></trkpt><trkpt lat="42.985232" lon="-5.741808"><ele>1420.065</ele><time>2015-10-26T09:06:02Z</time></trkpt><trkpt lat="42.985251" lon="-5.741976"><ele>1418.130</ele><time>2015-10-26T09:06:17Z</time></trkpt><trkpt lat="42.985283" lon="-5.742129"><ele>1415.221</ele><time>2015-10-26T09:06:32Z</time></trkpt><trkpt lat="42.985308" lon="-5.742330"><ele>1412.823</ele><time>2015-10-26T09:06:49Z</time></trkpt><trkpt lat="42.985356" lon="-5.742464"><ele>1409.951</ele><time>2015-10-26T09:07:03Z</time></trkpt><trkpt lat="42.985368" lon="-5.742490"><ele>1409.479</ele><time>2015-10-26T09:07:06Z</time></trkpt><trkpt lat="42.985392" lon="-5.742652"><ele>1408.905</ele><time>2015-10-26T09:07:20Z</time></trkpt><trkpt lat="42.985396" lon="-5.742756"><ele>1406.625</ele><time>2015-10-26T09:07:28Z</time></trkpt><trkpt lat="42.985374" lon="-5.742878"><ele>1404.608</ele><time>2015-10-26T09:07:38Z</time></trkpt><trkpt lat="42.985364" lon="-5.743085"><ele>1403.258</ele><time>2015-10-26T09:07:54Z</time></trkpt><trkpt lat="42.985362" lon="-5.743097"><ele>1403.218</ele><time>2015-10-26T09:07:55Z</time></trkpt><trkpt lat="42.985334" lon="-5.743181"><ele>1401.721</ele><time>2015-10-26T09:08:02Z</time></trkpt><trkpt lat="42.985327" lon="-5.743206"><ele>1401.710</ele><time>2015-10-26T09:08:04Z</time></trkpt><trkpt lat="42.985249" lon="-5.743384"><ele>1400.365</ele><time>2015-10-26T09:08:19Z</time></trkpt><trkpt lat="42.985173" lon="-5.743541"><ele>1399.366</ele><time>2015-10-26T09:08:33Z</time></trkpt><trkpt lat="42.985138" lon="-5.743626"><ele>1398.928</ele><time>2015-10-26T09:08:40Z</time></trkpt><trkpt lat="42.985073" lon="-5.743739"><ele>1396.436</ele><time>2015-10-26T09:08:52Z</time></trkpt><trkpt lat="42.985028" lon="-5.743888"><ele>1395.034</ele><time>2015-10-26T09:09:03Z</time></trkpt><trkpt lat="42.985029" lon="-5.743998"><ele>1395.055</ele><time>2015-10-26T09:09:12Z</time></trkpt><trkpt lat="42.985050" lon="-5.744154"><ele>1393.110</ele><time>2015-10-26T09:09:26Z</time></trkpt><trkpt lat="42.985079" lon="-5.744268"><ele>1392.108</ele><time>2015-10-26T09:09:36Z</time></trkpt><trkpt lat="42.985099" lon="-5.744456"><ele>1389.774</ele><time>2015-10-26T09:09:51Z</time></trkpt><trkpt lat="42.985091" lon="-5.744472"><ele>1389.224</ele><time>2015-10-26T09:10:06Z</time></trkpt><trkpt lat="42.985086" lon="-5.744521"><ele>1388.327</ele><time>2015-10-26T09:10:20Z</time></trkpt><trkpt lat="42.985074" lon="-5.744558"><ele>1387.326</ele><time>2015-10-26T09:10:35Z</time></trkpt><trkpt lat="42.985072" lon="-5.744632"><ele>1385.931</ele><time>2015-10-26T09:10:49Z</time></trkpt><trkpt lat="42.985035" lon="-5.744770"><ele>1383.552</ele><time>2015-10-26T09:11:06Z</time></trkpt><trkpt lat="42.985013" lon="-5.744850"><ele>1382.514</ele><time>2015-10-26T09:11:14Z</time></trkpt><trkpt lat="42.984999" lon="-5.744987"><ele>1380.132</ele><time>2015-10-26T09:11:29Z</time></trkpt><trkpt lat="42.984997" lon="-5.745025"><ele>1379.643</ele><time>2015-10-26T09:11:33Z</time></trkpt><trkpt lat="42.985068" lon="-5.745150"><ele>1378.764</ele><time>2015-10-26T09:11:47Z</time></trkpt><trkpt lat="42.985098" lon="-5.745170"><ele>1378.710</ele><time>2015-10-26T09:11:51Z</time></trkpt><trkpt lat="42.985198" lon="-5.745248"><ele>1377.708</ele><time>2015-10-26T09:12:03Z</time></trkpt><trkpt lat="42.985328" lon="-5.745295"><ele>1376.325</ele><time>2015-10-26T09:12:16Z</time></trkpt><trkpt lat="42.985474" lon="-5.745344"><ele>1375.325</ele><time>2015-10-26T09:12:30Z</time></trkpt><trkpt lat="42.985500" lon="-5.745363"><ele>1374.838</ele><time>2015-10-26T09:12:33Z</time></trkpt><trkpt lat="42.985603" lon="-5.745374"><ele>1374.357</ele><time>2015-10-26T09:12:44Z</time></trkpt><trkpt lat="42.985644" lon="-5.745370"><ele>1373.462</ele><time>2015-10-26T09:12:49Z</time></trkpt><trkpt lat="42.985768" lon="-5.745398"><ele>1372.453</ele><time>2015-10-26T09:13:03Z</time></trkpt><trkpt lat="42.985865" lon="-5.745436"><ele>1371.075</ele><time>2015-10-26T09:13:18Z</time></trkpt><trkpt lat="42.985911" lon="-5.745455"><ele>1370.543</ele><time>2015-10-26T09:13:25Z</time></trkpt><trkpt lat="42.985980" lon="-5.745603"><ele>1369.113</ele><time>2015-10-26T09:13:38Z</time></trkpt><trkpt lat="42.985992" lon="-5.745628"><ele>1369.143</ele><time>2015-10-26T09:13:40Z</time></trkpt><trkpt lat="42.986022" lon="-5.745732"><ele>1368.607</ele><time>2015-10-26T09:13:52Z</time></trkpt><trkpt lat="42.986026" lon="-5.745716"><ele>1368.108</ele><time>2015-10-26T09:14:03Z</time></trkpt><trkpt lat="42.986065" lon="-5.745685"><ele>1367.182</ele><time>2015-10-26T09:14:16Z</time></trkpt><trkpt lat="42.986098" lon="-5.745733"><ele>1367.642</ele><time>2015-10-26T09:14:32Z</time></trkpt><trkpt lat="42.986152" lon="-5.745763"><ele>1370.055</ele><time>2015-10-26T09:14:44Z</time></trkpt><trkpt lat="42.986210" lon="-5.745839"><ele>1370.044</ele><time>2015-10-26T09:14:54Z</time></trkpt><trkpt lat="42.986224" lon="-5.745874"><ele>1370.059</ele><time>2015-10-26T09:14:57Z</time></trkpt><trkpt lat="42.986226" lon="-5.745903"><ele>1370.090</ele><time>2015-10-26T09:14:59Z</time></trkpt><trkpt lat="42.986218" lon="-5.745952"><ele>1370.022</ele><time>2015-10-26T09:15:03Z</time></trkpt><trkpt lat="42.986254" lon="-5.745995"><ele>1368.630</ele><time>2015-10-26T09:15:09Z</time></trkpt><trkpt lat="42.986286" lon="-5.746007"><ele>1368.638</ele><time>2015-10-26T09:15:12Z</time></trkpt><trkpt lat="42.986321" lon="-5.746057"><ele>1367.670</ele><time>2015-10-26T09:15:17Z</time></trkpt><trkpt lat="42.986468" lon="-5.746101"><ele>1367.117</ele><time>2015-10-26T09:15:31Z</time></trkpt><trkpt lat="42.986503" lon="-5.746150"><ele>1366.208</ele><time>2015-10-26T09:15:35Z</time></trkpt><trkpt lat="42.986528" lon="-5.746183"><ele>1366.264</ele><time>2015-10-26T09:15:39Z</time></trkpt><trkpt lat="42.986547" lon="-5.746242"><ele>1366.734</ele><time>2015-10-26T09:15:45Z</time></trkpt><trkpt lat="42.986559" lon="-5.746258"><ele>1368.197</ele><time>2015-10-26T09:15:47Z</time></trkpt><trkpt lat="42.986590" lon="-5.746288"><ele>1366.746</ele><time>2015-10-26T09:15:51Z</time></trkpt><trkpt lat="42.986679" lon="-5.746377"><ele>1366.771</ele><time>2015-10-26T09:16:05Z</time></trkpt><trkpt lat="42.986716" lon="-5.746367"><ele>1366.772</ele><time>2015-10-26T09:16:11Z</time></trkpt><trkpt lat="42.986735" lon="-5.746357"><ele>1366.264</ele><time>2015-10-26T09:16:13Z</time></trkpt><trkpt lat="42.986781" lon="-5.746373"><ele>1367.622</ele><time>2015-10-26T09:16:17Z</time></trkpt><trkpt lat="42.986915" lon="-5.746458"><ele>1368.634</ele><time>2015-10-26T09:16:31Z</time></trkpt><trkpt lat="42.987046" lon="-5.746549"><ele>1370.555</ele><time>2015-10-26T09:16:45Z</time></trkpt><trkpt lat="42.987192" lon="-5.746630"><ele>1372.410</ele><time>2015-10-26T09:17:01Z</time></trkpt><trkpt lat="42.987202" lon="-5.746633"><ele>1372.408</ele><time>2015-10-26T09:17:02Z</time></trkpt><trkpt lat="42.987223" lon="-5.746624"><ele>1372.434</ele><time>2015-10-26T09:17:04Z</time></trkpt><trkpt lat="42.987277" lon="-5.746625"><ele>1371.914</ele><time>2015-10-26T09:17:10Z</time></trkpt><trkpt lat="42.987305" lon="-5.746629"><ele>1371.977</ele><time>2015-10-26T09:17:13Z</time></trkpt><trkpt lat="42.987326" lon="-5.746632"><ele>1371.956</ele><time>2015-10-26T09:17:15Z</time></trkpt><trkpt lat="42.987367" lon="-5.746622"><ele>1371.961</ele><time>2015-10-26T09:17:19Z</time></trkpt><trkpt lat="42.987516" lon="-5.746508"><ele>1371.972</ele><time>2015-10-26T09:17:35Z</time></trkpt><trkpt lat="42.987621" lon="-5.746313"><ele>1372.474</ele><time>2015-10-26T09:17:53Z</time></trkpt><trkpt lat="42.987646" lon="-5.746230"><ele>1372.482</ele><time>2015-10-26T09:17:59Z</time></trkpt><trkpt lat="42.987740" lon="-5.746070"><ele>1372.458</ele><time>2015-10-26T09:18:13Z</time></trkpt><trkpt lat="42.987905" lon="-5.745949"><ele>1372.452</ele><time>2015-10-26T09:18:28Z</time></trkpt><trkpt lat="42.988031" lon="-5.745875"><ele>1372.417</ele><time>2015-10-26T09:18:40Z</time></trkpt><trkpt lat="42.988174" lon="-5.745940"><ele>1372.408</ele><time>2015-10-26T09:18:53Z</time></trkpt><trkpt lat="42.988358" lon="-5.746000"><ele>1372.466</ele><time>2015-10-26T09:19:09Z</time></trkpt><trkpt lat="42.988509" lon="-5.746038"><ele>1372.496</ele><time>2015-10-26T09:19:23Z</time></trkpt><trkpt lat="42.988618" lon="-5.746076"><ele>1372.429</ele><time>2015-10-26T09:19:35Z</time></trkpt><trkpt lat="42.988772" lon="-5.746063"><ele>1372.988</ele><time>2015-10-26T09:19:49Z</time></trkpt><trkpt lat="42.988914" lon="-5.746086"><ele>1372.933</ele><time>2015-10-26T09:20:03Z</time></trkpt><trkpt lat="42.989013" lon="-5.746076"><ele>1371.574</ele><time>2015-10-26T09:20:12Z</time></trkpt><trkpt lat="42.989096" lon="-5.746081"><ele>1371.026</ele><time>2015-10-26T09:20:20Z</time></trkpt><trkpt lat="42.989139" lon="-5.746069"><ele>1371.044</ele><time>2015-10-26T09:20:24Z</time></trkpt><trkpt lat="42.989171" lon="-5.746068"><ele>1371.048</ele><time>2015-10-26T09:20:27Z</time></trkpt><trkpt lat="42.989290" lon="-5.746065"><ele>1372.461</ele><time>2015-10-26T09:20:38Z</time></trkpt><trkpt lat="42.989385" lon="-5.746065"><ele>1371.017</ele><time>2015-10-26T09:20:53Z</time></trkpt><trkpt lat="42.989389" lon="-5.746063"><ele>1371.008</ele><time>2015-10-26T09:21:02Z</time></trkpt><trkpt lat="42.989432" lon="-5.746074"><ele>1371.075</ele><time>2015-10-26T09:21:06Z</time></trkpt><trkpt lat="42.989601" lon="-5.746082"><ele>1370.555</ele><time>2015-10-26T09:21:21Z</time></trkpt><trkpt lat="42.989733" lon="-5.746137"><ele>1370.588</ele><time>2015-10-26T09:21:35Z</time></trkpt><trkpt lat="42.989738" lon="-5.746143"><ele>1370.557</ele><time>2015-10-26T09:21:36Z</time></trkpt><trkpt lat="42.989803" lon="-5.746147"><ele>1369.512</ele><time>2015-10-26T09:21:42Z</time></trkpt><trkpt lat="42.989869" lon="-5.746164"><ele>1369.543</ele><time>2015-10-26T09:21:55Z</time></trkpt><trkpt lat="42.989878" lon="-5.746158"><ele>1369.565</ele><time>2015-10-26T09:22:08Z</time></trkpt><trkpt lat="42.990046" lon="-5.746192"><ele>1369.533</ele><time>2015-10-26T09:22:24Z</time></trkpt><trkpt lat="42.990155" lon="-5.746232"><ele>1369.572</ele><time>2015-10-26T09:22:38Z</time></trkpt><trkpt lat="42.990355" lon="-5.746255"><ele>1369.513</ele><time>2015-10-26T09:22:57Z</time></trkpt><trkpt lat="42.990530" lon="-5.746259"><ele>1369.514</ele><time>2015-10-26T09:23:15Z</time></trkpt><trkpt lat="42.990569" lon="-5.746246"><ele>1369.108</ele><time>2015-10-26T09:23:33Z</time></trkpt><trkpt lat="42.990605" lon="-5.746217"><ele>1367.148</ele><time>2015-10-26T09:23:44Z</time></trkpt><trkpt lat="42.990756" lon="-5.746096"><ele>1366.758</ele><time>2015-10-26T09:23:59Z</time></trkpt><trkpt lat="42.990815" lon="-5.746009"><ele>1364.721</ele><time>2015-10-26T09:24:09Z</time></trkpt><trkpt lat="42.990849" lon="-5.745978"><ele>1364.790</ele><time>2015-10-26T09:24:13Z</time></trkpt><trkpt lat="42.990892" lon="-5.745982"><ele>1364.795</ele><time>2015-10-26T09:24:18Z</time></trkpt><trkpt lat="42.990909" lon="-5.745969"><ele>1366.736</ele><time>2015-10-26T09:24:20Z</time></trkpt><trkpt lat="42.990927" lon="-5.745961"><ele>1366.718</ele><time>2015-10-26T09:24:22Z</time></trkpt><trkpt lat="42.991091" lon="-5.745886"><ele>1366.726</ele><time>2015-10-26T09:24:37Z</time></trkpt><trkpt lat="42.991213" lon="-5.745843"><ele>1365.268</ele><time>2015-10-26T09:24:47Z</time></trkpt><trkpt lat="42.991312" lon="-5.745822"><ele>1364.742</ele><time>2015-10-26T09:24:55Z</time></trkpt><trkpt lat="42.991377" lon="-5.745823"><ele>1366.226</ele><time>2015-10-26T09:25:00Z</time></trkpt><trkpt lat="42.991520" lon="-5.745727"><ele>1366.208</ele><time>2015-10-26T09:25:14Z</time></trkpt><trkpt lat="42.991564" lon="-5.745703"><ele>1365.277</ele><time>2015-10-26T09:25:18Z</time></trkpt><trkpt lat="42.991628" lon="-5.745676"><ele>1364.747</ele><time>2015-10-26T09:25:25Z</time></trkpt><trkpt lat="42.991662" lon="-5.745679"><ele>1364.210</ele><time>2015-10-26T09:25:28Z</time></trkpt><trkpt lat="42.991740" lon="-5.745654"><ele>1363.899</ele><time>2015-10-26T09:25:42Z</time></trkpt><trkpt lat="42.991790" lon="-5.745624"><ele>1361.424</ele><time>2015-10-26T09:25:58Z</time></trkpt><trkpt lat="42.991956" lon="-5.745652"><ele>1359.965</ele><time>2015-10-26T09:26:14Z</time></trkpt><trkpt lat="42.992078" lon="-5.745680"><ele>1360.477</ele><time>2015-10-26T09:26:26Z</time></trkpt><trkpt lat="42.992128" lon="-5.745697"><ele>1359.065</ele><time>2015-10-26T09:26:30Z</time></trkpt><trkpt lat="42.992192" lon="-5.745735"><ele>1359.472</ele><time>2015-10-26T09:26:36Z</time></trkpt><trkpt lat="42.992366" lon="-5.745825"><ele>1359.913</ele><time>2015-10-26T09:26:54Z</time></trkpt><trkpt lat="42.992405" lon="-5.745828"><ele>1359.914</ele><time>2015-10-26T09:26:57Z</time></trkpt><trkpt lat="42.992524" lon="-5.745799"><ele>1359.408</ele><time>2015-10-26T09:27:10Z</time></trkpt><trkpt lat="42.992538" lon="-5.745801"><ele>1359.078</ele><time>2015-10-26T09:27:12Z</time></trkpt><trkpt lat="42.992546" lon="-5.745801"><ele>1359.058</ele><time>2015-10-26T09:27:13Z</time></trkpt><trkpt lat="42.992609" lon="-5.745777"><ele>1358.011</ele><time>2015-10-26T09:27:25Z</time></trkpt><trkpt lat="42.992639" lon="-5.745775"><ele>1357.040</ele><time>2015-10-26T09:27:29Z</time></trkpt><trkpt lat="42.992707" lon="-5.745723"><ele>1353.795</ele><time>2015-10-26T09:27:39Z</time></trkpt><trkpt lat="42.992751" lon="-5.745663"><ele>1351.876</ele><time>2015-10-26T09:27:52Z</time></trkpt><trkpt lat="42.992840" lon="-5.745628"><ele>1348.988</ele><time>2015-10-26T09:28:08Z</time></trkpt><trkpt lat="42.992898" lon="-5.745591"><ele>1346.976</ele><time>2015-10-26T09:28:21Z</time></trkpt><trkpt lat="42.992935" lon="-5.745561"><ele>1345.024</ele><time>2015-10-26T09:28:27Z</time></trkpt><trkpt lat="42.992991" lon="-5.745499"><ele>1343.104</ele><time>2015-10-26T09:28:39Z</time></trkpt><trkpt lat="42.993045" lon="-5.745480"><ele>1340.714</ele><time>2015-10-26T09:28:51Z</time></trkpt><trkpt lat="42.993115" lon="-5.745495"><ele>1338.308</ele><time>2015-10-26T09:29:04Z</time></trkpt><trkpt lat="42.993148" lon="-5.745558"><ele>1335.443</ele><time>2015-10-26T09:29:16Z</time></trkpt><trkpt lat="42.993195" lon="-5.745630"><ele>1333.083</ele><time>2015-10-26T09:29:33Z</time></trkpt><trkpt lat="42.993233" lon="-5.745624"><ele>1332.546</ele><time>2015-10-26T09:29:45Z</time></trkpt><trkpt lat="42.993300" lon="-5.745593"><ele>1332.585</ele><time>2015-10-26T09:30:01Z</time></trkpt><trkpt lat="42.993312" lon="-5.745579"><ele>1332.020</ele><time>2015-10-26T09:30:13Z</time></trkpt><trkpt lat="42.993312" lon="-5.745578"><ele>1332.071</ele><time>2015-10-26T09:30:32Z</time></trkpt><trkpt lat="42.993358" lon="-5.745615"><ele>1331.183</ele><time>2015-10-26T09:30:50Z</time></trkpt><trkpt lat="42.993400" lon="-5.745846"><ele>1332.061</ele><time>2015-10-26T09:31:04Z</time></trkpt><trkpt lat="42.993468" lon="-5.746072"><ele>1333.037</ele><time>2015-10-26T09:31:20Z</time></trkpt><trkpt lat="42.993503" lon="-5.746356"><ele>1334.049</ele><time>2015-10-26T09:31:38Z</time></trkpt><trkpt lat="42.993477" lon="-5.746607"><ele>1332.513</ele><time>2015-10-26T09:31:52Z</time></trkpt><trkpt lat="42.993477" lon="-5.746703"><ele>1332.508</ele><time>2015-10-26T09:31:58Z</time></trkpt><trkpt lat="42.993482" lon="-5.746868"><ele>1332.584</ele><time>2015-10-26T09:32:11Z</time></trkpt><trkpt lat="42.993449" lon="-5.747185"><ele>1334.484</ele><time>2015-10-26T09:32:30Z</time></trkpt><trkpt lat="42.993424" lon="-5.747360"><ele>1337.357</ele><time>2015-10-26T09:32:41Z</time></trkpt><trkpt lat="42.993414" lon="-5.747407"><ele>1335.476</ele><time>2015-10-26T09:32:44Z</time></trkpt><trkpt lat="42.993356" lon="-5.747673"><ele>1335.441</ele><time>2015-10-26T09:33:01Z</time></trkpt><trkpt lat="42.993270" lon="-5.747928"><ele>1337.322</ele><time>2015-10-26T09:33:18Z</time></trkpt><trkpt lat="42.993189" lon="-5.748176"><ele>1337.874</ele><time>2015-10-26T09:33:35Z</time></trkpt><trkpt lat="42.993094" lon="-5.748424"><ele>1338.842</ele><time>2015-10-26T09:33:53Z</time></trkpt><trkpt lat="42.992969" lon="-5.748660"><ele>1340.261</ele><time>2015-10-26T09:34:11Z</time></trkpt><trkpt lat="42.992845" lon="-5.748903"><ele>1341.721</ele><time>2015-10-26T09:34:29Z</time></trkpt><trkpt lat="42.992728" lon="-5.749096"><ele>1343.113</ele><time>2015-10-26T09:34:44Z</time></trkpt><trkpt lat="42.992584" lon="-5.749244"><ele>1343.108</ele><time>2015-10-26T09:35:01Z</time></trkpt><trkpt lat="42.992404" lon="-5.749423"><ele>1343.677</ele><time>2015-10-26T09:35:21Z</time></trkpt><trkpt lat="42.992250" lon="-5.749597"><ele>1345.097</ele><time>2015-10-26T09:35:39Z</time></trkpt><trkpt lat="42.992077" lon="-5.749757"><ele>1345.550</ele><time>2015-10-26T09:35:57Z</time></trkpt><trkpt lat="42.991876" lon="-5.749924"><ele>1348.419</ele><time>2015-10-26T09:36:17Z</time></trkpt><trkpt lat="42.991688" lon="-5.750125"><ele>1349.854</ele><time>2015-10-26T09:36:36Z</time></trkpt><trkpt lat="42.991592" lon="-5.750238"><ele>1350.855</ele><time>2015-10-26T09:36:47Z</time></trkpt><trkpt lat="42.991478" lon="-5.750520"><ele>1350.827</ele><time>2015-10-26T09:37:07Z</time></trkpt><trkpt lat="42.991417" lon="-5.750645"><ele>1354.645</ele><time>2015-10-26T09:37:17Z</time></trkpt><trkpt lat="42.991366" lon="-5.750900"><ele>1356.647</ele><time>2015-10-26T09:37:34Z</time></trkpt><trkpt lat="42.991363" lon="-5.750947"><ele>1355.629</ele><time>2015-10-26T09:37:37Z</time></trkpt><trkpt lat="42.991378" lon="-5.751246"><ele>1355.621</ele><time>2015-10-26T09:37:56Z</time></trkpt><trkpt lat="42.991475" lon="-5.751532"><ele>1355.608</ele><time>2015-10-26T09:38:15Z</time></trkpt><trkpt lat="42.991538" lon="-5.751809"><ele>1355.645</ele><time>2015-10-26T09:38:32Z</time></trkpt><trkpt lat="42.991520" lon="-5.752096"><ele>1357.515</ele><time>2015-10-26T09:38:50Z</time></trkpt><trkpt lat="42.991461" lon="-5.752348"><ele>1359.498</ele><time>2015-10-26T09:39:06Z</time></trkpt><trkpt lat="42.991450" lon="-5.752395"><ele>1358.067</ele><time>2015-10-26T09:39:09Z</time></trkpt><trkpt lat="42.991371" lon="-5.752643"><ele>1358.072</ele><time>2015-10-26T09:39:26Z</time></trkpt><trkpt lat="42.991368" lon="-5.752697"><ele>1359.483</ele><time>2015-10-26T09:39:30Z</time></trkpt><trkpt lat="42.991396" lon="-5.753006"><ele>1360.495</ele><time>2015-10-26T09:39:50Z</time></trkpt><trkpt lat="42.991494" lon="-5.753282"><ele>1360.993</ele><time>2015-10-26T09:40:10Z</time></trkpt><trkpt lat="42.991582" lon="-5.753591"><ele>1362.368</ele><time>2015-10-26T09:40:30Z</time></trkpt><trkpt lat="42.991640" lon="-5.753889"><ele>1362.342</ele><time>2015-10-26T09:40:48Z</time></trkpt><trkpt lat="42.991698" lon="-5.754183"><ele>1363.326</ele><time>2015-10-26T09:41:06Z</time></trkpt><trkpt lat="42.991755" lon="-5.754486"><ele>1364.208</ele><time>2015-10-26T09:41:26Z</time></trkpt><trkpt lat="42.991825" lon="-5.754763"><ele>1365.277</ele><time>2015-10-26T09:41:44Z</time></trkpt><trkpt lat="42.991915" lon="-5.755039"><ele>1365.787</ele><time>2015-10-26T09:42:03Z</time></trkpt><trkpt lat="42.991994" lon="-5.755288"><ele>1366.730</ele><time>2015-10-26T09:42:19Z</time></trkpt><trkpt lat="42.992070" lon="-5.755517"><ele>1367.169</ele><time>2015-10-26T09:42:36Z</time></trkpt><trkpt lat="42.992136" lon="-5.755745"><ele>1368.674</ele><time>2015-10-26T09:42:52Z</time></trkpt><trkpt lat="42.992225" lon="-5.755978"><ele>1369.185</ele><time>2015-10-26T09:43:08Z</time></trkpt><trkpt lat="42.992288" lon="-5.756267"><ele>1370.077</ele><time>2015-10-26T09:43:27Z</time></trkpt><trkpt lat="42.992355" lon="-5.756506"><ele>1371.085</ele><time>2015-10-26T09:43:44Z</time></trkpt><trkpt lat="42.992358" lon="-5.756585"><ele>1371.528</ele><time>2015-10-26T09:43:49Z</time></trkpt><trkpt lat="42.992365" lon="-5.756648"><ele>1371.589</ele><time>2015-10-26T09:43:53Z</time></trkpt><trkpt lat="42.992391" lon="-5.756740"><ele>1371.917</ele><time>2015-10-26T09:43:59Z</time></trkpt><trkpt lat="42.992430" lon="-5.756902"><ele>1372.908</ele><time>2015-10-26T09:44:10Z</time></trkpt><trkpt lat="42.992465" lon="-5.756965"><ele>1372.913</ele><time>2015-10-26T09:44:14Z</time></trkpt><trkpt lat="42.992519" lon="-5.757153"><ele>1373.473</ele><time>2015-10-26T09:44:27Z</time></trkpt><trkpt lat="42.992523" lon="-5.757372"><ele>1374.386</ele><time>2015-10-26T09:44:42Z</time></trkpt><trkpt lat="42.992554" lon="-5.757548"><ele>1375.345</ele><time>2015-10-26T09:44:56Z</time></trkpt><trkpt lat="42.992570" lon="-5.757639"><ele>1375.360</ele><time>2015-10-26T09:45:10Z</time></trkpt><trkpt lat="42.992626" lon="-5.757657"><ele>1374.811</ele><time>2015-10-26T09:45:24Z</time></trkpt><trkpt lat="42.992656" lon="-5.757668"><ele>1373.473</ele><time>2015-10-26T09:45:41Z</time></trkpt><trkpt lat="42.992665" lon="-5.757692"><ele>1372.491</ele><time>2015-10-26T09:46:01Z</time></trkpt><trkpt lat="42.992668" lon="-5.757704"><ele>1371.999</ele><time>2015-10-26T09:46:14Z</time></trkpt><trkpt lat="42.992684" lon="-5.757669"><ele>1371.907</ele><time>2015-10-26T09:46:23Z</time></trkpt><trkpt lat="42.992805" lon="-5.757713"><ele>1372.927</ele><time>2015-10-26T09:46:36Z</time></trkpt><trkpt lat="42.992931" lon="-5.757803"><ele>1374.308</ele><time>2015-10-26T09:46:52Z</time></trkpt><trkpt lat="42.993067" lon="-5.757960"><ele>1375.850</ele><time>2015-10-26T09:47:11Z</time></trkpt><trkpt lat="42.993176" lon="-5.758043"><ele>1378.220</ele><time>2015-10-26T09:47:27Z</time></trkpt><trkpt lat="42.993213" lon="-5.758083"><ele>1378.213</ele><time>2015-10-26T09:47:37Z</time></trkpt><trkpt lat="42.993310" lon="-5.758147"><ele>1379.652</ele><time>2015-10-26T09:47:51Z</time></trkpt><trkpt lat="42.993424" lon="-5.758181"><ele>1382.567</ele><time>2015-10-26T09:48:04Z</time></trkpt><trkpt lat="42.993561" lon="-5.758215"><ele>1384.918</ele><time>2015-10-26T09:48:20Z</time></trkpt><trkpt lat="42.993696" lon="-5.758240"><ele>1387.880</ele><time>2015-10-26T09:48:36Z</time></trkpt><trkpt lat="42.993836" lon="-5.758273"><ele>1389.798</ele><time>2015-10-26T09:48:52Z</time></trkpt><trkpt lat="42.993892" lon="-5.758282"><ele>1390.784</ele><time>2015-10-26T09:48:58Z</time></trkpt><trkpt lat="42.993932" lon="-5.758299"><ele>1392.107</ele><time>2015-10-26T09:49:02Z</time></trkpt><trkpt lat="42.993978" lon="-5.758308"><ele>1392.117</ele><time>2015-10-26T09:49:07Z</time></trkpt><trkpt lat="42.994054" lon="-5.758316"><ele>1393.108</ele><time>2015-10-26T09:49:17Z</time></trkpt><trkpt lat="42.994187" lon="-5.758323"><ele>1393.639</ele><time>2015-10-26T09:49:32Z</time></trkpt><trkpt lat="42.994229" lon="-5.758326"><ele>1393.619</ele><time>2015-10-26T09:49:36Z</time></trkpt><trkpt lat="42.994367" lon="-5.758347"><ele>1395.522</ele><time>2015-10-26T09:49:51Z</time></trkpt><trkpt lat="42.994486" lon="-5.758374"><ele>1396.461</ele><time>2015-10-26T09:50:05Z</time></trkpt><trkpt lat="42.994581" lon="-5.758394"><ele>1397.976</ele><time>2015-10-26T09:50:18Z</time></trkpt><trkpt lat="42.994720" lon="-5.758456"><ele>1400.847</ele><time>2015-10-26T09:50:36Z</time></trkpt><trkpt lat="42.994874" lon="-5.758505"><ele>1401.759</ele><time>2015-10-26T09:50:52Z</time></trkpt><trkpt lat="42.994946" lon="-5.758516"><ele>1401.767</ele><time>2015-10-26T09:50:59Z</time></trkpt><trkpt lat="42.995048" lon="-5.758506"><ele>1402.714</ele><time>2015-10-26T09:51:09Z</time></trkpt><trkpt lat="42.995164" lon="-5.758501"><ele>1403.754</ele><time>2015-10-26T09:51:21Z</time></trkpt><trkpt lat="42.995212" lon="-5.758505"><ele>1404.609</ele><time>2015-10-26T09:51:26Z</time></trkpt><trkpt lat="42.995357" lon="-5.758554"><ele>1405.608</ele><time>2015-10-26T09:51:41Z</time></trkpt><trkpt lat="42.995428" lon="-5.758601"><ele>1405.642</ele><time>2015-10-26T09:51:47Z</time></trkpt><trkpt lat="42.995470" lon="-5.758615"><ele>1406.142</ele><time>2015-10-26T09:51:51Z</time></trkpt><trkpt lat="42.995625" lon="-5.758681"><ele>1406.155</ele><time>2015-10-26T09:52:05Z</time></trkpt><trkpt lat="42.995807" lon="-5.758812"><ele>1406.124</ele><time>2015-10-26T09:52:23Z</time></trkpt><trkpt lat="42.995935" lon="-5.758843"><ele>1406.179</ele><time>2015-10-26T09:52:36Z</time></trkpt><trkpt lat="42.995952" lon="-5.758856"><ele>1405.680</ele><time>2015-10-26T09:52:40Z</time></trkpt><trkpt lat="42.995969" lon="-5.758864"><ele>1406.142</ele><time>2015-10-26T09:52:42Z</time></trkpt><trkpt lat="42.996023" lon="-5.758872"><ele>1407.070</ele><time>2015-10-26T09:52:48Z</time></trkpt><trkpt lat="42.996085" lon="-5.758879"><ele>1410.454</ele><time>2015-10-26T09:52:57Z</time></trkpt><trkpt lat="42.996108" lon="-5.758895"><ele>1409.456</ele><time>2015-10-26T09:53:10Z</time></trkpt><trkpt lat="42.996106" lon="-5.758907"><ele>1410.911</ele><time>2015-10-26T09:53:13Z</time></trkpt><trkpt lat="42.996117" lon="-5.758937"><ele>1409.408</ele><time>2015-10-26T09:53:20Z</time></trkpt><trkpt lat="42.996137" lon="-5.758956"><ele>1410.986</ele><time>2015-10-26T09:53:24Z</time></trkpt><trkpt lat="42.996152" lon="-5.759022"><ele>1408.996</ele><time>2015-10-26T09:53:41Z</time></trkpt><trkpt lat="42.996158" lon="-5.759090"><ele>1406.159</ele><time>2015-10-26T09:53:50Z</time></trkpt><trkpt lat="42.996181" lon="-5.759195"><ele>1402.728</ele><time>2015-10-26T09:54:03Z</time></trkpt><trkpt lat="42.996221" lon="-5.759290"><ele>1399.893</ele><time>2015-10-26T09:54:17Z</time></trkpt><trkpt lat="42.996282" lon="-5.759370"><ele>1397.444</ele><time>2015-10-26T09:54:31Z</time></trkpt><trkpt lat="42.996301" lon="-5.759456"><ele>1394.576</ele><time>2015-10-26T09:54:41Z</time></trkpt><trkpt lat="42.996328" lon="-5.759563"><ele>1391.784</ele><time>2015-10-26T09:54:55Z</time></trkpt><trkpt lat="42.996357" lon="-5.759642"><ele>1389.226</ele><time>2015-10-26T09:55:08Z</time></trkpt><trkpt lat="42.996373" lon="-5.759738"><ele>1386.447</ele><time>2015-10-26T09:55:20Z</time></trkpt><trkpt lat="42.996386" lon="-5.759798"><ele>1384.911</ele><time>2015-10-26T09:55:31Z</time></trkpt><trkpt lat="42.996427" lon="-5.759880"><ele>1381.608</ele><time>2015-10-26T09:55:44Z</time></trkpt><trkpt lat="42.996459" lon="-5.759941"><ele>1378.713</ele><time>2015-10-26T09:55:56Z</time></trkpt><trkpt lat="42.996496" lon="-5.760034"><ele>1375.833</ele><time>2015-10-26T09:56:10Z</time></trkpt><trkpt lat="42.996521" lon="-5.760112"><ele>1373.976</ele><time>2015-10-26T09:56:22Z</time></trkpt><trkpt lat="42.996556" lon="-5.760174"><ele>1371.955</ele><time>2015-10-26T09:56:37Z</time></trkpt><trkpt lat="42.996621" lon="-5.760249"><ele>1368.170</ele><time>2015-10-26T09:56:51Z</time></trkpt><trkpt lat="42.996700" lon="-5.760316"><ele>1366.791</ele><time>2015-10-26T09:57:04Z</time></trkpt><trkpt lat="42.996752" lon="-5.760358"><ele>1364.253</ele><time>2015-10-26T09:57:19Z</time></trkpt><trkpt lat="42.996830" lon="-5.760407"><ele>1361.821</ele><time>2015-10-26T09:57:34Z</time></trkpt><trkpt lat="42.996912" lon="-5.760475"><ele>1358.547</ele><time>2015-10-26T09:57:48Z</time></trkpt><trkpt lat="42.997007" lon="-5.760569"><ele>1356.129</ele><time>2015-10-26T09:58:06Z</time></trkpt><trkpt lat="42.997058" lon="-5.760585"><ele>1353.721</ele><time>2015-10-26T09:58:18Z</time></trkpt><trkpt lat="42.997107" lon="-5.760629"><ele>1351.308</ele><time>2015-10-26T09:58:27Z</time></trkpt><trkpt lat="42.997122" lon="-5.760737"><ele>1349.835</ele><time>2015-10-26T09:58:43Z</time></trkpt><trkpt lat="42.997116" lon="-5.760753"><ele>1347.965</ele><time>2015-10-26T09:58:47Z</time></trkpt><trkpt lat="42.997150" lon="-5.760799"><ele>1344.538</ele><time>2015-10-26T09:59:01Z</time></trkpt><trkpt lat="42.997219" lon="-5.760861"><ele>1342.127</ele><time>2015-10-26T09:59:18Z</time></trkpt><trkpt lat="42.997286" lon="-5.760890"><ele>1338.852</ele><time>2015-10-26T09:59:32Z</time></trkpt><trkpt lat="42.997340" lon="-5.760902"><ele>1338.313</ele><time>2015-10-26T09:59:41Z</time></trkpt><trkpt lat="42.997427" lon="-5.760925"><ele>1336.875</ele><time>2015-10-26T09:59:53Z</time></trkpt><trkpt lat="42.997473" lon="-5.761034"><ele>1333.553</ele><time>2015-10-26T10:00:06Z</time></trkpt><trkpt lat="42.997482" lon="-5.761178"><ele>1332.027</ele><time>2015-10-26T10:00:19Z</time></trkpt><trkpt lat="42.997496" lon="-5.761203"><ele>1332.068</ele><time>2015-10-26T10:00:22Z</time></trkpt><trkpt lat="42.997508" lon="-5.761240"><ele>1331.614</ele><time>2015-10-26T10:00:25Z</time></trkpt><trkpt lat="42.997529" lon="-5.761383"><ele>1328.208</ele><time>2015-10-26T10:00:39Z</time></trkpt><trkpt lat="42.997534" lon="-5.761532"><ele>1325.323</ele><time>2015-10-26T10:00:53Z</time></trkpt><trkpt lat="42.997507" lon="-5.761670"><ele>1324.383</ele><time>2015-10-26T10:01:06Z</time></trkpt><trkpt lat="42.997540" lon="-5.761738"><ele>1322.956</ele><time>2015-10-26T10:01:16Z</time></trkpt><trkpt lat="42.997566" lon="-5.761768"><ele>1322.985</ele><time>2015-10-26T10:01:20Z</time></trkpt><trkpt lat="42.997603" lon="-5.761877"><ele>1320.060</ele><time>2015-10-26T10:01:31Z</time></trkpt><trkpt lat="42.997638" lon="-5.761969"><ele>1318.131</ele><time>2015-10-26T10:01:44Z</time></trkpt><trkpt lat="42.997687" lon="-5.762018"><ele>1314.753</ele><time>2015-10-26T10:01:56Z</time></trkpt><trkpt lat="42.997731" lon="-5.762094"><ele>1311.971</ele><time>2015-10-26T10:02:11Z</time></trkpt><trkpt lat="42.997792" lon="-5.762125"><ele>1309.473</ele><time>2015-10-26T10:02:25Z</time></trkpt><trkpt lat="42.997862" lon="-5.762143"><ele>1306.685</ele><time>2015-10-26T10:02:37Z</time></trkpt><trkpt lat="42.997924" lon="-5.762167"><ele>1303.713</ele><time>2015-10-26T10:02:50Z</time></trkpt><trkpt lat="42.997958" lon="-5.762244"><ele>1302.208</ele><time>2015-10-26T10:03:01Z</time></trkpt><trkpt lat="42.998025" lon="-5.762274"><ele>1301.898</ele><time>2015-10-26T10:03:08Z</time></trkpt><trkpt lat="42.998154" lon="-5.762333"><ele>1300.398</ele><time>2015-10-26T10:03:22Z</time></trkpt><trkpt lat="42.998156" lon="-5.762486"><ele>1298.961</ele><time>2015-10-26T10:03:36Z</time></trkpt><trkpt lat="42.998132" lon="-5.762543"><ele>1295.560</ele><time>2015-10-26T10:03:45Z</time></trkpt><trkpt lat="42.998127" lon="-5.762633"><ele>1293.125</ele><time>2015-10-26T10:03:59Z</time></trkpt><trkpt lat="42.998105" lon="-5.762723"><ele>1290.246</ele><time>2015-10-26T10:04:13Z</time></trkpt><trkpt lat="42.998088" lon="-5.762761"><ele>1290.738</ele><time>2015-10-26T10:04:18Z</time></trkpt><trkpt lat="42.997958" lon="-5.762847"><ele>1289.326</ele><time>2015-10-26T10:04:33Z</time></trkpt><trkpt lat="42.997917" lon="-5.762907"><ele>1288.351</ele><time>2015-10-26T10:04:47Z</time></trkpt><trkpt lat="42.997914" lon="-5.762917"><ele>1288.301</ele><time>2015-10-26T10:04:48Z</time></trkpt><trkpt lat="42.997901" lon="-5.762963"><ele>1289.811</ele><time>2015-10-26T10:04:52Z</time></trkpt><trkpt lat="42.997889" lon="-5.763027"><ele>1290.708</ele><time>2015-10-26T10:05:06Z</time></trkpt><trkpt lat="42.997928" lon="-5.763119"><ele>1290.296</ele><time>2015-10-26T10:05:18Z</time></trkpt><trkpt lat="42.997976" lon="-5.763247"><ele>1290.756</ele><time>2015-10-26T10:05:30Z</time></trkpt><trkpt lat="42.997999" lon="-5.763252"><ele>1289.879</ele><time>2015-10-26T10:05:42Z</time></trkpt><trkpt lat="42.998016" lon="-5.763304"><ele>1289.878</ele><time>2015-10-26T10:05:57Z</time></trkpt><trkpt lat="42.997977" lon="-5.763333"><ele>1289.383</ele><time>2015-10-26T10:06:18Z</time></trkpt><trkpt lat="42.997987" lon="-5.763379"><ele>1290.274</ele><time>2015-10-26T10:06:26Z</time></trkpt><trkpt lat="42.998002" lon="-5.763519"><ele>1290.756</ele><time>2015-10-26T10:06:42Z</time></trkpt><trkpt lat="42.998002" lon="-5.763658"><ele>1291.224</ele><time>2015-10-26T10:06:58Z</time></trkpt><trkpt lat="42.997977" lon="-5.763710"><ele>1291.276</ele><time>2015-10-26T10:07:16Z</time></trkpt><trkpt lat="42.997954" lon="-5.763763"><ele>1291.290</ele><time>2015-10-26T10:07:22Z</time></trkpt><trkpt lat="42.997877" lon="-5.763965"><ele>1291.219</ele><time>2015-10-26T10:07:39Z</time></trkpt><trkpt lat="42.997809" lon="-5.764079"><ele>1291.708</ele><time>2015-10-26T10:07:55Z</time></trkpt><trkpt lat="42.997804" lon="-5.764191"><ele>1292.268</ele><time>2015-10-26T10:08:09Z</time></trkpt><trkpt lat="42.997764" lon="-5.764245"><ele>1292.288</ele><time>2015-10-26T10:08:23Z</time></trkpt><trkpt lat="42.997742" lon="-5.764376"><ele>1289.871</ele><time>2015-10-26T10:08:37Z</time></trkpt><trkpt lat="42.997714" lon="-5.764492"><ele>1287.880</ele><time>2015-10-26T10:08:49Z</time></trkpt><trkpt lat="42.997616" lon="-5.764631"><ele>1283.595</ele><time>2015-10-26T10:09:05Z</time></trkpt><trkpt lat="42.997585" lon="-5.764682"><ele>1283.046</ele><time>2015-10-26T10:09:22Z</time></trkpt><trkpt lat="42.997574" lon="-5.764696"><ele>1283.058</ele><time>2015-10-26T10:09:38Z</time></trkpt><trkpt lat="42.997580" lon="-5.764806"><ele>1280.116</ele><time>2015-10-26T10:09:53Z</time></trkpt><trkpt lat="42.997579" lon="-5.764839"><ele>1279.238</ele><time>2015-10-26T10:10:06Z</time></trkpt><trkpt lat="42.997607" lon="-5.764920"><ele>1278.770</ele><time>2015-10-26T10:10:16Z</time></trkpt><trkpt lat="42.997649" lon="-5.765031"><ele>1276.317</ele><time>2015-10-26T10:10:29Z</time></trkpt><trkpt lat="42.997669" lon="-5.765140"><ele>1272.408</ele><time>2015-10-26T10:10:40Z</time></trkpt><trkpt lat="42.997693" lon="-5.765296"><ele>1271.574</ele><time>2015-10-26T10:10:54Z</time></trkpt><trkpt lat="42.997707" lon="-5.765365"><ele>1270.024</ele><time>2015-10-26T10:11:00Z</time></trkpt><trkpt lat="42.997735" lon="-5.765524"><ele>1267.647</ele><time>2015-10-26T10:11:15Z</time></trkpt><trkpt lat="42.997751" lon="-5.765596"><ele>1269.126</ele><time>2015-10-26T10:11:23Z</time></trkpt><trkpt lat="42.997766" lon="-5.765651"><ele>1265.761</ele><time>2015-10-26T10:11:29Z</time></trkpt><trkpt lat="42.997793" lon="-5.765778"><ele>1263.382</ele><time>2015-10-26T10:11:44Z</time></trkpt><trkpt lat="42.997830" lon="-5.765923"><ele>1259.514</ele><time>2015-10-26T10:11:59Z</time></trkpt><trkpt lat="42.997833" lon="-5.765931"><ele>1259.542</ele><time>2015-10-26T10:12:00Z</time></trkpt><trkpt lat="42.997862" lon="-5.766077"><ele>1257.577</ele><time>2015-10-26T10:12:14Z</time></trkpt><trkpt lat="42.997890" lon="-5.766200"><ele>1255.661</ele><time>2015-10-26T10:12:28Z</time></trkpt><trkpt lat="42.997904" lon="-5.766311"><ele>1255.127</ele><time>2015-10-26T10:12:43Z</time></trkpt><trkpt lat="42.997883" lon="-5.766441"><ele>1255.108</ele><time>2015-10-26T10:12:57Z</time></trkpt><trkpt lat="42.997893" lon="-5.766481"><ele>1255.138</ele><time>2015-10-26T10:13:12Z</time></trkpt><trkpt lat="42.997904" lon="-5.766501"><ele>1256.688</ele><time>2015-10-26T10:13:14Z</time></trkpt><trkpt lat="42.997927" lon="-5.766580"><ele>1257.181</ele><time>2015-10-26T10:13:32Z</time></trkpt><trkpt lat="42.997922" lon="-5.766716"><ele>1255.690</ele><time>2015-10-26T10:13:47Z</time></trkpt><trkpt lat="42.997912" lon="-5.766821"><ele>1252.235</ele><time>2015-10-26T10:13:59Z</time></trkpt><trkpt lat="42.997901" lon="-5.766850"><ele>1250.846</ele><time>2015-10-26T10:14:03Z</time></trkpt><trkpt lat="42.997906" lon="-5.766930"><ele>1248.438</ele><time>2015-10-26T10:14:18Z</time></trkpt><trkpt lat="42.997910" lon="-5.767056"><ele>1246.076</ele><time>2015-10-26T10:14:33Z</time></trkpt><trkpt lat="42.997943" lon="-5.767171"><ele>1244.672</ele><time>2015-10-26T10:14:48Z</time></trkpt><trkpt lat="42.997981" lon="-5.767368"><ele>1245.013</ele><time>2015-10-26T10:15:04Z</time></trkpt><trkpt lat="42.998029" lon="-5.767530"><ele>1243.614</ele><time>2015-10-26T10:15:18Z</time></trkpt><trkpt lat="42.998054" lon="-5.767649"><ele>1242.208</ele><time>2015-10-26T10:15:33Z</time></trkpt><trkpt lat="42.998078" lon="-5.767772"><ele>1240.218</ele><time>2015-10-26T10:15:48Z</time></trkpt><trkpt lat="42.998093" lon="-5.767833"><ele>1238.818</ele><time>2015-10-26T10:15:54Z</time></trkpt><trkpt lat="42.998114" lon="-5.767886"><ele>1239.391</ele><time>2015-10-26T10:15:58Z</time></trkpt><trkpt lat="42.998168" lon="-5.768048"><ele>1237.890</ele><time>2015-10-26T10:16:13Z</time></trkpt><trkpt lat="42.998181" lon="-5.768199"><ele>1235.475</ele><time>2015-10-26T10:16:27Z</time></trkpt><trkpt lat="42.998243" lon="-5.768320"><ele>1233.046</ele><time>2015-10-26T10:16:38Z</time></trkpt><trkpt lat="42.998242" lon="-5.768347"><ele>1233.078</ele><time>2015-10-26T10:16:40Z</time></trkpt><trkpt lat="42.998268" lon="-5.768480"><ele>1230.656</ele><time>2015-10-26T10:16:51Z</time></trkpt><trkpt lat="42.998358" lon="-5.768616"><ele>1228.721</ele><time>2015-10-26T10:17:05Z</time></trkpt><trkpt lat="42.998413" lon="-5.768758"><ele>1225.341</ele><time>2015-10-26T10:17:20Z</time></trkpt><trkpt lat="42.998433" lon="-5.768836"><ele>1222.405</ele><time>2015-10-26T10:17:31Z</time></trkpt><trkpt lat="42.998437" lon="-5.768880"><ele>1221.008</ele><time>2015-10-26T10:17:37Z</time></trkpt><trkpt lat="42.998430" lon="-5.768965"><ele>1217.733</ele><time>2015-10-26T10:17:49Z</time></trkpt><trkpt lat="42.998487" lon="-5.769055"><ele>1214.823</ele><time>2015-10-26T10:18:02Z</time></trkpt><trkpt lat="42.998533" lon="-5.769145"><ele>1211.946</ele><time>2015-10-26T10:18:17Z</time></trkpt><trkpt lat="42.998572" lon="-5.769227"><ele>1209.045</ele><time>2015-10-26T10:18:26Z</time></trkpt><trkpt lat="42.998623" lon="-5.769352"><ele>1205.220</ele><time>2015-10-26T10:18:39Z</time></trkpt><trkpt lat="42.998711" lon="-5.769467"><ele>1203.771</ele><time>2015-10-26T10:18:52Z</time></trkpt><trkpt lat="42.998778" lon="-5.769529"><ele>1202.363</ele><time>2015-10-26T10:19:03Z</time></trkpt><trkpt lat="42.998792" lon="-5.769690"><ele>1198.491</ele><time>2015-10-26T10:19:13Z</time></trkpt><trkpt lat="42.998827" lon="-5.769750"><ele>1197.078</ele><time>2015-10-26T10:19:20Z</time></trkpt><trkpt lat="42.998901" lon="-5.769858"><ele>1197.033</ele><time>2015-10-26T10:19:32Z</time></trkpt><trkpt lat="42.998958" lon="-5.769990"><ele>1195.126</ele><time>2015-10-26T10:19:46Z</time></trkpt><trkpt lat="42.998972" lon="-5.770039"><ele>1192.208</ele><time>2015-10-26T10:19:58Z</time></trkpt><trkpt lat="42.999001" lon="-5.770049"><ele>1190.738</ele><time>2015-10-26T10:20:02Z</time></trkpt><trkpt lat="42.999062" lon="-5.770166"><ele>1187.888</ele><time>2015-10-26T10:20:15Z</time></trkpt><trkpt lat="42.999060" lon="-5.770261"><ele>1185.441</ele><time>2015-10-26T10:20:23Z</time></trkpt><trkpt lat="42.999036" lon="-5.770339"><ele>1183.540</ele><time>2015-10-26T10:20:38Z</time></trkpt><trkpt lat="42.999076" lon="-5.770394"><ele>1180.265</ele><time>2015-10-26T10:20:51Z</time></trkpt><trkpt lat="42.999041" lon="-5.770473"><ele>1177.386</ele><time>2015-10-26T10:21:05Z</time></trkpt><trkpt lat="42.999069" lon="-5.770481"><ele>1174.418</ele><time>2015-10-26T10:21:16Z</time></trkpt><trkpt lat="42.999084" lon="-5.770502"><ele>1173.466</ele><time>2015-10-26T10:21:20Z</time></trkpt><trkpt lat="42.999172" lon="-5.770534"><ele>1170.196</ele><time>2015-10-26T10:21:33Z</time></trkpt><trkpt lat="42.999227" lon="-5.770636"><ele>1167.731</ele><time>2015-10-26T10:21:43Z</time></trkpt><trkpt lat="42.999330" lon="-5.770704"><ele>1164.824</ele><time>2015-10-26T10:21:59Z</time></trkpt><trkpt lat="42.999349" lon="-5.770762"><ele>1163.808</ele><time>2015-10-26T10:22:15Z</time></trkpt><trkpt lat="42.999371" lon="-5.770807"><ele>1163.880</ele><time>2015-10-26T10:22:32Z</time></trkpt><trkpt lat="42.999395" lon="-5.770760"><ele>1164.890</ele><time>2015-10-26T10:22:52Z</time></trkpt><trkpt lat="42.999406" lon="-5.770746"><ele>1163.363</ele><time>2015-10-26T10:22:54Z</time></trkpt><trkpt lat="42.999468" lon="-5.770691"><ele>1161.422</ele><time>2015-10-26T10:23:08Z</time></trkpt><trkpt lat="42.999500" lon="-5.770619"><ele>1159.027</ele><time>2015-10-26T10:23:22Z</time></trkpt><trkpt lat="42.999493" lon="-5.770579"><ele>1159.078</ele><time>2015-10-26T10:23:40Z</time></trkpt><trkpt lat="42.999473" lon="-5.770518"><ele>1159.080</ele><time>2015-10-26T10:24:10Z</time></trkpt><trkpt lat="42.999460" lon="-5.770551"><ele>1159.068</ele><time>2015-10-26T10:24:32Z</time></trkpt><trkpt lat="42.999494" lon="-5.770526"><ele>1157.683</ele><time>2015-10-26T10:24:48Z</time></trkpt><trkpt lat="42.999516" lon="-5.770458"><ele>1156.625</ele><time>2015-10-26T10:25:03Z</time></trkpt><trkpt lat="42.999532" lon="-5.770377"><ele>1155.217</ele><time>2015-10-26T10:25:21Z</time></trkpt><trkpt lat="42.999534" lon="-5.770337"><ele>1154.708</ele><time>2015-10-26T10:25:31Z</time></trkpt><trkpt lat="42.999581" lon="-5.770277"><ele>1153.779</ele><time>2015-10-26T10:25:49Z</time></trkpt><trkpt lat="42.999593" lon="-5.770203"><ele>1153.729</ele><time>2015-10-26T10:26:04Z</time></trkpt><trkpt lat="42.999615" lon="-5.770124"><ele>1155.282</ele><time>2015-10-26T10:26:20Z</time></trkpt><trkpt lat="42.999665" lon="-5.770039"><ele>1155.611</ele><time>2015-10-26T10:26:37Z</time></trkpt><trkpt lat="42.999698" lon="-5.769943"><ele>1155.646</ele><time>2015-10-26T10:26:52Z</time></trkpt><trkpt lat="42.999727" lon="-5.769856"><ele>1153.777</ele><time>2015-10-26T10:27:09Z</time></trkpt><trkpt lat="42.999728" lon="-5.769756"><ele>1152.389</ele><time>2015-10-26T10:27:27Z</time></trkpt><trkpt lat="42.999806" lon="-5.769695"><ele>1151.867</ele><time>2015-10-26T10:27:48Z</time></trkpt><trkpt lat="42.999814" lon="-5.769693"><ele>1151.383</ele><time>2015-10-26T10:28:12Z</time></trkpt><trkpt lat="42.999830" lon="-5.769660"><ele>1150.325</ele><time>2015-10-26T10:28:32Z</time></trkpt><trkpt lat="42.999890" lon="-5.769667"><ele>1149.417</ele><time>2015-10-26T10:28:51Z</time></trkpt><trkpt lat="42.999924" lon="-5.769642"><ele>1148.908</ele><time>2015-10-26T10:29:12Z</time></trkpt><trkpt lat="42.999958" lon="-5.769641"><ele>1148.469</ele><time>2015-10-26T10:29:27Z</time></trkpt><trkpt lat="43.000023" lon="-5.769623"><ele>1146.029</ele><time>2015-10-26T10:29:42Z</time></trkpt><trkpt lat="43.000027" lon="-5.769631"><ele>1145.142</ele><time>2015-10-26T10:29:55Z</time></trkpt><trkpt lat="43.000097" lon="-5.769610"><ele>1143.621</ele><time>2015-10-26T10:30:11Z</time></trkpt><trkpt lat="43.000147" lon="-5.769595"><ele>1140.736</ele><time>2015-10-26T10:30:29Z</time></trkpt><trkpt lat="43.000155" lon="-5.769544"><ele>1140.327</ele><time>2015-10-26T10:30:48Z</time></trkpt><trkpt lat="43.000168" lon="-5.769504"><ele>1139.849</ele><time>2015-10-26T10:31:07Z</time></trkpt><trkpt lat="43.000197" lon="-5.769466"><ele>1138.897</ele><time>2015-10-26T10:31:22Z</time></trkpt><trkpt lat="43.000222" lon="-5.769438"><ele>1138.338</ele><time>2015-10-26T10:31:39Z</time></trkpt><trkpt lat="43.000266" lon="-5.769454"><ele>1138.370</ele><time>2015-10-26T10:31:58Z</time></trkpt><trkpt lat="43.000292" lon="-5.769408"><ele>1138.817</ele><time>2015-10-26T10:32:13Z</time></trkpt><trkpt lat="43.000325" lon="-5.769408"><ele>1138.808</ele><time>2015-10-26T10:32:18Z</time></trkpt><trkpt lat="43.000400" lon="-5.769498"><ele>1138.814</ele><time>2015-10-26T10:32:27Z</time></trkpt><trkpt lat="43.000480" lon="-5.769539"><ele>1138.864</ele><time>2015-10-26T10:32:34Z</time></trkpt><trkpt lat="43.000500" lon="-5.769536"><ele>1138.327</ele><time>2015-10-26T10:32:37Z</time></trkpt><trkpt lat="43.000621" lon="-5.769638"><ele>1135.936</ele><time>2015-10-26T10:32:51Z</time></trkpt><trkpt lat="43.000661" lon="-5.769698"><ele>1134.091</ele><time>2015-10-26T10:33:04Z</time></trkpt><trkpt lat="43.000663" lon="-5.769710"><ele>1134.072</ele><time>2015-10-26T10:33:05Z</time></trkpt><trkpt lat="43.000686" lon="-5.769762"><ele>1131.694</ele><time>2015-10-26T10:33:18Z</time></trkpt><trkpt lat="43.000741" lon="-5.769828"><ele>1129.722</ele><time>2015-10-26T10:33:30Z</time></trkpt><trkpt lat="43.000809" lon="-5.769898"><ele>1127.366</ele><time>2015-10-26T10:33:42Z</time></trkpt><trkpt lat="43.000891" lon="-5.769932"><ele>1124.429</ele><time>2015-10-26T10:33:55Z</time></trkpt><trkpt lat="43.000945" lon="-5.769990"><ele>1122.521</ele><time>2015-10-26T10:34:08Z</time></trkpt><trkpt lat="43.000995" lon="-5.770085"><ele>1120.108</ele><time>2015-10-26T10:34:21Z</time></trkpt><trkpt lat="43.001005" lon="-5.770176"><ele>1117.787</ele><time>2015-10-26T10:34:34Z</time></trkpt><trkpt lat="43.001022" lon="-5.770247"><ele>1115.867</ele><time>2015-10-26T10:34:42Z</time></trkpt><trkpt lat="43.001018" lon="-5.770383"><ele>1114.850</ele><time>2015-10-26T10:34:54Z</time></trkpt><trkpt lat="43.001028" lon="-5.770396"><ele>1114.859</ele><time>2015-10-26T10:34:56Z</time></trkpt><trkpt lat="43.001074" lon="-5.770410"><ele>1112.484</ele><time>2015-10-26T10:35:07Z</time></trkpt><trkpt lat="43.001086" lon="-5.770420"><ele>1111.915</ele><time>2015-10-26T10:35:09Z</time></trkpt><trkpt lat="43.001122" lon="-5.770496"><ele>1109.547</ele><time>2015-10-26T10:35:16Z</time></trkpt><trkpt lat="43.001143" lon="-5.770547"><ele>1108.575</ele><time>2015-10-26T10:35:21Z</time></trkpt><trkpt lat="43.001233" lon="-5.770665"><ele>1106.185</ele><time>2015-10-26T10:35:37Z</time></trkpt><trkpt lat="43.001297" lon="-5.770774"><ele>1103.789</ele><time>2015-10-26T10:35:51Z</time></trkpt><trkpt lat="43.001368" lon="-5.770873"><ele>1100.417</ele><time>2015-10-26T10:36:03Z</time></trkpt><trkpt lat="43.001440" lon="-5.770964"><ele>1097.008</ele><time>2015-10-26T10:36:15Z</time></trkpt><trkpt lat="43.001449" lon="-5.770965"><ele>1096.589</ele><time>2015-10-26T10:36:17Z</time></trkpt><trkpt lat="43.001558" lon="-5.770974"><ele>1096.529</ele><time>2015-10-26T10:36:31Z</time></trkpt><trkpt lat="43.001638" lon="-5.771055"><ele>1094.192</ele><time>2015-10-26T10:36:44Z</time></trkpt><trkpt lat="43.001646" lon="-5.771060"><ele>1094.181</ele><time>2015-10-26T10:36:45Z</time></trkpt><trkpt lat="43.001760" lon="-5.771064"><ele>1094.186</ele><time>2015-10-26T10:36:54Z</time></trkpt><trkpt lat="43.001869" lon="-5.771108"><ele>1093.237</ele><time>2015-10-26T10:37:07Z</time></trkpt><trkpt lat="43.001890" lon="-5.771127"><ele>1091.739</ele><time>2015-10-26T10:37:10Z</time></trkpt><trkpt lat="43.002052" lon="-5.771135"><ele>1089.857</ele><time>2015-10-26T10:37:26Z</time></trkpt><trkpt lat="43.002138" lon="-5.771122"><ele>1089.347</ele><time>2015-10-26T10:37:34Z</time></trkpt><trkpt lat="43.002285" lon="-5.771152"><ele>1087.429</ele><time>2015-10-26T10:37:49Z</time></trkpt><trkpt lat="43.002292" lon="-5.771150"><ele>1087.421</ele><time>2015-10-26T10:37:50Z</time></trkpt><trkpt lat="43.002384" lon="-5.771119"><ele>1085.508</ele><time>2015-10-26T10:38:04Z</time></trkpt><trkpt lat="43.002459" lon="-5.771103"><ele>1082.655</ele><time>2015-10-26T10:38:17Z</time></trkpt><trkpt lat="43.002529" lon="-5.771030"><ele>1079.715</ele><time>2015-10-26T10:38:32Z</time></trkpt><trkpt lat="43.002537" lon="-5.771028"><ele>1080.238</ele><time>2015-10-26T10:38:33Z</time></trkpt><trkpt lat="43.002585" lon="-5.770987"><ele>1078.337</ele><time>2015-10-26T10:38:39Z</time></trkpt><trkpt lat="43.002611" lon="-5.770851"><ele>1074.932</ele><time>2015-10-26T10:38:54Z</time></trkpt><trkpt lat="43.002628" lon="-5.770754"><ele>1074.493</ele><time>2015-10-26T10:39:02Z</time></trkpt><trkpt lat="43.002701" lon="-5.770631"><ele>1072.585</ele><time>2015-10-26T10:39:16Z</time></trkpt><trkpt lat="43.002814" lon="-5.770539"><ele>1072.533</ele><time>2015-10-26T10:39:31Z</time></trkpt><trkpt lat="43.002902" lon="-5.770467"><ele>1072.573</ele><time>2015-10-26T10:39:45Z</time></trkpt><trkpt lat="43.002989" lon="-5.770406"><ele>1071.585</ele><time>2015-10-26T10:39:59Z</time></trkpt><trkpt lat="43.003092" lon="-5.770416"><ele>1069.113</ele><time>2015-10-26T10:40:17Z</time></trkpt><trkpt lat="43.003240" lon="-5.770407"><ele>1068.208</ele><time>2015-10-26T10:40:31Z</time></trkpt><trkpt lat="43.003347" lon="-5.770426"><ele>1066.728</ele><time>2015-10-26T10:40:44Z</time></trkpt><trkpt lat="43.003413" lon="-5.770502"><ele>1064.878</ele><time>2015-10-26T10:40:57Z</time></trkpt><trkpt lat="43.003487" lon="-5.770625"><ele>1062.981</ele><time>2015-10-26T10:41:14Z</time></trkpt><trkpt lat="43.003531" lon="-5.770707"><ele>1060.070</ele><time>2015-10-26T10:41:29Z</time></trkpt><trkpt lat="43.003588" lon="-5.770779"><ele>1057.145</ele><time>2015-10-26T10:41:43Z</time></trkpt><trkpt lat="43.003647" lon="-5.770832"><ele>1055.256</ele><time>2015-10-26T10:41:58Z</time></trkpt><trkpt lat="43.003715" lon="-5.770898"><ele>1052.868</ele><time>2015-10-26T10:42:14Z</time></trkpt><trkpt lat="43.003775" lon="-5.770966"><ele>1050.446</ele><time>2015-10-26T10:42:27Z</time></trkpt><trkpt lat="43.003844" lon="-5.770966"><ele>1049.996</ele><time>2015-10-26T10:42:39Z</time></trkpt><trkpt lat="43.003951" lon="-5.770910"><ele>1048.431</ele><time>2015-10-26T10:42:52Z</time></trkpt><trkpt lat="43.004088" lon="-5.770744"><ele>1048.024</ele><time>2015-10-26T10:43:09Z</time></trkpt><trkpt lat="43.004091" lon="-5.770731"><ele>1048.008</ele><time>2015-10-26T10:43:10Z</time></trkpt><trkpt lat="43.004178" lon="-5.770559"><ele>1049.470</ele><time>2015-10-26T10:43:25Z</time></trkpt><trkpt lat="43.004217" lon="-5.770488"><ele>1049.440</ele><time>2015-10-26T10:43:34Z</time></trkpt><trkpt lat="43.004292" lon="-5.770389"><ele>1049.923</ele><time>2015-10-26T10:43:50Z</time></trkpt><trkpt lat="43.004332" lon="-5.770325"><ele>1049.422</ele><time>2015-10-26T10:44:07Z</time></trkpt><trkpt lat="43.004370" lon="-5.770222"><ele>1049.997</ele><time>2015-10-26T10:44:18Z</time></trkpt><trkpt lat="43.004533" lon="-5.770138"><ele>1050.988</ele><time>2015-10-26T10:44:35Z</time></trkpt><trkpt lat="43.004595" lon="-5.770140"><ele>1050.950</ele><time>2015-10-26T10:44:42Z</time></trkpt><trkpt lat="43.004696" lon="-5.770181"><ele>1050.448</ele><time>2015-10-26T10:44:53Z</time></trkpt><trkpt lat="43.004809" lon="-5.770208"><ele>1049.917</ele><time>2015-10-26T10:45:07Z</time></trkpt><trkpt lat="43.004953" lon="-5.770273"><ele>1048.987</ele><time>2015-10-26T10:45:23Z</time></trkpt><trkpt lat="43.005091" lon="-5.770340"><ele>1047.515</ele><time>2015-10-26T10:45:38Z</time></trkpt><trkpt lat="43.005256" lon="-5.770380"><ele>1045.608</ele><time>2015-10-26T10:45:53Z</time></trkpt><trkpt lat="43.005378" lon="-5.770375"><ele>1045.642</ele><time>2015-10-26T10:46:03Z</time></trkpt><trkpt lat="43.005567" lon="-5.770353"><ele>1044.112</ele><time>2015-10-26T10:46:20Z</time></trkpt><trkpt lat="43.005644" lon="-5.770336"><ele>1044.115</ele><time>2015-10-26T10:46:27Z</time></trkpt><trkpt lat="43.005790" lon="-5.770288"><ele>1045.114</ele><time>2015-10-26T10:46:42Z</time></trkpt><trkpt lat="43.005911" lon="-5.770247"><ele>1045.169</ele><time>2015-10-26T10:46:56Z</time></trkpt><trkpt lat="43.006040" lon="-5.770179"><ele>1047.010</ele><time>2015-10-26T10:47:12Z</time></trkpt><trkpt lat="43.006114" lon="-5.770104"><ele>1045.632</ele><time>2015-10-26T10:47:22Z</time></trkpt><trkpt lat="43.006158" lon="-5.770052"><ele>1045.640</ele><time>2015-10-26T10:47:29Z</time></trkpt><trkpt lat="43.006248" lon="-5.769903"><ele>1047.098</ele><time>2015-10-26T10:47:45Z</time></trkpt><trkpt lat="43.006328" lon="-5.769741"><ele>1047.515</ele><time>2015-10-26T10:47:59Z</time></trkpt><trkpt lat="43.006443" lon="-5.769553"><ele>1047.526</ele><time>2015-10-26T10:48:17Z</time></trkpt><trkpt lat="43.006584" lon="-5.769411"><ele>1047.508</ele><time>2015-10-26T10:48:36Z</time></trkpt><trkpt lat="43.006684" lon="-5.769297"><ele>1048.430</ele><time>2015-10-26T10:48:50Z</time></trkpt><trkpt lat="43.006791" lon="-5.769173"><ele>1049.440</ele><time>2015-10-26T10:49:05Z</time></trkpt><trkpt lat="43.006896" lon="-5.769052"><ele>1049.493</ele><time>2015-10-26T10:49:19Z</time></trkpt><trkpt lat="43.006981" lon="-5.768932"><ele>1048.442</ele><time>2015-10-26T10:49:33Z</time></trkpt><trkpt lat="43.006988" lon="-5.768922"><ele>1048.477</ele><time>2015-10-26T10:49:34Z</time></trkpt><trkpt lat="43.007075" lon="-5.768760"><ele>1047.058</ele><time>2015-10-26T10:49:48Z</time></trkpt><trkpt lat="43.007082" lon="-5.768733"><ele>1048.490</ele><time>2015-10-26T10:49:50Z</time></trkpt><trkpt lat="43.007148" lon="-5.768622"><ele>1048.488</ele><time>2015-10-26T10:50:02Z</time></trkpt><trkpt lat="43.007155" lon="-5.768610"><ele>1048.478</ele><time>2015-10-26T10:50:03Z</time></trkpt><trkpt lat="43.007197" lon="-5.768566"><ele>1048.433</ele><time>2015-10-26T10:50:07Z</time></trkpt><trkpt lat="43.007360" lon="-5.768338"><ele>1045.626</ele><time>2015-10-26T10:50:28Z</time></trkpt><trkpt lat="43.007482" lon="-5.768216"><ele>1046.508</ele><time>2015-10-26T10:50:43Z</time></trkpt><trkpt lat="43.007489" lon="-5.768207"><ele>1046.548</ele><time>2015-10-26T10:50:44Z</time></trkpt><trkpt lat="43.007509" lon="-5.768177"><ele>1045.198</ele><time>2015-10-26T10:50:47Z</time></trkpt><trkpt lat="43.007570" lon="-5.768061"><ele>1045.641</ele><time>2015-10-26T10:50:58Z</time></trkpt><trkpt lat="43.007587" lon="-5.768032"><ele>1045.610</ele><time>2015-10-26T10:51:01Z</time></trkpt><trkpt lat="43.007602" lon="-5.767996"><ele>1045.635</ele><time>2015-10-26T10:51:04Z</time></trkpt><trkpt lat="43.007705" lon="-5.767828"><ele>1046.556</ele><time>2015-10-26T10:51:20Z</time></trkpt><trkpt lat="43.007711" lon="-5.767806"><ele>1046.568</ele><time>2015-10-26T10:51:22Z</time></trkpt><trkpt lat="43.007731" lon="-5.767735"><ele>1046.526</ele><time>2015-10-26T10:51:28Z</time></trkpt><trkpt lat="43.007765" lon="-5.767635"><ele>1045.111</ele><time>2015-10-26T10:51:37Z</time></trkpt><trkpt lat="43.007840" lon="-5.767498"><ele>1043.721</ele><time>2015-10-26T10:51:51Z</time></trkpt><trkpt lat="43.007933" lon="-5.767366"><ele>1042.203</ele><time>2015-10-26T10:52:05Z</time></trkpt><trkpt lat="43.008085" lon="-5.767342"><ele>1041.208</ele><time>2015-10-26T10:52:19Z</time></trkpt><trkpt lat="43.008105" lon="-5.767351"><ele>1041.262</ele><time>2015-10-26T10:52:21Z</time></trkpt><trkpt lat="43.008160" lon="-5.767446"><ele>1041.282</ele><time>2015-10-26T10:52:29Z</time></trkpt><trkpt lat="43.008189" lon="-5.767719"><ele>1041.215</ele><time>2015-10-26T10:52:44Z</time></trkpt><trkpt lat="43.008222" lon="-5.767867"><ele>1043.224</ele><time>2015-10-26T10:52:58Z</time></trkpt><trkpt lat="43.008290" lon="-5.767990"><ele>1045.629</ele><time>2015-10-26T10:53:12Z</time></trkpt><trkpt lat="43.008361" lon="-5.768078"><ele>1046.130</ele><time>2015-10-26T10:53:27Z</time></trkpt><trkpt lat="43.008451" lon="-5.768135"><ele>1046.532</ele><time>2015-10-26T10:53:42Z</time></trkpt><trkpt lat="43.008498" lon="-5.768161"><ele>1047.090</ele><time>2015-10-26T10:53:48Z</time></trkpt><trkpt lat="43.008634" lon="-5.768175"><ele>1047.031</ele><time>2015-10-26T10:54:04Z</time></trkpt><trkpt lat="43.008691" lon="-5.768178"><ele>1047.061</ele><time>2015-10-26T10:54:14Z</time></trkpt><trkpt lat="43.008756" lon="-5.768204"><ele>1047.507</ele><time>2015-10-26T10:54:28Z</time></trkpt><trkpt lat="43.008833" lon="-5.768247"><ele>1047.508</ele><time>2015-10-26T10:54:42Z</time></trkpt><trkpt lat="43.008882" lon="-5.768268"><ele>1047.544</ele><time>2015-10-26T10:54:57Z</time></trkpt><trkpt lat="43.008905" lon="-5.768336"><ele>1047.534</ele><time>2015-10-26T10:55:11Z</time></trkpt><trkpt lat="43.008930" lon="-5.768360"><ele>1048.017</ele><time>2015-10-26T10:55:27Z</time></trkpt><trkpt lat="43.009025" lon="-5.768390"><ele>1048.066</ele><time>2015-10-26T10:55:41Z</time></trkpt><trkpt lat="43.008987" lon="-5.768400"><ele>1048.061</ele><time>2015-10-26T10:55:49Z</time></trkpt><trkpt lat="43.008917" lon="-5.768380"><ele>1048.032</ele><time>2015-10-26T10:56:04Z</time></trkpt><trkpt lat="43.008901" lon="-5.768366"><ele>1048.064</ele><time>2015-10-26T10:56:25Z</time></trkpt><trkpt lat="43.008983" lon="-5.768346"><ele>1048.092</ele><time>2015-10-26T10:56:40Z</time></trkpt><trkpt lat="43.009101" lon="-5.768428"><ele>1048.087</ele><time>2015-10-26T10:56:55Z</time></trkpt><trkpt lat="43.009222" lon="-5.768483"><ele>1049.942</ele><time>2015-10-26T10:57:09Z</time></trkpt><trkpt lat="43.009325" lon="-5.768556"><ele>1051.326</ele><time>2015-10-26T10:57:21Z</time></trkpt><trkpt lat="43.009444" lon="-5.768708"><ele>1053.708</ele><time>2015-10-26T10:57:37Z</time></trkpt><trkpt lat="43.009495" lon="-5.768747"><ele>1054.729</ele><time>2015-10-26T10:57:44Z</time></trkpt><trkpt lat="43.009593" lon="-5.768774"><ele>1055.719</ele><time>2015-10-26T10:57:55Z</time></trkpt><trkpt lat="43.009763" lon="-5.768783"><ele>1056.622</ele><time>2015-10-26T10:58:12Z</time></trkpt><trkpt lat="43.009872" lon="-5.768808"><ele>1058.111</ele><time>2015-10-26T10:58:25Z</time></trkpt><trkpt lat="43.009881" lon="-5.768808"><ele>1058.116</ele><time>2015-10-26T10:58:26Z</time></trkpt><trkpt lat="43.009914" lon="-5.768810"><ele>1058.677</ele><time>2015-10-26T10:58:30Z</time></trkpt><trkpt lat="43.010044" lon="-5.768862"><ele>1060.069</ele><time>2015-10-26T10:58:45Z</time></trkpt><trkpt lat="43.010153" lon="-5.769025"><ele>1060.517</ele><time>2015-10-26T10:58:59Z</time></trkpt><trkpt lat="43.010230" lon="-5.769266"><ele>1060.539</ele><time>2015-10-26T10:59:15Z</time></trkpt><trkpt lat="43.010272" lon="-5.769514"><ele>1060.901</ele><time>2015-10-26T10:59:31Z</time></trkpt><trkpt lat="43.010311" lon="-5.769741"><ele>1060.921</ele><time>2015-10-26T10:59:46Z</time></trkpt><trkpt lat="43.010358" lon="-5.769940"><ele>1060.908</ele><time>2015-10-26T11:00:01Z</time></trkpt><trkpt lat="43.010424" lon="-5.770157"><ele>1060.964</ele><time>2015-10-26T11:00:16Z</time></trkpt><trkpt lat="43.010476" lon="-5.770414"><ele>1061.454</ele><time>2015-10-26T11:00:33Z</time></trkpt><trkpt lat="43.010495" lon="-5.770452"><ele>1061.487</ele><time>2015-10-26T11:00:47Z</time></trkpt><trkpt lat="43.010553" lon="-5.770714"><ele>1061.976</ele><time>2015-10-26T11:01:06Z</time></trkpt><trkpt lat="43.010590" lon="-5.770886"><ele>1062.921</ele><time>2015-10-26T11:01:20Z</time></trkpt><trkpt lat="43.010641" lon="-5.771117"><ele>1063.432</ele><time>2015-10-26T11:01:37Z</time></trkpt><trkpt lat="43.010646" lon="-5.771145"><ele>1063.884</ele><time>2015-10-26T11:01:39Z</time></trkpt><trkpt lat="43.010711" lon="-5.771290"><ele>1065.812</ele><time>2015-10-26T11:01:53Z</time></trkpt><trkpt lat="43.010748" lon="-5.771323"><ele>1065.351</ele><time>2015-10-26T11:01:58Z</time></trkpt><trkpt lat="43.010899" lon="-5.771475"><ele>1065.801</ele><time>2015-10-26T11:02:16Z</time></trkpt><trkpt lat="43.010974" lon="-5.771603"><ele>1065.811</ele><time>2015-10-26T11:02:27Z</time></trkpt><trkpt lat="43.010989" lon="-5.771759"><ele>1062.908</ele><time>2015-10-26T11:02:40Z</time></trkpt><trkpt lat="43.010986" lon="-5.771861"><ele>1060.066</ele><time>2015-10-26T11:02:53Z</time></trkpt><trkpt lat="43.010985" lon="-5.771979"><ele>1056.676</ele><time>2015-10-26T11:03:05Z</time></trkpt><trkpt lat="43.010936" lon="-5.772104"><ele>1056.259</ele><time>2015-10-26T11:03:20Z</time></trkpt><trkpt lat="43.010855" lon="-5.772172"><ele>1052.858</ele><time>2015-10-26T11:03:32Z</time></trkpt><trkpt lat="43.010800" lon="-5.772209"><ele>1049.473</ele><time>2015-10-26T11:03:46Z</time></trkpt><trkpt lat="43.010763" lon="-5.772294"><ele>1046.564</ele><time>2015-10-26T11:04:00Z</time></trkpt><trkpt lat="43.010820" lon="-5.772473"><ele>1045.616</ele><time>2015-10-26T11:04:15Z</time></trkpt><trkpt lat="43.010859" lon="-5.772622"><ele>1044.124</ele><time>2015-10-26T11:04:29Z</time></trkpt><trkpt lat="43.010869" lon="-5.772750"><ele>1043.258</ele><time>2015-10-26T11:04:43Z</time></trkpt><trkpt lat="43.010958" lon="-5.772908"><ele>1043.252</ele><time>2015-10-26T11:04:57Z</time></trkpt><trkpt lat="43.011025" lon="-5.773081"><ele>1043.217</ele><time>2015-10-26T11:05:10Z</time></trkpt><trkpt lat="43.011031" lon="-5.773127"><ele>1042.208</ele><time>2015-10-26T11:05:13Z</time></trkpt><trkpt lat="43.011046" lon="-5.773324"><ele>1039.856</ele><time>2015-10-26T11:05:27Z</time></trkpt><trkpt lat="43.011057" lon="-5.773553"><ele>1037.466</ele><time>2015-10-26T11:05:41Z</time></trkpt><trkpt lat="43.011083" lon="-5.773703"><ele>1038.829</ele><time>2015-10-26T11:05:54Z</time></trkpt><trkpt lat="43.011069" lon="-5.773807"><ele>1036.468</ele><time>2015-10-26T11:06:00Z</time></trkpt><trkpt lat="43.011046" lon="-5.773933"><ele>1035.533</ele><time>2015-10-26T11:06:08Z</time></trkpt><trkpt lat="43.010984" lon="-5.774137"><ele>1035.094</ele><time>2015-10-26T11:06:23Z</time></trkpt><trkpt lat="43.010981" lon="-5.774157"><ele>1035.016</ele><time>2015-10-26T11:06:25Z</time></trkpt><trkpt lat="43.010980" lon="-5.774197"><ele>1036.494</ele><time>2015-10-26T11:06:28Z</time></trkpt><trkpt lat="43.011002" lon="-5.774411"><ele>1037.486</ele><time>2015-10-26T11:06:42Z</time></trkpt><trkpt lat="43.011067" lon="-5.774528"><ele>1037.460</ele><time>2015-10-26T11:06:54Z</time></trkpt><trkpt lat="43.011133" lon="-5.774666"><ele>1034.526</ele><time>2015-10-26T11:07:07Z</time></trkpt><trkpt lat="43.011243" lon="-5.774814"><ele>1033.608</ele><time>2015-10-26T11:07:22Z</time></trkpt><trkpt lat="43.011346" lon="-5.774983"><ele>1031.219</ele><time>2015-10-26T11:07:36Z</time></trkpt><trkpt lat="43.011461" lon="-5.775158"><ele>1029.789</ele><time>2015-10-26T11:07:52Z</time></trkpt><trkpt lat="43.011556" lon="-5.775272"><ele>1026.832</ele><time>2015-10-26T11:08:06Z</time></trkpt><trkpt lat="43.011636" lon="-5.775433"><ele>1025.431</ele><time>2015-10-26T11:08:20Z</time></trkpt><trkpt lat="43.011741" lon="-5.775466"><ele>1022.516</ele><time>2015-10-26T11:08:35Z</time></trkpt><trkpt lat="43.011808" lon="-5.775444"><ele>1021.587</ele><time>2015-10-26T11:08:43Z</time></trkpt><trkpt lat="43.011903" lon="-5.775429"><ele>1019.689</ele><time>2015-10-26T11:08:52Z</time></trkpt><trkpt lat="43.011934" lon="-5.775429"><ele>1019.677</ele><time>2015-10-26T11:08:55Z</time></trkpt><trkpt lat="43.012067" lon="-5.775442"><ele>1019.124</ele><time>2015-10-26T11:09:06Z</time></trkpt><trkpt lat="43.012168" lon="-5.775503"><ele>1017.704</ele><time>2015-10-26T11:09:17Z</time></trkpt><trkpt lat="43.012230" lon="-5.775529"><ele>1017.214</ele><time>2015-10-26T11:09:22Z</time></trkpt><trkpt lat="43.012291" lon="-5.775563"><ele>1016.708</ele><time>2015-10-26T11:09:28Z</time></trkpt><trkpt lat="43.012440" lon="-5.775637"><ele>1016.793</ele><time>2015-10-26T11:09:42Z</time></trkpt><trkpt lat="43.012545" lon="-5.775695"><ele>1018.233</ele><time>2015-10-26T11:09:52Z</time></trkpt><trkpt lat="43.012694" lon="-5.775787"><ele>1018.256</ele><time>2015-10-26T11:10:07Z</time></trkpt><trkpt lat="43.012764" lon="-5.775842"><ele>1016.225</ele><time>2015-10-26T11:10:13Z</time></trkpt><trkpt lat="43.012790" lon="-5.775854"><ele>1016.730</ele><time>2015-10-26T11:10:15Z</time></trkpt><trkpt lat="43.012826" lon="-5.775893"><ele>1016.221</ele><time>2015-10-26T11:10:19Z</time></trkpt><trkpt lat="43.012856" lon="-5.775919"><ele>1016.253</ele><time>2015-10-26T11:10:22Z</time></trkpt><trkpt lat="43.012947" lon="-5.776031"><ele>1014.391</ele><time>2015-10-26T11:10:37Z</time></trkpt><trkpt lat="43.013013" lon="-5.776131"><ele>1012.434</ele><time>2015-10-26T11:10:50Z</time></trkpt><trkpt lat="43.013099" lon="-5.776222"><ele>1009.055</ele><time>2015-10-26T11:11:04Z</time></trkpt><trkpt lat="43.013108" lon="-5.776235"><ele>1009.010</ele><time>2015-10-26T11:11:06Z</time></trkpt><trkpt lat="43.013147" lon="-5.776318"><ele>1009.008</ele><time>2015-10-26T11:11:13Z</time></trkpt><trkpt lat="43.013198" lon="-5.776347"><ele>1010.014</ele><time>2015-10-26T11:11:24Z</time></trkpt><trkpt lat="43.013238" lon="-5.776336"><ele>1007.644</ele><time>2015-10-26T11:11:29Z</time></trkpt><trkpt lat="43.013324" lon="-5.776308"><ele>1005.287</ele><time>2015-10-26T11:11:43Z</time></trkpt><trkpt lat="43.013383" lon="-5.776248"><ele>1002.886</ele><time>2015-10-26T11:11:57Z</time></trkpt><trkpt lat="43.013447" lon="-5.776107"><ele>999.951</ele><time>2015-10-26T11:12:12Z</time></trkpt><trkpt lat="43.013460" lon="-5.776018"><ele>999.012</ele><time>2015-10-26T11:12:22Z</time></trkpt><trkpt lat="43.013475" lon="-5.775920"><ele>998.044</ele><time>2015-10-26T11:12:30Z</time></trkpt><trkpt lat="43.013492" lon="-5.775797"><ele>996.132</ele><time>2015-10-26T11:12:41Z</time></trkpt><trkpt lat="43.013530" lon="-5.775642"><ele>994.641</ele><time>2015-10-26T11:12:55Z</time></trkpt><trkpt lat="43.013575" lon="-5.775505"><ele>992.281</ele><time>2015-10-26T11:13:06Z</time></trkpt><trkpt lat="43.013612" lon="-5.775320"><ele>990.809</ele><time>2015-10-26T11:13:20Z</time></trkpt><trkpt lat="43.013625" lon="-5.775175"><ele>990.308</ele><time>2015-10-26T11:13:31Z</time></trkpt><trkpt lat="43.013638" lon="-5.775110"><ele>989.885</ele><time>2015-10-26T11:13:35Z</time></trkpt><trkpt lat="43.013683" lon="-5.774899"><ele>989.385</ele><time>2015-10-26T11:13:49Z</time></trkpt><trkpt lat="43.013716" lon="-5.774692"><ele>988.858</ele><time>2015-10-26T11:14:03Z</time></trkpt><trkpt lat="43.013731" lon="-5.774594"><ele>988.427</ele><time>2015-10-26T11:14:10Z</time></trkpt><trkpt lat="43.013856" lon="-5.774400"><ele>987.412</ele><time>2015-10-26T11:14:26Z</time></trkpt><trkpt lat="43.013863" lon="-5.774390"><ele>986.553</ele><time>2015-10-26T11:14:27Z</time></trkpt><trkpt lat="43.014000" lon="-5.774211"><ele>986.525</ele><time>2015-10-26T11:14:42Z</time></trkpt><trkpt lat="43.014156" lon="-5.774058"><ele>984.553</ele><time>2015-10-26T11:14:58Z</time></trkpt><trkpt lat="43.014234" lon="-5.773991"><ele>984.053</ele><time>2015-10-26T11:15:06Z</time></trkpt><trkpt lat="43.014245" lon="-5.773969"><ele>984.004</ele><time>2015-10-26T11:15:08Z</time></trkpt><trkpt lat="43.014318" lon="-5.773917"><ele>982.614</ele><time>2015-10-26T11:15:16Z</time></trkpt><trkpt lat="43.014380" lon="-5.773797"><ele>981.608</ele><time>2015-10-26T11:15:29Z</time></trkpt><trkpt lat="43.014459" lon="-5.773590"><ele>980.776</ele><time>2015-10-26T11:15:44Z</time></trkpt><trkpt lat="43.014477" lon="-5.773566"><ele>980.786</ele><time>2015-10-26T11:15:46Z</time></trkpt><trkpt lat="43.014535" lon="-5.773497"><ele>980.249</ele><time>2015-10-26T11:15:53Z</time></trkpt><trkpt lat="43.014699" lon="-5.773322"><ele>980.248</ele><time>2015-10-26T11:16:09Z</time></trkpt><trkpt lat="43.014728" lon="-5.773305"><ele>980.253</ele><time>2015-10-26T11:16:12Z</time></trkpt><trkpt lat="43.014863" lon="-5.773212"><ele>980.264</ele><time>2015-10-26T11:16:27Z</time></trkpt><trkpt lat="43.014876" lon="-5.773196"><ele>981.666</ele><time>2015-10-26T11:16:29Z</time></trkpt><trkpt lat="43.014972" lon="-5.773019"><ele>982.654</ele><time>2015-10-26T11:16:46Z</time></trkpt><trkpt lat="43.014984" lon="-5.772986"><ele>982.638</ele><time>2015-10-26T11:16:49Z</time></trkpt><trkpt lat="43.015001" lon="-5.772965"><ele>983.170</ele><time>2015-10-26T11:16:51Z</time></trkpt><trkpt lat="43.015094" lon="-5.772798"><ele>983.617</ele><time>2015-10-26T11:17:07Z</time></trkpt><trkpt lat="43.015245" lon="-5.772607"><ele>983.608</ele><time>2015-10-26T11:17:24Z</time></trkpt><trkpt lat="43.015430" lon="-5.772449"><ele>984.084</ele><time>2015-10-26T11:17:41Z</time></trkpt><trkpt lat="43.015594" lon="-5.772368"><ele>985.074</ele><time>2015-10-26T11:17:56Z</time></trkpt><trkpt lat="43.015724" lon="-5.772294"><ele>986.087</ele><time>2015-10-26T11:18:11Z</time></trkpt><trkpt lat="43.015797" lon="-5.772222"><ele>987.946</ele><time>2015-10-26T11:18:22Z</time></trkpt><trkpt lat="43.015885" lon="-5.772078"><ele>989.351</ele><time>2015-10-26T11:18:39Z</time></trkpt><trkpt lat="43.015901" lon="-5.771939"><ele>989.892</ele><time>2015-10-26T11:18:51Z</time></trkpt><trkpt lat="43.015914" lon="-5.771741"><ele>991.734</ele><time>2015-10-26T11:19:07Z</time></trkpt><trkpt lat="43.015959" lon="-5.771533"><ele>993.282</ele><time>2015-10-26T11:19:24Z</time></trkpt><trkpt lat="43.016057" lon="-5.771337"><ele>993.216</ele><time>2015-10-26T11:19:40Z</time></trkpt><trkpt lat="43.016190" lon="-5.771219"><ele>995.176</ele><time>2015-10-26T11:19:54Z</time></trkpt><trkpt lat="43.016206" lon="-5.771203"><ele>995.113</ele><time>2015-10-26T11:19:56Z</time></trkpt><trkpt lat="43.016307" lon="-5.771080"><ele>995.108</ele><time>2015-10-26T11:20:09Z</time></trkpt><trkpt lat="43.016329" lon="-5.771064"><ele>992.282</ele><time>2015-10-26T11:20:11Z</time></trkpt><trkpt lat="43.016388" lon="-5.770985"><ele>988.492</ele><time>2015-10-26T11:20:19Z</time></trkpt><trkpt lat="43.016517" lon="-5.770760"><ele>988.835</ele><time>2015-10-26T11:20:38Z</time></trkpt><trkpt lat="43.016656" lon="-5.770587"><ele>989.844</ele><time>2015-10-26T11:20:54Z</time></trkpt><trkpt lat="43.016832" lon="-5.770555"><ele>990.339</ele><time>2015-10-26T11:21:10Z</time></trkpt><trkpt lat="43.016929" lon="-5.770758"><ele>992.720</ele><time>2015-10-26T11:21:26Z</time></trkpt><trkpt lat="43.016976" lon="-5.770900"><ele>996.142</ele><time>2015-10-26T11:21:36Z</time></trkpt><trkpt lat="43.016980" lon="-5.770910"><ele>996.150</ele><time>2015-10-26T11:21:37Z</time></trkpt><trkpt lat="43.017001" lon="-5.770953"><ele>992.711</ele><time>2015-10-26T11:21:40Z</time></trkpt><trkpt lat="43.017015" lon="-5.770974"><ele>991.321</ele><time>2015-10-26T11:21:42Z</time></trkpt><trkpt lat="43.017066" lon="-5.771112"><ele>991.303</ele><time>2015-10-26T11:21:52Z</time></trkpt><trkpt lat="43.017091" lon="-5.771191"><ele>993.208</ele><time>2015-10-26T11:21:58Z</time></trkpt><trkpt lat="43.017107" lon="-5.771247"><ele>993.742</ele><time>2015-10-26T11:22:03Z</time></trkpt><trkpt lat="43.017132" lon="-5.771433"><ele>994.642</ele><time>2015-10-26T11:22:18Z</time></trkpt><trkpt lat="43.017142" lon="-5.771611"><ele>994.135</ele><time>2015-10-26T11:22:31Z</time></trkpt><trkpt lat="43.017171" lon="-5.771774"><ele>996.194</ele><time>2015-10-26T11:22:47Z</time></trkpt><trkpt lat="43.017168" lon="-5.771811"><ele>996.559</ele><time>2015-10-26T11:22:50Z</time></trkpt><trkpt lat="43.017187" lon="-5.771865"><ele>995.120</ele><time>2015-10-26T11:22:53Z</time></trkpt><trkpt lat="43.017261" lon="-5.772076"><ele>995.632</ele><time>2015-10-26T11:23:08Z</time></trkpt><trkpt lat="43.017333" lon="-5.772240"><ele>997.520</ele><time>2015-10-26T11:23:23Z</time></trkpt><trkpt lat="43.017457" lon="-5.772388"><ele>998.018</ele><time>2015-10-26T11:23:39Z</time></trkpt><trkpt lat="43.017558" lon="-5.772520"><ele>998.598</ele><time>2015-10-26T11:23:53Z</time></trkpt><trkpt lat="43.017607" lon="-5.772601"><ele>999.017</ele><time>2015-10-26T11:24:00Z</time></trkpt><trkpt lat="43.017675" lon="-5.772738"><ele>999.408</ele><time>2015-10-26T11:24:14Z</time></trkpt><trkpt lat="43.017707" lon="-5.772792"><ele>998.592</ele><time>2015-10-26T11:24:18Z</time></trkpt><trkpt lat="43.017797" lon="-5.772900"><ele>998.012</ele><time>2015-10-26T11:24:28Z</time></trkpt><trkpt lat="43.017819" lon="-5.772932"><ele>998.015</ele><time>2015-10-26T11:24:31Z</time></trkpt><trkpt lat="43.017852" lon="-5.772969"><ele>998.514</ele><time>2015-10-26T11:24:35Z</time></trkpt><trkpt lat="43.017965" lon="-5.773104"><ele>998.069</ele><time>2015-10-26T11:24:49Z</time></trkpt><trkpt lat="43.018078" lon="-5.773236"><ele>997.530</ele><time>2015-10-26T11:25:03Z</time></trkpt><trkpt lat="43.018182" lon="-5.773353"><ele>997.072</ele><time>2015-10-26T11:25:16Z</time></trkpt><trkpt lat="43.018200" lon="-5.773379"><ele>998.580</ele><time>2015-10-26T11:25:18Z</time></trkpt><trkpt lat="43.018305" lon="-5.773530"><ele>998.518</ele><time>2015-10-26T11:25:32Z</time></trkpt><trkpt lat="43.018335" lon="-5.773599"><ele>997.098</ele><time>2015-10-26T11:25:49Z</time></trkpt><trkpt lat="43.018349" lon="-5.773625"><ele>998.517</ele><time>2015-10-26T11:26:13Z</time></trkpt><trkpt lat="43.018358" lon="-5.773648"><ele>998.508</ele><time>2015-10-26T11:26:31Z</time></trkpt><trkpt lat="43.018358" lon="-5.773647"><ele>998.552</ele><time>2015-10-26T11:26:32Z</time></trkpt><trkpt lat="43.018359" lon="-5.773663"><ele>999.982</ele><time>2015-10-26T11:26:53Z</time></trkpt><trkpt lat="43.018372" lon="-5.773691"><ele>1001.375</ele><time>2015-10-26T11:27:09Z</time></trkpt><trkpt lat="43.018340" lon="-5.773698"><ele>999.974</ele><time>2015-10-26T11:27:26Z</time></trkpt><trkpt lat="43.018321" lon="-5.773728"><ele>999.499</ele><time>2015-10-26T11:27:50Z</time></trkpt><trkpt lat="43.018321" lon="-5.773724"><ele>998.550</ele><time>2015-10-26T11:27:53Z</time></trkpt><trkpt lat="43.018366" lon="-5.773790"><ele>1011.942</ele><time>2015-10-26T12:30:31Z</time></trkpt><trkpt lat="43.018358" lon="-5.773795"><ele>1011.970</ele><time>2015-10-26T12:30:32Z</time></trkpt><trkpt lat="43.018327" lon="-5.773843"><ele>1008.667</ele><time>2015-10-26T12:30:40Z</time></trkpt><trkpt lat="43.018392" lon="-5.773582"><ele>981.681</ele><time>2015-10-27T07:06:39Z</time></trkpt><trkpt lat="43.018384" lon="-5.773602"><ele>981.619</ele><time>2015-10-27T07:06:40Z</time></trkpt><trkpt lat="43.018383" lon="-5.773634"><ele>981.608</ele><time>2015-10-27T07:06:44Z</time></trkpt><trkpt lat="43.018468" lon="-5.773841"><ele>981.277</ele><time>2015-10-27T07:06:59Z</time></trkpt><trkpt lat="43.018566" lon="-5.774090"><ele>980.227</ele><time>2015-10-27T07:07:16Z</time></trkpt><trkpt lat="43.018624" lon="-5.774352"><ele>979.210</ele><time>2015-10-27T07:07:32Z</time></trkpt><trkpt lat="43.018629" lon="-5.774449"><ele>978.889</ele><time>2015-10-27T07:07:45Z</time></trkpt><trkpt lat="43.018640" lon="-5.774492"><ele>979.274</ele><time>2015-10-27T07:08:10Z</time></trkpt><trkpt lat="43.018621" lon="-5.774512"><ele>979.255</ele><time>2015-10-27T07:08:31Z</time></trkpt><trkpt lat="43.018649" lon="-5.774544"><ele>978.847</ele><time>2015-10-27T07:08:48Z</time></trkpt><trkpt lat="43.018716" lon="-5.774623"><ele>978.355</ele><time>2015-10-27T07:09:04Z</time></trkpt><trkpt lat="43.018746" lon="-5.774660"><ele>978.334</ele><time>2015-10-27T07:09:13Z</time></trkpt><trkpt lat="43.018759" lon="-5.774675"><ele>978.355</ele><time>2015-10-27T07:09:15Z</time></trkpt><trkpt lat="43.018890" lon="-5.774797"><ele>977.310</ele><time>2015-10-27T07:09:31Z</time></trkpt><trkpt lat="43.019042" lon="-5.774950"><ele>976.408</ele><time>2015-10-27T07:09:47Z</time></trkpt><trkpt lat="43.019147" lon="-5.775093"><ele>974.964</ele><time>2015-10-27T07:10:03Z</time></trkpt><trkpt lat="43.019160" lon="-5.775152"><ele>974.494</ele><time>2015-10-27T07:10:26Z</time></trkpt><trkpt lat="43.019152" lon="-5.775126"><ele>974.947</ele><time>2015-10-27T07:10:48Z</time></trkpt><trkpt lat="43.019163" lon="-5.775143"><ele>974.946</ele><time>2015-10-27T07:11:06Z</time></trkpt><trkpt lat="43.019172" lon="-5.775173"><ele>974.961</ele><time>2015-10-27T07:11:22Z</time></trkpt><trkpt lat="43.019193" lon="-5.775212"><ele>974.442</ele><time>2015-10-27T07:11:26Z</time></trkpt><trkpt lat="43.019250" lon="-5.775419"><ele>973.574</ele><time>2015-10-27T07:11:37Z</time></trkpt><trkpt lat="43.019276" lon="-5.775561"><ele>973.512</ele><time>2015-10-27T07:11:45Z</time></trkpt><trkpt lat="43.019287" lon="-5.775760"><ele>975.439</ele><time>2015-10-27T07:11:56Z</time></trkpt><trkpt lat="43.019397" lon="-5.775942"><ele>976.801</ele><time>2015-10-27T07:12:15Z</time></trkpt><trkpt lat="43.019409" lon="-5.775975"><ele>976.821</ele><time>2015-10-27T07:12:19Z</time></trkpt><trkpt lat="43.019415" lon="-5.776053"><ele>976.808</ele><time>2015-10-27T07:12:24Z</time></trkpt><trkpt lat="43.019429" lon="-5.776147"><ele>976.844</ele><time>2015-10-27T07:12:29Z</time></trkpt><trkpt lat="43.019469" lon="-5.776503"><ele>975.474</ele><time>2015-10-27T07:12:48Z</time></trkpt><trkpt lat="43.019461" lon="-5.776826"><ele>974.027</ele><time>2015-10-27T07:13:07Z</time></trkpt><trkpt lat="43.019468" lon="-5.777100"><ele>972.546</ele><time>2015-10-27T07:13:24Z</time></trkpt><trkpt lat="43.019526" lon="-5.777386"><ele>971.151</ele><time>2015-10-27T07:13:44Z</time></trkpt><trkpt lat="43.019629" lon="-5.777623"><ele>968.252</ele><time>2015-10-27T07:14:01Z</time></trkpt><trkpt lat="43.019638" lon="-5.777769"><ele>964.364</ele><time>2015-10-27T07:14:13Z</time></trkpt><trkpt lat="43.019605" lon="-5.777978"><ele>962.462</ele><time>2015-10-27T07:14:25Z</time></trkpt><trkpt lat="43.019508" lon="-5.777989"><ele>959.028</ele><time>2015-10-27T07:14:38Z</time></trkpt><trkpt lat="43.019440" lon="-5.777970"><ele>957.189</ele><time>2015-10-27T07:14:45Z</time></trkpt><trkpt lat="43.019395" lon="-5.777993"><ele>955.717</ele><time>2015-10-27T07:14:52Z</time></trkpt><trkpt lat="43.019304" lon="-5.778091"><ele>951.808</ele><time>2015-10-27T07:15:06Z</time></trkpt><trkpt lat="43.019234" lon="-5.778168"><ele>949.023</ele><time>2015-10-27T07:15:20Z</time></trkpt><trkpt lat="43.019207" lon="-5.778259"><ele>945.643</ele><time>2015-10-27T07:15:32Z</time></trkpt><trkpt lat="43.019134" lon="-5.778359"><ele>942.276</ele><time>2015-10-27T07:15:46Z</time></trkpt><trkpt lat="43.019084" lon="-5.778464"><ele>938.935</ele><time>2015-10-27T07:16:00Z</time></trkpt><trkpt lat="43.019023" lon="-5.778558"><ele>936.570</ele><time>2015-10-27T07:16:14Z</time></trkpt><trkpt lat="43.019025" lon="-5.778675"><ele>933.681</ele><time>2015-10-27T07:16:26Z</time></trkpt><trkpt lat="43.019048" lon="-5.778790"><ele>931.273</ele><time>2015-10-27T07:16:38Z</time></trkpt><trkpt lat="43.019070" lon="-5.778930"><ele>928.311</ele><time>2015-10-27T07:16:52Z</time></trkpt><trkpt lat="43.019084" lon="-5.778989"><ele>926.423</ele><time>2015-10-27T07:17:00Z</time></trkpt><trkpt lat="43.019094" lon="-5.779041"><ele>924.983</ele><time>2015-10-27T07:17:04Z</time></trkpt><trkpt lat="43.019060" lon="-5.779125"><ele>923.511</ele><time>2015-10-27T07:17:09Z</time></trkpt><trkpt lat="43.018939" lon="-5.779146"><ele>920.608</ele><time>2015-10-27T07:17:22Z</time></trkpt><trkpt lat="43.018853" lon="-5.779217"><ele>917.793</ele><time>2015-10-27T07:17:36Z</time></trkpt><trkpt lat="43.018834" lon="-5.779291"><ele>915.823</ele><time>2015-10-27T07:17:44Z</time></trkpt><trkpt lat="43.018841" lon="-5.779352"><ele>914.856</ele><time>2015-10-27T07:17:50Z</time></trkpt><trkpt lat="43.018878" lon="-5.779435"><ele>912.465</ele><time>2015-10-27T07:17:57Z</time></trkpt><trkpt lat="43.018898" lon="-5.779495"><ele>911.570</ele><time>2015-10-27T07:18:02Z</time></trkpt><trkpt lat="43.018937" lon="-5.779714"><ele>908.131</ele><time>2015-10-27T07:18:17Z</time></trkpt><trkpt lat="43.018942" lon="-5.779964"><ele>906.223</ele><time>2015-10-27T07:18:32Z</time></trkpt><trkpt lat="43.018850" lon="-5.780186"><ele>903.371</ele><time>2015-10-27T07:18:47Z</time></trkpt><trkpt lat="43.018718" lon="-5.780201"><ele>899.553</ele><time>2015-10-27T07:19:00Z</time></trkpt><trkpt lat="43.018593" lon="-5.780138"><ele>896.104</ele><time>2015-10-27T07:19:12Z</time></trkpt><trkpt lat="43.018569" lon="-5.780179"><ele>894.614</ele><time>2015-10-27T07:19:17Z</time></trkpt><trkpt lat="43.018537" lon="-5.780247"><ele>892.708</ele><time>2015-10-27T07:19:23Z</time></trkpt><trkpt lat="43.018518" lon="-5.780380"><ele>889.866</ele><time>2015-10-27T07:19:34Z</time></trkpt><trkpt lat="43.018454" lon="-5.780583"><ele>886.566</ele><time>2015-10-27T07:19:46Z</time></trkpt><trkpt lat="43.018389" lon="-5.780778"><ele>883.169</ele><time>2015-10-27T07:20:00Z</time></trkpt><trkpt lat="43.018302" lon="-5.781018"><ele>879.388</ele><time>2015-10-27T07:20:15Z</time></trkpt><trkpt lat="43.018249" lon="-5.781218"><ele>876.423</ele><time>2015-10-27T07:20:28Z</time></trkpt><trkpt lat="43.018211" lon="-5.781434"><ele>873.074</ele><time>2015-10-27T07:20:43Z</time></trkpt><trkpt lat="43.018204" lon="-5.781479"><ele>872.036</ele><time>2015-10-27T07:20:46Z</time></trkpt><trkpt lat="43.018145" lon="-5.781737"><ele>869.784</ele><time>2015-10-27T07:21:02Z</time></trkpt><trkpt lat="43.018053" lon="-5.781862"><ele>867.799</ele><time>2015-10-27T07:21:11Z</time></trkpt><trkpt lat="43.018017" lon="-5.781925"><ele>867.207</ele><time>2015-10-27T07:21:16Z</time></trkpt><trkpt lat="43.017949" lon="-5.782080"><ele>864.827</ele><time>2015-10-27T07:21:29Z</time></trkpt><trkpt lat="43.017883" lon="-5.782215"><ele>863.408</ele><time>2015-10-27T07:21:39Z</time></trkpt><trkpt lat="43.017778" lon="-5.782306"><ele>860.550</ele><time>2015-10-27T07:21:48Z</time></trkpt><trkpt lat="43.017649" lon="-5.782340"><ele>858.620</ele><time>2015-10-27T07:22:00Z</time></trkpt><trkpt lat="43.017475" lon="-5.782239"><ele>856.223</ele><time>2015-10-27T07:22:15Z</time></trkpt><trkpt lat="43.017391" lon="-5.782140"><ele>853.342</ele><time>2015-10-27T07:22:25Z</time></trkpt><trkpt lat="43.017295" lon="-5.782015"><ele>849.987</ele><time>2015-10-27T07:22:39Z</time></trkpt><trkpt lat="43.017236" lon="-5.781884"><ele>846.638</ele><time>2015-10-27T07:22:50Z</time></trkpt><trkpt lat="43.017194" lon="-5.781698"><ele>843.730</ele><time>2015-10-27T07:23:04Z</time></trkpt><trkpt lat="43.017147" lon="-5.781499"><ele>841.328</ele><time>2015-10-27T07:23:18Z</time></trkpt><trkpt lat="43.017092" lon="-5.781294"><ele>838.414</ele><time>2015-10-27T07:23:32Z</time></trkpt><trkpt lat="43.017047" lon="-5.781182"><ele>837.554</ele><time>2015-10-27T07:23:40Z</time></trkpt><trkpt lat="43.017019" lon="-5.781046"><ele>835.509</ele><time>2015-10-27T07:23:49Z</time></trkpt><trkpt lat="43.016992" lon="-5.780820"><ele>833.608</ele><time>2015-10-27T07:24:03Z</time></trkpt><trkpt lat="43.016918" lon="-5.780616"><ele>832.282</ele><time>2015-10-27T07:24:18Z</time></trkpt><trkpt lat="43.016887" lon="-5.780551"><ele>831.222</ele><time>2015-10-27T07:24:23Z</time></trkpt><trkpt lat="43.016786" lon="-5.780352"><ele>828.835</ele><time>2015-10-27T07:24:37Z</time></trkpt><trkpt lat="43.016767" lon="-5.780279"><ele>828.394</ele><time>2015-10-27T07:24:42Z</time></trkpt><trkpt lat="43.016701" lon="-5.780080"><ele>826.419</ele><time>2015-10-27T07:24:55Z</time></trkpt><trkpt lat="43.016684" lon="-5.780061"><ele>825.940</ele><time>2015-10-27T07:24:57Z</time></trkpt><trkpt lat="43.016670" lon="-5.780034"><ele>825.452</ele><time>2015-10-27T07:24:59Z</time></trkpt><trkpt lat="43.016603" lon="-5.779906"><ele>822.590</ele><time>2015-10-27T07:25:14Z</time></trkpt><trkpt lat="43.016600" lon="-5.779912"><ele>822.192</ele><time>2015-10-27T07:25:16Z</time></trkpt><trkpt lat="43.016625" lon="-5.779960"><ele>818.773</ele><time>2015-10-27T07:25:27Z</time></trkpt><trkpt lat="43.016619" lon="-5.780121"><ele>814.820</ele><time>2015-10-27T07:25:42Z</time></trkpt><trkpt lat="43.016611" lon="-5.780262"><ele>812.008</ele><time>2015-10-27T07:25:56Z</time></trkpt><trkpt lat="43.016595" lon="-5.780471"><ele>809.110</ele><time>2015-10-27T07:26:11Z</time></trkpt><trkpt lat="43.016589" lon="-5.780514"><ele>809.130</ele><time>2015-10-27T07:26:14Z</time></trkpt><trkpt lat="43.016580" lon="-5.780577"><ele>807.633</ele><time>2015-10-27T07:26:18Z</time></trkpt><trkpt lat="43.016536" lon="-5.780649"><ele>806.782</ele><time>2015-10-27T07:26:24Z</time></trkpt><trkpt lat="43.016514" lon="-5.780753"><ele>805.287</ele><time>2015-10-27T07:26:31Z</time></trkpt><trkpt lat="43.016482" lon="-5.780819"><ele>803.348</ele><time>2015-10-27T07:26:36Z</time></trkpt><trkpt lat="43.016464" lon="-5.780860"><ele>802.840</ele><time>2015-10-27T07:26:39Z</time></trkpt><trkpt lat="43.016466" lon="-5.780942"><ele>801.418</ele><time>2015-10-27T07:26:44Z</time></trkpt><trkpt lat="43.016458" lon="-5.780987"><ele>800.994</ele><time>2015-10-27T07:26:47Z</time></trkpt><trkpt lat="43.016416" lon="-5.781104"><ele>799.057</ele><time>2015-10-27T07:26:55Z</time></trkpt><trkpt lat="43.016397" lon="-5.781320"><ele>796.622</ele><time>2015-10-27T07:27:11Z</time></trkpt><trkpt lat="43.016385" lon="-5.781449"><ele>793.708</ele><time>2015-10-27T07:27:21Z</time></trkpt><trkpt lat="43.016368" lon="-5.781487"><ele>792.760</ele><time>2015-10-27T07:27:24Z</time></trkpt><trkpt lat="43.016360" lon="-5.781589"><ele>791.360</ele><time>2015-10-27T07:27:31Z</time></trkpt><trkpt lat="43.016363" lon="-5.781755"><ele>788.473</ele><time>2015-10-27T07:27:44Z</time></trkpt><trkpt lat="43.016350" lon="-5.781989"><ele>784.652</ele><time>2015-10-27T07:28:01Z</time></trkpt><trkpt lat="43.016345" lon="-5.782006"><ele>784.657</ele><time>2015-10-27T07:28:02Z</time></trkpt><trkpt lat="43.016285" lon="-5.782163"><ele>781.278</ele><time>2015-10-27T07:28:12Z</time></trkpt><trkpt lat="43.016241" lon="-5.782288"><ele>778.850</ele><time>2015-10-27T07:28:24Z</time></trkpt><trkpt lat="43.016200" lon="-5.782432"><ele>775.468</ele><time>2015-10-27T07:28:37Z</time></trkpt><trkpt lat="43.016134" lon="-5.782592"><ele>772.197</ele><time>2015-10-27T07:28:50Z</time></trkpt><trkpt lat="43.016113" lon="-5.782618"><ele>771.623</ele><time>2015-10-27T07:28:53Z</time></trkpt><trkpt lat="43.016102" lon="-5.782656"><ele>771.125</ele><time>2015-10-27T07:28:56Z</time></trkpt><trkpt lat="43.016081" lon="-5.782710"><ele>770.208</ele><time>2015-10-27T07:29:00Z</time></trkpt><trkpt lat="43.016001" lon="-5.782836"><ele>767.360</ele><time>2015-10-27T07:29:11Z</time></trkpt><trkpt lat="43.015941" lon="-5.782960"><ele>764.430</ele><time>2015-10-27T07:29:21Z</time></trkpt><trkpt lat="43.015907" lon="-5.783087"><ele>762.553</ele><time>2015-10-27T07:29:29Z</time></trkpt><trkpt lat="43.015883" lon="-5.783141"><ele>761.512</ele><time>2015-10-27T07:29:33Z</time></trkpt><trkpt lat="43.015878" lon="-5.783180"><ele>761.087</ele><time>2015-10-27T07:29:36Z</time></trkpt><trkpt lat="43.015862" lon="-5.783203"><ele>760.148</ele><time>2015-10-27T07:29:38Z</time></trkpt><trkpt lat="43.015849" lon="-5.783349"><ele>758.110</ele><time>2015-10-27T07:29:47Z</time></trkpt><trkpt lat="43.015823" lon="-5.783433"><ele>756.788</ele><time>2015-10-27T07:29:53Z</time></trkpt><trkpt lat="43.015813" lon="-5.783461"><ele>755.771</ele><time>2015-10-27T07:29:55Z</time></trkpt><trkpt lat="43.015772" lon="-5.783573"><ele>753.841</ele><time>2015-10-27T07:30:03Z</time></trkpt><trkpt lat="43.015775" lon="-5.783604"><ele>753.315</ele><time>2015-10-27T07:30:05Z</time></trkpt><trkpt lat="43.015745" lon="-5.783742"><ele>750.008</ele><time>2015-10-27T07:30:18Z</time></trkpt><trkpt lat="43.015738" lon="-5.783766"><ele>749.058</ele><time>2015-10-27T07:30:20Z</time></trkpt><trkpt lat="43.015700" lon="-5.783958"><ele>745.618</ele><time>2015-10-27T07:30:32Z</time></trkpt><trkpt lat="43.015663" lon="-5.784120"><ele>742.351</ele><time>2015-10-27T07:30:42Z</time></trkpt><trkpt lat="43.015664" lon="-5.784148"><ele>741.810</ele><time>2015-10-27T07:30:44Z</time></trkpt><trkpt lat="43.015628" lon="-5.784216"><ele>740.355</ele><time>2015-10-27T07:30:50Z</time></trkpt><trkpt lat="43.015612" lon="-5.784289"><ele>739.446</ele><time>2015-10-27T07:30:56Z</time></trkpt><trkpt lat="43.015600" lon="-5.784443"><ele>736.598</ele><time>2015-10-27T07:31:05Z</time></trkpt><trkpt lat="43.015590" lon="-5.784465"><ele>735.556</ele><time>2015-10-27T07:31:09Z</time></trkpt><trkpt lat="43.015481" lon="-5.784460"><ele>732.238</ele><time>2015-10-27T07:31:19Z</time></trkpt><trkpt lat="43.015467" lon="-5.784449"><ele>731.270</ele><time>2015-10-27T07:31:21Z</time></trkpt><trkpt lat="43.015429" lon="-5.784439"><ele>730.317</ele><time>2015-10-27T07:31:25Z</time></trkpt><trkpt lat="43.015440" lon="-5.784539"><ele>729.308</ele><time>2015-10-27T07:31:31Z</time></trkpt><trkpt lat="43.015458" lon="-5.784604"><ele>728.324</ele><time>2015-10-27T07:31:35Z</time></trkpt><trkpt lat="43.015480" lon="-5.784668"><ele>727.444</ele><time>2015-10-27T07:31:39Z</time></trkpt><trkpt lat="43.015519" lon="-5.784836"><ele>725.517</ele><time>2015-10-27T07:31:49Z</time></trkpt><trkpt lat="43.015561" lon="-5.784923"><ele>724.546</ele><time>2015-10-27T07:32:01Z</time></trkpt><trkpt lat="43.015584" lon="-5.785091"><ele>723.011</ele><time>2015-10-27T07:32:10Z</time></trkpt><trkpt lat="43.015594" lon="-5.785186"><ele>723.042</ele><time>2015-10-27T07:32:22Z</time></trkpt><trkpt lat="43.015614" lon="-5.785204"><ele>723.034</ele><time>2015-10-27T07:32:25Z</time></trkpt><trkpt lat="43.015694" lon="-5.785262"><ele>721.692</ele><time>2015-10-27T07:32:38Z</time></trkpt><trkpt lat="43.015751" lon="-5.785247"><ele>721.183</ele><time>2015-10-27T07:32:45Z</time></trkpt><trkpt lat="43.015935" lon="-5.785089"><ele>720.225</ele><time>2015-10-27T07:33:05Z</time></trkpt><trkpt lat="43.016121" lon="-5.784993"><ele>719.217</ele><time>2015-10-27T07:33:21Z</time></trkpt><trkpt lat="43.016319" lon="-5.784900"><ele>718.708</ele><time>2015-10-27T07:33:38Z</time></trkpt><trkpt lat="43.016552" lon="-5.784843"><ele>717.879</ele><time>2015-10-27T07:33:57Z</time></trkpt><trkpt lat="43.016670" lon="-5.784857"><ele>717.829</ele><time>2015-10-27T07:34:08Z</time></trkpt><trkpt lat="43.016862" lon="-5.784975"><ele>717.872</ele><time>2015-10-27T07:34:23Z</time></trkpt><trkpt lat="43.017070" lon="-5.785128"><ele>717.341</ele><time>2015-10-27T07:34:41Z</time></trkpt><trkpt lat="43.017137" lon="-5.785196"><ele>717.376</ele><time>2015-10-27T07:34:47Z</time></trkpt><trkpt lat="43.017375" lon="-5.785325"><ele>716.337</ele><time>2015-10-27T07:35:05Z</time></trkpt><trkpt lat="43.017532" lon="-5.785356"><ele>715.849</ele><time>2015-10-27T07:35:19Z</time></trkpt><trkpt lat="43.017734" lon="-5.785396"><ele>716.377</ele><time>2015-10-27T07:35:36Z</time></trkpt><trkpt lat="43.017818" lon="-5.785442"><ele>716.349</ele><time>2015-10-27T07:35:43Z</time></trkpt><trkpt lat="43.017865" lon="-5.785459"><ele>716.302</ele><time>2015-10-27T07:35:47Z</time></trkpt><trkpt lat="43.018091" lon="-5.785485"><ele>716.322</ele><time>2015-10-27T07:36:05Z</time></trkpt><trkpt lat="43.018351" lon="-5.785438"><ele>715.808</ele><time>2015-10-27T07:36:25Z</time></trkpt><trkpt lat="43.018565" lon="-5.785401"><ele>715.435</ele><time>2015-10-27T07:36:43Z</time></trkpt><trkpt lat="43.018698" lon="-5.785353"><ele>715.825</ele><time>2015-10-27T07:36:55Z</time></trkpt><trkpt lat="43.018718" lon="-5.785343"><ele>715.818</ele><time>2015-10-27T07:36:57Z</time></trkpt><trkpt lat="43.018790" lon="-5.785273"><ele>715.487</ele><time>2015-10-27T07:37:06Z</time></trkpt><trkpt lat="43.018945" lon="-5.785134"><ele>714.972</ele><time>2015-10-27T07:37:22Z</time></trkpt><trkpt lat="43.018976" lon="-5.785098"><ele>714.923</ele><time>2015-10-27T07:37:26Z</time></trkpt><trkpt lat="43.019220" lon="-5.784994"><ele>713.955</ele><time>2015-10-27T07:37:41Z</time></trkpt><trkpt lat="43.019506" lon="-5.784933"><ele>713.933</ele><time>2015-10-27T07:37:59Z</time></trkpt><trkpt lat="43.019753" lon="-5.784986"><ele>713.041</ele><time>2015-10-27T07:38:17Z</time></trkpt><trkpt lat="43.019964" lon="-5.785110"><ele>713.081</ele><time>2015-10-27T07:38:34Z</time></trkpt><trkpt lat="43.020206" lon="-5.785302"><ele>712.009</ele><time>2015-10-27T07:38:53Z</time></trkpt><trkpt lat="43.020362" lon="-5.785438"><ele>712.008</ele><time>2015-10-27T07:39:08Z</time></trkpt><trkpt lat="43.020569" lon="-5.785649"><ele>712.035</ele><time>2015-10-27T07:39:27Z</time></trkpt><trkpt lat="43.020740" lon="-5.785831"><ele>711.575</ele><time>2015-10-27T07:39:43Z</time></trkpt><trkpt lat="43.020908" lon="-5.785988"><ele>711.098</ele><time>2015-10-27T07:39:59Z</time></trkpt><trkpt lat="43.021060" lon="-5.786182"><ele>710.177</ele><time>2015-10-27T07:40:15Z</time></trkpt><trkpt lat="43.021222" lon="-5.786476"><ele>709.622</ele><time>2015-10-27T07:40:34Z</time></trkpt><trkpt lat="43.021381" lon="-5.786646"><ele>708.683</ele><time>2015-10-27T07:40:51Z</time></trkpt><trkpt lat="43.021577" lon="-5.786709"><ele>707.765</ele><time>2015-10-27T07:41:08Z</time></trkpt><trkpt lat="43.021783" lon="-5.786852"><ele>707.733</ele><time>2015-10-27T07:41:26Z</time></trkpt><trkpt lat="43.021956" lon="-5.786905"><ele>709.148</ele><time>2015-10-27T07:41:43Z</time></trkpt><trkpt lat="43.021988" lon="-5.786876"><ele>709.661</ele><time>2015-10-27T07:41:49Z</time></trkpt><trkpt lat="43.022026" lon="-5.786837"><ele>711.017</ele><time>2015-10-27T07:41:55Z</time></trkpt><trkpt lat="43.022132" lon="-5.786743"><ele>713.908</ele><time>2015-10-27T07:42:11Z</time></trkpt><trkpt lat="43.022239" lon="-5.786697"><ele>716.875</ele><time>2015-10-27T07:42:26Z</time></trkpt><trkpt lat="43.022387" lon="-5.786742"><ele>719.275</ele><time>2015-10-27T07:42:41Z</time></trkpt><trkpt lat="43.022484" lon="-5.786818"><ele>721.198</ele><time>2015-10-27T07:42:53Z</time></trkpt><trkpt lat="43.022599" lon="-5.786891"><ele>723.027</ele><time>2015-10-27T07:43:07Z</time></trkpt><trkpt lat="43.022700" lon="-5.786974"><ele>725.532</ele><time>2015-10-27T07:43:21Z</time></trkpt><trkpt lat="43.022808" lon="-5.787039"><ele>728.323</ele><time>2015-10-27T07:43:39Z</time></trkpt><trkpt lat="43.022899" lon="-5.787125"><ele>730.755</ele><time>2015-10-27T07:43:53Z</time></trkpt><trkpt lat="43.022977" lon="-5.787280"><ele>733.673</ele><time>2015-10-27T07:44:09Z</time></trkpt><trkpt lat="43.023059" lon="-5.787358"><ele>735.542</ele><time>2015-10-27T07:44:24Z</time></trkpt><trkpt lat="43.023128" lon="-5.787462"><ele>737.522</ele><time>2015-10-27T07:44:39Z</time></trkpt><trkpt lat="43.023190" lon="-5.787561"><ele>740.314</ele><time>2015-10-27T07:44:56Z</time></trkpt><trkpt lat="43.023246" lon="-5.787567"><ele>742.308</ele><time>2015-10-27T07:45:11Z</time></trkpt><trkpt lat="43.023346" lon="-5.787628"><ele>744.765</ele><time>2015-10-27T07:45:29Z</time></trkpt><trkpt lat="43.023439" lon="-5.787772"><ele>747.655</ele><time>2015-10-27T07:45:46Z</time></trkpt><trkpt lat="43.023514" lon="-5.787884"><ele>750.578</ele><time>2015-10-27T07:46:05Z</time></trkpt><trkpt lat="43.023559" lon="-5.788033"><ele>752.447</ele><time>2015-10-27T07:46:20Z</time></trkpt><trkpt lat="43.023613" lon="-5.788196"><ele>754.822</ele><time>2015-10-27T07:46:38Z</time></trkpt><trkpt lat="43.023703" lon="-5.788289"><ele>755.763</ele><time>2015-10-27T07:46:54Z</time></trkpt><trkpt lat="43.023740" lon="-5.788270"><ele>756.225</ele><time>2015-10-27T07:46:59Z</time></trkpt><trkpt lat="43.023812" lon="-5.788198"><ele>756.263</ele><time>2015-10-27T07:47:08Z</time></trkpt><trkpt lat="43.023891" lon="-5.788151"><ele>756.243</ele><time>2015-10-27T07:47:20Z</time></trkpt><trkpt lat="43.023952" lon="-5.788145"><ele>756.264</ele><time>2015-10-27T07:47:35Z</time></trkpt><trkpt lat="43.023963" lon="-5.788157"><ele>756.210</ele><time>2015-10-27T07:47:43Z</time></trkpt><trkpt lat="43.024072" lon="-5.788112"><ele>758.108</ele><time>2015-10-27T07:47:58Z</time></trkpt><trkpt lat="43.024169" lon="-5.788096"><ele>760.115</ele><time>2015-10-27T07:48:12Z</time></trkpt><trkpt lat="43.024287" lon="-5.788107"><ele>762.025</ele><time>2015-10-27T07:48:26Z</time></trkpt><trkpt lat="43.024307" lon="-5.788110"><ele>762.538</ele><time>2015-10-27T07:48:43Z</time></trkpt><trkpt lat="43.024380" lon="-5.788140"><ele>763.457</ele><time>2015-10-27T07:49:00Z</time></trkpt><trkpt lat="43.024527" lon="-5.788184"><ele>765.882</ele><time>2015-10-27T07:49:19Z</time></trkpt><trkpt lat="43.024647" lon="-5.788213"><ele>768.213</ele><time>2015-10-27T07:49:36Z</time></trkpt><trkpt lat="43.024758" lon="-5.788227"><ele>770.215</ele><time>2015-10-27T07:49:51Z</time></trkpt><trkpt lat="43.024887" lon="-5.788263"><ele>771.673</ele><time>2015-10-27T07:50:07Z</time></trkpt><trkpt lat="43.025014" lon="-5.788283"><ele>773.063</ele><time>2015-10-27T07:50:22Z</time></trkpt><trkpt lat="43.025182" lon="-5.788306"><ele>774.544</ele><time>2015-10-27T07:50:40Z</time></trkpt><trkpt lat="43.025277" lon="-5.788334"><ele>775.418</ele><time>2015-10-27T07:50:55Z</time></trkpt><trkpt lat="43.025316" lon="-5.788350"><ele>775.908</ele><time>2015-10-27T07:51:14Z</time></trkpt><trkpt lat="43.025481" lon="-5.788468"><ele>775.947</ele><time>2015-10-27T07:51:31Z</time></trkpt><trkpt lat="43.025539" lon="-5.788526"><ele>776.457</ele><time>2015-10-27T07:51:45Z</time></trkpt><trkpt lat="43.025582" lon="-5.788518"><ele>776.410</ele><time>2015-10-27T07:52:00Z</time></trkpt><trkpt lat="43.025671" lon="-5.788469"><ele>773.089</ele><time>2015-10-27T07:52:12Z</time></trkpt><trkpt lat="43.025678" lon="-5.788467"><ele>773.034</ele><time>2015-10-27T07:52:13Z</time></trkpt><trkpt lat="43.025851" lon="-5.788409"><ele>769.715</ele><time>2015-10-27T07:52:32Z</time></trkpt><trkpt lat="43.025929" lon="-5.788375"><ele>766.887</ele><time>2015-10-27T07:52:48Z</time></trkpt><trkpt lat="43.025991" lon="-5.788338"><ele>765.815</ele><time>2015-10-27T07:53:02Z</time></trkpt><trkpt lat="43.026078" lon="-5.788317"><ele>762.972</ele><time>2015-10-27T07:53:14Z</time></trkpt><trkpt lat="43.026126" lon="-5.788302"><ele>761.013</ele><time>2015-10-27T07:53:22Z</time></trkpt><trkpt lat="43.026241" lon="-5.788273"><ele>759.114</ele><time>2015-10-27T07:53:37Z</time></trkpt><trkpt lat="43.026285" lon="-5.788257"><ele>757.708</ele><time>2015-10-27T07:53:52Z</time></trkpt><trkpt lat="43.026301" lon="-5.788267"><ele>756.298</ele><time>2015-10-27T07:53:54Z</time></trkpt><trkpt lat="43.026375" lon="-5.788386"><ele>755.218</ele><time>2015-10-27T07:54:10Z</time></trkpt><trkpt lat="43.026369" lon="-5.788419"><ele>754.811</ele><time>2015-10-27T07:54:23Z</time></trkpt><trkpt lat="43.026404" lon="-5.788463"><ele>754.820</ele><time>2015-10-27T07:54:43Z</time></trkpt><trkpt lat="43.026412" lon="-5.788477"><ele>754.835</ele><time>2015-10-27T07:54:45Z</time></trkpt><trkpt lat="43.026470" lon="-5.788645"><ele>753.366</ele><time>2015-10-27T07:55:00Z</time></trkpt><trkpt lat="43.026501" lon="-5.788765"><ele>752.858</ele><time>2015-10-27T07:55:16Z</time></trkpt><trkpt lat="43.026511" lon="-5.788787"><ele>752.836</ele><time>2015-10-27T07:55:18Z</time></trkpt><trkpt lat="43.026630" lon="-5.788947"><ele>751.924</ele><time>2015-10-27T07:55:34Z</time></trkpt><trkpt lat="43.026693" lon="-5.789082"><ele>753.304</ele><time>2015-10-27T07:55:47Z</time></trkpt><trkpt lat="43.026732" lon="-5.789149"><ele>753.314</ele><time>2015-10-27T07:55:53Z</time></trkpt><trkpt lat="43.026767" lon="-5.789245"><ele>751.908</ele><time>2015-10-27T07:56:02Z</time></trkpt><trkpt lat="43.026807" lon="-5.789352"><ele>750.933</ele><time>2015-10-27T07:56:12Z</time></trkpt><trkpt lat="43.026872" lon="-5.789345"><ele>750.073</ele><time>2015-10-27T07:56:22Z</time></trkpt><trkpt lat="43.026915" lon="-5.789334"><ele>748.546</ele><time>2015-10-27T07:56:28Z</time></trkpt><trkpt lat="43.026935" lon="-5.789323"><ele>748.535</ele><time>2015-10-27T07:56:30Z</time></trkpt><trkpt lat="43.026968" lon="-5.789297"><ele>747.670</ele><time>2015-10-27T07:56:33Z</time></trkpt><trkpt lat="43.027173" lon="-5.789293"><ele>745.281</ele><time>2015-10-27T07:56:51Z</time></trkpt><trkpt lat="43.027298" lon="-5.789349"><ele>743.293</ele><time>2015-10-27T07:57:06Z</time></trkpt><trkpt lat="43.027387" lon="-5.789404"><ele>742.351</ele><time>2015-10-27T07:57:16Z</time></trkpt><trkpt lat="43.027435" lon="-5.789372"><ele>741.351</ele><time>2015-10-27T07:57:21Z</time></trkpt><trkpt lat="43.027535" lon="-5.789314"><ele>739.901</ele><time>2015-10-27T07:57:34Z</time></trkpt><trkpt lat="43.027638" lon="-5.789276"><ele>739.911</ele><time>2015-10-27T07:57:43Z</time></trkpt><trkpt lat="43.027714" lon="-5.789314"><ele>739.908</ele><time>2015-10-27T07:57:54Z</time></trkpt><trkpt lat="43.027741" lon="-5.789328"><ele>739.996</ele><time>2015-10-27T07:58:09Z</time></trkpt><trkpt lat="43.027867" lon="-5.789269"><ele>738.476</ele><time>2015-10-27T07:58:24Z</time></trkpt><trkpt lat="43.027888" lon="-5.789270"><ele>737.559</ele><time>2015-10-27T07:58:26Z</time></trkpt><trkpt lat="43.027938" lon="-5.789274"><ele>737.558</ele><time>2015-10-27T07:58:31Z</time></trkpt><trkpt lat="43.028058" lon="-5.789302"><ele>738.093</ele><time>2015-10-27T07:58:46Z</time></trkpt><trkpt lat="43.028120" lon="-5.789331"><ele>738.044</ele><time>2015-10-27T07:58:53Z</time></trkpt><trkpt lat="43.028270" lon="-5.789436"><ele>738.916</ele><time>2015-10-27T07:59:09Z</time></trkpt><trkpt lat="43.028404" lon="-5.789526"><ele>739.464</ele><time>2015-10-27T07:59:22Z</time></trkpt><trkpt lat="43.028458" lon="-5.789589"><ele>740.335</ele><time>2015-10-27T07:59:35Z</time></trkpt><trkpt lat="43.028573" lon="-5.789600"><ele>741.386</ele><time>2015-10-27T07:59:49Z</time></trkpt><trkpt lat="43.028634" lon="-5.789608"><ele>741.814</ele><time>2015-10-27T08:00:05Z</time></trkpt><trkpt lat="43.028707" lon="-5.789606"><ele>742.808</ele><time>2015-10-27T08:00:22Z</time></trkpt><trkpt lat="43.028786" lon="-5.789613"><ele>746.154</ele><time>2015-10-27T08:00:38Z</time></trkpt><trkpt lat="43.028894" lon="-5.789592"><ele>745.674</ele><time>2015-10-27T08:00:53Z</time></trkpt><trkpt lat="43.028904" lon="-5.789587"><ele>745.617</ele><time>2015-10-27T08:00:54Z</time></trkpt><trkpt lat="43.029040" lon="-5.789560"><ele>743.216</ele><time>2015-10-27T08:01:09Z</time></trkpt><trkpt lat="43.029150" lon="-5.789563"><ele>743.241</ele><time>2015-10-27T08:01:24Z</time></trkpt><trkpt lat="43.029175" lon="-5.789568"><ele>743.222</ele><time>2015-10-27T08:01:34Z</time></trkpt><trkpt lat="43.029369" lon="-5.789561"><ele>743.744</ele><time>2015-10-27T08:01:51Z</time></trkpt><trkpt lat="43.029410" lon="-5.789526"><ele>743.752</ele><time>2015-10-27T08:01:55Z</time></trkpt><trkpt lat="43.029600" lon="-5.789406"><ele>743.273</ele><time>2015-10-27T08:02:12Z</time></trkpt><trkpt lat="43.029648" lon="-5.789400"><ele>744.785</ele><time>2015-10-27T08:02:16Z</time></trkpt><trkpt lat="43.029811" lon="-5.789581"><ele>747.613</ele><time>2015-10-27T08:02:34Z</time></trkpt><trkpt lat="43.029943" lon="-5.789691"><ele>750.508</ele><time>2015-10-27T08:02:49Z</time></trkpt><trkpt lat="43.030004" lon="-5.789741"><ele>751.428</ele><time>2015-10-27T08:02:56Z</time></trkpt><trkpt lat="43.030089" lon="-5.789797"><ele>750.058</ele><time>2015-10-27T08:03:03Z</time></trkpt><trkpt lat="43.030223" lon="-5.789867"><ele>749.581</ele><time>2015-10-27T08:03:18Z</time></trkpt><trkpt lat="43.030347" lon="-5.789891"><ele>750.950</ele><time>2015-10-27T08:03:32Z</time></trkpt><trkpt lat="43.030471" lon="-5.789915"><ele>751.985</ele><time>2015-10-27T08:03:48Z</time></trkpt><trkpt lat="43.030539" lon="-5.789988"><ele>752.886</ele><time>2015-10-27T08:04:03Z</time></trkpt><trkpt lat="43.030636" lon="-5.790063"><ele>754.878</ele><time>2015-10-27T08:04:19Z</time></trkpt><trkpt lat="43.030674" lon="-5.790150"><ele>754.866</ele><time>2015-10-27T08:04:35Z</time></trkpt><trkpt lat="43.030728" lon="-5.790225"><ele>756.762</ele><time>2015-10-27T08:04:53Z</time></trkpt><trkpt lat="43.030784" lon="-5.790306"><ele>758.183</ele><time>2015-10-27T08:05:04Z</time></trkpt><trkpt lat="43.030933" lon="-5.790447"><ele>756.711</ele><time>2015-10-27T08:05:22Z</time></trkpt><trkpt lat="43.031015" lon="-5.790560"><ele>756.708</ele><time>2015-10-27T08:05:37Z</time></trkpt><trkpt lat="43.031135" lon="-5.790710"><ele>758.697</ele><time>2015-10-27T08:05:54Z</time></trkpt><trkpt lat="43.031165" lon="-5.790780"><ele>758.697</ele><time>2015-10-27T08:06:00Z</time></trkpt><trkpt lat="43.031238" lon="-5.790904"><ele>759.660</ele><time>2015-10-27T08:06:16Z</time></trkpt><trkpt lat="43.031245" lon="-5.790901"><ele>760.179</ele><time>2015-10-27T08:06:19Z</time></trkpt><trkpt lat="43.031287" lon="-5.790846"><ele>760.574</ele><time>2015-10-27T08:06:33Z</time></trkpt><trkpt lat="43.031317" lon="-5.790774"><ele>762.015</ele><time>2015-10-27T08:06:47Z</time></trkpt><trkpt lat="43.031373" lon="-5.790706"><ele>764.437</ele><time>2015-10-27T08:07:00Z</time></trkpt><trkpt lat="43.031435" lon="-5.790660"><ele>766.855</ele><time>2015-10-27T08:07:11Z</time></trkpt><trkpt lat="43.031490" lon="-5.790550"><ele>769.256</ele><time>2015-10-27T08:07:26Z</time></trkpt><trkpt lat="43.031635" lon="-5.790504"><ele>771.159</ele><time>2015-10-27T08:07:41Z</time></trkpt><trkpt lat="43.031753" lon="-5.790526"><ele>773.014</ele><time>2015-10-27T08:07:55Z</time></trkpt><trkpt lat="43.031866" lon="-5.790516"><ele>775.908</ele><time>2015-10-27T08:08:11Z</time></trkpt><trkpt lat="43.031982" lon="-5.790480"><ele>778.336</ele><time>2015-10-27T08:08:25Z</time></trkpt><trkpt lat="43.032110" lon="-5.790467"><ele>779.356</ele><time>2015-10-27T08:08:41Z</time></trkpt><trkpt lat="43.032135" lon="-5.790473"><ele>777.889</ele><time>2015-10-27T08:08:44Z</time></trkpt><trkpt lat="43.032147" lon="-5.790477"><ele>777.898</ele><time>2015-10-27T08:08:45Z</time></trkpt><trkpt lat="43.032210" lon="-5.790508"><ele>776.973</ele><time>2015-10-27T08:08:49Z</time></trkpt><trkpt lat="43.032360" lon="-5.790580"><ele>776.964</ele><time>2015-10-27T08:09:03Z</time></trkpt><trkpt lat="43.032437" lon="-5.790597"><ele>778.356</ele><time>2015-10-27T08:09:10Z</time></trkpt><trkpt lat="43.032542" lon="-5.790762"><ele>781.274</ele><time>2015-10-27T08:09:23Z</time></trkpt><trkpt lat="43.032596" lon="-5.790856"><ele>784.157</ele><time>2015-10-27T08:09:37Z</time></trkpt><trkpt lat="43.032663" lon="-5.790919"><ele>787.500</ele><time>2015-10-27T08:09:52Z</time></trkpt><trkpt lat="43.032750" lon="-5.790942"><ele>790.820</ele><time>2015-10-27T08:10:10Z</time></trkpt><trkpt lat="43.032824" lon="-5.790940"><ele>792.708</ele><time>2015-10-27T08:10:26Z</time></trkpt><trkpt lat="43.032909" lon="-5.790899"><ele>794.746</ele><time>2015-10-27T08:10:42Z</time></trkpt><trkpt lat="43.033005" lon="-5.790811"><ele>796.676</ele><time>2015-10-27T08:10:57Z</time></trkpt><trkpt lat="43.033140" lon="-5.790713"><ele>798.059</ele><time>2015-10-27T08:11:14Z</time></trkpt><trkpt lat="43.033305" lon="-5.790671"><ele>799.028</ele><time>2015-10-27T08:11:27Z</time></trkpt><trkpt lat="43.033346" lon="-5.790655"><ele>799.093</ele><time>2015-10-27T08:11:31Z</time></trkpt><trkpt lat="43.033416" lon="-5.790632"><ele>800.434</ele><time>2015-10-27T08:11:41Z</time></trkpt><trkpt lat="43.033499" lon="-5.790538"><ele>801.426</ele><time>2015-10-27T08:11:54Z</time></trkpt><trkpt lat="43.033525" lon="-5.790517"><ele>801.484</ele><time>2015-10-27T08:11:57Z</time></trkpt><trkpt lat="43.033657" lon="-5.790459"><ele>803.367</ele><time>2015-10-27T08:12:11Z</time></trkpt><trkpt lat="43.033771" lon="-5.790416"><ele>805.281</ele><time>2015-10-27T08:12:24Z</time></trkpt><trkpt lat="43.033916" lon="-5.790346"><ele>806.219</ele><time>2015-10-27T08:12:38Z</time></trkpt><trkpt lat="43.034095" lon="-5.790247"><ele>807.208</ele><time>2015-10-27T08:12:54Z</time></trkpt><trkpt lat="43.034138" lon="-5.790244"><ele>807.637</ele><time>2015-10-27T08:13:00Z</time></trkpt><trkpt lat="43.034274" lon="-5.790157"><ele>810.037</ele><time>2015-10-27T08:13:15Z</time></trkpt><trkpt lat="43.034283" lon="-5.790153"><ele>810.020</ele><time>2015-10-27T08:13:16Z</time></trkpt><trkpt lat="43.034395" lon="-5.790115"><ele>812.559</ele><time>2015-10-27T08:13:29Z</time></trkpt><trkpt lat="43.034528" lon="-5.790111"><ele>815.394</ele><time>2015-10-27T08:13:44Z</time></trkpt><trkpt lat="43.034668" lon="-5.790090"><ele>818.725</ele><time>2015-10-27T08:14:00Z</time></trkpt><trkpt lat="43.034690" lon="-5.790084"><ele>818.737</ele><time>2015-10-27T08:14:02Z</time></trkpt><trkpt lat="43.034817" lon="-5.790090"><ele>820.195</ele><time>2015-10-27T08:14:17Z</time></trkpt><trkpt lat="43.034953" lon="-5.790067"><ele>821.688</ele><time>2015-10-27T08:14:33Z</time></trkpt><trkpt lat="43.035064" lon="-5.790085"><ele>824.524</ele><time>2015-10-27T08:14:47Z</time></trkpt><trkpt lat="43.035193" lon="-5.790173"><ele>826.926</ele><time>2015-10-27T08:15:04Z</time></trkpt><trkpt lat="43.035350" lon="-5.790300"><ele>827.808</ele><time>2015-10-27T08:15:24Z</time></trkpt><trkpt lat="43.035360" lon="-5.790358"><ele>826.479</ele><time>2015-10-27T08:15:31Z</time></trkpt><trkpt lat="43.035393" lon="-5.790464"><ele>827.849</ele><time>2015-10-27T08:15:57Z</time></trkpt><trkpt lat="43.035421" lon="-5.790542"><ele>826.422</ele><time>2015-10-27T08:16:04Z</time></trkpt><trkpt lat="43.035535" lon="-5.790646"><ele>825.051</ele><time>2015-10-27T08:16:16Z</time></trkpt><trkpt lat="43.035627" lon="-5.790797"><ele>824.546</ele><time>2015-10-27T08:16:31Z</time></trkpt><trkpt lat="43.035731" lon="-5.790958"><ele>824.517</ele><time>2015-10-27T08:16:46Z</time></trkpt><trkpt lat="43.035830" lon="-5.791117"><ele>824.529</ele><time>2015-10-27T08:17:00Z</time></trkpt><trkpt lat="43.035924" lon="-5.791303"><ele>826.477</ele><time>2015-10-27T08:17:14Z</time></trkpt><trkpt lat="43.035992" lon="-5.791428"><ele>827.314</ele><time>2015-10-27T08:17:27Z</time></trkpt><trkpt lat="43.036044" lon="-5.791456"><ele>829.354</ele><time>2015-10-27T08:17:42Z</time></trkpt><trkpt lat="43.036128" lon="-5.791398"><ele>829.309</ele><time>2015-10-27T08:17:55Z</time></trkpt><trkpt lat="43.036166" lon="-5.791334"><ele>829.808</ele><time>2015-10-27T08:18:05Z</time></trkpt><trkpt lat="43.036225" lon="-5.791224"><ele>829.892</ele><time>2015-10-27T08:18:19Z</time></trkpt><trkpt lat="43.036278" lon="-5.791106"><ele>830.292</ele><time>2015-10-27T08:18:28Z</time></trkpt><trkpt lat="43.036365" lon="-5.790989"><ele>830.295</ele><time>2015-10-27T08:18:40Z</time></trkpt><trkpt lat="43.036377" lon="-5.790954"><ele>828.884</ele><time>2015-10-27T08:18:42Z</time></trkpt><trkpt lat="43.036485" lon="-5.790739"><ele>829.369</ele><time>2015-10-27T08:18:56Z</time></trkpt><trkpt lat="43.036527" lon="-5.790683"><ele>830.210</ele><time>2015-10-27T08:19:01Z</time></trkpt><trkpt lat="43.036596" lon="-5.790653"><ele>831.222</ele><time>2015-10-27T08:19:08Z</time></trkpt><trkpt lat="43.036624" lon="-5.790628"><ele>831.750</ele><time>2015-10-27T08:19:11Z</time></trkpt><trkpt lat="43.036713" lon="-5.790575"><ele>832.293</ele><time>2015-10-27T08:19:24Z</time></trkpt><trkpt lat="43.036834" lon="-5.790421"><ele>834.165</ele><time>2015-10-27T08:19:39Z</time></trkpt><trkpt lat="43.036860" lon="-5.790396"><ele>835.021</ele><time>2015-10-27T08:19:42Z</time></trkpt><trkpt lat="43.036946" lon="-5.790316"><ele>837.908</ele><time>2015-10-27T08:19:56Z</time></trkpt><trkpt lat="43.037047" lon="-5.790257"><ele>839.830</ele><time>2015-10-27T08:20:09Z</time></trkpt><trkpt lat="43.037204" lon="-5.790205"><ele>842.220</ele><time>2015-10-27T08:20:24Z</time></trkpt><trkpt lat="43.037240" lon="-5.790221"><ele>842.793</ele><time>2015-10-27T08:20:37Z</time></trkpt><trkpt lat="43.037260" lon="-5.790266"><ele>842.752</ele><time>2015-10-27T08:20:53Z</time></trkpt><trkpt lat="43.037271" lon="-5.790282"><ele>842.737</ele><time>2015-10-27T08:21:14Z</time></trkpt><trkpt lat="43.037272" lon="-5.790301"><ele>842.788</ele><time>2015-10-27T08:21:32Z</time></trkpt><trkpt lat="43.037361" lon="-5.790293"><ele>841.390</ele><time>2015-10-27T08:21:40Z</time></trkpt><trkpt lat="43.037470" lon="-5.790281"><ele>840.878</ele><time>2015-10-27T08:21:51Z</time></trkpt><trkpt lat="43.037611" lon="-5.790263"><ele>841.893</ele><time>2015-10-27T08:22:06Z</time></trkpt><trkpt lat="43.037631" lon="-5.790269"><ele>841.865</ele><time>2015-10-27T08:22:22Z</time></trkpt><trkpt lat="43.037694" lon="-5.790251"><ele>842.721</ele><time>2015-10-27T08:22:28Z</time></trkpt><trkpt lat="43.037758" lon="-5.790267"><ele>843.208</ele><time>2015-10-27T08:22:34Z</time></trkpt><trkpt lat="43.037842" lon="-5.790256"><ele>844.720</ele><time>2015-10-27T08:22:45Z</time></trkpt><trkpt lat="43.037932" lon="-5.790226"><ele>844.720</ele><time>2015-10-27T08:22:55Z</time></trkpt><trkpt lat="43.038104" lon="-5.790249"><ele>846.113</ele><time>2015-10-27T08:23:12Z</time></trkpt><trkpt lat="43.038241" lon="-5.790209"><ele>847.192</ele><time>2015-10-27T08:23:24Z</time></trkpt><trkpt lat="43.038404" lon="-5.790144"><ele>847.537</ele><time>2015-10-27T08:23:39Z</time></trkpt><trkpt lat="43.038435" lon="-5.790136"><ele>847.518</ele><time>2015-10-27T08:23:42Z</time></trkpt><trkpt lat="43.038460" lon="-5.790132"><ele>846.190</ele><time>2015-10-27T08:23:44Z</time></trkpt><trkpt lat="43.038538" lon="-5.790090"><ele>845.618</ele><time>2015-10-27T08:23:51Z</time></trkpt><trkpt lat="43.038643" lon="-5.790042"><ele>845.675</ele><time>2015-10-27T08:24:00Z</time></trkpt><trkpt lat="43.038827" lon="-5.790001"><ele>845.128</ele><time>2015-10-27T08:24:16Z</time></trkpt><trkpt lat="43.039035" lon="-5.789984"><ele>845.120</ele><time>2015-10-27T08:24:33Z</time></trkpt><trkpt lat="43.039092" lon="-5.789983"><ele>845.108</ele><time>2015-10-27T08:24:38Z</time></trkpt><trkpt lat="43.039278" lon="-5.789978"><ele>846.698</ele><time>2015-10-27T08:24:54Z</time></trkpt><trkpt lat="43.039407" lon="-5.789980"><ele>846.668</ele><time>2015-10-27T08:25:05Z</time></trkpt><trkpt lat="43.039449" lon="-5.789990"><ele>847.161</ele><time>2015-10-27T08:25:09Z</time></trkpt><trkpt lat="43.039644" lon="-5.789927"><ele>847.150</ele><time>2015-10-27T08:25:26Z</time></trkpt><trkpt lat="43.039822" lon="-5.789862"><ele>847.565</ele><time>2015-10-27T08:25:43Z</time></trkpt><trkpt lat="43.039967" lon="-5.789780"><ele>847.526</ele><time>2015-10-27T08:25:56Z</time></trkpt><trkpt lat="43.040109" lon="-5.789677"><ele>846.688</ele><time>2015-10-27T08:26:11Z</time></trkpt><trkpt lat="43.040237" lon="-5.789620"><ele>848.596</ele><time>2015-10-27T08:26:24Z</time></trkpt><trkpt lat="43.040246" lon="-5.789619"><ele>848.571</ele><time>2015-10-27T08:26:25Z</time></trkpt><trkpt lat="43.040416" lon="-5.789574"><ele>851.441</ele><time>2015-10-27T08:26:42Z</time></trkpt><trkpt lat="43.040536" lon="-5.789548"><ele>853.815</ele><time>2015-10-27T08:26:56Z</time></trkpt><trkpt lat="43.040664" lon="-5.789509"><ele>856.708</ele><time>2015-10-27T08:27:12Z</time></trkpt><trkpt lat="43.040770" lon="-5.789487"><ele>858.658</ele><time>2015-10-27T08:27:26Z</time></trkpt><trkpt lat="43.040901" lon="-5.789457"><ele>860.568</ele><time>2015-10-27T08:27:42Z</time></trkpt><trkpt lat="43.040954" lon="-5.789508"><ele>860.581</ele><time>2015-10-27T08:27:54Z</time></trkpt><trkpt lat="43.041021" lon="-5.789522"><ele>861.050</ele><time>2015-10-27T08:28:05Z</time></trkpt><trkpt lat="43.041039" lon="-5.789500"><ele>861.085</ele><time>2015-10-27T08:28:08Z</time></trkpt><trkpt lat="43.041145" lon="-5.789403"><ele>861.596</ele><time>2015-10-27T08:28:18Z</time></trkpt><trkpt lat="43.041266" lon="-5.789325"><ele>862.058</ele><time>2015-10-27T08:28:33Z</time></trkpt><trkpt lat="43.041332" lon="-5.789243"><ele>862.476</ele><time>2015-10-27T08:28:40Z</time></trkpt><trkpt lat="43.041437" lon="-5.789153"><ele>862.981</ele><time>2015-10-27T08:28:53Z</time></trkpt><trkpt lat="43.041507" lon="-5.789166"><ele>863.961</ele><time>2015-10-27T08:29:05Z</time></trkpt><trkpt lat="43.041621" lon="-5.789136"><ele>865.317</ele><time>2015-10-27T08:29:20Z</time></trkpt><trkpt lat="43.041651" lon="-5.789147"><ele>865.308</ele><time>2015-10-27T08:29:24Z</time></trkpt><trkpt lat="43.041839" lon="-5.789098"><ele>865.379</ele><time>2015-10-27T08:29:38Z</time></trkpt><trkpt lat="43.041878" lon="-5.789120"><ele>865.349</ele><time>2015-10-27T08:29:43Z</time></trkpt><trkpt lat="43.042071" lon="-5.789010"><ele>865.322</ele><time>2015-10-27T08:30:00Z</time></trkpt><trkpt lat="43.042210" lon="-5.788897"><ele>863.911</ele><time>2015-10-27T08:30:14Z</time></trkpt><trkpt lat="43.042353" lon="-5.788772"><ele>863.436</ele><time>2015-10-27T08:30:29Z</time></trkpt><trkpt lat="43.042508" lon="-5.788626"><ele>862.487</ele><time>2015-10-27T08:30:45Z</time></trkpt><trkpt lat="43.042635" lon="-5.788523"><ele>861.519</ele><time>2015-10-27T08:30:58Z</time></trkpt><trkpt lat="43.042789" lon="-5.788413"><ele>860.587</ele><time>2015-10-27T08:31:14Z</time></trkpt><trkpt lat="43.042913" lon="-5.788316"><ele>860.046</ele><time>2015-10-27T08:31:26Z</time></trkpt><trkpt lat="43.043088" lon="-5.788157"><ele>859.188</ele><time>2015-10-27T08:31:44Z</time></trkpt><trkpt lat="43.043175" lon="-5.788073"><ele>858.616</ele><time>2015-10-27T08:31:53Z</time></trkpt><trkpt lat="43.043262" lon="-5.788007"><ele>858.108</ele><time>2015-10-27T08:32:07Z</time></trkpt><trkpt lat="43.043410" lon="-5.787924"><ele>857.225</ele><time>2015-10-27T08:32:21Z</time></trkpt><trkpt lat="43.043580" lon="-5.787838"><ele>856.265</ele><time>2015-10-27T08:32:36Z</time></trkpt><trkpt lat="43.043658" lon="-5.787836"><ele>855.798</ele><time>2015-10-27T08:32:43Z</time></trkpt><trkpt lat="43.043846" lon="-5.787863"><ele>855.287</ele><time>2015-10-27T08:32:59Z</time></trkpt><trkpt lat="43.043883" lon="-5.787872"><ele>855.242</ele><time>2015-10-27T08:33:02Z</time></trkpt><trkpt lat="43.044019" lon="-5.787923"><ele>854.373</ele><time>2015-10-27T08:33:14Z</time></trkpt><trkpt lat="43.044085" lon="-5.787941"><ele>853.865</ele><time>2015-10-27T08:33:20Z</time></trkpt><trkpt lat="43.044237" lon="-5.788126"><ele>852.373</ele><time>2015-10-27T08:33:37Z</time></trkpt><trkpt lat="43.044304" lon="-5.788301"><ele>850.414</ele><time>2015-10-27T08:33:49Z</time></trkpt><trkpt lat="43.044403" lon="-5.788475"><ele>849.054</ele><time>2015-10-27T08:34:04Z</time></trkpt><trkpt lat="43.044495" lon="-5.788732"><ele>848.009</ele><time>2015-10-27T08:34:20Z</time></trkpt><trkpt lat="43.044655" lon="-5.789074"><ele>846.108</ele><time>2015-10-27T08:34:46Z</time></trkpt><trkpt lat="43.044774" lon="-5.789315"><ele>843.752</ele><time>2015-10-27T08:35:05Z</time></trkpt><trkpt lat="43.044804" lon="-5.789325"><ele>843.722</ele><time>2015-10-27T08:35:08Z</time></trkpt><trkpt lat="43.044989" lon="-5.789204"><ele>843.295</ele><time>2015-10-27T08:35:26Z</time></trkpt><trkpt lat="43.045007" lon="-5.789183"><ele>841.894</ele><time>2015-10-27T08:35:28Z</time></trkpt><trkpt lat="43.045045" lon="-5.789152"><ele>841.379</ele><time>2015-10-27T08:35:32Z</time></trkpt><trkpt lat="43.045124" lon="-5.789028"><ele>839.820</ele><time>2015-10-27T08:35:43Z</time></trkpt><trkpt lat="43.045277" lon="-5.788879"><ele>838.442</ele><time>2015-10-27T08:35:59Z</time></trkpt><trkpt lat="43.045434" lon="-5.788842"><ele>836.580</ele><time>2015-10-27T08:36:14Z</time></trkpt><trkpt lat="43.045562" lon="-5.788767"><ele>835.028</ele><time>2015-10-27T08:36:29Z</time></trkpt><trkpt lat="43.045572" lon="-5.788741"><ele>834.689</ele><time>2015-10-27T08:36:32Z</time></trkpt><trkpt lat="43.045606" lon="-5.788551"><ele>833.117</ele><time>2015-10-27T08:36:49Z</time></trkpt><trkpt lat="43.045644" lon="-5.788358"><ele>831.208</ele><time>2015-10-27T08:37:03Z</time></trkpt><trkpt lat="43.045748" lon="-5.788079"><ele>829.863</ele><time>2015-10-27T08:37:21Z</time></trkpt><trkpt lat="43.045878" lon="-5.787904"><ele>828.313</ele><time>2015-10-27T08:37:35Z</time></trkpt><trkpt lat="43.046051" lon="-5.787745"><ele>826.486</ele><time>2015-10-27T08:37:52Z</time></trkpt><trkpt lat="43.046130" lon="-5.787674"><ele>825.025</ele><time>2015-10-27T08:38:01Z</time></trkpt><trkpt lat="43.046279" lon="-5.787559"><ele>823.080</ele><time>2015-10-27T08:38:17Z</time></trkpt><trkpt lat="43.046418" lon="-5.787436"><ele>821.111</ele><time>2015-10-27T08:38:32Z</time></trkpt><trkpt lat="43.046510" lon="-5.787359"><ele>820.143</ele><time>2015-10-27T08:38:42Z</time></trkpt><trkpt lat="43.046619" lon="-5.787210"><ele>817.711</ele><time>2015-10-27T08:38:57Z</time></trkpt><trkpt lat="43.046734" lon="-5.787029"><ele>816.369</ele><time>2015-10-27T08:39:13Z</time></trkpt><trkpt lat="43.046792" lon="-5.786902"><ele>814.804</ele><time>2015-10-27T08:39:24Z</time></trkpt><trkpt lat="43.046876" lon="-5.786730"><ele>812.924</ele><time>2015-10-27T08:39:38Z</time></trkpt><trkpt lat="43.046963" lon="-5.786542"><ele>811.508</ele><time>2015-10-27T08:39:53Z</time></trkpt><trkpt lat="43.046980" lon="-5.786470"><ele>811.027</ele><time>2015-10-27T08:40:01Z</time></trkpt><trkpt lat="43.047039" lon="-5.786261"><ele>809.147</ele><time>2015-10-27T08:40:16Z</time></trkpt><trkpt lat="43.047055" lon="-5.786055"><ele>807.290</ele><time>2015-10-27T08:40:32Z</time></trkpt><trkpt lat="43.047060" lon="-5.786024"><ele>806.759</ele><time>2015-10-27T08:40:34Z</time></trkpt><trkpt lat="43.047084" lon="-5.785966"><ele>806.714</ele><time>2015-10-27T08:40:38Z</time></trkpt><trkpt lat="43.047251" lon="-5.785781"><ele>803.885</ele><time>2015-10-27T08:40:56Z</time></trkpt><trkpt lat="43.047290" lon="-5.785744"><ele>803.347</ele><time>2015-10-27T08:41:00Z</time></trkpt><trkpt lat="43.047343" lon="-5.785715"><ele>802.835</ele><time>2015-10-27T08:41:05Z</time></trkpt><trkpt lat="43.047487" lon="-5.785699"><ele>800.983</ele><time>2015-10-27T08:41:21Z</time></trkpt><trkpt lat="43.047494" lon="-5.785695"><ele>800.425</ele><time>2015-10-27T08:41:22Z</time></trkpt><trkpt lat="43.047544" lon="-5.785672"><ele>800.017</ele><time>2015-10-27T08:41:27Z</time></trkpt><trkpt lat="43.047582" lon="-5.785662"><ele>799.008</ele><time>2015-10-27T08:41:31Z</time></trkpt><trkpt lat="43.047701" lon="-5.785521"><ele>797.189</ele><time>2015-10-27T08:41:45Z</time></trkpt><trkpt lat="43.047727" lon="-5.785493"><ele>797.159</ele><time>2015-10-27T08:41:48Z</time></trkpt><trkpt lat="43.047821" lon="-5.785414"><ele>795.652</ele><time>2015-10-27T08:41:56Z</time></trkpt><trkpt lat="43.047948" lon="-5.785283"><ele>793.771</ele><time>2015-10-27T08:42:10Z</time></trkpt><trkpt lat="43.047995" lon="-5.785191"><ele>792.716</ele><time>2015-10-27T08:42:18Z</time></trkpt><trkpt lat="43.048020" lon="-5.785150"><ele>792.367</ele><time>2015-10-27T08:42:22Z</time></trkpt><trkpt lat="43.048083" lon="-5.784967"><ele>790.889</ele><time>2015-10-27T08:42:38Z</time></trkpt><trkpt lat="43.048066" lon="-5.784797"><ele>788.957</ele><time>2015-10-27T08:42:53Z</time></trkpt><trkpt lat="43.048045" lon="-5.784765"><ele>788.455</ele><time>2015-10-27T08:42:57Z</time></trkpt><trkpt lat="43.048033" lon="-5.784610"><ele>787.007</ele><time>2015-10-27T08:43:07Z</time></trkpt><trkpt lat="43.048055" lon="-5.784526"><ele>786.517</ele><time>2015-10-27T08:43:12Z</time></trkpt><trkpt lat="43.048170" lon="-5.784356"><ele>785.008</ele><time>2015-10-27T08:43:25Z</time></trkpt><trkpt lat="43.048236" lon="-5.784297"><ele>784.126</ele><time>2015-10-27T08:43:31Z</time></trkpt><trkpt lat="43.048432" lon="-5.784129"><ele>781.736</ele><time>2015-10-27T08:43:49Z</time></trkpt><trkpt lat="43.048443" lon="-5.784120"><ele>781.779</ele><time>2015-10-27T08:43:50Z</time></trkpt><trkpt lat="43.048480" lon="-5.784110"><ele>780.768</ele><time>2015-10-27T08:43:53Z</time></trkpt><trkpt lat="43.048635" lon="-5.784086"><ele>779.393</ele><time>2015-10-27T08:44:07Z</time></trkpt><trkpt lat="43.048823" lon="-5.784122"><ele>777.454</ele><time>2015-10-27T08:44:21Z</time></trkpt><trkpt lat="43.048850" lon="-5.784138"><ele>777.466</ele><time>2015-10-27T08:44:23Z</time></trkpt><trkpt lat="43.049053" lon="-5.784233"><ele>775.014</ele><time>2015-10-27T08:44:40Z</time></trkpt><trkpt lat="43.049214" lon="-5.784316"><ele>773.588</ele><time>2015-10-27T08:44:54Z</time></trkpt><trkpt lat="43.049383" lon="-5.784398"><ele>771.624</ele><time>2015-10-27T08:45:09Z</time></trkpt><trkpt lat="43.049435" lon="-5.784424"><ele>771.126</ele><time>2015-10-27T08:45:16Z</time></trkpt><trkpt lat="43.049555" lon="-5.784439"><ele>770.208</ele><time>2015-10-27T08:45:29Z</time></trkpt><trkpt lat="43.049639" lon="-5.784476"><ele>768.789</ele><time>2015-10-27T08:45:38Z</time></trkpt><trkpt lat="43.049682" lon="-5.784488"><ele>768.289</ele><time>2015-10-27T08:45:42Z</time></trkpt><trkpt lat="43.049755" lon="-5.784510"><ele>767.892</ele><time>2015-10-27T08:45:49Z</time></trkpt><trkpt lat="43.049819" lon="-5.784546"><ele>767.371</ele><time>2015-10-27T08:45:55Z</time></trkpt><trkpt lat="43.049902" lon="-5.784567"><ele>766.336</ele><time>2015-10-27T08:46:03Z</time></trkpt><trkpt lat="43.049962" lon="-5.784594"><ele>765.837</ele><time>2015-10-27T08:46:09Z</time></trkpt><trkpt lat="43.050140" lon="-5.784684"><ele>763.919</ele><time>2015-10-27T08:46:25Z</time></trkpt><trkpt lat="43.050279" lon="-5.784755"><ele>762.597</ele><time>2015-10-27T08:46:38Z</time></trkpt><trkpt lat="43.050396" lon="-5.784787"><ele>761.034</ele><time>2015-10-27T08:46:49Z</time></trkpt><trkpt lat="43.050568" lon="-5.784794"><ele>759.155</ele><time>2015-10-27T08:47:05Z</time></trkpt><trkpt lat="43.050649" lon="-5.784822"><ele>758.110</ele><time>2015-10-27T08:47:13Z</time></trkpt><trkpt lat="43.050798" lon="-5.784842"><ele>756.208</ele><time>2015-10-27T08:47:27Z</time></trkpt><trkpt lat="43.050820" lon="-5.784838"><ele>756.274</ele><time>2015-10-27T08:47:29Z</time></trkpt><trkpt lat="43.050885" lon="-5.784841"><ele>755.754</ele><time>2015-10-27T08:47:35Z</time></trkpt><trkpt lat="43.050977" lon="-5.784762"><ele>754.337</ele><time>2015-10-27T08:47:45Z</time></trkpt><trkpt lat="43.051005" lon="-5.784740"><ele>754.346</ele><time>2015-10-27T08:47:48Z</time></trkpt><trkpt lat="43.051047" lon="-5.784560"><ele>752.431</ele><time>2015-10-27T08:48:04Z</time></trkpt><trkpt lat="43.051063" lon="-5.784505"><ele>751.932</ele><time>2015-10-27T08:48:09Z</time></trkpt><trkpt lat="43.051108" lon="-5.784294"><ele>750.054</ele><time>2015-10-27T08:48:25Z</time></trkpt><trkpt lat="43.051133" lon="-5.784095"><ele>749.022</ele><time>2015-10-27T08:48:39Z</time></trkpt><trkpt lat="43.051146" lon="-5.783866"><ele>746.114</ele><time>2015-10-27T08:48:55Z</time></trkpt><trkpt lat="43.051147" lon="-5.783806"><ele>746.154</ele><time>2015-10-27T08:48:59Z</time></trkpt><trkpt lat="43.051150" lon="-5.783633"><ele>744.709</ele><time>2015-10-27T08:49:11Z</time></trkpt><trkpt lat="43.051145" lon="-5.783612"><ele>744.208</ele><time>2015-10-27T08:49:13Z</time></trkpt><trkpt lat="43.051146" lon="-5.783461"><ele>743.242</ele><time>2015-10-27T08:49:23Z</time></trkpt><trkpt lat="43.051144" lon="-5.783433"><ele>743.262</ele><time>2015-10-27T08:49:25Z</time></trkpt><trkpt lat="43.051177" lon="-5.783369"><ele>742.375</ele><time>2015-10-27T08:49:29Z</time></trkpt><trkpt lat="43.051214" lon="-5.783314"><ele>742.324</ele><time>2015-10-27T08:49:33Z</time></trkpt><trkpt lat="43.051365" lon="-5.783279"><ele>740.369</ele><time>2015-10-27T08:49:46Z</time></trkpt><trkpt lat="43.051502" lon="-5.783172"><ele>738.490</ele><time>2015-10-27T08:50:01Z</time></trkpt><trkpt lat="43.051657" lon="-5.783038"><ele>736.532</ele><time>2015-10-27T08:50:17Z</time></trkpt><trkpt lat="43.051818" lon="-5.782984"><ele>734.690</ele><time>2015-10-27T08:50:32Z</time></trkpt><trkpt lat="43.051903" lon="-5.782976"><ele>734.164</ele><time>2015-10-27T08:50:40Z</time></trkpt><trkpt lat="43.052001" lon="-5.782890"><ele>732.206</ele><time>2015-10-27T08:50:50Z</time></trkpt><trkpt lat="43.052097" lon="-5.782676"><ele>730.716</ele><time>2015-10-27T08:51:07Z</time></trkpt><trkpt lat="43.052131" lon="-5.782597"><ele>729.308</ele><time>2015-10-27T08:51:15Z</time></trkpt><trkpt lat="43.052191" lon="-5.782361"><ele>727.437</ele><time>2015-10-27T08:51:31Z</time></trkpt><trkpt lat="43.052203" lon="-5.782292"><ele>726.957</ele><time>2015-10-27T08:51:36Z</time></trkpt><trkpt lat="43.052260" lon="-5.782036"><ele>724.520</ele><time>2015-10-27T08:51:52Z</time></trkpt><trkpt lat="43.052328" lon="-5.781856"><ele>723.089</ele><time>2015-10-27T08:52:05Z</time></trkpt><trkpt lat="43.052418" lon="-5.781650"><ele>722.124</ele><time>2015-10-27T08:52:20Z</time></trkpt><trkpt lat="43.052499" lon="-5.781484"><ele>720.225</ele><time>2015-10-27T08:52:33Z</time></trkpt><trkpt lat="43.052590" lon="-5.781292"><ele>718.717</ele><time>2015-10-27T08:52:48Z</time></trkpt><trkpt lat="43.052712" lon="-5.781091"><ele>716.825</ele><time>2015-10-27T08:53:04Z</time></trkpt><trkpt lat="43.052727" lon="-5.781064"><ele>716.861</ele><time>2015-10-27T08:53:06Z</time></trkpt><trkpt lat="43.052888" lon="-5.780953"><ele>715.421</ele><time>2015-10-27T08:53:21Z</time></trkpt><trkpt lat="43.052900" lon="-5.780943"><ele>714.913</ele><time>2015-10-27T08:53:22Z</time></trkpt><trkpt lat="43.052928" lon="-5.780920"><ele>714.908</ele><time>2015-10-27T08:53:25Z</time></trkpt><trkpt lat="43.052998" lon="-5.780882"><ele>713.967</ele><time>2015-10-27T08:53:32Z</time></trkpt><trkpt lat="43.053037" lon="-5.780841"><ele>713.477</ele><time>2015-10-27T08:53:36Z</time></trkpt><trkpt lat="43.053077" lon="-5.780815"><ele>713.060</ele><time>2015-10-27T08:53:40Z</time></trkpt><trkpt lat="43.053150" lon="-5.780737"><ele>712.589</ele><time>2015-10-27T08:53:48Z</time></trkpt><trkpt lat="43.053202" lon="-5.780657"><ele>711.524</ele><time>2015-10-27T08:53:56Z</time></trkpt><trkpt lat="43.053300" lon="-5.780481"><ele>709.195</ele><time>2015-10-27T08:54:12Z</time></trkpt><trkpt lat="43.053412" lon="-5.780277"><ele>707.747</ele><time>2015-10-27T08:54:29Z</time></trkpt><trkpt lat="43.053549" lon="-5.780141"><ele>706.225</ele><time>2015-10-27T08:54:43Z</time></trkpt><trkpt lat="43.053754" lon="-5.780136"><ele>704.356</ele><time>2015-10-27T08:54:59Z</time></trkpt><trkpt lat="43.053894" lon="-5.780112"><ele>702.959</ele><time>2015-10-27T08:55:13Z</time></trkpt><trkpt lat="43.054014" lon="-5.780114"><ele>701.414</ele><time>2015-10-27T08:55:23Z</time></trkpt><trkpt lat="43.054049" lon="-5.780115"><ele>700.908</ele><time>2015-10-27T08:55:26Z</time></trkpt><trkpt lat="43.054208" lon="-5.780070"><ele>699.516</ele><time>2015-10-27T08:55:40Z</time></trkpt><trkpt lat="43.054351" lon="-5.780011"><ele>697.636</ele><time>2015-10-27T08:55:55Z</time></trkpt><trkpt lat="43.054396" lon="-5.779987"><ele>697.129</ele><time>2015-10-27T08:56:00Z</time></trkpt><trkpt lat="43.054446" lon="-5.779980"><ele>696.658</ele><time>2015-10-27T08:56:04Z</time></trkpt><trkpt lat="43.054603" lon="-5.779906"><ele>695.223</ele><time>2015-10-27T08:56:19Z</time></trkpt><trkpt lat="43.054687" lon="-5.779888"><ele>694.244</ele><time>2015-10-27T08:56:27Z</time></trkpt><trkpt lat="43.054775" lon="-5.779897"><ele>692.346</ele><time>2015-10-27T08:56:36Z</time></trkpt><trkpt lat="43.054921" lon="-5.780057"><ele>690.474</ele><time>2015-10-27T08:56:51Z</time></trkpt><trkpt lat="43.055030" lon="-5.780242"><ele>688.933</ele><time>2015-10-27T08:57:07Z</time></trkpt><trkpt lat="43.055121" lon="-5.780371"><ele>687.523</ele><time>2015-10-27T08:57:19Z</time></trkpt><trkpt lat="43.055206" lon="-5.780499"><ele>686.015</ele><time>2015-10-27T08:57:32Z</time></trkpt><trkpt lat="43.055216" lon="-5.780516"><ele>685.608</ele><time>2015-10-27T08:57:33Z</time></trkpt><trkpt lat="43.055232" lon="-5.780554"><ele>685.644</ele><time>2015-10-27T08:57:36Z</time></trkpt><trkpt lat="43.055251" lon="-5.780598"><ele>685.124</ele><time>2015-10-27T08:57:39Z</time></trkpt><trkpt lat="43.055339" lon="-5.780824"><ele>683.627</ele><time>2015-10-27T08:57:55Z</time></trkpt><trkpt lat="43.055407" lon="-5.780947"><ele>682.716</ele><time>2015-10-27T08:58:05Z</time></trkpt><trkpt lat="43.055422" lon="-5.780971"><ele>682.211</ele><time>2015-10-27T08:58:07Z</time></trkpt><trkpt lat="43.055473" lon="-5.781071"><ele>681.232</ele><time>2015-10-27T08:58:16Z</time></trkpt><trkpt lat="43.055571" lon="-5.781257"><ele>679.834</ele><time>2015-10-27T08:58:30Z</time></trkpt><trkpt lat="43.055653" lon="-5.781300"><ele>678.362</ele><time>2015-10-27T08:58:40Z</time></trkpt><trkpt lat="43.055753" lon="-5.781294"><ele>677.455</ele><time>2015-10-27T08:58:51Z</time></trkpt><trkpt lat="43.055793" lon="-5.781284"><ele>677.407</ele><time>2015-10-27T08:58:55Z</time></trkpt><trkpt lat="43.055901" lon="-5.781203"><ele>676.417</ele><time>2015-10-27T08:59:09Z</time></trkpt><trkpt lat="43.055849" lon="-5.781119"><ele>675.508</ele><time>2015-10-27T08:59:25Z</time></trkpt><trkpt lat="43.055804" lon="-5.780960"><ele>672.616</ele><time>2015-10-27T08:59:41Z</time></trkpt><trkpt lat="43.055805" lon="-5.780900"><ele>672.136</ele><time>2015-10-27T08:59:45Z</time></trkpt><trkpt lat="43.055830" lon="-5.780702"><ele>670.719</ele><time>2015-10-27T08:59:57Z</time></trkpt><trkpt lat="43.055849" lon="-5.780507"><ele>669.298</ele><time>2015-10-27T09:00:10Z</time></trkpt><trkpt lat="43.055848" lon="-5.780439"><ele>668.793</ele><time>2015-10-27T09:00:15Z</time></trkpt><trkpt lat="43.055875" lon="-5.780189"><ele>667.394</ele><time>2015-10-27T09:00:30Z</time></trkpt><trkpt lat="43.055920" lon="-5.779949"><ele>665.876</ele><time>2015-10-27T09:00:43Z</time></trkpt><trkpt lat="43.055931" lon="-5.779690"><ele>663.914</ele><time>2015-10-27T09:00:59Z</time></trkpt><trkpt lat="43.055933" lon="-5.779380"><ele>662.094</ele><time>2015-10-27T09:01:17Z</time></trkpt><trkpt lat="43.055928" lon="-5.779103"><ele>660.157</ele><time>2015-10-27T09:01:34Z</time></trkpt><trkpt lat="43.055916" lon="-5.779043"><ele>659.622</ele><time>2015-10-27T09:01:38Z</time></trkpt><trkpt lat="43.055872" lon="-5.778830"><ele>658.208</ele><time>2015-10-27T09:01:54Z</time></trkpt><trkpt lat="43.055824" lon="-5.778614"><ele>656.210</ele><time>2015-10-27T09:02:09Z</time></trkpt><trkpt lat="43.055821" lon="-5.778599"><ele>655.890</ele><time>2015-10-27T09:02:10Z</time></trkpt><trkpt lat="43.055751" lon="-5.778346"><ele>653.883</ele><time>2015-10-27T09:02:27Z</time></trkpt><trkpt lat="43.055734" lon="-5.778042"><ele>651.482</ele><time>2015-10-27T09:02:44Z</time></trkpt><trkpt lat="43.055754" lon="-5.777776"><ele>650.557</ele><time>2015-10-27T09:02:59Z</time></trkpt><trkpt lat="43.055786" lon="-5.777595"><ele>649.078</ele><time>2015-10-27T09:03:15Z</time></trkpt><trkpt lat="43.055932" lon="-5.777347"><ele>647.120</ele><time>2015-10-27T09:03:31Z</time></trkpt><trkpt lat="43.056003" lon="-5.777258"><ele>646.188</ele><time>2015-10-27T09:03:39Z</time></trkpt><trkpt lat="43.056137" lon="-5.777111"><ele>644.795</ele><time>2015-10-27T09:03:54Z</time></trkpt><trkpt lat="43.056262" lon="-5.777016"><ele>643.749</ele><time>2015-10-27T09:04:06Z</time></trkpt><trkpt lat="43.056427" lon="-5.776951"><ele>641.323</ele><time>2015-10-27T09:04:23Z</time></trkpt><trkpt lat="43.056548" lon="-5.776919"><ele>639.908</ele><time>2015-10-27T09:04:35Z</time></trkpt><trkpt lat="43.056689" lon="-5.776870"><ele>638.580</ele><time>2015-10-27T09:04:49Z</time></trkpt><trkpt lat="43.056810" lon="-5.776840"><ele>637.020</ele><time>2015-10-27T09:05:03Z</time></trkpt><trkpt lat="43.056959" lon="-5.776820"><ele>636.073</ele><time>2015-10-27T09:05:17Z</time></trkpt><trkpt lat="43.057081" lon="-5.776788"><ele>634.142</ele><time>2015-10-27T09:05:28Z</time></trkpt><trkpt lat="43.057213" lon="-5.776758"><ele>633.267</ele><time>2015-10-27T09:05:41Z</time></trkpt><trkpt lat="43.057264" lon="-5.776754"><ele>632.768</ele><time>2015-10-27T09:05:45Z</time></trkpt><trkpt lat="43.057418" lon="-5.776780"><ele>627.920</ele><time>2015-10-27T09:05:56Z</time></trkpt><trkpt lat="43.057427" lon="-5.776774"><ele>635.168</ele><time>2015-10-27T09:05:57Z</time></trkpt><trkpt lat="43.057437" lon="-5.776775"><ele>631.784</ele><time>2015-10-27T09:05:58Z</time></trkpt><trkpt lat="43.057465" lon="-5.776767"><ele>630.807</ele><time>2015-10-27T09:06:00Z</time></trkpt><trkpt lat="43.057635" lon="-5.776752"><ele>629.317</ele><time>2015-10-27T09:06:15Z</time></trkpt><trkpt lat="43.057760" lon="-5.776732"><ele>628.408</ele><time>2015-10-27T09:06:27Z</time></trkpt><trkpt lat="43.057907" lon="-5.776636"><ele>626.439</ele><time>2015-10-27T09:06:43Z</time></trkpt><trkpt lat="43.057908" lon="-5.776618"><ele>626.059</ele><time>2015-10-27T09:06:45Z</time></trkpt><trkpt lat="43.057918" lon="-5.776483"><ele>625.082</ele><time>2015-10-27T09:06:57Z</time></trkpt><trkpt lat="43.057927" lon="-5.776455"><ele>624.561</ele><time>2015-10-27T09:06:59Z</time></trkpt><trkpt lat="43.057954" lon="-5.776263"><ele>623.586</ele><time>2015-10-27T09:07:12Z</time></trkpt><trkpt lat="43.058012" lon="-5.776066"><ele>621.667</ele><time>2015-10-27T09:07:27Z</time></trkpt><trkpt lat="43.058085" lon="-5.775883"><ele>620.219</ele><time>2015-10-27T09:07:42Z</time></trkpt><trkpt lat="43.058192" lon="-5.775660"><ele>618.337</ele><time>2015-10-27T09:07:58Z</time></trkpt><trkpt lat="43.058327" lon="-5.775496"><ele>616.899</ele><time>2015-10-27T09:08:12Z</time></trkpt><trkpt lat="43.058353" lon="-5.775465"><ele>616.307</ele><time>2015-10-27T09:08:15Z</time></trkpt><trkpt lat="43.058455" lon="-5.775330"><ele>614.927</ele><time>2015-10-27T09:08:30Z</time></trkpt><trkpt lat="43.058582" lon="-5.775166"><ele>613.008</ele><time>2015-10-27T09:08:45Z</time></trkpt><trkpt lat="43.058733" lon="-5.775050"><ele>611.120</ele><time>2015-10-27T09:08:59Z</time></trkpt><trkpt lat="43.058784" lon="-5.775026"><ele>610.640</ele><time>2015-10-27T09:09:03Z</time></trkpt><trkpt lat="43.058866" lon="-5.775013"><ele>610.143</ele><time>2015-10-27T09:09:09Z</time></trkpt><trkpt lat="43.058965" lon="-5.775019"><ele>609.132</ele><time>2015-10-27T09:09:17Z</time></trkpt><trkpt lat="43.059133" lon="-5.775090"><ele>607.787</ele><time>2015-10-27T09:09:32Z</time></trkpt><trkpt lat="43.059304" lon="-5.775172"><ele>605.318</ele><time>2015-10-27T09:09:48Z</time></trkpt><trkpt lat="43.059429" lon="-5.775211"><ele>604.350</ele><time>2015-10-27T09:10:00Z</time></trkpt><trkpt lat="43.059490" lon="-5.775167"><ele>603.498</ele><time>2015-10-27T09:10:07Z</time></trkpt><trkpt lat="43.059511" lon="-5.775150"><ele>602.939</ele><time>2015-10-27T09:10:09Z</time></trkpt><trkpt lat="43.059594" lon="-5.775035"><ele>601.401</ele><time>2015-10-27T09:10:20Z</time></trkpt><trkpt lat="43.059622" lon="-5.774972"><ele>601.021</ele><time>2015-10-27T09:10:25Z</time></trkpt><trkpt lat="43.059658" lon="-5.774838"><ele>600.508</ele><time>2015-10-27T09:10:33Z</time></trkpt><trkpt lat="43.059729" lon="-5.774714"><ele>599.544</ele><time>2015-10-27T09:10:42Z</time></trkpt><trkpt lat="43.059877" lon="-5.774620"><ele>597.664</ele><time>2015-10-27T09:10:55Z</time></trkpt><trkpt lat="43.059965" lon="-5.774603"><ele>596.667</ele><time>2015-10-27T09:11:03Z</time></trkpt><trkpt lat="43.060130" lon="-5.774690"><ele>594.736</ele><time>2015-10-27T09:11:18Z</time></trkpt><trkpt lat="43.060205" lon="-5.774717"><ele>593.861</ele><time>2015-10-27T09:11:25Z</time></trkpt><trkpt lat="43.060347" lon="-5.774759"><ele>592.382</ele><time>2015-10-27T09:11:39Z</time></trkpt><trkpt lat="43.060502" lon="-5.774838"><ele>590.444</ele><time>2015-10-27T09:11:54Z</time></trkpt><trkpt lat="43.060653" lon="-5.774926"><ele>589.082</ele><time>2015-10-27T09:12:08Z</time></trkpt><trkpt lat="43.060704" lon="-5.774969"><ele>588.522</ele><time>2015-10-27T09:12:13Z</time></trkpt><trkpt lat="43.060750" lon="-5.774978"><ele>588.562</ele><time>2015-10-27T09:12:17Z</time></trkpt><trkpt lat="43.060823" lon="-5.774996"><ele>587.508</ele><time>2015-10-27T09:12:25Z</time></trkpt><trkpt lat="43.060966" lon="-5.775009"><ele>586.108</ele><time>2015-10-27T09:12:38Z</time></trkpt><trkpt lat="43.060977" lon="-5.775012"><ele>585.633</ele><time>2015-10-27T09:12:39Z</time></trkpt><trkpt lat="43.061161" lon="-5.774922"><ele>583.253</ele><time>2015-10-27T09:12:56Z</time></trkpt><trkpt lat="43.061305" lon="-5.774808"><ele>581.746</ele><time>2015-10-27T09:13:10Z</time></trkpt><trkpt lat="43.061419" lon="-5.774718"><ele>580.885</ele><time>2015-10-27T09:13:21Z</time></trkpt><trkpt lat="43.061435" lon="-5.774694"><ele>580.360</ele><time>2015-10-27T09:13:23Z</time></trkpt><trkpt lat="43.061481" lon="-5.774651"><ele>579.831</ele><time>2015-10-27T09:13:27Z</time></trkpt><trkpt lat="43.061533" lon="-5.774584"><ele>579.313</ele><time>2015-10-27T09:13:33Z</time></trkpt><trkpt lat="43.061604" lon="-5.774445"><ele>578.441</ele><time>2015-10-27T09:13:42Z</time></trkpt><trkpt lat="43.061676" lon="-5.774263"><ele>576.597</ele><time>2015-10-27T09:13:56Z</time></trkpt><trkpt lat="43.061806" lon="-5.774083"><ele>575.023</ele><time>2015-10-27T09:14:11Z</time></trkpt><trkpt lat="43.061815" lon="-5.774078"><ele>575.025</ele><time>2015-10-27T09:14:12Z</time></trkpt><trkpt lat="43.062004" lon="-5.774152"><ele>573.108</ele><time>2015-10-27T09:14:28Z</time></trkpt><trkpt lat="43.062146" lon="-5.774291"><ele>571.650</ele><time>2015-10-27T09:14:43Z</time></trkpt><trkpt lat="43.062282" lon="-5.774448"><ele>570.210</ele><time>2015-10-27T09:14:58Z</time></trkpt><trkpt lat="43.062383" lon="-5.774532"><ele>568.863</ele><time>2015-10-27T09:15:08Z</time></trkpt><trkpt lat="43.062464" lon="-5.774582"><ele>567.892</ele><time>2015-10-27T09:15:16Z</time></trkpt><trkpt lat="43.062507" lon="-5.774587"><ele>567.377</ele><time>2015-10-27T09:15:20Z</time></trkpt><trkpt lat="43.062614" lon="-5.774603"><ele>566.368</ele><time>2015-10-27T09:15:30Z</time></trkpt><trkpt lat="43.062654" lon="-5.774632"><ele>566.350</ele><time>2015-10-27T09:15:34Z</time></trkpt><trkpt lat="43.062787" lon="-5.774635"><ele>564.958</ele><time>2015-10-27T09:15:44Z</time></trkpt><trkpt lat="43.062851" lon="-5.774636"><ele>564.423</ele><time>2015-10-27T09:15:49Z</time></trkpt><trkpt lat="43.063015" lon="-5.774550"><ele>563.583</ele><time>2015-10-27T09:16:04Z</time></trkpt><trkpt lat="43.063143" lon="-5.774489"><ele>562.011</ele><time>2015-10-27T09:16:16Z</time></trkpt><trkpt lat="43.063193" lon="-5.774462"><ele>561.508</ele><time>2015-10-27T09:16:21Z</time></trkpt><trkpt lat="43.063223" lon="-5.774436"><ele>561.173</ele><time>2015-10-27T09:16:24Z</time></trkpt><trkpt lat="43.063389" lon="-5.774341"><ele>559.633</ele><time>2015-10-27T09:16:40Z</time></trkpt><trkpt lat="43.063436" lon="-5.774300"><ele>559.666</ele><time>2015-10-27T09:16:45Z</time></trkpt><trkpt lat="43.063549" lon="-5.774164"><ele>558.295</ele><time>2015-10-27T09:16:58Z</time></trkpt><trkpt lat="43.063586" lon="-5.774031"><ele>557.220</ele><time>2015-10-27T09:17:07Z</time></trkpt><trkpt lat="43.063711" lon="-5.773808"><ele>555.331</ele><time>2015-10-27T09:17:25Z</time></trkpt><trkpt lat="43.063810" lon="-5.773617"><ele>553.973</ele><time>2015-10-27T09:17:40Z</time></trkpt><trkpt lat="43.063909" lon="-5.773436"><ele>552.941</ele><time>2015-10-27T09:17:55Z</time></trkpt><trkpt lat="43.064052" lon="-5.773299"><ele>551.567</ele><time>2015-10-27T09:18:09Z</time></trkpt><trkpt lat="43.064211" lon="-5.773193"><ele>550.581</ele><time>2015-10-27T09:18:23Z</time></trkpt><trkpt lat="43.064243" lon="-5.773179"><ele>550.019</ele><time>2015-10-27T09:18:26Z</time></trkpt><trkpt lat="43.064387" lon="-5.773187"><ele>549.008</ele><time>2015-10-27T09:18:38Z</time></trkpt><trkpt lat="43.064583" lon="-5.773206"><ele>547.657</ele><time>2015-10-27T09:18:55Z</time></trkpt><trkpt lat="43.064745" lon="-5.773241"><ele>547.137</ele><time>2015-10-27T09:19:10Z</time></trkpt><trkpt lat="43.064806" lon="-5.773252"><ele>546.780</ele><time>2015-10-27T09:19:16Z</time></trkpt><trkpt lat="43.064939" lon="-5.773278"><ele>545.719</ele><time>2015-10-27T09:19:29Z</time></trkpt><trkpt lat="43.065073" lon="-5.773322"><ele>544.734</ele><time>2015-10-27T09:19:42Z</time></trkpt><trkpt lat="43.065248" lon="-5.773415"><ele>543.395</ele><time>2015-10-27T09:19:58Z</time></trkpt><trkpt lat="43.065426" lon="-5.773500"><ele>542.327</ele><time>2015-10-27T09:20:14Z</time></trkpt><trkpt lat="43.065581" lon="-5.773583"><ele>541.485</ele><time>2015-10-27T09:20:28Z</time></trkpt><trkpt lat="43.065658" lon="-5.773611"><ele>540.979</ele><time>2015-10-27T09:20:35Z</time></trkpt><trkpt lat="43.065675" lon="-5.773628"><ele>540.905</ele><time>2015-10-27T09:20:37Z</time></trkpt><trkpt lat="43.065811" lon="-5.773627"><ele>540.425</ele><time>2015-10-27T09:20:51Z</time></trkpt><trkpt lat="43.065901" lon="-5.773580"><ele>540.408</ele><time>2015-10-27T09:20:58Z</time></trkpt><trkpt lat="43.065949" lon="-5.773549"><ele>540.488</ele><time>2015-10-27T09:21:02Z</time></trkpt><trkpt lat="43.065999" lon="-5.773507"><ele>539.928</ele><time>2015-10-27T09:21:06Z</time></trkpt><trkpt lat="43.066036" lon="-5.773496"><ele>539.931</ele><time>2015-10-27T09:21:09Z</time></trkpt><trkpt lat="43.066226" lon="-5.773387"><ele>540.490</ele><time>2015-10-27T09:21:23Z</time></trkpt><trkpt lat="43.066414" lon="-5.773295"><ele>539.925</ele><time>2015-10-27T09:21:39Z</time></trkpt><trkpt lat="43.066613" lon="-5.773187"><ele>539.426</ele><time>2015-10-27T09:21:57Z</time></trkpt><trkpt lat="43.066706" lon="-5.773045"><ele>539.098</ele><time>2015-10-27T09:22:09Z</time></trkpt><trkpt lat="43.066761" lon="-5.772974"><ele>539.076</ele><time>2015-10-27T09:22:16Z</time></trkpt><trkpt lat="43.066845" lon="-5.772853"><ele>538.575</ele><time>2015-10-27T09:22:29Z</time></trkpt><trkpt lat="43.066919" lon="-5.772693"><ele>537.528</ele><time>2015-10-27T09:22:42Z</time></trkpt><trkpt lat="43.066975" lon="-5.772541"><ele>536.120</ele><time>2015-10-27T09:22:55Z</time></trkpt><trkpt lat="43.066989" lon="-5.772501"><ele>536.108</ele><time>2015-10-27T09:22:59Z</time></trkpt><trkpt lat="43.067013" lon="-5.772267"><ele>534.258</ele><time>2015-10-27T09:23:15Z</time></trkpt><trkpt lat="43.067060" lon="-5.772133"><ele>533.258</ele><time>2015-10-27T09:23:25Z</time></trkpt><trkpt lat="43.067178" lon="-5.771959"><ele>531.831</ele><time>2015-10-27T09:23:41Z</time></trkpt><trkpt lat="43.067242" lon="-5.771844"><ele>529.880</ele><time>2015-10-27T09:23:53Z</time></trkpt><trkpt lat="43.067263" lon="-5.771818"><ele>530.345</ele><time>2015-10-27T09:23:55Z</time></trkpt><trkpt lat="43.067393" lon="-5.771672"><ele>528.956</ele><time>2015-10-27T09:24:09Z</time></trkpt><trkpt lat="43.067562" lon="-5.771580"><ele>526.918</ele><time>2015-10-27T09:24:24Z</time></trkpt><trkpt lat="43.067597" lon="-5.771577"><ele>526.996</ele><time>2015-10-27T09:24:27Z</time></trkpt><trkpt lat="43.067787" lon="-5.771572"><ele>525.587</ele><time>2015-10-27T09:24:42Z</time></trkpt><trkpt lat="43.067901" lon="-5.771586"><ele>524.142</ele><time>2015-10-27T09:24:53Z</time></trkpt><trkpt lat="43.068170" lon="-5.771584"><ele>522.626</ele><time>2015-10-27T09:25:11Z</time></trkpt><trkpt lat="43.068333" lon="-5.771622"><ele>521.208</ele><time>2015-10-27T09:25:26Z</time></trkpt><trkpt lat="43.068375" lon="-5.771637"><ele>520.719</ele><time>2015-10-27T09:25:30Z</time></trkpt><trkpt lat="43.068405" lon="-5.771648"><ele>520.269</ele><time>2015-10-27T09:25:33Z</time></trkpt><trkpt lat="43.068494" lon="-5.771642"><ele>519.272</ele><time>2015-10-27T09:25:41Z</time></trkpt><trkpt lat="43.068633" lon="-5.771645"><ele>518.351</ele><time>2015-10-27T09:25:53Z</time></trkpt><trkpt lat="43.068709" lon="-5.771666"><ele>518.396</ele><time>2015-10-27T09:25:58Z</time></trkpt><trkpt lat="43.068881" lon="-5.771660"><ele>516.467</ele><time>2015-10-27T09:26:14Z</time></trkpt><trkpt lat="43.068987" lon="-5.771681"><ele>517.849</ele><time>2015-10-27T09:26:26Z</time></trkpt><trkpt lat="43.069058" lon="-5.771626"><ele>519.767</ele><time>2015-10-27T09:26:38Z</time></trkpt><trkpt lat="43.069117" lon="-5.771586"><ele>521.786</ele><time>2015-10-27T09:26:50Z</time></trkpt><trkpt lat="43.069171" lon="-5.771537"><ele>523.660</ele><time>2015-10-27T09:27:04Z</time></trkpt><trkpt lat="43.069283" lon="-5.771517"><ele>526.026</ele><time>2015-10-27T09:27:18Z</time></trkpt><trkpt lat="43.069378" lon="-5.771537"><ele>528.408</ele><time>2015-10-27T09:27:32Z</time></trkpt><trkpt lat="43.069464" lon="-5.771582"><ele>530.829</ele><time>2015-10-27T09:27:47Z</time></trkpt><trkpt lat="43.069554" lon="-5.771594"><ele>533.229</ele><time>2015-10-27T09:28:01Z</time></trkpt><trkpt lat="43.069627" lon="-5.771575"><ele>534.242</ele><time>2015-10-27T09:28:12Z</time></trkpt><trkpt lat="43.069702" lon="-5.771516"><ele>534.221</ele><time>2015-10-27T09:28:26Z</time></trkpt><trkpt lat="43.069815" lon="-5.771491"><ele>534.636</ele><time>2015-10-27T09:28:40Z</time></trkpt><trkpt lat="43.069951" lon="-5.771493"><ele>536.177</ele><time>2015-10-27T09:28:55Z</time></trkpt><trkpt lat="43.070085" lon="-5.771542"><ele>538.529</ele><time>2015-10-27T09:29:12Z</time></trkpt><trkpt lat="43.070167" lon="-5.771521"><ele>539.957</ele><time>2015-10-27T09:29:26Z</time></trkpt><trkpt lat="43.070198" lon="-5.771532"><ele>539.956</ele><time>2015-10-27T09:29:41Z</time></trkpt><trkpt lat="43.070200" lon="-5.771649"><ele>540.459</ele><time>2015-10-27T09:30:07Z</time></trkpt><trkpt lat="43.070279" lon="-5.771627"><ele>541.814</ele><time>2015-10-27T09:30:26Z</time></trkpt><trkpt lat="43.070325" lon="-5.771538"><ele>542.808</ele><time>2015-10-27T09:30:44Z</time></trkpt><trkpt lat="43.070461" lon="-5.771420"><ele>543.886</ele><time>2015-10-27T09:31:01Z</time></trkpt><trkpt lat="43.070586" lon="-5.771309"><ele>546.276</ele><time>2015-10-27T09:31:17Z</time></trkpt><trkpt lat="43.070678" lon="-5.771246"><ele>545.259</ele><time>2015-10-27T09:31:31Z</time></trkpt><trkpt lat="43.070735" lon="-5.771244"><ele>547.648</ele><time>2015-10-27T09:31:44Z</time></trkpt><trkpt lat="43.070851" lon="-5.771240"><ele>548.613</ele><time>2015-10-27T09:31:59Z</time></trkpt><trkpt lat="43.070990" lon="-5.771196"><ele>551.574</ele><time>2015-10-27T09:32:15Z</time></trkpt><trkpt lat="43.071103" lon="-5.771160"><ele>552.476</ele><time>2015-10-27T09:32:29Z</time></trkpt><trkpt lat="43.071212" lon="-5.771108"><ele>552.954</ele><time>2015-10-27T09:32:44Z</time></trkpt><trkpt lat="43.071269" lon="-5.771068"><ele>551.998</ele><time>2015-10-27T09:32:52Z</time></trkpt><trkpt lat="43.071341" lon="-5.771070"><ele>551.915</ele><time>2015-10-27T09:33:07Z</time></trkpt><trkpt lat="43.071359" lon="-5.771100"><ele>551.926</ele><time>2015-10-27T09:33:24Z</time></trkpt><trkpt lat="43.071384" lon="-5.771075"><ele>552.908</ele><time>2015-10-27T09:33:34Z</time></trkpt><trkpt lat="43.071418" lon="-5.771054"><ele>551.920</ele><time>2015-10-27T09:33:54Z</time></trkpt><trkpt lat="43.071442" lon="-5.771023"><ele>551.530</ele><time>2015-10-27T09:33:57Z</time></trkpt><trkpt lat="43.071464" lon="-5.770992"><ele>551.553</ele><time>2015-10-27T09:34:00Z</time></trkpt><trkpt lat="43.071479" lon="-5.770960"><ele>551.562</ele><time>2015-10-27T09:34:02Z</time></trkpt><trkpt lat="43.071518" lon="-5.770974"><ele>551.517</ele><time>2015-10-27T09:34:18Z</time></trkpt><trkpt lat="43.071536" lon="-5.770950"><ele>551.598</ele><time>2015-10-27T09:34:23Z</time></trkpt><trkpt lat="43.071556" lon="-5.770934"><ele>551.590</ele><time>2015-10-27T09:34:26Z</time></trkpt><trkpt lat="43.071722" lon="-5.770825"><ele>551.558</ele><time>2015-10-27T09:34:44Z</time></trkpt><trkpt lat="43.071739" lon="-5.770864"><ele>551.589</ele><time>2015-10-27T09:35:03Z</time></trkpt><trkpt lat="43.071837" lon="-5.770746"><ele>551.006</ele><time>2015-10-27T09:35:16Z</time></trkpt><trkpt lat="43.071888" lon="-5.770638"><ele>552.426</ele><time>2015-10-27T09:35:28Z</time></trkpt><trkpt lat="43.071941" lon="-5.770558"><ele>555.808</ele><time>2015-10-27T09:35:41Z</time></trkpt><trkpt lat="43.072039" lon="-5.770395"><ele>556.379</ele><time>2015-10-27T09:35:58Z</time></trkpt><trkpt lat="43.072077" lon="-5.770367"><ele>556.329</ele><time>2015-10-27T09:36:13Z</time></trkpt><trkpt lat="43.072080" lon="-5.770379"><ele>556.332</ele><time>2015-10-27T09:36:30Z</time></trkpt><trkpt lat="43.072083" lon="-5.770351"><ele>556.391</ele><time>2015-10-27T09:36:54Z</time></trkpt><trkpt lat="43.072109" lon="-5.770321"><ele>554.816</ele><time>2015-10-27T09:37:02Z</time></trkpt><trkpt lat="43.072124" lon="-5.770309"><ele>554.887</ele><time>2015-10-27T09:37:04Z</time></trkpt><trkpt lat="43.072213" lon="-5.770229"><ele>554.389</ele><time>2015-10-27T09:37:13Z</time></trkpt><trkpt lat="43.072354" lon="-5.770186"><ele>554.367</ele><time>2015-10-27T09:37:27Z</time></trkpt><trkpt lat="43.072538" lon="-5.770149"><ele>554.359</ele><time>2015-10-27T09:37:44Z</time></trkpt><trkpt lat="43.072718" lon="-5.770146"><ele>554.303</ele><time>2015-10-27T09:38:00Z</time></trkpt><trkpt lat="43.072811" lon="-5.770137"><ele>555.823</ele><time>2015-10-27T09:38:10Z</time></trkpt><trkpt lat="43.072836" lon="-5.770128"><ele>556.308</ele><time>2015-10-27T09:38:14Z</time></trkpt><trkpt lat="43.072976" lon="-5.770089"><ele>558.716</ele><time>2015-10-27T09:38:29Z</time></trkpt><trkpt lat="43.073125" lon="-5.770091"><ele>561.166</ele><time>2015-10-27T09:38:46Z</time></trkpt><trkpt lat="43.073246" lon="-5.770003"><ele>561.549</ele><time>2015-10-27T09:39:01Z</time></trkpt><trkpt lat="43.073392" lon="-5.769961"><ele>563.568</ele><time>2015-10-27T09:39:15Z</time></trkpt><trkpt lat="43.073485" lon="-5.769939"><ele>564.033</ele><time>2015-10-27T09:39:24Z</time></trkpt><trkpt lat="43.073607" lon="-5.769956"><ele>566.894</ele><time>2015-10-27T09:39:40Z</time></trkpt><trkpt lat="43.073695" lon="-5.770002"><ele>568.886</ele><time>2015-10-27T09:39:54Z</time></trkpt><trkpt lat="43.073797" lon="-5.769999"><ele>568.364</ele><time>2015-10-27T09:40:06Z</time></trkpt><trkpt lat="43.073926" lon="-5.769978"><ele>568.892</ele><time>2015-10-27T09:40:20Z</time></trkpt><trkpt lat="43.074042" lon="-5.769981"><ele>569.773</ele><time>2015-10-27T09:40:33Z</time></trkpt><trkpt lat="43.074158" lon="-5.770019"><ele>572.620</ele><time>2015-10-27T09:40:48Z</time></trkpt><trkpt lat="43.074180" lon="-5.770060"><ele>573.108</ele><time>2015-10-27T09:41:05Z</time></trkpt><trkpt lat="43.074169" lon="-5.770086"><ele>573.650</ele><time>2015-10-27T09:41:27Z</time></trkpt><trkpt lat="43.074169" lon="-5.770092"><ele>573.610</ele><time>2015-10-27T09:41:50Z</time></trkpt><trkpt lat="43.074178" lon="-5.770095"><ele>573.623</ele><time>2015-10-27T09:42:09Z</time></trkpt><trkpt lat="43.074184" lon="-5.770103"><ele>573.642</ele><time>2015-10-27T09:42:33Z</time></trkpt><trkpt lat="43.074187" lon="-5.770151"><ele>573.617</ele><time>2015-10-27T09:42:58Z</time></trkpt><trkpt lat="43.074183" lon="-5.770115"><ele>573.618</ele><time>2015-10-27T09:43:44Z</time></trkpt><trkpt lat="43.074175" lon="-5.770133"><ele>574.080</ele><time>2015-10-27T09:44:15Z</time></trkpt><trkpt lat="43.074195" lon="-5.770094"><ele>574.078</ele><time>2015-10-27T09:44:45Z</time></trkpt><trkpt lat="43.074267" lon="-5.770066"><ele>576.976</ele><time>2015-10-27T09:44:59Z</time></trkpt><trkpt lat="43.074332" lon="-5.770051"><ele>580.390</ele><time>2015-10-27T09:45:14Z</time></trkpt><trkpt lat="43.074420" lon="-5.769995"><ele>582.219</ele><time>2015-10-27T09:45:28Z</time></trkpt><trkpt lat="43.074506" lon="-5.769861"><ele>582.708</ele><time>2015-10-27T09:45:42Z</time></trkpt><trkpt lat="43.074635" lon="-5.769679"><ele>582.738</ele><time>2015-10-27T09:45:57Z</time></trkpt><trkpt lat="43.074659" lon="-5.769565"><ele>582.758</ele><time>2015-10-27T09:46:05Z</time></trkpt><trkpt lat="43.074674" lon="-5.769477"><ele>582.771</ele><time>2015-10-27T09:46:20Z</time></trkpt><trkpt lat="43.074702" lon="-5.769412"><ele>582.770</ele><time>2015-10-27T09:46:33Z</time></trkpt><trkpt lat="43.074730" lon="-5.769341"><ele>582.755</ele><time>2015-10-27T09:46:40Z</time></trkpt><trkpt lat="43.074877" lon="-5.769378"><ele>583.246</ele><time>2015-10-27T09:46:55Z</time></trkpt><trkpt lat="43.074888" lon="-5.769396"><ele>583.248</ele><time>2015-10-27T09:46:57Z</time></trkpt><trkpt lat="43.074971" lon="-5.769552"><ele>584.676</ele><time>2015-10-27T09:47:12Z</time></trkpt><trkpt lat="43.075073" lon="-5.769631"><ele>586.179</ele><time>2015-10-27T09:47:26Z</time></trkpt><trkpt lat="43.075192" lon="-5.769717"><ele>584.605</ele><time>2015-10-27T09:47:39Z</time></trkpt><trkpt lat="43.075323" lon="-5.769858"><ele>582.225</ele><time>2015-10-27T09:47:54Z</time></trkpt><trkpt lat="43.075352" lon="-5.769946"><ele>581.708</ele><time>2015-10-27T09:48:01Z</time></trkpt><trkpt lat="43.075372" lon="-5.770042"><ele>580.378</ele><time>2015-10-27T09:48:08Z</time></trkpt><trkpt lat="43.075404" lon="-5.770144"><ele>577.988</ele><time>2015-10-27T09:48:21Z</time></trkpt><trkpt lat="43.075481" lon="-5.770123"><ele>574.591</ele><time>2015-10-27T09:48:36Z</time></trkpt><trkpt lat="43.075487" lon="-5.770087"><ele>573.660</ele><time>2015-10-27T09:48:40Z</time></trkpt><trkpt lat="43.075519" lon="-5.770085"><ele>573.615</ele><time>2015-10-27T09:48:55Z</time></trkpt><trkpt lat="43.075528" lon="-5.770145"><ele>573.156</ele><time>2015-10-27T09:49:21Z</time></trkpt><trkpt lat="43.075614" lon="-5.770151"><ele>572.688</ele><time>2015-10-27T09:49:32Z</time></trkpt><trkpt lat="43.075743" lon="-5.770255"><ele>571.276</ele><time>2015-10-27T09:49:46Z</time></trkpt><trkpt lat="43.075768" lon="-5.770277"><ele>571.245</ele><time>2015-10-27T09:49:49Z</time></trkpt><trkpt lat="43.075838" lon="-5.770346"><ele>569.747</ele><time>2015-10-27T09:49:59Z</time></trkpt><trkpt lat="43.075919" lon="-5.770465"><ele>570.711</ele><time>2015-10-27T09:50:13Z</time></trkpt><trkpt lat="43.075951" lon="-5.770577"><ele>572.608</ele><time>2015-10-27T09:50:25Z</time></trkpt><trkpt lat="43.075990" lon="-5.770670"><ele>573.655</ele><time>2015-10-27T09:50:41Z</time></trkpt><trkpt lat="43.076044" lon="-5.770758"><ele>575.525</ele><time>2015-10-27T09:50:55Z</time></trkpt><trkpt lat="43.076127" lon="-5.770798"><ele>576.018</ele><time>2015-10-27T09:51:08Z</time></trkpt><trkpt lat="43.076151" lon="-5.770796"><ele>576.597</ele><time>2015-10-27T09:51:10Z</time></trkpt><trkpt lat="43.076232" lon="-5.770815"><ele>576.572</ele><time>2015-10-27T09:51:17Z</time></trkpt><trkpt lat="43.076360" lon="-5.770936"><ele>576.553</ele><time>2015-10-27T09:51:33Z</time></trkpt><trkpt lat="43.076471" lon="-5.771092"><ele>576.535</ele><time>2015-10-27T09:51:47Z</time></trkpt><trkpt lat="43.076548" lon="-5.771238"><ele>577.463</ele><time>2015-10-27T09:52:02Z</time></trkpt><trkpt lat="43.076597" lon="-5.771419"><ele>579.392</ele><time>2015-10-27T09:52:16Z</time></trkpt><trkpt lat="43.076649" lon="-5.771506"><ele>579.873</ele><time>2015-10-27T09:52:23Z</time></trkpt><trkpt lat="43.076762" lon="-5.771759"><ele>580.820</ele><time>2015-10-27T09:52:40Z</time></trkpt><trkpt lat="43.076803" lon="-5.771994"><ele>581.708</ele><time>2015-10-27T09:52:54Z</time></trkpt><trkpt lat="43.076806" lon="-5.772095"><ele>581.710</ele><time>2015-10-27T09:53:01Z</time></trkpt><trkpt lat="43.076805" lon="-5.772158"><ele>581.720</ele><time>2015-10-27T09:53:05Z</time></trkpt><trkpt lat="43.076804" lon="-5.772375"><ele>581.713</ele><time>2015-10-27T09:53:20Z</time></trkpt><trkpt lat="43.076804" lon="-5.772604"><ele>579.842</ele><time>2015-10-27T09:53:33Z</time></trkpt><trkpt lat="43.076816" lon="-5.772785"><ele>580.317</ele><time>2015-10-27T09:53:48Z</time></trkpt><trkpt lat="43.076812" lon="-5.772948"><ele>580.328</ele><time>2015-10-27T09:54:01Z</time></trkpt><trkpt lat="43.076832" lon="-5.773163"><ele>579.830</ele><time>2015-10-27T09:54:16Z</time></trkpt><trkpt lat="43.076834" lon="-5.773284"><ele>579.868</ele><time>2015-10-27T09:54:23Z</time></trkpt><trkpt lat="43.076805" lon="-5.773521"><ele>581.221</ele><time>2015-10-27T09:54:37Z</time></trkpt><trkpt lat="43.076792" lon="-5.773633"><ele>582.741</ele><time>2015-10-27T09:54:50Z</time></trkpt><trkpt lat="43.076813" lon="-5.773694"><ele>585.605</ele><time>2015-10-27T09:55:05Z</time></trkpt><trkpt lat="43.076847" lon="-5.773799"><ele>588.508</ele><time>2015-10-27T09:55:20Z</time></trkpt><trkpt lat="43.076873" lon="-5.773955"><ele>589.443</ele><time>2015-10-27T09:55:33Z</time></trkpt><trkpt lat="43.076915" lon="-5.774061"><ele>591.363</ele><time>2015-10-27T09:55:45Z</time></trkpt><trkpt lat="43.076966" lon="-5.774183"><ele>592.376</ele><time>2015-10-27T09:55:58Z</time></trkpt><trkpt lat="43.077042" lon="-5.774424"><ele>594.235</ele><time>2015-10-27T09:56:15Z</time></trkpt><trkpt lat="43.077091" lon="-5.774458"><ele>595.260</ele><time>2015-10-27T09:56:22Z</time></trkpt><trkpt lat="43.077242" lon="-5.774501"><ele>596.221</ele><time>2015-10-27T09:56:36Z</time></trkpt><trkpt lat="43.077259" lon="-5.774641"><ele>597.643</ele><time>2015-10-27T09:56:50Z</time></trkpt><trkpt lat="43.077281" lon="-5.774722"><ele>597.641</ele><time>2015-10-27T09:56:54Z</time></trkpt><trkpt lat="43.077307" lon="-5.774825"><ele>596.249</ele><time>2015-10-27T09:56:58Z</time></trkpt><trkpt lat="43.077361" lon="-5.775091"><ele>593.802</ele><time>2015-10-27T09:57:11Z</time></trkpt><trkpt lat="43.077351" lon="-5.775279"><ele>592.322</ele><time>2015-10-27T09:57:23Z</time></trkpt><trkpt lat="43.077347" lon="-5.775315"><ele>592.308</ele><time>2015-10-27T09:57:25Z</time></trkpt><trkpt lat="43.077361" lon="-5.775447"><ele>592.865</ele><time>2015-10-27T09:57:33Z</time></trkpt><trkpt lat="43.077372" lon="-5.775602"><ele>592.855</ele><time>2015-10-27T09:57:46Z</time></trkpt><trkpt lat="43.077372" lon="-5.775627"><ele>594.248</ele><time>2015-10-27T09:57:48Z</time></trkpt><trkpt lat="43.077396" lon="-5.775793"><ele>594.757</ele><time>2015-10-27T09:58:01Z</time></trkpt><trkpt lat="43.077443" lon="-5.775918"><ele>595.242</ele><time>2015-10-27T09:58:15Z</time></trkpt><trkpt lat="43.077461" lon="-5.776175"><ele>596.623</ele><time>2015-10-27T09:58:29Z</time></trkpt><trkpt lat="43.077519" lon="-5.776367"><ele>595.735</ele><time>2015-10-27T09:58:42Z</time></trkpt><trkpt lat="43.077532" lon="-5.776494"><ele>594.263</ele><time>2015-10-27T09:58:53Z</time></trkpt><trkpt lat="43.077526" lon="-5.776627"><ele>593.879</ele><time>2015-10-27T09:59:06Z</time></trkpt><trkpt lat="43.077583" lon="-5.776700"><ele>593.805</ele><time>2015-10-27T09:59:14Z</time></trkpt><trkpt lat="43.077706" lon="-5.776765"><ele>593.825</ele><time>2015-10-27T09:59:30Z</time></trkpt><trkpt lat="43.077807" lon="-5.776978"><ele>595.208</ele><time>2015-10-27T09:59:46Z</time></trkpt><trkpt lat="43.077889" lon="-5.777163"><ele>597.158</ele><time>2015-10-27T10:00:00Z</time></trkpt><trkpt lat="43.077955" lon="-5.777348"><ele>599.088</ele><time>2015-10-27T10:00:14Z</time></trkpt><trkpt lat="43.077985" lon="-5.777485"><ele>599.511</ele><time>2015-10-27T10:00:28Z</time></trkpt><trkpt lat="43.077986" lon="-5.777775"><ele>600.520</ele><time>2015-10-27T10:00:44Z</time></trkpt><trkpt lat="43.077996" lon="-5.778038"><ele>602.475</ele><time>2015-10-27T10:00:59Z</time></trkpt><trkpt lat="43.077982" lon="-5.778094"><ele>602.486</ele><time>2015-10-27T10:01:03Z</time></trkpt><trkpt lat="43.077891" lon="-5.778251"><ele>603.848</ele><time>2015-10-27T10:01:19Z</time></trkpt><trkpt lat="43.077828" lon="-5.778371"><ele>605.396</ele><time>2015-10-27T10:01:32Z</time></trkpt><trkpt lat="43.077793" lon="-5.778476"><ele>606.232</ele><time>2015-10-27T10:01:44Z</time></trkpt><trkpt lat="43.077767" lon="-5.778618"><ele>606.792</ele><time>2015-10-27T10:01:58Z</time></trkpt><trkpt lat="43.077735" lon="-5.778779"><ele>605.311</ele><time>2015-10-27T10:02:11Z</time></trkpt><trkpt lat="43.077702" lon="-5.778971"><ele>605.308</ele><time>2015-10-27T10:02:24Z</time></trkpt><trkpt lat="43.077665" lon="-5.779204"><ele>607.244</ele><time>2015-10-27T10:02:40Z</time></trkpt><trkpt lat="43.077632" lon="-5.779372"><ele>609.174</ele><time>2015-10-27T10:02:53Z</time></trkpt><trkpt lat="43.077593" lon="-5.779515"><ele>612.597</ele><time>2015-10-27T10:03:07Z</time></trkpt><trkpt lat="43.077564" lon="-5.779659"><ele>615.496</ele><time>2015-10-27T10:03:23Z</time></trkpt><trkpt lat="43.077531" lon="-5.779832"><ele>617.821</ele><time>2015-10-27T10:03:41Z</time></trkpt><trkpt lat="43.077485" lon="-5.779937"><ele>620.752</ele><time>2015-10-27T10:03:54Z</time></trkpt><trkpt lat="43.077448" lon="-5.780005"><ele>622.634</ele><time>2015-10-27T10:04:07Z</time></trkpt><trkpt lat="43.077417" lon="-5.780074"><ele>623.162</ele><time>2015-10-27T10:04:19Z</time></trkpt><trkpt lat="43.077442" lon="-5.780078"><ele>624.528</ele><time>2015-10-27T10:04:33Z</time></trkpt><trkpt lat="43.077477" lon="-5.780071"><ele>627.489</ele><time>2015-10-27T10:04:47Z</time></trkpt><trkpt lat="43.077545" lon="-5.780086"><ele>629.317</ele><time>2015-10-27T10:05:00Z</time></trkpt><trkpt lat="43.077624" lon="-5.780117"><ele>632.708</ele><time>2015-10-27T10:05:13Z</time></trkpt><trkpt lat="43.077694" lon="-5.780131"><ele>635.133</ele><time>2015-10-27T10:05:27Z</time></trkpt><trkpt lat="43.077774" lon="-5.780144"><ele>638.533</ele><time>2015-10-27T10:05:39Z</time></trkpt><trkpt lat="43.077790" lon="-5.780151"><ele>640.966</ele><time>2015-10-27T10:05:52Z</time></trkpt><trkpt lat="43.077819" lon="-5.780261"><ele>643.335</ele><time>2015-10-27T10:06:04Z</time></trkpt><trkpt lat="43.077860" lon="-5.780323"><ele>645.740</ele><time>2015-10-27T10:06:18Z</time></trkpt><trkpt lat="43.077942" lon="-5.780486"><ele>648.541</ele><time>2015-10-27T10:06:36Z</time></trkpt><trkpt lat="43.077981" lon="-5.780492"><ele>651.493</ele><time>2015-10-27T10:06:45Z</time></trkpt><trkpt lat="43.078037" lon="-5.780618"><ele>652.911</ele><time>2015-10-27T10:06:53Z</time></trkpt><trkpt lat="43.078143" lon="-5.780659"><ele>654.369</ele><time>2015-10-27T10:07:06Z</time></trkpt><trkpt lat="43.078260" lon="-5.780680"><ele>656.204</ele><time>2015-10-27T10:07:23Z</time></trkpt><trkpt lat="43.078382" lon="-5.780712"><ele>658.224</ele><time>2015-10-27T10:07:38Z</time></trkpt><trkpt lat="43.078470" lon="-5.780829"><ele>661.008</ele><time>2015-10-27T10:07:52Z</time></trkpt><trkpt lat="43.078535" lon="-5.780942"><ele>662.077</ele><time>2015-10-27T10:08:06Z</time></trkpt><trkpt lat="43.078531" lon="-5.781050"><ele>662.037</ele><time>2015-10-27T10:08:31Z</time></trkpt><trkpt lat="43.078557" lon="-5.781168"><ele>662.040</ele><time>2015-10-27T10:08:46Z</time></trkpt><trkpt lat="43.078584" lon="-5.781334"><ele>662.539</ele><time>2015-10-27T10:08:59Z</time></trkpt><trkpt lat="43.078607" lon="-5.781456"><ele>663.584</ele><time>2015-10-27T10:09:10Z</time></trkpt><trkpt lat="43.078618" lon="-5.781644"><ele>664.965</ele><time>2015-10-27T10:09:25Z</time></trkpt><trkpt lat="43.078620" lon="-5.781807"><ele>666.317</ele><time>2015-10-27T10:09:40Z</time></trkpt><trkpt lat="43.078617" lon="-5.781972"><ele>668.755</ele><time>2015-10-27T10:09:58Z</time></trkpt><trkpt lat="43.078609" lon="-5.782151"><ele>670.773</ele><time>2015-10-27T10:10:13Z</time></trkpt><trkpt lat="43.078579" lon="-5.782311"><ele>673.185</ele><time>2015-10-27T10:10:28Z</time></trkpt><trkpt lat="43.078581" lon="-5.782380"><ele>674.513</ele><time>2015-10-27T10:10:48Z</time></trkpt><trkpt lat="43.078588" lon="-5.782510"><ele>677.408</ele><time>2015-10-27T10:11:02Z</time></trkpt><trkpt lat="43.078611" lon="-5.782647"><ele>678.888</ele><time>2015-10-27T10:11:20Z</time></trkpt><trkpt lat="43.078658" lon="-5.782851"><ele>679.318</ele><time>2015-10-27T10:11:36Z</time></trkpt><trkpt lat="43.078680" lon="-5.782958"><ele>679.821</ele><time>2015-10-27T10:11:53Z</time></trkpt><trkpt lat="43.078694" lon="-5.782997"><ele>680.860</ele><time>2015-10-27T10:12:09Z</time></trkpt><trkpt lat="43.078717" lon="-5.783155"><ele>682.235</ele><time>2015-10-27T10:12:22Z</time></trkpt><trkpt lat="43.078729" lon="-5.783203"><ele>681.766</ele><time>2015-10-27T10:12:26Z</time></trkpt><trkpt lat="43.078769" lon="-5.783401"><ele>683.628</ele><time>2015-10-27T10:12:42Z</time></trkpt><trkpt lat="43.078809" lon="-5.783501"><ele>686.086</ele><time>2015-10-27T10:12:56Z</time></trkpt><trkpt lat="43.078907" lon="-5.783589"><ele>688.058</ele><time>2015-10-27T10:13:12Z</time></trkpt><trkpt lat="43.079010" lon="-5.783748"><ele>688.952</ele><time>2015-10-27T10:13:27Z</time></trkpt><trkpt lat="43.079064" lon="-5.783886"><ele>689.417</ele><time>2015-10-27T10:13:44Z</time></trkpt><trkpt lat="43.079110" lon="-5.784144"><ele>689.408</ele><time>2015-10-27T10:14:01Z</time></trkpt><trkpt lat="43.079123" lon="-5.784215"><ele>689.986</ele><time>2015-10-27T10:14:17Z</time></trkpt><trkpt lat="43.079103" lon="-5.784221"><ele>690.476</ele><time>2015-10-27T10:14:35Z</time></trkpt><trkpt lat="43.079111" lon="-5.784274"><ele>690.429</ele><time>2015-10-27T10:14:55Z</time></trkpt><trkpt lat="43.079132" lon="-5.784476"><ele>690.458</ele><time>2015-10-27T10:15:10Z</time></trkpt><trkpt lat="43.079216" lon="-5.784693"><ele>689.423</ele><time>2015-10-27T10:15:27Z</time></trkpt><trkpt lat="43.079232" lon="-5.784780"><ele>688.944</ele><time>2015-10-27T10:15:34Z</time></trkpt><trkpt lat="43.079256" lon="-5.785007"><ele>687.096</ele><time>2015-10-27T10:15:49Z</time></trkpt><trkpt lat="43.079283" lon="-5.785208"><ele>685.684</ele><time>2015-10-27T10:16:04Z</time></trkpt><trkpt lat="43.079303" lon="-5.785223"><ele>687.026</ele><time>2015-10-27T10:16:09Z</time></trkpt><trkpt lat="43.079382" lon="-5.785326"><ele>688.947</ele><time>2015-10-27T10:16:22Z</time></trkpt><trkpt lat="43.079460" lon="-5.785433"><ele>691.811</ele><time>2015-10-27T10:16:36Z</time></trkpt><trkpt lat="43.079456" lon="-5.785609"><ele>693.708</ele><time>2015-10-27T10:16:52Z</time></trkpt><trkpt lat="43.079512" lon="-5.785711"><ele>694.773</ele><time>2015-10-27T10:17:06Z</time></trkpt><trkpt lat="43.079629" lon="-5.785746"><ele>695.783</ele><time>2015-10-27T10:17:23Z</time></trkpt><trkpt lat="43.079697" lon="-5.785761"><ele>697.646</ele><time>2015-10-27T10:17:41Z</time></trkpt><trkpt lat="43.079801" lon="-5.785809"><ele>700.095</ele><time>2015-10-27T10:17:57Z</time></trkpt><trkpt lat="43.079900" lon="-5.785853"><ele>703.330</ele><time>2015-10-27T10:18:11Z</time></trkpt><trkpt lat="43.079960" lon="-5.785843"><ele>704.361</ele><time>2015-10-27T10:18:20Z</time></trkpt><trkpt lat="43.080108" lon="-5.785810"><ele>704.883</ele><time>2015-10-27T10:18:37Z</time></trkpt><trkpt lat="43.080135" lon="-5.785825"><ele>704.881</ele><time>2015-10-27T10:18:40Z</time></trkpt><trkpt lat="43.080162" lon="-5.785862"><ele>704.816</ele><time>2015-10-27T10:18:43Z</time></trkpt><trkpt lat="43.080299" lon="-5.786103"><ele>702.476</ele><time>2015-10-27T10:19:01Z</time></trkpt><trkpt lat="43.080399" lon="-5.786340"><ele>701.413</ele><time>2015-10-27T10:19:18Z</time></trkpt><trkpt lat="43.080439" lon="-5.786426"><ele>700.908</ele><time>2015-10-27T10:19:25Z</time></trkpt><trkpt lat="43.080527" lon="-5.786622"><ele>698.542</ele><time>2015-10-27T10:19:40Z</time></trkpt><trkpt lat="43.080657" lon="-5.786779"><ele>696.642</ele><time>2015-10-27T10:19:56Z</time></trkpt><trkpt lat="43.080666" lon="-5.786788"><ele>696.655</ele><time>2015-10-27T10:19:57Z</time></trkpt><trkpt lat="43.080746" lon="-5.786821"><ele>696.124</ele><time>2015-10-27T10:20:05Z</time></trkpt><trkpt lat="43.080791" lon="-5.786861"><ele>696.159</ele><time>2015-10-27T10:20:10Z</time></trkpt><trkpt lat="43.080820" lon="-5.786884"><ele>695.770</ele><time>2015-10-27T10:20:14Z</time></trkpt><trkpt lat="43.080875" lon="-5.786920"><ele>695.782</ele><time>2015-10-27T10:20:19Z</time></trkpt><trkpt lat="43.080923" lon="-5.786915"><ele>695.780</ele><time>2015-10-27T10:20:23Z</time></trkpt><trkpt lat="43.081059" lon="-5.786879"><ele>695.738</ele><time>2015-10-27T10:20:38Z</time></trkpt><trkpt lat="43.081162" lon="-5.786824"><ele>695.770</ele><time>2015-10-27T10:20:49Z</time></trkpt><trkpt lat="43.081304" lon="-5.786797"><ele>695.717</ele><time>2015-10-27T10:21:04Z</time></trkpt><trkpt lat="43.081330" lon="-5.786796"><ele>695.708</ele><time>2015-10-27T10:21:17Z</time></trkpt><trkpt lat="43.081352" lon="-5.786776"><ele>694.794</ele><time>2015-10-27T10:21:30Z</time></trkpt><trkpt lat="43.081364" lon="-5.786809"><ele>694.764</ele><time>2015-10-27T10:21:53Z</time></trkpt><trkpt lat="43.081373" lon="-5.786823"><ele>695.717</ele><time>2015-10-27T10:22:12Z</time></trkpt><trkpt lat="43.081412" lon="-5.786805"><ele>694.256</ele><time>2015-10-27T10:22:20Z</time></trkpt><trkpt lat="43.081591" lon="-5.786735"><ele>693.291</ele><time>2015-10-27T10:22:37Z</time></trkpt><trkpt lat="43.081786" lon="-5.786738"><ele>692.352</ele><time>2015-10-27T10:22:55Z</time></trkpt><trkpt lat="43.081884" lon="-5.786723"><ele>693.784</ele><time>2015-10-27T10:23:04Z</time></trkpt><trkpt lat="43.081995" lon="-5.786698"><ele>693.752</ele><time>2015-10-27T10:23:14Z</time></trkpt><trkpt lat="43.082145" lon="-5.786635"><ele>695.732</ele><time>2015-10-27T10:23:30Z</time></trkpt><trkpt lat="43.082234" lon="-5.786682"><ele>697.192</ele><time>2015-10-27T10:23:44Z</time></trkpt><trkpt lat="43.082238" lon="-5.786677"><ele>697.111</ele><time>2015-10-27T10:24:01Z</time></trkpt><trkpt lat="43.082248" lon="-5.786690"><ele>697.108</ele><time>2015-10-27T10:24:17Z</time></trkpt><trkpt lat="43.082248" lon="-5.786702"><ele>696.624</ele><time>2015-10-27T10:24:42Z</time></trkpt><trkpt lat="43.082241" lon="-5.786706"><ele>696.644</ele><time>2015-10-27T10:25:05Z</time></trkpt><trkpt lat="43.082250" lon="-5.786675"><ele>696.137</ele><time>2015-10-27T10:25:31Z</time></trkpt><trkpt lat="43.082238" lon="-5.786675"><ele>696.126</ele><time>2015-10-27T10:26:01Z</time></trkpt><trkpt lat="43.082242" lon="-5.786681"><ele>694.781</ele><time>2015-10-27T10:26:35Z</time></trkpt><trkpt lat="43.082246" lon="-5.786726"><ele>694.762</ele><time>2015-10-27T10:27:07Z</time></trkpt><trkpt lat="43.082274" lon="-5.786931"><ele>692.894</ele><time>2015-10-27T10:27:25Z</time></trkpt><trkpt lat="43.082282" lon="-5.786965"><ele>692.332</ele><time>2015-10-27T10:27:27Z</time></trkpt><trkpt lat="43.082290" lon="-5.787149"><ele>691.348</ele><time>2015-10-27T10:27:42Z</time></trkpt><trkpt lat="43.082292" lon="-5.787183"><ele>692.861</ele><time>2015-10-27T10:27:45Z</time></trkpt><trkpt lat="43.082312" lon="-5.787300"><ele>695.217</ele><time>2015-10-27T10:27:59Z</time></trkpt><trkpt lat="43.082341" lon="-5.787405"><ele>696.108</ele><time>2015-10-27T10:28:13Z</time></trkpt><trkpt lat="43.082404" lon="-5.787486"><ele>695.275</ele><time>2015-10-27T10:28:26Z</time></trkpt><trkpt lat="43.082497" lon="-5.787573"><ele>694.255</ele><time>2015-10-27T10:28:39Z</time></trkpt><trkpt lat="43.082646" lon="-5.787718"><ele>694.298</ele><time>2015-10-27T10:28:57Z</time></trkpt><trkpt lat="43.082730" lon="-5.787851"><ele>692.337</ele><time>2015-10-27T10:29:13Z</time></trkpt><trkpt lat="43.082806" lon="-5.787922"><ele>689.432</ele><time>2015-10-27T10:29:25Z</time></trkpt><trkpt lat="43.082873" lon="-5.788006"><ele>688.043</ele><time>2015-10-27T10:29:38Z</time></trkpt><trkpt lat="43.082974" lon="-5.788046"><ele>686.025</ele><time>2015-10-27T10:29:49Z</time></trkpt><trkpt lat="43.083121" lon="-5.788135"><ele>685.663</ele><time>2015-10-27T10:30:04Z</time></trkpt><trkpt lat="43.083267" lon="-5.788259"><ele>685.174</ele><time>2015-10-27T10:30:19Z</time></trkpt><trkpt lat="43.083286" lon="-5.788278"><ele>684.156</ele><time>2015-10-27T10:30:21Z</time></trkpt><trkpt lat="43.083433" lon="-5.788467"><ele>683.621</ele><time>2015-10-27T10:30:38Z</time></trkpt><trkpt lat="43.083527" lon="-5.788643"><ele>683.208</ele><time>2015-10-27T10:30:53Z</time></trkpt><trkpt lat="43.083599" lon="-5.788755"><ele>679.868</ele><time>2015-10-27T10:31:04Z</time></trkpt><trkpt lat="43.083696" lon="-5.788931"><ele>677.428</ele><time>2015-10-27T10:31:17Z</time></trkpt><trkpt lat="43.083788" lon="-5.789079"><ele>675.011</ele><time>2015-10-27T10:31:32Z</time></trkpt><trkpt lat="43.083862" lon="-5.789206"><ele>672.610</ele><time>2015-10-27T10:31:46Z</time></trkpt><trkpt lat="43.083880" lon="-5.789312"><ele>669.725</ele><time>2015-10-27T10:32:01Z</time></trkpt><trkpt lat="43.083839" lon="-5.789459"><ele>669.766</ele><time>2015-10-27T10:32:15Z</time></trkpt><trkpt lat="43.083803" lon="-5.789640"><ele>669.758</ele><time>2015-10-27T10:32:29Z</time></trkpt><trkpt lat="43.083775" lon="-5.789791"><ele>669.726</ele><time>2015-10-27T10:32:42Z</time></trkpt><trkpt lat="43.083738" lon="-5.789850"><ele>669.217</ele><time>2015-10-27T10:32:48Z</time></trkpt><trkpt lat="43.083595" lon="-5.790015"><ele>668.287</ele><time>2015-10-27T10:33:06Z</time></trkpt><trkpt lat="43.083491" lon="-5.790183"><ele>669.715</ele><time>2015-10-27T10:33:21Z</time></trkpt><trkpt lat="43.083489" lon="-5.790188"><ele>669.708</ele><time>2015-10-27T10:33:22Z</time></trkpt><trkpt lat="43.083443" lon="-5.790289"><ele>671.612</ele><time>2015-10-27T10:33:36Z</time></trkpt><trkpt lat="43.083433" lon="-5.790319"><ele>672.152</ele><time>2015-10-27T10:33:51Z</time></trkpt><trkpt lat="43.083401" lon="-5.790348"><ele>672.185</ele><time>2015-10-27T10:34:10Z</time></trkpt><trkpt lat="43.083356" lon="-5.790409"><ele>672.674</ele><time>2015-10-27T10:34:28Z</time></trkpt><trkpt lat="43.083329" lon="-5.790399"><ele>673.549</ele><time>2015-10-27T10:34:50Z</time></trkpt><trkpt lat="43.083244" lon="-5.790451"><ele>675.070</ele><time>2015-10-27T10:35:06Z</time></trkpt><trkpt lat="43.083196" lon="-5.790497"><ele>673.562</ele><time>2015-10-27T10:35:16Z</time></trkpt><trkpt lat="43.083186" lon="-5.790527"><ele>672.170</ele><time>2015-10-27T10:35:33Z</time></trkpt><trkpt lat="43.083170" lon="-5.790489"><ele>671.178</ele><time>2015-10-27T10:35:50Z</time></trkpt><trkpt lat="43.083166" lon="-5.790471"><ele>671.133</ele><time>2015-10-27T10:36:10Z</time></trkpt><trkpt lat="43.083177" lon="-5.790517"><ele>671.126</ele><time>2015-10-27T10:36:32Z</time></trkpt><trkpt lat="43.083202" lon="-5.790523"><ele>672.608</ele><time>2015-10-27T10:36:48Z</time></trkpt><trkpt lat="43.083219" lon="-5.790544"><ele>672.668</ele><time>2015-10-27T10:37:10Z</time></trkpt><trkpt lat="43.083187" lon="-5.790558"><ele>672.688</ele><time>2015-10-27T10:37:39Z</time></trkpt><trkpt lat="43.083187" lon="-5.790561"><ele>672.691</ele><time>2015-10-27T10:37:47Z</time></trkpt><trkpt lat="43.083281" lon="-5.790539"><ele>673.170</ele><time>2015-10-27T10:38:01Z</time></trkpt><trkpt lat="43.083288" lon="-5.790539"><ele>673.545</ele><time>2015-10-27T10:38:02Z</time></trkpt><trkpt lat="43.083369" lon="-5.790557"><ele>673.586</ele><time>2015-10-27T10:38:17Z</time></trkpt><trkpt lat="43.083433" lon="-5.790588"><ele>673.578</ele><time>2015-10-27T10:38:31Z</time></trkpt><trkpt lat="43.083524" lon="-5.790636"><ele>673.566</ele><time>2015-10-27T10:38:44Z</time></trkpt><trkpt lat="43.083650" lon="-5.790688"><ele>673.576</ele><time>2015-10-27T10:38:57Z</time></trkpt><trkpt lat="43.083794" lon="-5.790799"><ele>674.090</ele><time>2015-10-27T10:39:12Z</time></trkpt><trkpt lat="43.083868" lon="-5.790818"><ele>675.019</ele><time>2015-10-27T10:39:28Z</time></trkpt><trkpt lat="43.083909" lon="-5.790863"><ele>675.908</ele><time>2015-10-27T10:39:46Z</time></trkpt><trkpt lat="43.083861" lon="-5.790899"><ele>675.948</ele><time>2015-10-27T10:40:06Z</time></trkpt><trkpt lat="43.083893" lon="-5.790884"><ele>675.968</ele><time>2015-10-27T10:40:29Z</time></trkpt><trkpt lat="43.083953" lon="-5.790925"><ele>676.491</ele><time>2015-10-27T10:40:48Z</time></trkpt><trkpt lat="43.084079" lon="-5.790993"><ele>677.930</ele><time>2015-10-27T10:41:05Z</time></trkpt><trkpt lat="43.084196" lon="-5.791086"><ele>678.815</ele><time>2015-10-27T10:41:20Z</time></trkpt><trkpt lat="43.084329" lon="-5.791155"><ele>677.476</ele><time>2015-10-27T10:41:34Z</time></trkpt><trkpt lat="43.084443" lon="-5.791202"><ele>676.978</ele><time>2015-10-27T10:41:48Z</time></trkpt><trkpt lat="43.084655" lon="-5.791257"><ele>675.586</ele><time>2015-10-27T10:42:05Z</time></trkpt><trkpt lat="43.084825" lon="-5.791315"><ele>675.092</ele><time>2015-10-27T10:42:21Z</time></trkpt><trkpt lat="43.084975" lon="-5.791372"><ele>675.073</ele><time>2015-10-27T10:42:36Z</time></trkpt><trkpt lat="43.085097" lon="-5.791476"><ele>675.020</ele><time>2015-10-27T10:42:50Z</time></trkpt><trkpt lat="43.085140" lon="-5.791622"><ele>675.008</ele><time>2015-10-27T10:43:06Z</time></trkpt><trkpt lat="43.085149" lon="-5.791670"><ele>675.060</ele><time>2015-10-27T10:43:22Z</time></trkpt><trkpt lat="43.085178" lon="-5.791696"><ele>674.570</ele><time>2015-10-27T10:43:49Z</time></trkpt><trkpt lat="43.085203" lon="-5.791741"><ele>673.133</ele><time>2015-10-27T10:44:05Z</time></trkpt><trkpt lat="43.085226" lon="-5.791756"><ele>672.622</ele><time>2015-10-27T10:44:23Z</time></trkpt><trkpt lat="43.085253" lon="-5.791720"><ele>671.187</ele><time>2015-10-27T10:44:41Z</time></trkpt><trkpt lat="43.085273" lon="-5.791682"><ele>667.878</ele><time>2015-10-27T10:44:57Z</time></trkpt><trkpt lat="43.085352" lon="-5.791617"><ele>665.480</ele><time>2015-10-27T10:45:13Z</time></trkpt><trkpt lat="43.085438" lon="-5.791573"><ele>662.048</ele><time>2015-10-27T10:45:31Z</time></trkpt><trkpt lat="43.085495" lon="-5.791554"><ele>660.645</ele><time>2015-10-27T10:45:44Z</time></trkpt><trkpt lat="43.085555" lon="-5.791531"><ele>658.247</ele><time>2015-10-27T10:45:57Z</time></trkpt><trkpt lat="43.085649" lon="-5.791515"><ele>656.211</ele><time>2015-10-27T10:46:12Z</time></trkpt><trkpt lat="43.085709" lon="-5.791529"><ele>655.308</ele><time>2015-10-27T10:46:27Z</time></trkpt><trkpt lat="43.085785" lon="-5.791538"><ele>653.385</ele><time>2015-10-27T10:46:42Z</time></trkpt><trkpt lat="43.085880" lon="-5.791550"><ele>650.595</ele><time>2015-10-27T10:46:56Z</time></trkpt><trkpt lat="43.085978" lon="-5.791560"><ele>650.058</ele><time>2015-10-27T10:47:07Z</time></trkpt><trkpt lat="43.086049" lon="-5.791590"><ele>649.547</ele><time>2015-10-27T10:47:23Z</time></trkpt><trkpt lat="43.086137" lon="-5.791631"><ele>649.512</ele><time>2015-10-27T10:47:44Z</time></trkpt><trkpt lat="43.086257" lon="-5.791676"><ele>651.093</ele><time>2015-10-27T10:47:58Z</time></trkpt><trkpt lat="43.086326" lon="-5.791750"><ele>650.015</ele><time>2015-10-27T10:48:12Z</time></trkpt><trkpt lat="43.086405" lon="-5.791845"><ele>650.033</ele><time>2015-10-27T10:48:26Z</time></trkpt><trkpt lat="43.086544" lon="-5.791980"><ele>650.073</ele><time>2015-10-27T10:48:43Z</time></trkpt><trkpt lat="43.086666" lon="-5.792080"><ele>649.085</ele><time>2015-10-27T10:48:56Z</time></trkpt><trkpt lat="43.086776" lon="-5.792167"><ele>648.113</ele><time>2015-10-27T10:49:09Z</time></trkpt><trkpt lat="43.086783" lon="-5.792172"><ele>648.108</ele><time>2015-10-27T10:49:10Z</time></trkpt><trkpt lat="43.086931" lon="-5.792260"><ele>647.688</ele><time>2015-10-27T10:49:26Z</time></trkpt><trkpt lat="43.087066" lon="-5.792356"><ele>645.718</ele><time>2015-10-27T10:49:41Z</time></trkpt><trkpt lat="43.087151" lon="-5.792405"><ele>644.781</ele><time>2015-10-27T10:49:51Z</time></trkpt><trkpt lat="43.087333" lon="-5.792571"><ele>643.350</ele><time>2015-10-27T10:50:09Z</time></trkpt><trkpt lat="43.087398" lon="-5.792629"><ele>642.325</ele><time>2015-10-27T10:50:16Z</time></trkpt><trkpt lat="43.087530" lon="-5.792687"><ele>640.966</ele><time>2015-10-27T10:50:27Z</time></trkpt><trkpt lat="43.087562" lon="-5.792724"><ele>640.488</ele><time>2015-10-27T10:50:31Z</time></trkpt><trkpt lat="43.087600" lon="-5.792768"><ele>639.926</ele><time>2015-10-27T10:50:35Z</time></trkpt><trkpt lat="43.087707" lon="-5.792910"><ele>639.939</ele><time>2015-10-27T10:50:50Z</time></trkpt><trkpt lat="43.087839" lon="-5.792993"><ele>638.501</ele><time>2015-10-27T10:51:04Z</time></trkpt><trkpt lat="43.087922" lon="-5.793077"><ele>636.521</ele><time>2015-10-27T10:51:21Z</time></trkpt><trkpt lat="43.087923" lon="-5.793117"><ele>636.508</ele><time>2015-10-27T10:51:45Z</time></trkpt><trkpt lat="43.087984" lon="-5.793213"><ele>635.164</ele><time>2015-10-27T10:52:00Z</time></trkpt><trkpt lat="43.088003" lon="-5.793282"><ele>633.734</ele><time>2015-10-27T10:52:12Z</time></trkpt><trkpt lat="43.088036" lon="-5.793356"><ele>632.227</ele><time>2015-10-27T10:52:27Z</time></trkpt><trkpt lat="43.088019" lon="-5.793359"><ele>631.726</ele><time>2015-10-27T10:52:46Z</time></trkpt><trkpt lat="43.088022" lon="-5.793336"><ele>631.751</ele><time>2015-10-27T10:52:59Z</time></trkpt><trkpt lat="43.088018" lon="-5.793333"><ele>632.272</ele><time>2015-10-27T10:53:14Z</time></trkpt><trkpt lat="43.088014" lon="-5.793324"><ele>632.284</ele><time>2015-10-27T10:53:32Z</time></trkpt><trkpt lat="43.088012" lon="-5.793367"><ele>632.282</ele><time>2015-10-27T10:53:45Z</time></trkpt><trkpt lat="43.088034" lon="-5.793335"><ele>632.227</ele><time>2015-10-27T10:54:00Z</time></trkpt><trkpt lat="43.087984" lon="-5.793318"><ele>631.768</ele><time>2015-10-27T10:54:21Z</time></trkpt><trkpt lat="43.087978" lon="-5.793312"><ele>631.714</ele><time>2015-10-27T10:54:49Z</time></trkpt><trkpt lat="43.087983" lon="-5.793321"><ele>631.708</ele><time>2015-10-27T10:55:21Z</time></trkpt><trkpt lat="43.087995" lon="-5.793307"><ele>631.713</ele><time>2015-10-27T10:55:50Z</time></trkpt><trkpt lat="43.088003" lon="-5.793309"><ele>631.233</ele><time>2015-10-27T10:56:21Z</time></trkpt><trkpt lat="43.088020" lon="-5.793286"><ele>630.826</ele><time>2015-10-27T10:56:33Z</time></trkpt><trkpt lat="43.088014" lon="-5.793330"><ele>631.795</ele><time>2015-10-27T10:56:50Z</time></trkpt><trkpt lat="43.088022" lon="-5.793397"><ele>631.710</ele><time>2015-10-27T10:57:06Z</time></trkpt><trkpt lat="43.088006" lon="-5.793485"><ele>628.481</ele><time>2015-10-27T10:57:17Z</time></trkpt><trkpt lat="43.087997" lon="-5.793610"><ele>625.033</ele><time>2015-10-27T10:57:30Z</time></trkpt><trkpt lat="43.087940" lon="-5.793726"><ele>622.641</ele><time>2015-10-27T10:57:45Z</time></trkpt><trkpt lat="43.087884" lon="-5.793866"><ele>620.735</ele><time>2015-10-27T10:58:00Z</time></trkpt><trkpt lat="43.087851" lon="-5.793942"><ele>619.786</ele><time>2015-10-27T10:58:14Z</time></trkpt><trkpt lat="43.087800" lon="-5.794098"><ele>617.314</ele><time>2015-10-27T10:58:29Z</time></trkpt><trkpt lat="43.087756" lon="-5.794188"><ele>615.908</ele><time>2015-10-27T10:58:37Z</time></trkpt><trkpt lat="43.087665" lon="-5.794371"><ele>613.544</ele><time>2015-10-27T10:58:50Z</time></trkpt><trkpt lat="43.087601" lon="-5.794536"><ele>612.584</ele><time>2015-10-27T10:59:03Z</time></trkpt><trkpt lat="43.087589" lon="-5.794573"><ele>612.067</ele><time>2015-10-27T10:59:06Z</time></trkpt><trkpt lat="43.087520" lon="-5.794761"><ele>613.526</ele><time>2015-10-27T10:59:22Z</time></trkpt><trkpt lat="43.087486" lon="-5.794890"><ele>615.441</ele><time>2015-10-27T10:59:37Z</time></trkpt><trkpt lat="43.087454" lon="-5.795057"><ele>615.922</ele><time>2015-10-27T10:59:53Z</time></trkpt><trkpt lat="43.087416" lon="-5.795143"><ele>617.314</ele><time>2015-10-27T11:00:05Z</time></trkpt><trkpt lat="43.087349" lon="-5.795302"><ele>617.832</ele><time>2015-10-27T11:00:17Z</time></trkpt><trkpt lat="43.087257" lon="-5.795447"><ele>618.891</ele><time>2015-10-27T11:00:32Z</time></trkpt><trkpt lat="43.087189" lon="-5.795509"><ele>619.781</ele><time>2015-10-27T11:00:40Z</time></trkpt><trkpt lat="43.087052" lon="-5.795600"><ele>620.719</ele><time>2015-10-27T11:00:55Z</time></trkpt><trkpt lat="43.086927" lon="-5.795682"><ele>620.708</ele><time>2015-10-27T11:01:07Z</time></trkpt><trkpt lat="43.086846" lon="-5.795743"><ele>621.270</ele><time>2015-10-27T11:01:16Z</time></trkpt><trkpt lat="43.086695" lon="-5.795847"><ele>621.290</ele><time>2015-10-27T11:01:31Z</time></trkpt><trkpt lat="43.086550" lon="-5.795957"><ele>621.633</ele><time>2015-10-27T11:01:46Z</time></trkpt><trkpt lat="43.086452" lon="-5.796039"><ele>623.162</ele><time>2015-10-27T11:01:57Z</time></trkpt><trkpt lat="43.086350" lon="-5.796098"><ele>623.537</ele><time>2015-10-27T11:02:09Z</time></trkpt><trkpt lat="43.086271" lon="-5.796173"><ele>623.588</ele><time>2015-10-27T11:02:23Z</time></trkpt><trkpt lat="43.086256" lon="-5.796194"><ele>622.690</ele><time>2015-10-27T11:02:26Z</time></trkpt><trkpt lat="43.086170" lon="-5.796282"><ele>619.278</ele><time>2015-10-27T11:02:40Z</time></trkpt><trkpt lat="43.086020" lon="-5.796379"><ele>617.384</ele><time>2015-10-27T11:02:54Z</time></trkpt><trkpt lat="43.085863" lon="-5.796470"><ele>617.307</ele><time>2015-10-27T11:03:13Z</time></trkpt><trkpt lat="43.085836" lon="-5.796493"><ele>617.317</ele><time>2015-10-27T11:03:27Z</time></trkpt><trkpt lat="43.085837" lon="-5.796429"><ele>618.808</ele><time>2015-10-27T11:03:42Z</time></trkpt><trkpt lat="43.085838" lon="-5.796423"><ele>618.859</ele><time>2015-10-27T11:03:43Z</time></trkpt><trkpt lat="43.085843" lon="-5.796413"><ele>619.299</ele><time>2015-10-27T11:03:57Z</time></trkpt><trkpt lat="43.085935" lon="-5.796460"><ele>619.732</ele><time>2015-10-27T11:04:10Z</time></trkpt><trkpt lat="43.086082" lon="-5.796494"><ele>620.261</ele><time>2015-10-27T11:04:25Z</time></trkpt><trkpt lat="43.086246" lon="-5.796596"><ele>620.256</ele><time>2015-10-27T11:04:41Z</time></trkpt><trkpt lat="43.086324" lon="-5.796744"><ele>621.647</ele><time>2015-10-27T11:04:53Z</time></trkpt><trkpt lat="43.086435" lon="-5.796854"><ele>624.039</ele><time>2015-10-27T11:05:07Z</time></trkpt><trkpt lat="43.086492" lon="-5.796881"><ele>627.487</ele><time>2015-10-27T11:05:20Z</time></trkpt><trkpt lat="43.086612" lon="-5.796991"><ele>629.343</ele><time>2015-10-27T11:05:34Z</time></trkpt><trkpt lat="43.086763" lon="-5.797160"><ele>631.764</ele><time>2015-10-27T11:05:51Z</time></trkpt><trkpt lat="43.086865" lon="-5.797234"><ele>632.710</ele><time>2015-10-27T11:06:08Z</time></trkpt><trkpt lat="43.086960" lon="-5.797296"><ele>629.308</ele><time>2015-10-27T11:06:20Z</time></trkpt><trkpt lat="43.087119" lon="-5.797378"><ele>626.975</ele><time>2015-10-27T11:06:36Z</time></trkpt><trkpt lat="43.087172" lon="-5.797435"><ele>626.495</ele><time>2015-10-27T11:06:49Z</time></trkpt><trkpt lat="43.087234" lon="-5.797447"><ele>626.048</ele><time>2015-10-27T11:07:08Z</time></trkpt><trkpt lat="43.087383" lon="-5.797493"><ele>625.537</ele><time>2015-10-27T11:07:25Z</time></trkpt><trkpt lat="43.087493" lon="-5.797519"><ele>626.452</ele><time>2015-10-27T11:07:36Z</time></trkpt><trkpt lat="43.087599" lon="-5.797601"><ele>629.893</ele><time>2015-10-27T11:07:48Z</time></trkpt><trkpt lat="43.087711" lon="-5.797779"><ele>632.265</ele><time>2015-10-27T11:08:05Z</time></trkpt><trkpt lat="43.087779" lon="-5.798035"><ele>632.773</ele><time>2015-10-27T11:08:18Z</time></trkpt><trkpt lat="43.087806" lon="-5.798221"><ele>631.212</ele><time>2015-10-27T11:08:31Z</time></trkpt><trkpt lat="43.087879" lon="-5.798368"><ele>630.332</ele><time>2015-10-27T11:08:48Z</time></trkpt><trkpt lat="43.087972" lon="-5.798456"><ele>627.905</ele><time>2015-10-27T11:09:03Z</time></trkpt><trkpt lat="43.087978" lon="-5.798461"><ele>627.408</ele><time>2015-10-27T11:09:04Z</time></trkpt><trkpt lat="43.088074" lon="-5.798517"><ele>626.412</ele><time>2015-10-27T11:09:19Z</time></trkpt><trkpt lat="43.088225" lon="-5.798604"><ele>625.562</ele><time>2015-10-27T11:09:34Z</time></trkpt><trkpt lat="43.088374" lon="-5.798771"><ele>626.915</ele><time>2015-10-27T11:09:48Z</time></trkpt><trkpt lat="43.088454" lon="-5.798877"><ele>628.864</ele><time>2015-10-27T11:10:01Z</time></trkpt><trkpt lat="43.088544" lon="-5.799002"><ele>631.239</ele><time>2015-10-27T11:10:15Z</time></trkpt><trkpt lat="43.088661" lon="-5.799136"><ele>631.730</ele><time>2015-10-27T11:10:28Z</time></trkpt><trkpt lat="43.088718" lon="-5.799309"><ele>632.752</ele><time>2015-10-27T11:10:40Z</time></trkpt><trkpt lat="43.088741" lon="-5.799484"><ele>634.160</ele><time>2015-10-27T11:10:52Z</time></trkpt><trkpt lat="43.088805" lon="-5.799696"><ele>634.133</ele><time>2015-10-27T11:11:06Z</time></trkpt><trkpt lat="43.088849" lon="-5.799803"><ele>634.123</ele><time>2015-10-27T11:11:22Z</time></trkpt><trkpt lat="43.088886" lon="-5.799902"><ele>634.115</ele><time>2015-10-27T11:11:38Z</time></trkpt><trkpt lat="43.088981" lon="-5.800009"><ele>635.108</ele><time>2015-10-27T11:11:54Z</time></trkpt><trkpt lat="43.089059" lon="-5.800198"><ele>635.184</ele><time>2015-10-27T11:12:08Z</time></trkpt><trkpt lat="43.089117" lon="-5.800412"><ele>632.714</ele><time>2015-10-27T11:12:21Z</time></trkpt><trkpt lat="43.089178" lon="-5.800520"><ele>630.897</ele><time>2015-10-27T11:12:34Z</time></trkpt><trkpt lat="43.089249" lon="-5.800665"><ele>629.846</ele><time>2015-10-27T11:12:49Z</time></trkpt><trkpt lat="43.089313" lon="-5.800808"><ele>628.491</ele><time>2015-10-27T11:13:05Z</time></trkpt><trkpt lat="43.089329" lon="-5.800900"><ele>627.922</ele><time>2015-10-27T11:13:12Z</time></trkpt><trkpt lat="43.089389" lon="-5.801052"><ele>627.494</ele><time>2015-10-27T11:13:25Z</time></trkpt><trkpt lat="43.089435" lon="-5.801186"><ele>626.092</ele><time>2015-10-27T11:13:36Z</time></trkpt><trkpt lat="43.089439" lon="-5.801412"><ele>624.083</ele><time>2015-10-27T11:13:49Z</time></trkpt><trkpt lat="43.089479" lon="-5.801506"><ele>623.525</ele><time>2015-10-27T11:14:07Z</time></trkpt><trkpt lat="43.089483" lon="-5.801515"><ele>622.117</ele><time>2015-10-27T11:14:09Z</time></trkpt><trkpt lat="43.089501" lon="-5.801519"><ele>624.008</ele><time>2015-10-27T11:14:16Z</time></trkpt><trkpt lat="43.089542" lon="-5.801444"><ele>622.619</ele><time>2015-10-27T11:14:25Z</time></trkpt><trkpt lat="43.089696" lon="-5.801369"><ele>621.249</ele><time>2015-10-27T11:14:41Z</time></trkpt><trkpt lat="43.089796" lon="-5.801335"><ele>620.232</ele><time>2015-10-27T11:14:54Z</time></trkpt><trkpt lat="43.089885" lon="-5.801288"><ele>621.631</ele><time>2015-10-27T11:15:04Z</time></trkpt><trkpt lat="43.090038" lon="-5.801321"><ele>622.176</ele><time>2015-10-27T11:15:19Z</time></trkpt><trkpt lat="43.090094" lon="-5.801393"><ele>622.147</ele><time>2015-10-27T11:15:37Z</time></trkpt><trkpt lat="43.090109" lon="-5.801398"><ele>622.659</ele><time>2015-10-27T11:15:58Z</time></trkpt><trkpt lat="43.090188" lon="-5.801375"><ele>620.237</ele><time>2015-10-27T11:16:14Z</time></trkpt><trkpt lat="43.090302" lon="-5.801332"><ele>620.246</ele><time>2015-10-27T11:16:26Z</time></trkpt><trkpt lat="43.090439" lon="-5.801345"><ele>620.288</ele><time>2015-10-27T11:16:38Z</time></trkpt><trkpt lat="43.090633" lon="-5.801476"><ele>619.216</ele><time>2015-10-27T11:16:55Z</time></trkpt><trkpt lat="43.090727" lon="-5.801679"><ele>617.808</ele><time>2015-10-27T11:17:08Z</time></trkpt><trkpt lat="43.090750" lon="-5.801740"><ele>617.385</ele><time>2015-10-27T11:17:11Z</time></trkpt><trkpt lat="43.090838" lon="-5.801867"><ele>616.345</ele><time>2015-10-27T11:17:21Z</time></trkpt><trkpt lat="43.090919" lon="-5.801979"><ele>614.938</ele><time>2015-10-27T11:17:30Z</time></trkpt><trkpt lat="43.091073" lon="-5.802077"><ele>614.487</ele><time>2015-10-27T11:17:47Z</time></trkpt><trkpt lat="43.091168" lon="-5.802120"><ele>613.552</ele><time>2015-10-27T11:18:00Z</time></trkpt><trkpt lat="43.091331" lon="-5.802176"><ele>611.143</ele><time>2015-10-27T11:18:14Z</time></trkpt><trkpt lat="43.091440" lon="-5.802257"><ele>610.155</ele><time>2015-10-27T11:18:28Z</time></trkpt><trkpt lat="43.091582" lon="-5.802395"><ele>611.523</ele><time>2015-10-27T11:18:42Z</time></trkpt><trkpt lat="43.091659" lon="-5.802517"><ele>613.945</ele><time>2015-10-27T11:18:55Z</time></trkpt><trkpt lat="43.091743" lon="-5.802595"><ele>616.347</ele><time>2015-10-27T11:19:09Z</time></trkpt><trkpt lat="43.091843" lon="-5.802678"><ele>615.411</ele><time>2015-10-27T11:19:27Z</time></trkpt><trkpt lat="43.091943" lon="-5.802700"><ele>615.908</ele><time>2015-10-27T11:19:38Z</time></trkpt><trkpt lat="43.092047" lon="-5.802760"><ele>615.995</ele><time>2015-10-27T11:19:50Z</time></trkpt><trkpt lat="43.092216" lon="-5.802919"><ele>615.975</ele><time>2015-10-27T11:20:05Z</time></trkpt><trkpt lat="43.092351" lon="-5.803055"><ele>615.938</ele><time>2015-10-27T11:20:17Z</time></trkpt><trkpt lat="43.092389" lon="-5.803114"><ele>617.337</ele><time>2015-10-27T11:20:21Z</time></trkpt><trkpt lat="43.092489" lon="-5.803289"><ele>620.272</ele><time>2015-10-27T11:20:34Z</time></trkpt><trkpt lat="43.092543" lon="-5.803330"><ele>622.163</ele><time>2015-10-27T11:20:48Z</time></trkpt><trkpt lat="43.092644" lon="-5.803561"><ele>622.175</ele><time>2015-10-27T11:21:02Z</time></trkpt><trkpt lat="43.092709" lon="-5.803717"><ele>620.243</ele><time>2015-10-27T11:21:15Z</time></trkpt><trkpt lat="43.092814" lon="-5.803957"><ele>619.789</ele><time>2015-10-27T11:21:32Z</time></trkpt><trkpt lat="43.092902" lon="-5.804129"><ele>618.806</ele><time>2015-10-27T11:21:44Z</time></trkpt><trkpt lat="43.093031" lon="-5.804379"><ele>616.326</ele><time>2015-10-27T11:22:00Z</time></trkpt><trkpt lat="43.093090" lon="-5.804663"><ele>614.908</ele><time>2015-10-27T11:22:17Z</time></trkpt><trkpt lat="43.093168" lon="-5.804885"><ele>614.999</ele><time>2015-10-27T11:22:35Z</time></trkpt><trkpt lat="43.093192" lon="-5.804900"><ele>614.959</ele><time>2015-10-27T11:22:39Z</time></trkpt><trkpt lat="43.093339" lon="-5.804977"><ele>614.492</ele><time>2015-10-27T11:22:54Z</time></trkpt><trkpt lat="43.093363" lon="-5.805073"><ele>613.921</ele><time>2015-10-27T11:23:06Z</time></trkpt><trkpt lat="43.093368" lon="-5.805069"><ele>613.956</ele><time>2015-10-27T11:23:13Z</time></trkpt><trkpt lat="43.093471" lon="-5.805143"><ele>613.057</ele><time>2015-10-27T11:23:28Z</time></trkpt><trkpt lat="43.093515" lon="-5.805207"><ele>613.059</ele><time>2015-10-27T11:23:40Z</time></trkpt><trkpt lat="43.093611" lon="-5.805334"><ele>610.617</ele><time>2015-10-27T11:23:56Z</time></trkpt><trkpt lat="43.093712" lon="-5.805505"><ele>607.733</ele><time>2015-10-27T11:24:12Z</time></trkpt><trkpt lat="43.093808" lon="-5.805657"><ele>604.323</ele><time>2015-10-27T11:24:28Z</time></trkpt><trkpt lat="43.093902" lon="-5.805781"><ele>601.915</ele><time>2015-10-27T11:24:43Z</time></trkpt><trkpt lat="43.093921" lon="-5.805800"><ele>601.408</ele><time>2015-10-27T11:24:45Z</time></trkpt><trkpt lat="43.094071" lon="-5.806078"><ele>599.514</ele><time>2015-10-27T11:25:02Z</time></trkpt><trkpt lat="43.094132" lon="-5.806343"><ele>597.674</ele><time>2015-10-27T11:25:19Z</time></trkpt><trkpt lat="43.094132" lon="-5.806412"><ele>597.197</ele><time>2015-10-27T11:25:24Z</time></trkpt><trkpt lat="43.094172" lon="-5.806624"><ele>594.716</ele><time>2015-10-27T11:25:40Z</time></trkpt><trkpt lat="43.094184" lon="-5.806665"><ele>594.761</ele><time>2015-10-27T11:25:43Z</time></trkpt><trkpt lat="43.094184" lon="-5.806731"><ele>594.272</ele><time>2015-10-27T11:25:47Z</time></trkpt><trkpt lat="43.094229" lon="-5.806984"><ele>592.354</ele><time>2015-10-27T11:26:04Z</time></trkpt><trkpt lat="43.094333" lon="-5.807187"><ele>589.972</ele><time>2015-10-27T11:26:21Z</time></trkpt><trkpt lat="43.094343" lon="-5.807195"><ele>589.976</ele><time>2015-10-27T11:26:22Z</time></trkpt><trkpt lat="43.094500" lon="-5.807296"><ele>588.090</ele><time>2015-10-27T11:26:39Z</time></trkpt><trkpt lat="43.094630" lon="-5.807390"><ele>584.619</ele><time>2015-10-27T11:26:53Z</time></trkpt><trkpt lat="43.094730" lon="-5.807530"><ele>582.208</ele><time>2015-10-27T11:27:06Z</time></trkpt><trkpt lat="43.094827" lon="-5.807618"><ele>579.838</ele><time>2015-10-27T11:27:20Z</time></trkpt><trkpt lat="43.094904" lon="-5.807630"><ele>576.958</ele><time>2015-10-27T11:27:30Z</time></trkpt><trkpt lat="43.094949" lon="-5.807677"><ele>576.021</ele><time>2015-10-27T11:27:35Z</time></trkpt><trkpt lat="43.095025" lon="-5.807746"><ele>575.040</ele><time>2015-10-27T11:27:43Z</time></trkpt><trkpt lat="43.095129" lon="-5.807861"><ele>574.525</ele><time>2015-10-27T11:27:58Z</time></trkpt><trkpt lat="43.095179" lon="-5.807880"><ele>574.526</ele><time>2015-10-27T11:28:06Z</time></trkpt><trkpt lat="43.095313" lon="-5.807891"><ele>574.068</ele><time>2015-10-27T11:28:20Z</time></trkpt><trkpt lat="43.095356" lon="-5.807904"><ele>574.046</ele><time>2015-10-27T11:28:25Z</time></trkpt><trkpt lat="43.095386" lon="-5.807915"><ele>574.067</ele><time>2015-10-27T11:28:28Z</time></trkpt><trkpt lat="43.095525" lon="-5.808042"><ele>574.081</ele><time>2015-10-27T11:28:44Z</time></trkpt><trkpt lat="43.095671" lon="-5.808207"><ele>574.019</ele><time>2015-10-27T11:29:00Z</time></trkpt><trkpt lat="43.095727" lon="-5.808275"><ele>574.008</ele><time>2015-10-27T11:29:06Z</time></trkpt><trkpt lat="43.095833" lon="-5.808410"><ele>573.137</ele><time>2015-10-27T11:29:21Z</time></trkpt><trkpt lat="43.095937" lon="-5.808417"><ele>572.167</ele><time>2015-10-27T11:29:31Z</time></trkpt><trkpt lat="43.096028" lon="-5.808704"><ele>571.240</ele><time>2015-10-27T11:29:49Z</time></trkpt><trkpt lat="43.096119" lon="-5.809003"><ele>570.769</ele><time>2015-10-27T11:30:07Z</time></trkpt><trkpt lat="43.096181" lon="-5.809205"><ele>571.624</ele><time>2015-10-27T11:30:22Z</time></trkpt><trkpt lat="43.096272" lon="-5.809335"><ele>573.695</ele><time>2015-10-27T11:30:41Z</time></trkpt><trkpt lat="43.096381" lon="-5.809337"><ele>575.537</ele><time>2015-10-27T11:30:55Z</time></trkpt><trkpt lat="43.096477" lon="-5.809441"><ele>578.415</ele><time>2015-10-27T11:31:10Z</time></trkpt><trkpt lat="43.096544" lon="-5.809512"><ele>581.299</ele><time>2015-10-27T11:31:27Z</time></trkpt><trkpt lat="43.096634" lon="-5.809531"><ele>584.107</ele><time>2015-10-27T11:31:43Z</time></trkpt><trkpt lat="43.096762" lon="-5.809609"><ele>585.627</ele><time>2015-10-27T11:32:00Z</time></trkpt><trkpt lat="43.096780" lon="-5.809622"><ele>586.108</ele><time>2015-10-27T11:32:02Z</time></trkpt><trkpt lat="43.096904" lon="-5.809668"><ele>587.570</ele><time>2015-10-27T11:32:17Z</time></trkpt><trkpt lat="43.097019" lon="-5.809755"><ele>589.080</ele><time>2015-10-27T11:32:33Z</time></trkpt><trkpt lat="43.097144" lon="-5.809837"><ele>592.353</ele><time>2015-10-27T11:32:50Z</time></trkpt><trkpt lat="43.097261" lon="-5.809915"><ele>593.892</ele><time>2015-10-27T11:33:05Z</time></trkpt><trkpt lat="43.097359" lon="-5.810027"><ele>595.297</ele><time>2015-10-27T11:33:20Z</time></trkpt><trkpt lat="43.097367" lon="-5.810035"><ele>595.238</ele><time>2015-10-27T11:33:21Z</time></trkpt><trkpt lat="43.097506" lon="-5.810174"><ele>596.610</ele><time>2015-10-27T11:33:39Z</time></trkpt><trkpt lat="43.097642" lon="-5.810284"><ele>596.228</ele><time>2015-10-27T11:33:54Z</time></trkpt><trkpt lat="43.097705" lon="-5.810323"><ele>596.233</ele><time>2015-10-27T11:34:01Z</time></trkpt><trkpt lat="43.097765" lon="-5.810359"><ele>594.723</ele><time>2015-10-27T11:34:17Z</time></trkpt><trkpt lat="43.097768" lon="-5.810360"><ele>594.715</ele><time>2015-10-27T11:34:18Z</time></trkpt><trkpt lat="43.097908" lon="-5.810415"><ele>594.208</ele><time>2015-10-27T11:34:33Z</time></trkpt><trkpt lat="43.097940" lon="-5.810442"><ele>593.854</ele><time>2015-10-27T11:34:37Z</time></trkpt><trkpt lat="43.098010" lon="-5.810474"><ele>592.834</ele><time>2015-10-27T11:34:44Z</time></trkpt><trkpt lat="43.098082" lon="-5.810505"><ele>591.817</ele><time>2015-10-27T11:34:51Z</time></trkpt><trkpt lat="43.098236" lon="-5.810540"><ele>591.356</ele><time>2015-10-27T11:35:06Z</time></trkpt><trkpt lat="43.098341" lon="-5.810533"><ele>589.911</ele><time>2015-10-27T11:35:19Z</time></trkpt><trkpt lat="43.098361" lon="-5.810540"><ele>589.442</ele><time>2015-10-27T11:35:23Z</time></trkpt><trkpt lat="43.098446" lon="-5.810565"><ele>589.054</ele><time>2015-10-27T11:35:36Z</time></trkpt><trkpt lat="43.098613" lon="-5.810657"><ele>589.072</ele><time>2015-10-27T11:35:52Z</time></trkpt><trkpt lat="43.098742" lon="-5.810759"><ele>589.994</ele><time>2015-10-27T11:36:08Z</time></trkpt><trkpt lat="43.098914" lon="-5.810842"><ele>591.357</ele><time>2015-10-27T11:36:26Z</time></trkpt><trkpt lat="43.098962" lon="-5.810853"><ele>591.322</ele><time>2015-10-27T11:36:31Z</time></trkpt><trkpt lat="43.099006" lon="-5.810848"><ele>591.308</ele><time>2015-10-27T11:36:35Z</time></trkpt><trkpt lat="43.099175" lon="-5.810870"><ele>589.910</ele><time>2015-10-27T11:36:49Z</time></trkpt><trkpt lat="43.099254" lon="-5.810895"><ele>589.470</ele><time>2015-10-27T11:36:57Z</time></trkpt><trkpt lat="43.099315" lon="-5.810904"><ele>588.563</ele><time>2015-10-27T11:37:03Z</time></trkpt><trkpt lat="43.099438" lon="-5.810878"><ele>587.032</ele><time>2015-10-27T11:37:15Z</time></trkpt><trkpt lat="43.099448" lon="-5.810881"><ele>587.067</ele><time>2015-10-27T11:37:16Z</time></trkpt><trkpt lat="43.099480" lon="-5.810889"><ele>586.528</ele><time>2015-10-27T11:37:19Z</time></trkpt><trkpt lat="43.099615" lon="-5.810897"><ele>584.640</ele><time>2015-10-27T11:37:33Z</time></trkpt><trkpt lat="43.099725" lon="-5.810889"><ele>581.748</ele><time>2015-10-27T11:37:45Z</time></trkpt><trkpt lat="43.099823" lon="-5.810878"><ele>578.477</ele><time>2015-10-27T11:37:57Z</time></trkpt><trkpt lat="43.099882" lon="-5.810873"><ele>576.061</ele><time>2015-10-27T11:38:11Z</time></trkpt><trkpt lat="43.099957" lon="-5.810846"><ele>573.127</ele><time>2015-10-27T11:38:28Z</time></trkpt><trkpt lat="43.100063" lon="-5.810814"><ele>570.208</ele><time>2015-10-27T11:38:41Z</time></trkpt><trkpt lat="43.100162" lon="-5.810829"><ele>566.878</ele><time>2015-10-27T11:38:54Z</time></trkpt><trkpt lat="43.100278" lon="-5.810862"><ele>563.518</ele><time>2015-10-27T11:39:09Z</time></trkpt><trkpt lat="43.100396" lon="-5.810954"><ele>561.591</ele><time>2015-10-27T11:39:24Z</time></trkpt><trkpt lat="43.100501" lon="-5.811097"><ele>559.650</ele><time>2015-10-27T11:39:38Z</time></trkpt><trkpt lat="43.100566" lon="-5.811270"><ele>556.765</ele><time>2015-10-27T11:39:56Z</time></trkpt><trkpt lat="43.100581" lon="-5.811440"><ele>554.346</ele><time>2015-10-27T11:40:12Z</time></trkpt><trkpt lat="43.100583" lon="-5.811577"><ele>551.598</ele><time>2015-10-27T11:40:27Z</time></trkpt><trkpt lat="43.100530" lon="-5.811817"><ele>548.666</ele><time>2015-10-27T11:40:42Z</time></trkpt><trkpt lat="43.100461" lon="-5.811941"><ele>545.743</ele><time>2015-10-27T11:40:55Z</time></trkpt><trkpt lat="43.100396" lon="-5.812054"><ele>543.864</ele><time>2015-10-27T11:41:09Z</time></trkpt><trkpt lat="43.100409" lon="-5.812158"><ele>540.410</ele><time>2015-10-27T11:41:25Z</time></trkpt><trkpt lat="43.100439" lon="-5.812237"><ele>538.008</ele><time>2015-10-27T11:41:40Z</time></trkpt><trkpt lat="43.100469" lon="-5.812355"><ele>535.645</ele><time>2015-10-27T11:41:54Z</time></trkpt><trkpt lat="43.100529" lon="-5.812447"><ele>532.225</ele><time>2015-10-27T11:42:07Z</time></trkpt><trkpt lat="43.100608" lon="-5.812512"><ele>529.318</ele><time>2015-10-27T11:42:21Z</time></trkpt><trkpt lat="43.100727" lon="-5.812624"><ele>526.927</ele><time>2015-10-27T11:42:37Z</time></trkpt><trkpt lat="43.100868" lon="-5.812722"><ele>525.092</ele><time>2015-10-27T11:42:52Z</time></trkpt><trkpt lat="43.100877" lon="-5.812726"><ele>524.583</ele><time>2015-10-27T11:42:53Z</time></trkpt><trkpt lat="43.101038" lon="-5.812750"><ele>523.115</ele><time>2015-10-27T11:43:09Z</time></trkpt><trkpt lat="43.101199" lon="-5.812829"><ele>521.263</ele><time>2015-10-27T11:43:25Z</time></trkpt><trkpt lat="43.101294" lon="-5.812849"><ele>517.813</ele><time>2015-10-27T11:43:37Z</time></trkpt><trkpt lat="43.101389" lon="-5.812884"><ele>514.443</ele><time>2015-10-27T11:43:49Z</time></trkpt><trkpt lat="43.101505" lon="-5.812941"><ele>511.107</ele><time>2015-10-27T11:44:02Z</time></trkpt><trkpt lat="43.101627" lon="-5.813025"><ele>508.208</ele><time>2015-10-27T11:44:16Z</time></trkpt><trkpt lat="43.101736" lon="-5.813108"><ele>505.342</ele><time>2015-10-27T11:44:29Z</time></trkpt><trkpt lat="43.101899" lon="-5.813266"><ele>502.452</ele><time>2015-10-27T11:44:45Z</time></trkpt><trkpt lat="43.101959" lon="-5.813269"><ele>501.525</ele><time>2015-10-27T11:44:50Z</time></trkpt><trkpt lat="43.102143" lon="-5.813305"><ele>499.564</ele><time>2015-10-27T11:45:07Z</time></trkpt><trkpt lat="43.102300" lon="-5.813352"><ele>498.669</ele><time>2015-10-27T11:45:22Z</time></trkpt><trkpt lat="43.102436" lon="-5.813419"><ele>496.770</ele><time>2015-10-27T11:45:34Z</time></trkpt><trkpt lat="43.102510" lon="-5.813441"><ele>495.742</ele><time>2015-10-27T11:45:42Z</time></trkpt><trkpt lat="43.102602" lon="-5.813475"><ele>491.920</ele><time>2015-10-27T11:45:53Z</time></trkpt><trkpt lat="43.102726" lon="-5.813689"><ele>489.546</ele><time>2015-10-27T11:46:10Z</time></trkpt><trkpt lat="43.102771" lon="-5.813759"><ele>486.688</ele><time>2015-10-27T11:46:20Z</time></trkpt><trkpt lat="43.102878" lon="-5.813718"><ele>483.716</ele><time>2015-10-27T11:46:33Z</time></trkpt><trkpt lat="43.102955" lon="-5.813758"><ele>481.308</ele><time>2015-10-27T11:46:47Z</time></trkpt><trkpt lat="43.103009" lon="-5.813719"><ele>480.365</ele><time>2015-10-27T11:47:09Z</time></trkpt><trkpt lat="43.103087" lon="-5.813686"><ele>477.415</ele><time>2015-10-27T11:47:28Z</time></trkpt><trkpt lat="43.103146" lon="-5.813686"><ele>474.118</ele><time>2015-10-27T11:47:43Z</time></trkpt><trkpt lat="43.103239" lon="-5.813651"><ele>470.277</ele><time>2015-10-27T11:47:57Z</time></trkpt><trkpt lat="43.103315" lon="-5.813646"><ele>467.832</ele><time>2015-10-27T11:48:14Z</time></trkpt><trkpt lat="43.103379" lon="-5.813624"><ele>465.493</ele><time>2015-10-27T11:48:29Z</time></trkpt><trkpt lat="43.103433" lon="-5.813592"><ele>462.595</ele><time>2015-10-27T11:48:45Z</time></trkpt><trkpt lat="43.103484" lon="-5.813540"><ele>459.213</ele><time>2015-10-27T11:49:00Z</time></trkpt><trkpt lat="43.103534" lon="-5.813510"><ele>458.216</ele><time>2015-10-27T11:49:14Z</time></trkpt><trkpt lat="43.103557" lon="-5.813549"><ele>457.276</ele><time>2015-10-27T11:49:31Z</time></trkpt><trkpt lat="43.103564" lon="-5.813535"><ele>455.813</ele><time>2015-10-27T11:49:52Z</time></trkpt><trkpt lat="43.103613" lon="-5.813500"><ele>453.408</ele><time>2015-10-27T11:50:09Z</time></trkpt><trkpt lat="43.103658" lon="-5.813499"><ele>452.022</ele><time>2015-10-27T11:50:27Z</time></trkpt><trkpt lat="43.103695" lon="-5.813485"><ele>450.072</ele><time>2015-10-27T11:50:44Z</time></trkpt><trkpt lat="43.103742" lon="-5.813493"><ele>448.125</ele><time>2015-10-27T11:51:00Z</time></trkpt><trkpt lat="43.103804" lon="-5.813492"><ele>444.824</ele><time>2015-10-27T11:51:14Z</time></trkpt><trkpt lat="43.103871" lon="-5.813526"><ele>442.819</ele><time>2015-10-27T11:51:30Z</time></trkpt><trkpt lat="43.103955" lon="-5.813579"><ele>439.990</ele><time>2015-10-27T11:51:50Z</time></trkpt><trkpt lat="43.104017" lon="-5.813663"><ele>436.632</ele><time>2015-10-27T11:52:07Z</time></trkpt><trkpt lat="43.104051" lon="-5.813780"><ele>434.270</ele><time>2015-10-27T11:52:25Z</time></trkpt><trkpt lat="43.104107" lon="-5.813845"><ele>430.882</ele><time>2015-10-27T11:52:43Z</time></trkpt><trkpt lat="43.104142" lon="-5.813822"><ele>428.943</ele><time>2015-10-27T11:52:57Z</time></trkpt><trkpt lat="43.104223" lon="-5.813754"><ele>426.017</ele><time>2015-10-27T11:53:11Z</time></trkpt><trkpt lat="43.104279" lon="-5.813858"><ele>425.008</ele><time>2015-10-27T11:53:27Z</time></trkpt><trkpt lat="43.104330" lon="-5.813999"><ele>422.659</ele><time>2015-10-27T11:53:41Z</time></trkpt><trkpt lat="43.104364" lon="-5.814133"><ele>420.739</ele><time>2015-10-27T11:53:49Z</time></trkpt><trkpt lat="43.104432" lon="-5.814387"><ele>417.812</ele><time>2015-10-27T11:54:06Z</time></trkpt><trkpt lat="43.104468" lon="-5.814585"><ele>415.081</ele><time>2015-10-27T11:54:21Z</time></trkpt><trkpt lat="43.104510" lon="-5.814809"><ele>411.156</ele><time>2015-10-27T11:54:39Z</time></trkpt><trkpt lat="43.104577" lon="-5.814934"><ele>409.287</ele><time>2015-10-27T11:54:52Z</time></trkpt><trkpt lat="43.104668" lon="-5.815050"><ele>407.379</ele><time>2015-10-27T11:55:07Z</time></trkpt><trkpt lat="43.104690" lon="-5.815282"><ele>406.317</ele><time>2015-10-27T11:55:22Z</time></trkpt><trkpt lat="43.104673" lon="-5.815399"><ele>405.838</ele><time>2015-10-27T11:55:31Z</time></trkpt><trkpt lat="43.104668" lon="-5.815436"><ele>405.370</ele><time>2015-10-27T11:55:34Z</time></trkpt><trkpt lat="43.104640" lon="-5.815615"><ele>405.317</ele><time>2015-10-27T11:55:48Z</time></trkpt><trkpt lat="43.104634" lon="-5.815815"><ele>405.308</ele><time>2015-10-27T11:56:03Z</time></trkpt><trkpt lat="43.104661" lon="-5.816012"><ele>404.414</ele><time>2015-10-27T11:56:19Z</time></trkpt><trkpt lat="43.104702" lon="-5.816221"><ele>403.984</ele><time>2015-10-27T11:56:34Z</time></trkpt><trkpt lat="43.104696" lon="-5.816273"><ele>403.437</ele><time>2015-10-27T11:56:39Z</time></trkpt><trkpt lat="43.104695" lon="-5.816313"><ele>403.456</ele><time>2015-10-27T11:56:43Z</time></trkpt><trkpt lat="43.104708" lon="-5.816500"><ele>402.971</ele><time>2015-10-27T11:56:59Z</time></trkpt><trkpt lat="43.104696" lon="-5.816644"><ele>402.932</ele><time>2015-10-27T11:57:12Z</time></trkpt><trkpt lat="43.104827" lon="-5.816693"><ele>402.084</ele><time>2015-10-27T11:57:24Z</time></trkpt><trkpt lat="43.104862" lon="-5.816625"><ele>401.532</ele><time>2015-10-27T11:57:31Z</time></trkpt><trkpt lat="43.104913" lon="-5.816570"><ele>400.035</ele><time>2015-10-27T11:57:36Z</time></trkpt><trkpt lat="43.104998" lon="-5.816691"><ele>400.086</ele><time>2015-10-27T11:57:50Z</time></trkpt><trkpt lat="43.104990" lon="-5.816665"><ele>400.014</ele><time>2015-10-27T11:57:53Z</time></trkpt><trkpt lat="43.104944" lon="-5.816601"><ele>400.008</ele><time>2015-10-27T11:58:01Z</time></trkpt><trkpt lat="43.104929" lon="-5.816464"><ele>399.624</ele><time>2015-10-27T11:58:18Z</time></trkpt><trkpt lat="43.104900" lon="-5.816371"><ele>399.624</ele><time>2015-10-27T11:58:33Z</time></trkpt><trkpt lat="43.104853" lon="-5.816257"><ele>399.637</ele><time>2015-10-27T11:58:48Z</time></trkpt><trkpt lat="43.104911" lon="-5.816195"><ele>400.576</ele><time>2015-10-27T11:59:03Z</time></trkpt><trkpt lat="43.104918" lon="-5.816202"><ele>400.551</ele><time>2015-10-27T11:59:21Z</time></trkpt><trkpt lat="43.104960" lon="-5.816313"><ele>400.592</ele><time>2015-10-27T11:59:30Z</time></trkpt><trkpt lat="43.104978" lon="-5.816403"><ele>400.564</ele><time>2015-10-27T11:59:36Z</time></trkpt><trkpt lat="43.105003" lon="-5.816450"><ele>400.522</ele><time>2015-10-27T11:59:41Z</time></trkpt><trkpt lat="43.105096" lon="-5.816657"><ele>398.617</ele><time>2015-10-27T11:59:56Z</time></trkpt><trkpt lat="43.105201" lon="-5.816929"><ele>398.687</ele><time>2015-10-27T12:00:14Z</time></trkpt><trkpt lat="43.105330" lon="-5.817151"><ele>398.115</ele><time>2015-10-27T12:00:32Z</time></trkpt><trkpt lat="43.105468" lon="-5.817316"><ele>397.208</ele><time>2015-10-27T12:00:48Z</time></trkpt><trkpt lat="43.105592" lon="-5.817461"><ele>396.772</ele><time>2015-10-27T12:01:01Z</time></trkpt><trkpt lat="43.105739" lon="-5.817648"><ele>396.292</ele><time>2015-10-27T12:01:18Z</time></trkpt><trkpt lat="43.105838" lon="-5.817790"><ele>396.255</ele><time>2015-10-27T12:01:32Z</time></trkpt><trkpt lat="43.105915" lon="-5.817924"><ele>396.244</ele><time>2015-10-27T12:01:47Z</time></trkpt><trkpt lat="43.105939" lon="-5.817945"><ele>396.239</ele><time>2015-10-27T12:01:51Z</time></trkpt><trkpt lat="43.105989" lon="-5.817992"><ele>395.750</ele><time>2015-10-27T12:02:07Z</time></trkpt><trkpt lat="43.105992" lon="-5.817952"><ele>395.222</ele><time>2015-10-27T12:02:22Z</time></trkpt><trkpt lat="43.106040" lon="-5.817878"><ele>395.260</ele><time>2015-10-27T12:02:28Z</time></trkpt><trkpt lat="43.106106" lon="-5.817799"><ele>394.812</ele><time>2015-10-27T12:02:35Z</time></trkpt><trkpt lat="43.106175" lon="-5.817789"><ele>394.332</ele><time>2015-10-27T12:02:45Z</time></trkpt><trkpt lat="43.106279" lon="-5.817604"><ele>394.305</ele><time>2015-10-27T12:03:01Z</time></trkpt><trkpt lat="43.106423" lon="-5.817405"><ele>394.308</ele><time>2015-10-27T12:03:19Z</time></trkpt><trkpt lat="43.106570" lon="-5.817171"><ele>394.352</ele><time>2015-10-27T12:03:38Z</time></trkpt><trkpt lat="43.106710" lon="-5.816984"><ele>394.372</ele><time>2015-10-27T12:03:54Z</time></trkpt><trkpt lat="43.106883" lon="-5.816788"><ele>395.235</ele><time>2015-10-27T12:04:12Z</time></trkpt><trkpt lat="43.107012" lon="-5.816605"><ele>395.244</ele><time>2015-10-27T12:04:28Z</time></trkpt><trkpt lat="43.107162" lon="-5.816454"><ele>395.229</ele><time>2015-10-27T12:04:44Z</time></trkpt><trkpt lat="43.107174" lon="-5.816522"><ele>393.810</ele><time>2015-10-27T12:04:51Z</time></trkpt><trkpt lat="43.107173" lon="-5.816547"><ele>393.352</ele><time>2015-10-27T12:04:53Z</time></trkpt><trkpt lat="43.107199" lon="-5.816672"><ele>391.990</ele><time>2015-10-27T12:05:02Z</time></trkpt><trkpt lat="43.107335" lon="-5.816851"><ele>389.558</ele><time>2015-10-27T12:05:18Z</time></trkpt><trkpt lat="43.107471" lon="-5.817113"><ele>387.152</ele><time>2015-10-27T12:05:36Z</time></trkpt><trkpt lat="43.107606" lon="-5.817330"><ele>387.117</ele><time>2015-10-27T12:05:53Z</time></trkpt><trkpt lat="43.107705" lon="-5.817550"><ele>386.608</ele><time>2015-10-27T12:06:08Z</time></trkpt><trkpt lat="43.107857" lon="-5.817820"><ele>386.176</ele><time>2015-10-27T12:06:27Z</time></trkpt><trkpt lat="43.108034" lon="-5.817910"><ele>385.696</ele><time>2015-10-27T12:06:45Z</time></trkpt><trkpt lat="43.108243" lon="-5.817808"><ele>384.799</ele><time>2015-10-27T12:07:03Z</time></trkpt><trkpt lat="43.108467" lon="-5.817662"><ele>384.738</ele><time>2015-10-27T12:07:22Z</time></trkpt><trkpt lat="43.108695" lon="-5.817594"><ele>384.733</ele><time>2015-10-27T12:07:40Z</time></trkpt><trkpt lat="43.108905" lon="-5.817557"><ele>383.794</ele><time>2015-10-27T12:07:57Z</time></trkpt><trkpt lat="43.109146" lon="-5.817541"><ele>383.756</ele><time>2015-10-27T12:08:16Z</time></trkpt><trkpt lat="43.109383" lon="-5.817561"><ele>383.234</ele><time>2015-10-27T12:08:36Z</time></trkpt><trkpt lat="43.109585" lon="-5.817602"><ele>382.377</ele><time>2015-10-27T12:08:54Z</time></trkpt><trkpt lat="43.109753" lon="-5.817660"><ele>381.361</ele><time>2015-10-27T12:09:12Z</time></trkpt><trkpt lat="43.109790" lon="-5.817682"><ele>381.327</ele><time>2015-10-27T12:09:27Z</time></trkpt><trkpt lat="43.109818" lon="-5.817744"><ele>381.308</ele><time>2015-10-27T12:10:04Z</time></trkpt><trkpt lat="43.109826" lon="-5.817762"><ele>381.388</ele><time>2015-10-27T12:10:27Z</time></trkpt><trkpt lat="43.109849" lon="-5.817748"><ele>380.838</ele><time>2015-10-27T12:10:58Z</time></trkpt><trkpt lat="43.109873" lon="-5.817760"><ele>380.891</ele><time>2015-10-27T12:11:01Z</time></trkpt><trkpt lat="43.110097" lon="-5.817811"><ele>382.360</ele><time>2015-10-27T12:11:20Z</time></trkpt><trkpt lat="43.110330" lon="-5.817839"><ele>381.855</ele><time>2015-10-27T12:11:39Z</time></trkpt><trkpt lat="43.110564" lon="-5.817885"><ele>380.836</ele><time>2015-10-27T12:11:58Z</time></trkpt><trkpt lat="43.110811" lon="-5.817965"><ele>379.938</ele><time>2015-10-27T12:12:17Z</time></trkpt><trkpt lat="43.111054" lon="-5.818013"><ele>379.486</ele><time>2015-10-27T12:12:36Z</time></trkpt><trkpt lat="43.111307" lon="-5.818050"><ele>378.956</ele><time>2015-10-27T12:12:55Z</time></trkpt><trkpt lat="43.111575" lon="-5.818083"><ele>378.459</ele><time>2015-10-27T12:13:16Z</time></trkpt><trkpt lat="43.111828" lon="-5.818153"><ele>378.414</ele><time>2015-10-27T12:13:36Z</time></trkpt><trkpt lat="43.112089" lon="-5.818234"><ele>377.508</ele><time>2015-10-27T12:13:56Z</time></trkpt><trkpt lat="43.112322" lon="-5.818249"><ele>377.586</ele><time>2015-10-27T12:14:14Z</time></trkpt><trkpt lat="43.112576" lon="-5.818266"><ele>377.576</ele><time>2015-10-27T12:14:33Z</time></trkpt><trkpt lat="43.112808" lon="-5.818242"><ele>377.589</ele><time>2015-10-27T12:14:51Z</time></trkpt><trkpt lat="43.113091" lon="-5.818204"><ele>379.988</ele><time>2015-10-27T12:15:13Z</time></trkpt><trkpt lat="43.113300" lon="-5.818177"><ele>381.353</ele><time>2015-10-27T12:15:30Z</time></trkpt><trkpt lat="43.113503" lon="-5.818098"><ele>382.724</ele><time>2015-10-27T12:15:49Z</time></trkpt><trkpt lat="43.113644" lon="-5.818037"><ele>384.266</ele><time>2015-10-27T12:16:03Z</time></trkpt><trkpt lat="43.113734" lon="-5.817946"><ele>385.624</ele><time>2015-10-27T12:16:13Z</time></trkpt><trkpt lat="43.113896" lon="-5.817790"><ele>387.543</ele><time>2015-10-27T12:16:29Z</time></trkpt><trkpt lat="43.114127" lon="-5.817653"><ele>388.564</ele><time>2015-10-27T12:16:48Z</time></trkpt><trkpt lat="43.114333" lon="-5.817557"><ele>390.910</ele><time>2015-10-27T12:17:08Z</time></trkpt><trkpt lat="43.114520" lon="-5.817373"><ele>393.308</ele><time>2015-10-27T12:17:27Z</time></trkpt><trkpt lat="43.114705" lon="-5.817184"><ele>393.365</ele><time>2015-10-27T12:17:44Z</time></trkpt><trkpt lat="43.114887" lon="-5.816998"><ele>393.365</ele><time>2015-10-27T12:18:02Z</time></trkpt><trkpt lat="43.114988" lon="-5.816898"><ele>393.348</ele><time>2015-10-27T12:18:12Z</time></trkpt><trkpt lat="43.115147" lon="-5.816728"><ele>392.897</ele><time>2015-10-27T12:18:28Z</time></trkpt><trkpt lat="43.115304" lon="-5.816629"><ele>392.842</ele><time>2015-10-27T12:18:44Z</time></trkpt><trkpt lat="43.115484" lon="-5.816499"><ele>393.323</ele><time>2015-10-27T12:18:58Z</time></trkpt><trkpt lat="43.115531" lon="-5.816441"><ele>393.895</ele><time>2015-10-27T12:19:03Z</time></trkpt><trkpt lat="43.115746" lon="-5.816284"><ele>394.353</ele><time>2015-10-27T12:19:20Z</time></trkpt><trkpt lat="43.115975" lon="-5.816181"><ele>394.853</ele><time>2015-10-27T12:19:36Z</time></trkpt><trkpt lat="43.116160" lon="-5.816072"><ele>394.304</ele><time>2015-10-27T12:19:52Z</time></trkpt><trkpt lat="43.116365" lon="-5.815958"><ele>393.314</ele><time>2015-10-27T12:20:09Z</time></trkpt><trkpt lat="43.116592" lon="-5.815914"><ele>390.008</ele><time>2015-10-27T12:20:26Z</time></trkpt><trkpt lat="43.116717" lon="-5.815885"><ele>388.516</ele><time>2015-10-27T12:20:37Z</time></trkpt><trkpt lat="43.116874" lon="-5.815776"><ele>384.746</ele><time>2015-10-27T12:20:51Z</time></trkpt><trkpt lat="43.117072" lon="-5.815693"><ele>381.859</ele><time>2015-10-27T12:21:07Z</time></trkpt><trkpt lat="43.117234" lon="-5.815581"><ele>378.938</ele><time>2015-10-27T12:21:22Z</time></trkpt><trkpt lat="43.117349" lon="-5.815527"><ele>377.513</ele><time>2015-10-27T12:21:31Z</time></trkpt><trkpt lat="43.117433" lon="-5.815510"><ele>376.044</ele><time>2015-10-27T12:21:38Z</time></trkpt><trkpt lat="43.117614" lon="-5.815469"><ele>374.646</ele><time>2015-10-27T12:21:52Z</time></trkpt><trkpt lat="43.117832" lon="-5.815532"><ele>372.654</ele><time>2015-10-27T12:22:09Z</time></trkpt><trkpt lat="43.117982" lon="-5.815572"><ele>372.243</ele><time>2015-10-27T12:22:22Z</time></trkpt><trkpt lat="43.118182" lon="-5.815574"><ele>371.764</ele><time>2015-10-27T12:22:39Z</time></trkpt><trkpt lat="43.118335" lon="-5.815612"><ele>371.710</ele><time>2015-10-27T12:22:53Z</time></trkpt><trkpt lat="43.118499" lon="-5.815642"><ele>371.708</ele><time>2015-10-27T12:23:08Z</time></trkpt><trkpt lat="43.118607" lon="-5.815673"><ele>373.125</ele><time>2015-10-27T12:23:18Z</time></trkpt><trkpt lat="43.118814" lon="-5.815695"><ele>373.685</ele><time>2015-10-27T12:23:35Z</time></trkpt><trkpt lat="43.118999" lon="-5.815680"><ele>372.238</ele><time>2015-10-27T12:23:49Z</time></trkpt><trkpt lat="43.119189" lon="-5.815644"><ele>371.297</ele><time>2015-10-27T12:24:04Z</time></trkpt><trkpt lat="43.119415" lon="-5.815563"><ele>371.252</ele><time>2015-10-27T12:24:23Z</time></trkpt><trkpt lat="43.119634" lon="-5.815541"><ele>371.263</ele><time>2015-10-27T12:24:39Z</time></trkpt><trkpt lat="43.119842" lon="-5.815528"><ele>370.775</ele><time>2015-10-27T12:24:54Z</time></trkpt><trkpt lat="43.120030" lon="-5.815552"><ele>370.723</ele><time>2015-10-27T12:25:08Z</time></trkpt><trkpt lat="43.120245" lon="-5.815554"><ele>372.261</ele><time>2015-10-27T12:25:25Z</time></trkpt><trkpt lat="43.120501" lon="-5.815594"><ele>373.621</ele><time>2015-10-27T12:25:45Z</time></trkpt><trkpt lat="43.120701" lon="-5.815638"><ele>374.113</ele><time>2015-10-27T12:26:02Z</time></trkpt><trkpt lat="43.120931" lon="-5.815699"><ele>374.608</ele><time>2015-10-27T12:26:22Z</time></trkpt><trkpt lat="43.121139" lon="-5.815770"><ele>374.627</ele><time>2015-10-27T12:26:39Z</time></trkpt><trkpt lat="43.121360" lon="-5.815853"><ele>371.717</ele><time>2015-10-27T12:26:56Z</time></trkpt><trkpt lat="43.121409" lon="-5.815868"><ele>371.770</ele><time>2015-10-27T12:27:00Z</time></trkpt><trkpt lat="43.121637" lon="-5.815945"><ele>370.739</ele><time>2015-10-27T12:27:17Z</time></trkpt><trkpt lat="43.121893" lon="-5.815993"><ele>370.244</ele><time>2015-10-27T12:27:37Z</time></trkpt><trkpt lat="43.121920" lon="-5.815999"><ele>370.235</ele><time>2015-10-27T12:27:39Z</time></trkpt><trkpt lat="43.122125" lon="-5.816032"><ele>369.857</ele><time>2015-10-27T12:27:55Z</time></trkpt><trkpt lat="43.122216" lon="-5.816039"><ele>369.865</ele><time>2015-10-27T12:28:02Z</time></trkpt><trkpt lat="43.122294" lon="-5.816038"><ele>369.819</ele><time>2015-10-27T12:28:08Z</time></trkpt><trkpt lat="43.122483" lon="-5.816065"><ele>371.209</ele><time>2015-10-27T12:28:25Z</time></trkpt><trkpt lat="43.122490" lon="-5.816067"><ele>371.219</ele><time>2015-10-27T12:28:26Z</time></trkpt><trkpt lat="43.122540" lon="-5.816071"><ele>371.708</ele><time>2015-10-27T12:28:31Z</time></trkpt><trkpt lat="43.122674" lon="-5.816074"><ele>372.642</ele><time>2015-10-27T12:28:41Z</time></trkpt><trkpt lat="43.122733" lon="-5.816067"><ele>372.682</ele><time>2015-10-27T12:28:45Z</time></trkpt><trkpt lat="43.122978" lon="-5.816021"><ele>373.645</ele><time>2015-10-27T12:29:02Z</time></trkpt><trkpt lat="43.123197" lon="-5.815968"><ele>373.194</ele><time>2015-10-27T12:29:19Z</time></trkpt><trkpt lat="43.123400" lon="-5.815927"><ele>371.249</ele><time>2015-10-27T12:29:36Z</time></trkpt><trkpt lat="43.123628" lon="-5.815834"><ele>369.370</ele><time>2015-10-27T12:29:54Z</time></trkpt><trkpt lat="43.123862" lon="-5.815736"><ele>367.462</ele><time>2015-10-27T12:30:13Z</time></trkpt><trkpt lat="43.124079" lon="-5.815635"><ele>366.450</ele><time>2015-10-27T12:30:31Z</time></trkpt><trkpt lat="43.124278" lon="-5.815575"><ele>365.956</ele><time>2015-10-27T12:30:47Z</time></trkpt><trkpt lat="43.124488" lon="-5.815473"><ele>365.959</ele><time>2015-10-27T12:31:04Z</time></trkpt><trkpt lat="43.124705" lon="-5.815381"><ele>365.414</ele><time>2015-10-27T12:31:21Z</time></trkpt><trkpt lat="43.124936" lon="-5.815302"><ele>365.408</ele><time>2015-10-27T12:31:39Z</time></trkpt><trkpt lat="43.125124" lon="-5.815273"><ele>365.976</ele><time>2015-10-27T12:31:53Z</time></trkpt><trkpt lat="43.125316" lon="-5.815207"><ele>365.446</ele><time>2015-10-27T12:32:08Z</time></trkpt><trkpt lat="43.125333" lon="-5.815184"><ele>367.499</ele><time>2015-10-27T12:32:10Z</time></trkpt><trkpt lat="43.125346" lon="-5.815171"><ele>364.088</ele><time>2015-10-27T12:32:11Z</time></trkpt><trkpt lat="43.125366" lon="-5.815152"><ele>364.023</ele><time>2015-10-27T12:32:13Z</time></trkpt><trkpt lat="43.125487" lon="-5.815075"><ele>364.074</ele><time>2015-10-27T12:32:24Z</time></trkpt><trkpt lat="43.125731" lon="-5.815066"><ele>363.586</ele><time>2015-10-27T12:32:45Z</time></trkpt><trkpt lat="43.125977" lon="-5.815134"><ele>363.574</ele><time>2015-10-27T12:33:05Z</time></trkpt><trkpt lat="43.126106" lon="-5.815082"><ele>363.556</ele><time>2015-10-27T12:33:18Z</time></trkpt><trkpt lat="43.126169" lon="-5.815020"><ele>363.559</ele><time>2015-10-27T12:33:25Z</time></trkpt><trkpt lat="43.126225" lon="-5.814882"><ele>363.514</ele><time>2015-10-27T12:33:40Z</time></trkpt><trkpt lat="43.126165" lon="-5.814727"><ele>365.008</ele><time>2015-10-27T12:33:55Z</time></trkpt><trkpt lat="43.126158" lon="-5.814709"><ele>365.096</ele><time>2015-10-27T12:33:57Z</time></trkpt><trkpt lat="43.126165" lon="-5.814610"><ele>365.426</ele><time>2015-10-27T12:34:06Z</time></trkpt><trkpt lat="43.126190" lon="-5.814414"><ele>366.479</ele><time>2015-10-27T12:34:21Z</time></trkpt><trkpt lat="43.126245" lon="-5.814380"><ele>368.398</ele><time>2015-10-27T12:34:36Z</time></trkpt><trkpt lat="43.126340" lon="-5.814410"><ele>370.753</ele><time>2015-10-27T12:34:50Z</time></trkpt><trkpt lat="43.126348" lon="-5.814405"><ele>370.764</ele><time>2015-10-27T12:34:51Z</time></trkpt><trkpt lat="43.126464" lon="-5.814397"><ele>373.116</ele><time>2015-10-27T12:35:06Z</time></trkpt><trkpt lat="43.126536" lon="-5.814373"><ele>376.084</ele><time>2015-10-27T12:35:21Z</time></trkpt><trkpt lat="43.126620" lon="-5.814445"><ele>378.926</ele><time>2015-10-27T12:35:36Z</time></trkpt><trkpt lat="43.126682" lon="-5.814434"><ele>381.847</ele><time>2015-10-27T12:35:52Z</time></trkpt><trkpt lat="43.126734" lon="-5.814381"><ele>383.711</ele><time>2015-10-27T12:36:09Z</time></trkpt><trkpt lat="43.126805" lon="-5.814362"><ele>385.108</ele><time>2015-10-27T12:36:24Z</time></trkpt><trkpt lat="43.126832" lon="-5.814458"><ele>387.573</ele><time>2015-10-27T12:36:38Z</time></trkpt><trkpt lat="43.126847" lon="-5.814510"><ele>390.953</ele><time>2015-10-27T12:36:56Z</time></trkpt><trkpt lat="43.126880" lon="-5.814585"><ele>393.346</ele><time>2015-10-27T12:37:12Z</time></trkpt><trkpt lat="43.126961" lon="-5.814633"><ele>395.725</ele><time>2015-10-27T12:37:28Z</time></trkpt><trkpt lat="43.127028" lon="-5.814660"><ele>397.260</ele><time>2015-10-27T12:37:48Z</time></trkpt><trkpt lat="43.127082" lon="-5.814632"><ele>400.591</ele><time>2015-10-27T12:38:03Z</time></trkpt><trkpt lat="43.127136" lon="-5.814657"><ele>402.523</ele><time>2015-10-27T12:38:17Z</time></trkpt><trkpt lat="43.127214" lon="-5.814649"><ele>404.911</ele><time>2015-10-27T12:38:32Z</time></trkpt><trkpt lat="43.127297" lon="-5.814608"><ele>405.398</ele><time>2015-10-27T12:38:49Z</time></trkpt><trkpt lat="43.127367" lon="-5.814570"><ele>407.715</ele><time>2015-10-27T12:39:06Z</time></trkpt><trkpt lat="43.127407" lon="-5.814450"><ele>409.726</ele><time>2015-10-27T12:39:21Z</time></trkpt><trkpt lat="43.127480" lon="-5.814314"><ele>411.608</ele><time>2015-10-27T12:39:37Z</time></trkpt><trkpt lat="43.127487" lon="-5.814309"><ele>409.720</ele><time>2015-10-27T12:39:40Z</time></trkpt><trkpt lat="43.127499" lon="-5.814290"><ele>411.630</ele><time>2015-10-27T12:39:44Z</time></trkpt><trkpt lat="43.127476" lon="-5.814234"><ele>413.513</ele><time>2015-10-27T12:39:58Z</time></trkpt><trkpt lat="43.127399" lon="-5.814269"><ele>413.552</ele><time>2015-10-27T12:40:12Z</time></trkpt><trkpt lat="43.127360" lon="-5.814279"><ele>412.137</ele><time>2015-10-27T12:40:18Z</time></trkpt><trkpt lat="43.127304" lon="-5.814327"><ele>412.548</ele><time>2015-10-27T12:40:27Z</time></trkpt><trkpt lat="43.127260" lon="-5.814429"><ele>412.540</ele><time>2015-10-27T12:40:40Z</time></trkpt><trkpt lat="43.127236" lon="-5.814391"><ele>413.098</ele><time>2015-10-27T12:40:54Z</time></trkpt><trkpt lat="43.127241" lon="-5.814439"><ele>413.076</ele><time>2015-10-27T12:41:13Z</time></trkpt><trkpt lat="43.127289" lon="-5.814453"><ele>413.090</ele><time>2015-10-27T12:41:28Z</time></trkpt><trkpt lat="43.127279" lon="-5.814485"><ele>411.619</ele><time>2015-10-27T12:41:44Z</time></trkpt><trkpt lat="43.127262" lon="-5.814475"><ele>411.608</ele><time>2015-10-27T12:42:04Z</time></trkpt><trkpt lat="43.127337" lon="-5.814392"><ele>411.668</ele><time>2015-10-27T12:42:18Z</time></trkpt><trkpt lat="43.127398" lon="-5.814341"><ele>411.698</ele><time>2015-10-27T12:42:33Z</time></trkpt><trkpt lat="43.127436" lon="-5.814269"><ele>412.561</ele><time>2015-10-27T12:42:43Z</time></trkpt><trkpt lat="43.127463" lon="-5.814244"><ele>411.170</ele><time>2015-10-27T12:42:46Z</time></trkpt><trkpt lat="43.127523" lon="-5.814200"><ele>410.195</ele><time>2015-10-27T12:42:52Z</time></trkpt><trkpt lat="43.127572" lon="-5.814148"><ele>411.136</ele><time>2015-10-27T12:42:58Z</time></trkpt><trkpt lat="43.127706" lon="-5.814010"><ele>411.178</ele><time>2015-10-27T12:43:13Z</time></trkpt><trkpt lat="43.127764" lon="-5.814009"><ele>411.166</ele><time>2015-10-27T12:43:19Z</time></trkpt><trkpt lat="43.127866" lon="-5.814084"><ele>409.785</ele><time>2015-10-27T12:43:33Z</time></trkpt><trkpt lat="43.127958" lon="-5.814229"><ele>407.389</ele><time>2015-10-27T12:43:47Z</time></trkpt><trkpt lat="43.128048" lon="-5.814321"><ele>404.417</ele><time>2015-10-27T12:44:03Z</time></trkpt><trkpt lat="43.128176" lon="-5.814417"><ele>402.008</ele><time>2015-10-27T12:44:19Z</time></trkpt><trkpt lat="43.128279" lon="-5.814469"><ele>398.699</ele><time>2015-10-27T12:44:33Z</time></trkpt><trkpt lat="43.128384" lon="-5.814456"><ele>395.769</ele><time>2015-10-27T12:44:48Z</time></trkpt><trkpt lat="43.128498" lon="-5.814480"><ele>393.382</ele><time>2015-10-27T12:45:04Z</time></trkpt><trkpt lat="43.128607" lon="-5.814497"><ele>390.471</ele><time>2015-10-27T12:45:18Z</time></trkpt><trkpt lat="43.128738" lon="-5.814505"><ele>387.576</ele><time>2015-10-27T12:45:33Z</time></trkpt><trkpt lat="43.128886" lon="-5.814523"><ele>385.197</ele><time>2015-10-27T12:45:49Z</time></trkpt><trkpt lat="43.129018" lon="-5.814591"><ele>383.259</ele><time>2015-10-27T12:46:03Z</time></trkpt><trkpt lat="43.129079" lon="-5.814583"><ele>383.267</ele><time>2015-10-27T12:46:10Z</time></trkpt><trkpt lat="43.129273" lon="-5.814514"><ele>382.755</ele><time>2015-10-27T12:46:25Z</time></trkpt><trkpt lat="43.129442" lon="-5.814435"><ele>382.307</ele><time>2015-10-27T12:46:39Z</time></trkpt><trkpt lat="43.129581" lon="-5.814445"><ele>381.817</ele><time>2015-10-27T12:46:53Z</time></trkpt><trkpt lat="43.129597" lon="-5.814455"><ele>381.808</ele><time>2015-10-27T12:46:55Z</time></trkpt><trkpt lat="43.129626" lon="-5.814459"><ele>381.846</ele><time>2015-10-27T12:46:57Z</time></trkpt><trkpt lat="43.129773" lon="-5.814596"><ele>379.996</ele><time>2015-10-27T12:47:12Z</time></trkpt><trkpt lat="43.129831" lon="-5.814660"><ele>377.039</ele><time>2015-10-27T12:47:25Z</time></trkpt><trkpt lat="43.129919" lon="-5.814781"><ele>374.678</ele><time>2015-10-27T12:47:39Z</time></trkpt><trkpt lat="43.129962" lon="-5.814840"><ele>373.113</ele><time>2015-10-27T12:47:54Z</time></trkpt><trkpt lat="43.130031" lon="-5.814944"><ele>369.864</ele><time>2015-10-27T12:48:11Z</time></trkpt><trkpt lat="43.130032" lon="-5.815089"><ele>366.956</ele><time>2015-10-27T12:48:25Z</time></trkpt><trkpt lat="43.129989" lon="-5.815267"><ele>363.594</ele><time>2015-10-27T12:48:38Z</time></trkpt><trkpt lat="43.130003" lon="-5.815362"><ele>363.057</ele><time>2015-10-27T12:48:46Z</time></trkpt><trkpt lat="43.130026" lon="-5.815461"><ele>363.000</ele><time>2015-10-27T12:48:51Z</time></trkpt><trkpt lat="43.130196" lon="-5.815541"><ele>361.120</ele><time>2015-10-27T12:49:08Z</time></trkpt><trkpt lat="43.130218" lon="-5.815547"><ele>361.108</ele><time>2015-10-27T12:49:10Z</time></trkpt><trkpt lat="43.130273" lon="-5.815567"><ele>360.616</ele><time>2015-10-27T12:49:15Z</time></trkpt><trkpt lat="43.130394" lon="-5.815700"><ele>360.196</ele><time>2015-10-27T12:49:28Z</time></trkpt><trkpt lat="43.130543" lon="-5.815822"><ele>360.659</ele><time>2015-10-27T12:49:43Z</time></trkpt><trkpt lat="43.130562" lon="-5.815820"><ele>361.658</ele><time>2015-10-27T12:49:46Z</time></trkpt><trkpt lat="43.130646" lon="-5.815675"><ele>363.543</ele><time>2015-10-27T12:50:02Z</time></trkpt><trkpt lat="43.130651" lon="-5.815619"><ele>364.534</ele><time>2015-10-27T12:50:07Z</time></trkpt><trkpt lat="43.130747" lon="-5.815484"><ele>366.496</ele><time>2015-10-27T12:50:22Z</time></trkpt><trkpt lat="43.130847" lon="-5.815510"><ele>368.814</ele><time>2015-10-27T12:50:38Z</time></trkpt><trkpt lat="43.130861" lon="-5.815697"><ele>369.885</ele><time>2015-10-27T12:50:55Z</time></trkpt><trkpt lat="43.130886" lon="-5.815918"><ele>373.189</ele><time>2015-10-27T12:51:13Z</time></trkpt><trkpt lat="43.130888" lon="-5.815962"><ele>373.117</ele><time>2015-10-27T12:51:17Z</time></trkpt><trkpt lat="43.130897" lon="-5.816028"><ele>373.608</ele><time>2015-10-27T12:51:21Z</time></trkpt><trkpt lat="43.131030" lon="-5.816210"><ele>374.199</ele><time>2015-10-27T12:51:37Z</time></trkpt><trkpt lat="43.131046" lon="-5.816227"><ele>374.169</ele><time>2015-10-27T12:51:39Z</time></trkpt><trkpt lat="43.131078" lon="-5.816246"><ele>372.632</ele><time>2015-10-27T12:51:42Z</time></trkpt><trkpt lat="43.131230" lon="-5.816364"><ele>372.241</ele><time>2015-10-27T12:51:57Z</time></trkpt><trkpt lat="43.131387" lon="-5.816486"><ele>371.216</ele><time>2015-10-27T12:52:13Z</time></trkpt><trkpt lat="43.131554" lon="-5.816626"><ele>370.717</ele><time>2015-10-27T12:52:29Z</time></trkpt><trkpt lat="43.131654" lon="-5.816750"><ele>369.829</ele><time>2015-10-27T12:52:42Z</time></trkpt><trkpt lat="43.131835" lon="-5.816888"><ele>368.877</ele><time>2015-10-27T12:52:58Z</time></trkpt><trkpt lat="43.131854" lon="-5.816906"><ele>368.834</ele><time>2015-10-27T12:53:00Z</time></trkpt><trkpt lat="43.131921" lon="-5.816915"><ele>368.355</ele><time>2015-10-27T12:53:08Z</time></trkpt><trkpt lat="43.131973" lon="-5.816897"><ele>368.310</ele><time>2015-10-27T12:53:14Z</time></trkpt><trkpt lat="43.132111" lon="-5.816822"><ele>368.308</ele><time>2015-10-27T12:53:30Z</time></trkpt><trkpt lat="43.132273" lon="-5.816744"><ele>368.344</ele><time>2015-10-27T12:53:44Z</time></trkpt><trkpt lat="43.132450" lon="-5.816715"><ele>369.814</ele><time>2015-10-27T12:53:59Z</time></trkpt><trkpt lat="43.132463" lon="-5.816717"><ele>369.877</ele><time>2015-10-27T12:54:00Z</time></trkpt><trkpt lat="43.132562" lon="-5.816758"><ele>369.886</ele><time>2015-10-27T12:54:07Z</time></trkpt><trkpt lat="43.132705" lon="-5.816850"><ele>370.731</ele><time>2015-10-27T12:54:20Z</time></trkpt><trkpt lat="43.132858" lon="-5.816953"><ele>372.292</ele><time>2015-10-27T12:54:35Z</time></trkpt><trkpt lat="43.133010" lon="-5.817050"><ele>373.614</ele><time>2015-10-27T12:54:50Z</time></trkpt><trkpt lat="43.133034" lon="-5.817089"><ele>373.642</ele><time>2015-10-27T12:54:53Z</time></trkpt><trkpt lat="43.133109" lon="-5.817224"><ele>372.266</ele><time>2015-10-27T12:55:02Z</time></trkpt><trkpt lat="43.133114" lon="-5.817233"><ele>372.229</ele><time>2015-10-27T12:55:03Z</time></trkpt><trkpt lat="43.133245" lon="-5.817408"><ele>371.221</ele><time>2015-10-27T12:55:19Z</time></trkpt><trkpt lat="43.133338" lon="-5.817536"><ele>370.708</ele><time>2015-10-27T12:55:30Z</time></trkpt><trkpt lat="43.133507" lon="-5.817716"><ele>369.887</ele><time>2015-10-27T12:55:48Z</time></trkpt><trkpt lat="43.133639" lon="-5.817864"><ele>369.377</ele><time>2015-10-27T12:56:03Z</time></trkpt><trkpt lat="43.133775" lon="-5.818055"><ele>367.420</ele><time>2015-10-27T12:56:19Z</time></trkpt><trkpt lat="43.133868" lon="-5.818170"><ele>366.469</ele><time>2015-10-27T12:56:30Z</time></trkpt><trkpt lat="43.133927" lon="-5.818232"><ele>365.424</ele><time>2015-10-27T12:56:36Z</time></trkpt><trkpt lat="43.134045" lon="-5.818371"><ele>365.025</ele><time>2015-10-27T12:56:50Z</time></trkpt><trkpt lat="43.134094" lon="-5.818393"><ele>364.547</ele><time>2015-10-27T12:56:55Z</time></trkpt><trkpt lat="43.134299" lon="-5.818442"><ele>364.525</ele><time>2015-10-27T12:57:14Z</time></trkpt><trkpt lat="43.134506" lon="-5.818433"><ele>363.552</ele><time>2015-10-27T12:57:32Z</time></trkpt><trkpt lat="43.134762" lon="-5.818417"><ele>362.553</ele><time>2015-10-27T12:57:52Z</time></trkpt><trkpt lat="43.134984" lon="-5.818428"><ele>362.108</ele><time>2015-10-27T12:58:10Z</time></trkpt><trkpt lat="43.135202" lon="-5.818499"><ele>360.608</ele><time>2015-10-27T12:58:27Z</time></trkpt><trkpt lat="43.135297" lon="-5.818533"><ele>360.136</ele><time>2015-10-27T12:58:35Z</time></trkpt><trkpt lat="43.135543" lon="-5.818637"><ele>359.776</ele><time>2015-10-27T12:58:54Z</time></trkpt><trkpt lat="43.135761" lon="-5.818742"><ele>359.269</ele><time>2015-10-27T12:59:12Z</time></trkpt><trkpt lat="43.135973" lon="-5.818901"><ele>358.738</ele><time>2015-10-27T12:59:27Z</time></trkpt><trkpt lat="43.136189" lon="-5.818979"><ele>359.263</ele><time>2015-10-27T12:59:45Z</time></trkpt><trkpt lat="43.136423" lon="-5.819074"><ele>356.854</ele><time>2015-10-27T13:00:03Z</time></trkpt><trkpt lat="43.136595" lon="-5.819135"><ele>355.866</ele><time>2015-10-27T13:00:18Z</time></trkpt><trkpt lat="43.136800" lon="-5.819261"><ele>355.354</ele><time>2015-10-27T13:00:36Z</time></trkpt><trkpt lat="43.136999" lon="-5.819398"><ele>354.479</ele><time>2015-10-27T13:00:52Z</time></trkpt><trkpt lat="43.137186" lon="-5.819549"><ele>353.405</ele><time>2015-10-27T13:01:09Z</time></trkpt><trkpt lat="43.137219" lon="-5.819577"><ele>353.425</ele><time>2015-10-27T13:01:12Z</time></trkpt><trkpt lat="43.137397" lon="-5.819766"><ele>352.008</ele><time>2015-10-27T13:01:29Z</time></trkpt><trkpt lat="43.137565" lon="-5.820000"><ele>351.528</ele><time>2015-10-27T13:01:47Z</time></trkpt><trkpt lat="43.137716" lon="-5.820195"><ele>351.078</ele><time>2015-10-27T13:02:03Z</time></trkpt><trkpt lat="43.137866" lon="-5.820372"><ele>350.171</ele><time>2015-10-27T13:02:18Z</time></trkpt><trkpt lat="43.138042" lon="-5.820589"><ele>349.640</ele><time>2015-10-27T13:02:36Z</time></trkpt><trkpt lat="43.138206" lon="-5.820815"><ele>349.675</ele><time>2015-10-27T13:02:55Z</time></trkpt><trkpt lat="43.138345" lon="-5.821061"><ele>349.666</ele><time>2015-10-27T13:03:12Z</time></trkpt><trkpt lat="43.138402" lon="-5.821192"><ele>350.518</ele><time>2015-10-27T13:03:21Z</time></trkpt><trkpt lat="43.138526" lon="-5.821466"><ele>350.526</ele><time>2015-10-27T13:03:39Z</time></trkpt><trkpt lat="43.138677" lon="-5.821672"><ele>350.577</ele><time>2015-10-27T13:03:56Z</time></trkpt><trkpt lat="43.138722" lon="-5.821721"><ele>349.161</ele><time>2015-10-27T13:04:01Z</time></trkpt><trkpt lat="43.138898" lon="-5.821932"><ele>347.627</ele><time>2015-10-27T13:04:19Z</time></trkpt><trkpt lat="43.139059" lon="-5.822145"><ele>346.208</ele><time>2015-10-27T13:04:36Z</time></trkpt><trkpt lat="43.139129" lon="-5.822249"><ele>345.758</ele><time>2015-10-27T13:04:44Z</time></trkpt><trkpt lat="43.139132" lon="-5.822374"><ele>345.298</ele><time>2015-10-27T13:04:51Z</time></trkpt><trkpt lat="43.139119" lon="-5.822405"><ele>344.891</ele><time>2015-10-27T13:04:53Z</time></trkpt><trkpt lat="43.139047" lon="-5.822590"><ele>344.350</ele><time>2015-10-27T13:05:06Z</time></trkpt><trkpt lat="43.138997" lon="-5.822701"><ele>343.345</ele><time>2015-10-27T13:05:14Z</time></trkpt><trkpt lat="43.138990" lon="-5.822769"><ele>344.876</ele><time>2015-10-27T13:05:18Z</time></trkpt><trkpt lat="43.138979" lon="-5.822826"><ele>343.338</ele><time>2015-10-27T13:05:22Z</time></trkpt><trkpt lat="43.138978" lon="-5.822971"><ele>342.916</ele><time>2015-10-27T13:05:32Z</time></trkpt><trkpt lat="43.139106" lon="-5.823082"><ele>342.966</ele><time>2015-10-27T13:05:50Z</time></trkpt><trkpt lat="43.139290" lon="-5.823242"><ele>340.929</ele><time>2015-10-27T13:06:08Z</time></trkpt><trkpt lat="43.139439" lon="-5.823446"><ele>339.521</ele><time>2015-10-27T13:06:24Z</time></trkpt><trkpt lat="43.139616" lon="-5.823584"><ele>337.608</ele><time>2015-10-27T13:06:41Z</time></trkpt><trkpt lat="43.139675" lon="-5.823640"><ele>337.677</ele><time>2015-10-27T13:06:47Z</time></trkpt><trkpt lat="43.139729" lon="-5.823679"><ele>337.677</ele><time>2015-10-27T13:06:52Z</time></trkpt><trkpt lat="43.139936" lon="-5.823816"><ele>336.190</ele><time>2015-10-27T13:07:11Z</time></trkpt><trkpt lat="43.140094" lon="-5.823909"><ele>335.629</ele><time>2015-10-27T13:07:26Z</time></trkpt><trkpt lat="43.140317" lon="-5.824008"><ele>335.684</ele><time>2015-10-27T13:07:44Z</time></trkpt><trkpt lat="43.140520" lon="-5.824070"><ele>334.785</ele><time>2015-10-27T13:08:00Z</time></trkpt><trkpt lat="43.140697" lon="-5.824141"><ele>334.257</ele><time>2015-10-27T13:08:14Z</time></trkpt><trkpt lat="43.140758" lon="-5.824156"><ele>334.255</ele><time>2015-10-27T13:08:19Z</time></trkpt><trkpt lat="43.140975" lon="-5.824207"><ele>334.254</ele><time>2015-10-27T13:08:38Z</time></trkpt><trkpt lat="43.141208" lon="-5.824230"><ele>334.256</ele><time>2015-10-27T13:08:56Z</time></trkpt><trkpt lat="43.141410" lon="-5.824237"><ele>334.211</ele><time>2015-10-27T13:09:12Z</time></trkpt><trkpt lat="43.141509" lon="-5.824236"><ele>334.208</ele><time>2015-10-27T13:09:19Z</time></trkpt><trkpt lat="43.141581" lon="-5.824277"><ele>334.276</ele><time>2015-10-27T13:09:23Z</time></trkpt><trkpt lat="43.141866" lon="-5.824309"><ele>333.726</ele><time>2015-10-27T13:09:42Z</time></trkpt><trkpt lat="43.142075" lon="-5.824188"><ele>332.889</ele><time>2015-10-27T13:10:01Z</time></trkpt><trkpt lat="43.142300" lon="-5.824128"><ele>332.898</ele><time>2015-10-27T13:10:20Z</time></trkpt><trkpt lat="43.142504" lon="-5.824075"><ele>332.893</ele><time>2015-10-27T13:10:36Z</time></trkpt><trkpt lat="43.142743" lon="-5.824019"><ele>332.374</ele><time>2015-10-27T13:10:55Z</time></trkpt><trkpt lat="43.142985" lon="-5.823963"><ele>332.316</ele><time>2015-10-27T13:11:13Z</time></trkpt><trkpt lat="43.143219" lon="-5.823908"><ele>332.314</ele><time>2015-10-27T13:11:32Z</time></trkpt><trkpt lat="43.143456" lon="-5.823875"><ele>331.879</ele><time>2015-10-27T13:11:51Z</time></trkpt><trkpt lat="43.143722" lon="-5.823828"><ele>331.305</ele><time>2015-10-27T13:12:11Z</time></trkpt><trkpt lat="43.143943" lon="-5.823803"><ele>330.825</ele><time>2015-10-27T13:12:27Z</time></trkpt><trkpt lat="43.144205" lon="-5.823764"><ele>330.808</ele><time>2015-10-27T13:12:46Z</time></trkpt><trkpt lat="43.144423" lon="-5.823744"><ele>330.488</ele><time>2015-10-27T13:13:03Z</time></trkpt><trkpt lat="43.144640" lon="-5.823711"><ele>330.428</ele><time>2015-10-27T13:13:20Z</time></trkpt><trkpt lat="43.144879" lon="-5.823681"><ele>330.411</ele><time>2015-10-27T13:13:38Z</time></trkpt><trkpt lat="43.145118" lon="-5.823654"><ele>329.930</ele><time>2015-10-27T13:13:56Z</time></trkpt><trkpt lat="43.145326" lon="-5.823622"><ele>329.985</ele><time>2015-10-27T13:14:13Z</time></trkpt><trkpt lat="43.145571" lon="-5.823589"><ele>329.416</ele><time>2015-10-27T13:14:32Z</time></trkpt><trkpt lat="43.145802" lon="-5.823537"><ele>329.458</ele><time>2015-10-27T13:14:50Z</time></trkpt><trkpt lat="43.145995" lon="-5.823408"><ele>328.996</ele><time>2015-10-27T13:15:08Z</time></trkpt><trkpt lat="43.146162" lon="-5.823274"><ele>328.996</ele><time>2015-10-27T13:15:22Z</time></trkpt><trkpt lat="43.146422" lon="-5.823155"><ele>328.931</ele><time>2015-10-27T13:15:43Z</time></trkpt><trkpt lat="43.146587" lon="-5.823115"><ele>328.024</ele><time>2015-10-27T13:15:57Z</time></trkpt><trkpt lat="43.146638" lon="-5.823149"><ele>329.908</ele><time>2015-10-27T13:16:01Z</time></trkpt><trkpt lat="43.146697" lon="-5.823114"><ele>328.020</ele><time>2015-10-27T13:16:06Z</time></trkpt><trkpt lat="43.146779" lon="-5.823084"><ele>329.490</ele><time>2015-10-27T13:16:14Z</time></trkpt><trkpt lat="43.147016" lon="-5.822965"><ele>328.093</ele><time>2015-10-27T13:16:35Z</time></trkpt><trkpt lat="43.147189" lon="-5.822785"><ele>328.042</ele><time>2015-10-27T13:16:54Z</time></trkpt><trkpt lat="43.147284" lon="-5.822595"><ele>327.587</ele><time>2015-10-27T13:17:07Z</time></trkpt><trkpt lat="43.147453" lon="-5.822472"><ele>327.588</ele><time>2015-10-27T13:17:24Z</time></trkpt><trkpt lat="43.147640" lon="-5.822425"><ele>327.070</ele><time>2015-10-27T13:17:40Z</time></trkpt><trkpt lat="43.147850" lon="-5.822509"><ele>327.028</ele><time>2015-10-27T13:17:57Z</time></trkpt><trkpt lat="43.148047" lon="-5.822759"><ele>327.094</ele><time>2015-10-27T13:18:16Z</time></trkpt><trkpt lat="43.148194" lon="-5.823045"><ele>327.057</ele><time>2015-10-27T13:18:35Z</time></trkpt><trkpt lat="43.148338" lon="-5.823262"><ele>325.522</ele><time>2015-10-27T13:18:53Z</time></trkpt><trkpt lat="43.148500" lon="-5.823349"><ele>324.608</ele><time>2015-10-27T13:19:09Z</time></trkpt><trkpt lat="43.148699" lon="-5.823441"><ele>324.610</ele><time>2015-10-27T13:19:26Z</time></trkpt><trkpt lat="43.148873" lon="-5.823517"><ele>324.180</ele><time>2015-10-27T13:19:42Z</time></trkpt><trkpt lat="43.148949" lon="-5.823555"><ele>324.173</ele><time>2015-10-27T13:19:49Z</time></trkpt><trkpt lat="43.149012" lon="-5.823584"><ele>324.142</ele><time>2015-10-27T13:19:54Z</time></trkpt><trkpt lat="43.149249" lon="-5.823703"><ele>324.177</ele><time>2015-10-27T13:20:14Z</time></trkpt><trkpt lat="43.149422" lon="-5.823850"><ele>324.198</ele><time>2015-10-27T13:20:30Z</time></trkpt><trkpt lat="43.149623" lon="-5.823931"><ele>325.140</ele><time>2015-10-27T13:20:48Z</time></trkpt><trkpt lat="43.149799" lon="-5.824014"><ele>323.668</ele><time>2015-10-27T13:21:04Z</time></trkpt><trkpt lat="43.150005" lon="-5.824094"><ele>322.719</ele><time>2015-10-27T13:21:21Z</time></trkpt><trkpt lat="43.150208" lon="-5.824156"><ele>322.209</ele><time>2015-10-27T13:21:39Z</time></trkpt><trkpt lat="43.150395" lon="-5.824234"><ele>321.219</ele><time>2015-10-27T13:21:55Z</time></trkpt><trkpt lat="43.150461" lon="-5.824273"><ele>321.208</ele><time>2015-10-27T13:22:00Z</time></trkpt><trkpt lat="43.150519" lon="-5.824446"><ele>320.312</ele><time>2015-10-27T13:22:08Z</time></trkpt><trkpt lat="43.150527" lon="-5.824415"><ele>320.342</ele><time>2015-10-27T13:22:22Z</time></trkpt><trkpt lat="43.150530" lon="-5.824415"><ele>320.315</ele><time>2015-10-27T13:22:23Z</time></trkpt><trkpt lat="43.150501" lon="-5.824881"><ele>321.734</ele><time>2015-10-27T13:22:37Z</time></trkpt><trkpt lat="43.150512" lon="-5.825034"><ele>322.289</ele><time>2015-10-27T13:22:47Z</time></trkpt><trkpt lat="43.150642" lon="-5.825140"><ele>322.240</ele><time>2015-10-27T13:23:03Z</time></trkpt><trkpt lat="43.150738" lon="-5.825352"><ele>323.152</ele><time>2015-10-27T13:23:20Z</time></trkpt><trkpt lat="43.150752" lon="-5.825387"><ele>323.160</ele><time>2015-10-27T13:23:22Z</time></trkpt><trkpt lat="43.150770" lon="-5.825491"><ele>323.624</ele><time>2015-10-27T13:23:28Z</time></trkpt><trkpt lat="43.150778" lon="-5.825688"><ele>324.104</ele><time>2015-10-27T13:23:42Z</time></trkpt><trkpt lat="43.150823" lon="-5.825703"><ele>325.114</ele><time>2015-10-27T13:23:55Z</time></trkpt><trkpt lat="43.150960" lon="-5.825607"><ele>323.608</ele><time>2015-10-27T13:24:12Z</time></trkpt><trkpt lat="43.151098" lon="-5.825546"><ele>323.143</ele><time>2015-10-27T13:24:26Z</time></trkpt><trkpt lat="43.151117" lon="-5.825528"><ele>323.143</ele><time>2015-10-27T13:24:28Z</time></trkpt><trkpt lat="43.151332" lon="-5.825443"><ele>322.296</ele><time>2015-10-27T13:24:47Z</time></trkpt><trkpt lat="43.151548" lon="-5.825413"><ele>322.225</ele><time>2015-10-27T13:25:05Z</time></trkpt><trkpt lat="43.151623" lon="-5.825474"><ele>321.720</ele><time>2015-10-27T13:25:12Z</time></trkpt><trkpt lat="43.151794" lon="-5.825509"><ele>321.241</ele><time>2015-10-27T13:25:27Z</time></trkpt><trkpt lat="43.151873" lon="-5.825508"><ele>321.263</ele><time>2015-10-27T13:25:34Z</time></trkpt><trkpt lat="43.151926" lon="-5.825505"><ele>320.761</ele><time>2015-10-27T13:25:39Z</time></trkpt><trkpt lat="43.152100" lon="-5.825573"><ele>320.766</ele><time>2015-10-27T13:25:55Z</time></trkpt><trkpt lat="43.152288" lon="-5.825650"><ele>319.829</ele><time>2015-10-27T13:26:11Z</time></trkpt><trkpt lat="43.152459" lon="-5.825703"><ele>319.321</ele><time>2015-10-27T13:26:26Z</time></trkpt><trkpt lat="43.152498" lon="-5.825704"><ele>319.308</ele><time>2015-10-27T13:26:29Z</time></trkpt><trkpt lat="43.152653" lon="-5.825778"><ele>318.817</ele><time>2015-10-27T13:26:44Z</time></trkpt><trkpt lat="43.152812" lon="-5.825819"><ele>318.367</ele><time>2015-10-27T13:27:01Z</time></trkpt><trkpt lat="43.152821" lon="-5.825819"><ele>318.380</ele><time>2015-10-27T13:27:02Z</time></trkpt><trkpt lat="43.153004" lon="-5.825876"><ele>317.919</ele><time>2015-10-27T13:27:18Z</time></trkpt><trkpt lat="43.153016" lon="-5.825885"><ele>317.954</ele><time>2015-10-27T13:27:19Z</time></trkpt><trkpt lat="43.153233" lon="-5.825961"><ele>317.455</ele><time>2015-10-27T13:27:36Z</time></trkpt><trkpt lat="43.153312" lon="-5.826015"><ele>317.947</ele><time>2015-10-27T13:27:42Z</time></trkpt><trkpt lat="43.153350" lon="-5.826047"><ele>317.985</ele><time>2015-10-27T13:27:45Z</time></trkpt><trkpt lat="43.153426" lon="-5.826184"><ele>317.951</ele><time>2015-10-27T13:27:51Z</time></trkpt><trkpt lat="43.153538" lon="-5.826273"><ele>317.901</ele><time>2015-10-27T13:28:04Z</time></trkpt><trkpt lat="43.153574" lon="-5.826417"><ele>319.311</ele><time>2015-10-27T13:28:09Z</time></trkpt><trkpt lat="43.153560" lon="-5.826573"><ele>320.708</ele><time>2015-10-27T13:28:22Z</time></trkpt><trkpt lat="43.153543" lon="-5.826721"><ele>322.736</ele><time>2015-10-27T13:28:36Z</time></trkpt><trkpt lat="43.153558" lon="-5.826804"><ele>322.746</ele><time>2015-10-27T13:28:46Z</time></trkpt><trkpt lat="43.153559" lon="-5.826835"><ele>322.749</ele><time>2015-10-27T13:28:53Z</time></trkpt><trkpt lat="43.153572" lon="-5.826833"><ele>322.728</ele><time>2015-10-27T13:28:55Z</time></trkpt><trkpt lat="43.153650" lon="-5.826867"><ele>322.753</ele><time>2015-10-27T13:29:04Z</time></trkpt><trkpt lat="43.153822" lon="-5.826919"><ele>322.714</ele><time>2015-10-27T13:29:20Z</time></trkpt><trkpt lat="43.153856" lon="-5.826925"><ele>322.746</ele><time>2015-10-27T13:29:23Z</time></trkpt><trkpt lat="43.153998" lon="-5.826930"><ele>322.754</ele><time>2015-10-27T13:29:35Z</time></trkpt><trkpt lat="43.154017" lon="-5.826941"><ele>322.769</ele><time>2015-10-27T13:29:37Z</time></trkpt><trkpt lat="43.154163" lon="-5.826908"><ele>322.704</ele><time>2015-10-27T13:29:51Z</time></trkpt><trkpt lat="43.154302" lon="-5.826952"><ele>321.724</ele><time>2015-10-27T13:30:07Z</time></trkpt><trkpt lat="43.154430" lon="-5.826989"><ele>321.708</ele><time>2015-10-27T13:30:20Z</time></trkpt><trkpt lat="43.154707" lon="-5.827008"><ele>321.787</ele><time>2015-10-27T13:30:39Z</time></trkpt><trkpt lat="43.154869" lon="-5.827082"><ele>321.287</ele><time>2015-10-27T13:30:51Z</time></trkpt><trkpt lat="43.155010" lon="-5.827191"><ele>321.230</ele><time>2015-10-27T13:31:03Z</time></trkpt><trkpt lat="43.155018" lon="-5.827201"><ele>321.299</ele><time>2015-10-27T13:31:04Z</time></trkpt><trkpt lat="43.155171" lon="-5.827377"><ele>321.224</ele><time>2015-10-27T13:31:19Z</time></trkpt><trkpt lat="43.155315" lon="-5.827495"><ele>321.295</ele><time>2015-10-27T13:31:33Z</time></trkpt><trkpt lat="43.155345" lon="-5.827518"><ele>321.297</ele><time>2015-10-27T13:31:36Z</time></trkpt><trkpt lat="43.155393" lon="-5.827598"><ele>322.715</ele><time>2015-10-27T13:31:43Z</time></trkpt><trkpt lat="43.155402" lon="-5.827612"><ele>322.756</ele><time>2015-10-27T13:31:44Z</time></trkpt><trkpt lat="43.155475" lon="-5.827665"><ele>322.759</ele><time>2015-10-27T13:31:50Z</time></trkpt><trkpt lat="43.155574" lon="-5.827752"><ele>322.714</ele><time>2015-10-27T13:31:59Z</time></trkpt><trkpt lat="43.155618" lon="-5.827805"><ele>322.708</ele><time>2015-10-27T13:32:03Z</time></trkpt><trkpt lat="43.155775" lon="-5.827968"><ele>321.726</ele><time>2015-10-27T13:32:16Z</time></trkpt><trkpt lat="43.155839" lon="-5.828085"><ele>321.726</ele><time>2015-10-27T13:32:29Z</time></trkpt><trkpt lat="43.155874" lon="-5.828100"><ele>321.769</ele><time>2015-10-27T13:32:33Z</time></trkpt><trkpt lat="43.156036" lon="-5.828138"><ele>322.248</ele><time>2015-10-27T13:32:48Z</time></trkpt><trkpt lat="43.156096" lon="-5.828138"><ele>322.243</ele><time>2015-10-27T13:32:53Z</time></trkpt><trkpt lat="43.156256" lon="-5.828165"><ele>322.224</ele><time>2015-10-27T13:33:05Z</time></trkpt><trkpt lat="43.156285" lon="-5.828183"><ele>322.236</ele><time>2015-10-27T13:33:08Z</time></trkpt><trkpt lat="43.156427" lon="-5.828231"><ele>322.784</ele><time>2015-10-27T13:33:20Z</time></trkpt><trkpt lat="43.156511" lon="-5.828238"><ele>322.786</ele><time>2015-10-27T13:33:26Z</time></trkpt><trkpt lat="43.156574" lon="-5.828277"><ele>322.760</ele><time>2015-10-27T13:33:32Z</time></trkpt><trkpt lat="43.156617" lon="-5.828302"><ele>322.226</ele><time>2015-10-27T13:33:36Z</time></trkpt><trkpt lat="43.156797" lon="-5.828249"><ele>322.208</ele><time>2015-10-27T13:33:51Z</time></trkpt><trkpt lat="43.156915" lon="-5.828302"><ele>322.719</ele><time>2015-10-27T13:34:03Z</time></trkpt><trkpt lat="43.157100" lon="-5.828342"><ele>322.749</ele><time>2015-10-27T13:34:19Z</time></trkpt><trkpt lat="43.157262" lon="-5.828395"><ele>322.732</ele><time>2015-10-27T13:34:32Z</time></trkpt><trkpt lat="43.157378" lon="-5.828559"><ele>322.781</ele><time>2015-10-27T13:34:40Z</time></trkpt><trkpt lat="43.157476" lon="-5.828850"><ele>324.176</ele><time>2015-10-27T13:34:54Z</time></trkpt><trkpt lat="43.157518" lon="-5.829013"><ele>325.137</ele><time>2015-10-27T13:35:06Z</time></trkpt><trkpt lat="43.157557" lon="-5.829209"><ele>326.529</ele><time>2015-10-27T13:35:21Z</time></trkpt><trkpt lat="43.157573" lon="-5.829414"><ele>328.037</ele><time>2015-10-27T13:35:35Z</time></trkpt><trkpt lat="43.157518" lon="-5.829485"><ele>329.461</ele><time>2015-10-27T13:35:47Z</time></trkpt><trkpt lat="43.157437" lon="-5.829550"><ele>329.921</ele><time>2015-10-27T13:35:59Z</time></trkpt><trkpt lat="43.157460" lon="-5.829618"><ele>329.913</ele><time>2015-10-27T13:36:09Z</time></trkpt><trkpt lat="43.157491" lon="-5.829726"><ele>330.808</ele><time>2015-10-27T13:36:18Z</time></trkpt><trkpt lat="43.157619" lon="-5.829973"><ele>332.897</ele><time>2015-10-27T13:36:32Z</time></trkpt><trkpt lat="43.157715" lon="-5.830130"><ele>333.247</ele><time>2015-10-27T13:36:45Z</time></trkpt><trkpt lat="43.157802" lon="-5.830212"><ele>334.790</ele><time>2015-10-27T13:36:56Z</time></trkpt><trkpt lat="43.157936" lon="-5.830185"><ele>335.669</ele><time>2015-10-27T13:37:07Z</time></trkpt><trkpt lat="43.158002" lon="-5.830338"><ele>335.634</ele><time>2015-10-27T13:37:13Z</time></trkpt><trkpt lat="43.158048" lon="-5.830388"><ele>335.645</ele><time>2015-10-27T13:37:17Z</time></trkpt><trkpt lat="43.158155" lon="-5.830580"><ele>337.627</ele><time>2015-10-27T13:37:28Z</time></trkpt><trkpt lat="43.158289" lon="-5.830774"><ele>335.685</ele><time>2015-10-27T13:37:42Z</time></trkpt><trkpt lat="43.158023" lon="-5.830746"><ele>319.857</ele><time>2015-10-28T06:25:43Z</time></trkpt><trkpt lat="43.157961" lon="-5.830679"><ele>319.300</ele><time>2015-10-28T06:26:02Z</time></trkpt><trkpt lat="43.157866" lon="-5.830637"><ele>319.320</ele><time>2015-10-28T06:26:17Z</time></trkpt><trkpt lat="43.157903" lon="-5.830634"><ele>318.808</ele><time>2015-10-28T06:26:34Z</time></trkpt><trkpt lat="43.157911" lon="-5.830531"><ele>318.346</ele><time>2015-10-28T06:26:47Z</time></trkpt><trkpt lat="43.157870" lon="-5.830423"><ele>316.956</ele><time>2015-10-28T06:27:04Z</time></trkpt><trkpt lat="43.157934" lon="-5.830364"><ele>320.379</ele><time>2015-10-28T06:27:20Z</time></trkpt><trkpt lat="43.157952" lon="-5.830349"><ele>323.648</ele><time>2015-10-28T06:27:23Z</time></trkpt><trkpt lat="43.157978" lon="-5.830315"><ele>328.043</ele><time>2015-10-28T06:27:27Z</time></trkpt><trkpt lat="43.157994" lon="-5.830284"><ele>331.314</ele><time>2015-10-28T06:27:31Z</time></trkpt><trkpt lat="43.158018" lon="-5.830259"><ele>334.766</ele><time>2015-10-28T06:27:34Z</time></trkpt><trkpt lat="43.158032" lon="-5.830243"><ele>335.634</ele><time>2015-10-28T06:27:36Z</time></trkpt><trkpt lat="43.158050" lon="-5.830213"><ele>339.063</ele><time>2015-10-28T06:27:40Z</time></trkpt><trkpt lat="43.158056" lon="-5.830202"><ele>340.044</ele><time>2015-10-28T06:27:42Z</time></trkpt><trkpt lat="43.158063" lon="-5.830193"><ele>342.418</ele><time>2015-10-28T06:27:46Z</time></trkpt><trkpt lat="43.158081" lon="-5.830175"><ele>345.708</ele><time>2015-10-28T06:27:50Z</time></trkpt><trkpt lat="43.158102" lon="-5.830198"><ele>348.197</ele><time>2015-10-28T06:27:54Z</time></trkpt><trkpt lat="43.158129" lon="-5.830197"><ele>351.537</ele><time>2015-10-28T06:27:58Z</time></trkpt><trkpt lat="43.158161" lon="-5.830190"><ele>354.930</ele><time>2015-10-28T06:28:02Z</time></trkpt><trkpt lat="43.158166" lon="-5.830191"><ele>354.969</ele><time>2015-10-28T06:28:03Z</time></trkpt><trkpt lat="43.158197" lon="-5.830203"><ele>358.714</ele><time>2015-10-28T06:28:08Z</time></trkpt><trkpt lat="43.158230" lon="-5.830208"><ele>362.175</ele><time>2015-10-28T06:28:12Z</time></trkpt><trkpt lat="43.158247" lon="-5.830218"><ele>365.087</ele><time>2015-10-28T06:28:16Z</time></trkpt><trkpt lat="43.158243" lon="-5.830221"><ele>365.965</ele><time>2015-10-28T06:28:18Z</time></trkpt><trkpt lat="43.158237" lon="-5.830200"><ele>368.366</ele><time>2015-10-28T06:28:21Z</time></trkpt><trkpt lat="43.158215" lon="-5.830175"><ele>371.229</ele><time>2015-10-28T06:28:27Z</time></trkpt><trkpt lat="43.158211" lon="-5.830161"><ele>372.221</ele><time>2015-10-28T06:28:29Z</time></trkpt><trkpt lat="43.158216" lon="-5.830151"><ele>372.608</ele><time>2015-10-28T06:28:30Z</time></trkpt><trkpt lat="43.158274" lon="-5.830093"><ele>374.617</ele><time>2015-10-28T06:28:34Z</time></trkpt><trkpt lat="43.158304" lon="-5.830061"><ele>376.077</ele><time>2015-10-28T06:28:36Z</time></trkpt><trkpt lat="43.158435" lon="-5.829976"><ele>379.980</ele><time>2015-10-28T06:28:43Z</time></trkpt><trkpt lat="43.158451" lon="-5.829966"><ele>380.349</ele><time>2015-10-28T06:28:44Z</time></trkpt><trkpt lat="43.158492" lon="-5.829956"><ele>381.314</ele><time>2015-10-28T06:28:47Z</time></trkpt><trkpt lat="43.158575" lon="-5.829911"><ele>382.345</ele><time>2015-10-28T06:28:53Z</time></trkpt><trkpt lat="43.158742" lon="-5.829765"><ele>384.267</ele><time>2015-10-28T06:29:03Z</time></trkpt><trkpt lat="43.158834" lon="-5.829715"><ele>384.235</ele><time>2015-10-28T06:29:06Z</time></trkpt><trkpt lat="43.159094" lon="-5.829485"><ele>385.642</ele><time>2015-10-28T06:29:22Z</time></trkpt><trkpt lat="43.159218" lon="-5.829520"><ele>385.622</ele><time>2015-10-28T06:29:34Z</time></trkpt><trkpt lat="43.159378" lon="-5.829532"><ele>384.714</ele><time>2015-10-28T06:29:50Z</time></trkpt><trkpt lat="43.159393" lon="-5.829525"><ele>384.708</ele><time>2015-10-28T06:29:51Z</time></trkpt><trkpt lat="43.159540" lon="-5.829441"><ele>384.765</ele><time>2015-10-28T06:30:06Z</time></trkpt><trkpt lat="43.159689" lon="-5.829324"><ele>384.225</ele><time>2015-10-28T06:30:23Z</time></trkpt><trkpt lat="43.159862" lon="-5.829343"><ele>383.718</ele><time>2015-10-28T06:30:37Z</time></trkpt><trkpt lat="43.159919" lon="-5.829345"><ele>384.227</ele><time>2015-10-28T06:30:41Z</time></trkpt><trkpt lat="43.159985" lon="-5.829308"><ele>384.262</ele><time>2015-10-28T06:30:45Z</time></trkpt><trkpt lat="43.160326" lon="-5.829397"><ele>384.213</ele><time>2015-10-28T06:30:59Z</time></trkpt><trkpt lat="43.160502" lon="-5.829397"><ele>384.285</ele><time>2015-10-28T06:31:12Z</time></trkpt><trkpt lat="43.160511" lon="-5.829396"><ele>384.223</ele><time>2015-10-28T06:31:14Z</time></trkpt><trkpt lat="43.160605" lon="-5.829402"><ele>384.294</ele><time>2015-10-28T06:31:21Z</time></trkpt><trkpt lat="43.160747" lon="-5.829384"><ele>384.257</ele><time>2015-10-28T06:31:34Z</time></trkpt><trkpt lat="43.160864" lon="-5.829340"><ele>384.722</ele><time>2015-10-28T06:31:47Z</time></trkpt><trkpt lat="43.160990" lon="-5.829360"><ele>384.208</ele><time>2015-10-28T06:32:01Z</time></trkpt><trkpt lat="43.161044" lon="-5.829396"><ele>384.230</ele><time>2015-10-28T06:32:04Z</time></trkpt><trkpt lat="43.161203" lon="-5.829413"><ele>383.240</ele><time>2015-10-28T06:32:14Z</time></trkpt><trkpt lat="43.161306" lon="-5.829444"><ele>383.263</ele><time>2015-10-28T06:32:19Z</time></trkpt><trkpt lat="43.161356" lon="-5.829414"><ele>383.262</ele><time>2015-10-28T06:32:22Z</time></trkpt><trkpt lat="43.161498" lon="-5.829380"><ele>382.377</ele><time>2015-10-28T06:32:35Z</time></trkpt><trkpt lat="43.161766" lon="-5.829329"><ele>381.828</ele><time>2015-10-28T06:32:51Z</time></trkpt><trkpt lat="43.161840" lon="-5.829334"><ele>381.370</ele><time>2015-10-28T06:32:56Z</time></trkpt><trkpt lat="43.161887" lon="-5.829310"><ele>381.358</ele><time>2015-10-28T06:33:00Z</time></trkpt><trkpt lat="43.162013" lon="-5.829295"><ele>380.329</ele><time>2015-10-28T06:33:12Z</time></trkpt><trkpt lat="43.162093" lon="-5.829264"><ele>379.900</ele><time>2015-10-28T06:33:21Z</time></trkpt><trkpt lat="43.162238" lon="-5.829139"><ele>378.920</ele><time>2015-10-28T06:33:33Z</time></trkpt><trkpt lat="43.162435" lon="-5.829029"><ele>377.908</ele><time>2015-10-28T06:33:50Z</time></trkpt><trkpt lat="43.162491" lon="-5.829037"><ele>377.923</ele><time>2015-10-28T06:33:54Z</time></trkpt><trkpt lat="43.162555" lon="-5.829035"><ele>377.953</ele><time>2015-10-28T06:33:58Z</time></trkpt><trkpt lat="43.162990" lon="-5.828890"><ele>377.956</ele><time>2015-10-28T06:34:16Z</time></trkpt><trkpt lat="43.163032" lon="-5.828893"><ele>377.555</ele><time>2015-10-28T06:34:20Z</time></trkpt><trkpt lat="43.163120" lon="-5.828928"><ele>377.060</ele><time>2015-10-28T06:34:34Z</time></trkpt><trkpt lat="43.163130" lon="-5.828897"><ele>377.081</ele><time>2015-10-28T06:34:38Z</time></trkpt><trkpt lat="43.163252" lon="-5.828857"><ele>376.513</ele><time>2015-10-28T06:34:50Z</time></trkpt><trkpt lat="43.163441" lon="-5.828716"><ele>376.071</ele><time>2015-10-28T06:34:59Z</time></trkpt><trkpt lat="43.163473" lon="-5.828596"><ele>376.532</ele><time>2015-10-28T06:35:05Z</time></trkpt><trkpt lat="43.163509" lon="-5.828571"><ele>376.592</ele><time>2015-10-28T06:35:07Z</time></trkpt><trkpt lat="43.163589" lon="-5.828575"><ele>376.011</ele><time>2015-10-28T06:35:11Z</time></trkpt><trkpt lat="43.163622" lon="-5.828576"><ele>376.008</ele><time>2015-10-28T06:35:13Z</time></trkpt><trkpt lat="43.163651" lon="-5.828544"><ele>376.064</ele><time>2015-10-28T06:35:18Z</time></trkpt><trkpt lat="43.163659" lon="-5.828533"><ele>376.094</ele><time>2015-10-28T06:35:22Z</time></trkpt><trkpt lat="43.163723" lon="-5.828377"><ele>376.047</ele><time>2015-10-28T06:35:37Z</time></trkpt><trkpt lat="43.163845" lon="-5.828112"><ele>375.076</ele><time>2015-10-28T06:35:52Z</time></trkpt><trkpt lat="43.163909" lon="-5.828059"><ele>375.031</ele><time>2015-10-28T06:35:57Z</time></trkpt><trkpt lat="43.164044" lon="-5.828028"><ele>375.032</ele><time>2015-10-28T06:36:07Z</time></trkpt><trkpt lat="43.164181" lon="-5.827908"><ele>375.094</ele><time>2015-10-28T06:36:21Z</time></trkpt><trkpt lat="43.164179" lon="-5.827884"><ele>375.032</ele><time>2015-10-28T06:36:24Z</time></trkpt><trkpt lat="43.164276" lon="-5.828042"><ele>375.066</ele><time>2015-10-28T06:36:38Z</time></trkpt><trkpt lat="43.164287" lon="-5.828101"><ele>375.029</ele><time>2015-10-28T06:36:43Z</time></trkpt><trkpt lat="43.164361" lon="-5.828006"><ele>375.021</ele><time>2015-10-28T06:36:48Z</time></trkpt><trkpt lat="43.164517" lon="-5.827654"><ele>376.008</ele><time>2015-10-28T06:37:05Z</time></trkpt><trkpt lat="43.164645" lon="-5.827292"><ele>377.077</ele><time>2015-10-28T06:37:25Z</time></trkpt><trkpt lat="43.164812" lon="-5.827183"><ele>376.567</ele><time>2015-10-28T06:37:39Z</time></trkpt><trkpt lat="43.164851" lon="-5.827172"><ele>376.570</ele><time>2015-10-28T06:37:42Z</time></trkpt><trkpt lat="43.165066" lon="-5.827077"><ele>376.039</ele><time>2015-10-28T06:37:59Z</time></trkpt><trkpt lat="43.165295" lon="-5.826891"><ele>375.044</ele><time>2015-10-28T06:38:18Z</time></trkpt><trkpt lat="43.165352" lon="-5.826847"><ele>374.145</ele><time>2015-10-28T06:38:22Z</time></trkpt><trkpt lat="43.165548" lon="-5.826720"><ele>372.637</ele><time>2015-10-28T06:38:38Z</time></trkpt><trkpt lat="43.165833" lon="-5.826548"><ele>371.725</ele><time>2015-10-28T06:38:58Z</time></trkpt><trkpt lat="43.166063" lon="-5.826427"><ele>369.851</ele><time>2015-10-28T06:39:16Z</time></trkpt><trkpt lat="43.166281" lon="-5.826329"><ele>368.801</ele><time>2015-10-28T06:39:33Z</time></trkpt><trkpt lat="43.166528" lon="-5.826224"><ele>366.911</ele><time>2015-10-28T06:39:53Z</time></trkpt><trkpt lat="43.166772" lon="-5.826081"><ele>364.508</ele><time>2015-10-28T06:40:13Z</time></trkpt><trkpt lat="43.166973" lon="-5.826009"><ele>363.526</ele><time>2015-10-28T06:40:28Z</time></trkpt><trkpt lat="43.167199" lon="-5.825895"><ele>362.556</ele><time>2015-10-28T06:40:46Z</time></trkpt><trkpt lat="43.167475" lon="-5.825763"><ele>361.679</ele><time>2015-10-28T06:41:07Z</time></trkpt><trkpt lat="43.167692" lon="-5.825657"><ele>361.188</ele><time>2015-10-28T06:41:24Z</time></trkpt><trkpt lat="43.167893" lon="-5.825622"><ele>360.623</ele><time>2015-10-28T06:41:38Z</time></trkpt><trkpt lat="43.168094" lon="-5.825470"><ele>359.754</ele><time>2015-10-28T06:41:56Z</time></trkpt><trkpt lat="43.168364" lon="-5.825356"><ele>358.736</ele><time>2015-10-28T06:42:17Z</time></trkpt><trkpt lat="43.168406" lon="-5.825336"><ele>358.774</ele><time>2015-10-28T06:42:21Z</time></trkpt><trkpt lat="43.168622" lon="-5.825266"><ele>356.321</ele><time>2015-10-28T06:42:38Z</time></trkpt><trkpt lat="43.168848" lon="-5.825178"><ele>355.841</ele><time>2015-10-28T06:42:56Z</time></trkpt><trkpt lat="43.169080" lon="-5.825104"><ele>355.305</ele><time>2015-10-28T06:43:14Z</time></trkpt><trkpt lat="43.169326" lon="-5.825016"><ele>354.408</ele><time>2015-10-28T06:43:33Z</time></trkpt><trkpt lat="43.169545" lon="-5.824957"><ele>353.933</ele><time>2015-10-28T06:43:50Z</time></trkpt><trkpt lat="43.169835" lon="-5.824821"><ele>352.013</ele><time>2015-10-28T06:44:13Z</time></trkpt><trkpt lat="43.170052" lon="-5.824698"><ele>351.026</ele><time>2015-10-28T06:44:30Z</time></trkpt><trkpt lat="43.170246" lon="-5.824581"><ele>350.115</ele><time>2015-10-28T06:44:47Z</time></trkpt><trkpt lat="43.170255" lon="-5.824604"><ele>349.690</ele><time>2015-10-28T06:45:06Z</time></trkpt><trkpt lat="43.170251" lon="-5.824646"><ele>348.141</ele><time>2015-10-28T06:45:38Z</time></trkpt><trkpt lat="43.170256" lon="-5.824646"><ele>347.253</ele><time>2015-10-28T06:46:07Z</time></trkpt><trkpt lat="43.170309" lon="-5.824597"><ele>346.731</ele><time>2015-10-28T06:46:29Z</time></trkpt><trkpt lat="43.170519" lon="-5.824458"><ele>345.712</ele><time>2015-10-28T06:46:49Z</time></trkpt><trkpt lat="43.170612" lon="-5.824366"><ele>345.232</ele><time>2015-10-28T06:47:04Z</time></trkpt><trkpt lat="43.170620" lon="-5.824366"><ele>345.205</ele><time>2015-10-28T06:47:05Z</time></trkpt><trkpt lat="43.170633" lon="-5.824360"><ele>344.308</ele><time>2015-10-28T06:47:06Z</time></trkpt><trkpt lat="43.170889" lon="-5.824165"><ele>343.862</ele><time>2015-10-28T06:47:30Z</time></trkpt><trkpt lat="43.171043" lon="-5.824008"><ele>342.982</ele><time>2015-10-28T06:47:46Z</time></trkpt><trkpt lat="43.171070" lon="-5.823979"><ele>342.495</ele><time>2015-10-28T06:47:49Z</time></trkpt><trkpt lat="43.171248" lon="-5.823751"><ele>340.954</ele><time>2015-10-28T06:48:09Z</time></trkpt><trkpt lat="43.171448" lon="-5.823488"><ele>340.049</ele><time>2015-10-28T06:48:31Z</time></trkpt><trkpt lat="43.171536" lon="-5.823374"><ele>339.540</ele><time>2015-10-28T06:48:41Z</time></trkpt><trkpt lat="43.171542" lon="-5.823361"><ele>339.592</ele><time>2015-10-28T06:48:42Z</time></trkpt><trkpt lat="43.171551" lon="-5.823351"><ele>339.550</ele><time>2015-10-28T06:48:43Z</time></trkpt><trkpt lat="43.171713" lon="-5.823138"><ele>338.552</ele><time>2015-10-28T06:49:01Z</time></trkpt><trkpt lat="43.171888" lon="-5.822922"><ele>337.653</ele><time>2015-10-28T06:49:19Z</time></trkpt><trkpt lat="43.172060" lon="-5.822700"><ele>336.608</ele><time>2015-10-28T06:49:37Z</time></trkpt><trkpt lat="43.172214" lon="-5.822491"><ele>335.608</ele><time>2015-10-28T06:49:54Z</time></trkpt><trkpt lat="43.172410" lon="-5.822217"><ele>334.216</ele><time>2015-10-28T06:50:16Z</time></trkpt><trkpt lat="43.172519" lon="-5.822082"><ele>333.726</ele><time>2015-10-28T06:50:28Z</time></trkpt><trkpt lat="43.172532" lon="-5.822072"><ele>333.759</ele><time>2015-10-28T06:50:29Z</time></trkpt><trkpt lat="43.172543" lon="-5.822061"><ele>333.718</ele><time>2015-10-28T06:50:30Z</time></trkpt><trkpt lat="43.172552" lon="-5.822049"><ele>333.733</ele><time>2015-10-28T06:50:31Z</time></trkpt><trkpt lat="43.172562" lon="-5.822035"><ele>333.744</ele><time>2015-10-28T06:50:32Z</time></trkpt><trkpt lat="43.172570" lon="-5.822022"><ele>333.746</ele><time>2015-10-28T06:50:33Z</time></trkpt><trkpt lat="43.172577" lon="-5.822012"><ele>333.784</ele><time>2015-10-28T06:50:34Z</time></trkpt><trkpt lat="43.172586" lon="-5.822001"><ele>333.239</ele><time>2015-10-28T06:50:35Z</time></trkpt><trkpt lat="43.172748" lon="-5.821778"><ele>331.801</ele><time>2015-10-28T06:50:53Z</time></trkpt><trkpt lat="43.172901" lon="-5.821561"><ele>330.421</ele><time>2015-10-28T06:51:09Z</time></trkpt><trkpt lat="43.173095" lon="-5.821317"><ele>329.408</ele><time>2015-10-28T06:51:29Z</time></trkpt><trkpt lat="43.173273" lon="-5.821111"><ele>328.974</ele><time>2015-10-28T06:51:48Z</time></trkpt><trkpt lat="43.173460" lon="-5.820880"><ele>328.444</ele><time>2015-10-28T06:52:07Z</time></trkpt><trkpt lat="43.173613" lon="-5.820640"><ele>328.037</ele><time>2015-10-28T06:52:26Z</time></trkpt><trkpt lat="43.173779" lon="-5.820400"><ele>327.576</ele><time>2015-10-28T06:52:45Z</time></trkpt><trkpt lat="43.173936" lon="-5.820172"><ele>326.531</ele><time>2015-10-28T06:53:03Z</time></trkpt><trkpt lat="43.174131" lon="-5.819918"><ele>325.122</ele><time>2015-10-28T06:53:24Z</time></trkpt><trkpt lat="43.174276" lon="-5.819728"><ele>324.674</ele><time>2015-10-28T06:53:40Z</time></trkpt><trkpt lat="43.174453" lon="-5.819487"><ele>323.682</ele><time>2015-10-28T06:53:59Z</time></trkpt><trkpt lat="43.174622" lon="-5.819276"><ele>322.757</ele><time>2015-10-28T06:54:17Z</time></trkpt><trkpt lat="43.174810" lon="-5.819036"><ele>321.700</ele><time>2015-10-28T06:54:37Z</time></trkpt><trkpt lat="43.174972" lon="-5.818809"><ele>320.720</ele><time>2015-10-28T06:54:55Z</time></trkpt><trkpt lat="43.175153" lon="-5.818577"><ele>320.308</ele><time>2015-10-28T06:55:14Z</time></trkpt><trkpt lat="43.175238" lon="-5.818457"><ele>319.876</ele><time>2015-10-28T06:55:24Z</time></trkpt><trkpt lat="43.175247" lon="-5.818442"><ele>319.816</ele><time>2015-10-28T06:55:25Z</time></trkpt><trkpt lat="43.175426" lon="-5.818191"><ele>318.829</ele><time>2015-10-28T06:55:45Z</time></trkpt><trkpt lat="43.175636" lon="-5.817895"><ele>317.498</ele><time>2015-10-28T06:56:07Z</time></trkpt><trkpt lat="43.175835" lon="-5.817680"><ele>316.453</ele><time>2015-10-28T06:56:26Z</time></trkpt><trkpt lat="43.176029" lon="-5.817409"><ele>315.954</ele><time>2015-10-28T06:56:46Z</time></trkpt><trkpt lat="43.176161" lon="-5.817265"><ele>315.546</ele><time>2015-10-28T06:57:03Z</time></trkpt><trkpt lat="43.176275" lon="-5.817139"><ele>315.034</ele><time>2015-10-28T06:57:15Z</time></trkpt><trkpt lat="43.176427" lon="-5.816947"><ele>315.032</ele><time>2015-10-28T06:57:31Z</time></trkpt><trkpt lat="43.176433" lon="-5.816930"><ele>315.092</ele><time>2015-10-28T06:57:32Z</time></trkpt><trkpt lat="43.176451" lon="-5.816886"><ele>314.511</ele><time>2015-10-28T06:57:35Z</time></trkpt><trkpt lat="43.176458" lon="-5.816873"><ele>314.508</ele><time>2015-10-28T06:57:36Z</time></trkpt><trkpt lat="43.176662" lon="-5.816609"><ele>314.084</ele><time>2015-10-28T06:57:58Z</time></trkpt><trkpt lat="43.176825" lon="-5.816391"><ele>313.034</ele><time>2015-10-28T06:58:15Z</time></trkpt><trkpt lat="43.176984" lon="-5.816179"><ele>312.167</ele><time>2015-10-28T06:58:33Z</time></trkpt><trkpt lat="43.177152" lon="-5.815960"><ele>311.616</ele><time>2015-10-28T06:58:51Z</time></trkpt><trkpt lat="43.177341" lon="-5.815727"><ele>311.151</ele><time>2015-10-28T06:59:10Z</time></trkpt><trkpt lat="43.177512" lon="-5.815521"><ele>310.682</ele><time>2015-10-28T06:59:27Z</time></trkpt><trkpt lat="43.177691" lon="-5.815282"><ele>309.724</ele><time>2015-10-28T06:59:47Z</time></trkpt><trkpt lat="43.177868" lon="-5.815065"><ele>308.712</ele><time>2015-10-28T07:00:06Z</time></trkpt><trkpt lat="43.178078" lon="-5.814805"><ele>308.236</ele><time>2015-10-28T07:00:26Z</time></trkpt><trkpt lat="43.178252" lon="-5.814582"><ele>307.817</ele><time>2015-10-28T07:00:45Z</time></trkpt><trkpt lat="43.178386" lon="-5.814375"><ele>306.818</ele><time>2015-10-28T07:01:00Z</time></trkpt><trkpt lat="43.178541" lon="-5.814201"><ele>306.808</ele><time>2015-10-28T07:01:16Z</time></trkpt><trkpt lat="43.178717" lon="-5.813945"><ele>306.324</ele><time>2015-10-28T07:01:36Z</time></trkpt><trkpt lat="43.178865" lon="-5.813744"><ele>305.834</ele><time>2015-10-28T07:01:52Z</time></trkpt><trkpt lat="43.179020" lon="-5.813530"><ele>305.887</ele><time>2015-10-28T07:02:09Z</time></trkpt><trkpt lat="43.179209" lon="-5.813268"><ele>305.486</ele><time>2015-10-28T07:02:28Z</time></trkpt><trkpt lat="43.179284" lon="-5.813167"><ele>305.421</ele><time>2015-10-28T07:02:37Z</time></trkpt><trkpt lat="43.179293" lon="-5.813156"><ele>305.432</ele><time>2015-10-28T07:02:38Z</time></trkpt><trkpt lat="43.179463" lon="-5.812936"><ele>305.454</ele><time>2015-10-28T07:02:56Z</time></trkpt><trkpt lat="43.179644" lon="-5.812740"><ele>304.432</ele><time>2015-10-28T07:03:13Z</time></trkpt><trkpt lat="43.179808" lon="-5.812550"><ele>303.934</ele><time>2015-10-28T07:03:30Z</time></trkpt><trkpt lat="43.179996" lon="-5.812361"><ele>303.055</ele><time>2015-10-28T07:03:48Z</time></trkpt><trkpt lat="43.180193" lon="-5.812179"><ele>302.010</ele><time>2015-10-28T07:04:05Z</time></trkpt><trkpt lat="43.180389" lon="-5.811975"><ele>301.008</ele><time>2015-10-28T07:04:23Z</time></trkpt><trkpt lat="43.180592" lon="-5.811827"><ele>300.144</ele><time>2015-10-28T07:04:40Z</time></trkpt><trkpt lat="43.180765" lon="-5.811811"><ele>299.644</ele><time>2015-10-28T07:04:57Z</time></trkpt><trkpt lat="43.180779" lon="-5.811856"><ele>299.167</ele><time>2015-10-28T07:05:18Z</time></trkpt><trkpt lat="43.180803" lon="-5.811916"><ele>299.146</ele><time>2015-10-28T07:05:25Z</time></trkpt><trkpt lat="43.180815" lon="-5.812000"><ele>299.131</ele><time>2015-10-28T07:05:30Z</time></trkpt><trkpt lat="43.180819" lon="-5.812013"><ele>299.192</ele><time>2015-10-28T07:05:31Z</time></trkpt><trkpt lat="43.180838" lon="-5.812106"><ele>298.644</ele><time>2015-10-28T07:05:38Z</time></trkpt><trkpt lat="43.180845" lon="-5.812121"><ele>298.682</ele><time>2015-10-28T07:05:39Z</time></trkpt><trkpt lat="43.180907" lon="-5.812393"><ele>298.683</ele><time>2015-10-28T07:05:54Z</time></trkpt><trkpt lat="43.180975" lon="-5.812691"><ele>298.625</ele><time>2015-10-28T07:06:13Z</time></trkpt><trkpt lat="43.181060" lon="-5.812978"><ele>299.117</ele><time>2015-10-28T07:06:31Z</time></trkpt><trkpt lat="43.181239" lon="-5.813219"><ele>299.108</ele><time>2015-10-28T07:06:51Z</time></trkpt><trkpt lat="43.181462" lon="-5.813181"><ele>298.699</ele><time>2015-10-28T07:07:09Z</time></trkpt><trkpt lat="43.181615" lon="-5.812998"><ele>297.289</ele><time>2015-10-28T07:07:25Z</time></trkpt><trkpt lat="43.181762" lon="-5.812788"><ele>297.262</ele><time>2015-10-28T07:07:43Z</time></trkpt><trkpt lat="43.181908" lon="-5.812490"><ele>296.271</ele><time>2015-10-28T07:08:04Z</time></trkpt><trkpt lat="43.182030" lon="-5.812244"><ele>295.776</ele><time>2015-10-28T07:08:21Z</time></trkpt><trkpt lat="43.182187" lon="-5.811976"><ele>294.877</ele><time>2015-10-28T07:08:41Z</time></trkpt><trkpt lat="43.182349" lon="-5.811836"><ele>294.889</ele><time>2015-10-28T07:08:56Z</time></trkpt><trkpt lat="43.182594" lon="-5.811787"><ele>294.347</ele><time>2015-10-28T07:09:15Z</time></trkpt><trkpt lat="43.182857" lon="-5.811944"><ele>295.343</ele><time>2015-10-28T07:09:36Z</time></trkpt><trkpt lat="43.183054" lon="-5.812132"><ele>295.764</ele><time>2015-10-28T07:09:55Z</time></trkpt><trkpt lat="43.183216" lon="-5.812277"><ele>295.310</ele><time>2015-10-28T07:10:11Z</time></trkpt><trkpt lat="43.183436" lon="-5.812482"><ele>295.308</ele><time>2015-10-28T07:10:32Z</time></trkpt><trkpt lat="43.183521" lon="-5.812736"><ele>294.855</ele><time>2015-10-28T07:10:48Z</time></trkpt><trkpt lat="43.183542" lon="-5.812799"><ele>293.315</ele><time>2015-10-28T07:10:52Z</time></trkpt><trkpt lat="43.183598" lon="-5.813075"><ele>292.438</ele><time>2015-10-28T07:11:09Z</time></trkpt><trkpt lat="43.183663" lon="-5.813278"><ele>291.917</ele><time>2015-10-28T07:11:25Z</time></trkpt><trkpt lat="43.183704" lon="-5.813433"><ele>295.372</ele><time>2015-10-28T07:11:37Z</time></trkpt><trkpt lat="43.183774" lon="-5.813617"><ele>297.733</ele><time>2015-10-28T07:11:56Z</time></trkpt><trkpt lat="43.183775" lon="-5.813607"><ele>297.225</ele><time>2015-10-28T07:12:11Z</time></trkpt><trkpt lat="43.183778" lon="-5.813627"><ele>297.223</ele><time>2015-10-28T07:12:29Z</time></trkpt><trkpt lat="43.183874" lon="-5.813521"><ele>298.616</ele><time>2015-10-28T07:12:45Z</time></trkpt><trkpt lat="43.183971" lon="-5.813403"><ele>300.576</ele><time>2015-10-28T07:12:58Z</time></trkpt><trkpt lat="43.184087" lon="-5.813297"><ele>302.513</ele><time>2015-10-28T07:13:13Z</time></trkpt><trkpt lat="43.184154" lon="-5.813248"><ele>302.508</ele><time>2015-10-28T07:13:19Z</time></trkpt><trkpt lat="43.184161" lon="-5.813238"><ele>302.572</ele><time>2015-10-28T07:13:20Z</time></trkpt><trkpt lat="43.184174" lon="-5.813217"><ele>302.592</ele><time>2015-10-28T07:13:21Z</time></trkpt><trkpt lat="43.184188" lon="-5.813192"><ele>302.595</ele><time>2015-10-28T07:13:22Z</time></trkpt><trkpt lat="43.184200" lon="-5.813174"><ele>302.584</ele><time>2015-10-28T07:13:23Z</time></trkpt><trkpt lat="43.184343" lon="-5.812956"><ele>301.019</ele><time>2015-10-28T07:13:39Z</time></trkpt><trkpt lat="43.184470" lon="-5.812805"><ele>300.190</ele><time>2015-10-28T07:13:55Z</time></trkpt><trkpt lat="43.184621" lon="-5.812621"><ele>299.692</ele><time>2015-10-28T07:14:10Z</time></trkpt><trkpt lat="43.184780" lon="-5.812390"><ele>298.120</ele><time>2015-10-28T07:14:27Z</time></trkpt><trkpt lat="43.184915" lon="-5.812121"><ele>297.242</ele><time>2015-10-28T07:14:45Z</time></trkpt><trkpt lat="43.185104" lon="-5.811931"><ele>296.222</ele><time>2015-10-28T07:15:03Z</time></trkpt><trkpt lat="43.185274" lon="-5.811721"><ele>295.314</ele><time>2015-10-28T07:15:21Z</time></trkpt><trkpt lat="43.185348" lon="-5.811624"><ele>294.808</ele><time>2015-10-28T07:15:29Z</time></trkpt><trkpt lat="43.185526" lon="-5.811449"><ele>293.845</ele><time>2015-10-28T07:15:46Z</time></trkpt><trkpt lat="43.185733" lon="-5.811241"><ele>292.965</ele><time>2015-10-28T07:16:05Z</time></trkpt><trkpt lat="43.185881" lon="-5.811049"><ele>292.458</ele><time>2015-10-28T07:16:21Z</time></trkpt><trkpt lat="43.186058" lon="-5.810808"><ele>291.497</ele><time>2015-10-28T07:16:41Z</time></trkpt><trkpt lat="43.186202" lon="-5.810559"><ele>290.042</ele><time>2015-10-28T07:17:00Z</time></trkpt><trkpt lat="43.186319" lon="-5.810283"><ele>289.083</ele><time>2015-10-28T07:17:18Z</time></trkpt><trkpt lat="43.186436" lon="-5.809988"><ele>288.075</ele><time>2015-10-28T07:17:37Z</time></trkpt><trkpt lat="43.186611" lon="-5.809716"><ele>287.173</ele><time>2015-10-28T07:17:57Z</time></trkpt><trkpt lat="43.186743" lon="-5.809375"><ele>286.621</ele><time>2015-10-28T07:18:19Z</time></trkpt><trkpt lat="43.186849" lon="-5.809109"><ele>286.141</ele><time>2015-10-28T07:18:37Z</time></trkpt><trkpt lat="43.186950" lon="-5.808791"><ele>285.605</ele><time>2015-10-28T07:18:57Z</time></trkpt><trkpt lat="43.187023" lon="-5.808466"><ele>285.208</ele><time>2015-10-28T07:19:17Z</time></trkpt><trkpt lat="43.187107" lon="-5.808091"><ele>285.243</ele><time>2015-10-28T07:19:39Z</time></trkpt><trkpt lat="43.187121" lon="-5.807930"><ele>285.223</ele><time>2015-10-28T07:19:49Z</time></trkpt><trkpt lat="43.187131" lon="-5.807872"><ele>285.286</ele><time>2015-10-28T07:19:56Z</time></trkpt><trkpt lat="43.187131" lon="-5.807856"><ele>285.285</ele><time>2015-10-28T07:19:57Z</time></trkpt><trkpt lat="43.187157" lon="-5.807565"><ele>286.170</ele><time>2015-10-28T07:20:15Z</time></trkpt><trkpt lat="43.187112" lon="-5.807276"><ele>286.661</ele><time>2015-10-28T07:20:33Z</time></trkpt><trkpt lat="43.187058" lon="-5.806987"><ele>286.643</ele><time>2015-10-28T07:20:52Z</time></trkpt><trkpt lat="43.186997" lon="-5.806718"><ele>286.151</ele><time>2015-10-28T07:21:09Z</time></trkpt><trkpt lat="43.186932" lon="-5.806426"><ele>286.654</ele><time>2015-10-28T07:21:26Z</time></trkpt><trkpt lat="43.186867" lon="-5.806120"><ele>286.656</ele><time>2015-10-28T07:21:45Z</time></trkpt><trkpt lat="43.186820" lon="-5.805840"><ele>286.611</ele><time>2015-10-28T07:22:02Z</time></trkpt><trkpt lat="43.186760" lon="-5.805518"><ele>287.108</ele><time>2015-10-28T07:22:21Z</time></trkpt><trkpt lat="43.186706" lon="-5.805225"><ele>287.136</ele><time>2015-10-28T07:22:38Z</time></trkpt><trkpt lat="43.186674" lon="-5.804976"><ele>285.676</ele><time>2015-10-28T07:22:53Z</time></trkpt><trkpt lat="43.186681" lon="-5.804683"><ele>284.799</ele><time>2015-10-28T07:23:10Z</time></trkpt><trkpt lat="43.186679" lon="-5.804566"><ele>284.248</ele><time>2015-10-28T07:23:23Z</time></trkpt><trkpt lat="43.186682" lon="-5.804435"><ele>284.253</ele><time>2015-10-28T07:23:32Z</time></trkpt><trkpt lat="43.186682" lon="-5.804418"><ele>284.254</ele><time>2015-10-28T07:23:33Z</time></trkpt><trkpt lat="43.186716" lon="-5.804148"><ele>283.256</ele><time>2015-10-28T07:23:50Z</time></trkpt><trkpt lat="43.186721" lon="-5.803846"><ele>282.864</ele><time>2015-10-28T07:24:08Z</time></trkpt><trkpt lat="43.186675" lon="-5.803540"><ele>282.329</ele><time>2015-10-28T07:24:26Z</time></trkpt><trkpt lat="43.186580" lon="-5.803303"><ele>282.300</ele><time>2015-10-28T07:24:43Z</time></trkpt><trkpt lat="43.186462" lon="-5.803137"><ele>283.720</ele><time>2015-10-28T07:24:59Z</time></trkpt><trkpt lat="43.186371" lon="-5.802896"><ele>284.708</ele><time>2015-10-28T07:25:15Z</time></trkpt><trkpt lat="43.186323" lon="-5.802628"><ele>284.723</ele><time>2015-10-28T07:25:33Z</time></trkpt><trkpt lat="43.186311" lon="-5.802311"><ele>285.663</ele><time>2015-10-28T07:25:52Z</time></trkpt><trkpt lat="43.186325" lon="-5.801882"><ele>285.626</ele><time>2015-10-28T07:26:12Z</time></trkpt><trkpt lat="43.186315" lon="-5.801657"><ele>284.265</ele><time>2015-10-28T07:26:25Z</time></trkpt><trkpt lat="43.186300" lon="-5.801356"><ele>282.890</ele><time>2015-10-28T07:26:44Z</time></trkpt><trkpt lat="43.186280" lon="-5.801035"><ele>282.361</ele><time>2015-10-28T07:27:03Z</time></trkpt><trkpt lat="43.186369" lon="-5.800705"><ele>282.353</ele><time>2015-10-28T07:27:21Z</time></trkpt><trkpt lat="43.186520" lon="-5.800443"><ele>282.321</ele><time>2015-10-28T07:27:40Z</time></trkpt><trkpt lat="43.186543" lon="-5.800401"><ele>282.367</ele><time>2015-10-28T07:27:43Z</time></trkpt><trkpt lat="43.186691" lon="-5.800221"><ele>281.381</ele><time>2015-10-28T07:27:59Z</time></trkpt><trkpt lat="43.186774" lon="-5.800085"><ele>280.419</ele><time>2015-10-28T07:28:13Z</time></trkpt><trkpt lat="43.186780" lon="-5.800071"><ele>280.408</ele><time>2015-10-28T07:28:14Z</time></trkpt><trkpt lat="43.186788" lon="-5.800059"><ele>280.437</ele><time>2015-10-28T07:28:15Z</time></trkpt><trkpt lat="43.186919" lon="-5.799858"><ele>279.457</ele><time>2015-10-28T07:28:31Z</time></trkpt><trkpt lat="43.187017" lon="-5.799655"><ele>279.480</ele><time>2015-10-28T07:28:46Z</time></trkpt><trkpt lat="43.187137" lon="-5.799341"><ele>278.939</ele><time>2015-10-28T07:29:07Z</time></trkpt><trkpt lat="43.187220" lon="-5.799075"><ele>278.424</ele><time>2015-10-28T07:29:24Z</time></trkpt><trkpt lat="43.187305" lon="-5.798849"><ele>278.465</ele><time>2015-10-28T07:29:40Z</time></trkpt><trkpt lat="43.187381" lon="-5.798561"><ele>278.027</ele><time>2015-10-28T07:29:59Z</time></trkpt><trkpt lat="43.187433" lon="-5.798274"><ele>277.085</ele><time>2015-10-28T07:30:17Z</time></trkpt><trkpt lat="43.187482" lon="-5.797965"><ele>276.071</ele><time>2015-10-28T07:30:36Z</time></trkpt><trkpt lat="43.187458" lon="-5.797683"><ele>275.641</ele><time>2015-10-28T07:30:54Z</time></trkpt><trkpt lat="43.187557" lon="-5.797382"><ele>275.615</ele><time>2015-10-28T07:31:12Z</time></trkpt><trkpt lat="43.187703" lon="-5.797061"><ele>275.608</ele><time>2015-10-28T07:31:33Z</time></trkpt><trkpt lat="43.187824" lon="-5.796783"><ele>275.628</ele><time>2015-10-28T07:31:52Z</time></trkpt><trkpt lat="43.187904" lon="-5.796494"><ele>275.628</ele><time>2015-10-28T07:32:09Z</time></trkpt><trkpt lat="43.187981" lon="-5.796189"><ele>275.121</ele><time>2015-10-28T07:32:27Z</time></trkpt><trkpt lat="43.187997" lon="-5.796102"><ele>275.190</ele><time>2015-10-28T07:32:33Z</time></trkpt><trkpt lat="43.187997" lon="-5.796083"><ele>275.185</ele><time>2015-10-28T07:32:34Z</time></trkpt><trkpt lat="43.187993" lon="-5.795835"><ele>276.016</ele><time>2015-10-28T07:32:52Z</time></trkpt><trkpt lat="43.189409" lon="-5.794229"><ele>325.148</ele><time>2015-10-28T07:37:10Z</time></trkpt><trkpt lat="43.189419" lon="-5.794319"><ele>319.826</ele><time>2015-10-28T07:37:21Z</time></trkpt><trkpt lat="43.189430" lon="-5.794328"><ele>315.589</ele><time>2015-10-28T07:37:23Z</time></trkpt><trkpt lat="43.189449" lon="-5.794358"><ele>309.206</ele><time>2015-10-28T07:37:26Z</time></trkpt><trkpt lat="43.189464" lon="-5.794367"><ele>305.426</ele><time>2015-10-28T07:37:28Z</time></trkpt><trkpt lat="43.189482" lon="-5.794366"><ele>300.508</ele><time>2015-10-28T07:37:30Z</time></trkpt><trkpt lat="43.189491" lon="-5.794367"><ele>298.189</ele><time>2015-10-28T07:37:31Z</time></trkpt><trkpt lat="43.189510" lon="-5.794378"><ele>296.799</ele><time>2015-10-28T07:37:33Z</time></trkpt><trkpt lat="43.189518" lon="-5.794384"><ele>295.312</ele><time>2015-10-28T07:37:34Z</time></trkpt><trkpt lat="43.189562" lon="-5.794363"><ele>289.531</ele><time>2015-10-28T07:37:38Z</time></trkpt><trkpt lat="43.189601" lon="-5.794346"><ele>286.176</ele><time>2015-10-28T07:37:41Z</time></trkpt><trkpt lat="43.189636" lon="-5.794334"><ele>282.867</ele><time>2015-10-28T07:37:44Z</time></trkpt><trkpt lat="43.189679" lon="-5.794322"><ele>279.939</ele><time>2015-10-28T07:37:47Z</time></trkpt><trkpt lat="43.189731" lon="-5.794291"><ele>276.077</ele><time>2015-10-28T07:37:51Z</time></trkpt><trkpt lat="43.189785" lon="-5.794276"><ele>272.758</ele><time>2015-10-28T07:37:55Z</time></trkpt><trkpt lat="43.189817" lon="-5.794272"><ele>270.352</ele><time>2015-10-28T07:37:58Z</time></trkpt><trkpt lat="43.189868" lon="-5.794272"><ele>266.917</ele><time>2015-10-28T07:38:03Z</time></trkpt><trkpt lat="43.189898" lon="-5.794263"><ele>265.508</ele><time>2015-10-28T07:38:06Z</time></trkpt><trkpt lat="43.189955" lon="-5.794257"><ele>262.686</ele><time>2015-10-28T07:38:11Z</time></trkpt><trkpt lat="43.190063" lon="-5.794248"><ele>259.286</ele><time>2015-10-28T07:38:20Z</time></trkpt><trkpt lat="43.190089" lon="-5.794250"><ele>258.249</ele><time>2015-10-28T07:38:22Z</time></trkpt><trkpt lat="43.190242" lon="-5.794225"><ele>255.478</ele><time>2015-10-28T07:38:35Z</time></trkpt><trkpt lat="43.190469" lon="-5.794168"><ele>253.033</ele><time>2015-10-28T07:38:53Z</time></trkpt><trkpt lat="43.190657" lon="-5.794118"><ele>252.034</ele><time>2015-10-28T07:39:09Z</time></trkpt><trkpt lat="43.190695" lon="-5.794112"><ele>323.156</ele><time>2015-10-28T07:39:12Z</time></trkpt><trkpt lat="43.190706" lon="-5.794105"><ele>252.094</ele><time>2015-10-28T07:39:13Z</time></trkpt><trkpt lat="43.190847" lon="-5.794081"><ele>252.018</ele><time>2015-10-28T07:39:25Z</time></trkpt><trkpt lat="43.191052" lon="-5.794022"><ele>251.598</ele><time>2015-10-28T07:39:42Z</time></trkpt><trkpt lat="43.191257" lon="-5.793926"><ele>251.017</ele><time>2015-10-28T07:40:00Z</time></trkpt><trkpt lat="43.191477" lon="-5.793832"><ele>250.608</ele><time>2015-10-28T07:40:19Z</time></trkpt><trkpt lat="43.191730" lon="-5.793729"><ele>249.662</ele><time>2015-10-28T07:40:40Z</time></trkpt><trkpt lat="43.191945" lon="-5.793610"><ele>249.672</ele><time>2015-10-28T07:40:59Z</time></trkpt><trkpt lat="43.191962" lon="-5.793596"><ele>250.175</ele><time>2015-10-28T07:41:01Z</time></trkpt><trkpt lat="43.192033" lon="-5.793577"><ele>250.114</ele><time>2015-10-28T07:41:07Z</time></trkpt><trkpt lat="43.192072" lon="-5.793539"><ele>250.159</ele><time>2015-10-28T07:41:11Z</time></trkpt><trkpt lat="43.192301" lon="-5.793491"><ele>250.120</ele><time>2015-10-28T07:41:29Z</time></trkpt><trkpt lat="43.192556" lon="-5.793453"><ele>250.182</ele><time>2015-10-28T07:41:49Z</time></trkpt><trkpt lat="43.192789" lon="-5.793412"><ele>249.680</ele><time>2015-10-28T07:42:08Z</time></trkpt><trkpt lat="43.193007" lon="-5.793366"><ele>249.135</ele><time>2015-10-28T07:42:26Z</time></trkpt><trkpt lat="43.193193" lon="-5.793317"><ele>249.186</ele><time>2015-10-28T07:42:41Z</time></trkpt><trkpt lat="43.193292" lon="-5.793307"><ele>249.114</ele><time>2015-10-28T07:42:50Z</time></trkpt><trkpt lat="43.193503" lon="-5.793213"><ele>248.608</ele><time>2015-10-28T07:43:08Z</time></trkpt><trkpt lat="43.193693" lon="-5.793149"><ele>248.234</ele><time>2015-10-28T07:43:23Z</time></trkpt><trkpt lat="43.193926" lon="-5.793122"><ele>248.644</ele><time>2015-10-28T07:43:41Z</time></trkpt><trkpt lat="43.194117" lon="-5.793104"><ele>248.287</ele><time>2015-10-28T07:43:56Z</time></trkpt><trkpt lat="43.194328" lon="-5.793060"><ele>248.226</ele><time>2015-10-28T07:44:12Z</time></trkpt><trkpt lat="43.194587" lon="-5.793005"><ele>248.271</ele><time>2015-10-28T07:44:32Z</time></trkpt><trkpt lat="43.194805" lon="-5.792943"><ele>247.762</ele><time>2015-10-28T07:44:50Z</time></trkpt><trkpt lat="43.195028" lon="-5.792906"><ele>247.284</ele><time>2015-10-28T07:45:07Z</time></trkpt><trkpt lat="43.195241" lon="-5.792839"><ele>247.222</ele><time>2015-10-28T07:45:25Z</time></trkpt><trkpt lat="43.195435" lon="-5.792732"><ele>247.278</ele><time>2015-10-28T07:45:43Z</time></trkpt><trkpt lat="43.195643" lon="-5.792550"><ele>248.633</ele><time>2015-10-28T07:46:03Z</time></trkpt><trkpt lat="43.195821" lon="-5.792396"><ele>249.126</ele><time>2015-10-28T07:46:21Z</time></trkpt><trkpt lat="43.196009" lon="-5.792265"><ele>249.108</ele><time>2015-10-28T07:46:39Z</time></trkpt><trkpt lat="43.196211" lon="-5.792084"><ele>249.128</ele><time>2015-10-28T07:46:58Z</time></trkpt><trkpt lat="43.196394" lon="-5.791907"><ele>249.628</ele><time>2015-10-28T07:47:16Z</time></trkpt><trkpt lat="43.196562" lon="-5.791693"><ele>250.111</ele><time>2015-10-28T07:47:35Z</time></trkpt><trkpt lat="43.196725" lon="-5.791501"><ele>250.640</ele><time>2015-10-28T07:47:53Z</time></trkpt><trkpt lat="43.196822" lon="-5.791356"><ele>251.075</ele><time>2015-10-28T07:48:06Z</time></trkpt><trkpt lat="43.196987" lon="-5.791172"><ele>251.076</ele><time>2015-10-28T07:48:23Z</time></trkpt><trkpt lat="43.197139" lon="-5.791013"><ele>251.098</ele><time>2015-10-28T07:48:38Z</time></trkpt><trkpt lat="43.197328" lon="-5.790860"><ele>251.056</ele><time>2015-10-28T07:48:56Z</time></trkpt><trkpt lat="43.197539" lon="-5.790755"><ele>250.123</ele><time>2015-10-28T07:49:14Z</time></trkpt><trkpt lat="43.197791" lon="-5.790683"><ele>249.683</ele><time>2015-10-28T07:49:34Z</time></trkpt><trkpt lat="43.197989" lon="-5.790651"><ele>248.611</ele><time>2015-10-28T07:49:50Z</time></trkpt><trkpt lat="43.198175" lon="-5.790650"><ele>248.208</ele><time>2015-10-28T07:50:05Z</time></trkpt><trkpt lat="43.198409" lon="-5.790659"><ele>247.763</ele><time>2015-10-28T07:50:24Z</time></trkpt><trkpt lat="43.198618" lon="-5.790697"><ele>247.273</ele><time>2015-10-28T07:50:41Z</time></trkpt><trkpt lat="43.198826" lon="-5.790748"><ele>247.266</ele><time>2015-10-28T07:50:59Z</time></trkpt><trkpt lat="43.199043" lon="-5.790800"><ele>246.795</ele><time>2015-10-28T07:51:17Z</time></trkpt><trkpt lat="43.199126" lon="-5.790819"><ele>246.710</ele><time>2015-10-28T07:51:24Z</time></trkpt><trkpt lat="43.199344" lon="-5.790833"><ele>246.741</ele><time>2015-10-28T07:51:42Z</time></trkpt><trkpt lat="43.199413" lon="-5.790831"><ele>246.783</ele><time>2015-10-28T07:51:48Z</time></trkpt><trkpt lat="43.199659" lon="-5.790769"><ele>246.731</ele><time>2015-10-28T07:52:08Z</time></trkpt><trkpt lat="43.199877" lon="-5.790710"><ele>246.217</ele><time>2015-10-28T07:52:26Z</time></trkpt><trkpt lat="43.200072" lon="-5.790649"><ele>246.287</ele><time>2015-10-28T07:52:42Z</time></trkpt><trkpt lat="43.200298" lon="-5.790583"><ele>246.215</ele><time>2015-10-28T07:53:00Z</time></trkpt><trkpt lat="43.200505" lon="-5.790531"><ele>245.808</ele><time>2015-10-28T07:53:17Z</time></trkpt><trkpt lat="43.200725" lon="-5.790471"><ele>245.842</ele><time>2015-10-28T07:53:35Z</time></trkpt><trkpt lat="43.200928" lon="-5.790406"><ele>245.362</ele><time>2015-10-28T07:53:52Z</time></trkpt><trkpt lat="43.201126" lon="-5.790327"><ele>244.865</ele><time>2015-10-28T07:54:09Z</time></trkpt><trkpt lat="43.201327" lon="-5.790256"><ele>244.824</ele><time>2015-10-28T07:54:26Z</time></trkpt><trkpt lat="43.201448" lon="-5.790213"><ele>244.899</ele><time>2015-10-28T07:54:36Z</time></trkpt><trkpt lat="43.201525" lon="-5.790141"><ele>244.850</ele><time>2015-10-28T07:54:44Z</time></trkpt><trkpt lat="43.201638" lon="-5.790011"><ele>244.322</ele><time>2015-10-28T07:55:00Z</time></trkpt><trkpt lat="43.201623" lon="-5.789992"><ele>244.340</ele><time>2015-10-28T07:55:17Z</time></trkpt><trkpt lat="43.201582" lon="-5.789908"><ele>244.336</ele><time>2015-10-28T07:55:23Z</time></trkpt><trkpt lat="43.201762" lon="-5.789748"><ele>243.817</ele><time>2015-10-28T07:55:39Z</time></trkpt><trkpt lat="43.201917" lon="-5.789570"><ele>242.918</ele><time>2015-10-28T07:55:57Z</time></trkpt><trkpt lat="43.201952" lon="-5.789519"><ele>241.908</ele><time>2015-10-28T07:56:01Z</time></trkpt><trkpt lat="43.202123" lon="-5.789338"><ele>240.554</ele><time>2015-10-28T07:56:18Z</time></trkpt><trkpt lat="43.202264" lon="-5.789186"><ele>239.574</ele><time>2015-10-28T07:56:33Z</time></trkpt><trkpt lat="43.202431" lon="-5.788994"><ele>239.067</ele><time>2015-10-28T07:56:49Z</time></trkpt><trkpt lat="43.202607" lon="-5.788818"><ele>238.526</ele><time>2015-10-28T07:57:06Z</time></trkpt><trkpt lat="43.202775" lon="-5.788665"><ele>238.571</ele><time>2015-10-28T07:57:22Z</time></trkpt><trkpt lat="43.202945" lon="-5.788505"><ele>238.552</ele><time>2015-10-28T07:57:38Z</time></trkpt><trkpt lat="43.203136" lon="-5.788350"><ele>238.524</ele><time>2015-10-28T07:57:55Z</time></trkpt><trkpt lat="43.203297" lon="-5.788242"><ele>238.132</ele><time>2015-10-28T07:58:10Z</time></trkpt><trkpt lat="43.203515" lon="-5.788157"><ele>238.113</ele><time>2015-10-28T07:58:28Z</time></trkpt><trkpt lat="43.203590" lon="-5.788133"><ele>238.143</ele><time>2015-10-28T07:58:34Z</time></trkpt><trkpt lat="43.203678" lon="-5.788163"><ele>238.107</ele><time>2015-10-28T07:58:42Z</time></trkpt><trkpt lat="43.203906" lon="-5.788105"><ele>238.108</ele><time>2015-10-28T07:59:00Z</time></trkpt><trkpt lat="43.204117" lon="-5.788053"><ele>238.172</ele><time>2015-10-28T07:59:16Z</time></trkpt><trkpt lat="43.204350" lon="-5.788049"><ele>238.152</ele><time>2015-10-28T07:59:33Z</time></trkpt><trkpt lat="43.204564" lon="-5.788071"><ele>238.125</ele><time>2015-10-28T07:59:50Z</time></trkpt><trkpt lat="43.204645" lon="-5.788061"><ele>237.664</ele><time>2015-10-28T07:59:56Z</time></trkpt><trkpt lat="43.204853" lon="-5.788069"><ele>237.659</ele><time>2015-10-28T08:00:12Z</time></trkpt><trkpt lat="43.204919" lon="-5.788085"><ele>237.630</ele><time>2015-10-28T08:00:17Z</time></trkpt><trkpt lat="43.205113" lon="-5.788136"><ele>237.132</ele><time>2015-10-28T08:00:32Z</time></trkpt><trkpt lat="43.205298" lon="-5.788275"><ele>237.180</ele><time>2015-10-28T08:00:47Z</time></trkpt><trkpt lat="43.205489" lon="-5.788287"><ele>237.111</ele><time>2015-10-28T08:01:01Z</time></trkpt><trkpt lat="43.205719" lon="-5.788272"><ele>237.121</ele><time>2015-10-28T08:01:19Z</time></trkpt><trkpt lat="43.205968" lon="-5.788322"><ele>236.603</ele><time>2015-10-28T08:01:39Z</time></trkpt><trkpt lat="43.206238" lon="-5.788396"><ele>236.108</ele><time>2015-10-28T08:02:00Z</time></trkpt><trkpt lat="43.206459" lon="-5.788491"><ele>236.162</ele><time>2015-10-28T08:02:18Z</time></trkpt><trkpt lat="43.206669" lon="-5.788592"><ele>236.172</ele><time>2015-10-28T08:02:36Z</time></trkpt><trkpt lat="43.206858" lon="-5.788682"><ele>236.165</ele><time>2015-10-28T08:02:52Z</time></trkpt><trkpt lat="43.207043" lon="-5.788803"><ele>236.114</ele><time>2015-10-28T08:03:09Z</time></trkpt><trkpt lat="43.207264" lon="-5.788888"><ele>235.729</ele><time>2015-10-28T08:03:27Z</time></trkpt><trkpt lat="43.207492" lon="-5.789004"><ele>235.750</ele><time>2015-10-28T08:03:46Z</time></trkpt><trkpt lat="43.207681" lon="-5.789099"><ele>235.712</ele><time>2015-10-28T08:04:03Z</time></trkpt><trkpt lat="43.207920" lon="-5.789207"><ele>235.780</ele><time>2015-10-28T08:04:23Z</time></trkpt><trkpt lat="43.208111" lon="-5.789299"><ele>235.224</ele><time>2015-10-28T08:04:40Z</time></trkpt><trkpt lat="43.208310" lon="-5.789466"><ele>235.204</ele><time>2015-10-28T08:04:58Z</time></trkpt><trkpt lat="43.208530" lon="-5.789544"><ele>235.214</ele><time>2015-10-28T08:05:16Z</time></trkpt><trkpt lat="43.208761" lon="-5.789542"><ele>235.208</ele><time>2015-10-28T08:05:33Z</time></trkpt><trkpt lat="43.209008" lon="-5.789561"><ele>235.293</ele><time>2015-10-28T08:05:52Z</time></trkpt><trkpt lat="43.209244" lon="-5.789580"><ele>236.653</ele><time>2015-10-28T08:06:10Z</time></trkpt><trkpt lat="43.209461" lon="-5.789537"><ele>237.136</ele><time>2015-10-28T08:06:27Z</time></trkpt><trkpt lat="43.209679" lon="-5.789476"><ele>238.135</ele><time>2015-10-28T08:06:45Z</time></trkpt><trkpt lat="43.209917" lon="-5.789335"><ele>238.560</ele><time>2015-10-28T08:07:06Z</time></trkpt><trkpt lat="43.210077" lon="-5.789179"><ele>238.531</ele><time>2015-10-28T08:07:22Z</time></trkpt><trkpt lat="43.210238" lon="-5.788990"><ele>238.573</ele><time>2015-10-28T08:07:39Z</time></trkpt><trkpt lat="43.210396" lon="-5.788790"><ele>238.521</ele><time>2015-10-28T08:07:56Z</time></trkpt><trkpt lat="43.210541" lon="-5.788612"><ele>238.516</ele><time>2015-10-28T08:08:12Z</time></trkpt><trkpt lat="43.210713" lon="-5.788417"><ele>239.076</ele><time>2015-10-28T08:08:30Z</time></trkpt><trkpt lat="43.210823" lon="-5.788304"><ele>239.013</ele><time>2015-10-28T08:08:46Z</time></trkpt><trkpt lat="43.210821" lon="-5.788307"><ele>239.008</ele><time>2015-10-28T08:08:52Z</time></trkpt><trkpt lat="43.210827" lon="-5.788312"><ele>239.052</ele><time>2015-10-28T08:09:06Z</time></trkpt><trkpt lat="43.210831" lon="-5.788319"><ele>239.032</ele><time>2015-10-28T08:09:25Z</time></trkpt><trkpt lat="43.210838" lon="-5.788335"><ele>239.025</ele><time>2015-10-28T08:09:43Z</time></trkpt><trkpt lat="43.210843" lon="-5.788323"><ele>239.054</ele><time>2015-10-28T08:09:50Z</time></trkpt><trkpt lat="43.210967" lon="-5.788140"><ele>239.019</ele><time>2015-10-28T08:10:06Z</time></trkpt><trkpt lat="43.211146" lon="-5.787924"><ele>239.040</ele><time>2015-10-28T08:10:26Z</time></trkpt><trkpt lat="43.211300" lon="-5.787724"><ele>239.012</ele><time>2015-10-28T08:10:44Z</time></trkpt><trkpt lat="43.211454" lon="-5.787515"><ele>239.050</ele><time>2015-10-28T08:11:01Z</time></trkpt><trkpt lat="43.211590" lon="-5.787341"><ele>238.142</ele><time>2015-10-28T08:11:17Z</time></trkpt><trkpt lat="43.211680" lon="-5.787175"><ele>236.122</ele><time>2015-10-28T08:11:30Z</time></trkpt><trkpt lat="43.211728" lon="-5.787088"><ele>235.714</ele><time>2015-10-28T08:11:37Z</time></trkpt><trkpt lat="43.211844" lon="-5.786934"><ele>234.208</ele><time>2015-10-28T08:11:51Z</time></trkpt><trkpt lat="43.212036" lon="-5.786683"><ele>232.335</ele><time>2015-10-28T08:12:10Z</time></trkpt><trkpt lat="43.212188" lon="-5.786526"><ele>231.875</ele><time>2015-10-28T08:12:24Z</time></trkpt><trkpt lat="43.212346" lon="-5.786378"><ele>231.868</ele><time>2015-10-28T08:12:39Z</time></trkpt><trkpt lat="43.212497" lon="-5.786255"><ele>231.327</ele><time>2015-10-28T08:12:53Z</time></trkpt><trkpt lat="43.212695" lon="-5.786094"><ele>231.312</ele><time>2015-10-28T08:13:09Z</time></trkpt><trkpt lat="43.212905" lon="-5.785948"><ele>231.383</ele><time>2015-10-28T08:13:26Z</time></trkpt><trkpt lat="43.213108" lon="-5.785848"><ele>231.395</ele><time>2015-10-28T08:13:43Z</time></trkpt><trkpt lat="43.213215" lon="-5.785792"><ele>231.373</ele><time>2015-10-28T08:13:52Z</time></trkpt><trkpt lat="43.213284" lon="-5.785762"><ele>230.923</ele><time>2015-10-28T08:13:58Z</time></trkpt><trkpt lat="43.213503" lon="-5.785643"><ele>230.983</ele><time>2015-10-28T08:14:16Z</time></trkpt><trkpt lat="43.213691" lon="-5.785550"><ele>230.911</ele><time>2015-10-28T08:14:31Z</time></trkpt><trkpt lat="43.213918" lon="-5.785497"><ele>230.908</ele><time>2015-10-28T08:14:48Z</time></trkpt><trkpt lat="43.213971" lon="-5.785495"><ele>230.963</ele><time>2015-10-28T08:14:52Z</time></trkpt><trkpt lat="43.214214" lon="-5.785425"><ele>230.463</ele><time>2015-10-28T08:15:11Z</time></trkpt><trkpt lat="43.214249" lon="-5.785419"><ele>230.416</ele><time>2015-10-28T08:15:14Z</time></trkpt><trkpt lat="43.214298" lon="-5.785386"><ele>230.465</ele><time>2015-10-28T08:15:18Z</time></trkpt><trkpt lat="43.214486" lon="-5.785339"><ele>230.460</ele><time>2015-10-28T08:15:34Z</time></trkpt><trkpt lat="43.214654" lon="-5.785263"><ele>230.471</ele><time>2015-10-28T08:15:46Z</time></trkpt><trkpt lat="43.214721" lon="-5.785250"><ele>230.473</ele><time>2015-10-28T08:15:51Z</time></trkpt><trkpt lat="43.214922" lon="-5.785171"><ele>230.491</ele><time>2015-10-28T08:16:06Z</time></trkpt><trkpt lat="43.215173" lon="-5.785134"><ele>230.413</ele><time>2015-10-28T08:16:24Z</time></trkpt><trkpt lat="43.215394" lon="-5.785069"><ele>230.443</ele><time>2015-10-28T08:16:41Z</time></trkpt><trkpt lat="43.215598" lon="-5.784983"><ele>230.407</ele><time>2015-10-28T08:16:57Z</time></trkpt><trkpt lat="43.215836" lon="-5.784919"><ele>230.408</ele><time>2015-10-28T08:17:15Z</time></trkpt><trkpt lat="43.216060" lon="-5.784897"><ele>230.962</ele><time>2015-10-28T08:17:32Z</time></trkpt><trkpt lat="43.216308" lon="-5.784860"><ele>230.422</ele><time>2015-10-28T08:17:50Z</time></trkpt><trkpt lat="43.216495" lon="-5.784834"><ele>230.435</ele><time>2015-10-28T08:18:05Z</time></trkpt><trkpt lat="43.216728" lon="-5.784789"><ele>230.424</ele><time>2015-10-28T08:18:22Z</time></trkpt><trkpt lat="43.216965" lon="-5.784753"><ele>230.469</ele><time>2015-10-28T08:18:40Z</time></trkpt><trkpt lat="43.217169" lon="-5.784725"><ele>230.430</ele><time>2015-10-28T08:18:56Z</time></trkpt><trkpt lat="43.217390" lon="-5.784701"><ele>230.482</ele><time>2015-10-28T08:19:13Z</time></trkpt><trkpt lat="43.217449" lon="-5.784680"><ele>230.440</ele><time>2015-10-28T08:19:18Z</time></trkpt><trkpt lat="43.217717" lon="-5.784645"><ele>229.921</ele><time>2015-10-28T08:19:39Z</time></trkpt><trkpt lat="43.217986" lon="-5.784645"><ele>229.941</ele><time>2015-10-28T08:19:59Z</time></trkpt><trkpt lat="43.218073" lon="-5.784657"><ele>231.305</ele><time>2015-10-28T08:20:06Z</time></trkpt><trkpt lat="43.218341" lon="-5.784688"><ele>232.808</ele><time>2015-10-28T08:20:27Z</time></trkpt><trkpt lat="43.218544" lon="-5.784741"><ele>234.783</ele><time>2015-10-28T08:20:44Z</time></trkpt><trkpt lat="43.218787" lon="-5.784783"><ele>235.783</ele><time>2015-10-28T08:21:03Z</time></trkpt><trkpt lat="43.219053" lon="-5.784821"><ele>235.786</ele><time>2015-10-28T08:21:23Z</time></trkpt><trkpt lat="43.219281" lon="-5.784852"><ele>235.755</ele><time>2015-10-28T08:21:41Z</time></trkpt><trkpt lat="43.219511" lon="-5.784904"><ele>235.780</ele><time>2015-10-28T08:21:59Z</time></trkpt><trkpt lat="43.219739" lon="-5.784965"><ele>236.181</ele><time>2015-10-28T08:22:17Z</time></trkpt><trkpt lat="43.220009" lon="-5.785004"><ele>234.213</ele><time>2015-10-28T08:22:38Z</time></trkpt><trkpt lat="43.220251" lon="-5.785041"><ele>234.291</ele><time>2015-10-28T08:22:58Z</time></trkpt><trkpt lat="43.220501" lon="-5.785079"><ele>234.215</ele><time>2015-10-28T08:23:17Z</time></trkpt><trkpt lat="43.220725" lon="-5.785129"><ele>234.265</ele><time>2015-10-28T08:23:34Z</time></trkpt><trkpt lat="43.220949" lon="-5.785211"><ele>233.711</ele><time>2015-10-28T08:23:52Z</time></trkpt><trkpt lat="43.221214" lon="-5.785285"><ele>233.708</ele><time>2015-10-28T08:24:13Z</time></trkpt><trkpt lat="43.221470" lon="-5.785384"><ele>233.372</ele><time>2015-10-28T08:24:33Z</time></trkpt><trkpt lat="43.221697" lon="-5.785438"><ele>232.822</ele><time>2015-10-28T08:24:51Z</time></trkpt><trkpt lat="43.221954" lon="-5.785501"><ele>232.885</ele><time>2015-10-28T08:25:10Z</time></trkpt><trkpt lat="43.222146" lon="-5.785542"><ele>232.394</ele><time>2015-10-28T08:25:27Z</time></trkpt><trkpt lat="43.222228" lon="-5.785545"><ele>231.839</ele><time>2015-10-28T08:25:34Z</time></trkpt><trkpt lat="43.222455" lon="-5.785533"><ele>230.910</ele><time>2015-10-28T08:25:53Z</time></trkpt><trkpt lat="43.222471" lon="-5.785522"><ele>230.972</ele><time>2015-10-28T08:25:58Z</time></trkpt><trkpt lat="43.222693" lon="-5.785524"><ele>232.850</ele><time>2015-10-28T08:26:12Z</time></trkpt><trkpt lat="43.222832" lon="-5.785544"><ele>233.771</ele><time>2015-10-28T08:26:25Z</time></trkpt><trkpt lat="43.223064" lon="-5.785535"><ele>234.241</ele><time>2015-10-28T08:26:42Z</time></trkpt><trkpt lat="43.223300" lon="-5.785527"><ele>234.215</ele><time>2015-10-28T08:26:59Z</time></trkpt><trkpt lat="43.223450" lon="-5.785513"><ele>234.208</ele><time>2015-10-28T08:27:10Z</time></trkpt><trkpt lat="43.223631" lon="-5.785495"><ele>234.298</ele><time>2015-10-28T08:27:25Z</time></trkpt><trkpt lat="43.223852" lon="-5.785479"><ele>234.298</ele><time>2015-10-28T08:27:42Z</time></trkpt><trkpt lat="43.224052" lon="-5.785432"><ele>234.281</ele><time>2015-10-28T08:27:57Z</time></trkpt><trkpt lat="43.224224" lon="-5.785410"><ele>232.830</ele><time>2015-10-28T08:28:10Z</time></trkpt><trkpt lat="43.224433" lon="-5.785378"><ele>232.325</ele><time>2015-10-28T08:28:26Z</time></trkpt><trkpt lat="43.224643" lon="-5.785315"><ele>232.316</ele><time>2015-10-28T08:28:42Z</time></trkpt><trkpt lat="43.224830" lon="-5.785272"><ele>231.838</ele><time>2015-10-28T08:28:57Z</time></trkpt><trkpt lat="43.225085" lon="-5.785216"><ele>230.976</ele><time>2015-10-28T08:29:16Z</time></trkpt><trkpt lat="43.225155" lon="-5.785211"><ele>230.453</ele><time>2015-10-28T08:29:21Z</time></trkpt><trkpt lat="43.225205" lon="-5.785189"><ele>230.404</ele><time>2015-10-28T08:29:25Z</time></trkpt><trkpt lat="43.225462" lon="-5.785141"><ele>228.914</ele><time>2015-10-28T08:29:44Z</time></trkpt><trkpt lat="43.225541" lon="-5.785135"><ele>228.408</ele><time>2015-10-28T08:29:50Z</time></trkpt><trkpt lat="43.225782" lon="-5.785148"><ele>228.036</ele><time>2015-10-28T08:30:08Z</time></trkpt><trkpt lat="43.225871" lon="-5.785119"><ele>227.056</ele><time>2015-10-28T08:30:14Z</time></trkpt><trkpt lat="43.226011" lon="-5.785057"><ele>226.599</ele><time>2015-10-28T08:30:25Z</time></trkpt><trkpt lat="43.226268" lon="-5.784965"><ele>226.158</ele><time>2015-10-28T08:30:42Z</time></trkpt><trkpt lat="43.226445" lon="-5.784922"><ele>225.143</ele><time>2015-10-28T08:30:57Z</time></trkpt><trkpt lat="43.226662" lon="-5.784875"><ele>224.694</ele><time>2015-10-28T08:31:12Z</time></trkpt><trkpt lat="43.226845" lon="-5.784827"><ele>224.166</ele><time>2015-10-28T08:31:27Z</time></trkpt><trkpt lat="43.226872" lon="-5.784829"><ele>224.184</ele><time>2015-10-28T08:31:29Z</time></trkpt><trkpt lat="43.227069" lon="-5.784795"><ele>224.127</ele><time>2015-10-28T08:31:43Z</time></trkpt><trkpt lat="43.227338" lon="-5.784672"><ele>224.168</ele><time>2015-10-28T08:32:02Z</time></trkpt><trkpt lat="43.227508" lon="-5.784638"><ele>223.614</ele><time>2015-10-28T08:32:15Z</time></trkpt><trkpt lat="43.227731" lon="-5.784561"><ele>223.608</ele><time>2015-10-28T08:32:31Z</time></trkpt><trkpt lat="43.227819" lon="-5.784524"><ele>223.293</ele><time>2015-10-28T08:32:38Z</time></trkpt><trkpt lat="43.227921" lon="-5.784471"><ele>223.263</ele><time>2015-10-28T08:32:47Z</time></trkpt><trkpt lat="43.228082" lon="-5.784399"><ele>223.286</ele><time>2015-10-28T08:32:58Z</time></trkpt><trkpt lat="43.228231" lon="-5.784321"><ele>223.275</ele><time>2015-10-28T08:33:09Z</time></trkpt><trkpt lat="43.228422" lon="-5.784193"><ele>223.240</ele><time>2015-10-28T08:33:25Z</time></trkpt><trkpt lat="43.228546" lon="-5.784154"><ele>223.261</ele><time>2015-10-28T08:33:34Z</time></trkpt><trkpt lat="43.228722" lon="-5.784060"><ele>223.253</ele><time>2015-10-28T08:33:48Z</time></trkpt><trkpt lat="43.228913" lon="-5.783943"><ele>222.791</ele><time>2015-10-28T08:34:03Z</time></trkpt><trkpt lat="43.229088" lon="-5.783797"><ele>222.765</ele><time>2015-10-28T08:34:18Z</time></trkpt><trkpt lat="43.229271" lon="-5.783706"><ele>222.768</ele><time>2015-10-28T08:34:32Z</time></trkpt><trkpt lat="43.229475" lon="-5.783590"><ele>222.714</ele><time>2015-10-28T08:34:49Z</time></trkpt><trkpt lat="43.229591" lon="-5.783513"><ele>222.208</ele><time>2015-10-28T08:35:00Z</time></trkpt><trkpt lat="43.229844" lon="-5.783457"><ele>222.267</ele><time>2015-10-28T08:35:17Z</time></trkpt><trkpt lat="43.230044" lon="-5.783328"><ele>221.267</ele><time>2015-10-28T08:35:31Z</time></trkpt><trkpt lat="43.230263" lon="-5.783184"><ele>221.260</ele><time>2015-10-28T08:35:48Z</time></trkpt><trkpt lat="43.230446" lon="-5.783088"><ele>221.229</ele><time>2015-10-28T08:36:02Z</time></trkpt><trkpt lat="43.230616" lon="-5.782966"><ele>221.294</ele><time>2015-10-28T08:36:17Z</time></trkpt><trkpt lat="43.230668" lon="-5.782927"><ele>221.285</ele><time>2015-10-28T08:36:21Z</time></trkpt><trkpt lat="43.230796" lon="-5.782855"><ele>220.897</ele><time>2015-10-28T08:36:31Z</time></trkpt><trkpt lat="43.230957" lon="-5.782761"><ele>220.345</ele><time>2015-10-28T08:36:43Z</time></trkpt><trkpt lat="43.231073" lon="-5.782693"><ele>220.363</ele><time>2015-10-28T08:36:53Z</time></trkpt><trkpt lat="43.231203" lon="-5.782585"><ele>220.344</ele><time>2015-10-28T08:37:03Z</time></trkpt><trkpt lat="43.231434" lon="-5.782468"><ele>220.318</ele><time>2015-10-28T08:37:20Z</time></trkpt><trkpt lat="43.231533" lon="-5.782403"><ele>220.308</ele><time>2015-10-28T08:37:28Z</time></trkpt><trkpt lat="43.231743" lon="-5.782291"><ele>219.887</ele><time>2015-10-28T08:37:44Z</time></trkpt><trkpt lat="43.231940" lon="-5.782174"><ele>219.897</ele><time>2015-10-28T08:37:59Z</time></trkpt><trkpt lat="43.232128" lon="-5.782073"><ele>219.820</ele><time>2015-10-28T08:38:14Z</time></trkpt><trkpt lat="43.232331" lon="-5.781965"><ele>219.389</ele><time>2015-10-28T08:38:29Z</time></trkpt><trkpt lat="43.232537" lon="-5.781888"><ele>219.364</ele><time>2015-10-28T08:38:46Z</time></trkpt><trkpt lat="43.232790" lon="-5.781795"><ele>218.845</ele><time>2015-10-28T08:39:04Z</time></trkpt><trkpt lat="43.232988" lon="-5.781729"><ele>218.877</ele><time>2015-10-28T08:39:20Z</time></trkpt><trkpt lat="43.233143" lon="-5.781696"><ele>218.845</ele><time>2015-10-28T08:39:32Z</time></trkpt><trkpt lat="43.233212" lon="-5.781681"><ele>218.891</ele><time>2015-10-28T08:39:37Z</time></trkpt><trkpt lat="43.233456" lon="-5.781601"><ele>218.481</ele><time>2015-10-28T08:39:55Z</time></trkpt><trkpt lat="43.233668" lon="-5.781566"><ele>218.419</ele><time>2015-10-28T08:40:11Z</time></trkpt><trkpt lat="43.233908" lon="-5.781523"><ele>217.908</ele><time>2015-10-28T08:40:28Z</time></trkpt><trkpt lat="43.233992" lon="-5.781503"><ele>217.910</ele><time>2015-10-28T08:40:34Z</time></trkpt><trkpt lat="43.234230" lon="-5.781484"><ele>217.440</ele><time>2015-10-28T08:40:51Z</time></trkpt><trkpt lat="43.234502" lon="-5.781457"><ele>217.463</ele><time>2015-10-28T08:41:08Z</time></trkpt><trkpt lat="43.234722" lon="-5.781464"><ele>217.452</ele><time>2015-10-28T08:41:22Z</time></trkpt><trkpt lat="43.234998" lon="-5.781423"><ele>216.477</ele><time>2015-10-28T08:41:39Z</time></trkpt><trkpt lat="43.235039" lon="-5.781424"><ele>216.468</ele><time>2015-10-28T08:41:42Z</time></trkpt><trkpt lat="43.235299" lon="-5.781394"><ele>216.460</ele><time>2015-10-28T08:41:59Z</time></trkpt><trkpt lat="43.235379" lon="-5.781401"><ele>216.428</ele><time>2015-10-28T08:42:04Z</time></trkpt><trkpt lat="43.235455" lon="-5.781412"><ele>216.478</ele><time>2015-10-28T08:42:09Z</time></trkpt><trkpt lat="43.235539" lon="-5.781418"><ele>216.433</ele><time>2015-10-28T08:42:14Z</time></trkpt><trkpt lat="43.235653" lon="-5.781386"><ele>216.426</ele><time>2015-10-28T08:42:21Z</time></trkpt><trkpt lat="43.235845" lon="-5.781322"><ele>216.408</ele><time>2015-10-28T08:42:35Z</time></trkpt><trkpt lat="43.236003" lon="-5.781308"><ele>215.948</ele><time>2015-10-28T08:42:47Z</time></trkpt><trkpt lat="43.236100" lon="-5.781297"><ele>215.968</ele><time>2015-10-28T08:42:53Z</time></trkpt><trkpt lat="43.236215" lon="-5.781296"><ele>215.981</ele><time>2015-10-28T08:43:01Z</time></trkpt><trkpt lat="43.236465" lon="-5.781268"><ele>215.920</ele><time>2015-10-28T08:43:16Z</time></trkpt><trkpt lat="43.236672" lon="-5.781238"><ele>216.455</ele><time>2015-10-28T08:43:31Z</time></trkpt><trkpt lat="43.236923" lon="-5.781208"><ele>215.986</ele><time>2015-10-28T08:43:47Z</time></trkpt><trkpt lat="43.237136" lon="-5.781164"><ele>215.948</ele><time>2015-10-28T08:44:01Z</time></trkpt><trkpt lat="43.237353" lon="-5.781107"><ele>215.936</ele><time>2015-10-28T08:44:16Z</time></trkpt><trkpt lat="43.237452" lon="-5.781084"><ele>215.944</ele><time>2015-10-28T08:44:23Z</time></trkpt><trkpt lat="43.237754" lon="-5.781004"><ele>215.505</ele><time>2015-10-28T08:44:40Z</time></trkpt><trkpt lat="43.238010" lon="-5.780952"><ele>215.515</ele><time>2015-10-28T08:44:56Z</time></trkpt><trkpt lat="43.238205" lon="-5.780877"><ele>215.508</ele><time>2015-10-28T08:45:10Z</time></trkpt><trkpt lat="43.238259" lon="-5.780868"><ele>215.555</ele><time>2015-10-28T08:45:16Z</time></trkpt><trkpt lat="43.238495" lon="-5.780859"><ele>215.565</ele><time>2015-10-28T08:45:29Z</time></trkpt><trkpt lat="43.238557" lon="-5.780841"><ele>215.528</ele><time>2015-10-28T08:45:33Z</time></trkpt><trkpt lat="43.238799" lon="-5.780745"><ele>215.087</ele><time>2015-10-28T08:45:50Z</time></trkpt><trkpt lat="43.239022" lon="-5.780699"><ele>215.062</ele><time>2015-10-28T08:46:06Z</time></trkpt><trkpt lat="43.239239" lon="-5.780617"><ele>215.013</ele><time>2015-10-28T08:46:22Z</time></trkpt><trkpt lat="43.239463" lon="-5.780569"><ele>214.585</ele><time>2015-10-28T08:46:38Z</time></trkpt><trkpt lat="43.239706" lon="-5.780507"><ele>214.073</ele><time>2015-10-28T08:46:55Z</time></trkpt><trkpt lat="43.239920" lon="-5.780490"><ele>214.024</ele><time>2015-10-28T08:47:10Z</time></trkpt><trkpt lat="43.240157" lon="-5.780453"><ele>214.004</ele><time>2015-10-28T08:47:27Z</time></trkpt><trkpt lat="43.240205" lon="-5.780451"><ele>214.014</ele><time>2015-10-28T08:47:30Z</time></trkpt><trkpt lat="43.240334" lon="-5.780467"><ele>214.008</ele><time>2015-10-28T08:47:39Z</time></trkpt><trkpt lat="43.240611" lon="-5.780417"><ele>213.633</ele><time>2015-10-28T08:47:59Z</time></trkpt><trkpt lat="43.240841" lon="-5.780411"><ele>213.643</ele><time>2015-10-28T08:48:16Z</time></trkpt><trkpt lat="43.240958" lon="-5.780400"><ele>213.116</ele><time>2015-10-28T08:48:24Z</time></trkpt><trkpt lat="43.241202" lon="-5.780417"><ele>213.155</ele><time>2015-10-28T08:48:40Z</time></trkpt><trkpt lat="43.241428" lon="-5.780439"><ele>212.670</ele><time>2015-10-28T08:48:57Z</time></trkpt><trkpt lat="43.241693" lon="-5.780437"><ele>212.691</ele><time>2015-10-28T08:49:16Z</time></trkpt><trkpt lat="43.241923" lon="-5.780465"><ele>212.683</ele><time>2015-10-28T08:49:32Z</time></trkpt><trkpt lat="43.241935" lon="-5.780463"><ele>212.691</ele><time>2015-10-28T08:49:33Z</time></trkpt><trkpt lat="43.242049" lon="-5.780482"><ele>212.661</ele><time>2015-10-28T08:49:42Z</time></trkpt><trkpt lat="43.242170" lon="-5.780492"><ele>212.621</ele><time>2015-10-28T08:49:51Z</time></trkpt><trkpt lat="43.242270" lon="-5.780502"><ele>212.113</ele><time>2015-10-28T08:49:59Z</time></trkpt><trkpt lat="43.242338" lon="-5.780497"><ele>212.108</ele><time>2015-10-28T08:50:04Z</time></trkpt><trkpt lat="43.242418" lon="-5.780496"><ele>212.127</ele><time>2015-10-28T08:50:10Z</time></trkpt><trkpt lat="43.242494" lon="-5.780519"><ele>212.137</ele><time>2015-10-28T08:50:16Z</time></trkpt><trkpt lat="43.242583" lon="-5.780539"><ele>212.160</ele><time>2015-10-28T08:50:22Z</time></trkpt><trkpt lat="43.242823" lon="-5.780620"><ele>211.639</ele><time>2015-10-28T08:50:41Z</time></trkpt><trkpt lat="43.243107" lon="-5.780661"><ele>211.664</ele><time>2015-10-28T08:51:01Z</time></trkpt><trkpt lat="43.243368" lon="-5.780690"><ele>211.615</ele><time>2015-10-28T08:51:20Z</time></trkpt><trkpt lat="43.243609" lon="-5.780741"><ele>211.627</ele><time>2015-10-28T08:51:38Z</time></trkpt><trkpt lat="43.243647" lon="-5.780751"><ele>211.625</ele><time>2015-10-28T08:51:41Z</time></trkpt><trkpt lat="43.243702" lon="-5.780775"><ele>211.628</ele><time>2015-10-28T08:51:45Z</time></trkpt><trkpt lat="43.243849" lon="-5.780823"><ele>212.689</ele><time>2015-10-28T08:51:59Z</time></trkpt><trkpt lat="43.243903" lon="-5.780815"><ele>212.617</ele><time>2015-10-28T08:52:04Z</time></trkpt><trkpt lat="43.244023" lon="-5.780830"><ele>211.108</ele><time>2015-10-28T08:52:12Z</time></trkpt><trkpt lat="43.244248" lon="-5.780851"><ele>210.773</ele><time>2015-10-28T08:52:27Z</time></trkpt><trkpt lat="43.244484" lon="-5.780874"><ele>210.753</ele><time>2015-10-28T08:52:44Z</time></trkpt><trkpt lat="43.244694" lon="-5.780946"><ele>210.766</ele><time>2015-10-28T08:52:59Z</time></trkpt><trkpt lat="43.244927" lon="-5.780987"><ele>210.255</ele><time>2015-10-28T08:53:16Z</time></trkpt><trkpt lat="43.245185" lon="-5.781044"><ele>209.780</ele><time>2015-10-28T08:53:34Z</time></trkpt><trkpt lat="43.245413" lon="-5.781064"><ele>209.781</ele><time>2015-10-28T08:53:51Z</time></trkpt><trkpt lat="43.245677" lon="-5.781136"><ele>209.713</ele><time>2015-10-28T08:54:09Z</time></trkpt><trkpt lat="43.245692" lon="-5.781140"><ele>209.721</ele><time>2015-10-28T08:54:10Z</time></trkpt><trkpt lat="43.245933" lon="-5.781167"><ele>209.245</ele><time>2015-10-28T08:54:29Z</time></trkpt><trkpt lat="43.246161" lon="-5.781212"><ele>208.747</ele><time>2015-10-28T08:54:46Z</time></trkpt><trkpt lat="43.246233" lon="-5.781217"><ele>208.711</ele><time>2015-10-28T08:54:51Z</time></trkpt><trkpt lat="43.246291" lon="-5.781241"><ele>208.708</ele><time>2015-10-28T08:54:55Z</time></trkpt><trkpt lat="43.246514" lon="-5.781258"><ele>208.355</ele><time>2015-10-28T08:55:12Z</time></trkpt><trkpt lat="43.246708" lon="-5.781316"><ele>208.375</ele><time>2015-10-28T08:55:26Z</time></trkpt><trkpt lat="43.246854" lon="-5.781332"><ele>208.338</ele><time>2015-10-28T08:55:37Z</time></trkpt><trkpt lat="43.246964" lon="-5.781349"><ele>208.357</ele><time>2015-10-28T08:55:45Z</time></trkpt><trkpt lat="43.247186" lon="-5.781385"><ele>207.892</ele><time>2015-10-28T08:56:02Z</time></trkpt><trkpt lat="43.247410" lon="-5.781414"><ele>207.353</ele><time>2015-10-28T08:56:19Z</time></trkpt><trkpt lat="43.247486" lon="-5.781397"><ele>207.355</ele><time>2015-10-28T08:56:25Z</time></trkpt><trkpt lat="43.247706" lon="-5.781401"><ele>207.373</ele><time>2015-10-28T08:56:42Z</time></trkpt><trkpt lat="43.247848" lon="-5.781433"><ele>207.389</ele><time>2015-10-28T08:56:52Z</time></trkpt><trkpt lat="43.247996" lon="-5.781484"><ele>207.306</ele><time>2015-10-28T08:57:02Z</time></trkpt><trkpt lat="43.248222" lon="-5.781550"><ele>207.326</ele><time>2015-10-28T08:57:17Z</time></trkpt><trkpt lat="43.248409" lon="-5.781606"><ele>206.808</ele><time>2015-10-28T08:57:32Z</time></trkpt><trkpt lat="43.248477" lon="-5.781604"><ele>206.849</ele><time>2015-10-28T08:57:37Z</time></trkpt><trkpt lat="43.248729" lon="-5.781649"><ele>206.889</ele><time>2015-10-28T08:57:56Z</time></trkpt><trkpt lat="43.248834" lon="-5.781661"><ele>206.362</ele><time>2015-10-28T08:58:04Z</time></trkpt><trkpt lat="43.248883" lon="-5.781637"><ele>206.351</ele><time>2015-10-28T08:58:09Z</time></trkpt><trkpt lat="43.249111" lon="-5.781691"><ele>206.376</ele><time>2015-10-28T08:58:25Z</time></trkpt><trkpt lat="43.249155" lon="-5.781706"><ele>206.387</ele><time>2015-10-28T08:58:28Z</time></trkpt><trkpt lat="43.249207" lon="-5.781711"><ele>206.399</ele><time>2015-10-28T08:58:32Z</time></trkpt><trkpt lat="43.249446" lon="-5.781780"><ele>206.387</ele><time>2015-10-28T08:58:50Z</time></trkpt><trkpt lat="43.249532" lon="-5.781797"><ele>206.359</ele><time>2015-10-28T08:58:57Z</time></trkpt><trkpt lat="43.249576" lon="-5.781821"><ele>207.303</ele><time>2015-10-28T08:59:00Z</time></trkpt><trkpt lat="43.249777" lon="-5.781896"><ele>207.823</ele><time>2015-10-28T08:59:15Z</time></trkpt><trkpt lat="43.249995" lon="-5.781935"><ele>207.808</ele><time>2015-10-28T08:59:32Z</time></trkpt><trkpt lat="43.250071" lon="-5.781937"><ele>207.816</ele><time>2015-10-28T08:59:38Z</time></trkpt><trkpt lat="43.250140" lon="-5.781933"><ele>208.716</ele><time>2015-10-28T08:59:45Z</time></trkpt><trkpt lat="43.250151" lon="-5.781934"><ele>208.799</ele><time>2015-10-28T08:59:46Z</time></trkpt><trkpt lat="43.250398" lon="-5.781988"><ele>208.788</ele><time>2015-10-28T09:00:05Z</time></trkpt><trkpt lat="43.250590" lon="-5.782037"><ele>208.793</ele><time>2015-10-28T09:00:21Z</time></trkpt><trkpt lat="43.250613" lon="-5.782047"><ele>208.784</ele><time>2015-10-28T09:00:23Z</time></trkpt><trkpt lat="43.250693" lon="-5.782017"><ele>208.736</ele><time>2015-10-28T09:00:35Z</time></trkpt><trkpt lat="43.250674" lon="-5.781792"><ele>208.754</ele><time>2015-10-28T09:00:53Z</time></trkpt><trkpt lat="43.250645" lon="-5.781570"><ele>208.733</ele><time>2015-10-28T09:01:08Z</time></trkpt><trkpt lat="43.250630" lon="-5.781300"><ele>208.723</ele><time>2015-10-28T09:01:25Z</time></trkpt><trkpt lat="43.250692" lon="-5.781054"><ele>207.315</ele><time>2015-10-28T09:01:41Z</time></trkpt><trkpt lat="43.250698" lon="-5.781051"><ele>207.308</ele><time>2015-10-28T09:01:42Z</time></trkpt><trkpt lat="43.250726" lon="-5.781061"><ele>205.474</ele><time>2015-10-28T09:02:01Z</time></trkpt><trkpt lat="43.250723" lon="-5.780911"><ele>204.984</ele><time>2015-10-28T09:02:07Z</time></trkpt><trkpt lat="43.250726" lon="-5.780669"><ele>206.327</ele><time>2015-10-28T09:02:19Z</time></trkpt><trkpt lat="43.250722" lon="-5.780652"><ele>207.856</ele><time>2015-10-28T09:02:25Z</time></trkpt><trkpt lat="43.250681" lon="-5.780630"><ele>207.891</ele><time>2015-10-28T09:02:30Z</time></trkpt><trkpt lat="43.250634" lon="-5.780540"><ele>210.222</ele><time>2015-10-28T09:02:45Z</time></trkpt><trkpt lat="43.250626" lon="-5.780523"><ele>210.764</ele><time>2015-10-28T09:02:48Z</time></trkpt><trkpt lat="43.250622" lon="-5.780409"><ele>211.142</ele><time>2015-10-28T09:02:54Z</time></trkpt><trkpt lat="43.250613" lon="-5.780163"><ele>209.292</ele><time>2015-10-28T09:03:13Z</time></trkpt><trkpt lat="43.250621" lon="-5.780070"><ele>206.873</ele><time>2015-10-28T09:03:24Z</time></trkpt><trkpt lat="43.250594" lon="-5.779884"><ele>206.320</ele><time>2015-10-28T09:03:41Z</time></trkpt><trkpt lat="43.250593" lon="-5.779874"><ele>206.808</ele><time>2015-10-28T09:03:42Z</time></trkpt><trkpt lat="43.250574" lon="-5.779753"><ele>206.820</ele><time>2015-10-28T09:03:56Z</time></trkpt><trkpt lat="43.250574" lon="-5.779696"><ele>206.390</ele><time>2015-10-28T09:04:00Z</time></trkpt><trkpt lat="43.250524" lon="-5.779499"><ele>206.313</ele><time>2015-10-28T09:04:14Z</time></trkpt><trkpt lat="43.250516" lon="-5.779287"><ele>206.322</ele><time>2015-10-28T09:04:28Z</time></trkpt><trkpt lat="43.250442" lon="-5.779067"><ele>206.397</ele><time>2015-10-28T09:04:41Z</time></trkpt><trkpt lat="43.250428" lon="-5.779060"><ele>206.378</ele><time>2015-10-28T09:04:42Z</time></trkpt><trkpt lat="43.250384" lon="-5.778910"><ele>206.360</ele><time>2015-10-28T09:04:51Z</time></trkpt><trkpt lat="43.250384" lon="-5.778687"><ele>205.948</ele><time>2015-10-28T09:05:04Z</time></trkpt><trkpt lat="43.250486" lon="-5.778447"><ele>205.439</ele><time>2015-10-28T09:05:20Z</time></trkpt><trkpt lat="43.250492" lon="-5.778413"><ele>205.901</ele><time>2015-10-28T09:05:31Z</time></trkpt><trkpt lat="43.250502" lon="-5.778387"><ele>205.921</ele><time>2015-10-28T09:05:43Z</time></trkpt><trkpt lat="43.250577" lon="-5.778387"><ele>206.308</ele><time>2015-10-28T09:05:57Z</time></trkpt><trkpt lat="43.250561" lon="-5.778380"><ele>206.314</ele><time>2015-10-28T09:06:09Z</time></trkpt><trkpt lat="43.250509" lon="-5.778352"><ele>206.384</ele><time>2015-10-28T09:06:15Z</time></trkpt><trkpt lat="43.250344" lon="-5.777976"><ele>206.877</ele><time>2015-10-28T09:06:31Z</time></trkpt><trkpt lat="43.250325" lon="-5.777905"><ele>206.886</ele><time>2015-10-28T09:06:35Z</time></trkpt><trkpt lat="43.250292" lon="-5.777857"><ele>206.871</ele><time>2015-10-28T09:06:38Z</time></trkpt><trkpt lat="43.250265" lon="-5.777790"><ele>207.332</ele><time>2015-10-28T09:06:43Z</time></trkpt><trkpt lat="43.250173" lon="-5.777589"><ele>207.314</ele><time>2015-10-28T09:06:57Z</time></trkpt><trkpt lat="43.250126" lon="-5.777422"><ele>207.852</ele><time>2015-10-28T09:07:09Z</time></trkpt><trkpt lat="43.250128" lon="-5.777336"><ele>207.832</ele><time>2015-10-28T09:07:15Z</time></trkpt><trkpt lat="43.250188" lon="-5.777032"><ele>208.392</ele><time>2015-10-28T09:07:30Z</time></trkpt><trkpt lat="43.250243" lon="-5.776970"><ele>208.711</ele><time>2015-10-28T09:07:43Z</time></trkpt><trkpt lat="43.250424" lon="-5.776865"><ele>208.708</ele><time>2015-10-28T09:07:57Z</time></trkpt><trkpt lat="43.250529" lon="-5.776816"><ele>209.234</ele><time>2015-10-28T09:08:10Z</time></trkpt><trkpt lat="43.250556" lon="-5.776873"><ele>209.724</ele><time>2015-10-28T09:08:27Z</time></trkpt><trkpt lat="43.250488" lon="-5.776900"><ele>210.237</ele><time>2015-10-28T09:08:41Z</time></trkpt><trkpt lat="43.250488" lon="-5.776745"><ele>210.716</ele><time>2015-10-28T09:08:55Z</time></trkpt><trkpt lat="43.250397" lon="-5.776497"><ele>211.151</ele><time>2015-10-28T09:09:09Z</time></trkpt><trkpt lat="43.250316" lon="-5.776337"><ele>211.622</ele><time>2015-10-28T09:09:24Z</time></trkpt><trkpt lat="43.250313" lon="-5.776251"><ele>211.684</ele><time>2015-10-28T09:09:32Z</time></trkpt><trkpt lat="43.250325" lon="-5.776053"><ele>212.142</ele><time>2015-10-28T09:09:46Z</time></trkpt><trkpt lat="43.250393" lon="-5.775873"><ele>212.165</ele><time>2015-10-28T09:10:01Z</time></trkpt><trkpt lat="43.250394" lon="-5.775646"><ele>212.668</ele><time>2015-10-28T09:10:15Z</time></trkpt><trkpt lat="43.250347" lon="-5.775379"><ele>213.614</ele><time>2015-10-28T09:10:31Z</time></trkpt><trkpt lat="43.250248" lon="-5.775076"><ele>214.008</ele><time>2015-10-28T09:10:49Z</time></trkpt><trkpt lat="43.250166" lon="-5.774899"><ele>214.527</ele><time>2015-10-28T09:11:02Z</time></trkpt><trkpt lat="43.250118" lon="-5.774797"><ele>214.517</ele><time>2015-10-28T09:11:13Z</time></trkpt><trkpt lat="43.250108" lon="-5.774792"><ele>214.550</ele><time>2015-10-28T09:11:14Z</time></trkpt><trkpt lat="43.250025" lon="-5.774696"><ele>215.979</ele><time>2015-10-28T09:11:23Z</time></trkpt><trkpt lat="43.249949" lon="-5.774545"><ele>216.954</ele><time>2015-10-28T09:11:36Z</time></trkpt><trkpt lat="43.249939" lon="-5.774525"><ele>216.935</ele><time>2015-10-28T09:11:38Z</time></trkpt><trkpt lat="43.249908" lon="-5.774428"><ele>216.937</ele><time>2015-10-28T09:11:45Z</time></trkpt><trkpt lat="43.249911" lon="-5.774295"><ele>217.445</ele><time>2015-10-28T09:11:53Z</time></trkpt><trkpt lat="43.249898" lon="-5.774255"><ele>217.442</ele><time>2015-10-28T09:11:56Z</time></trkpt><trkpt lat="43.249950" lon="-5.774023"><ele>217.922</ele><time>2015-10-28T09:12:12Z</time></trkpt><trkpt lat="43.249966" lon="-5.773993"><ele>217.914</ele><time>2015-10-28T09:12:15Z</time></trkpt><trkpt lat="43.250005" lon="-5.773840"><ele>218.808</ele><time>2015-10-28T09:12:25Z</time></trkpt><trkpt lat="43.250010" lon="-5.773810"><ele>218.835</ele><time>2015-10-28T09:12:27Z</time></trkpt><trkpt lat="43.250025" lon="-5.773719"><ele>219.335</ele><time>2015-10-28T09:12:33Z</time></trkpt><trkpt lat="43.250025" lon="-5.773611"><ele>219.358</ele><time>2015-10-28T09:12:39Z</time></trkpt><trkpt lat="43.250009" lon="-5.773453"><ele>219.887</ele><time>2015-10-28T09:12:49Z</time></trkpt><trkpt lat="43.250017" lon="-5.773239"><ele>220.842</ele><time>2015-10-28T09:13:04Z</time></trkpt><trkpt lat="43.249984" lon="-5.773012"><ele>220.823</ele><time>2015-10-28T09:13:19Z</time></trkpt><trkpt lat="43.249995" lon="-5.772810"><ele>221.255</ele><time>2015-10-28T09:13:32Z</time></trkpt><trkpt lat="43.250005" lon="-5.772547"><ele>222.273</ele><time>2015-10-28T09:13:50Z</time></trkpt><trkpt lat="43.249974" lon="-5.772347"><ele>222.749</ele><time>2015-10-28T09:14:05Z</time></trkpt><trkpt lat="43.249976" lon="-5.772231"><ele>222.702</ele><time>2015-10-28T09:14:18Z</time></trkpt><trkpt lat="43.250142" lon="-5.772142"><ele>223.222</ele><time>2015-10-28T09:14:33Z</time></trkpt><trkpt lat="43.250225" lon="-5.772119"><ele>223.608</ele><time>2015-10-28T09:14:52Z</time></trkpt><trkpt lat="43.250242" lon="-5.772065"><ele>223.655</ele><time>2015-10-28T09:15:07Z</time></trkpt><trkpt lat="43.250241" lon="-5.772038"><ele>223.635</ele><time>2015-10-28T09:15:13Z</time></trkpt><trkpt lat="43.251032" lon="-5.771722"><ele>203.538</ele><time>2015-10-28T09:45:59Z</time></trkpt><trkpt lat="43.251125" lon="-5.771718"><ele>202.527</ele><time>2015-10-28T09:46:14Z</time></trkpt><trkpt lat="43.251197" lon="-5.771744"><ele>202.512</ele><time>2015-10-28T09:46:28Z</time></trkpt><trkpt lat="43.251653" lon="-5.772181"><ele>202.543</ele><time>2015-10-28T09:46:43Z</time></trkpt><trkpt lat="43.251775" lon="-5.771860"><ele>202.545</ele><time>2015-10-28T09:46:59Z</time></trkpt><trkpt lat="43.252000" lon="-5.771667"><ele>202.543</ele><time>2015-10-28T09:47:14Z</time></trkpt><trkpt lat="43.252117" lon="-5.771685"><ele>203.087</ele><time>2015-10-28T09:47:30Z</time></trkpt><trkpt lat="43.252141" lon="-5.771693"><ele>203.942</ele><time>2015-10-28T09:47:34Z</time></trkpt><trkpt lat="43.252408" lon="-5.771678"><ele>204.926</ele><time>2015-10-28T09:47:54Z</time></trkpt><trkpt lat="43.252504" lon="-5.771782"><ele>204.908</ele><time>2015-10-28T09:48:08Z</time></trkpt><trkpt lat="43.252688" lon="-5.771878"><ele>203.949</ele><time>2015-10-28T09:48:26Z</time></trkpt><trkpt lat="43.252721" lon="-5.771898"><ele>203.519</ele><time>2015-10-28T09:48:32Z</time></trkpt><trkpt lat="43.252745" lon="-5.771933"><ele>203.512</ele><time>2015-10-28T09:48:36Z</time></trkpt><trkpt lat="43.252859" lon="-5.772078"><ele>203.541</ele><time>2015-10-28T09:48:53Z</time></trkpt><trkpt lat="43.252944" lon="-5.772000"><ele>203.556</ele><time>2015-10-28T09:49:08Z</time></trkpt><trkpt lat="43.253004" lon="-5.772175"><ele>203.537</ele><time>2015-10-28T09:49:19Z</time></trkpt><trkpt lat="43.253180" lon="-5.772287"><ele>203.529</ele><time>2015-10-28T09:49:38Z</time></trkpt><trkpt lat="43.253404" lon="-5.772318"><ele>203.977</ele><time>2015-10-28T09:49:53Z</time></trkpt><trkpt lat="43.253501" lon="-5.772473"><ele>203.988</ele><time>2015-10-28T09:50:09Z</time></trkpt><trkpt lat="43.253711" lon="-5.772473"><ele>204.424</ele><time>2015-10-28T09:50:27Z</time></trkpt><trkpt lat="43.253785" lon="-5.772621"><ele>204.926</ele><time>2015-10-28T09:50:38Z</time></trkpt><trkpt lat="43.253886" lon="-5.772835"><ele>205.408</ele><time>2015-10-28T09:50:53Z</time></trkpt><trkpt lat="43.253890" lon="-5.772880"><ele>205.459</ele><time>2015-10-28T09:50:55Z</time></trkpt><trkpt lat="43.253936" lon="-5.773221"><ele>205.939</ele><time>2015-10-28T09:51:08Z</time></trkpt><trkpt lat="43.254019" lon="-5.773399"><ele>205.912</ele><time>2015-10-28T09:51:21Z</time></trkpt><trkpt lat="43.254244" lon="-5.773240"><ele>205.991</ele><time>2015-10-28T09:51:32Z</time></trkpt><trkpt lat="43.254548" lon="-5.773475"><ele>206.386</ele><time>2015-10-28T09:51:50Z</time></trkpt><trkpt lat="43.254704" lon="-5.773768"><ele>206.817</ele><time>2015-10-28T09:52:07Z</time></trkpt><trkpt lat="43.254798" lon="-5.774012"><ele>207.359</ele><time>2015-10-28T09:52:23Z</time></trkpt><trkpt lat="43.254905" lon="-5.774131"><ele>207.387</ele><time>2015-10-28T09:52:41Z</time></trkpt><trkpt lat="43.255160" lon="-5.774247"><ele>207.855</ele><time>2015-10-28T09:52:57Z</time></trkpt><trkpt lat="43.255335" lon="-5.774531"><ele>208.307</ele><time>2015-10-28T09:53:15Z</time></trkpt><trkpt lat="43.255449" lon="-5.774703"><ele>208.717</ele><time>2015-10-28T09:53:30Z</time></trkpt><trkpt lat="43.255571" lon="-5.774857"><ele>208.708</ele><time>2015-10-28T09:53:45Z</time></trkpt><trkpt lat="43.255694" lon="-5.775004"><ele>209.226</ele><time>2015-10-28T09:54:01Z</time></trkpt><trkpt lat="43.255858" lon="-5.775176"><ele>209.726</ele><time>2015-10-28T09:54:17Z</time></trkpt><trkpt lat="43.255860" lon="-5.775377"><ele>209.719</ele><time>2015-10-28T09:54:29Z</time></trkpt><trkpt lat="43.255868" lon="-5.775486"><ele>209.748</ele><time>2015-10-28T09:54:39Z</time></trkpt><trkpt lat="43.255986" lon="-5.775403"><ele>210.273</ele><time>2015-10-28T09:54:48Z</time></trkpt><trkpt lat="43.256007" lon="-5.775395"><ele>210.254</ele><time>2015-10-28T09:54:52Z</time></trkpt><trkpt lat="43.256040" lon="-5.775455"><ele>210.266</ele><time>2015-10-28T09:54:57Z</time></trkpt><trkpt lat="43.256066" lon="-5.775489"><ele>210.214</ele><time>2015-10-28T09:55:01Z</time></trkpt><trkpt lat="43.256162" lon="-5.775574"><ele>210.753</ele><time>2015-10-28T09:55:14Z</time></trkpt><trkpt lat="43.256243" lon="-5.775673"><ele>210.704</ele><time>2015-10-28T09:55:27Z</time></trkpt><trkpt lat="43.256261" lon="-5.775693"><ele>210.714</ele><time>2015-10-28T09:55:29Z</time></trkpt><trkpt lat="43.256326" lon="-5.775736"><ele>211.108</ele><time>2015-10-28T09:55:36Z</time></trkpt><trkpt lat="43.256726" lon="-5.775738"><ele>210.736</ele><time>2015-10-28T09:55:54Z</time></trkpt><trkpt lat="43.256738" lon="-5.775737"><ele>210.756</ele><time>2015-10-28T09:55:55Z</time></trkpt><trkpt lat="43.256944" lon="-5.775860"><ele>210.799</ele><time>2015-10-28T09:56:11Z</time></trkpt><trkpt lat="43.257068" lon="-5.775995"><ele>210.788</ele><time>2015-10-28T09:56:22Z</time></trkpt><trkpt lat="43.257247" lon="-5.776145"><ele>210.763</ele><time>2015-10-28T09:56:38Z</time></trkpt><trkpt lat="43.257308" lon="-5.776226"><ele>211.174</ele><time>2015-10-28T09:56:45Z</time></trkpt><trkpt lat="43.257426" lon="-5.776428"><ele>211.166</ele><time>2015-10-28T09:57:00Z</time></trkpt><trkpt lat="43.257511" lon="-5.776621"><ele>211.614</ele><time>2015-10-28T09:57:13Z</time></trkpt><trkpt lat="43.257657" lon="-5.776922"><ele>212.138</ele><time>2015-10-28T09:57:32Z</time></trkpt><trkpt lat="43.257693" lon="-5.777053"><ele>212.170</ele><time>2015-10-28T09:57:47Z</time></trkpt><trkpt lat="43.257694" lon="-5.777060"><ele>212.117</ele><time>2015-10-28T09:57:48Z</time></trkpt><trkpt lat="43.257704" lon="-5.777089"><ele>212.108</ele><time>2015-10-28T09:57:51Z</time></trkpt><trkpt lat="43.257707" lon="-5.777180"><ele>212.184</ele><time>2015-10-28T09:57:57Z</time></trkpt><trkpt lat="43.257740" lon="-5.777192"><ele>212.614</ele><time>2015-10-28T09:58:12Z</time></trkpt><trkpt lat="43.257786" lon="-5.777222"><ele>212.697</ele><time>2015-10-28T09:58:21Z</time></trkpt><trkpt lat="43.257913" lon="-5.777306"><ele>212.676</ele><time>2015-10-28T09:58:38Z</time></trkpt><trkpt lat="43.258092" lon="-5.777395"><ele>212.671</ele><time>2015-10-28T09:58:56Z</time></trkpt><trkpt lat="43.258234" lon="-5.777479"><ele>212.692</ele><time>2015-10-28T09:59:09Z</time></trkpt><trkpt lat="43.258330" lon="-5.777592"><ele>212.614</ele><time>2015-10-28T09:59:18Z</time></trkpt><trkpt lat="43.258406" lon="-5.777668"><ele>212.622</ele><time>2015-10-28T09:59:25Z</time></trkpt><trkpt lat="43.258559" lon="-5.777846"><ele>212.654</ele><time>2015-10-28T09:59:43Z</time></trkpt><trkpt lat="43.258747" lon="-5.777980"><ele>213.156</ele><time>2015-10-28T10:00:02Z</time></trkpt><trkpt lat="43.258903" lon="-5.778052"><ele>213.111</ele><time>2015-10-28T10:00:18Z</time></trkpt><trkpt lat="43.258998" lon="-5.778080"><ele>213.108</ele><time>2015-10-28T10:00:28Z</time></trkpt><trkpt lat="43.259207" lon="-5.778141"><ele>213.626</ele><time>2015-10-28T10:00:45Z</time></trkpt><trkpt lat="43.259537" lon="-5.778163"><ele>212.646</ele><time>2015-10-28T10:01:04Z</time></trkpt><trkpt lat="43.259810" lon="-5.778235"><ele>212.129</ele><time>2015-10-28T10:01:24Z</time></trkpt><trkpt lat="43.260025" lon="-5.778351"><ele>211.188</ele><time>2015-10-28T10:01:42Z</time></trkpt><trkpt lat="43.260230" lon="-5.778492"><ele>210.793</ele><time>2015-10-28T10:02:00Z</time></trkpt><trkpt lat="43.260441" lon="-5.778687"><ele>210.764</ele><time>2015-10-28T10:02:20Z</time></trkpt><trkpt lat="43.260619" lon="-5.778850"><ele>210.766</ele><time>2015-10-28T10:02:36Z</time></trkpt><trkpt lat="43.260799" lon="-5.778990"><ele>210.784</ele><time>2015-10-28T10:02:53Z</time></trkpt><trkpt lat="43.260989" lon="-5.779054"><ele>210.739</ele><time>2015-10-28T10:03:10Z</time></trkpt><trkpt lat="43.261175" lon="-5.779131"><ele>210.701</ele><time>2015-10-28T10:03:30Z</time></trkpt><trkpt lat="43.261329" lon="-5.779114"><ele>212.121</ele><time>2015-10-28T10:03:44Z</time></trkpt><trkpt lat="43.261556" lon="-5.779247"><ele>212.608</ele><time>2015-10-28T10:04:02Z</time></trkpt><trkpt lat="43.261742" lon="-5.779566"><ele>212.624</ele><time>2015-10-28T10:04:18Z</time></trkpt><trkpt lat="43.261810" lon="-5.779716"><ele>213.144</ele><time>2015-10-28T10:04:29Z</time></trkpt><trkpt lat="43.261923" lon="-5.780087"><ele>213.147</ele><time>2015-10-28T10:04:48Z</time></trkpt><trkpt lat="43.262006" lon="-5.780330"><ele>211.676</ele><time>2015-10-28T10:05:05Z</time></trkpt><trkpt lat="43.262128" lon="-5.780511"><ele>211.141</ele><time>2015-10-28T10:05:25Z</time></trkpt><trkpt lat="43.262207" lon="-5.780541"><ele>211.132</ele><time>2015-10-28T10:05:32Z</time></trkpt><trkpt lat="43.262365" lon="-5.780728"><ele>211.174</ele><time>2015-10-28T10:05:46Z</time></trkpt><trkpt lat="43.262486" lon="-5.780830"><ele>211.172</ele><time>2015-10-28T10:06:00Z</time></trkpt><trkpt lat="43.262625" lon="-5.780999"><ele>212.631</ele><time>2015-10-28T10:06:14Z</time></trkpt><trkpt lat="43.262645" lon="-5.781028"><ele>211.661</ele><time>2015-10-28T10:06:17Z</time></trkpt><trkpt lat="43.262825" lon="-5.781102"><ele>211.607</ele><time>2015-10-28T10:06:34Z</time></trkpt><trkpt lat="43.262967" lon="-5.781298"><ele>211.608</ele><time>2015-10-28T10:06:51Z</time></trkpt><trkpt lat="43.263084" lon="-5.781557"><ele>211.684</ele><time>2015-10-28T10:07:08Z</time></trkpt><trkpt lat="43.263183" lon="-5.781800"><ele>211.624</ele><time>2015-10-28T10:07:24Z</time></trkpt><trkpt lat="43.263243" lon="-5.781968"><ele>211.647</ele><time>2015-10-28T10:07:44Z</time></trkpt><trkpt lat="43.263231" lon="-5.782276"><ele>211.656</ele><time>2015-10-28T10:08:03Z</time></trkpt><trkpt lat="43.263221" lon="-5.782557"><ele>211.191</ele><time>2015-10-28T10:08:19Z</time></trkpt><trkpt lat="43.263209" lon="-5.782721"><ele>211.152</ele><time>2015-10-28T10:08:29Z</time></trkpt><trkpt lat="43.263207" lon="-5.782797"><ele>211.194</ele><time>2015-10-28T10:08:34Z</time></trkpt><trkpt lat="43.263183" lon="-5.782841"><ele>211.112</ele><time>2015-10-28T10:08:42Z</time></trkpt><trkpt lat="43.263089" lon="-5.783077"><ele>211.625</ele><time>2015-10-28T10:08:59Z</time></trkpt><trkpt lat="43.263176" lon="-5.783332"><ele>211.126</ele><time>2015-10-28T10:09:14Z</time></trkpt><trkpt lat="43.263271" lon="-5.783471"><ele>211.108</ele><time>2015-10-28T10:09:24Z</time></trkpt><trkpt lat="43.263316" lon="-5.783500"><ele>211.108</ele><time>2015-10-28T10:09:28Z</time></trkpt><trkpt lat="43.263409" lon="-5.783603"><ele>211.623</ele><time>2015-10-28T10:09:37Z</time></trkpt><trkpt lat="43.263542" lon="-5.783753"><ele>211.653</ele><time>2015-10-28T10:09:51Z</time></trkpt><trkpt lat="43.263701" lon="-5.784021"><ele>211.656</ele><time>2015-10-28T10:10:11Z</time></trkpt><trkpt lat="43.263813" lon="-5.784250"><ele>211.665</ele><time>2015-10-28T10:10:27Z</time></trkpt><trkpt lat="43.263845" lon="-5.784331"><ele>211.650</ele><time>2015-10-28T10:10:33Z</time></trkpt><trkpt lat="43.263961" lon="-5.784585"><ele>213.641</ele><time>2015-10-28T10:10:51Z</time></trkpt><trkpt lat="43.264040" lon="-5.784847"><ele>214.083</ele><time>2015-10-28T10:11:08Z</time></trkpt><trkpt lat="43.264082" lon="-5.785130"><ele>215.011</ele><time>2015-10-28T10:11:26Z</time></trkpt><trkpt lat="43.264127" lon="-5.785317"><ele>215.563</ele><time>2015-10-28T10:11:39Z</time></trkpt><trkpt lat="43.264141" lon="-5.785578"><ele>216.444</ele><time>2015-10-28T10:11:56Z</time></trkpt><trkpt lat="43.264194" lon="-5.785812"><ele>217.418</ele><time>2015-10-28T10:12:11Z</time></trkpt><trkpt lat="43.264181" lon="-5.786026"><ele>218.808</ele><time>2015-10-28T10:12:28Z</time></trkpt><trkpt lat="43.264213" lon="-5.786271"><ele>219.817</ele><time>2015-10-28T10:12:43Z</time></trkpt><trkpt lat="43.264267" lon="-5.786574"><ele>220.847</ele><time>2015-10-28T10:13:01Z</time></trkpt><trkpt lat="43.264332" lon="-5.786812"><ele>222.230</ele><time>2015-10-28T10:13:18Z</time></trkpt><trkpt lat="43.264365" lon="-5.787061"><ele>222.729</ele><time>2015-10-28T10:13:35Z</time></trkpt><trkpt lat="43.264432" lon="-5.787313"><ele>223.694</ele><time>2015-10-28T10:13:54Z</time></trkpt><trkpt lat="43.264503" lon="-5.787578"><ele>224.175</ele><time>2015-10-28T10:14:12Z</time></trkpt><trkpt lat="43.264549" lon="-5.787813"><ele>225.187</ele><time>2015-10-28T10:14:29Z</time></trkpt><trkpt lat="43.264619" lon="-5.788025"><ele>226.175</ele><time>2015-10-28T10:14:45Z</time></trkpt><trkpt lat="43.264722" lon="-5.788245"><ele>227.062</ele><time>2015-10-28T10:15:03Z</time></trkpt><trkpt lat="43.264822" lon="-5.788428"><ele>228.083</ele><time>2015-10-28T10:15:20Z</time></trkpt><trkpt lat="43.264891" lon="-5.788663"><ele>228.911</ele><time>2015-10-28T10:15:39Z</time></trkpt><trkpt lat="43.264959" lon="-5.788843"><ele>229.908</ele><time>2015-10-28T10:15:54Z</time></trkpt><trkpt lat="43.265019" lon="-5.788894"><ele>230.997</ele><time>2015-10-28T10:16:05Z</time></trkpt><trkpt lat="43.265209" lon="-5.788937"><ele>231.347</ele><time>2015-10-28T10:16:21Z</time></trkpt><trkpt lat="43.265313" lon="-5.789141"><ele>232.310</ele><time>2015-10-28T10:16:38Z</time></trkpt><trkpt lat="43.265348" lon="-5.789241"><ele>232.899</ele><time>2015-10-28T10:16:45Z</time></trkpt><trkpt lat="43.265447" lon="-5.789504"><ele>233.794</ele><time>2015-10-28T10:17:02Z</time></trkpt><trkpt lat="43.265581" lon="-5.789762"><ele>235.235</ele><time>2015-10-28T10:17:22Z</time></trkpt><trkpt lat="43.265686" lon="-5.789953"><ele>236.167</ele><time>2015-10-28T10:17:39Z</time></trkpt><trkpt lat="43.265753" lon="-5.790093"><ele>237.635</ele><time>2015-10-28T10:17:53Z</time></trkpt><trkpt lat="43.265837" lon="-5.790284"><ele>239.011</ele><time>2015-10-28T10:18:09Z</time></trkpt><trkpt lat="43.265904" lon="-5.790381"><ele>239.521</ele><time>2015-10-28T10:18:17Z</time></trkpt><trkpt lat="43.265986" lon="-5.790553"><ele>240.503</ele><time>2015-10-28T10:18:31Z</time></trkpt><trkpt lat="43.266073" lon="-5.790792"><ele>241.408</ele><time>2015-10-28T10:18:46Z</time></trkpt><trkpt lat="43.266131" lon="-5.791023"><ele>243.452</ele><time>2015-10-28T10:19:02Z</time></trkpt><trkpt lat="43.266200" lon="-5.791286"><ele>244.822</ele><time>2015-10-28T10:19:21Z</time></trkpt><trkpt lat="43.266295" lon="-5.791388"><ele>246.215</ele><time>2015-10-28T10:19:39Z</time></trkpt><trkpt lat="43.266423" lon="-5.791412"><ele>248.244</ele><time>2015-10-28T10:19:56Z</time></trkpt><trkpt lat="43.266570" lon="-5.791476"><ele>250.189</ele><time>2015-10-28T10:20:14Z</time></trkpt><trkpt lat="43.266732" lon="-5.791541"><ele>251.550</ele><time>2015-10-28T10:20:31Z</time></trkpt><trkpt lat="43.266897" lon="-5.791663"><ele>253.442</ele><time>2015-10-28T10:20:47Z</time></trkpt><trkpt lat="43.267031" lon="-5.791899"><ele>254.960</ele><time>2015-10-28T10:21:02Z</time></trkpt><trkpt lat="43.267175" lon="-5.792199"><ele>257.348</ele><time>2015-10-28T10:21:22Z</time></trkpt><trkpt lat="43.267281" lon="-5.792468"><ele>259.761</ele><time>2015-10-28T10:21:41Z</time></trkpt><trkpt lat="43.267318" lon="-5.792531"><ele>260.217</ele><time>2015-10-28T10:21:47Z</time></trkpt><trkpt lat="43.267445" lon="-5.792693"><ele>262.108</ele><time>2015-10-28T10:22:06Z</time></trkpt><trkpt lat="43.267529" lon="-5.792722"><ele>263.165</ele><time>2015-10-28T10:22:17Z</time></trkpt><trkpt lat="43.267744" lon="-5.792684"><ele>264.525</ele><time>2015-10-28T10:22:35Z</time></trkpt><trkpt lat="43.267934" lon="-5.792646"><ele>266.498</ele><time>2015-10-28T10:22:54Z</time></trkpt><trkpt lat="43.268054" lon="-5.792499"><ele>267.927</ele><time>2015-10-28T10:23:11Z</time></trkpt><trkpt lat="43.268219" lon="-5.792326"><ele>269.892</ele><time>2015-10-28T10:23:31Z</time></trkpt><trkpt lat="43.268377" lon="-5.792293"><ele>272.283</ele><time>2015-10-28T10:23:47Z</time></trkpt><trkpt lat="43.268552" lon="-5.792342"><ele>274.615</ele><time>2015-10-28T10:24:06Z</time></trkpt><trkpt lat="43.268786" lon="-5.792352"><ele>276.083</ele><time>2015-10-28T10:24:25Z</time></trkpt><trkpt lat="43.268965" lon="-5.792449"><ele>277.531</ele><time>2015-10-28T10:24:41Z</time></trkpt><trkpt lat="43.269167" lon="-5.792582"><ele>279.461</ele><time>2015-10-28T10:24:59Z</time></trkpt><trkpt lat="43.269327" lon="-5.792678"><ele>281.307</ele><time>2015-10-28T10:25:14Z</time></trkpt><trkpt lat="43.269510" lon="-5.792815"><ele>283.208</ele><time>2015-10-28T10:25:32Z</time></trkpt><trkpt lat="43.269696" lon="-5.792866"><ele>285.294</ele><time>2015-10-28T10:25:51Z</time></trkpt><trkpt lat="43.269922" lon="-5.792833"><ele>286.674</ele><time>2015-10-28T10:26:09Z</time></trkpt><trkpt lat="43.270116" lon="-5.792719"><ele>288.567</ele><time>2015-10-28T10:26:28Z</time></trkpt><trkpt lat="43.270309" lon="-5.792551"><ele>290.946</ele><time>2015-10-28T10:26:49Z</time></trkpt><trkpt lat="43.270472" lon="-5.792482"><ele>292.911</ele><time>2015-10-28T10:27:06Z</time></trkpt><trkpt lat="43.270501" lon="-5.792538"><ele>293.312</ele><time>2015-10-28T10:27:10Z</time></trkpt><trkpt lat="43.270568" lon="-5.792834"><ele>294.834</ele><time>2015-10-28T10:27:28Z</time></trkpt><trkpt lat="43.270617" lon="-5.792956"><ele>295.772</ele><time>2015-10-28T10:27:36Z</time></trkpt><trkpt lat="43.270656" lon="-5.793004"><ele>296.292</ele><time>2015-10-28T10:27:40Z</time></trkpt><trkpt lat="43.270745" lon="-5.793232"><ele>297.273</ele><time>2015-10-28T10:27:56Z</time></trkpt><trkpt lat="43.270764" lon="-5.793272"><ele>298.120</ele><time>2015-10-28T10:28:01Z</time></trkpt><trkpt lat="43.270793" lon="-5.793260"><ele>298.108</ele><time>2015-10-28T10:28:06Z</time></trkpt><trkpt lat="43.270857" lon="-5.793114"><ele>300.190</ele><time>2015-10-28T10:28:23Z</time></trkpt><trkpt lat="43.270830" lon="-5.792889"><ele>302.010</ele><time>2015-10-28T10:28:40Z</time></trkpt><trkpt lat="43.270929" lon="-5.792873"><ele>304.413</ele><time>2015-10-28T10:28:53Z</time></trkpt><trkpt lat="43.270987" lon="-5.793084"><ele>305.882</ele><time>2015-10-28T10:29:08Z</time></trkpt><trkpt lat="43.271031" lon="-5.793294"><ele>307.387</ele><time>2015-10-28T10:29:23Z</time></trkpt><trkpt lat="43.271095" lon="-5.793528"><ele>309.278</ele><time>2015-10-28T10:29:40Z</time></trkpt><trkpt lat="43.271121" lon="-5.793816"><ele>310.650</ele><time>2015-10-28T10:29:58Z</time></trkpt><trkpt lat="43.271130" lon="-5.794056"><ele>312.118</ele><time>2015-10-28T10:30:13Z</time></trkpt><trkpt lat="43.271103" lon="-5.794330"><ele>313.589</ele><time>2015-10-28T10:30:30Z</time></trkpt><trkpt lat="43.271000" lon="-5.794591"><ele>315.506</ele><time>2015-10-28T10:30:49Z</time></trkpt><trkpt lat="43.270923" lon="-5.794770"><ele>316.926</ele><time>2015-10-28T10:31:04Z</time></trkpt><trkpt lat="43.270945" lon="-5.794899"><ele>317.908</ele><time>2015-10-28T10:31:20Z</time></trkpt><trkpt lat="43.270971" lon="-5.794920"><ele>318.359</ele><time>2015-10-28T10:31:24Z</time></trkpt><trkpt lat="43.271157" lon="-5.794844"><ele>319.889</ele><time>2015-10-28T10:31:44Z</time></trkpt><trkpt lat="43.271276" lon="-5.794808"><ele>320.742</ele><time>2015-10-28T10:31:56Z</time></trkpt><trkpt lat="43.271472" lon="-5.794976"><ele>322.771</ele><time>2015-10-28T10:32:16Z</time></trkpt><trkpt lat="43.271633" lon="-5.795181"><ele>323.696</ele><time>2015-10-28T10:32:34Z</time></trkpt><trkpt lat="43.271794" lon="-5.795356"><ele>325.187</ele><time>2015-10-28T10:32:52Z</time></trkpt><trkpt lat="43.271999" lon="-5.795504"><ele>326.599</ele><time>2015-10-28T10:33:13Z</time></trkpt><trkpt lat="43.272162" lon="-5.795638"><ele>327.567</ele><time>2015-10-28T10:33:29Z</time></trkpt><trkpt lat="43.272386" lon="-5.795895"><ele>329.434</ele><time>2015-10-28T10:33:52Z</time></trkpt><trkpt lat="43.272464" lon="-5.796212"><ele>330.455</ele><time>2015-10-28T10:34:08Z</time></trkpt><trkpt lat="43.272516" lon="-5.796510"><ele>330.810</ele><time>2015-10-28T10:34:23Z</time></trkpt><trkpt lat="43.272579" lon="-5.796816"><ele>332.308</ele><time>2015-10-28T10:34:41Z</time></trkpt><trkpt lat="43.272619" lon="-5.797023"><ele>332.814</ele><time>2015-10-28T10:34:54Z</time></trkpt><trkpt lat="43.272675" lon="-5.797278"><ele>334.214</ele><time>2015-10-28T10:35:15Z</time></trkpt><trkpt lat="43.272708" lon="-5.797586"><ele>335.217</ele><time>2015-10-28T10:35:33Z</time></trkpt><trkpt lat="43.272727" lon="-5.797701"><ele>335.636</ele><time>2015-10-28T10:35:40Z</time></trkpt><trkpt lat="43.272777" lon="-5.797985"><ele>336.171</ele><time>2015-10-28T10:35:57Z</time></trkpt><trkpt lat="43.272771" lon="-5.798307"><ele>336.112</ele><time>2015-10-28T10:36:14Z</time></trkpt><trkpt lat="43.272744" lon="-5.798586"><ele>336.174</ele><time>2015-10-28T10:36:30Z</time></trkpt><trkpt lat="43.272750" lon="-5.798889"><ele>336.182</ele><time>2015-10-28T10:36:49Z</time></trkpt><trkpt lat="43.272797" lon="-5.799173"><ele>336.182</ele><time>2015-10-28T10:37:07Z</time></trkpt><trkpt lat="43.272893" lon="-5.799446"><ele>336.643</ele><time>2015-10-28T10:37:27Z</time></trkpt><trkpt lat="43.273024" lon="-5.799592"><ele>336.117</ele><time>2015-10-28T10:37:45Z</time></trkpt><trkpt lat="43.273204" lon="-5.799749"><ele>337.108</ele><time>2015-10-28T10:38:04Z</time></trkpt><trkpt lat="43.273381" lon="-5.799896"><ele>337.699</ele><time>2015-10-28T10:38:22Z</time></trkpt><trkpt lat="43.273562" lon="-5.799946"><ele>338.599</ele><time>2015-10-28T10:38:40Z</time></trkpt><trkpt lat="43.273753" lon="-5.799949"><ele>339.062</ele><time>2015-10-28T10:38:58Z</time></trkpt><trkpt lat="43.273941" lon="-5.799951"><ele>340.041</ele><time>2015-10-28T10:39:15Z</time></trkpt><trkpt lat="43.274124" lon="-5.799873"><ele>340.926</ele><time>2015-10-28T10:39:34Z</time></trkpt><trkpt lat="43.274307" lon="-5.799745"><ele>341.917</ele><time>2015-10-28T10:39:53Z</time></trkpt><trkpt lat="43.274450" lon="-5.799683"><ele>342.449</ele><time>2015-10-28T10:40:08Z</time></trkpt><trkpt lat="43.274590" lon="-5.799727"><ele>342.987</ele><time>2015-10-28T10:40:23Z</time></trkpt><trkpt lat="43.274689" lon="-5.799746"><ele>342.968</ele><time>2015-10-28T10:40:40Z</time></trkpt><trkpt lat="43.274676" lon="-5.799773"><ele>342.942</ele><time>2015-10-28T10:41:01Z</time></trkpt><trkpt lat="43.274659" lon="-5.799757"><ele>342.926</ele><time>2015-10-28T10:41:17Z</time></trkpt><trkpt lat="43.274671" lon="-5.799721"><ele>342.408</ele><time>2015-10-28T10:41:48Z</time></trkpt><trkpt lat="43.274657" lon="-5.799728"><ele>342.437</ele><time>2015-10-28T10:42:04Z</time></trkpt><trkpt lat="43.274631" lon="-5.799743"><ele>342.467</ele><time>2015-10-28T10:42:38Z</time></trkpt><trkpt lat="43.274663" lon="-5.799722"><ele>340.950</ele><time>2015-10-28T10:43:02Z</time></trkpt><trkpt lat="43.274745" lon="-5.799757"><ele>340.959</ele><time>2015-10-28T10:43:14Z</time></trkpt><trkpt lat="43.274914" lon="-5.799868"><ele>340.984</ele><time>2015-10-28T10:43:32Z</time></trkpt><trkpt lat="43.275070" lon="-5.800027"><ele>342.425</ele><time>2015-10-28T10:43:49Z</time></trkpt><trkpt lat="43.275230" lon="-5.800227"><ele>342.977</ele><time>2015-10-28T10:44:07Z</time></trkpt><trkpt lat="43.275372" lon="-5.800386"><ele>343.855</ele><time>2015-10-28T10:44:22Z</time></trkpt><trkpt lat="43.275573" lon="-5.800483"><ele>344.849</ele><time>2015-10-28T10:44:41Z</time></trkpt><trkpt lat="43.275754" lon="-5.800556"><ele>345.702</ele><time>2015-10-28T10:44:57Z</time></trkpt><trkpt lat="43.275970" lon="-5.800625"><ele>346.722</ele><time>2015-10-28T10:45:16Z</time></trkpt><trkpt lat="43.276243" lon="-5.800702"><ele>347.608</ele><time>2015-10-28T10:45:37Z</time></trkpt><trkpt lat="43.276494" lon="-5.800599"><ele>349.145</ele><time>2015-10-28T10:45:59Z</time></trkpt><trkpt lat="43.276723" lon="-5.800436"><ele>350.515</ele><time>2015-10-28T10:46:21Z</time></trkpt><trkpt lat="43.276862" lon="-5.800258"><ele>351.588</ele><time>2015-10-28T10:46:39Z</time></trkpt><trkpt lat="43.276979" lon="-5.800052"><ele>353.417</ele><time>2015-10-28T10:46:57Z</time></trkpt><trkpt lat="43.277048" lon="-5.799808"><ele>354.442</ele><time>2015-10-28T10:47:14Z</time></trkpt><trkpt lat="43.277100" lon="-5.799536"><ele>355.313</ele><time>2015-10-28T10:47:32Z</time></trkpt><trkpt lat="43.277153" lon="-5.799227"><ele>355.325</ele><time>2015-10-28T10:47:51Z</time></trkpt><trkpt lat="43.277257" lon="-5.798965"><ele>355.893</ele><time>2015-10-28T10:48:08Z</time></trkpt><trkpt lat="43.277367" lon="-5.798755"><ele>355.854</ele><time>2015-10-28T10:48:25Z</time></trkpt><trkpt lat="43.277537" lon="-5.798525"><ele>355.856</ele><time>2015-10-28T10:48:41Z</time></trkpt><trkpt lat="43.277733" lon="-5.798319"><ele>355.311</ele><time>2015-10-28T10:48:59Z</time></trkpt><trkpt lat="43.277907" lon="-5.798147"><ele>355.308</ele><time>2015-10-28T10:49:16Z</time></trkpt><trkpt lat="43.278063" lon="-5.798255"><ele>356.316</ele><time>2015-10-28T10:49:32Z</time></trkpt><trkpt lat="43.278165" lon="-5.798345"><ele>356.396</ele><time>2015-10-28T10:49:43Z</time></trkpt><trkpt lat="43.278374" lon="-5.798350"><ele>357.849</ele><time>2015-10-28T10:50:01Z</time></trkpt><trkpt lat="43.278580" lon="-5.798310"><ele>359.228</ele><time>2015-10-28T10:50:19Z</time></trkpt><trkpt lat="43.278623" lon="-5.798297"><ele>359.253</ele><time>2015-10-28T10:50:23Z</time></trkpt><trkpt lat="43.278669" lon="-5.798317"><ele>359.774</ele><time>2015-10-28T10:50:27Z</time></trkpt><trkpt lat="43.278849" lon="-5.798601"><ele>359.766</ele><time>2015-10-28T10:50:46Z</time></trkpt><trkpt lat="43.278984" lon="-5.798887"><ele>359.294</ele><time>2015-10-28T10:51:06Z</time></trkpt><trkpt lat="43.279104" lon="-5.799089"><ele>360.142</ele><time>2015-10-28T10:51:24Z</time></trkpt><trkpt lat="43.279221" lon="-5.799224"><ele>360.622</ele><time>2015-10-28T10:51:38Z</time></trkpt><trkpt lat="43.279283" lon="-5.799300"><ele>360.614</ele><time>2015-10-28T10:51:45Z</time></trkpt><trkpt lat="43.279413" lon="-5.799604"><ele>361.608</ele><time>2015-10-28T10:52:04Z</time></trkpt><trkpt lat="43.279463" lon="-5.799711"><ele>362.135</ele><time>2015-10-28T10:52:12Z</time></trkpt><trkpt lat="43.279581" lon="-5.799880"><ele>363.035</ele><time>2015-10-28T10:52:29Z</time></trkpt><trkpt lat="43.279776" lon="-5.799976"><ele>363.038</ele><time>2015-10-28T10:52:47Z</time></trkpt><trkpt lat="43.279951" lon="-5.800087"><ele>364.017</ele><time>2015-10-28T10:53:04Z</time></trkpt><trkpt lat="43.279984" lon="-5.800144"><ele>364.022</ele><time>2015-10-28T10:53:09Z</time></trkpt><trkpt lat="43.280023" lon="-5.800289"><ele>364.513</ele><time>2015-10-28T10:53:17Z</time></trkpt><trkpt lat="43.280004" lon="-5.800583"><ele>365.015</ele><time>2015-10-28T10:53:33Z</time></trkpt><trkpt lat="43.279949" lon="-5.800833"><ele>365.463</ele><time>2015-10-28T10:53:47Z</time></trkpt><trkpt lat="43.279895" lon="-5.801140"><ele>366.453</ele><time>2015-10-28T10:54:06Z</time></trkpt><trkpt lat="43.279838" lon="-5.801392"><ele>366.904</ele><time>2015-10-28T10:54:22Z</time></trkpt><trkpt lat="43.279803" lon="-5.801603"><ele>367.814</ele><time>2015-10-28T10:54:36Z</time></trkpt><trkpt lat="43.279755" lon="-5.801868"><ele>368.808</ele><time>2015-10-28T10:54:53Z</time></trkpt><trkpt lat="43.279711" lon="-5.802114"><ele>370.236</ele><time>2015-10-28T10:55:09Z</time></trkpt><trkpt lat="43.279671" lon="-5.802358"><ele>371.276</ele><time>2015-10-28T10:55:25Z</time></trkpt><trkpt lat="43.279673" lon="-5.802657"><ele>372.659</ele><time>2015-10-28T10:55:44Z</time></trkpt><trkpt lat="43.279714" lon="-5.802807"><ele>373.628</ele><time>2015-10-28T10:55:57Z</time></trkpt><trkpt lat="43.279754" lon="-5.802859"><ele>374.183</ele><time>2015-10-28T10:56:04Z</time></trkpt><trkpt lat="43.279938" lon="-5.802878"><ele>375.054</ele><time>2015-10-28T10:56:24Z</time></trkpt><trkpt lat="43.280136" lon="-5.802885"><ele>376.076</ele><time>2015-10-28T10:56:43Z</time></trkpt><trkpt lat="43.280219" lon="-5.802893"><ele>376.554</ele><time>2015-10-28T10:56:51Z</time></trkpt><trkpt lat="43.280405" lon="-5.802911"><ele>377.058</ele><time>2015-10-28T10:57:08Z</time></trkpt><trkpt lat="43.280600" lon="-5.802933"><ele>378.452</ele><time>2015-10-28T10:57:27Z</time></trkpt><trkpt lat="43.280803" lon="-5.803000"><ele>379.417</ele><time>2015-10-28T10:57:45Z</time></trkpt><trkpt lat="43.281029" lon="-5.803061"><ele>380.308</ele><time>2015-10-28T10:58:04Z</time></trkpt><trkpt lat="43.281235" lon="-5.803173"><ele>381.316</ele><time>2015-10-28T10:58:22Z</time></trkpt><trkpt lat="43.281417" lon="-5.803364"><ele>381.856</ele><time>2015-10-28T10:58:39Z</time></trkpt><trkpt lat="43.281595" lon="-5.803656"><ele>382.799</ele><time>2015-10-28T10:58:58Z</time></trkpt><trkpt lat="43.281746" lon="-5.803867"><ele>382.788</ele><time>2015-10-28T10:59:15Z</time></trkpt><trkpt lat="43.281837" lon="-5.804005"><ele>382.773</ele><time>2015-10-28T10:59:26Z</time></trkpt><trkpt lat="43.281984" lon="-5.804220"><ele>383.214</ele><time>2015-10-28T10:59:44Z</time></trkpt><trkpt lat="43.282029" lon="-5.804294"><ele>383.276</ele><time>2015-10-28T10:59:50Z</time></trkpt><trkpt lat="43.282158" lon="-5.804443"><ele>383.764</ele><time>2015-10-28T11:00:08Z</time></trkpt><trkpt lat="43.282191" lon="-5.804468"><ele>383.723</ele><time>2015-10-28T11:00:13Z</time></trkpt><trkpt lat="43.282336" lon="-5.804565"><ele>383.783</ele><time>2015-10-28T11:00:29Z</time></trkpt><trkpt lat="43.282511" lon="-5.804807"><ele>385.111</ele><time>2015-10-28T11:00:48Z</time></trkpt><trkpt lat="43.282585" lon="-5.805115"><ele>386.608</ele><time>2015-10-28T11:01:04Z</time></trkpt><trkpt lat="43.282581" lon="-5.805491"><ele>388.083</ele><time>2015-10-28T11:01:24Z</time></trkpt><trkpt lat="43.282600" lon="-5.805754"><ele>388.543</ele><time>2015-10-28T11:01:42Z</time></trkpt><trkpt lat="43.282673" lon="-5.805962"><ele>389.076</ele><time>2015-10-28T11:01:58Z</time></trkpt><trkpt lat="43.282790" lon="-5.806196"><ele>390.025</ele><time>2015-10-28T11:02:15Z</time></trkpt><trkpt lat="43.282915" lon="-5.806360"><ele>390.040</ele><time>2015-10-28T11:02:31Z</time></trkpt><trkpt lat="43.283112" lon="-5.806496"><ele>390.061</ele><time>2015-10-28T11:02:51Z</time></trkpt><trkpt lat="43.283301" lon="-5.806649"><ele>390.083</ele><time>2015-10-28T11:03:09Z</time></trkpt><trkpt lat="43.283422" lon="-5.806740"><ele>389.591</ele><time>2015-10-28T11:03:21Z</time></trkpt><trkpt lat="43.283554" lon="-5.807055"><ele>389.543</ele><time>2015-10-28T11:03:40Z</time></trkpt><trkpt lat="43.283501" lon="-5.807389"><ele>390.064</ele><time>2015-10-28T11:03:58Z</time></trkpt><trkpt lat="43.283461" lon="-5.807688"><ele>390.410</ele><time>2015-10-28T11:04:17Z</time></trkpt><trkpt lat="43.283463" lon="-5.807960"><ele>390.408</ele><time>2015-10-28T11:04:34Z</time></trkpt><trkpt lat="43.283481" lon="-5.808272"><ele>389.015</ele><time>2015-10-28T11:04:53Z</time></trkpt><trkpt lat="43.283514" lon="-5.808601"><ele>389.065</ele><time>2015-10-28T11:05:12Z</time></trkpt><trkpt lat="43.283594" lon="-5.808825"><ele>389.088</ele><time>2015-10-28T11:05:29Z</time></trkpt><trkpt lat="43.283696" lon="-5.808909"><ele>389.087</ele><time>2015-10-28T11:05:40Z</time></trkpt><trkpt lat="43.283907" lon="-5.808898"><ele>388.532</ele><time>2015-10-28T11:05:59Z</time></trkpt><trkpt lat="43.284109" lon="-5.808865"><ele>388.573</ele><time>2015-10-28T11:06:17Z</time></trkpt><trkpt lat="43.284324" lon="-5.808741"><ele>388.565</ele><time>2015-10-28T11:06:36Z</time></trkpt><trkpt lat="43.284544" lon="-5.808647"><ele>388.593</ele><time>2015-10-28T11:06:54Z</time></trkpt><trkpt lat="43.284733" lon="-5.808540"><ele>388.014</ele><time>2015-10-28T11:07:10Z</time></trkpt><trkpt lat="43.284965" lon="-5.808382"><ele>388.054</ele><time>2015-10-28T11:07:31Z</time></trkpt><trkpt lat="43.285173" lon="-5.808270"><ele>387.509</ele><time>2015-10-28T11:07:50Z</time></trkpt><trkpt lat="43.285410" lon="-5.808164"><ele>387.108</ele><time>2015-10-28T11:08:10Z</time></trkpt><trkpt lat="43.285654" lon="-5.808153"><ele>387.142</ele><time>2015-10-28T11:08:29Z</time></trkpt><trkpt lat="43.285673" lon="-5.808128"><ele>387.112</ele><time>2015-10-28T11:08:48Z</time></trkpt><trkpt lat="43.285753" lon="-5.808157"><ele>386.625</ele><time>2015-10-28T11:09:00Z</time></trkpt><trkpt lat="43.285815" lon="-5.808206"><ele>386.664</ele><time>2015-10-28T11:09:06Z</time></trkpt><trkpt lat="43.285993" lon="-5.808353"><ele>386.619</ele><time>2015-10-28T11:09:23Z</time></trkpt><trkpt lat="43.286168" lon="-5.808510"><ele>386.180</ele><time>2015-10-28T11:09:40Z</time></trkpt><trkpt lat="43.286272" lon="-5.808593"><ele>386.152</ele><time>2015-10-28T11:09:51Z</time></trkpt><trkpt lat="43.286439" lon="-5.808603"><ele>386.140</ele><time>2015-10-28T11:10:06Z</time></trkpt><trkpt lat="43.286563" lon="-5.808616"><ele>386.642</ele><time>2015-10-28T11:10:16Z</time></trkpt><trkpt lat="43.286776" lon="-5.808768"><ele>387.522</ele><time>2015-10-28T11:10:35Z</time></trkpt><trkpt lat="43.286903" lon="-5.809049"><ele>388.514</ele><time>2015-10-28T11:10:52Z</time></trkpt><trkpt lat="43.287042" lon="-5.809273"><ele>389.008</ele><time>2015-10-28T11:11:11Z</time></trkpt><trkpt lat="43.287200" lon="-5.809434"><ele>389.575</ele><time>2015-10-28T11:11:30Z</time></trkpt><trkpt lat="43.287394" lon="-5.809587"><ele>389.025</ele><time>2015-10-28T11:11:48Z</time></trkpt><trkpt lat="43.287412" lon="-5.809604"><ele>389.088</ele><time>2015-10-28T11:11:50Z</time></trkpt><trkpt lat="43.287572" lon="-5.809765"><ele>388.027</ele><time>2015-10-28T11:12:09Z</time></trkpt><trkpt lat="43.287744" lon="-5.809917"><ele>387.532</ele><time>2015-10-28T11:12:27Z</time></trkpt><trkpt lat="43.287884" lon="-5.810063"><ele>387.193</ele><time>2015-10-28T11:12:42Z</time></trkpt><trkpt lat="43.288002" lon="-5.810140"><ele>386.635</ele><time>2015-10-28T11:12:54Z</time></trkpt><trkpt lat="43.288102" lon="-5.810198"><ele>386.123</ele><time>2015-10-28T11:13:03Z</time></trkpt><trkpt lat="43.288190" lon="-5.810228"><ele>385.653</ele><time>2015-10-28T11:13:11Z</time></trkpt><trkpt lat="43.288396" lon="-5.810217"><ele>384.204</ele><time>2015-10-28T11:13:30Z</time></trkpt><trkpt lat="43.288401" lon="-5.810211"><ele>384.214</ele><time>2015-10-28T11:13:31Z</time></trkpt><trkpt lat="43.288472" lon="-5.810180"><ele>383.208</ele><time>2015-10-28T11:13:43Z</time></trkpt><trkpt lat="43.288500" lon="-5.810158"><ele>383.266</ele><time>2015-10-28T11:13:46Z</time></trkpt><trkpt lat="43.288592" lon="-5.810115"><ele>382.736</ele><time>2015-10-28T11:13:55Z</time></trkpt><trkpt lat="43.288694" lon="-5.810008"><ele>378.939</ele><time>2015-10-28T11:14:10Z</time></trkpt><trkpt lat="43.288749" lon="-5.809904"><ele>376.048</ele><time>2015-10-28T11:14:25Z</time></trkpt><trkpt lat="43.288826" lon="-5.809785"><ele>373.193</ele><time>2015-10-28T11:14:40Z</time></trkpt><trkpt lat="43.288932" lon="-5.809612"><ele>369.844</ele><time>2015-10-28T11:14:56Z</time></trkpt><trkpt lat="43.289000" lon="-5.809514"><ele>368.896</ele><time>2015-10-28T11:15:05Z</time></trkpt><trkpt lat="43.289142" lon="-5.809364"><ele>366.474</ele><time>2015-10-28T11:15:20Z</time></trkpt><trkpt lat="43.289157" lon="-5.809344"><ele>365.425</ele><time>2015-10-28T11:15:22Z</time></trkpt><trkpt lat="43.289208" lon="-5.809289"><ele>364.526</ele><time>2015-10-28T11:15:28Z</time></trkpt><trkpt lat="43.289261" lon="-5.809244"><ele>363.508</ele><time>2015-10-28T11:15:34Z</time></trkpt><trkpt lat="43.289387" lon="-5.809100"><ele>361.608</ele><time>2015-10-28T11:15:50Z</time></trkpt><trkpt lat="43.289527" lon="-5.808960"><ele>358.783</ele><time>2015-10-28T11:16:07Z</time></trkpt><trkpt lat="43.289664" lon="-5.808830"><ele>355.343</ele><time>2015-10-28T11:16:23Z</time></trkpt><trkpt lat="43.289715" lon="-5.808765"><ele>353.966</ele><time>2015-10-28T11:16:31Z</time></trkpt><trkpt lat="43.289744" lon="-5.808663"><ele>352.515</ele><time>2015-10-28T11:16:41Z</time></trkpt><trkpt lat="43.289746" lon="-5.808408"><ele>350.140</ele><time>2015-10-28T11:17:00Z</time></trkpt><trkpt lat="43.289751" lon="-5.808395"><ele>350.111</ele><time>2015-10-28T11:17:01Z</time></trkpt><trkpt lat="43.289764" lon="-5.808347"><ele>349.653</ele><time>2015-10-28T11:17:05Z</time></trkpt><trkpt lat="43.289843" lon="-5.808151"><ele>348.131</ele><time>2015-10-28T11:17:19Z</time></trkpt><trkpt lat="43.289920" lon="-5.808050"><ele>346.785</ele><time>2015-10-28T11:17:29Z</time></trkpt><trkpt lat="43.290045" lon="-5.807941"><ele>344.389</ele><time>2015-10-28T11:17:42Z</time></trkpt><trkpt lat="43.290170" lon="-5.808027"><ele>342.917</ele><time>2015-10-28T11:17:54Z</time></trkpt><trkpt lat="43.290178" lon="-5.808175"><ele>342.408</ele><time>2015-10-28T11:18:02Z</time></trkpt><trkpt lat="43.290163" lon="-5.808478"><ele>338.559</ele><time>2015-10-28T11:18:21Z</time></trkpt><trkpt lat="43.290199" lon="-5.808719"><ele>336.199</ele><time>2015-10-28T11:18:37Z</time></trkpt><trkpt lat="43.290218" lon="-5.808955"><ele>332.312</ele><time>2015-10-28T11:18:53Z</time></trkpt><trkpt lat="43.290181" lon="-5.809231"><ele>329.941</ele><time>2015-10-28T11:19:11Z</time></trkpt><trkpt lat="43.290189" lon="-5.809376"><ele>328.086</ele><time>2015-10-28T11:19:24Z</time></trkpt><trkpt lat="43.290247" lon="-5.809456"><ele>325.547</ele><time>2015-10-28T11:19:38Z</time></trkpt><trkpt lat="43.290345" lon="-5.809471"><ele>323.189</ele><time>2015-10-28T11:19:52Z</time></trkpt><trkpt lat="43.290488" lon="-5.809402"><ele>320.727</ele><time>2015-10-28T11:20:09Z</time></trkpt><trkpt lat="43.290676" lon="-5.809344"><ele>317.943</ele><time>2015-10-28T11:20:26Z</time></trkpt><trkpt lat="43.290695" lon="-5.809323"><ele>316.964</ele><time>2015-10-28T11:20:29Z</time></trkpt><trkpt lat="43.290860" lon="-5.809210"><ele>315.510</ele><time>2015-10-28T11:20:45Z</time></trkpt><trkpt lat="43.291043" lon="-5.809271"><ele>314.508</ele><time>2015-10-28T11:21:01Z</time></trkpt><trkpt lat="43.291073" lon="-5.809278"><ele>313.595</ele><time>2015-10-28T11:21:04Z</time></trkpt><trkpt lat="43.291236" lon="-5.809257"><ele>312.645</ele><time>2015-10-28T11:21:21Z</time></trkpt><trkpt lat="43.291303" lon="-5.809261"><ele>311.198</ele><time>2015-10-28T11:21:35Z</time></trkpt><trkpt lat="43.291403" lon="-5.809258"><ele>308.767</ele><time>2015-10-28T11:21:52Z</time></trkpt><trkpt lat="43.291470" lon="-5.809292"><ele>307.892</ele><time>2015-10-28T11:22:10Z</time></trkpt><trkpt lat="43.291507" lon="-5.809290"><ele>307.363</ele><time>2015-10-28T11:22:39Z</time></trkpt><trkpt lat="43.291601" lon="-5.809230"><ele>305.475</ele><time>2015-10-28T11:22:55Z</time></trkpt><trkpt lat="43.291749" lon="-5.809198"><ele>302.513</ele><time>2015-10-28T11:23:11Z</time></trkpt><trkpt lat="43.291898" lon="-5.809207"><ele>300.117</ele><time>2015-10-28T11:23:25Z</time></trkpt><trkpt lat="43.292011" lon="-5.809277"><ele>299.187</ele><time>2015-10-28T11:23:40Z</time></trkpt><trkpt lat="43.292134" lon="-5.809249"><ele>297.215</ele><time>2015-10-28T11:23:55Z</time></trkpt><trkpt lat="43.292210" lon="-5.809142"><ele>296.208</ele><time>2015-10-28T11:24:10Z</time></trkpt><trkpt lat="43.292250" lon="-5.809119"><ele>295.762</ele><time>2015-10-28T11:24:14Z</time></trkpt><trkpt lat="43.292373" lon="-5.809016"><ele>294.362</ele><time>2015-10-28T11:24:30Z</time></trkpt><trkpt lat="43.292439" lon="-5.809091"><ele>294.395</ele><time>2015-10-28T11:25:00Z</time></trkpt><trkpt lat="43.292440" lon="-5.809062"><ele>294.384</ele><time>2015-10-28T11:25:18Z</time></trkpt><trkpt lat="43.292519" lon="-5.808914"><ele>293.329</ele><time>2015-10-28T11:25:32Z</time></trkpt><trkpt lat="43.292613" lon="-5.808794"><ele>291.930</ele><time>2015-10-28T11:25:45Z</time></trkpt><trkpt lat="43.292753" lon="-5.808741"><ele>290.052</ele><time>2015-10-28T11:25:59Z</time></trkpt><trkpt lat="43.292881" lon="-5.808753"><ele>288.020</ele><time>2015-10-28T11:26:13Z</time></trkpt><trkpt lat="43.293027" lon="-5.808762"><ele>286.113</ele><time>2015-10-28T11:26:30Z</time></trkpt><trkpt lat="43.293141" lon="-5.808756"><ele>284.243</ele><time>2015-10-28T11:26:44Z</time></trkpt><trkpt lat="43.293274" lon="-5.808748"><ele>281.807</ele><time>2015-10-28T11:27:02Z</time></trkpt><trkpt lat="43.293358" lon="-5.808933"><ele>278.408</ele><time>2015-10-28T11:27:17Z</time></trkpt><trkpt lat="43.293408" lon="-5.809098"><ele>276.572</ele><time>2015-10-28T11:27:31Z</time></trkpt><trkpt lat="43.293431" lon="-5.809302"><ele>273.622</ele><time>2015-10-28T11:27:46Z</time></trkpt><trkpt lat="43.293399" lon="-5.809466"><ele>270.875</ele><time>2015-10-28T11:28:01Z</time></trkpt><trkpt lat="43.293390" lon="-5.809643"><ele>267.924</ele><time>2015-10-28T11:28:15Z</time></trkpt><trkpt lat="43.293436" lon="-5.809646"><ele>265.589</ele><time>2015-10-28T11:28:30Z</time></trkpt><trkpt lat="43.293499" lon="-5.809641"><ele>262.180</ele><time>2015-10-28T11:28:45Z</time></trkpt><trkpt lat="43.293588" lon="-5.809731"><ele>259.272</ele><time>2015-10-28T11:29:01Z</time></trkpt><trkpt lat="43.293674" lon="-5.809627"><ele>257.890</ele><time>2015-10-28T11:29:13Z</time></trkpt><trkpt lat="43.293778" lon="-5.809400"><ele>255.933</ele><time>2015-10-28T11:29:31Z</time></trkpt><trkpt lat="43.293810" lon="-5.809316"><ele>255.423</ele><time>2015-10-28T11:29:37Z</time></trkpt><trkpt lat="43.293925" lon="-5.809093"><ele>253.915</ele><time>2015-10-28T11:29:53Z</time></trkpt><trkpt lat="43.294024" lon="-5.808923"><ele>252.508</ele><time>2015-10-28T11:30:06Z</time></trkpt><trkpt lat="43.294097" lon="-5.808830"><ele>251.554</ele><time>2015-10-28T11:30:11Z</time></trkpt><trkpt lat="43.294174" lon="-5.808887"><ele>250.694</ele><time>2015-10-28T11:30:17Z</time></trkpt><trkpt lat="43.294173" lon="-5.809214"><ele>249.177</ele><time>2015-10-28T11:30:35Z</time></trkpt><trkpt lat="43.294152" lon="-5.809486"><ele>247.726</ele><time>2015-10-28T11:30:52Z</time></trkpt><trkpt lat="43.294164" lon="-5.809745"><ele>246.211</ele><time>2015-10-28T11:31:09Z</time></trkpt><trkpt lat="43.294211" lon="-5.809975"><ele>244.822</ele><time>2015-10-28T11:31:25Z</time></trkpt><trkpt lat="43.294248" lon="-5.810236"><ele>242.974</ele><time>2015-10-28T11:31:42Z</time></trkpt><trkpt lat="43.294291" lon="-5.810476"><ele>240.922</ele><time>2015-10-28T11:31:59Z</time></trkpt><trkpt lat="43.294347" lon="-5.810761"><ele>238.574</ele><time>2015-10-28T11:32:17Z</time></trkpt><trkpt lat="43.294346" lon="-5.810831"><ele>238.156</ele><time>2015-10-28T11:32:22Z</time></trkpt><trkpt lat="43.294392" lon="-5.811139"><ele>236.121</ele><time>2015-10-28T11:32:41Z</time></trkpt><trkpt lat="43.294416" lon="-5.811230"><ele>235.708</ele><time>2015-10-28T11:32:47Z</time></trkpt><trkpt lat="43.294420" lon="-5.811309"><ele>234.728</ele><time>2015-10-28T11:32:53Z</time></trkpt><trkpt lat="43.294427" lon="-5.811373"><ele>234.258</ele><time>2015-10-28T11:32:57Z</time></trkpt><trkpt lat="43.294462" lon="-5.811627"><ele>232.811</ele><time>2015-10-28T11:33:13Z</time></trkpt><trkpt lat="43.294465" lon="-5.811663"><ele>232.810</ele><time>2015-10-28T11:33:15Z</time></trkpt><trkpt lat="43.294446" lon="-5.811912"><ele>231.325</ele><time>2015-10-28T11:33:31Z</time></trkpt><trkpt lat="43.294399" lon="-5.812115"><ele>230.496</ele><time>2015-10-28T11:33:45Z</time></trkpt><trkpt lat="43.294371" lon="-5.812323"><ele>228.988</ele><time>2015-10-28T11:34:00Z</time></trkpt><trkpt lat="43.294352" lon="-5.812454"><ele>228.436</ele><time>2015-10-28T11:34:10Z</time></trkpt><trkpt lat="43.294352" lon="-5.812558"><ele>227.556</ele><time>2015-10-28T11:34:18Z</time></trkpt><trkpt lat="43.294402" lon="-5.812784"><ele>226.159</ele><time>2015-10-28T11:34:34Z</time></trkpt><trkpt lat="43.294461" lon="-5.813054"><ele>224.114</ele><time>2015-10-28T11:34:52Z</time></trkpt><trkpt lat="43.294496" lon="-5.813278"><ele>223.208</ele><time>2015-10-28T11:35:07Z</time></trkpt><trkpt lat="43.294510" lon="-5.813552"><ele>221.726</ele><time>2015-10-28T11:35:23Z</time></trkpt><trkpt lat="43.294489" lon="-5.813671"><ele>220.876</ele><time>2015-10-28T11:35:31Z</time></trkpt><trkpt lat="43.294456" lon="-5.813716"><ele>220.849</ele><time>2015-10-28T11:35:35Z</time></trkpt><trkpt lat="43.294438" lon="-5.813787"><ele>219.878</ele><time>2015-10-28T11:35:40Z</time></trkpt><trkpt lat="43.294399" lon="-5.813868"><ele>219.383</ele><time>2015-10-28T11:35:50Z</time></trkpt><trkpt lat="43.294391" lon="-5.813899"><ele>219.394</ele><time>2015-10-28T11:35:52Z</time></trkpt><trkpt lat="43.294344" lon="-5.813979"><ele>218.446</ele><time>2015-10-28T11:35:59Z</time></trkpt><trkpt lat="43.294181" lon="-5.814154"><ele>216.964</ele><time>2015-10-28T11:36:14Z</time></trkpt><trkpt lat="43.294021" lon="-5.814288"><ele>215.592</ele><time>2015-10-28T11:36:28Z</time></trkpt><trkpt lat="43.293944" lon="-5.814462"><ele>214.073</ele><time>2015-10-28T11:36:43Z</time></trkpt><trkpt lat="43.293929" lon="-5.814605"><ele>212.620</ele><time>2015-10-28T11:36:57Z</time></trkpt><trkpt lat="43.293912" lon="-5.814865"><ele>211.108</ele><time>2015-10-28T11:37:13Z</time></trkpt><trkpt lat="43.293945" lon="-5.815067"><ele>210.270</ele><time>2015-10-28T11:37:27Z</time></trkpt><trkpt lat="43.293991" lon="-5.815090"><ele>211.130</ele><time>2015-10-28T11:37:32Z</time></trkpt><trkpt lat="43.294053" lon="-5.815113"><ele>208.713</ele><time>2015-10-28T11:37:40Z</time></trkpt><trkpt lat="43.294243" lon="-5.815002"><ele>207.362</ele><time>2015-10-28T11:37:57Z</time></trkpt><trkpt lat="43.294434" lon="-5.814945"><ele>205.967</ele><time>2015-10-28T11:38:15Z</time></trkpt><trkpt lat="43.294453" lon="-5.814943"><ele>204.918</ele><time>2015-10-28T11:38:17Z</time></trkpt><trkpt lat="43.294494" lon="-5.814958"><ele>204.930</ele><time>2015-10-28T11:38:21Z</time></trkpt><trkpt lat="43.294687" lon="-5.815046"><ele>202.548</ele><time>2015-10-28T11:38:39Z</time></trkpt><trkpt lat="43.294865" lon="-5.815172"><ele>201.157</ele><time>2015-10-28T11:38:55Z</time></trkpt><trkpt lat="43.295024" lon="-5.815373"><ele>199.600</ele><time>2015-10-28T11:39:10Z</time></trkpt><trkpt lat="43.295175" lon="-5.815599"><ele>198.220</ele><time>2015-10-28T11:39:27Z</time></trkpt><trkpt lat="43.295270" lon="-5.815878"><ele>196.708</ele><time>2015-10-28T11:39:44Z</time></trkpt><trkpt lat="43.295315" lon="-5.815965"><ele>195.846</ele><time>2015-10-28T11:39:51Z</time></trkpt><trkpt lat="43.295325" lon="-5.816005"><ele>195.876</ele><time>2015-10-28T11:39:54Z</time></trkpt><trkpt lat="43.295396" lon="-5.816127"><ele>194.829</ele><time>2015-10-28T11:40:04Z</time></trkpt><trkpt lat="43.295456" lon="-5.816243"><ele>193.838</ele><time>2015-10-28T11:40:13Z</time></trkpt><trkpt lat="43.295583" lon="-5.816470"><ele>191.923</ele><time>2015-10-28T11:40:31Z</time></trkpt><trkpt lat="43.295682" lon="-5.816667"><ele>190.524</ele><time>2015-10-28T11:40:47Z</time></trkpt><trkpt lat="43.295702" lon="-5.816694"><ele>190.096</ele><time>2015-10-28T11:40:50Z</time></trkpt><trkpt lat="43.295761" lon="-5.816788"><ele>189.574</ele><time>2015-10-28T11:40:59Z</time></trkpt><trkpt lat="43.295804" lon="-5.816839"><ele>189.077</ele><time>2015-10-28T11:41:04Z</time></trkpt><trkpt lat="43.295897" lon="-5.817145"><ele>188.661</ele><time>2015-10-28T11:41:21Z</time></trkpt><trkpt lat="43.295924" lon="-5.817373"><ele>188.627</ele><time>2015-10-28T11:41:35Z</time></trkpt><trkpt lat="43.295928" lon="-5.817535"><ele>188.608</ele><time>2015-10-28T11:41:45Z</time></trkpt><trkpt lat="43.295932" lon="-5.817610"><ele>188.118</ele><time>2015-10-28T11:42:00Z</time></trkpt><trkpt lat="43.295935" lon="-5.817516"><ele>185.768</ele><time>2015-10-28T11:42:14Z</time></trkpt><trkpt lat="43.295961" lon="-5.817493"><ele>183.391</ele><time>2015-10-28T11:42:28Z</time></trkpt><trkpt lat="43.295960" lon="-5.817505"><ele>183.310</ele><time>2015-10-28T11:42:33Z</time></trkpt><trkpt lat="43.296292" lon="-5.817414"><ele>183.345</ele><time>2015-10-28T11:42:52Z</time></trkpt><trkpt lat="43.296416" lon="-5.817545"><ele>185.266</ele><time>2015-10-28T11:43:09Z</time></trkpt><trkpt lat="43.296550" lon="-5.817528"><ele>185.718</ele><time>2015-10-28T11:43:23Z</time></trkpt><trkpt lat="43.296662" lon="-5.817640"><ele>184.716</ele><time>2015-10-28T11:43:37Z</time></trkpt><trkpt lat="43.296687" lon="-5.817839"><ele>182.835</ele><time>2015-10-28T11:43:51Z</time></trkpt><trkpt lat="43.296693" lon="-5.817850"><ele>183.386</ele><time>2015-10-28T11:43:52Z</time></trkpt><trkpt lat="43.296697" lon="-5.817976"><ele>182.314</ele><time>2015-10-28T11:44:00Z</time></trkpt><trkpt lat="43.296726" lon="-5.818212"><ele>180.408</ele><time>2015-10-28T11:44:16Z</time></trkpt><trkpt lat="43.296738" lon="-5.818381"><ele>178.924</ele><time>2015-10-28T11:44:28Z</time></trkpt><trkpt lat="43.296743" lon="-5.818452"><ele>178.524</ele><time>2015-10-28T11:44:33Z</time></trkpt><trkpt lat="43.296778" lon="-5.818586"><ele>176.517</ele><time>2015-10-28T11:44:46Z</time></trkpt><trkpt lat="43.296881" lon="-5.818535"><ele>175.626</ele><time>2015-10-28T11:45:00Z</time></trkpt><trkpt lat="43.296894" lon="-5.818525"><ele>175.611</ele><time>2015-10-28T11:45:02Z</time></trkpt><trkpt lat="43.296970" lon="-5.818508"><ele>175.622</ele><time>2015-10-28T11:45:11Z</time></trkpt><trkpt lat="43.297051" lon="-5.818666"><ele>175.654</ele><time>2015-10-28T11:45:20Z</time></trkpt><trkpt lat="43.297170" lon="-5.818908"><ele>175.132</ele><time>2015-10-28T11:45:38Z</time></trkpt><trkpt lat="43.297205" lon="-5.818978"><ele>175.197</ele><time>2015-10-28T11:45:44Z</time></trkpt><trkpt lat="43.297243" lon="-5.819071"><ele>174.623</ele><time>2015-10-28T11:45:51Z</time></trkpt><trkpt lat="43.297268" lon="-5.819110"><ele>174.625</ele><time>2015-10-28T11:45:54Z</time></trkpt><trkpt lat="43.297357" lon="-5.819391"><ele>173.708</ele><time>2015-10-28T11:46:14Z</time></trkpt><trkpt lat="43.297321" lon="-5.819471"><ele>173.290</ele><time>2015-10-28T11:46:29Z</time></trkpt><trkpt lat="43.297302" lon="-5.819460"><ele>173.210</ele><time>2015-10-28T11:46:58Z</time></trkpt><trkpt lat="43.297299" lon="-5.819474"><ele>173.273</ele><time>2015-10-28T11:47:34Z</time></trkpt><trkpt lat="43.297309" lon="-5.819451"><ele>173.242</ele><time>2015-10-28T11:48:11Z</time></trkpt><trkpt lat="43.297305" lon="-5.819434"><ele>173.287</ele><time>2015-10-28T11:48:45Z</time></trkpt><trkpt lat="43.297289" lon="-5.819455"><ele>172.778</ele><time>2015-10-28T11:49:19Z</time></trkpt><trkpt lat="43.297296" lon="-5.819463"><ele>172.710</ele><time>2015-10-28T11:49:52Z</time></trkpt><trkpt lat="43.297297" lon="-5.819469"><ele>172.768</ele><time>2015-10-28T11:50:25Z</time></trkpt><trkpt lat="43.297280" lon="-5.819469"><ele>172.286</ele><time>2015-10-28T11:50:59Z</time></trkpt><trkpt lat="43.297332" lon="-5.819450"><ele>172.260</ele><time>2015-10-28T11:51:43Z</time></trkpt><trkpt lat="43.297298" lon="-5.819436"><ele>171.726</ele><time>2015-10-28T11:52:17Z</time></trkpt><trkpt lat="43.297302" lon="-5.819422"><ele>173.208</ele><time>2015-10-28T11:52:49Z</time></trkpt><trkpt lat="43.297346" lon="-5.819500"><ele>172.779</ele><time>2015-10-28T11:53:03Z</time></trkpt><trkpt lat="43.297393" lon="-5.819654"><ele>172.769</ele><time>2015-10-28T11:53:16Z</time></trkpt><trkpt lat="43.297470" lon="-5.819858"><ele>171.752</ele><time>2015-10-28T11:53:32Z</time></trkpt><trkpt lat="43.297520" lon="-5.820040"><ele>170.881</ele><time>2015-10-28T11:53:46Z</time></trkpt><trkpt lat="43.297605" lon="-5.820245"><ele>170.316</ele><time>2015-10-28T11:54:03Z</time></trkpt><trkpt lat="43.297658" lon="-5.820450"><ele>169.327</ele><time>2015-10-28T11:54:18Z</time></trkpt><trkpt lat="43.297716" lon="-5.820650"><ele>168.479</ele><time>2015-10-28T11:54:34Z</time></trkpt><trkpt lat="43.297750" lon="-5.820702"><ele>168.467</ele><time>2015-10-28T11:54:39Z</time></trkpt><trkpt lat="43.297819" lon="-5.820869"><ele>167.996</ele><time>2015-10-28T11:54:51Z</time></trkpt><trkpt lat="43.297840" lon="-5.821003"><ele>167.431</ele><time>2015-10-28T11:54:59Z</time></trkpt><trkpt lat="43.297930" lon="-5.821208"><ele>166.424</ele><time>2015-10-28T11:55:16Z</time></trkpt><trkpt lat="43.297941" lon="-5.821337"><ele>166.008</ele><time>2015-10-28T11:55:33Z</time></trkpt><trkpt lat="43.297951" lon="-5.821346"><ele>165.070</ele><time>2015-10-28T11:55:49Z</time></trkpt><trkpt lat="43.297940" lon="-5.821318"><ele>166.480</ele><time>2015-10-28T11:56:04Z</time></trkpt><trkpt lat="43.297947" lon="-5.821353"><ele>166.443</ele><time>2015-10-28T11:56:16Z</time></trkpt><trkpt lat="43.297957" lon="-5.821307"><ele>166.432</ele><time>2015-10-28T11:56:43Z</time></trkpt><trkpt lat="43.298016" lon="-5.821282"><ele>166.467</ele><time>2015-10-28T11:57:24Z</time></trkpt><trkpt lat="43.298001" lon="-5.821311"><ele>166.418</ele><time>2015-10-28T11:57:58Z</time></trkpt><trkpt lat="43.297987" lon="-5.821271"><ele>166.440</ele><time>2015-10-28T11:58:33Z</time></trkpt><trkpt lat="43.297999" lon="-5.821230"><ele>166.478</ele><time>2015-10-28T11:59:01Z</time></trkpt><trkpt lat="43.297974" lon="-5.821206"><ele>166.484</ele><time>2015-10-28T11:59:35Z</time></trkpt><trkpt lat="43.297951" lon="-5.821214"><ele>166.407</ele><time>2015-10-28T12:00:01Z</time></trkpt><trkpt lat="43.297930" lon="-5.821237"><ele>166.417</ele><time>2015-10-28T12:00:40Z</time></trkpt><trkpt lat="43.297928" lon="-5.821251"><ele>166.408</ele><time>2015-10-28T12:01:08Z</time></trkpt><trkpt lat="43.297916" lon="-5.821207"><ele>166.949</ele><time>2015-10-28T12:01:46Z</time></trkpt><trkpt lat="43.297918" lon="-5.821193"><ele>166.949</ele><time>2015-10-28T12:02:26Z</time></trkpt><trkpt lat="43.297922" lon="-5.821224"><ele>167.422</ele><time>2015-10-28T12:03:05Z</time></trkpt><trkpt lat="43.297913" lon="-5.821249"><ele>167.431</ele><time>2015-10-28T12:03:37Z</time></trkpt><trkpt lat="43.297930" lon="-5.821195"><ele>167.436</ele><time>2015-10-28T12:04:05Z</time></trkpt><trkpt lat="43.297937" lon="-5.821267"><ele>167.997</ele><time>2015-10-28T12:04:45Z</time></trkpt><trkpt lat="43.297924" lon="-5.821272"><ele>168.479</ele><time>2015-10-28T12:05:26Z</time></trkpt><trkpt lat="43.297925" lon="-5.821247"><ele>168.417</ele><time>2015-10-28T12:06:01Z</time></trkpt><trkpt lat="43.297909" lon="-5.821267"><ele>168.498</ele><time>2015-10-28T12:06:38Z</time></trkpt><trkpt lat="43.297930" lon="-5.821259"><ele>168.915</ele><time>2015-10-28T12:07:02Z</time></trkpt><trkpt lat="43.297937" lon="-5.821223"><ele>168.926</ele><time>2015-10-28T12:07:31Z</time></trkpt><trkpt lat="43.297936" lon="-5.821212"><ele>168.908</ele><time>2015-10-28T12:07:54Z</time></trkpt><trkpt lat="43.297919" lon="-5.821250"><ele>168.970</ele><time>2015-10-28T12:08:22Z</time></trkpt><trkpt lat="43.297915" lon="-5.821227"><ele>168.970</ele><time>2015-10-28T12:08:55Z</time></trkpt><trkpt lat="43.297930" lon="-5.821187"><ele>168.993</ele><time>2015-10-28T12:09:21Z</time></trkpt><trkpt lat="43.297947" lon="-5.821173"><ele>168.972</ele><time>2015-10-28T12:09:41Z</time></trkpt><trkpt lat="43.297933" lon="-5.821212"><ele>169.397</ele><time>2015-10-28T12:10:17Z</time></trkpt><trkpt lat="43.297935" lon="-5.821254"><ele>168.948</ele><time>2015-10-28T12:10:43Z</time></trkpt><trkpt lat="43.297928" lon="-5.821291"><ele>168.920</ele><time>2015-10-28T12:11:05Z</time></trkpt><trkpt lat="43.297949" lon="-5.821268"><ele>169.398</ele><time>2015-10-28T12:11:30Z</time></trkpt><trkpt lat="43.297951" lon="-5.821255"><ele>169.367</ele><time>2015-10-28T12:11:58Z</time></trkpt><trkpt lat="43.297949" lon="-5.821349"><ele>169.881</ele><time>2015-10-28T12:12:11Z</time></trkpt><trkpt lat="43.297967" lon="-5.821452"><ele>169.819</ele><time>2015-10-28T12:12:24Z</time></trkpt><trkpt lat="43.297996" lon="-5.821539"><ele>168.408</ele><time>2015-10-28T12:12:32Z</time></trkpt><trkpt lat="43.298019" lon="-5.821711"><ele>167.977</ele><time>2015-10-28T12:12:45Z</time></trkpt><trkpt lat="43.298087" lon="-5.821946"><ele>166.947</ele><time>2015-10-28T12:13:03Z</time></trkpt><trkpt lat="43.298100" lon="-5.822011"><ele>166.930</ele><time>2015-10-28T12:13:09Z</time></trkpt><trkpt lat="43.298129" lon="-5.822022"><ele>166.499</ele><time>2015-10-28T12:13:12Z</time></trkpt><trkpt lat="43.298188" lon="-5.822257"><ele>166.484</ele><time>2015-10-28T12:13:29Z</time></trkpt><trkpt lat="43.298242" lon="-5.822553"><ele>165.065</ele><time>2015-10-28T12:13:48Z</time></trkpt><trkpt lat="43.298322" lon="-5.822824"><ele>164.597</ele><time>2015-10-28T12:14:04Z</time></trkpt><trkpt lat="43.298348" lon="-5.823028"><ele>164.075</ele><time>2015-10-28T12:14:17Z</time></trkpt><trkpt lat="43.298418" lon="-5.823146"><ele>163.655</ele><time>2015-10-28T12:14:25Z</time></trkpt><trkpt lat="43.298466" lon="-5.823333"><ele>163.107</ele><time>2015-10-28T12:14:39Z</time></trkpt><trkpt lat="43.298552" lon="-5.823593"><ele>162.617</ele><time>2015-10-28T12:14:54Z</time></trkpt><trkpt lat="43.298627" lon="-5.823830"><ele>162.108</ele><time>2015-10-28T12:15:11Z</time></trkpt><trkpt lat="43.298694" lon="-5.824079"><ele>162.186</ele><time>2015-10-28T12:15:27Z</time></trkpt><trkpt lat="43.298728" lon="-5.824300"><ele>161.666</ele><time>2015-10-28T12:15:41Z</time></trkpt><trkpt lat="43.298779" lon="-5.824563"><ele>161.219</ele><time>2015-10-28T12:15:57Z</time></trkpt><trkpt lat="43.298786" lon="-5.824612"><ele>161.268</ele><time>2015-10-28T12:16:00Z</time></trkpt><trkpt lat="43.298838" lon="-5.824903"><ele>160.773</ele><time>2015-10-28T12:16:19Z</time></trkpt><trkpt lat="43.298841" lon="-5.824913"><ele>160.744</ele><time>2015-10-28T12:16:20Z</time></trkpt><trkpt lat="43.298891" lon="-5.825112"><ele>160.216</ele><time>2015-10-28T12:16:34Z</time></trkpt><trkpt lat="43.298972" lon="-5.825365"><ele>159.754</ele><time>2015-10-28T12:16:50Z</time></trkpt><trkpt lat="43.299065" lon="-5.825569"><ele>159.239</ele><time>2015-10-28T12:17:05Z</time></trkpt><trkpt lat="43.299131" lon="-5.825689"><ele>158.801</ele><time>2015-10-28T12:17:18Z</time></trkpt><trkpt lat="43.299204" lon="-5.825927"><ele>158.821</ele><time>2015-10-28T12:17:33Z</time></trkpt><trkpt lat="43.299275" lon="-5.826197"><ele>158.308</ele><time>2015-10-28T12:17:50Z</time></trkpt><trkpt lat="43.299295" lon="-5.826262"><ele>158.354</ele><time>2015-10-28T12:17:54Z</time></trkpt><trkpt lat="43.299317" lon="-5.826401"><ele>158.374</ele><time>2015-10-28T12:18:03Z</time></trkpt><trkpt lat="43.299406" lon="-5.826619"><ele>158.327</ele><time>2015-10-28T12:18:19Z</time></trkpt><trkpt lat="43.299507" lon="-5.826746"><ele>158.386</ele><time>2015-10-28T12:18:36Z</time></trkpt><trkpt lat="43.299622" lon="-5.826857"><ele>158.371</ele><time>2015-10-28T12:18:51Z</time></trkpt><trkpt lat="43.299650" lon="-5.826879"><ele>158.372</ele><time>2015-10-28T12:18:55Z</time></trkpt><trkpt lat="43.299682" lon="-5.826909"><ele>158.364</ele><time>2015-10-28T12:18:59Z</time></trkpt><trkpt lat="43.299732" lon="-5.826937"><ele>159.272</ele><time>2015-10-28T12:19:04Z</time></trkpt><trkpt lat="43.299913" lon="-5.827071"><ele>159.213</ele><time>2015-10-28T12:19:21Z</time></trkpt><trkpt lat="43.300055" lon="-5.827214"><ele>160.243</ele><time>2015-10-28T12:19:36Z</time></trkpt><trkpt lat="43.300174" lon="-5.827308"><ele>160.707</ele><time>2015-10-28T12:19:49Z</time></trkpt><trkpt lat="43.300359" lon="-5.827442"><ele>160.708</ele><time>2015-10-28T12:20:06Z</time></trkpt><trkpt lat="43.300482" lon="-5.827467"><ele>160.762</ele><time>2015-10-28T12:20:20Z</time></trkpt><trkpt lat="43.300606" lon="-5.827469"><ele>161.232</ele><time>2015-10-28T12:20:35Z</time></trkpt><trkpt lat="43.300785" lon="-5.827501"><ele>162.135</ele><time>2015-10-28T12:20:53Z</time></trkpt><trkpt lat="43.300973" lon="-5.827544"><ele>163.144</ele><time>2015-10-28T12:21:11Z</time></trkpt><trkpt lat="43.301210" lon="-5.827580"><ele>164.559</ele><time>2015-10-28T12:21:31Z</time></trkpt><trkpt lat="43.301365" lon="-5.827605"><ele>165.580</ele><time>2015-10-28T12:21:46Z</time></trkpt><trkpt lat="43.301580" lon="-5.827622"><ele>166.472</ele><time>2015-10-28T12:22:05Z</time></trkpt><trkpt lat="43.301805" lon="-5.827659"><ele>167.440</ele><time>2015-10-28T12:22:24Z</time></trkpt><trkpt lat="43.302032" lon="-5.827737"><ele>167.946</ele><time>2015-10-28T12:22:43Z</time></trkpt><trkpt lat="43.302212" lon="-5.827824"><ele>167.988</ele><time>2015-10-28T12:23:00Z</time></trkpt><trkpt lat="43.302421" lon="-5.827914"><ele>167.916</ele><time>2015-10-28T12:23:18Z</time></trkpt><trkpt lat="43.302609" lon="-5.828040"><ele>168.408</ele><time>2015-10-28T12:23:35Z</time></trkpt><trkpt lat="43.302788" lon="-5.828184"><ele>168.485</ele><time>2015-10-28T12:23:52Z</time></trkpt><trkpt lat="43.302961" lon="-5.828348"><ele>168.465</ele><time>2015-10-28T12:24:08Z</time></trkpt><trkpt lat="43.303137" lon="-5.828542"><ele>167.948</ele><time>2015-10-28T12:24:25Z</time></trkpt><trkpt lat="43.303301" lon="-5.828730"><ele>167.937</ele><time>2015-10-28T12:24:41Z</time></trkpt><trkpt lat="43.303409" lon="-5.828865"><ele>167.972</ele><time>2015-10-28T12:24:52Z</time></trkpt><trkpt lat="43.303584" lon="-5.829045"><ele>166.983</ele><time>2015-10-28T12:25:10Z</time></trkpt><trkpt lat="43.303738" lon="-5.829209"><ele>166.075</ele><time>2015-10-28T12:25:26Z</time></trkpt><trkpt lat="43.303909" lon="-5.829382"><ele>165.083</ele><time>2015-10-28T12:25:43Z</time></trkpt><trkpt lat="43.304051" lon="-5.829547"><ele>163.678</ele><time>2015-10-28T12:25:59Z</time></trkpt><trkpt lat="43.304146" lon="-5.829650"><ele>162.633</ele><time>2015-10-28T12:26:09Z</time></trkpt><trkpt lat="43.304346" lon="-5.829844"><ele>162.126</ele><time>2015-10-28T12:26:29Z</time></trkpt><trkpt lat="43.304486" lon="-5.829999"><ele>161.208</ele><time>2015-10-28T12:26:44Z</time></trkpt><trkpt lat="43.304643" lon="-5.830171"><ele>159.778</ele><time>2015-10-28T12:27:01Z</time></trkpt><trkpt lat="43.304776" lon="-5.830221"><ele>158.838</ele><time>2015-10-28T12:27:19Z</time></trkpt><trkpt lat="43.304940" lon="-5.830542"><ele>157.881</ele><time>2015-10-28T12:27:34Z</time></trkpt><trkpt lat="43.305141" lon="-5.830756"><ele>157.840</ele><time>2015-10-28T12:27:54Z</time></trkpt><trkpt lat="43.305270" lon="-5.831013"><ele>157.825</ele><time>2015-10-28T12:28:11Z</time></trkpt><trkpt lat="43.305315" lon="-5.831328"><ele>157.876</ele><time>2015-10-28T12:28:29Z</time></trkpt><trkpt lat="43.305316" lon="-5.831614"><ele>157.868</ele><time>2015-10-28T12:28:47Z</time></trkpt><trkpt lat="43.305313" lon="-5.831905"><ele>159.226</ele><time>2015-10-28T12:29:04Z</time></trkpt><trkpt lat="43.305309" lon="-5.832200"><ele>159.291</ele><time>2015-10-28T12:29:22Z</time></trkpt><trkpt lat="43.305310" lon="-5.832543"><ele>160.281</ele><time>2015-10-28T12:29:43Z</time></trkpt><trkpt lat="43.305306" lon="-5.832860"><ele>160.719</ele><time>2015-10-28T12:30:02Z</time></trkpt><trkpt lat="43.305304" lon="-5.833145"><ele>161.208</ele><time>2015-10-28T12:30:20Z</time></trkpt><trkpt lat="43.305299" lon="-5.833395"><ele>161.660</ele><time>2015-10-28T12:30:36Z</time></trkpt><trkpt lat="43.305295" lon="-5.833665"><ele>161.670</ele><time>2015-10-28T12:30:53Z</time></trkpt><trkpt lat="43.305299" lon="-5.833940"><ele>162.173</ele><time>2015-10-28T12:31:10Z</time></trkpt><trkpt lat="43.305281" lon="-5.834215"><ele>163.162</ele><time>2015-10-28T12:31:28Z</time></trkpt><trkpt lat="43.305311" lon="-5.834388"><ele>164.047</ele><time>2015-10-28T12:31:43Z</time></trkpt><trkpt lat="43.305297" lon="-5.834556"><ele>165.098</ele><time>2015-10-28T12:31:56Z</time></trkpt><trkpt lat="43.305347" lon="-5.834530"><ele>166.980</ele><time>2015-10-28T12:32:14Z</time></trkpt><trkpt lat="43.305426" lon="-5.834534"><ele>169.888</ele><time>2015-10-28T12:32:29Z</time></trkpt><trkpt lat="43.305504" lon="-5.834564"><ele>172.782</ele><time>2015-10-28T12:32:43Z</time></trkpt><trkpt lat="43.305598" lon="-5.834652"><ele>174.643</ele><time>2015-10-28T12:32:59Z</time></trkpt><trkpt lat="43.305664" lon="-5.834759"><ele>177.017</ele><time>2015-10-28T12:33:13Z</time></trkpt><trkpt lat="43.305747" lon="-5.834876"><ele>179.408</ele><time>2015-10-28T12:33:29Z</time></trkpt><trkpt lat="43.305822" lon="-5.834950"><ele>181.479</ele><time>2015-10-28T12:33:43Z</time></trkpt><trkpt lat="43.305901" lon="-5.835016"><ele>183.349</ele><time>2015-10-28T12:33:59Z</time></trkpt><trkpt lat="43.305909" lon="-5.834955"><ele>185.782</ele><time>2015-10-28T12:34:13Z</time></trkpt><trkpt lat="43.305936" lon="-5.834841"><ele>188.161</ele><time>2015-10-28T12:34:29Z</time></trkpt><trkpt lat="43.305978" lon="-5.834725"><ele>189.586</ele><time>2015-10-28T12:34:46Z</time></trkpt><trkpt lat="43.306066" lon="-5.834598"><ele>191.987</ele><time>2015-10-28T12:35:03Z</time></trkpt><trkpt lat="43.306179" lon="-5.834475"><ele>193.469</ele><time>2015-10-28T12:35:20Z</time></trkpt><trkpt lat="43.306299" lon="-5.834342"><ele>193.837</ele><time>2015-10-28T12:35:37Z</time></trkpt><trkpt lat="43.306383" lon="-5.834284"><ele>194.392</ele><time>2015-10-28T12:35:50Z</time></trkpt><trkpt lat="43.306509" lon="-5.834222"><ele>194.873</ele><time>2015-10-28T12:36:05Z</time></trkpt><trkpt lat="43.306625" lon="-5.834169"><ele>197.220</ele><time>2015-10-28T12:36:21Z</time></trkpt><trkpt lat="43.306746" lon="-5.834150"><ele>199.608</ele><time>2015-10-28T12:36:36Z</time></trkpt><trkpt lat="43.306897" lon="-5.834081"><ele>203.060</ele><time>2015-10-28T12:36:53Z</time></trkpt><trkpt lat="43.306979" lon="-5.834057"><ele>205.920</ele><time>2015-10-28T12:37:10Z</time></trkpt><trkpt lat="43.307028" lon="-5.834008"><ele>207.833</ele><time>2015-10-28T12:37:24Z</time></trkpt><trkpt lat="43.307128" lon="-5.833902"><ele>209.212</ele><time>2015-10-28T12:37:40Z</time></trkpt><trkpt lat="43.307258" lon="-5.833866"><ele>210.797</ele><time>2015-10-28T12:37:57Z</time></trkpt><trkpt lat="43.307370" lon="-5.833800"><ele>211.688</ele><time>2015-10-28T12:38:12Z</time></trkpt><trkpt lat="43.307500" lon="-5.833775"><ele>214.090</ele><time>2015-10-28T12:38:27Z</time></trkpt><trkpt lat="43.307601" lon="-5.833772"><ele>216.438</ele><time>2015-10-28T12:38:45Z</time></trkpt><trkpt lat="43.307701" lon="-5.833739"><ele>218.851</ele><time>2015-10-28T12:38:58Z</time></trkpt><trkpt lat="43.307798" lon="-5.833719"><ele>221.201</ele><time>2015-10-28T12:39:12Z</time></trkpt><trkpt lat="43.307942" lon="-5.833654"><ele>223.211</ele><time>2015-10-28T12:39:29Z</time></trkpt><trkpt lat="43.308033" lon="-5.833598"><ele>224.108</ele><time>2015-10-28T12:39:43Z</time></trkpt><trkpt lat="43.308163" lon="-5.833514"><ele>226.136</ele><time>2015-10-28T12:39:58Z</time></trkpt><trkpt lat="43.308268" lon="-5.833399"><ele>228.986</ele><time>2015-10-28T12:40:16Z</time></trkpt><trkpt lat="43.308413" lon="-5.833334"><ele>230.499</ele><time>2015-10-28T12:40:29Z</time></trkpt><trkpt lat="43.308520" lon="-5.833310"><ele>231.368</ele><time>2015-10-28T12:40:41Z</time></trkpt><trkpt lat="43.308598" lon="-5.833216"><ele>233.343</ele><time>2015-10-28T12:40:54Z</time></trkpt><trkpt lat="43.308678" lon="-5.833179"><ele>233.364</ele><time>2015-10-28T12:41:02Z</time></trkpt><trkpt lat="43.308848" lon="-5.833118"><ele>233.786</ele><time>2015-10-28T12:41:18Z</time></trkpt><trkpt lat="43.308928" lon="-5.833087"><ele>235.254</ele><time>2015-10-28T12:41:32Z</time></trkpt><trkpt lat="43.309105" lon="-5.833079"><ele>237.669</ele><time>2015-10-28T12:41:50Z</time></trkpt><trkpt lat="43.309279" lon="-5.833048"><ele>239.504</ele><time>2015-10-28T12:42:05Z</time></trkpt><trkpt lat="43.309430" lon="-5.833022"><ele>241.924</ele><time>2015-10-28T12:42:20Z</time></trkpt><trkpt lat="43.309569" lon="-5.832992"><ele>244.808</ele><time>2015-10-28T12:42:38Z</time></trkpt><trkpt lat="43.309617" lon="-5.832976"><ele>246.237</ele><time>2015-10-28T12:42:52Z</time></trkpt><trkpt lat="43.309687" lon="-5.832979"><ele>247.287</ele><time>2015-10-28T12:43:10Z</time></trkpt><trkpt lat="43.309750" lon="-5.832898"><ele>249.130</ele><time>2015-10-28T12:43:25Z</time></trkpt><trkpt lat="43.309802" lon="-5.832839"><ele>250.639</ele><time>2015-10-28T12:43:39Z</time></trkpt><trkpt lat="43.309868" lon="-5.832759"><ele>252.594</ele><time>2015-10-28T12:43:52Z</time></trkpt><trkpt lat="43.309952" lon="-5.832666"><ele>254.415</ele><time>2015-10-28T12:44:08Z</time></trkpt><trkpt lat="43.310056" lon="-5.832559"><ele>256.817</ele><time>2015-10-28T12:44:24Z</time></trkpt><trkpt lat="43.310136" lon="-5.832489"><ele>259.735</ele><time>2015-10-28T12:44:38Z</time></trkpt><trkpt lat="43.310270" lon="-5.832515"><ele>262.139</ele><time>2015-10-28T12:44:55Z</time></trkpt><trkpt lat="43.310323" lon="-5.832599"><ele>264.001</ele><time>2015-10-28T12:45:09Z</time></trkpt><trkpt lat="43.310431" lon="-5.832664"><ele>266.421</ele><time>2015-10-28T12:45:28Z</time></trkpt><trkpt lat="43.310516" lon="-5.832674"><ele>267.908</ele><time>2015-10-28T12:45:43Z</time></trkpt><trkpt lat="43.310640" lon="-5.832641"><ele>270.364</ele><time>2015-10-28T12:45:59Z</time></trkpt><trkpt lat="43.310729" lon="-5.832658"><ele>272.224</ele><time>2015-10-28T12:46:13Z</time></trkpt><trkpt lat="43.310850" lon="-5.832788"><ele>274.627</ele><time>2015-10-28T12:46:31Z</time></trkpt><trkpt lat="43.310920" lon="-5.832841"><ele>277.026</ele><time>2015-10-28T12:46:47Z</time></trkpt><trkpt lat="43.311028" lon="-5.832838"><ele>278.991</ele><time>2015-10-28T12:47:04Z</time></trkpt><trkpt lat="43.311191" lon="-5.832884"><ele>280.882</ele><time>2015-10-28T12:47:19Z</time></trkpt><trkpt lat="43.311307" lon="-5.833015"><ele>282.344</ele><time>2015-10-28T12:47:35Z</time></trkpt><trkpt lat="43.311395" lon="-5.833080"><ele>283.222</ele><time>2015-10-28T12:47:49Z</time></trkpt><trkpt lat="43.311499" lon="-5.833200"><ele>284.773</ele><time>2015-10-28T12:48:06Z</time></trkpt><trkpt lat="43.311599" lon="-5.833308"><ele>287.185</ele><time>2015-10-28T12:48:24Z</time></trkpt><trkpt lat="43.311698" lon="-5.833463"><ele>289.013</ele><time>2015-10-28T12:48:40Z</time></trkpt><trkpt lat="43.311787" lon="-5.833598"><ele>290.508</ele><time>2015-10-28T12:48:56Z</time></trkpt><trkpt lat="43.311870" lon="-5.833794"><ele>291.988</ele><time>2015-10-28T12:49:13Z</time></trkpt><trkpt lat="43.311911" lon="-5.833919"><ele>292.938</ele><time>2015-10-28T12:49:27Z</time></trkpt><trkpt lat="43.311953" lon="-5.834078"><ele>293.891</ele><time>2015-10-28T12:49:42Z</time></trkpt><trkpt lat="43.311997" lon="-5.834233"><ele>295.340</ele><time>2015-10-28T12:49:58Z</time></trkpt><trkpt lat="43.312004" lon="-5.834258"><ele>295.745</ele><time>2015-10-28T12:50:00Z</time></trkpt><trkpt lat="43.312085" lon="-5.834442"><ele>297.756</ele><time>2015-10-28T12:50:18Z</time></trkpt><trkpt lat="43.312137" lon="-5.834600"><ele>299.658</ele><time>2015-10-28T12:50:33Z</time></trkpt><trkpt lat="43.312194" lon="-5.834783"><ele>301.076</ele><time>2015-10-28T12:50:49Z</time></trkpt><trkpt lat="43.312279" lon="-5.834870"><ele>302.578</ele><time>2015-10-28T12:51:04Z</time></trkpt><trkpt lat="43.312352" lon="-5.834899"><ele>303.033</ele><time>2015-10-28T12:51:13Z</time></trkpt><trkpt lat="43.312497" lon="-5.835046"><ele>303.026</ele><time>2015-10-28T12:51:28Z</time></trkpt><trkpt lat="43.312594" lon="-5.835178"><ele>303.408</ele><time>2015-10-28T12:51:42Z</time></trkpt><trkpt lat="43.312698" lon="-5.835345"><ele>304.448</ele><time>2015-10-28T12:51:58Z</time></trkpt><trkpt lat="43.312765" lon="-5.835498"><ele>304.958</ele><time>2015-10-28T12:52:14Z</time></trkpt><trkpt lat="43.312834" lon="-5.835579"><ele>305.861</ele><time>2015-10-28T12:52:28Z</time></trkpt><trkpt lat="43.312895" lon="-5.835659"><ele>306.840</ele><time>2015-10-28T12:52:41Z</time></trkpt><trkpt lat="43.312971" lon="-5.835737"><ele>307.375</ele><time>2015-10-28T12:52:58Z</time></trkpt><trkpt lat="43.312994" lon="-5.835778"><ele>307.856</ele><time>2015-10-28T12:53:21Z</time></trkpt><trkpt lat="43.313022" lon="-5.835853"><ele>308.298</ele><time>2015-10-28T12:53:44Z</time></trkpt><trkpt lat="43.313113" lon="-5.835915"><ele>308.746</ele><time>2015-10-28T12:53:57Z</time></trkpt><trkpt lat="43.313194" lon="-5.836000"><ele>309.291</ele><time>2015-10-28T12:54:12Z</time></trkpt><trkpt lat="43.313291" lon="-5.836086"><ele>309.281</ele><time>2015-10-28T12:54:28Z</time></trkpt><trkpt lat="43.313358" lon="-5.836159"><ele>309.719</ele><time>2015-10-28T12:54:42Z</time></trkpt><trkpt lat="43.313427" lon="-5.836229"><ele>310.208</ele><time>2015-10-28T12:54:54Z</time></trkpt><trkpt lat="43.313482" lon="-5.836344"><ele>310.660</ele><time>2015-10-28T12:55:08Z</time></trkpt><trkpt lat="43.313503" lon="-5.836427"><ele>310.680</ele><time>2015-10-28T12:55:21Z</time></trkpt><trkpt lat="43.313554" lon="-5.836504"><ele>311.143</ele><time>2015-10-28T12:55:38Z</time></trkpt><trkpt lat="43.313587" lon="-5.836607"><ele>311.182</ele><time>2015-10-28T12:55:52Z</time></trkpt><trkpt lat="43.313652" lon="-5.836662"><ele>312.137</ele><time>2015-10-28T12:56:04Z</time></trkpt><trkpt lat="43.313718" lon="-5.836716"><ele>314.098</ele><time>2015-10-28T12:56:18Z</time></trkpt><trkpt lat="43.313768" lon="-5.836811"><ele>315.530</ele><time>2015-10-28T12:56:33Z</time></trkpt><trkpt lat="43.313812" lon="-5.836863"><ele>316.428</ele><time>2015-10-28T12:56:45Z</time></trkpt><trkpt lat="43.313865" lon="-5.837019"><ele>318.342</ele><time>2015-10-28T12:56:59Z</time></trkpt><trkpt lat="43.313911" lon="-5.837096"><ele>320.322</ele><time>2015-10-28T12:57:11Z</time></trkpt><trkpt lat="43.313967" lon="-5.837207"><ele>322.214</ele><time>2015-10-28T12:57:26Z</time></trkpt><trkpt lat="43.314044" lon="-5.837362"><ele>323.108</ele><time>2015-10-28T12:57:38Z</time></trkpt><trkpt lat="43.314090" lon="-5.837454"><ele>324.145</ele><time>2015-10-28T12:57:51Z</time></trkpt><trkpt lat="43.314191" lon="-5.837583"><ele>325.585</ele><time>2015-10-28T12:58:07Z</time></trkpt><trkpt lat="43.314270" lon="-5.837740"><ele>326.598</ele><time>2015-10-28T12:58:23Z</time></trkpt><trkpt lat="43.314350" lon="-5.837880"><ele>328.047</ele><time>2015-10-28T12:58:37Z</time></trkpt><trkpt lat="43.314442" lon="-5.837923"><ele>329.922</ele><time>2015-10-28T12:58:52Z</time></trkpt><trkpt lat="43.314522" lon="-5.837928"><ele>332.343</ele><time>2015-10-28T12:59:07Z</time></trkpt><trkpt lat="43.314622" lon="-5.837997"><ele>334.715</ele><time>2015-10-28T12:59:22Z</time></trkpt><trkpt lat="43.314696" lon="-5.838097"><ele>337.153</ele><time>2015-10-28T12:59:36Z</time></trkpt><trkpt lat="43.314722" lon="-5.838255"><ele>339.556</ele><time>2015-10-28T12:59:51Z</time></trkpt><trkpt lat="43.314742" lon="-5.838434"><ele>341.459</ele><time>2015-10-28T13:00:06Z</time></trkpt><trkpt lat="43.314771" lon="-5.838595"><ele>343.814</ele><time>2015-10-28T13:00:23Z</time></trkpt><trkpt lat="43.314822" lon="-5.838733"><ele>346.208</ele><time>2015-10-28T13:00:39Z</time></trkpt><trkpt lat="43.314908" lon="-5.838905"><ele>349.196</ele><time>2015-10-28T13:00:56Z</time></trkpt><trkpt lat="43.314986" lon="-5.839053"><ele>351.586</ele><time>2015-10-28T13:01:14Z</time></trkpt><trkpt lat="43.315085" lon="-5.839109"><ele>353.439</ele><time>2015-10-28T13:01:28Z</time></trkpt><trkpt lat="43.315238" lon="-5.839130"><ele>355.348</ele><time>2015-10-28T13:01:44Z</time></trkpt><trkpt lat="43.315385" lon="-5.839129"><ele>357.353</ele><time>2015-10-28T13:01:59Z</time></trkpt><trkpt lat="43.315441" lon="-5.839129"><ele>358.264</ele><time>2015-10-28T13:02:05Z</time></trkpt><trkpt lat="43.315623" lon="-5.839221"><ele>359.756</ele><time>2015-10-28T13:02:23Z</time></trkpt><trkpt lat="43.315789" lon="-5.839276"><ele>361.614</ele><time>2015-10-28T13:02:41Z</time></trkpt><trkpt lat="43.315927" lon="-5.839356"><ele>362.568</ele><time>2015-10-28T13:02:57Z</time></trkpt><trkpt lat="43.316091" lon="-5.839478"><ele>364.042</ele><time>2015-10-28T13:03:17Z</time></trkpt><trkpt lat="43.316237" lon="-5.839586"><ele>366.426</ele><time>2015-10-28T13:03:35Z</time></trkpt><trkpt lat="43.316370" lon="-5.839660"><ele>367.808</ele><time>2015-10-28T13:03:51Z</time></trkpt><trkpt lat="43.316513" lon="-5.839728"><ele>368.827</ele><time>2015-10-28T13:04:07Z</time></trkpt><trkpt lat="43.316523" lon="-5.839731"><ele>368.847</ele><time>2015-10-28T13:04:08Z</time></trkpt><trkpt lat="43.316671" lon="-5.839747"><ele>367.890</ele><time>2015-10-28T13:04:24Z</time></trkpt><trkpt lat="43.316714" lon="-5.839756"><ele>367.819</ele><time>2015-10-28T13:04:28Z</time></trkpt><trkpt lat="43.316743" lon="-5.839774"><ele>367.814</ele><time>2015-10-28T13:04:31Z</time></trkpt><trkpt lat="43.316966" lon="-5.839883"><ele>367.465</ele><time>2015-10-28T13:04:51Z</time></trkpt><trkpt lat="43.317108" lon="-5.839956"><ele>368.367</ele><time>2015-10-28T13:05:06Z</time></trkpt><trkpt lat="43.317253" lon="-5.840063"><ele>368.875</ele><time>2015-10-28T13:05:22Z</time></trkpt><trkpt lat="43.317426" lon="-5.840188"><ele>368.817</ele><time>2015-10-28T13:05:38Z</time></trkpt><trkpt lat="43.317584" lon="-5.840267"><ele>369.887</ele><time>2015-10-28T13:05:55Z</time></trkpt><trkpt lat="43.317709" lon="-5.840329"><ele>370.215</ele><time>2015-10-28T13:06:10Z</time></trkpt><trkpt lat="43.317801" lon="-5.840369"><ele>370.208</ele><time>2015-10-28T13:06:20Z</time></trkpt><trkpt lat="43.317868" lon="-5.840430"><ele>368.892</ele><time>2015-10-28T13:06:27Z</time></trkpt><trkpt lat="43.317995" lon="-5.840611"><ele>367.482</ele><time>2015-10-28T13:06:44Z</time></trkpt><trkpt lat="43.318042" lon="-5.840822"><ele>365.445</ele><time>2015-10-28T13:06:59Z</time></trkpt><trkpt lat="43.318103" lon="-5.841026"><ele>363.034</ele><time>2015-10-28T13:07:15Z</time></trkpt><trkpt lat="43.318152" lon="-5.841101"><ele>362.529</ele><time>2015-10-28T13:07:23Z</time></trkpt><trkpt lat="43.318198" lon="-5.841144"><ele>361.640</ele><time>2015-10-28T13:07:29Z</time></trkpt><trkpt lat="43.318321" lon="-5.841193"><ele>359.742</ele><time>2015-10-28T13:07:44Z</time></trkpt><trkpt lat="43.318433" lon="-5.841243"><ele>357.380</ele><time>2015-10-28T13:07:58Z</time></trkpt><trkpt lat="43.318506" lon="-5.841272"><ele>355.335</ele><time>2015-10-28T13:08:08Z</time></trkpt><trkpt lat="43.318610" lon="-5.841451"><ele>352.986</ele><time>2015-10-28T13:08:25Z</time></trkpt><trkpt lat="43.318710" lon="-5.841629"><ele>351.514</ele><time>2015-10-28T13:08:41Z</time></trkpt><trkpt lat="43.318787" lon="-5.841777"><ele>348.608</ele><time>2015-10-28T13:08:55Z</time></trkpt><trkpt lat="43.318901" lon="-5.841980"><ele>346.214</ele><time>2015-10-28T13:09:13Z</time></trkpt><trkpt lat="43.319005" lon="-5.842276"><ele>345.264</ele><time>2015-10-28T13:09:33Z</time></trkpt><trkpt lat="43.319044" lon="-5.842483"><ele>344.317</ele><time>2015-10-28T13:09:46Z</time></trkpt><trkpt lat="43.319101" lon="-5.842624"><ele>343.896</ele><time>2015-10-28T13:09:58Z</time></trkpt><trkpt lat="43.319151" lon="-5.842687"><ele>343.361</ele><time>2015-10-28T13:10:05Z</time></trkpt><trkpt lat="43.319292" lon="-5.842788"><ele>342.442</ele><time>2015-10-28T13:10:20Z</time></trkpt><trkpt lat="43.319448" lon="-5.842816"><ele>342.484</ele><time>2015-10-28T13:10:36Z</time></trkpt><trkpt lat="43.319575" lon="-5.842823"><ele>342.462</ele><time>2015-10-28T13:10:48Z</time></trkpt><trkpt lat="43.319659" lon="-5.842822"><ele>342.437</ele><time>2015-10-28T13:10:56Z</time></trkpt><trkpt lat="43.319744" lon="-5.842795"><ele>343.849</ele><time>2015-10-28T13:11:05Z</time></trkpt><trkpt lat="43.319763" lon="-5.842793"><ele>343.813</ele><time>2015-10-28T13:11:07Z</time></trkpt><trkpt lat="43.319907" lon="-5.842802"><ele>343.308</ele><time>2015-10-28T13:11:21Z</time></trkpt><trkpt lat="43.319948" lon="-5.842793"><ele>343.374</ele><time>2015-10-28T13:11:25Z</time></trkpt><trkpt lat="43.319982" lon="-5.842797"><ele>342.474</ele><time>2015-10-28T13:11:28Z</time></trkpt><trkpt lat="43.320104" lon="-5.842727"><ele>341.947</ele><time>2015-10-28T13:11:44Z</time></trkpt><trkpt lat="43.320229" lon="-5.842642"><ele>340.946</ele><time>2015-10-28T13:12:00Z</time></trkpt><trkpt lat="43.320378" lon="-5.842545"><ele>339.521</ele><time>2015-10-28T13:12:16Z</time></trkpt><trkpt lat="43.320392" lon="-5.842542"><ele>339.522</ele><time>2015-10-28T13:12:17Z</time></trkpt><trkpt lat="43.320548" lon="-5.842489"><ele>338.524</ele><time>2015-10-28T13:12:32Z</time></trkpt><trkpt lat="43.320568" lon="-5.842481"><ele>338.522</ele><time>2015-10-28T13:12:34Z</time></trkpt><trkpt lat="43.320723" lon="-5.842375"><ele>337.147</ele><time>2015-10-28T13:12:49Z</time></trkpt><trkpt lat="43.320900" lon="-5.842262"><ele>335.629</ele><time>2015-10-28T13:13:05Z</time></trkpt><trkpt lat="43.320913" lon="-5.842255"><ele>335.621</ele><time>2015-10-28T13:13:06Z</time></trkpt><trkpt lat="43.320946" lon="-5.842243"><ele>335.208</ele><time>2015-10-28T13:13:09Z</time></trkpt><trkpt lat="43.321106" lon="-5.842227"><ele>334.285</ele><time>2015-10-28T13:13:23Z</time></trkpt><trkpt lat="43.321271" lon="-5.842234"><ele>333.275</ele><time>2015-10-28T13:13:36Z</time></trkpt><trkpt lat="43.321408" lon="-5.842308"><ele>331.878</ele><time>2015-10-28T13:13:50Z</time></trkpt><trkpt lat="43.321555" lon="-5.842416"><ele>329.417</ele><time>2015-10-28T13:14:06Z</time></trkpt><trkpt lat="43.321659" lon="-5.842556"><ele>328.072</ele><time>2015-10-28T13:14:20Z</time></trkpt><trkpt lat="43.321727" lon="-5.842672"><ele>326.033</ele><time>2015-10-28T13:14:30Z</time></trkpt><trkpt lat="43.321775" lon="-5.842830"><ele>325.575</ele><time>2015-10-28T13:14:41Z</time></trkpt><trkpt lat="43.321822" lon="-5.842954"><ele>324.613</ele><time>2015-10-28T13:14:51Z</time></trkpt><trkpt lat="43.321913" lon="-5.843128"><ele>323.167</ele><time>2015-10-28T13:15:05Z</time></trkpt><trkpt lat="43.321925" lon="-5.843147"><ele>323.181</ele><time>2015-10-28T13:15:07Z</time></trkpt><trkpt lat="43.321977" lon="-5.843197"><ele>322.719</ele><time>2015-10-28T13:15:13Z</time></trkpt><trkpt lat="43.322004" lon="-5.843213"><ele>322.208</ele><time>2015-10-28T13:15:17Z</time></trkpt><trkpt lat="43.322121" lon="-5.843278"><ele>321.767</ele><time>2015-10-28T13:15:29Z</time></trkpt><trkpt lat="43.322159" lon="-5.843292"><ele>321.797</ele><time>2015-10-28T13:15:33Z</time></trkpt><trkpt lat="43.322218" lon="-5.843300"><ele>320.740</ele><time>2015-10-28T13:15:38Z</time></trkpt><trkpt lat="43.322360" lon="-5.843331"><ele>319.879</ele><time>2015-10-28T13:15:51Z</time></trkpt><trkpt lat="43.322431" lon="-5.843314"><ele>319.394</ele><time>2015-10-28T13:15:58Z</time></trkpt><trkpt lat="43.322570" lon="-5.843246"><ele>318.375</ele><time>2015-10-28T13:16:13Z</time></trkpt><trkpt lat="43.322592" lon="-5.843242"><ele>318.327</ele><time>2015-10-28T13:16:15Z</time></trkpt><trkpt lat="43.322745" lon="-5.843167"><ele>316.475</ele><time>2015-10-28T13:16:30Z</time></trkpt><trkpt lat="43.322807" lon="-5.843154"><ele>316.463</ele><time>2015-10-28T13:16:36Z</time></trkpt><trkpt lat="43.322975" lon="-5.843218"><ele>315.044</ele><time>2015-10-28T13:16:52Z</time></trkpt><trkpt lat="43.322998" lon="-5.843227"><ele>315.018</ele><time>2015-10-28T13:16:54Z</time></trkpt><trkpt lat="43.323153" lon="-5.843303"><ele>314.008</ele><time>2015-10-28T13:17:09Z</time></trkpt><trkpt lat="43.323315" lon="-5.843349"><ele>313.587</ele><time>2015-10-28T13:17:24Z</time></trkpt><trkpt lat="43.323408" lon="-5.843328"><ele>313.567</ele><time>2015-10-28T13:17:33Z</time></trkpt><trkpt lat="43.323442" lon="-5.843324"><ele>313.520</ele><time>2015-10-28T13:17:36Z</time></trkpt><trkpt lat="43.323581" lon="-5.843275"><ele>313.099</ele><time>2015-10-28T13:17:49Z</time></trkpt><trkpt lat="43.323612" lon="-5.843267"><ele>313.094</ele><time>2015-10-28T13:17:52Z</time></trkpt><trkpt lat="43.323650" lon="-5.843269"><ele>313.065</ele><time>2015-10-28T13:17:56Z</time></trkpt><trkpt lat="43.323816" lon="-5.843315"><ele>311.657</ele><time>2015-10-28T13:18:12Z</time></trkpt><trkpt lat="43.323969" lon="-5.843357"><ele>311.185</ele><time>2015-10-28T13:18:27Z</time></trkpt><trkpt lat="43.324047" lon="-5.843380"><ele>310.268</ele><time>2015-10-28T13:18:34Z</time></trkpt><trkpt lat="43.324241" lon="-5.843448"><ele>309.242</ele><time>2015-10-28T13:18:53Z</time></trkpt><trkpt lat="43.324263" lon="-5.843456"><ele>308.726</ele><time>2015-10-28T13:18:55Z</time></trkpt><trkpt lat="43.324395" lon="-5.843536"><ele>307.308</ele><time>2015-10-28T13:19:08Z</time></trkpt><trkpt lat="43.324558" lon="-5.843626"><ele>306.817</ele><time>2015-10-28T13:19:25Z</time></trkpt><trkpt lat="43.324644" lon="-5.843703"><ele>305.857</ele><time>2015-10-28T13:19:36Z</time></trkpt><trkpt lat="43.324753" lon="-5.843758"><ele>304.990</ele><time>2015-10-28T13:19:47Z</time></trkpt><trkpt lat="43.324778" lon="-5.843780"><ele>304.479</ele><time>2015-10-28T13:19:50Z</time></trkpt><trkpt lat="43.324829" lon="-5.843798"><ele>303.414</ele><time>2015-10-28T13:19:56Z</time></trkpt><trkpt lat="43.324938" lon="-5.843762"><ele>301.565</ele><time>2015-10-28T13:20:11Z</time></trkpt><trkpt lat="43.325040" lon="-5.843697"><ele>299.657</ele><time>2015-10-28T13:20:25Z</time></trkpt><trkpt lat="43.325098" lon="-5.843665"><ele>299.115</ele><time>2015-10-28T13:20:32Z</time></trkpt><trkpt lat="43.325120" lon="-5.843661"><ele>298.634</ele><time>2015-10-28T13:20:35Z</time></trkpt><trkpt lat="43.325210" lon="-5.843572"><ele>296.755</ele><time>2015-10-28T13:20:50Z</time></trkpt><trkpt lat="43.325272" lon="-5.843492"><ele>294.810</ele><time>2015-10-28T13:21:03Z</time></trkpt><trkpt lat="43.325329" lon="-5.843392"><ele>293.308</ele><time>2015-10-28T13:21:17Z</time></trkpt><trkpt lat="43.325405" lon="-5.843275"><ele>291.484</ele><time>2015-10-28T13:21:30Z</time></trkpt><trkpt lat="43.325513" lon="-5.843148"><ele>289.054</ele><time>2015-10-28T13:21:45Z</time></trkpt><trkpt lat="43.325519" lon="-5.843142"><ele>288.517</ele><time>2015-10-28T13:21:46Z</time></trkpt><trkpt lat="43.325646" lon="-5.843051"><ele>286.686</ele><time>2015-10-28T13:22:02Z</time></trkpt><trkpt lat="43.325760" lon="-5.842956"><ele>284.221</ele><time>2015-10-28T13:22:18Z</time></trkpt><trkpt lat="43.325850" lon="-5.842865"><ele>282.392</ele><time>2015-10-28T13:22:32Z</time></trkpt><trkpt lat="43.325969" lon="-5.842788"><ele>279.434</ele><time>2015-10-28T13:22:47Z</time></trkpt><trkpt lat="43.326086" lon="-5.842802"><ele>276.062</ele><time>2015-10-28T13:23:01Z</time></trkpt><trkpt lat="43.326210" lon="-5.842861"><ele>273.611</ele><time>2015-10-28T13:23:17Z</time></trkpt><trkpt lat="43.326294" lon="-5.843009"><ele>271.721</ele><time>2015-10-28T13:23:33Z</time></trkpt><trkpt lat="43.326366" lon="-5.843152"><ele>269.803</ele><time>2015-10-28T13:23:47Z</time></trkpt><trkpt lat="43.326466" lon="-5.843234"><ele>267.408</ele><time>2015-10-28T13:24:02Z</time></trkpt><trkpt lat="43.326566" lon="-5.843253"><ele>265.062</ele><time>2015-10-28T13:24:16Z</time></trkpt><trkpt lat="43.326603" lon="-5.843289"><ele>264.042</ele><time>2015-10-28T13:24:28Z</time></trkpt><trkpt lat="43.326705" lon="-5.843332"><ele>263.135</ele><time>2015-10-28T13:24:46Z</time></trkpt><trkpt lat="43.326848" lon="-5.843345"><ele>260.624</ele><time>2015-10-28T13:25:04Z</time></trkpt><trkpt lat="43.326949" lon="-5.843356"><ele>259.289</ele><time>2015-10-28T13:25:20Z</time></trkpt><trkpt lat="43.327039" lon="-5.843328"><ele>257.390</ele><time>2015-10-28T13:25:33Z</time></trkpt><trkpt lat="43.327156" lon="-5.843348"><ele>253.942</ele><time>2015-10-28T13:25:48Z</time></trkpt><trkpt lat="43.327211" lon="-5.843328"><ele>252.590</ele><time>2015-10-28T13:26:01Z</time></trkpt><trkpt lat="43.327223" lon="-5.843206"><ele>250.149</ele><time>2015-10-28T13:26:18Z</time></trkpt><trkpt lat="43.327226" lon="-5.843084"><ele>247.702</ele><time>2015-10-28T13:26:34Z</time></trkpt><trkpt lat="43.327344" lon="-5.843014"><ele>246.222</ele><time>2015-10-28T13:26:47Z</time></trkpt><trkpt lat="43.327441" lon="-5.843093"><ele>243.408</ele><time>2015-10-28T13:27:02Z</time></trkpt><trkpt lat="43.327511" lon="-5.843136"><ele>241.465</ele><time>2015-10-28T13:27:15Z</time></trkpt><trkpt lat="43.327611" lon="-5.843205"><ele>238.595</ele><time>2015-10-28T13:27:33Z</time></trkpt><trkpt lat="43.327690" lon="-5.843277"><ele>236.668</ele><time>2015-10-28T13:27:48Z</time></trkpt><trkpt lat="43.327756" lon="-5.843311"><ele>234.277</ele><time>2015-10-28T13:28:03Z</time></trkpt><trkpt lat="43.327859" lon="-5.843356"><ele>231.832</ele><time>2015-10-28T13:28:20Z</time></trkpt><trkpt lat="43.327916" lon="-5.843385"><ele>229.483</ele><time>2015-10-28T13:28:31Z</time></trkpt><trkpt lat="43.328047" lon="-5.843415"><ele>227.565</ele><time>2015-10-28T13:28:50Z</time></trkpt><trkpt lat="43.328151" lon="-5.843473"><ele>226.133</ele><time>2015-10-28T13:29:05Z</time></trkpt><trkpt lat="43.328159" lon="-5.843476"><ele>225.197</ele><time>2015-10-28T13:29:06Z</time></trkpt><trkpt lat="43.328290" lon="-5.843563"><ele>224.123</ele><time>2015-10-28T13:29:21Z</time></trkpt><trkpt lat="43.328433" lon="-5.843674"><ele>222.725</ele><time>2015-10-28T13:29:37Z</time></trkpt><trkpt lat="43.328567" lon="-5.843760"><ele>221.208</ele><time>2015-10-28T13:29:50Z</time></trkpt><trkpt lat="43.328689" lon="-5.843829"><ele>218.810</ele><time>2015-10-28T13:30:02Z</time></trkpt><trkpt lat="43.328827" lon="-5.843994"><ele>217.440</ele><time>2015-10-28T13:30:17Z</time></trkpt><trkpt lat="43.328915" lon="-5.844053"><ele>216.413</ele><time>2015-10-28T13:30:32Z</time></trkpt><trkpt lat="43.328989" lon="-5.844057"><ele>215.552</ele><time>2015-10-28T13:30:41Z</time></trkpt><trkpt lat="43.329101" lon="-5.844053"><ele>215.037</ele><time>2015-10-28T13:30:51Z</time></trkpt><trkpt lat="43.329181" lon="-5.844195"><ele>215.078</ele><time>2015-10-28T13:31:06Z</time></trkpt><trkpt lat="43.329295" lon="-5.844355"><ele>214.560</ele><time>2015-10-28T13:31:21Z</time></trkpt><trkpt lat="43.329321" lon="-5.844380"><ele>214.098</ele><time>2015-10-28T13:31:25Z</time></trkpt><trkpt lat="43.329473" lon="-5.844510"><ele>214.568</ele><time>2015-10-28T13:31:42Z</time></trkpt><trkpt lat="43.329578" lon="-5.844653"><ele>212.142</ele><time>2015-10-28T13:31:55Z</time></trkpt><trkpt lat="43.329588" lon="-5.844668"><ele>212.126</ele><time>2015-10-28T13:31:56Z</time></trkpt><trkpt lat="43.329652" lon="-5.844751"><ele>210.708</ele><time>2015-10-28T13:32:04Z</time></trkpt><trkpt lat="43.329721" lon="-5.844798"><ele>210.287</ele><time>2015-10-28T13:32:12Z</time></trkpt><trkpt lat="43.329773" lon="-5.844814"><ele>209.797</ele><time>2015-10-28T13:32:18Z</time></trkpt><trkpt lat="43.329901" lon="-5.844851"><ele>209.750</ele><time>2015-10-28T13:32:32Z</time></trkpt><trkpt lat="43.329978" lon="-5.844900"><ele>208.739</ele><time>2015-10-28T13:32:41Z</time></trkpt><trkpt lat="43.330134" lon="-5.844979"><ele>207.324</ele><time>2015-10-28T13:32:55Z</time></trkpt><trkpt lat="43.330212" lon="-5.845018"><ele>206.385</ele><time>2015-10-28T13:33:04Z</time></trkpt><trkpt lat="43.330346" lon="-5.845143"><ele>205.987</ele><time>2015-10-28T13:33:18Z</time></trkpt><trkpt lat="43.330406" lon="-5.845182"><ele>205.985</ele><time>2015-10-28T13:33:23Z</time></trkpt><trkpt lat="43.330541" lon="-5.845278"><ele>205.969</ele><time>2015-10-28T13:33:38Z</time></trkpt><trkpt lat="43.330553" lon="-5.845299"><ele>205.904</ele><time>2015-10-28T13:33:40Z</time></trkpt><trkpt lat="43.330558" lon="-5.845498"><ele>207.324</ele><time>2015-10-28T13:33:55Z</time></trkpt><trkpt lat="43.330527" lon="-5.845665"><ele>209.208</ele><time>2015-10-28T13:34:10Z</time></trkpt><trkpt lat="43.330494" lon="-5.845883"><ele>210.727</ele><time>2015-10-28T13:34:26Z</time></trkpt><trkpt lat="43.330470" lon="-5.846034"><ele>212.177</ele><time>2015-10-28T13:34:39Z</time></trkpt><trkpt lat="43.330441" lon="-5.846121"><ele>213.190</ele><time>2015-10-28T13:34:46Z</time></trkpt><trkpt lat="43.330438" lon="-5.846147"><ele>213.159</ele><time>2015-10-28T13:34:48Z</time></trkpt><trkpt lat="43.330413" lon="-5.846308"><ele>215.014</ele><time>2015-10-28T13:35:01Z</time></trkpt><trkpt lat="43.330416" lon="-5.846397"><ele>215.925</ele><time>2015-10-28T13:35:09Z</time></trkpt><trkpt lat="43.330431" lon="-5.846561"><ele>217.427</ele><time>2015-10-28T13:35:23Z</time></trkpt><trkpt lat="43.330457" lon="-5.846710"><ele>218.865</ele><time>2015-10-28T13:35:36Z</time></trkpt><trkpt lat="43.330521" lon="-5.846848"><ele>220.352</ele><time>2015-10-28T13:35:50Z</time></trkpt><trkpt lat="43.330536" lon="-5.846857"><ele>220.353</ele><time>2015-10-28T13:35:52Z</time></trkpt><trkpt lat="43.330638" lon="-5.846853"><ele>222.208</ele><time>2015-10-28T13:36:05Z</time></trkpt><trkpt lat="43.330751" lon="-5.846816"><ele>224.108</ele><time>2015-10-28T13:36:19Z</time></trkpt><trkpt lat="43.330872" lon="-5.846742"><ele>226.576</ele><time>2015-10-28T13:36:35Z</time></trkpt><trkpt lat="43.330919" lon="-5.846719"><ele>227.536</ele><time>2015-10-28T13:36:40Z</time></trkpt><trkpt lat="43.330949" lon="-5.846690"><ele>228.089</ele><time>2015-10-28T13:36:44Z</time></trkpt><trkpt lat="43.331105" lon="-5.846613"><ele>230.468</ele><time>2015-10-28T13:37:01Z</time></trkpt><trkpt lat="43.331244" lon="-5.846523"><ele>231.363</ele><time>2015-10-28T13:37:16Z</time></trkpt><trkpt lat="43.331254" lon="-5.846516"><ele>231.834</ele><time>2015-10-28T13:37:17Z</time></trkpt><trkpt lat="43.331398" lon="-5.846360"><ele>233.316</ele><time>2015-10-28T13:37:35Z</time></trkpt><trkpt lat="43.331521" lon="-5.846223"><ele>234.784</ele><time>2015-10-28T13:37:51Z</time></trkpt><trkpt lat="43.331656" lon="-5.846060"><ele>236.113</ele><time>2015-10-28T13:38:09Z</time></trkpt><trkpt lat="43.331754" lon="-5.845912"><ele>236.643</ele><time>2015-10-28T13:38:23Z</time></trkpt><trkpt lat="43.331861" lon="-5.845784"><ele>237.607</ele><time>2015-10-28T13:38:37Z</time></trkpt><trkpt lat="43.331870" lon="-5.845778"><ele>237.608</ele><time>2015-10-28T13:38:38Z</time></trkpt><trkpt lat="43.331913" lon="-5.845739"><ele>238.532</ele><time>2015-10-28T13:38:43Z</time></trkpt><trkpt lat="43.332027" lon="-5.845530"><ele>239.592</ele><time>2015-10-28T13:39:00Z</time></trkpt><trkpt lat="43.332144" lon="-5.845366"><ele>240.995</ele><time>2015-10-28T13:39:16Z</time></trkpt><trkpt lat="43.332262" lon="-5.845243"><ele>241.924</ele><time>2015-10-28T13:39:28Z</time></trkpt><trkpt lat="43.332291" lon="-5.845221"><ele>242.499</ele><time>2015-10-28T13:39:31Z</time></trkpt><trkpt lat="43.332368" lon="-5.845162"><ele>242.930</ele><time>2015-10-28T13:39:39Z</time></trkpt><trkpt lat="43.332516" lon="-5.845096"><ele>244.372</ele><time>2015-10-28T13:39:53Z</time></trkpt><trkpt lat="43.332673" lon="-5.845098"><ele>246.720</ele><time>2015-10-28T13:40:09Z</time></trkpt><trkpt lat="43.332832" lon="-5.845131"><ele>249.119</ele><time>2015-10-28T13:40:25Z</time></trkpt><trkpt lat="43.332987" lon="-5.845182"><ele>251.009</ele><time>2015-10-28T13:40:40Z</time></trkpt><trkpt lat="43.333154" lon="-5.845258"><ele>252.519</ele><time>2015-10-28T13:40:56Z</time></trkpt><trkpt lat="43.333361" lon="-5.845324"><ele>253.408</ele><time>2015-10-28T13:41:14Z</time></trkpt><trkpt lat="43.333550" lon="-5.845330"><ele>254.492</ele><time>2015-10-28T13:41:31Z</time></trkpt><trkpt lat="43.333728" lon="-5.845340"><ele>255.482</ele><time>2015-10-28T13:41:47Z</time></trkpt><trkpt lat="43.333892" lon="-5.845347"><ele>256.375</ele><time>2015-10-28T13:42:02Z</time></trkpt><trkpt lat="43.334080" lon="-5.845371"><ele>257.844</ele><time>2015-10-28T13:42:19Z</time></trkpt><trkpt lat="43.334145" lon="-5.845389"><ele>258.229</ele><time>2015-10-28T13:42:25Z</time></trkpt><trkpt lat="43.334314" lon="-5.845456"><ele>259.790</ele><time>2015-10-28T13:42:41Z</time></trkpt><trkpt lat="43.334334" lon="-5.845469"><ele>259.712</ele><time>2015-10-28T13:42:43Z</time></trkpt><trkpt lat="43.334560" lon="-5.845534"><ele>261.630</ele><time>2015-10-28T13:43:03Z</time></trkpt><trkpt lat="43.334747" lon="-5.845588"><ele>262.148</ele><time>2015-10-28T13:43:20Z</time></trkpt><trkpt lat="43.334943" lon="-5.845628"><ele>263.561</ele><time>2015-10-28T13:43:37Z</time></trkpt><trkpt lat="43.335143" lon="-5.845625"><ele>265.517</ele><time>2015-10-28T13:43:55Z</time></trkpt><trkpt lat="43.335321" lon="-5.845601"><ele>267.908</ele><time>2015-10-28T13:44:12Z</time></trkpt><trkpt lat="43.335458" lon="-5.845599"><ele>271.225</ele><time>2015-10-28T13:44:26Z</time></trkpt><trkpt lat="43.335594" lon="-5.845632"><ele>274.135</ele><time>2015-10-28T13:44:40Z</time></trkpt><trkpt lat="43.335688" lon="-5.845786"><ele>276.588</ele><time>2015-10-28T13:44:54Z</time></trkpt><trkpt lat="43.335739" lon="-5.845997"><ele>278.917</ele><time>2015-10-28T13:45:07Z</time></trkpt><trkpt lat="43.335816" lon="-5.846222"><ele>281.892</ele><time>2015-10-28T13:45:24Z</time></trkpt><trkpt lat="43.335892" lon="-5.846482"><ele>284.273</ele><time>2015-10-28T13:45:43Z</time></trkpt><trkpt lat="43.335969" lon="-5.846667"><ele>286.115</ele><time>2015-10-28T13:45:58Z</time></trkpt><trkpt lat="43.336036" lon="-5.846820"><ele>288.053</ele><time>2015-10-28T13:46:11Z</time></trkpt><trkpt lat="43.336170" lon="-5.846888"><ele>290.591</ele><time>2015-10-28T13:46:28Z</time></trkpt><trkpt lat="43.336357" lon="-5.846885"><ele>292.981</ele><time>2015-10-28T13:46:46Z</time></trkpt><trkpt lat="43.336373" lon="-5.846884"><ele>293.319</ele><time>2015-10-28T13:46:48Z</time></trkpt><trkpt lat="43.336439" lon="-5.846895"><ele>293.808</ele><time>2015-10-28T13:46:54Z</time></trkpt><trkpt lat="43.336667" lon="-5.846902"><ele>295.320</ele><time>2015-10-28T13:47:13Z</time></trkpt><trkpt lat="43.336887" lon="-5.846963"><ele>295.340</ele><time>2015-10-28T13:47:31Z</time></trkpt><trkpt lat="43.337103" lon="-5.847004"><ele>295.363</ele><time>2015-10-28T13:47:48Z</time></trkpt><trkpt lat="43.337325" lon="-5.847089"><ele>295.342</ele><time>2015-10-28T13:48:06Z</time></trkpt><trkpt lat="43.337519" lon="-5.847087"><ele>295.347</ele><time>2015-10-28T13:48:22Z</time></trkpt><trkpt lat="43.337748" lon="-5.847035"><ele>295.738</ele><time>2015-10-28T13:48:41Z</time></trkpt><trkpt lat="43.337944" lon="-5.846945"><ele>296.260</ele><time>2015-10-28T13:48:58Z</time></trkpt><trkpt lat="43.338132" lon="-5.846876"><ele>296.738</ele><time>2015-10-28T13:49:15Z</time></trkpt><trkpt lat="43.338314" lon="-5.846808"><ele>298.138</ele><time>2015-10-28T13:49:32Z</time></trkpt><trkpt lat="43.338479" lon="-5.846664"><ele>298.170</ele><time>2015-10-28T13:49:49Z</time></trkpt><trkpt lat="43.338625" lon="-5.846493"><ele>299.617</ele><time>2015-10-28T13:50:06Z</time></trkpt><trkpt lat="43.338799" lon="-5.846358"><ele>301.008</ele><time>2015-10-28T13:50:23Z</time></trkpt><trkpt lat="43.338971" lon="-5.846332"><ele>303.494</ele><time>2015-10-28T13:50:39Z</time></trkpt><trkpt lat="43.339016" lon="-5.846323"><ele>304.444</ele><time>2015-10-28T13:50:44Z</time></trkpt><trkpt lat="43.339161" lon="-5.846153"><ele>305.847</ele><time>2015-10-28T13:51:02Z</time></trkpt><trkpt lat="43.339320" lon="-5.845975"><ele>306.346</ele><time>2015-10-28T13:51:19Z</time></trkpt><trkpt lat="43.339456" lon="-5.845794"><ele>307.821</ele><time>2015-10-28T13:51:34Z</time></trkpt><trkpt lat="43.339569" lon="-5.845584"><ele>308.722</ele><time>2015-10-28T13:51:51Z</time></trkpt><trkpt lat="43.339650" lon="-5.845400"><ele>309.724</ele><time>2015-10-28T13:52:06Z</time></trkpt><trkpt lat="43.339747" lon="-5.845174"><ele>309.782</ele><time>2015-10-28T13:52:22Z</time></trkpt><trkpt lat="43.339860" lon="-5.845007"><ele>311.175</ele><time>2015-10-28T13:52:36Z</time></trkpt><trkpt lat="43.339981" lon="-5.844896"><ele>312.628</ele><time>2015-10-28T13:52:49Z</time></trkpt><trkpt lat="43.340147" lon="-5.844763"><ele>314.020</ele><time>2015-10-28T13:53:06Z</time></trkpt><trkpt lat="43.340325" lon="-5.844615"><ele>315.008</ele><time>2015-10-28T13:53:23Z</time></trkpt><trkpt lat="43.340515" lon="-5.844491"><ele>316.948</ele><time>2015-10-28T13:53:41Z</time></trkpt><trkpt lat="43.340654" lon="-5.844435"><ele>316.938</ele><time>2015-10-28T13:53:54Z</time></trkpt><trkpt lat="43.340895" lon="-5.844402"><ele>316.971</ele><time>2015-10-28T13:54:12Z</time></trkpt><trkpt lat="43.341139" lon="-5.844339"><ele>317.960</ele><time>2015-10-28T13:54:30Z</time></trkpt><trkpt lat="43.341348" lon="-5.844257"><ele>318.365</ele><time>2015-10-28T13:54:49Z</time></trkpt><trkpt lat="43.341530" lon="-5.844293"><ele>318.326</ele><time>2015-10-28T13:55:04Z</time></trkpt><trkpt lat="43.341571" lon="-5.844333"><ele>316.928</ele><time>2015-10-28T13:55:07Z</time></trkpt><trkpt lat="43.341651" lon="-5.844413"><ele>316.476</ele><time>2015-10-28T13:55:15Z</time></trkpt><trkpt lat="43.341707" lon="-5.844500"><ele>316.433</ele><time>2015-10-28T13:55:28Z</time></trkpt><trkpt lat="43.341888" lon="-5.844650"><ele>315.523</ele><time>2015-10-28T13:55:45Z</time></trkpt><trkpt lat="43.342097" lon="-5.844783"><ele>314.515</ele><time>2015-10-28T13:56:04Z</time></trkpt><trkpt lat="43.342168" lon="-5.844804"><ele>313.508</ele><time>2015-10-28T13:56:11Z</time></trkpt><trkpt lat="43.342398" lon="-5.844763"><ele>313.034</ele><time>2015-10-28T13:56:30Z</time></trkpt><trkpt lat="43.342417" lon="-5.844754"><ele>313.014</ele><time>2015-10-28T13:56:32Z</time></trkpt><trkpt lat="43.342620" lon="-5.844663"><ele>312.157</ele><time>2015-10-28T13:56:50Z</time></trkpt><trkpt lat="43.342816" lon="-5.844472"><ele>311.176</ele><time>2015-10-28T13:57:11Z</time></trkpt><trkpt lat="43.342910" lon="-5.844374"><ele>309.791</ele><time>2015-10-28T13:57:21Z</time></trkpt><trkpt lat="43.342979" lon="-5.844329"><ele>309.732</ele><time>2015-10-28T13:57:28Z</time></trkpt><trkpt lat="43.343186" lon="-5.844260"><ele>308.734</ele><time>2015-10-28T13:57:45Z</time></trkpt><trkpt lat="43.343333" lon="-5.844176"><ele>308.242</ele><time>2015-10-28T13:57:59Z</time></trkpt><trkpt lat="43.343367" lon="-5.844118"><ele>307.849</ele><time>2015-10-28T13:58:05Z</time></trkpt><trkpt lat="43.343409" lon="-5.844108"><ele>307.802</ele><time>2015-10-28T13:58:10Z</time></trkpt><trkpt lat="43.343638" lon="-5.844077"><ele>307.322</ele><time>2015-10-28T13:58:29Z</time></trkpt><trkpt lat="43.343886" lon="-5.844086"><ele>306.308</ele><time>2015-10-28T13:58:49Z</time></trkpt><trkpt lat="43.343955" lon="-5.844096"><ele>305.845</ele><time>2015-10-28T13:59:05Z</time></trkpt><trkpt lat="43.344071" lon="-5.844101"><ele>304.985</ele><time>2015-10-28T13:59:21Z</time></trkpt><trkpt lat="43.344266" lon="-5.844128"><ele>304.948</ele><time>2015-10-28T13:59:37Z</time></trkpt><trkpt lat="43.344483" lon="-5.844076"><ele>303.967</ele><time>2015-10-28T13:59:55Z</time></trkpt><trkpt lat="43.344547" lon="-5.844057"><ele>303.962</ele><time>2015-10-28T14:00:01Z</time></trkpt><trkpt lat="43.344607" lon="-5.844045"><ele>303.013</ele><time>2015-10-28T14:00:06Z</time></trkpt><trkpt lat="43.344791" lon="-5.843973"><ele>302.575</ele><time>2015-10-28T14:00:22Z</time></trkpt><trkpt lat="43.344922" lon="-5.843951"><ele>302.073</ele><time>2015-10-28T14:00:34Z</time></trkpt><trkpt lat="43.345048" lon="-5.843918"><ele>302.068</ele><time>2015-10-28T14:00:46Z</time></trkpt><trkpt lat="43.345080" lon="-5.843912"><ele>302.042</ele><time>2015-10-28T14:00:49Z</time></trkpt><trkpt lat="43.345248" lon="-5.843882"><ele>302.026</ele><time>2015-10-28T14:01:02Z</time></trkpt><trkpt lat="43.345416" lon="-5.843959"><ele>301.008</ele><time>2015-10-28T14:01:17Z</time></trkpt><trkpt lat="43.345574" lon="-5.844069"><ele>300.127</ele><time>2015-10-28T14:01:31Z</time></trkpt><trkpt lat="43.345582" lon="-5.844079"><ele>300.127</ele><time>2015-10-28T14:01:32Z</time></trkpt><trkpt lat="43.345740" lon="-5.844239"><ele>298.160</ele><time>2015-10-28T14:01:47Z</time></trkpt><trkpt lat="43.345867" lon="-5.844370"><ele>295.329</ele><time>2015-10-28T14:02:01Z</time></trkpt><trkpt lat="43.346021" lon="-5.844485"><ele>292.484</ele><time>2015-10-28T14:02:18Z</time></trkpt><trkpt lat="43.346093" lon="-5.844571"><ele>290.965</ele><time>2015-10-28T14:02:27Z</time></trkpt><trkpt lat="43.346145" lon="-5.844680"><ele>289.547</ele><time>2015-10-28T14:02:36Z</time></trkpt><trkpt lat="43.346277" lon="-5.844874"><ele>287.165</ele><time>2015-10-28T14:02:54Z</time></trkpt><trkpt lat="43.346391" lon="-5.845011"><ele>284.782</ele><time>2015-10-28T14:03:09Z</time></trkpt><trkpt lat="43.346454" lon="-5.845055"><ele>283.743</ele><time>2015-10-28T14:03:16Z</time></trkpt><trkpt lat="43.346497" lon="-5.845177"><ele>282.817</ele><time>2015-10-28T14:03:24Z</time></trkpt><trkpt lat="43.346547" lon="-5.845238"><ele>282.808</ele><time>2015-10-28T14:03:30Z</time></trkpt><trkpt lat="43.346641" lon="-5.845360"><ele>282.359</ele><time>2015-10-28T14:03:44Z</time></trkpt><trkpt lat="43.346640" lon="-5.845376"><ele>282.399</ele><time>2015-10-28T14:03:58Z</time></trkpt><trkpt lat="43.346643" lon="-5.845398"><ele>282.372</ele><time>2015-10-28T14:04:19Z</time></trkpt><trkpt lat="43.346617" lon="-5.845373"><ele>282.351</ele><time>2015-10-28T14:04:49Z</time></trkpt><trkpt lat="43.346631" lon="-5.845384"><ele>282.316</ele><time>2015-10-28T14:05:07Z</time></trkpt><trkpt lat="43.346648" lon="-5.845386"><ele>282.387</ele><time>2015-10-28T14:05:29Z</time></trkpt><trkpt lat="43.346657" lon="-5.845378"><ele>282.399</ele><time>2015-10-28T14:05:52Z</time></trkpt><trkpt lat="43.346646" lon="-5.845357"><ele>282.347</ele><time>2015-10-28T14:06:15Z</time></trkpt><trkpt lat="43.346639" lon="-5.845360"><ele>282.384</ele><time>2015-10-28T14:06:38Z</time></trkpt><trkpt lat="43.346636" lon="-5.845384"><ele>282.307</ele><time>2015-10-28T14:07:11Z</time></trkpt><trkpt lat="43.346641" lon="-5.845383"><ele>281.817</ele><time>2015-10-28T14:07:38Z</time></trkpt><trkpt lat="43.346632" lon="-5.845391"><ele>282.308</ele><time>2015-10-28T14:08:09Z</time></trkpt><trkpt lat="43.346627" lon="-5.845377"><ele>282.359</ele><time>2015-10-28T14:08:36Z</time></trkpt><trkpt lat="43.346626" lon="-5.845387"><ele>282.329</ele><time>2015-10-28T14:09:03Z</time></trkpt><trkpt lat="43.346636" lon="-5.845397"><ele>282.362</ele><time>2015-10-28T14:09:36Z</time></trkpt><trkpt lat="43.346641" lon="-5.845385"><ele>281.881</ele><time>2015-10-28T14:10:07Z</time></trkpt><trkpt lat="43.346636" lon="-5.845382"><ele>281.886</ele><time>2015-10-28T14:10:42Z</time></trkpt><trkpt lat="43.346633" lon="-5.845381"><ele>281.877</ele><time>2015-10-28T14:11:13Z</time></trkpt><trkpt lat="43.346620" lon="-5.845360"><ele>281.859</ele><time>2015-10-28T14:11:52Z</time></trkpt><trkpt lat="43.346634" lon="-5.845384"><ele>281.897</ele><time>2015-10-28T14:12:28Z</time></trkpt><trkpt lat="43.346629" lon="-5.845392"><ele>282.337</ele><time>2015-10-28T14:13:00Z</time></trkpt><trkpt lat="43.346615" lon="-5.845373"><ele>282.349</ele><time>2015-10-28T14:13:34Z</time></trkpt><trkpt lat="43.346620" lon="-5.845392"><ele>282.313</ele><time>2015-10-28T14:14:10Z</time></trkpt><trkpt lat="43.346613" lon="-5.845383"><ele>282.308</ele><time>2015-10-28T14:14:39Z</time></trkpt><trkpt lat="43.346625" lon="-5.845377"><ele>282.324</ele><time>2015-10-28T14:15:14Z</time></trkpt><trkpt lat="43.346646" lon="-5.845361"><ele>282.334</ele><time>2015-10-28T14:15:51Z</time></trkpt><trkpt lat="43.346636" lon="-5.845380"><ele>282.387</ele><time>2015-10-28T14:16:27Z</time></trkpt><trkpt lat="43.346645" lon="-5.845371"><ele>282.356</ele><time>2015-10-28T14:16:52Z</time></trkpt><trkpt lat="43.346647" lon="-5.845395"><ele>282.331</ele><time>2015-10-28T14:17:22Z</time></trkpt><trkpt lat="43.346623" lon="-5.845398"><ele>282.872</ele><time>2015-10-28T14:17:55Z</time></trkpt><trkpt lat="43.346636" lon="-5.845402"><ele>282.354</ele><time>2015-10-28T14:18:27Z</time></trkpt><trkpt lat="43.346631" lon="-5.845396"><ele>282.352</ele><time>2015-10-28T14:19:03Z</time></trkpt><trkpt lat="43.346621" lon="-5.845396"><ele>282.352</ele><time>2015-10-28T14:19:32Z</time></trkpt><trkpt lat="43.346646" lon="-5.845413"><ele>282.353</ele><time>2015-10-28T14:20:03Z</time></trkpt><trkpt lat="43.346635" lon="-5.845381"><ele>282.308</ele><time>2015-10-28T14:20:38Z</time></trkpt><trkpt lat="43.346634" lon="-5.845395"><ele>282.308</ele><time>2015-10-28T14:21:09Z</time></trkpt><trkpt lat="43.346646" lon="-5.845388"><ele>282.326</ele><time>2015-10-28T14:21:30Z</time></trkpt><trkpt lat="43.346641" lon="-5.845388"><ele>282.826</ele><time>2015-10-28T14:22:01Z</time></trkpt><trkpt lat="43.346647" lon="-5.845378"><ele>282.839</ele><time>2015-10-28T14:22:27Z</time></trkpt><trkpt lat="43.346628" lon="-5.845380"><ele>282.838</ele><time>2015-10-28T14:22:59Z</time></trkpt><trkpt lat="43.346642" lon="-5.845359"><ele>282.873</ele><time>2015-10-28T14:23:28Z</time></trkpt><trkpt lat="43.346663" lon="-5.845391"><ele>282.894</ele><time>2015-10-28T14:23:41Z</time></trkpt><trkpt lat="43.346663" lon="-5.845391"><ele>282.836</ele><time>2015-10-28T14:24:03Z</time></trkpt><trkpt lat="43.346680" lon="-5.845390"><ele>282.894</ele><time>2015-10-28T14:24:20Z</time></trkpt><trkpt lat="43.346661" lon="-5.845388"><ele>282.883</ele><time>2015-10-28T14:24:35Z</time></trkpt><trkpt lat="43.346583" lon="-5.845311"><ele>282.825</ele><time>2015-10-28T14:24:51Z</time></trkpt><trkpt lat="43.346574" lon="-5.845262"><ele>282.817</ele><time>2015-10-28T14:24:59Z</time></trkpt><trkpt lat="43.346613" lon="-5.845170"><ele>282.808</ele><time>2015-10-28T14:25:07Z</time></trkpt><trkpt lat="43.346720" lon="-5.845143"><ele>281.359</ele><time>2015-10-28T14:25:22Z</time></trkpt><trkpt lat="43.346822" lon="-5.845149"><ele>280.459</ele><time>2015-10-28T14:25:33Z</time></trkpt><trkpt lat="43.347032" lon="-5.845191"><ele>278.982</ele><time>2015-10-28T14:25:51Z</time></trkpt><trkpt lat="43.347125" lon="-5.845170"><ele>277.521</ele><time>2015-10-28T14:25:59Z</time></trkpt><trkpt lat="43.347266" lon="-5.845134"><ele>276.096</ele><time>2015-10-28T14:26:13Z</time></trkpt><trkpt lat="43.347304" lon="-5.845142"><ele>275.647</ele><time>2015-10-28T14:26:17Z</time></trkpt><trkpt lat="43.347445" lon="-5.845168"><ele>274.179</ele><time>2015-10-28T14:26:33Z</time></trkpt><trkpt lat="43.347499" lon="-5.845169"><ele>273.637</ele><time>2015-10-28T14:26:40Z</time></trkpt><trkpt lat="43.347549" lon="-5.845180"><ele>273.658</ele><time>2015-10-28T14:26:45Z</time></trkpt><trkpt lat="43.347613" lon="-5.845168"><ele>272.752</ele><time>2015-10-28T14:26:52Z</time></trkpt><trkpt lat="43.347771" lon="-5.845114"><ele>270.817</ele><time>2015-10-28T14:27:08Z</time></trkpt><trkpt lat="43.347997" lon="-5.845074"><ele>269.308</ele><time>2015-10-28T14:27:27Z</time></trkpt><trkpt lat="43.348139" lon="-5.845039"><ele>267.996</ele><time>2015-10-28T14:27:43Z</time></trkpt><trkpt lat="43.348295" lon="-5.844986"><ele>265.546</ele><time>2015-10-28T14:27:59Z</time></trkpt><trkpt lat="43.348423" lon="-5.844919"><ele>264.059</ele><time>2015-10-28T14:28:15Z</time></trkpt><trkpt lat="43.348640" lon="-5.844851"><ele>262.158</ele><time>2015-10-28T14:28:34Z</time></trkpt><trkpt lat="43.348810" lon="-5.844759"><ele>260.253</ele><time>2015-10-28T14:28:49Z</time></trkpt><trkpt lat="43.348871" lon="-5.844742"><ele>259.794</ele><time>2015-10-28T14:28:54Z</time></trkpt><trkpt lat="43.349076" lon="-5.844672"><ele>257.356</ele><time>2015-10-28T14:29:14Z</time></trkpt><trkpt lat="43.349230" lon="-5.844613"><ele>254.984</ele><time>2015-10-28T14:29:32Z</time></trkpt><trkpt lat="43.349292" lon="-5.844575"><ele>253.931</ele><time>2015-10-28T14:29:38Z</time></trkpt><trkpt lat="43.349453" lon="-5.844484"><ele>251.561</ele><time>2015-10-28T14:29:54Z</time></trkpt><trkpt lat="43.349642" lon="-5.844412"><ele>249.607</ele><time>2015-10-28T14:30:12Z</time></trkpt><trkpt lat="43.349810" lon="-5.844357"><ele>248.208</ele><time>2015-10-28T14:30:29Z</time></trkpt><trkpt lat="43.349968" lon="-5.844298"><ele>246.794</ele><time>2015-10-28T14:30:45Z</time></trkpt><trkpt lat="43.350001" lon="-5.844293"><ele>246.764</ele><time>2015-10-28T14:30:48Z</time></trkpt><trkpt lat="43.350073" lon="-5.844256"><ele>246.257</ele><time>2015-10-28T14:30:55Z</time></trkpt><trkpt lat="43.350171" lon="-5.844216"><ele>245.346</ele><time>2015-10-28T14:31:03Z</time></trkpt><trkpt lat="43.350267" lon="-5.844198"><ele>244.831</ele><time>2015-10-28T14:31:11Z</time></trkpt><trkpt lat="43.350438" lon="-5.844153"><ele>243.832</ele><time>2015-10-28T14:31:27Z</time></trkpt><trkpt lat="43.350621" lon="-5.844129"><ele>241.984</ele><time>2015-10-28T14:31:43Z</time></trkpt><trkpt lat="43.350697" lon="-5.844082"><ele>240.532</ele><time>2015-10-28T14:31:56Z</time></trkpt><trkpt lat="43.350761" lon="-5.844152"><ele>239.575</ele><time>2015-10-28T14:32:09Z</time></trkpt><trkpt lat="43.350934" lon="-5.844056"><ele>238.128</ele><time>2015-10-28T14:32:26Z</time></trkpt><trkpt lat="43.351116" lon="-5.843912"><ele>237.120</ele><time>2015-10-28T14:32:40Z</time></trkpt><trkpt lat="43.351143" lon="-5.843910"><ele>237.108</ele><time>2015-10-28T14:32:42Z</time></trkpt><trkpt lat="43.351380" lon="-5.843876"><ele>237.118</ele><time>2015-10-28T14:33:00Z</time></trkpt><trkpt lat="43.351455" lon="-5.843840"><ele>237.128</ele><time>2015-10-28T14:33:08Z</time></trkpt><trkpt lat="43.351594" lon="-5.843752"><ele>237.171</ele><time>2015-10-28T14:33:24Z</time></trkpt><trkpt lat="43.351664" lon="-5.843761"><ele>237.160</ele><time>2015-10-28T14:33:32Z</time></trkpt><trkpt lat="43.351738" lon="-5.843810"><ele>238.595</ele><time>2015-10-28T14:33:38Z</time></trkpt><trkpt lat="43.351893" lon="-5.843950"><ele>238.576</ele><time>2015-10-28T14:33:54Z</time></trkpt><trkpt lat="43.352080" lon="-5.844092"><ele>239.048</ele><time>2015-10-28T14:34:11Z</time></trkpt><trkpt lat="43.352201" lon="-5.844253"><ele>240.056</ele><time>2015-10-28T14:34:24Z</time></trkpt><trkpt lat="43.352294" lon="-5.844370"><ele>240.956</ele><time>2015-10-28T14:34:34Z</time></trkpt><trkpt lat="43.352402" lon="-5.844466"><ele>241.459</ele><time>2015-10-28T14:34:46Z</time></trkpt><trkpt lat="43.352504" lon="-5.844562"><ele>243.814</ele><time>2015-10-28T14:35:00Z</time></trkpt><trkpt lat="43.352643" lon="-5.844691"><ele>245.808</ele><time>2015-10-28T14:35:18Z</time></trkpt><trkpt lat="43.352798" lon="-5.844809"><ele>246.746</ele><time>2015-10-28T14:35:34Z</time></trkpt><trkpt lat="43.352940" lon="-5.844877"><ele>247.766</ele><time>2015-10-28T14:35:48Z</time></trkpt><trkpt lat="43.352977" lon="-5.844887"><ele>248.259</ele><time>2015-10-28T14:35:52Z</time></trkpt><trkpt lat="43.353075" lon="-5.844850"><ele>251.528</ele><time>2015-10-28T14:36:07Z</time></trkpt><trkpt lat="43.353171" lon="-5.844759"><ele>252.083</ele><time>2015-10-28T14:36:20Z</time></trkpt><trkpt lat="43.353202" lon="-5.844672"><ele>252.044</ele><time>2015-10-28T14:36:26Z</time></trkpt><trkpt lat="43.353202" lon="-5.844608"><ele>252.046</ele><time>2015-10-28T14:36:30Z</time></trkpt><trkpt lat="43.353234" lon="-5.844498"><ele>252.574</ele><time>2015-10-28T14:36:38Z</time></trkpt><trkpt lat="43.353356" lon="-5.844490"><ele>252.595</ele><time>2015-10-28T14:36:49Z</time></trkpt><trkpt lat="43.353535" lon="-5.844530"><ele>253.449</ele><time>2015-10-28T14:37:05Z</time></trkpt><trkpt lat="43.353658" lon="-5.844536"><ele>254.423</ele><time>2015-10-28T14:37:17Z</time></trkpt><trkpt lat="43.353746" lon="-5.844541"><ele>254.908</ele><time>2015-10-28T14:37:26Z</time></trkpt><trkpt lat="43.353843" lon="-5.844556"><ele>255.470</ele><time>2015-10-28T14:37:37Z</time></trkpt><trkpt lat="43.353904" lon="-5.844551"><ele>255.910</ele><time>2015-10-28T14:37:42Z</time></trkpt><trkpt lat="43.353943" lon="-5.844545"><ele>255.913</ele><time>2015-10-28T14:37:45Z</time></trkpt><trkpt lat="43.353991" lon="-5.844541"><ele>255.962</ele><time>2015-10-28T14:37:49Z</time></trkpt><trkpt lat="43.354125" lon="-5.844592"><ele>256.357</ele><time>2015-10-28T14:38:02Z</time></trkpt><trkpt lat="43.354214" lon="-5.844614"><ele>257.368</ele><time>2015-10-28T14:38:14Z</time></trkpt><trkpt lat="43.354235" lon="-5.844519"><ele>257.350</ele><time>2015-10-28T14:38:21Z</time></trkpt><trkpt lat="43.354236" lon="-5.844550"><ele>257.368</ele><time>2015-10-28T14:38:35Z</time></trkpt><trkpt lat="43.354226" lon="-5.844559"><ele>257.863</ele><time>2015-10-28T14:38:51Z</time></trkpt><trkpt lat="43.354196" lon="-5.844589"><ele>257.844</ele><time>2015-10-28T14:39:18Z</time></trkpt><trkpt lat="43.354186" lon="-5.844589"><ele>256.818</ele><time>2015-10-28T14:39:24Z</time></trkpt><trkpt lat="43.354314" lon="-5.844491"><ele>259.708</ele><time>2015-10-28T15:08:36Z</time></trkpt><trkpt lat="43.354324" lon="-5.844481"><ele>261.167</ele><time>2015-10-28T15:08:50Z</time></trkpt><trkpt lat="43.354347" lon="-5.844375"><ele>261.117</ele><time>2015-10-28T15:09:05Z</time></trkpt><trkpt lat="43.354320" lon="-5.844318"><ele>261.110</ele><time>2015-10-28T15:09:23Z</time></trkpt><trkpt lat="43.354371" lon="-5.844300"><ele>261.649</ele><time>2015-10-28T15:09:46Z</time></trkpt><trkpt lat="43.354329" lon="-5.844282"><ele>261.664</ele><time>2015-10-28T15:10:22Z</time></trkpt><trkpt lat="43.354334" lon="-5.844281"><ele>261.655</ele><time>2015-10-28T15:10:23Z</time></trkpt><trkpt lat="43.354421" lon="-5.844353"><ele>260.617</ele><time>2015-10-28T15:10:36Z</time></trkpt><trkpt lat="43.354477" lon="-5.844461"><ele>260.635</ele><time>2015-10-28T15:10:49Z</time></trkpt><trkpt lat="43.354494" lon="-5.844464"><ele>260.655</ele><time>2015-10-28T15:10:50Z</time></trkpt><trkpt lat="43.354560" lon="-5.844484"><ele>262.107</ele><time>2015-10-28T15:10:54Z</time></trkpt><trkpt lat="43.354750" lon="-5.844570"><ele>263.117</ele><time>2015-10-28T15:11:09Z</time></trkpt><trkpt lat="43.354828" lon="-5.844652"><ele>263.108</ele><time>2015-10-28T15:11:18Z</time></trkpt><trkpt lat="43.354967" lon="-5.844708"><ele>264.086</ele><time>2015-10-28T15:11:31Z</time></trkpt><trkpt lat="43.355082" lon="-5.844718"><ele>265.066</ele><time>2015-10-28T15:11:40Z</time></trkpt><trkpt lat="43.355210" lon="-5.844730"><ele>265.539</ele><time>2015-10-28T15:11:52Z</time></trkpt><trkpt lat="43.355237" lon="-5.844724"><ele>265.558</ele><time>2015-10-28T15:11:54Z</time></trkpt><trkpt lat="43.355272" lon="-5.844723"><ele>265.533</ele><time>2015-10-28T15:11:57Z</time></trkpt><trkpt lat="43.355497" lon="-5.844502"><ele>265.534</ele><time>2015-10-28T15:12:12Z</time></trkpt><trkpt lat="43.355548" lon="-5.844494"><ele>265.996</ele><time>2015-10-28T15:12:26Z</time></trkpt><trkpt lat="43.355604" lon="-5.844417"><ele>266.474</ele><time>2015-10-28T15:12:35Z</time></trkpt><trkpt lat="43.355748" lon="-5.844343"><ele>266.435</ele><time>2015-10-28T15:12:48Z</time></trkpt><trkpt lat="43.355788" lon="-5.844332"><ele>266.486</ele><time>2015-10-28T15:12:51Z</time></trkpt><trkpt lat="43.355942" lon="-5.844231"><ele>267.414</ele><time>2015-10-28T15:13:03Z</time></trkpt><trkpt lat="43.356124" lon="-5.844130"><ele>267.908</ele><time>2015-10-28T15:13:19Z</time></trkpt><trkpt lat="43.356313" lon="-5.844022"><ele>267.914</ele><time>2015-10-28T15:13:35Z</time></trkpt><trkpt lat="43.356356" lon="-5.844003"><ele>267.984</ele><time>2015-10-28T15:13:39Z</time></trkpt><trkpt lat="43.356584" lon="-5.843905"><ele>267.947</ele><time>2015-10-28T15:13:57Z</time></trkpt><trkpt lat="43.356800" lon="-5.843805"><ele>267.986</ele><time>2015-10-28T15:14:15Z</time></trkpt><trkpt lat="43.356822" lon="-5.843784"><ele>267.941</ele><time>2015-10-28T15:14:17Z</time></trkpt><trkpt lat="43.357057" lon="-5.843747"><ele>267.912</ele><time>2015-10-28T15:14:33Z</time></trkpt><trkpt lat="43.357251" lon="-5.843675"><ele>267.974</ele><time>2015-10-28T15:14:50Z</time></trkpt><trkpt lat="43.357288" lon="-5.843665"><ele>267.952</ele><time>2015-10-28T15:14:53Z</time></trkpt><trkpt lat="43.357371" lon="-5.843645"><ele>267.994</ele><time>2015-10-28T15:15:00Z</time></trkpt><trkpt lat="43.357511" lon="-5.843652"><ele>266.457</ele><time>2015-10-28T15:15:14Z</time></trkpt><trkpt lat="43.357601" lon="-5.843654"><ele>265.022</ele><time>2015-10-28T15:15:23Z</time></trkpt><trkpt lat="43.357702" lon="-5.843700"><ele>264.508</ele><time>2015-10-28T15:15:30Z</time></trkpt><trkpt lat="43.357757" lon="-5.843710"><ele>264.070</ele><time>2015-10-28T15:15:34Z</time></trkpt><trkpt lat="43.357910" lon="-5.843767"><ele>262.610</ele><time>2015-10-28T15:15:49Z</time></trkpt><trkpt lat="43.357955" lon="-5.843779"><ele>262.193</ele><time>2015-10-28T15:15:55Z</time></trkpt><trkpt lat="43.358050" lon="-5.843868"><ele>260.212</ele><time>2015-10-28T15:16:08Z</time></trkpt><trkpt lat="43.358064" lon="-5.843880"><ele>259.787</ele><time>2015-10-28T15:16:10Z</time></trkpt><trkpt lat="43.358105" lon="-5.843928"><ele>259.758</ele><time>2015-10-28T15:16:15Z</time></trkpt><trkpt lat="43.358161" lon="-5.844000"><ele>258.220</ele><time>2015-10-28T15:16:24Z</time></trkpt><trkpt lat="43.358225" lon="-5.844082"><ele>257.878</ele><time>2015-10-28T15:16:30Z</time></trkpt><trkpt lat="43.358339" lon="-5.844266"><ele>256.331</ele><time>2015-10-28T15:16:43Z</time></trkpt><trkpt lat="43.358516" lon="-5.844411"><ele>254.961</ele><time>2015-10-28T15:16:58Z</time></trkpt><trkpt lat="43.358585" lon="-5.844448"><ele>254.407</ele><time>2015-10-28T15:17:03Z</time></trkpt><trkpt lat="43.358637" lon="-5.844532"><ele>253.408</ele><time>2015-10-28T15:17:09Z</time></trkpt><trkpt lat="43.358735" lon="-5.844519"><ele>252.034</ele><time>2015-10-28T15:17:20Z</time></trkpt><trkpt lat="43.358842" lon="-5.844501"><ele>251.084</ele><time>2015-10-28T15:17:32Z</time></trkpt><trkpt lat="43.359036" lon="-5.844675"><ele>250.667</ele><time>2015-10-28T15:17:49Z</time></trkpt><trkpt lat="43.359151" lon="-5.844761"><ele>250.186</ele><time>2015-10-28T15:18:02Z</time></trkpt><trkpt lat="43.359178" lon="-5.844800"><ele>250.121</ele><time>2015-10-28T15:18:05Z</time></trkpt><trkpt lat="43.359249" lon="-5.844946"><ele>250.112</ele><time>2015-10-28T15:18:14Z</time></trkpt><trkpt lat="43.359372" lon="-5.845041"><ele>250.144</ele><time>2015-10-28T15:18:29Z</time></trkpt><trkpt lat="43.359430" lon="-5.845099"><ele>250.142</ele><time>2015-10-28T15:18:38Z</time></trkpt><trkpt lat="43.359541" lon="-5.845090"><ele>250.116</ele><time>2015-10-28T15:18:51Z</time></trkpt><trkpt lat="43.359735" lon="-5.844919"><ele>250.176</ele><time>2015-10-28T15:19:01Z</time></trkpt><trkpt lat="43.359944" lon="-5.844911"><ele>249.613</ele><time>2015-10-28T15:19:21Z</time></trkpt><trkpt lat="43.359939" lon="-5.844936"><ele>249.608</ele><time>2015-10-28T15:19:38Z</time></trkpt><trkpt lat="43.360194" lon="-5.844741"><ele>249.122</ele><time>2015-10-28T15:20:05Z</time></trkpt><trkpt lat="43.360262" lon="-5.844682"><ele>249.112</ele><time>2015-10-28T15:20:13Z</time></trkpt><trkpt lat="43.360372" lon="-5.844639"><ele>249.185</ele><time>2015-10-28T15:20:23Z</time></trkpt><trkpt lat="43.360404" lon="-5.844648"><ele>249.154</ele><time>2015-10-28T15:20:26Z</time></trkpt><trkpt lat="43.360557" lon="-5.844621"><ele>249.129</ele><time>2015-10-28T15:20:42Z</time></trkpt><trkpt lat="43.360708" lon="-5.844608"><ele>249.180</ele><time>2015-10-28T15:20:58Z</time></trkpt><trkpt lat="43.360796" lon="-5.844602"><ele>250.642</ele><time>2015-10-28T15:21:05Z</time></trkpt><trkpt lat="43.360981" lon="-5.844536"><ele>250.160</ele><time>2015-10-28T15:21:19Z</time></trkpt><trkpt lat="43.361187" lon="-5.844385"><ele>250.122</ele><time>2015-10-28T15:21:33Z</time></trkpt><trkpt lat="43.361248" lon="-5.844366"><ele>250.162</ele><time>2015-10-28T15:21:38Z</time></trkpt><trkpt lat="43.361368" lon="-5.844376"><ele>250.108</ele><time>2015-10-28T15:21:52Z</time></trkpt><trkpt lat="43.361510" lon="-5.844402"><ele>250.108</ele><time>2015-10-28T15:22:07Z</time></trkpt><trkpt lat="43.361713" lon="-5.844450"><ele>248.633</ele><time>2015-10-28T15:22:26Z</time></trkpt><trkpt lat="43.361758" lon="-5.844452"><ele>248.633</ele><time>2015-10-28T15:22:31Z</time></trkpt><trkpt lat="43.362013" lon="-5.844326"><ele>248.216</ele><time>2015-10-28T15:22:48Z</time></trkpt><trkpt lat="43.362090" lon="-5.844351"><ele>248.235</ele><time>2015-10-28T15:23:12Z</time></trkpt><trkpt lat="43.362105" lon="-5.844348"><ele>248.230</ele><time>2015-10-28T15:23:18Z</time></trkpt><trkpt lat="43.362206" lon="-5.844361"><ele>247.761</ele><time>2015-10-28T15:23:31Z</time></trkpt><trkpt lat="43.362219" lon="-5.844302"><ele>247.723</ele><time>2015-10-28T15:23:47Z</time></trkpt><trkpt lat="43.362267" lon="-5.844146"><ele>247.251</ele><time>2015-10-28T15:24:05Z</time></trkpt><trkpt lat="43.362268" lon="-5.844071"><ele>246.794</ele><time>2015-10-28T15:24:10Z</time></trkpt><trkpt lat="43.362307" lon="-5.843925"><ele>246.257</ele><time>2015-10-28T15:24:23Z</time></trkpt><trkpt lat="43.362448" lon="-5.843833"><ele>245.822</ele><time>2015-10-28T15:24:39Z</time></trkpt><trkpt lat="43.362487" lon="-5.843816"><ele>246.208</ele><time>2015-10-28T15:24:47Z</time></trkpt><trkpt lat="43.362489" lon="-5.843802"><ele>244.830</ele><time>2015-10-28T15:24:51Z</time></trkpt><trkpt lat="43.362477" lon="-5.843768"><ele>245.860</ele><time>2015-10-28T15:24:55Z</time></trkpt><trkpt lat="43.362517" lon="-5.844044"><ele>247.273</ele><time>2015-10-28T15:41:24Z</time></trkpt><trkpt lat="43.362567" lon="-5.843931"><ele>247.292</ele><time>2015-10-28T15:41:52Z</time></trkpt><trkpt lat="43.362665" lon="-5.844042"><ele>245.897</ele><time>2015-10-28T15:42:29Z</time></trkpt><trkpt lat="43.362569" lon="-5.844193"><ele>245.358</ele><time>2015-10-28T15:42:48Z</time></trkpt><trkpt lat="43.362554" lon="-5.844262"><ele>245.360</ele><time>2015-10-28T15:42:58Z</time></trkpt><trkpt lat="43.362550" lon="-5.844275"><ele>247.298</ele><time>2015-10-28T15:43:00Z</time></trkpt><trkpt lat="43.362532" lon="-5.844360"><ele>245.345</ele><time>2015-10-28T15:43:15Z</time></trkpt><trkpt lat="43.362538" lon="-5.844399"><ele>245.347</ele><time>2015-10-28T15:43:21Z</time></trkpt><trkpt lat="43.362540" lon="-5.844583"><ele>247.211</ele><time>2015-10-28T15:43:38Z</time></trkpt><trkpt lat="43.362503" lon="-5.844776"><ele>246.708</ele><time>2015-10-28T15:43:56Z</time></trkpt><trkpt lat="43.362422" lon="-5.844975"><ele>246.775</ele><time>2015-10-28T15:44:12Z</time></trkpt><trkpt lat="43.362419" lon="-5.845152"><ele>246.285</ele><time>2015-10-28T15:44:30Z</time></trkpt><trkpt lat="43.362413" lon="-5.845214"><ele>245.818</ele><time>2015-10-28T15:44:38Z</time></trkpt><trkpt lat="43.362374" lon="-5.845356"><ele>245.847</ele><time>2015-10-28T15:44:54Z</time></trkpt><trkpt lat="43.362361" lon="-5.845392"><ele>245.852</ele><time>2015-10-28T15:44:58Z</time></trkpt><trkpt lat="43.362314" lon="-5.845541"><ele>244.313</ele><time>2015-10-28T15:45:14Z</time></trkpt><trkpt lat="43.362373" lon="-5.845647"><ele>244.855</ele><time>2015-10-28T15:45:30Z</time></trkpt><trkpt lat="43.362340" lon="-5.845668"><ele>244.373</ele><time>2015-10-28T15:45:55Z</time></trkpt><trkpt lat="43.362343" lon="-5.845661"><ele>244.361</ele><time>2015-10-28T15:46:28Z</time></trkpt><trkpt lat="43.362386" lon="-5.845672"><ele>243.821</ele><time>2015-10-28T15:46:57Z</time></trkpt><trkpt lat="43.362394" lon="-5.845669"><ele>244.313</ele><time>2015-10-28T15:47:21Z</time></trkpt><trkpt lat="43.362443" lon="-5.845704"><ele>239.508</ele><time>2015-10-28T15:47:39Z</time></trkpt><trkpt lat="43.362444" lon="-5.845717"><ele>242.957</ele><time>2015-10-28T15:47:40Z</time></trkpt><trkpt lat="43.362377" lon="-5.845825"><ele>244.817</ele><time>2015-10-28T15:48:01Z</time></trkpt><trkpt lat="43.362373" lon="-5.845820"><ele>243.450</ele><time>2015-10-28T15:48:03Z</time></trkpt><trkpt lat="43.362367" lon="-5.845887"><ele>243.459</ele><time>2015-10-28T15:48:37Z</time></trkpt><trkpt lat="43.362380" lon="-5.845950"><ele>243.854</ele><time>2015-10-28T15:49:09Z</time></trkpt><trkpt lat="43.362327" lon="-5.846017"><ele>244.335</ele><time>2015-10-28T15:49:44Z</time></trkpt><trkpt lat="43.362315" lon="-5.845974"><ele>245.327</ele><time>2015-10-28T15:50:17Z</time></trkpt><trkpt lat="43.362329" lon="-5.845949"><ele>245.815</ele><time>2015-10-28T15:50:52Z</time></trkpt><trkpt lat="43.362333" lon="-5.845979"><ele>246.217</ele><time>2015-10-28T15:51:29Z</time></trkpt><trkpt lat="43.362325" lon="-5.846045"><ele>247.287</ele><time>2015-10-28T15:52:06Z</time></trkpt><trkpt lat="43.362308" lon="-5.846010"><ele>247.715</ele><time>2015-10-28T15:52:41Z</time></trkpt><trkpt lat="43.362309" lon="-5.846006"><ele>248.608</ele><time>2015-10-28T15:53:19Z</time></trkpt><trkpt lat="43.362342" lon="-5.846018"><ele>249.662</ele><time>2015-10-28T15:53:55Z</time></trkpt><trkpt lat="43.362315" lon="-5.845962"><ele>253.072</ele><time>2015-10-28T15:54:11Z</time></trkpt><trkpt lat="43.362314" lon="-5.845961"><ele>253.015</ele><time>2015-10-28T15:54:12Z</time></trkpt><trkpt lat="43.362315" lon="-5.845938"><ele>249.124</ele><time>2015-10-28T15:54:14Z</time></trkpt><trkpt lat="43.362318" lon="-5.845925"><ele>249.629</ele><time>2015-10-28T15:54:15Z</time></trkpt><trkpt lat="43.362326" lon="-5.845743"><ele>250.190</ele><time>2015-10-28T15:54:33Z</time></trkpt><trkpt lat="43.362327" lon="-5.845710"><ele>252.582</ele><time>2015-10-28T15:54:35Z</time></trkpt><trkpt lat="43.362334" lon="-5.845650"><ele>250.650</ele><time>2015-10-28T15:54:38Z</time></trkpt><trkpt lat="43.362384" lon="-5.845119"><ele>253.032</ele><time>2015-10-28T15:54:56Z</time></trkpt><trkpt lat="43.362404" lon="-5.845058"><ele>253.492</ele><time>2015-10-28T15:54:58Z</time></trkpt><trkpt lat="43.362438" lon="-5.844936"><ele>251.511</ele><time>2015-10-28T15:55:01Z</time></trkpt><trkpt lat="43.362455" lon="-5.844901"><ele>253.408</ele><time>2015-10-28T15:55:03Z</time></trkpt><trkpt lat="43.362496" lon="-5.844831"><ele>252.064</ele><time>2015-10-28T15:55:08Z</time></trkpt><trkpt lat="43.362497" lon="-5.844708"><ele>254.434</ele><time>2015-10-28T15:55:17Z</time></trkpt><trkpt lat="43.362130" lon="-5.844495"><ele>254.957</ele><time>2015-10-28T15:55:41Z</time></trkpt><trkpt lat="43.362104" lon="-5.844493"><ele>254.946</ele><time>2015-10-28T15:55:42Z</time></trkpt><trkpt lat="43.362061" lon="-5.844489"><ele>255.971</ele><time>2015-10-28T15:55:44Z</time></trkpt><trkpt lat="43.361950" lon="-5.844459"><ele>255.472</ele><time>2015-10-28T15:55:49Z</time></trkpt><trkpt lat="43.361921" lon="-5.844439"><ele>257.334</ele><time>2015-10-28T15:55:51Z</time></trkpt><trkpt lat="43.361869" lon="-5.844378"><ele>255.982</ele><time>2015-10-28T15:55:54Z</time></trkpt><trkpt lat="43.361685" lon="-5.844427"><ele>256.838</ele><time>2015-10-28T15:56:08Z</time></trkpt><trkpt lat="43.361660" lon="-5.844432"><ele>258.770</ele><time>2015-10-28T15:56:11Z</time></trkpt><trkpt lat="43.361634" lon="-5.844421"><ele>258.717</ele><time>2015-10-28T15:56:15Z</time></trkpt><trkpt lat="43.361542" lon="-5.844369"><ele>258.208</ele><time>2015-10-28T15:56:25Z</time></trkpt><trkpt lat="43.361501" lon="-5.844416"><ele>258.244</ele><time>2015-10-28T15:56:28Z</time></trkpt></trkseg></trk></gpx>